<?xml version="1.0" encoding="UTF-8" standalone="no" ?>
<gpx xmlns="http://www.topografix.com/GPX/1/1" xmlns:xsi="http://www.w3.org/2001/XMLSchema-instance" xsi:schemaLocation="http://www.topografix.com/GPX/1/1 http://www.topografix.com/GPX/1/1/gpx.xsd" version="1.1" creator="VisuGPX - https://www.visugpx.com">
  <metadata>
    <name>Vosges-Juin2021</name>
  </metadata>
  <trk>
    <name><![CDATA[2021-06-12_08-36_Sat]]></name>
    <extensions>
      <line xmlns="http://www.topografix.com/GPX/gpx_style/0/2">
        <color>880088</color>
        <width>4</width>
      </line>
    </extensions>
    <trkseg>
      <trkpt lat="48.63047" lon="2.48643">
        <ele>84.13</ele>
        <time>2021-06-23T09:03:30Z</time>
      </trkpt>
      <trkpt lat="48.63047" lon="2.48643">
        <ele>84.13</ele>
        <time>2021-06-23T09:03:30Z</time>
      </trkpt>
      <trkpt lat="48.63057" lon="2.48679">
        <ele>84.26</ele>
        <time>2021-06-23T09:03:37Z</time>
      </trkpt>
      <trkpt lat="48.63079" lon="2.48765">
        <ele>86.3</ele>
        <time>2021-06-23T09:03:44Z</time>
      </trkpt>
      <trkpt lat="48.63099" lon="2.48858">
        <ele>82.11</ele>
        <time>2021-06-23T09:03:50Z</time>
      </trkpt>
      <trkpt lat="48.63117" lon="2.48952">
        <ele>83.2</ele>
        <time>2021-06-23T09:03:57Z</time>
      </trkpt>
      <trkpt lat="48.6313" lon="2.4904">
        <ele>83.69</ele>
        <time>2021-06-23T09:04:04Z</time>
      </trkpt>
      <trkpt lat="48.63142" lon="2.49144">
        <ele>83.1</ele>
        <time>2021-06-23T09:04:11Z</time>
      </trkpt>
      <trkpt lat="48.63152" lon="2.49241">
        <ele>81.92</ele>
        <time>2021-06-23T09:04:18Z</time>
      </trkpt>
      <trkpt lat="48.63161" lon="2.49381">
        <ele>85.52</ele>
        <time>2021-06-23T09:04:24Z</time>
      </trkpt>
      <trkpt lat="48.63167" lon="2.49485">
        <ele>86</ele>
        <time>2021-06-23T09:04:31Z</time>
      </trkpt>
      <trkpt lat="48.6317" lon="2.49707">
        <ele>89</ele>
        <time>2021-06-23T09:04:38Z</time>
      </trkpt>
      <trkpt lat="48.63168" lon="2.4987">
        <ele>87.32</ele>
        <time>2021-06-23T09:04:45Z</time>
      </trkpt>
      <trkpt lat="48.63163" lon="2.50015">
        <ele>84</ele>
        <time>2021-06-23T09:04:52Z</time>
      </trkpt>
      <trkpt lat="48.6311" lon="2.51018">
        <ele>86.33</ele>
        <time>2021-06-23T09:04:59Z</time>
      </trkpt>
      <trkpt lat="48.63106" lon="2.51208">
        <ele>84.4</ele>
        <time>2021-06-23T09:05:05Z</time>
      </trkpt>
      <trkpt lat="48.63107" lon="2.51382">
        <ele>85.01</ele>
        <time>2021-06-23T09:05:12Z</time>
      </trkpt>
      <trkpt lat="48.63111" lon="2.5157">
        <ele>82.52</ele>
        <time>2021-06-23T09:05:19Z</time>
      </trkpt>
      <trkpt lat="48.6312" lon="2.51752">
        <ele>84.97</ele>
        <time>2021-06-23T09:05:26Z</time>
      </trkpt>
      <trkpt lat="48.63128" lon="2.5189">
        <ele>81.62</ele>
        <time>2021-06-23T09:05:33Z</time>
      </trkpt>
      <trkpt lat="48.63161" lon="2.52332">
        <ele>85</ele>
        <time>2021-06-23T09:05:39Z</time>
      </trkpt>
      <trkpt lat="48.63194" lon="2.52737">
        <ele>86.04</ele>
        <time>2021-06-23T09:05:46Z</time>
      </trkpt>
      <trkpt lat="48.632" lon="2.52776">
        <ele>86.99</ele>
        <time>2021-06-23T09:05:50Z</time>
      </trkpt>
      <trkpt lat="48.63218" lon="2.53015">
        <ele>86.07</ele>
        <time>2021-06-23T09:05:53Z</time>
      </trkpt>
      <trkpt lat="48.63226" lon="2.53116">
        <ele>84.69</ele>
        <time>2021-06-23T09:05:56Z</time>
      </trkpt>
      <trkpt lat="48.6323" lon="2.5318">
        <ele>84.45</ele>
        <time>2021-06-23T09:06:00Z</time>
      </trkpt>
      <trkpt lat="48.6323" lon="2.53238">
        <ele>86.16</ele>
        <time>2021-06-23T09:06:03Z</time>
      </trkpt>
      <trkpt lat="48.63225" lon="2.533">
        <ele>87</ele>
        <time>2021-06-23T09:06:06Z</time>
      </trkpt>
      <trkpt lat="48.63216" lon="2.53351">
        <ele>85.51</ele>
        <time>2021-06-23T09:06:10Z</time>
      </trkpt>
      <trkpt lat="48.63202" lon="2.53401">
        <ele>85.73</ele>
        <time>2021-06-23T09:06:13Z</time>
      </trkpt>
      <trkpt lat="48.63195" lon="2.53419">
        <ele>86.83</ele>
        <time>2021-06-23T09:06:16Z</time>
      </trkpt>
      <trkpt lat="48.63195" lon="2.53419">
        <ele>86.83</ele>
        <time>2021-06-23T09:06:16Z</time>
      </trkpt>
      <trkpt lat="48.63187" lon="2.53442">
        <ele>87.92</ele>
        <time>2021-06-23T09:06:23Z</time>
      </trkpt>
      <trkpt lat="48.63165" lon="2.53485">
        <ele>86.98</ele>
        <time>2021-06-23T09:06:30Z</time>
      </trkpt>
      <trkpt lat="48.6314" lon="2.53524">
        <ele>84.15</ele>
        <time>2021-06-23T09:06:37Z</time>
      </trkpt>
      <trkpt lat="48.63105" lon="2.53562">
        <ele>86.39</ele>
        <time>2021-06-23T09:06:44Z</time>
      </trkpt>
      <trkpt lat="48.6306" lon="2.53599">
        <ele>87</ele>
        <time>2021-06-23T09:06:51Z</time>
      </trkpt>
      <trkpt lat="48.62966" lon="2.53651">
        <ele>86.79</ele>
        <time>2021-06-23T09:06:58Z</time>
      </trkpt>
      <trkpt lat="48.62944" lon="2.5367">
        <ele>87</ele>
        <time>2021-06-23T09:07:05Z</time>
      </trkpt>
      <trkpt lat="48.62874" lon="2.53707">
        <ele>85</ele>
        <time>2021-06-23T09:07:12Z</time>
      </trkpt>
      <trkpt lat="48.62771" lon="2.53776">
        <ele>86.69</ele>
        <time>2021-06-23T09:07:18Z</time>
      </trkpt>
      <trkpt lat="48.62724" lon="2.53812">
        <ele>86.28</ele>
        <time>2021-06-23T09:07:25Z</time>
      </trkpt>
      <trkpt lat="48.62598" lon="2.53928">
        <ele>87.4</ele>
        <time>2021-06-23T09:07:32Z</time>
      </trkpt>
      <trkpt lat="48.62517" lon="2.54014">
        <ele>84.48</ele>
        <time>2021-06-23T09:07:39Z</time>
      </trkpt>
      <trkpt lat="48.62442" lon="2.54106">
        <ele>84</ele>
        <time>2021-06-23T09:07:46Z</time>
      </trkpt>
      <trkpt lat="48.62361" lon="2.54224">
        <ele>80.06</ele>
        <time>2021-06-23T09:07:53Z</time>
      </trkpt>
      <trkpt lat="48.62229" lon="2.54441">
        <ele>81.07</ele>
        <time>2021-06-23T09:08:00Z</time>
      </trkpt>
      <trkpt lat="48.62173" lon="2.54553">
        <ele>82.75</ele>
        <time>2021-06-23T09:08:07Z</time>
      </trkpt>
      <trkpt lat="48.62127" lon="2.54655">
        <ele>84.36</ele>
        <time>2021-06-23T09:08:14Z</time>
      </trkpt>
      <trkpt lat="48.62064" lon="2.54806">
        <ele>85</ele>
        <time>2021-06-23T09:08:20Z</time>
      </trkpt>
      <trkpt lat="48.61815" lon="2.55436">
        <ele>84.35</ele>
        <time>2021-06-23T09:08:27Z</time>
      </trkpt>
      <trkpt lat="48.61695" lon="2.55751">
        <ele>85.98</ele>
        <time>2021-06-23T09:08:34Z</time>
      </trkpt>
      <trkpt lat="48.616" lon="2.55985">
        <ele>87.28</ele>
        <time>2021-06-23T09:08:41Z</time>
      </trkpt>
      <trkpt lat="48.61475" lon="2.56305">
        <ele>90.65</ele>
        <time>2021-06-23T09:08:48Z</time>
      </trkpt>
      <trkpt lat="48.61191" lon="2.57024">
        <ele>87.75</ele>
        <time>2021-06-23T09:08:55Z</time>
      </trkpt>
      <trkpt lat="48.6095" lon="2.57641">
        <ele>95.88</ele>
        <time>2021-06-23T09:09:02Z</time>
      </trkpt>
      <trkpt lat="48.60866" lon="2.57863">
        <ele>91.25</ele>
        <time>2021-06-23T09:09:09Z</time>
      </trkpt>
      <trkpt lat="48.60784" lon="2.58069">
        <ele>89.57</ele>
        <time>2021-06-23T09:09:16Z</time>
      </trkpt>
      <trkpt lat="48.60639" lon="2.58447">
        <ele>89.18</ele>
        <time>2021-06-23T09:09:23Z</time>
      </trkpt>
      <trkpt lat="48.60575" lon="2.58624">
        <ele>88.52</ele>
        <time>2021-06-23T09:09:29Z</time>
      </trkpt>
      <trkpt lat="48.60489" lon="2.5888">
        <ele>90.37</ele>
        <time>2021-06-23T09:09:36Z</time>
      </trkpt>
      <trkpt lat="48.60414" lon="2.59128">
        <ele>87.13</ele>
        <time>2021-06-23T09:09:43Z</time>
      </trkpt>
      <trkpt lat="48.60365" lon="2.59305">
        <ele>91.86</ele>
        <time>2021-06-23T09:09:50Z</time>
      </trkpt>
      <trkpt lat="48.60268" lon="2.59681">
        <ele>90.32</ele>
        <time>2021-06-23T09:09:57Z</time>
      </trkpt>
      <trkpt lat="48.60242" lon="2.59773">
        <ele>91.29</ele>
        <time>2021-06-23T09:10:04Z</time>
      </trkpt>
      <trkpt lat="48.60223" lon="2.59836">
        <ele>89.99</ele>
        <time>2021-06-23T09:10:11Z</time>
      </trkpt>
      <trkpt lat="48.60192" lon="2.5993">
        <ele>91.96</ele>
        <time>2021-06-23T09:10:18Z</time>
      </trkpt>
      <trkpt lat="48.60158" lon="2.60024">
        <ele>90.69</ele>
        <time>2021-06-23T09:10:25Z</time>
      </trkpt>
      <trkpt lat="48.60128" lon="2.60098">
        <ele>91.68</ele>
        <time>2021-06-23T09:10:31Z</time>
      </trkpt>
      <trkpt lat="48.60076" lon="2.60215">
        <ele>90.18</ele>
        <time>2021-06-23T09:10:38Z</time>
      </trkpt>
      <trkpt lat="48.60006" lon="2.60358">
        <ele>84.79</ele>
        <time>2021-06-23T09:10:45Z</time>
      </trkpt>
      <trkpt lat="48.59583" lon="2.61183">
        <ele>85.6</ele>
        <time>2021-06-23T09:10:52Z</time>
      </trkpt>
      <trkpt lat="48.59531" lon="2.61301">
        <ele>86.31</ele>
        <time>2021-06-23T09:10:59Z</time>
      </trkpt>
      <trkpt lat="48.59493" lon="2.61399">
        <ele>84.85</ele>
        <time>2021-06-23T09:11:06Z</time>
      </trkpt>
      <trkpt lat="48.59472" lon="2.61464">
        <ele>84.28</ele>
        <time>2021-06-23T09:11:13Z</time>
      </trkpt>
      <trkpt lat="48.59452" lon="2.61527">
        <ele>82.28</ele>
        <time>2021-06-23T09:11:20Z</time>
      </trkpt>
      <trkpt lat="48.59421" lon="2.61645">
        <ele>84.17</ele>
        <time>2021-06-23T09:11:27Z</time>
      </trkpt>
      <trkpt lat="48.594" lon="2.61742">
        <ele>85.09</ele>
        <time>2021-06-23T09:11:34Z</time>
      </trkpt>
      <trkpt lat="48.59384" lon="2.61833">
        <ele>86.81</ele>
        <time>2021-06-23T09:11:40Z</time>
      </trkpt>
      <trkpt lat="48.59362" lon="2.61971">
        <ele>83.04</ele>
        <time>2021-06-23T09:11:44Z</time>
      </trkpt>
      <trkpt lat="48.5933" lon="2.62125">
        <ele>83.39</ele>
        <time>2021-06-23T09:11:48Z</time>
      </trkpt>
      <trkpt lat="48.59318" lon="2.62194">
        <ele>84.87</ele>
        <time>2021-06-23T09:11:51Z</time>
      </trkpt>
      <trkpt lat="48.59313" lon="2.6223">
        <ele>84.99</ele>
        <time>2021-06-23T09:11:55Z</time>
      </trkpt>
      <trkpt lat="48.59305" lon="2.62332">
        <ele>83.98</ele>
        <time>2021-06-23T09:11:59Z</time>
      </trkpt>
      <trkpt lat="48.59302" lon="2.62526">
        <ele>83.57</ele>
        <time>2021-06-23T09:12:02Z</time>
      </trkpt>
      <trkpt lat="48.59295" lon="2.62598">
        <ele>83.27</ele>
        <time>2021-06-23T09:12:06Z</time>
      </trkpt>
      <trkpt lat="48.59286" lon="2.62661">
        <ele>84.54</ele>
        <time>2021-06-23T09:12:10Z</time>
      </trkpt>
      <trkpt lat="48.59272" lon="2.62728">
        <ele>84.26</ele>
        <time>2021-06-23T09:12:13Z</time>
      </trkpt>
      <trkpt lat="48.59264" lon="2.62764">
        <ele>83</ele>
        <time>2021-06-23T09:12:17Z</time>
      </trkpt>
      <trkpt lat="48.59168" lon="2.63126">
        <ele>82.55</ele>
        <time>2021-06-23T09:12:21Z</time>
      </trkpt>
      <trkpt lat="48.5914" lon="2.6323">
        <ele>84.97</ele>
        <time>2021-06-23T09:12:24Z</time>
      </trkpt>
      <trkpt lat="48.59121" lon="2.63289">
        <ele>84.32</ele>
        <time>2021-06-23T09:12:28Z</time>
      </trkpt>
      <trkpt lat="48.59121" lon="2.63289">
        <ele>84.32</ele>
        <time>2021-06-23T09:12:28Z</time>
      </trkpt>
      <trkpt lat="48.59092" lon="2.6336">
        <ele>83.29</ele>
        <time>2021-06-23T09:12:34Z</time>
      </trkpt>
      <trkpt lat="48.59062" lon="2.63414">
        <ele>82.92</ele>
        <time>2021-06-23T09:12:40Z</time>
      </trkpt>
      <trkpt lat="48.59026" lon="2.63462">
        <ele>84.02</ele>
        <time>2021-06-23T09:12:46Z</time>
      </trkpt>
      <trkpt lat="48.58987" lon="2.63501">
        <ele>85.61</ele>
        <time>2021-06-23T09:12:52Z</time>
      </trkpt>
      <trkpt lat="48.58945" lon="2.63534">
        <ele>86.21</ele>
        <time>2021-06-23T09:12:58Z</time>
      </trkpt>
      <trkpt lat="48.58922" lon="2.63547">
        <ele>86.68</ele>
        <time>2021-06-23T09:13:04Z</time>
      </trkpt>
      <trkpt lat="48.58877" lon="2.63566">
        <ele>86.56</ele>
        <time>2021-06-23T09:13:10Z</time>
      </trkpt>
      <trkpt lat="48.5866" lon="2.63645">
        <ele>83.5</ele>
        <time>2021-06-23T09:13:16Z</time>
      </trkpt>
      <trkpt lat="48.5857" lon="2.63671">
        <ele>85.46</ele>
        <time>2021-06-23T09:13:22Z</time>
      </trkpt>
      <trkpt lat="48.58466" lon="2.63699">
        <ele>83.76</ele>
        <time>2021-06-23T09:13:28Z</time>
      </trkpt>
      <trkpt lat="48.57851" lon="2.63801">
        <ele>81.71</ele>
        <time>2021-06-23T09:13:34Z</time>
      </trkpt>
      <trkpt lat="48.5779" lon="2.63813">
        <ele>79.75</ele>
        <time>2021-06-23T09:13:40Z</time>
      </trkpt>
      <trkpt lat="48.57708" lon="2.63833">
        <ele>76.54</ele>
        <time>2021-06-23T09:13:46Z</time>
      </trkpt>
      <trkpt lat="48.57584" lon="2.63872">
        <ele>80.99</ele>
        <time>2021-06-23T09:13:51Z</time>
      </trkpt>
      <trkpt lat="48.57489" lon="2.63899">
        <ele>77.78</ele>
        <time>2021-06-23T09:13:56Z</time>
      </trkpt>
      <trkpt lat="48.57422" lon="2.63923">
        <ele>81.23</ele>
        <time>2021-06-23T09:14:00Z</time>
      </trkpt>
      <trkpt lat="48.57406" lon="2.63925">
        <ele>81.62</ele>
        <time>2021-06-23T09:14:04Z</time>
      </trkpt>
      <trkpt lat="48.57386" lon="2.63923">
        <ele>81.5</ele>
        <time>2021-06-23T09:14:09Z</time>
      </trkpt>
      <trkpt lat="48.57368" lon="2.63912">
        <ele>81.59</ele>
        <time>2021-06-23T09:14:13Z</time>
      </trkpt>
      <trkpt lat="48.57351" lon="2.63894">
        <ele>81.47</ele>
        <time>2021-06-23T09:14:17Z</time>
      </trkpt>
      <trkpt lat="48.57339" lon="2.63871">
        <ele>81.65</ele>
        <time>2021-06-23T09:14:21Z</time>
      </trkpt>
      <trkpt lat="48.57334" lon="2.63855">
        <ele>81.95</ele>
        <time>2021-06-23T09:14:26Z</time>
      </trkpt>
      <trkpt lat="48.5733" lon="2.63831">
        <ele>82.13</ele>
        <time>2021-06-23T09:14:30Z</time>
      </trkpt>
      <trkpt lat="48.5733" lon="2.6379">
        <ele>82.05</ele>
        <time>2021-06-23T09:14:34Z</time>
      </trkpt>
      <trkpt lat="48.5734" lon="2.63739">
        <ele>82.29</ele>
        <time>2021-06-23T09:14:38Z</time>
      </trkpt>
      <trkpt lat="48.57351" lon="2.6371">
        <ele>82.65</ele>
        <time>2021-06-23T09:14:43Z</time>
      </trkpt>
      <trkpt lat="48.57365" lon="2.63679">
        <ele>82.81</ele>
        <time>2021-06-23T09:14:47Z</time>
      </trkpt>
      <trkpt lat="48.57381" lon="2.63653">
        <ele>82.29</ele>
        <time>2021-06-23T09:14:51Z</time>
      </trkpt>
      <trkpt lat="48.57392" lon="2.63638">
        <ele>82.03</ele>
        <time>2021-06-23T09:14:55Z</time>
      </trkpt>
      <trkpt lat="48.57392" lon="2.63638">
        <ele>82.03</ele>
        <time>2021-06-23T09:14:55Z</time>
      </trkpt>
      <trkpt lat="48.5742" lon="2.63612">
        <ele>81.87</ele>
        <time>2021-06-23T09:14:59Z</time>
      </trkpt>
      <trkpt lat="48.57435" lon="2.63601">
        <ele>81.1</ele>
        <time>2021-06-23T09:15:03Z</time>
      </trkpt>
      <trkpt lat="48.57444" lon="2.63598">
        <ele>81</ele>
        <time>2021-06-23T09:15:06Z</time>
      </trkpt>
      <trkpt lat="48.57451" lon="2.63607">
        <ele>81.24</ele>
        <time>2021-06-23T09:15:11Z</time>
      </trkpt>
      <trkpt lat="48.5746" lon="2.63612">
        <ele>81.52</ele>
        <time>2021-06-23T09:15:16Z</time>
      </trkpt>
      <trkpt lat="48.57466" lon="2.63652">
        <ele>80.18</ele>
        <time>2021-06-23T09:15:20Z</time>
      </trkpt>
      <trkpt lat="48.57465" lon="2.64245">
        <ele>80</ele>
        <time>2021-06-23T09:15:25Z</time>
      </trkpt>
      <trkpt lat="48.57461" lon="2.64271">
        <ele>79.68</ele>
        <time>2021-06-23T09:15:30Z</time>
      </trkpt>
      <trkpt lat="48.57456" lon="2.64285">
        <ele>79.42</ele>
        <time>2021-06-23T09:15:34Z</time>
      </trkpt>
      <trkpt lat="48.57447" lon="2.64293">
        <ele>79.11</ele>
        <time>2021-06-23T09:15:40Z</time>
      </trkpt>
      <trkpt lat="48.57444" lon="2.64298">
        <ele>78.97</ele>
        <time>2021-06-23T09:15:46Z</time>
      </trkpt>
      <trkpt lat="48.5744" lon="2.6431">
        <ele>78.83</ele>
        <time>2021-06-23T09:15:52Z</time>
      </trkpt>
      <trkpt lat="48.57438" lon="2.64323">
        <ele>78.78</ele>
        <time>2021-06-23T09:15:58Z</time>
      </trkpt>
      <trkpt lat="48.5744" lon="2.64335">
        <ele>78.77</ele>
        <time>2021-06-23T09:16:04Z</time>
      </trkpt>
      <trkpt lat="48.57444" lon="2.64346">
        <ele>78.52</ele>
        <time>2021-06-23T09:16:10Z</time>
      </trkpt>
      <trkpt lat="48.57447" lon="2.64352">
        <ele>78.39</ele>
        <time>2021-06-23T09:16:16Z</time>
      </trkpt>
      <trkpt lat="48.57456" lon="2.6436">
        <ele>78.44</ele>
        <time>2021-06-23T09:16:22Z</time>
      </trkpt>
      <trkpt lat="48.5746" lon="2.64375">
        <ele>78.07</ele>
        <time>2021-06-23T09:16:28Z</time>
      </trkpt>
      <trkpt lat="48.57464" lon="2.64413">
        <ele>77.7</ele>
        <time>2021-06-23T09:16:34Z</time>
      </trkpt>
      <trkpt lat="48.57464" lon="2.64934">
        <ele>76.32</ele>
        <time>2021-06-23T09:16:40Z</time>
      </trkpt>
      <trkpt lat="48.57459" lon="2.65018">
        <ele>77</ele>
        <time>2021-06-23T09:16:46Z</time>
      </trkpt>
      <trkpt lat="48.57453" lon="2.65054">
        <ele>77.94</ele>
        <time>2021-06-23T09:16:52Z</time>
      </trkpt>
      <trkpt lat="48.57444" lon="2.65087">
        <ele>78</ele>
        <time>2021-06-23T09:16:58Z</time>
      </trkpt>
      <trkpt lat="48.5743" lon="2.65125">
        <ele>78.25</ele>
        <time>2021-06-23T09:17:04Z</time>
      </trkpt>
      <trkpt lat="48.57407" lon="2.65175">
        <ele>79.34</ele>
        <time>2021-06-23T09:17:10Z</time>
      </trkpt>
      <trkpt lat="48.57387" lon="2.65228">
        <ele>81</ele>
        <time>2021-06-23T09:17:16Z</time>
      </trkpt>
      <trkpt lat="48.57344" lon="2.65383">
        <ele>75.37</ele>
        <time>2021-06-23T09:17:22Z</time>
      </trkpt>
      <trkpt lat="48.57247" lon="2.65701">
        <ele>75.42</ele>
        <time>2021-06-23T09:17:28Z</time>
      </trkpt>
      <trkpt lat="48.57243" lon="2.65741">
        <ele>76.94</ele>
        <time>2021-06-23T09:17:34Z</time>
      </trkpt>
      <trkpt lat="48.57232" lon="2.65811">
        <ele>79.3</ele>
        <time>2021-06-23T09:17:40Z</time>
      </trkpt>
      <trkpt lat="48.5723" lon="2.65859">
        <ele>79.68</ele>
        <time>2021-06-23T09:17:46Z</time>
      </trkpt>
      <trkpt lat="48.57228" lon="2.65874">
        <ele>79.78</ele>
        <time>2021-06-23T09:17:52Z</time>
      </trkpt>
      <trkpt lat="48.57218" lon="2.65926">
        <ele>79.56</ele>
        <time>2021-06-23T09:17:58Z</time>
      </trkpt>
      <trkpt lat="48.57201" lon="2.6596">
        <ele>78.56</ele>
        <time>2021-06-23T09:18:04Z</time>
      </trkpt>
      <trkpt lat="48.5717" lon="2.66012">
        <ele>78.89</ele>
        <time>2021-06-23T09:18:10Z</time>
      </trkpt>
      <trkpt lat="48.57146" lon="2.66102">
        <ele>78.24</ele>
        <time>2021-06-23T09:18:16Z</time>
      </trkpt>
      <trkpt lat="48.57142" lon="2.66117">
        <ele>77.78</ele>
        <time>2021-06-23T09:18:22Z</time>
      </trkpt>
      <trkpt lat="48.57136" lon="2.66128">
        <ele>77.49</ele>
        <time>2021-06-23T09:18:28Z</time>
      </trkpt>
      <trkpt lat="48.5713" lon="2.66131">
        <ele>77.59</ele>
        <time>2021-06-23T09:18:34Z</time>
      </trkpt>
      <trkpt lat="48.57101" lon="2.6614">
        <ele>78.72</ele>
        <time>2021-06-23T09:18:40Z</time>
      </trkpt>
      <trkpt lat="48.57092" lon="2.66145">
        <ele>79.25</ele>
        <time>2021-06-23T09:18:46Z</time>
      </trkpt>
      <trkpt lat="48.57087" lon="2.6615">
        <ele>79.4</ele>
        <time>2021-06-23T09:18:52Z</time>
      </trkpt>
      <trkpt lat="48.57083" lon="2.6616">
        <ele>79.23</ele>
        <time>2021-06-23T09:18:58Z</time>
      </trkpt>
      <trkpt lat="48.5708" lon="2.66179">
        <ele>78.59</ele>
        <time>2021-06-23T09:19:04Z</time>
      </trkpt>
      <trkpt lat="48.57087" lon="2.66241">
        <ele>79.54</ele>
        <time>2021-06-23T09:19:10Z</time>
      </trkpt>
      <trkpt lat="48.57085" lon="2.6631">
        <ele>81.89</ele>
        <time>2021-06-23T09:19:16Z</time>
      </trkpt>
      <trkpt lat="48.57078" lon="2.66365">
        <ele>80.65</ele>
        <time>2021-06-23T09:19:22Z</time>
      </trkpt>
      <trkpt lat="48.57056" lon="2.66489">
        <ele>77.03</ele>
        <time>2021-06-23T09:19:28Z</time>
      </trkpt>
      <trkpt lat="48.57037" lon="2.66571">
        <ele>77.56</ele>
        <time>2021-06-23T09:19:34Z</time>
      </trkpt>
      <trkpt lat="48.56996" lon="2.66804">
        <ele>77.7</ele>
        <time>2021-06-23T09:19:40Z</time>
      </trkpt>
      <trkpt lat="48.56982" lon="2.66876">
        <ele>77.34</ele>
        <time>2021-06-23T09:19:46Z</time>
      </trkpt>
      <trkpt lat="48.56978" lon="2.66931">
        <ele>76.38</ele>
        <time>2021-06-23T09:19:52Z</time>
      </trkpt>
      <trkpt lat="48.56966" lon="2.67009">
        <ele>78.77</ele>
        <time>2021-06-23T09:19:58Z</time>
      </trkpt>
      <trkpt lat="48.56925" lon="2.67242">
        <ele>76.79</ele>
        <time>2021-06-23T09:20:04Z</time>
      </trkpt>
      <trkpt lat="48.56891" lon="2.67365">
        <ele>82.08</ele>
        <time>2021-06-23T09:20:10Z</time>
      </trkpt>
      <trkpt lat="48.56839" lon="2.67514">
        <ele>75.88</ele>
        <time>2021-06-23T09:20:16Z</time>
      </trkpt>
      <trkpt lat="48.56815" lon="2.67567">
        <ele>76.43</ele>
        <time>2021-06-23T09:20:22Z</time>
      </trkpt>
      <trkpt lat="48.56811" lon="2.67572">
        <ele>76.59</ele>
        <time>2021-06-23T09:20:26Z</time>
      </trkpt>
      <trkpt lat="48.56808" lon="2.67579">
        <ele>76.83</ele>
        <time>2021-06-23T09:20:30Z</time>
      </trkpt>
      <trkpt lat="48.56808" lon="2.67589">
        <ele>76.8</ele>
        <time>2021-06-23T09:20:34Z</time>
      </trkpt>
      <trkpt lat="48.56811" lon="2.67599">
        <ele>76.53</ele>
        <time>2021-06-23T09:20:38Z</time>
      </trkpt>
      <trkpt lat="48.56813" lon="2.67625">
        <ele>75.87</ele>
        <time>2021-06-23T09:20:42Z</time>
      </trkpt>
      <trkpt lat="48.56817" lon="2.67653">
        <ele>75.3</ele>
        <time>2021-06-23T09:20:46Z</time>
      </trkpt>
      <trkpt lat="48.56822" lon="2.67688">
        <ele>74.75</ele>
        <time>2021-06-23T09:20:50Z</time>
      </trkpt>
      <trkpt lat="48.56835" lon="2.67745">
        <ele>74.23</ele>
        <time>2021-06-23T09:20:54Z</time>
      </trkpt>
      <trkpt lat="48.56842" lon="2.67784">
        <ele>73.23</ele>
        <time>2021-06-23T09:20:58Z</time>
      </trkpt>
      <trkpt lat="48.56842" lon="2.67822">
        <ele>73</ele>
        <time>2021-06-23T09:21:02Z</time>
      </trkpt>
      <trkpt lat="48.56835" lon="2.67864">
        <ele>74.08</ele>
        <time>2021-06-23T09:21:06Z</time>
      </trkpt>
      <trkpt lat="48.56755" lon="2.6823">
        <ele>80.22</ele>
        <time>2021-06-23T09:21:10Z</time>
      </trkpt>
      <trkpt lat="48.56706" lon="2.68465">
        <ele>77.79</ele>
        <time>2021-06-23T09:21:14Z</time>
      </trkpt>
      <trkpt lat="48.5662" lon="2.6883">
        <ele>77.12</ele>
        <time>2021-06-23T09:21:18Z</time>
      </trkpt>
      <trkpt lat="48.56607" lon="2.68868">
        <ele>76.07</ele>
        <time>2021-06-23T09:21:22Z</time>
      </trkpt>
      <trkpt lat="48.56586" lon="2.68912">
        <ele>75.08</ele>
        <time>2021-06-23T09:21:26Z</time>
      </trkpt>
      <trkpt lat="48.56553" lon="2.68968">
        <ele>76.01</ele>
        <time>2021-06-23T09:21:30Z</time>
      </trkpt>
      <trkpt lat="48.56532" lon="2.69001">
        <ele>75.99</ele>
        <time>2021-06-23T09:21:34Z</time>
      </trkpt>
      <trkpt lat="48.56506" lon="2.69025">
        <ele>76</ele>
        <time>2021-06-23T09:21:38Z</time>
      </trkpt>
      <trkpt lat="48.56496" lon="2.69031">
        <ele>76</ele>
        <time>2021-06-23T09:21:42Z</time>
      </trkpt>
      <trkpt lat="48.56485" lon="2.69028">
        <ele>76</ele>
        <time>2021-06-23T09:21:43Z</time>
      </trkpt>
      <trkpt lat="48.56479" lon="2.69031">
        <ele>76</ele>
        <time>2021-06-23T09:21:43Z</time>
      </trkpt>
      <trkpt lat="48.56479" lon="2.69031">
        <ele>76</ele>
        <time>2021-06-23T09:21:43Z</time>
      </trkpt>
      <trkpt lat="48.56478" lon="2.69031">
        <ele>76</ele>
        <time>2021-06-23T09:21:44Z</time>
      </trkpt>
      <trkpt lat="48.56473" lon="2.69035">
        <ele>76</ele>
        <time>2021-06-23T09:21:46Z</time>
      </trkpt>
      <trkpt lat="48.56468" lon="2.69043">
        <ele>76.06</ele>
        <time>2021-06-23T09:21:47Z</time>
      </trkpt>
      <trkpt lat="48.56465" lon="2.69053">
        <ele>76.03</ele>
        <time>2021-06-23T09:21:49Z</time>
      </trkpt>
      <trkpt lat="48.56464" lon="2.69069">
        <ele>75.65</ele>
        <time>2021-06-23T09:21:50Z</time>
      </trkpt>
      <trkpt lat="48.56468" lon="2.69083">
        <ele>75.15</ele>
        <time>2021-06-23T09:21:52Z</time>
      </trkpt>
      <trkpt lat="48.56476" lon="2.69094">
        <ele>75</ele>
        <time>2021-06-23T09:21:53Z</time>
      </trkpt>
      <trkpt lat="48.56482" lon="2.69098">
        <ele>75</ele>
        <time>2021-06-23T09:21:54Z</time>
      </trkpt>
      <trkpt lat="48.56489" lon="2.69098">
        <ele>75</ele>
        <time>2021-06-23T09:21:56Z</time>
      </trkpt>
      <trkpt lat="48.56498" lon="2.69095">
        <ele>75</ele>
        <time>2021-06-23T09:21:57Z</time>
      </trkpt>
      <trkpt lat="48.56507" lon="2.691">
        <ele>75.25</ele>
        <time>2021-06-23T09:21:59Z</time>
      </trkpt>
      <trkpt lat="48.56515" lon="2.69107">
        <ele>75.55</ele>
        <time>2021-06-23T09:22:00Z</time>
      </trkpt>
      <trkpt lat="48.56549" lon="2.69146">
        <ele>77.36</ele>
        <time>2021-06-23T09:22:02Z</time>
      </trkpt>
      <trkpt lat="48.56693" lon="2.69334">
        <ele>79.05</ele>
        <time>2021-06-23T09:22:03Z</time>
      </trkpt>
      <trkpt lat="48.56746" lon="2.70083">
        <ele>80.74</ele>
        <time>2021-06-23T09:22:17Z</time>
      </trkpt>
      <trkpt lat="48.56808" lon="2.70793">
        <ele>83.3</ele>
        <time>2021-06-23T09:22:30Z</time>
      </trkpt>
      <trkpt lat="48.56843" lon="2.71371">
        <ele>73.74</ele>
        <time>2021-06-23T09:22:44Z</time>
      </trkpt>
      <trkpt lat="48.56842" lon="2.71551">
        <ele>69.26</ele>
        <time>2021-06-23T09:22:57Z</time>
      </trkpt>
      <trkpt lat="48.56862" lon="2.71823">
        <ele>73.92</ele>
        <time>2021-06-23T09:23:11Z</time>
      </trkpt>
      <trkpt lat="48.56909" lon="2.72422">
        <ele>85.14</ele>
        <time>2021-06-23T09:23:24Z</time>
      </trkpt>
      <trkpt lat="48.56908" lon="2.72465">
        <ele>83.66</ele>
        <time>2021-06-23T09:23:38Z</time>
      </trkpt>
      <trkpt lat="48.56905" lon="2.72528">
        <ele>83</ele>
        <time>2021-06-23T09:23:51Z</time>
      </trkpt>
      <trkpt lat="48.56882" lon="2.72743">
        <ele>82.75</ele>
        <time>2021-06-23T09:24:05Z</time>
      </trkpt>
      <trkpt lat="48.56776" lon="2.73826">
        <ele>82</ele>
        <time>2021-06-23T09:24:18Z</time>
      </trkpt>
      <trkpt lat="48.56772" lon="2.73916">
        <ele>82.01</ele>
        <time>2021-06-23T09:24:32Z</time>
      </trkpt>
      <trkpt lat="48.56775" lon="2.74186">
        <ele>82.21</ele>
        <time>2021-06-23T09:24:45Z</time>
      </trkpt>
      <trkpt lat="48.56784" lon="2.74265">
        <ele>82.52</ele>
        <time>2021-06-23T09:24:59Z</time>
      </trkpt>
      <trkpt lat="48.5687" lon="2.74915">
        <ele>79.37</ele>
        <time>2021-06-23T09:25:12Z</time>
      </trkpt>
      <trkpt lat="48.56908" lon="2.75341">
        <ele>82.41</ele>
        <time>2021-06-23T09:25:26Z</time>
      </trkpt>
      <trkpt lat="48.56915" lon="2.75412">
        <ele>83.19</ele>
        <time>2021-06-23T09:25:40Z</time>
      </trkpt>
      <trkpt lat="48.56922" lon="2.75491">
        <ele>84.07</ele>
        <time>2021-06-23T09:25:53Z</time>
      </trkpt>
      <trkpt lat="48.56948" lon="2.75793">
        <ele>82.72</ele>
        <time>2021-06-23T09:26:07Z</time>
      </trkpt>
      <trkpt lat="48.56957" lon="2.75852">
        <ele>84.32</ele>
        <time>2021-06-23T09:26:20Z</time>
      </trkpt>
      <trkpt lat="48.56957" lon="2.75852">
        <ele>84.32</ele>
        <time>2021-06-23T09:26:20Z</time>
      </trkpt>
      <trkpt lat="48.56968" lon="2.75928">
        <ele>85.01</ele>
        <time>2021-06-23T09:26:30Z</time>
      </trkpt>
      <trkpt lat="48.57167" lon="2.76792">
        <ele>87</ele>
        <time>2021-06-23T09:26:41Z</time>
      </trkpt>
      <trkpt lat="48.57184" lon="2.76846">
        <ele>87.78</ele>
        <time>2021-06-23T09:26:51Z</time>
      </trkpt>
      <trkpt lat="48.57308" lon="2.77131">
        <ele>89.62</ele>
        <time>2021-06-23T09:27:02Z</time>
      </trkpt>
      <trkpt lat="48.57476" lon="2.77555">
        <ele>90.01</ele>
        <time>2021-06-23T09:27:12Z</time>
      </trkpt>
      <trkpt lat="48.57632" lon="2.77943">
        <ele>92</ele>
        <time>2021-06-23T09:27:22Z</time>
      </trkpt>
      <trkpt lat="48.57675" lon="2.78115">
        <ele>91.29</ele>
        <time>2021-06-23T09:27:33Z</time>
      </trkpt>
      <trkpt lat="48.57886" lon="2.78903">
        <ele>93.89</ele>
        <time>2021-06-23T09:27:43Z</time>
      </trkpt>
      <trkpt lat="48.58221" lon="2.80137">
        <ele>94.88</ele>
        <time>2021-06-23T09:27:53Z</time>
      </trkpt>
      <trkpt lat="48.58252" lon="2.80251">
        <ele>95.07</ele>
        <time>2021-06-23T09:28:04Z</time>
      </trkpt>
      <trkpt lat="48.5826" lon="2.80274">
        <ele>95.36</ele>
        <time>2021-06-23T09:28:14Z</time>
      </trkpt>
      <trkpt lat="48.58301" lon="2.80353">
        <ele>96.85</ele>
        <time>2021-06-23T09:28:24Z</time>
      </trkpt>
      <trkpt lat="48.58314" lon="2.80372">
        <ele>97.29</ele>
        <time>2021-06-23T09:28:35Z</time>
      </trkpt>
      <trkpt lat="48.58324" lon="2.80401">
        <ele>97.66</ele>
        <time>2021-06-23T09:28:45Z</time>
      </trkpt>
      <trkpt lat="48.58343" lon="2.80484">
        <ele>99</ele>
        <time>2021-06-23T09:28:55Z</time>
      </trkpt>
      <trkpt lat="48.58356" lon="2.805">
        <ele>99</ele>
        <time>2021-06-23T09:29:06Z</time>
      </trkpt>
      <trkpt lat="48.58377" lon="2.80518">
        <ele>98.42</ele>
        <time>2021-06-23T09:29:16Z</time>
      </trkpt>
      <trkpt lat="48.58407" lon="2.80553">
        <ele>97.95</ele>
        <time>2021-06-23T09:29:26Z</time>
      </trkpt>
      <trkpt lat="48.58439" lon="2.80605">
        <ele>98</ele>
        <time>2021-06-23T09:29:37Z</time>
      </trkpt>
      <trkpt lat="48.58457" lon="2.80651">
        <ele>99.64</ele>
        <time>2021-06-23T09:29:47Z</time>
      </trkpt>
      <trkpt lat="48.58458" lon="2.80657">
        <ele>99.82</ele>
        <time>2021-06-23T09:29:57Z</time>
      </trkpt>
      <trkpt lat="48.58466" lon="2.8067">
        <ele>100.46</ele>
        <time>2021-06-23T09:30:08Z</time>
      </trkpt>
      <trkpt lat="48.5846" lon="2.80799">
        <ele>96.42</ele>
        <time>2021-06-23T09:30:16Z</time>
      </trkpt>
      <trkpt lat="48.58501" lon="2.80826">
        <ele>96.03</ele>
        <time>2021-06-23T09:30:21Z</time>
      </trkpt>
      <trkpt lat="48.58513" lon="2.80927">
        <ele>96.83</ele>
        <time>2021-06-23T09:30:29Z</time>
      </trkpt>
      <trkpt lat="48.58512" lon="2.80967">
        <ele>96.56</ele>
        <time>2021-06-23T09:30:38Z</time>
      </trkpt>
      <trkpt lat="48.58505" lon="2.81057">
        <ele>99.78</ele>
        <time>2021-06-23T09:30:46Z</time>
      </trkpt>
      <trkpt lat="48.58493" lon="2.81308">
        <ele>97.22</ele>
        <time>2021-06-23T09:30:55Z</time>
      </trkpt>
      <trkpt lat="48.58484" lon="2.81441">
        <ele>96.11</ele>
        <time>2021-06-23T09:31:03Z</time>
      </trkpt>
      <trkpt lat="48.58451" lon="2.82046">
        <ele>94</ele>
        <time>2021-06-23T09:31:12Z</time>
      </trkpt>
      <trkpt lat="48.58449" lon="2.82084">
        <ele>93.81</ele>
        <time>2021-06-23T09:31:20Z</time>
      </trkpt>
      <trkpt lat="48.58449" lon="2.82102">
        <ele>92.61</ele>
        <time>2021-06-23T09:31:29Z</time>
      </trkpt>
      <trkpt lat="48.58456" lon="2.82133">
        <ele>91.22</ele>
        <time>2021-06-23T09:31:37Z</time>
      </trkpt>
      <trkpt lat="48.58462" lon="2.82147">
        <ele>90.81</ele>
        <time>2021-06-23T09:31:45Z</time>
      </trkpt>
      <trkpt lat="48.58483" lon="2.82188">
        <ele>90.3</ele>
        <time>2021-06-23T09:31:54Z</time>
      </trkpt>
      <trkpt lat="48.5853" lon="2.8227">
        <ele>95.85</ele>
        <time>2021-06-23T09:32:02Z</time>
      </trkpt>
      <trkpt lat="48.58559" lon="2.82341">
        <ele>99.03</ele>
        <time>2021-06-23T09:32:11Z</time>
      </trkpt>
      <trkpt lat="48.5871" lon="2.82847">
        <ele>98.55</ele>
        <time>2021-06-23T09:32:19Z</time>
      </trkpt>
      <trkpt lat="48.5872" lon="2.82898">
        <ele>98.93</ele>
        <time>2021-06-23T09:32:28Z</time>
      </trkpt>
      <trkpt lat="48.58724" lon="2.82929">
        <ele>99.41</ele>
        <time>2021-06-23T09:32:36Z</time>
      </trkpt>
      <trkpt lat="48.58792" lon="2.83939">
        <ele>101</ele>
        <time>2021-06-23T09:32:45Z</time>
      </trkpt>
      <trkpt lat="48.58797" lon="2.83995">
        <ele>101.3</ele>
        <time>2021-06-23T09:32:53Z</time>
      </trkpt>
      <trkpt lat="48.58807" lon="2.84065">
        <ele>101.02</ele>
        <time>2021-06-23T09:33:02Z</time>
      </trkpt>
      <trkpt lat="48.58823" lon="2.84149">
        <ele>102</ele>
        <time>2021-06-23T09:33:10Z</time>
      </trkpt>
      <trkpt lat="48.58934" lon="2.84625">
        <ele>103.19</ele>
        <time>2021-06-23T09:33:18Z</time>
      </trkpt>
      <trkpt lat="48.59157" lon="2.85418">
        <ele>100</ele>
        <time>2021-06-23T09:33:27Z</time>
      </trkpt>
      <trkpt lat="48.59165" lon="2.85455">
        <ele>100.02</ele>
        <time>2021-06-23T09:33:35Z</time>
      </trkpt>
      <trkpt lat="48.59179" lon="2.85538">
        <ele>100.57</ele>
        <time>2021-06-23T09:33:44Z</time>
      </trkpt>
      <trkpt lat="48.59201" lon="2.85575">
        <ele>100</ele>
        <time>2021-06-23T09:33:52Z</time>
      </trkpt>
      <trkpt lat="48.59229" lon="2.85607">
        <ele>99.35</ele>
        <time>2021-06-23T09:34:01Z</time>
      </trkpt>
      <trkpt lat="48.59238" lon="2.85614">
        <ele>99.49</ele>
        <time>2021-06-23T09:34:09Z</time>
      </trkpt>
      <trkpt lat="48.59331" lon="2.85657">
        <ele>100.1</ele>
        <time>2021-06-23T09:34:18Z</time>
      </trkpt>
      <trkpt lat="48.59414" lon="2.85699">
        <ele>100.17</ele>
        <time>2021-06-23T09:34:26Z</time>
      </trkpt>
      <trkpt lat="48.5943" lon="2.8571">
        <ele>100.77</ele>
        <time>2021-06-23T09:34:35Z</time>
      </trkpt>
      <trkpt lat="48.59444" lon="2.85724">
        <ele>101.06</ele>
        <time>2021-06-23T09:34:43Z</time>
      </trkpt>
      <trkpt lat="48.59458" lon="2.85744">
        <ele>101.88</ele>
        <time>2021-06-23T09:34:52Z</time>
      </trkpt>
      <trkpt lat="48.5949" lon="2.85806">
        <ele>102</ele>
        <time>2021-06-23T09:35:00Z</time>
      </trkpt>
      <trkpt lat="48.59656" lon="2.86099">
        <ele>105</ele>
        <time>2021-06-23T09:35:08Z</time>
      </trkpt>
      <trkpt lat="48.59681" lon="2.86152">
        <ele>105</ele>
        <time>2021-06-23T09:35:17Z</time>
      </trkpt>
      <trkpt lat="48.60038" lon="2.87096">
        <ele>103</ele>
        <time>2021-06-23T09:35:25Z</time>
      </trkpt>
      <trkpt lat="48.60439" lon="2.88646">
        <ele>107.8</ele>
        <time>2021-06-23T09:35:34Z</time>
      </trkpt>
      <trkpt lat="48.60522" lon="2.88973">
        <ele>109</ele>
        <time>2021-06-23T09:35:42Z</time>
      </trkpt>
      <trkpt lat="48.60522" lon="2.88992">
        <ele>109.15</ele>
        <time>2021-06-23T09:35:51Z</time>
      </trkpt>
      <trkpt lat="48.6053" lon="2.89006">
        <ele>109.28</ele>
        <time>2021-06-23T09:35:52Z</time>
      </trkpt>
      <trkpt lat="48.6053" lon="2.89019">
        <ele>109.71</ele>
        <time>2021-06-23T09:36:04Z</time>
      </trkpt>
      <trkpt lat="48.60548" lon="2.89277">
        <ele>108.27</ele>
        <time>2021-06-23T09:36:16Z</time>
      </trkpt>
      <trkpt lat="48.60556" lon="2.89289">
        <ele>108.13</ele>
        <time>2021-06-23T09:36:27Z</time>
      </trkpt>
      <trkpt lat="48.60556" lon="2.89289">
        <ele>108.13</ele>
        <time>2021-06-23T09:36:27Z</time>
      </trkpt>
      <trkpt lat="48.60559" lon="2.89293">
        <ele>108</ele>
        <time>2021-06-23T09:36:28Z</time>
      </trkpt>
      <trkpt lat="48.60443" lon="2.89446">
        <ele>109.95</ele>
        <time>2021-06-23T09:36:46Z</time>
      </trkpt>
      <trkpt lat="48.60327" lon="2.89605">
        <ele>108.21</ele>
        <time>2021-06-23T09:37:04Z</time>
      </trkpt>
      <trkpt lat="48.60148" lon="2.89835">
        <ele>108.98</ele>
        <time>2021-06-23T09:37:21Z</time>
      </trkpt>
      <trkpt lat="48.59844" lon="2.90237">
        <ele>112.32</ele>
        <time>2021-06-23T09:37:39Z</time>
      </trkpt>
      <trkpt lat="48.59815" lon="2.90291">
        <ele>113.35</ele>
        <time>2021-06-23T09:37:56Z</time>
      </trkpt>
      <trkpt lat="48.59157" lon="2.91798">
        <ele>118.32</ele>
        <time>2021-06-23T09:38:14Z</time>
      </trkpt>
      <trkpt lat="48.58725" lon="2.92815">
        <ele>120</ele>
        <time>2021-06-23T09:38:32Z</time>
      </trkpt>
      <trkpt lat="48.58661" lon="2.92965">
        <ele>119.45</ele>
        <time>2021-06-23T09:38:49Z</time>
      </trkpt>
      <trkpt lat="48.58633" lon="2.93057">
        <ele>119</ele>
        <time>2021-06-23T09:39:07Z</time>
      </trkpt>
      <trkpt lat="48.58629" lon="2.9308">
        <ele>119</ele>
        <time>2021-06-23T09:39:24Z</time>
      </trkpt>
      <trkpt lat="48.58629" lon="2.9308">
        <ele>119</ele>
        <time>2021-06-23T09:39:24Z</time>
      </trkpt>
      <trkpt lat="48.58616" lon="2.93152">
        <ele>119</ele>
        <time>2021-06-23T09:39:37Z</time>
      </trkpt>
      <trkpt lat="48.58394" lon="2.94616">
        <ele>112.52</ele>
        <time>2021-06-23T09:39:50Z</time>
      </trkpt>
      <trkpt lat="48.58373" lon="2.94725">
        <ele>109.31</ele>
        <time>2021-06-23T09:40:03Z</time>
      </trkpt>
      <trkpt lat="48.58332" lon="2.9499">
        <ele>106.93</ele>
        <time>2021-06-23T09:40:16Z</time>
      </trkpt>
      <trkpt lat="48.58327" lon="2.95016">
        <ele>106.08</ele>
        <time>2021-06-23T09:40:29Z</time>
      </trkpt>
      <trkpt lat="48.58295" lon="2.95238">
        <ele>104.05</ele>
        <time>2021-06-23T09:40:42Z</time>
      </trkpt>
      <trkpt lat="48.58291" lon="2.95304">
        <ele>105.97</ele>
        <time>2021-06-23T09:40:55Z</time>
      </trkpt>
      <trkpt lat="48.5824" lon="2.95628">
        <ele>103.72</ele>
        <time>2021-06-23T09:41:08Z</time>
      </trkpt>
      <trkpt lat="48.58166" lon="2.96108">
        <ele>110.1</ele>
        <time>2021-06-23T09:41:21Z</time>
      </trkpt>
      <trkpt lat="48.58151" lon="2.96181">
        <ele>108.5</ele>
        <time>2021-06-23T09:41:34Z</time>
      </trkpt>
      <trkpt lat="48.58137" lon="2.96257">
        <ele>109.01</ele>
        <time>2021-06-23T09:41:46Z</time>
      </trkpt>
      <trkpt lat="48.58085" lon="2.96604">
        <ele>111.68</ele>
        <time>2021-06-23T09:41:59Z</time>
      </trkpt>
      <trkpt lat="48.58031" lon="2.97001">
        <ele>114</ele>
        <time>2021-06-23T09:42:12Z</time>
      </trkpt>
      <trkpt lat="48.5801" lon="2.97126">
        <ele>116.17</ele>
        <time>2021-06-23T09:42:25Z</time>
      </trkpt>
      <trkpt lat="48.5782" lon="2.98391">
        <ele>118</ele>
        <time>2021-06-23T09:42:38Z</time>
      </trkpt>
      <trkpt lat="48.57715" lon="2.9907">
        <ele>120.79</ele>
        <time>2021-06-23T09:42:51Z</time>
      </trkpt>
      <trkpt lat="48.57706" lon="2.99129">
        <ele>122.6</ele>
        <time>2021-06-23T09:43:04Z</time>
      </trkpt>
      <trkpt lat="48.57698" lon="2.99158">
        <ele>121.96</ele>
        <time>2021-06-23T09:43:17Z</time>
      </trkpt>
      <trkpt lat="48.57698" lon="2.99158">
        <ele>121.96</ele>
        <time>2021-06-23T09:43:17Z</time>
      </trkpt>
      <trkpt lat="48.5769" lon="2.99183">
        <ele>121.56</ele>
        <time>2021-06-23T09:43:29Z</time>
      </trkpt>
      <trkpt lat="48.57682" lon="2.99202">
        <ele>121.44</ele>
        <time>2021-06-23T09:43:41Z</time>
      </trkpt>
      <trkpt lat="48.5767" lon="2.99226">
        <ele>121.87</ele>
        <time>2021-06-23T09:43:52Z</time>
      </trkpt>
      <trkpt lat="48.5766" lon="2.99242">
        <ele>122.25</ele>
        <time>2021-06-23T09:44:04Z</time>
      </trkpt>
      <trkpt lat="48.57545" lon="2.99401">
        <ele>122</ele>
        <time>2021-06-23T09:44:16Z</time>
      </trkpt>
      <trkpt lat="48.57428" lon="2.99568">
        <ele>123.59</ele>
        <time>2021-06-23T09:44:28Z</time>
      </trkpt>
      <trkpt lat="48.57044" lon="3.00115">
        <ele>123.06</ele>
        <time>2021-06-23T09:44:40Z</time>
      </trkpt>
      <trkpt lat="48.56845" lon="3.00395">
        <ele>125.37</ele>
        <time>2021-06-23T09:44:52Z</time>
      </trkpt>
      <trkpt lat="48.5679" lon="3.00472">
        <ele>124.56</ele>
        <time>2021-06-23T09:45:04Z</time>
      </trkpt>
      <trkpt lat="48.56686" lon="3.00622">
        <ele>123.81</ele>
        <time>2021-06-23T09:45:16Z</time>
      </trkpt>
      <trkpt lat="48.56527" lon="3.00847">
        <ele>125.46</ele>
        <time>2021-06-23T09:45:27Z</time>
      </trkpt>
      <trkpt lat="48.5619" lon="3.01322">
        <ele>124.94</ele>
        <time>2021-06-23T09:45:39Z</time>
      </trkpt>
      <trkpt lat="48.56179" lon="3.01343">
        <ele>125</ele>
        <time>2021-06-23T09:45:51Z</time>
      </trkpt>
      <trkpt lat="48.55979" lon="3.01838">
        <ele>124.93</ele>
        <time>2021-06-23T09:46:03Z</time>
      </trkpt>
      <trkpt lat="48.55906" lon="3.02023">
        <ele>126.11</ele>
        <time>2021-06-23T09:46:15Z</time>
      </trkpt>
      <trkpt lat="48.559" lon="3.02045">
        <ele>125.27</ele>
        <time>2021-06-23T09:46:27Z</time>
      </trkpt>
      <trkpt lat="48.55896" lon="3.02067">
        <ele>124.41</ele>
        <time>2021-06-23T09:46:39Z</time>
      </trkpt>
      <trkpt lat="48.55895" lon="3.02113">
        <ele>123.27</ele>
        <time>2021-06-23T09:46:50Z</time>
      </trkpt>
      <trkpt lat="48.55899" lon="3.02179">
        <ele>124.56</ele>
        <time>2021-06-23T09:47:02Z</time>
      </trkpt>
      <trkpt lat="48.55899" lon="3.02179">
        <ele>124.56</ele>
        <time>2021-06-23T09:47:02Z</time>
      </trkpt>
      <trkpt lat="48.55925" lon="3.02624">
        <ele>125.85</ele>
        <time>2021-06-23T09:47:14Z</time>
      </trkpt>
      <trkpt lat="48.55932" lon="3.02696">
        <ele>126.42</ele>
        <time>2021-06-23T09:47:25Z</time>
      </trkpt>
      <trkpt lat="48.55957" lon="3.02773">
        <ele>124.55</ele>
        <time>2021-06-23T09:47:37Z</time>
      </trkpt>
      <trkpt lat="48.56089" lon="3.03084">
        <ele>125.61</ele>
        <time>2021-06-23T09:47:48Z</time>
      </trkpt>
      <trkpt lat="48.56083" lon="3.03098">
        <ele>126.01</ele>
        <time>2021-06-23T09:48:11Z</time>
      </trkpt>
      <trkpt lat="48.56085" lon="3.03114">
        <ele>125.82</ele>
        <time>2021-06-23T09:48:33Z</time>
      </trkpt>
      <trkpt lat="48.56087" lon="3.03118">
        <ele>125.53</ele>
        <time>2021-06-23T09:48:56Z</time>
      </trkpt>
      <trkpt lat="48.56097" lon="3.03125">
        <ele>124.79</ele>
        <time>2021-06-23T09:49:19Z</time>
      </trkpt>
      <trkpt lat="48.56105" lon="3.03123">
        <ele>124.35</ele>
        <time>2021-06-23T09:49:41Z</time>
      </trkpt>
      <trkpt lat="48.56246" lon="3.0345">
        <ele>124</ele>
        <time>2021-06-23T09:50:04Z</time>
      </trkpt>
      <trkpt lat="48.56434" lon="3.03892">
        <ele>125.95</ele>
        <time>2021-06-23T09:50:27Z</time>
      </trkpt>
      <trkpt lat="48.56448" lon="3.0394">
        <ele>126</ele>
        <time>2021-06-23T09:50:50Z</time>
      </trkpt>
      <trkpt lat="48.56456" lon="3.03976">
        <ele>126.08</ele>
        <time>2021-06-23T09:51:12Z</time>
      </trkpt>
      <trkpt lat="48.56462" lon="3.04016">
        <ele>126.36</ele>
        <time>2021-06-23T09:51:35Z</time>
      </trkpt>
      <trkpt lat="48.56467" lon="3.04067">
        <ele>127.18</ele>
        <time>2021-06-23T09:51:58Z</time>
      </trkpt>
      <trkpt lat="48.56471" lon="3.04168">
        <ele>128.03</ele>
        <time>2021-06-23T09:52:20Z</time>
      </trkpt>
      <trkpt lat="48.56469" lon="3.04219">
        <ele>128.1</ele>
        <time>2021-06-23T09:52:43Z</time>
      </trkpt>
      <trkpt lat="48.56427" lon="3.04907">
        <ele>128</ele>
        <time>2021-06-23T09:53:06Z</time>
      </trkpt>
      <trkpt lat="48.56214" lon="3.08274">
        <ele>136</ele>
        <time>2021-06-23T09:53:28Z</time>
      </trkpt>
      <trkpt lat="48.56174" lon="3.08946">
        <ele>137.99</ele>
        <time>2021-06-23T09:53:51Z</time>
      </trkpt>
      <trkpt lat="48.55918" lon="3.13066">
        <ele>142.96</ele>
        <time>2021-06-23T09:54:14Z</time>
      </trkpt>
      <trkpt lat="48.55844" lon="3.14221">
        <ele>143.61</ele>
        <time>2021-06-23T09:54:36Z</time>
      </trkpt>
      <trkpt lat="48.55836" lon="3.14373">
        <ele>144.4</ele>
        <time>2021-06-23T09:54:59Z</time>
      </trkpt>
      <trkpt lat="48.55817" lon="3.14655">
        <ele>146.34</ele>
        <time>2021-06-23T09:55:22Z</time>
      </trkpt>
      <trkpt lat="48.55816" lon="3.14693">
        <ele>146.64</ele>
        <time>2021-06-23T09:55:44Z</time>
      </trkpt>
      <trkpt lat="48.55821" lon="3.14731">
        <ele>146.45</ele>
        <time>2021-06-23T09:56:07Z</time>
      </trkpt>
      <trkpt lat="48.55834" lon="3.14771">
        <ele>146</ele>
        <time>2021-06-23T09:56:30Z</time>
      </trkpt>
      <trkpt lat="48.55899" lon="3.14977">
        <ele>150.07</ele>
        <time>2021-06-23T09:56:53Z</time>
      </trkpt>
      <trkpt lat="48.55905" lon="3.15094">
        <ele>151.77</ele>
        <time>2021-06-23T09:57:15Z</time>
      </trkpt>
      <trkpt lat="48.55921" lon="3.15306">
        <ele>147.69</ele>
        <time>2021-06-23T09:57:38Z</time>
      </trkpt>
      <trkpt lat="48.55933" lon="3.15444">
        <ele>149.59</ele>
        <time>2021-06-23T09:58:01Z</time>
      </trkpt>
      <trkpt lat="48.55936" lon="3.15523">
        <ele>148.7</ele>
        <time>2021-06-23T09:58:23Z</time>
      </trkpt>
      <trkpt lat="48.55936" lon="3.15717">
        <ele>149.18</ele>
        <time>2021-06-23T09:58:46Z</time>
      </trkpt>
      <trkpt lat="48.55927" lon="3.18467">
        <ele>133.07</ele>
        <time>2021-06-23T09:59:09Z</time>
      </trkpt>
      <trkpt lat="48.55919" lon="3.19811">
        <ele>123.92</ele>
        <time>2021-06-23T09:59:31Z</time>
      </trkpt>
      <trkpt lat="48.55912" lon="3.21538">
        <ele>137</ele>
        <time>2021-06-23T09:59:54Z</time>
      </trkpt>
      <trkpt lat="48.55912" lon="3.21603">
        <ele>136.41</ele>
        <time>2021-06-23T10:00:17Z</time>
      </trkpt>
      <trkpt lat="48.55916" lon="3.21662">
        <ele>136.84</ele>
        <time>2021-06-23T10:00:39Z</time>
      </trkpt>
      <trkpt lat="48.55921" lon="3.21686">
        <ele>137.07</ele>
        <time>2021-06-23T10:01:02Z</time>
      </trkpt>
      <trkpt lat="48.55929" lon="3.21709">
        <ele>137.74</ele>
        <time>2021-06-23T10:01:25Z</time>
      </trkpt>
      <trkpt lat="48.56063" lon="3.22014">
        <ele>140.45</ele>
        <time>2021-06-23T10:01:47Z</time>
      </trkpt>
      <trkpt lat="48.56069" lon="3.22034">
        <ele>140.26</ele>
        <time>2021-06-23T10:02:10Z</time>
      </trkpt>
      <trkpt lat="48.56074" lon="3.22065">
        <ele>140.65</ele>
        <time>2021-06-23T10:02:33Z</time>
      </trkpt>
      <trkpt lat="48.56074" lon="3.22207">
        <ele>139.96</ele>
        <time>2021-06-23T10:02:55Z</time>
      </trkpt>
      <trkpt lat="48.56057" lon="3.22988">
        <ele>146.94</ele>
        <time>2021-06-23T10:03:18Z</time>
      </trkpt>
      <trkpt lat="48.56032" lon="3.24273">
        <ele>136.05</ele>
        <time>2021-06-23T10:03:41Z</time>
      </trkpt>
      <trkpt lat="48.56018" lon="3.24839">
        <ele>133.19</ele>
        <time>2021-06-23T10:04:04Z</time>
      </trkpt>
      <trkpt lat="48.56014" lon="3.25089">
        <ele>135.5</ele>
        <time>2021-06-23T10:04:26Z</time>
      </trkpt>
      <trkpt lat="48.55983" lon="3.26465">
        <ele>135.5</ele>
        <time>2021-06-23T10:04:49Z</time>
      </trkpt>
      <trkpt lat="48.55983" lon="3.26465">
        <ele>135.5</ele>
        <time>2021-06-23T10:04:49Z</time>
      </trkpt>
      <trkpt lat="48.55976" lon="3.26742">
        <ele>133</ele>
        <time>2021-06-23T10:04:56Z</time>
      </trkpt>
      <trkpt lat="48.55973" lon="3.26943">
        <ele>129.05</ele>
        <time>2021-06-23T10:05:03Z</time>
      </trkpt>
      <trkpt lat="48.55965" lon="3.27139">
        <ele>129</ele>
        <time>2021-06-23T10:05:09Z</time>
      </trkpt>
      <trkpt lat="48.55949" lon="3.27345">
        <ele>126.51</ele>
        <time>2021-06-23T10:05:16Z</time>
      </trkpt>
      <trkpt lat="48.55931" lon="3.27422">
        <ele>125.9</ele>
        <time>2021-06-23T10:05:23Z</time>
      </trkpt>
      <trkpt lat="48.55917" lon="3.27462">
        <ele>125.35</ele>
        <time>2021-06-23T10:05:30Z</time>
      </trkpt>
      <trkpt lat="48.55909" lon="3.27464">
        <ele>125.03</ele>
        <time>2021-06-23T10:05:35Z</time>
      </trkpt>
      <trkpt lat="48.55902" lon="3.27469">
        <ele>124.58</ele>
        <time>2021-06-23T10:05:41Z</time>
      </trkpt>
      <trkpt lat="48.55892" lon="3.27483">
        <ele>123.75</ele>
        <time>2021-06-23T10:05:46Z</time>
      </trkpt>
      <trkpt lat="48.55885" lon="3.275">
        <ele>122.98</ele>
        <time>2021-06-23T10:05:52Z</time>
      </trkpt>
      <trkpt lat="48.55884" lon="3.27535">
        <ele>121.72</ele>
        <time>2021-06-23T10:05:57Z</time>
      </trkpt>
      <trkpt lat="48.5589" lon="3.27555">
        <ele>121.09</ele>
        <time>2021-06-23T10:06:03Z</time>
      </trkpt>
      <trkpt lat="48.55895" lon="3.27565">
        <ele>121.38</ele>
        <time>2021-06-23T10:06:08Z</time>
      </trkpt>
      <trkpt lat="48.559" lon="3.27593">
        <ele>121.39</ele>
        <time>2021-06-23T10:06:14Z</time>
      </trkpt>
      <trkpt lat="48.55897" lon="3.27622">
        <ele>120.88</ele>
        <time>2021-06-23T10:06:19Z</time>
      </trkpt>
      <trkpt lat="48.55848" lon="3.27811">
        <ele>120</ele>
        <time>2021-06-23T10:06:24Z</time>
      </trkpt>
      <trkpt lat="48.55798" lon="3.27946">
        <ele>124.66</ele>
        <time>2021-06-23T10:06:30Z</time>
      </trkpt>
      <trkpt lat="48.55733" lon="3.28094">
        <ele>128.61</ele>
        <time>2021-06-23T10:06:35Z</time>
      </trkpt>
      <trkpt lat="48.55613" lon="3.28358">
        <ele>121.28</ele>
        <time>2021-06-23T10:06:41Z</time>
      </trkpt>
      <trkpt lat="48.55394" lon="3.28825">
        <ele>87.89</ele>
        <time>2021-06-23T10:06:46Z</time>
      </trkpt>
      <trkpt lat="48.55153" lon="3.2935">
        <ele>87</ele>
        <time>2021-06-23T10:06:52Z</time>
      </trkpt>
      <trkpt lat="48.55087" lon="3.29511">
        <ele>88.46</ele>
        <time>2021-06-23T10:06:57Z</time>
      </trkpt>
      <trkpt lat="48.55046" lon="3.29634">
        <ele>95.13</ele>
        <time>2021-06-23T10:07:03Z</time>
      </trkpt>
      <trkpt lat="48.55026" lon="3.29703">
        <ele>102.65</ele>
        <time>2021-06-23T10:07:08Z</time>
      </trkpt>
      <trkpt lat="48.55011" lon="3.29762">
        <ele>106.45</ele>
        <time>2021-06-23T10:07:14Z</time>
      </trkpt>
      <trkpt lat="48.54996" lon="3.29834">
        <ele>113.63</ele>
        <time>2021-06-23T10:07:19Z</time>
      </trkpt>
      <trkpt lat="48.54981" lon="3.29918">
        <ele>119.75</ele>
        <time>2021-06-23T10:07:24Z</time>
      </trkpt>
      <trkpt lat="48.54973" lon="3.29992">
        <ele>121.59</ele>
        <time>2021-06-23T10:07:30Z</time>
      </trkpt>
      <trkpt lat="48.5497" lon="3.30059">
        <ele>126.52</ele>
        <time>2021-06-23T10:07:35Z</time>
      </trkpt>
      <trkpt lat="48.54967" lon="3.30171">
        <ele>130.39</ele>
        <time>2021-06-23T10:07:41Z</time>
      </trkpt>
      <trkpt lat="48.54973" lon="3.30297">
        <ele>140.65</ele>
        <time>2021-06-23T10:07:46Z</time>
      </trkpt>
      <trkpt lat="48.54981" lon="3.30397">
        <ele>141.68</ele>
        <time>2021-06-23T10:07:52Z</time>
      </trkpt>
      <trkpt lat="48.55005" lon="3.30572">
        <ele>142.94</ele>
        <time>2021-06-23T10:07:57Z</time>
      </trkpt>
      <trkpt lat="48.5502" lon="3.30703">
        <ele>148.13</ele>
        <time>2021-06-23T10:08:03Z</time>
      </trkpt>
      <trkpt lat="48.55039" lon="3.30823">
        <ele>149.21</ele>
        <time>2021-06-23T10:08:08Z</time>
      </trkpt>
      <trkpt lat="48.55035" lon="3.30828">
        <ele>149.15</ele>
        <time>2021-06-23T10:08:11Z</time>
      </trkpt>
      <trkpt lat="48.55032" lon="3.30834">
        <ele>149</ele>
        <time>2021-06-23T10:08:14Z</time>
      </trkpt>
      <trkpt lat="48.55031" lon="3.30841">
        <ele>149</ele>
        <time>2021-06-23T10:08:17Z</time>
      </trkpt>
      <trkpt lat="48.55031" lon="3.30849">
        <ele>149</ele>
        <time>2021-06-23T10:08:21Z</time>
      </trkpt>
      <trkpt lat="48.55037" lon="3.30861">
        <ele>149</ele>
        <time>2021-06-23T10:08:24Z</time>
      </trkpt>
      <trkpt lat="48.55046" lon="3.30865">
        <ele>149</ele>
        <time>2021-06-23T10:08:27Z</time>
      </trkpt>
      <trkpt lat="48.55128" lon="3.31326">
        <ele>144.27</ele>
        <time>2021-06-23T10:08:30Z</time>
      </trkpt>
      <trkpt lat="48.55138" lon="3.31408">
        <ele>142.96</ele>
        <time>2021-06-23T10:08:33Z</time>
      </trkpt>
      <trkpt lat="48.55148" lon="3.3152">
        <ele>139.63</ele>
        <time>2021-06-23T10:08:36Z</time>
      </trkpt>
      <trkpt lat="48.55153" lon="3.31619">
        <ele>135.23</ele>
        <time>2021-06-23T10:08:39Z</time>
      </trkpt>
      <trkpt lat="48.55154" lon="3.31719">
        <ele>132.11</ele>
        <time>2021-06-23T10:08:42Z</time>
      </trkpt>
      <trkpt lat="48.55153" lon="3.31782">
        <ele>127.42</ele>
        <time>2021-06-23T10:08:45Z</time>
      </trkpt>
      <trkpt lat="48.55148" lon="3.31884">
        <ele>127.13</ele>
        <time>2021-06-23T10:08:49Z</time>
      </trkpt>
      <trkpt lat="48.55141" lon="3.31957">
        <ele>125.87</ele>
        <time>2021-06-23T10:08:52Z</time>
      </trkpt>
      <trkpt lat="48.55116" lon="3.32159">
        <ele>128.62</ele>
        <time>2021-06-23T10:08:55Z</time>
      </trkpt>
      <trkpt lat="48.55099" lon="3.32237">
        <ele>129.87</ele>
        <time>2021-06-23T10:08:58Z</time>
      </trkpt>
      <trkpt lat="48.55099" lon="3.32237">
        <ele>129.87</ele>
        <time>2021-06-23T10:08:58Z</time>
      </trkpt>
      <trkpt lat="48.5508" lon="3.32324">
        <ele>131.11</ele>
        <time>2021-06-23T10:09:15Z</time>
      </trkpt>
      <trkpt lat="48.55043" lon="3.32462">
        <ele>131</ele>
        <time>2021-06-23T10:09:32Z</time>
      </trkpt>
      <trkpt lat="48.54864" lon="3.33111">
        <ele>151.09</ele>
        <time>2021-06-23T10:09:49Z</time>
      </trkpt>
      <trkpt lat="48.54851" lon="3.33153">
        <ele>152</ele>
        <time>2021-06-23T10:10:07Z</time>
      </trkpt>
      <trkpt lat="48.54817" lon="3.33247">
        <ele>151.58</ele>
        <time>2021-06-23T10:10:24Z</time>
      </trkpt>
      <trkpt lat="48.5479" lon="3.33312">
        <ele>151.78</ele>
        <time>2021-06-23T10:10:41Z</time>
      </trkpt>
      <trkpt lat="48.54696" lon="3.33498">
        <ele>148</ele>
        <time>2021-06-23T10:10:58Z</time>
      </trkpt>
      <trkpt lat="48.54314" lon="3.34238">
        <ele>145.69</ele>
        <time>2021-06-23T10:11:15Z</time>
      </trkpt>
      <trkpt lat="48.54171" lon="3.34511">
        <ele>144.94</ele>
        <time>2021-06-23T10:11:32Z</time>
      </trkpt>
      <trkpt lat="48.54035" lon="3.34775">
        <ele>148.21</ele>
        <time>2021-06-23T10:11:50Z</time>
      </trkpt>
      <trkpt lat="48.53949" lon="3.34941">
        <ele>146.12</ele>
        <time>2021-06-23T10:12:07Z</time>
      </trkpt>
      <trkpt lat="48.53701" lon="3.35411">
        <ele>150.05</ele>
        <time>2021-06-23T10:12:24Z</time>
      </trkpt>
      <trkpt lat="48.53651" lon="3.35516">
        <ele>151.32</ele>
        <time>2021-06-23T10:12:41Z</time>
      </trkpt>
      <trkpt lat="48.5364" lon="3.3556">
        <ele>152.09</ele>
        <time>2021-06-23T10:12:58Z</time>
      </trkpt>
      <trkpt lat="48.5357" lon="3.35984">
        <ele>153.71</ele>
        <time>2021-06-23T10:13:15Z</time>
      </trkpt>
      <trkpt lat="48.53523" lon="3.3627">
        <ele>150.27</ele>
        <time>2021-06-23T10:13:32Z</time>
      </trkpt>
      <trkpt lat="48.53402" lon="3.36987">
        <ele>154.26</ele>
        <time>2021-06-23T10:13:50Z</time>
      </trkpt>
      <trkpt lat="48.53358" lon="3.37255">
        <ele>158.98</ele>
        <time>2021-06-23T10:14:07Z</time>
      </trkpt>
      <trkpt lat="48.53337" lon="3.37389">
        <ele>157.98</ele>
        <time>2021-06-23T10:14:24Z</time>
      </trkpt>
      <trkpt lat="48.52949" lon="3.39716">
        <ele>167.82</ele>
        <time>2021-06-23T10:14:41Z</time>
      </trkpt>
      <trkpt lat="48.52839" lon="3.4039">
        <ele>175.11</ele>
        <time>2021-06-23T10:14:58Z</time>
      </trkpt>
      <trkpt lat="48.52827" lon="3.4044">
        <ele>173.27</ele>
        <time>2021-06-23T10:15:15Z</time>
      </trkpt>
      <trkpt lat="48.52814" lon="3.40483">
        <ele>172.02</ele>
        <time>2021-06-23T10:15:33Z</time>
      </trkpt>
      <trkpt lat="48.52797" lon="3.40518">
        <ele>172.83</ele>
        <time>2021-06-23T10:15:50Z</time>
      </trkpt>
      <trkpt lat="48.52785" lon="3.40535">
        <ele>173.82</ele>
        <time>2021-06-23T10:16:07Z</time>
      </trkpt>
      <trkpt lat="48.52785" lon="3.40535">
        <ele>173.82</ele>
        <time>2021-06-23T10:16:07Z</time>
      </trkpt>
      <trkpt lat="48.51835" lon="3.41916">
        <ele>104.23</ele>
        <time>2021-06-23T10:16:25Z</time>
      </trkpt>
      <trkpt lat="48.51752" lon="3.42035">
        <ele>93.41</ele>
        <time>2021-06-23T10:16:44Z</time>
      </trkpt>
      <trkpt lat="48.5167" lon="3.42147">
        <ele>87.93</ele>
        <time>2021-06-23T10:17:02Z</time>
      </trkpt>
      <trkpt lat="48.51524" lon="3.42367">
        <ele>78.7</ele>
        <time>2021-06-23T10:17:20Z</time>
      </trkpt>
      <trkpt lat="48.51383" lon="3.42565">
        <ele>74.39</ele>
        <time>2021-06-23T10:17:39Z</time>
      </trkpt>
      <trkpt lat="48.51356" lon="3.42609">
        <ele>71.61</ele>
        <time>2021-06-23T10:17:57Z</time>
      </trkpt>
      <trkpt lat="48.50974" lon="3.43158">
        <ele>62</ele>
        <time>2021-06-23T10:18:15Z</time>
      </trkpt>
      <trkpt lat="48.50757" lon="3.43458">
        <ele>59.49</ele>
        <time>2021-06-23T10:18:34Z</time>
      </trkpt>
      <trkpt lat="48.50718" lon="3.43535">
        <ele>60.53</ele>
        <time>2021-06-23T10:18:52Z</time>
      </trkpt>
      <trkpt lat="48.50718" lon="3.43535">
        <ele>60.53</ele>
        <time>2021-06-23T10:18:52Z</time>
      </trkpt>
      <trkpt lat="48.50677" lon="3.43635">
        <ele>61</ele>
        <time>2021-06-23T10:19:08Z</time>
      </trkpt>
      <trkpt lat="48.50652" lon="3.43747">
        <ele>62</ele>
        <time>2021-06-23T10:19:24Z</time>
      </trkpt>
      <trkpt lat="48.50624" lon="3.43922">
        <ele>61</ele>
        <time>2021-06-23T10:19:40Z</time>
      </trkpt>
      <trkpt lat="48.50575" lon="3.44203">
        <ele>59.09</ele>
        <time>2021-06-23T10:19:56Z</time>
      </trkpt>
      <trkpt lat="48.50203" lon="3.46435">
        <ele>63.1</ele>
        <time>2021-06-23T10:20:11Z</time>
      </trkpt>
      <trkpt lat="48.50158" lon="3.46682">
        <ele>61.89</ele>
        <time>2021-06-23T10:20:27Z</time>
      </trkpt>
      <trkpt lat="48.50136" lon="3.46769">
        <ele>61.83</ele>
        <time>2021-06-23T10:20:43Z</time>
      </trkpt>
      <trkpt lat="48.50105" lon="3.46865">
        <ele>63.68</ele>
        <time>2021-06-23T10:20:59Z</time>
      </trkpt>
      <trkpt lat="48.5009" lon="3.46899">
        <ele>64.28</ele>
        <time>2021-06-23T10:21:15Z</time>
      </trkpt>
      <trkpt lat="48.5009" lon="3.46899">
        <ele>64.28</ele>
        <time>2021-06-23T10:21:15Z</time>
      </trkpt>
      <trkpt lat="48.50071" lon="3.46941">
        <ele>64.89</ele>
        <time>2021-06-23T10:21:20Z</time>
      </trkpt>
      <trkpt lat="48.50045" lon="3.46989">
        <ele>62.39</ele>
        <time>2021-06-23T10:21:25Z</time>
      </trkpt>
      <trkpt lat="48.49993" lon="3.47071">
        <ele>59.6</ele>
        <time>2021-06-23T10:21:31Z</time>
      </trkpt>
      <trkpt lat="48.49969" lon="3.47102">
        <ele>60.07</ele>
        <time>2021-06-23T10:21:36Z</time>
      </trkpt>
      <trkpt lat="48.49915" lon="3.47163">
        <ele>60.89</ele>
        <time>2021-06-23T10:21:41Z</time>
      </trkpt>
      <trkpt lat="48.49853" lon="3.47214">
        <ele>57.21</ele>
        <time>2021-06-23T10:21:47Z</time>
      </trkpt>
      <trkpt lat="48.49786" lon="3.47255">
        <ele>58.88</ele>
        <time>2021-06-23T10:21:52Z</time>
      </trkpt>
      <trkpt lat="48.49754" lon="3.47269">
        <ele>59.96</ele>
        <time>2021-06-23T10:21:57Z</time>
      </trkpt>
      <trkpt lat="48.49685" lon="3.47292">
        <ele>61.16</ele>
        <time>2021-06-23T10:22:03Z</time>
      </trkpt>
      <trkpt lat="48.49615" lon="3.47305">
        <ele>63.71</ele>
        <time>2021-06-23T10:22:08Z</time>
      </trkpt>
      <trkpt lat="48.4939" lon="3.47338">
        <ele>59.75</ele>
        <time>2021-06-23T10:22:13Z</time>
      </trkpt>
      <trkpt lat="48.4929" lon="3.47356">
        <ele>62.19</ele>
        <time>2021-06-23T10:22:19Z</time>
      </trkpt>
      <trkpt lat="48.49242" lon="3.4737">
        <ele>59.47</ele>
        <time>2021-06-23T10:22:24Z</time>
      </trkpt>
      <trkpt lat="48.49174" lon="3.47405">
        <ele>59</ele>
        <time>2021-06-23T10:22:29Z</time>
      </trkpt>
      <trkpt lat="48.49132" lon="3.4743">
        <ele>59</ele>
        <time>2021-06-23T10:22:35Z</time>
      </trkpt>
      <trkpt lat="48.49079" lon="3.47472">
        <ele>58.83</ele>
        <time>2021-06-23T10:22:40Z</time>
      </trkpt>
      <trkpt lat="48.4904" lon="3.47508">
        <ele>58.12</ele>
        <time>2021-06-23T10:22:45Z</time>
      </trkpt>
      <trkpt lat="48.49004" lon="3.47548">
        <ele>58.25</ele>
        <time>2021-06-23T10:22:51Z</time>
      </trkpt>
      <trkpt lat="48.48976" lon="3.47584">
        <ele>58.97</ele>
        <time>2021-06-23T10:22:56Z</time>
      </trkpt>
      <trkpt lat="48.48915" lon="3.47679">
        <ele>59</ele>
        <time>2021-06-23T10:23:01Z</time>
      </trkpt>
      <trkpt lat="48.48752" lon="3.47946">
        <ele>56.14</ele>
        <time>2021-06-23T10:23:07Z</time>
      </trkpt>
      <trkpt lat="48.48558" lon="3.48268">
        <ele>61.88</ele>
        <time>2021-06-23T10:23:12Z</time>
      </trkpt>
      <trkpt lat="48.48517" lon="3.48343">
        <ele>60.86</ele>
        <time>2021-06-23T10:23:17Z</time>
      </trkpt>
      <trkpt lat="48.48453" lon="3.48477">
        <ele>59.19</ele>
        <time>2021-06-23T10:23:23Z</time>
      </trkpt>
      <trkpt lat="48.4841" lon="3.48591">
        <ele>61.47</ele>
        <time>2021-06-23T10:23:28Z</time>
      </trkpt>
      <trkpt lat="48.4841" lon="3.48591">
        <ele>61.47</ele>
        <time>2021-06-23T10:23:28Z</time>
      </trkpt>
      <trkpt lat="48.48375" lon="3.48696">
        <ele>62.02</ele>
        <time>2021-06-23T10:23:35Z</time>
      </trkpt>
      <trkpt lat="48.48355" lon="3.48765">
        <ele>63.13</ele>
        <time>2021-06-23T10:23:42Z</time>
      </trkpt>
      <trkpt lat="48.4834" lon="3.48825">
        <ele>63.62</ele>
        <time>2021-06-23T10:23:48Z</time>
      </trkpt>
      <trkpt lat="48.48325" lon="3.48891">
        <ele>65.25</ele>
        <time>2021-06-23T10:23:55Z</time>
      </trkpt>
      <trkpt lat="48.48299" lon="3.49029">
        <ele>72.42</ele>
        <time>2021-06-23T10:24:02Z</time>
      </trkpt>
      <trkpt lat="48.4829" lon="3.49097">
        <ele>76.32</ele>
        <time>2021-06-23T10:24:09Z</time>
      </trkpt>
      <trkpt lat="48.48281" lon="3.49185">
        <ele>77.07</ele>
        <time>2021-06-23T10:24:15Z</time>
      </trkpt>
      <trkpt lat="48.48269" lon="3.4937">
        <ele>75.45</ele>
        <time>2021-06-23T10:24:22Z</time>
      </trkpt>
      <trkpt lat="48.48249" lon="3.49663">
        <ele>67.12</ele>
        <time>2021-06-23T10:24:29Z</time>
      </trkpt>
      <trkpt lat="48.48227" lon="3.50036">
        <ele>65</ele>
        <time>2021-06-23T10:24:36Z</time>
      </trkpt>
      <trkpt lat="48.48226" lon="3.50151">
        <ele>63.43</ele>
        <time>2021-06-23T10:24:43Z</time>
      </trkpt>
      <trkpt lat="48.48235" lon="3.50319">
        <ele>64</ele>
        <time>2021-06-23T10:24:49Z</time>
      </trkpt>
      <trkpt lat="48.48333" lon="3.51032">
        <ele>78.16</ele>
        <time>2021-06-23T10:24:56Z</time>
      </trkpt>
      <trkpt lat="48.48377" lon="3.51218">
        <ele>76</ele>
        <time>2021-06-23T10:25:03Z</time>
      </trkpt>
      <trkpt lat="48.48388" lon="3.51257">
        <ele>74.78</ele>
        <time>2021-06-23T10:25:10Z</time>
      </trkpt>
      <trkpt lat="48.48432" lon="3.51386">
        <ele>76.46</ele>
        <time>2021-06-23T10:25:17Z</time>
      </trkpt>
      <trkpt lat="48.48459" lon="3.5145">
        <ele>79.75</ele>
        <time>2021-06-23T10:25:23Z</time>
      </trkpt>
      <trkpt lat="48.48476" lon="3.51519">
        <ele>83</ele>
        <time>2021-06-23T10:25:25Z</time>
      </trkpt>
      <trkpt lat="48.48476" lon="3.5153">
        <ele>83.09</ele>
        <time>2021-06-23T10:25:27Z</time>
      </trkpt>
      <trkpt lat="48.48474" lon="3.51546">
        <ele>83.69</ele>
        <time>2021-06-23T10:25:28Z</time>
      </trkpt>
      <trkpt lat="48.48474" lon="3.51546">
        <ele>83.69</ele>
        <time>2021-06-23T10:25:28Z</time>
      </trkpt>
      <trkpt lat="48.48469" lon="3.51559">
        <ele>83.89</ele>
        <time>2021-06-23T10:25:31Z</time>
      </trkpt>
      <trkpt lat="48.48451" lon="3.51598">
        <ele>84</ele>
        <time>2021-06-23T10:25:34Z</time>
      </trkpt>
      <trkpt lat="48.48406" lon="3.51691">
        <ele>85.24</ele>
        <time>2021-06-23T10:25:37Z</time>
      </trkpt>
      <trkpt lat="48.48392" lon="3.51728">
        <ele>87.11</ele>
        <time>2021-06-23T10:25:40Z</time>
      </trkpt>
      <trkpt lat="48.48355" lon="3.51804">
        <ele>91.87</ele>
        <time>2021-06-23T10:25:51Z</time>
      </trkpt>
      <trkpt lat="48.48231" lon="3.52049">
        <ele>106.68</ele>
        <time>2021-06-23T10:26:03Z</time>
      </trkpt>
      <trkpt lat="48.48215" lon="3.52072">
        <ele>107.93</ele>
        <time>2021-06-23T10:26:14Z</time>
      </trkpt>
      <trkpt lat="48.4785" lon="3.52416">
        <ele>106.41</ele>
        <time>2021-06-23T10:26:25Z</time>
      </trkpt>
      <trkpt lat="48.47678" lon="3.52574">
        <ele>109.2</ele>
        <time>2021-06-23T10:26:37Z</time>
      </trkpt>
      <trkpt lat="48.47471" lon="3.52796">
        <ele>108.96</ele>
        <time>2021-06-23T10:26:48Z</time>
      </trkpt>
      <trkpt lat="48.47017" lon="3.53302">
        <ele>109.05</ele>
        <time>2021-06-23T10:27:00Z</time>
      </trkpt>
      <trkpt lat="48.4703" lon="3.53378">
        <ele>108.9</ele>
        <time>2021-06-23T10:27:04Z</time>
      </trkpt>
      <trkpt lat="48.4703" lon="3.53378">
        <ele>108.9</ele>
        <time>2021-06-23T10:27:04Z</time>
      </trkpt>
      <trkpt lat="48.47049" lon="3.53459">
        <ele>108.62</ele>
        <time>2021-06-23T10:27:10Z</time>
      </trkpt>
      <trkpt lat="48.47112" lon="3.53679">
        <ele>106.41</ele>
        <time>2021-06-23T10:27:17Z</time>
      </trkpt>
      <trkpt lat="48.47181" lon="3.53854">
        <ele>105.96</ele>
        <time>2021-06-23T10:27:23Z</time>
      </trkpt>
      <trkpt lat="48.47199" lon="3.53909">
        <ele>105.8</ele>
        <time>2021-06-23T10:27:30Z</time>
      </trkpt>
      <trkpt lat="48.47269" lon="3.5419">
        <ele>105.32</ele>
        <time>2021-06-23T10:27:36Z</time>
      </trkpt>
      <trkpt lat="48.47286" lon="3.54252">
        <ele>104.39</ele>
        <time>2021-06-23T10:27:43Z</time>
      </trkpt>
      <trkpt lat="48.47347" lon="3.54433">
        <ele>99.21</ele>
        <time>2021-06-23T10:27:49Z</time>
      </trkpt>
      <trkpt lat="48.47369" lon="3.54505">
        <ele>97.82</ele>
        <time>2021-06-23T10:27:56Z</time>
      </trkpt>
      <trkpt lat="48.47384" lon="3.54573">
        <ele>95.27</ele>
        <time>2021-06-23T10:28:02Z</time>
      </trkpt>
      <trkpt lat="48.47422" lon="3.54813">
        <ele>86.94</ele>
        <time>2021-06-23T10:28:09Z</time>
      </trkpt>
      <trkpt lat="48.47432" lon="3.54896">
        <ele>84.3</ele>
        <time>2021-06-23T10:28:15Z</time>
      </trkpt>
      <trkpt lat="48.47436" lon="3.5509">
        <ele>80.48</ele>
        <time>2021-06-23T10:28:22Z</time>
      </trkpt>
      <trkpt lat="48.47439" lon="3.55127">
        <ele>81.25</ele>
        <time>2021-06-23T10:28:28Z</time>
      </trkpt>
      <trkpt lat="48.47443" lon="3.5515">
        <ele>81.89</ele>
        <time>2021-06-23T10:28:34Z</time>
      </trkpt>
      <trkpt lat="48.47453" lon="3.55183">
        <ele>82.38</ele>
        <time>2021-06-23T10:28:41Z</time>
      </trkpt>
      <trkpt lat="48.47506" lon="3.55295">
        <ele>80.07</ele>
        <time>2021-06-23T10:28:47Z</time>
      </trkpt>
      <trkpt lat="48.47539" lon="3.55344">
        <ele>79.14</ele>
        <time>2021-06-23T10:28:54Z</time>
      </trkpt>
      <trkpt lat="48.47621" lon="3.55429">
        <ele>75.32</ele>
        <time>2021-06-23T10:29:00Z</time>
      </trkpt>
      <trkpt lat="48.47612" lon="3.55461">
        <ele>75.92</ele>
        <time>2021-06-23T10:29:03Z</time>
      </trkpt>
      <trkpt lat="48.47612" lon="3.55461">
        <ele>75.92</ele>
        <time>2021-06-23T10:29:03Z</time>
      </trkpt>
      <trkpt lat="48.47606" lon="3.55479">
        <ele>76.17</ele>
        <time>2021-06-23T10:29:11Z</time>
      </trkpt>
      <trkpt lat="48.47594" lon="3.55506">
        <ele>76.87</ele>
        <time>2021-06-23T10:29:19Z</time>
      </trkpt>
      <trkpt lat="48.47578" lon="3.55532">
        <ele>78.39</ele>
        <time>2021-06-23T10:29:27Z</time>
      </trkpt>
      <trkpt lat="48.47557" lon="3.55557">
        <ele>79.83</ele>
        <time>2021-06-23T10:29:34Z</time>
      </trkpt>
      <trkpt lat="48.47471" lon="3.55628">
        <ele>80.79</ele>
        <time>2021-06-23T10:29:42Z</time>
      </trkpt>
      <trkpt lat="48.47356" lon="3.55747">
        <ele>73.52</ele>
        <time>2021-06-23T10:29:50Z</time>
      </trkpt>
      <trkpt lat="48.47319" lon="3.55789">
        <ele>73.09</ele>
        <time>2021-06-23T10:29:58Z</time>
      </trkpt>
      <trkpt lat="48.47302" lon="3.55825">
        <ele>73.64</ele>
        <time>2021-06-23T10:30:05Z</time>
      </trkpt>
      <trkpt lat="48.47281" lon="3.5588">
        <ele>74.74</ele>
        <time>2021-06-23T10:30:13Z</time>
      </trkpt>
      <trkpt lat="48.47243" lon="3.55957">
        <ele>72.13</ele>
        <time>2021-06-23T10:30:21Z</time>
      </trkpt>
      <trkpt lat="48.47186" lon="3.5606">
        <ele>72.25</ele>
        <time>2021-06-23T10:30:29Z</time>
      </trkpt>
      <trkpt lat="48.47139" lon="3.56161">
        <ele>74</ele>
        <time>2021-06-23T10:30:36Z</time>
      </trkpt>
      <trkpt lat="48.47048" lon="3.56341">
        <ele>72.71</ele>
        <time>2021-06-23T10:30:44Z</time>
      </trkpt>
      <trkpt lat="48.46996" lon="3.56424">
        <ele>72.04</ele>
        <time>2021-06-23T10:30:52Z</time>
      </trkpt>
      <trkpt lat="48.46965" lon="3.56459">
        <ele>73.25</ele>
        <time>2021-06-23T10:31:00Z</time>
      </trkpt>
      <trkpt lat="48.46778" lon="3.56631">
        <ele>74</ele>
        <time>2021-06-23T10:31:07Z</time>
      </trkpt>
      <trkpt lat="48.46734" lon="3.56683">
        <ele>74.83</ele>
        <time>2021-06-23T10:31:15Z</time>
      </trkpt>
      <trkpt lat="48.46705" lon="3.56738">
        <ele>75</ele>
        <time>2021-06-23T10:31:23Z</time>
      </trkpt>
      <trkpt lat="48.46677" lon="3.56827">
        <ele>74.09</ele>
        <time>2021-06-23T10:31:31Z</time>
      </trkpt>
      <trkpt lat="48.46293" lon="3.58433">
        <ele>84.46</ele>
        <time>2021-06-23T10:31:38Z</time>
      </trkpt>
      <trkpt lat="48.46287" lon="3.58471">
        <ele>84.34</ele>
        <time>2021-06-23T10:31:46Z</time>
      </trkpt>
      <trkpt lat="48.46282" lon="3.58535">
        <ele>85.09</ele>
        <time>2021-06-23T10:31:54Z</time>
      </trkpt>
      <trkpt lat="48.46273" lon="3.58608">
        <ele>86.08</ele>
        <time>2021-06-23T10:32:01Z</time>
      </trkpt>
      <trkpt lat="48.46251" lon="3.58674">
        <ele>85.24</ele>
        <time>2021-06-23T10:32:09Z</time>
      </trkpt>
      <trkpt lat="48.4616" lon="3.58907">
        <ele>85.24</ele>
        <time>2021-06-23T10:32:17Z</time>
      </trkpt>
      <trkpt lat="48.46152" lon="3.5894">
        <ele>86.39</ele>
        <time>2021-06-23T10:32:25Z</time>
      </trkpt>
      <trkpt lat="48.46145" lon="3.58992">
        <ele>86.76</ele>
        <time>2021-06-23T10:32:32Z</time>
      </trkpt>
      <trkpt lat="48.46142" lon="3.59054">
        <ele>84.95</ele>
        <time>2021-06-23T10:32:40Z</time>
      </trkpt>
      <trkpt lat="48.46135" lon="3.5909">
        <ele>84.78</ele>
        <time>2021-06-23T10:32:48Z</time>
      </trkpt>
      <trkpt lat="48.46127" lon="3.59121">
        <ele>84.45</ele>
        <time>2021-06-23T10:32:56Z</time>
      </trkpt>
      <trkpt lat="48.46105" lon="3.59173">
        <ele>84.21</ele>
        <time>2021-06-23T10:33:03Z</time>
      </trkpt>
      <trkpt lat="48.46051" lon="3.59295">
        <ele>87.13</ele>
        <time>2021-06-23T10:33:11Z</time>
      </trkpt>
      <trkpt lat="48.45558" lon="3.60337">
        <ele>85.81</ele>
        <time>2021-06-23T10:33:19Z</time>
      </trkpt>
      <trkpt lat="48.4537" lon="3.6073">
        <ele>84.67</ele>
        <time>2021-06-23T10:33:27Z</time>
      </trkpt>
      <trkpt lat="48.45316" lon="3.60827">
        <ele>84.84</ele>
        <time>2021-06-23T10:33:34Z</time>
      </trkpt>
      <trkpt lat="48.45212" lon="3.61">
        <ele>85.63</ele>
        <time>2021-06-23T10:33:42Z</time>
      </trkpt>
      <trkpt lat="48.45134" lon="3.61132">
        <ele>86.88</ele>
        <time>2021-06-23T10:33:50Z</time>
      </trkpt>
      <trkpt lat="48.45126" lon="3.61142">
        <ele>86.48</ele>
        <time>2021-06-23T10:33:58Z</time>
      </trkpt>
      <trkpt lat="48.45115" lon="3.61147">
        <ele>86.1</ele>
        <time>2021-06-23T10:34:05Z</time>
      </trkpt>
      <trkpt lat="48.45082" lon="3.61155">
        <ele>87.48</ele>
        <time>2021-06-23T10:34:13Z</time>
      </trkpt>
      <trkpt lat="48.45076" lon="3.61162">
        <ele>87.65</ele>
        <time>2021-06-23T10:34:21Z</time>
      </trkpt>
      <trkpt lat="48.45058" lon="3.6119">
        <ele>88.83</ele>
        <time>2021-06-23T10:34:29Z</time>
      </trkpt>
      <trkpt lat="48.45053" lon="3.61195">
        <ele>89</ele>
        <time>2021-06-23T10:34:36Z</time>
      </trkpt>
      <trkpt lat="48.45048" lon="3.61195">
        <ele>89</ele>
        <time>2021-06-23T10:34:44Z</time>
      </trkpt>
      <trkpt lat="48.45042" lon="3.61192">
        <ele>89.05</ele>
        <time>2021-06-23T10:34:52Z</time>
      </trkpt>
      <trkpt lat="48.45006" lon="3.61149">
        <ele>91.94</ele>
        <time>2021-06-23T10:35:00Z</time>
      </trkpt>
      <trkpt lat="48.44985" lon="3.61127">
        <ele>94.34</ele>
        <time>2021-06-23T10:35:07Z</time>
      </trkpt>
      <trkpt lat="48.44938" lon="3.61054">
        <ele>97.67</ele>
        <time>2021-06-23T10:35:15Z</time>
      </trkpt>
      <trkpt lat="48.44934" lon="3.61051">
        <ele>97.97</ele>
        <time>2021-06-23T10:35:23Z</time>
      </trkpt>
      <trkpt lat="48.44929" lon="3.61051">
        <ele>98.52</ele>
        <time>2021-06-23T10:35:30Z</time>
      </trkpt>
      <trkpt lat="48.44919" lon="3.61061">
        <ele>100</ele>
        <time>2021-06-23T10:35:38Z</time>
      </trkpt>
      <trkpt lat="48.44901" lon="3.61085">
        <ele>101.58</ele>
        <time>2021-06-23T10:35:46Z</time>
      </trkpt>
      <trkpt lat="48.44893" lon="3.61098">
        <ele>101.84</ele>
        <time>2021-06-23T10:35:54Z</time>
      </trkpt>
      <trkpt lat="48.44883" lon="3.61122">
        <ele>101.59</ele>
        <time>2021-06-23T10:36:01Z</time>
      </trkpt>
      <trkpt lat="48.44876" lon="3.61146">
        <ele>101.25</ele>
        <time>2021-06-23T10:36:09Z</time>
      </trkpt>
      <trkpt lat="48.44876" lon="3.61146">
        <ele>101.25</ele>
        <time>2021-06-23T10:36:09Z</time>
      </trkpt>
      <trkpt lat="48.44847" lon="3.61254">
        <ele>102.45</ele>
        <time>2021-06-23T10:36:17Z</time>
      </trkpt>
      <trkpt lat="48.44841" lon="3.61294">
        <ele>102</ele>
        <time>2021-06-23T10:36:26Z</time>
      </trkpt>
      <trkpt lat="48.44827" lon="3.61413">
        <ele>99.25</ele>
        <time>2021-06-23T10:36:34Z</time>
      </trkpt>
      <trkpt lat="48.44821" lon="3.61444">
        <ele>97.44</ele>
        <time>2021-06-23T10:36:42Z</time>
      </trkpt>
      <trkpt lat="48.44815" lon="3.61471">
        <ele>97.36</ele>
        <time>2021-06-23T10:36:50Z</time>
      </trkpt>
      <trkpt lat="48.44789" lon="3.61547">
        <ele>99.59</ele>
        <time>2021-06-23T10:36:58Z</time>
      </trkpt>
      <trkpt lat="48.44782" lon="3.61571">
        <ele>99.96</ele>
        <time>2021-06-23T10:37:06Z</time>
      </trkpt>
      <trkpt lat="48.44773" lon="3.61619">
        <ele>99.13</ele>
        <time>2021-06-23T10:37:14Z</time>
      </trkpt>
      <trkpt lat="48.44769" lon="3.61662">
        <ele>98.95</ele>
        <time>2021-06-23T10:37:23Z</time>
      </trkpt>
      <trkpt lat="48.44768" lon="3.61691">
        <ele>98.49</ele>
        <time>2021-06-23T10:37:31Z</time>
      </trkpt>
      <trkpt lat="48.4477" lon="3.61727">
        <ele>97.8</ele>
        <time>2021-06-23T10:37:39Z</time>
      </trkpt>
      <trkpt lat="48.44816" lon="3.6205">
        <ele>95.36</ele>
        <time>2021-06-23T10:37:47Z</time>
      </trkpt>
      <trkpt lat="48.4482" lon="3.62084">
        <ele>94.36</ele>
        <time>2021-06-23T10:37:55Z</time>
      </trkpt>
      <trkpt lat="48.44825" lon="3.62151">
        <ele>92.62</ele>
        <time>2021-06-23T10:38:03Z</time>
      </trkpt>
      <trkpt lat="48.44835" lon="3.62872">
        <ele>88.26</ele>
        <time>2021-06-23T10:38:12Z</time>
      </trkpt>
      <trkpt lat="48.4483" lon="3.62913">
        <ele>89.53</ele>
        <time>2021-06-23T10:38:20Z</time>
      </trkpt>
      <trkpt lat="48.44815" lon="3.62979">
        <ele>91.87</ele>
        <time>2021-06-23T10:38:28Z</time>
      </trkpt>
      <trkpt lat="48.44792" lon="3.63052">
        <ele>92.65</ele>
        <time>2021-06-23T10:38:36Z</time>
      </trkpt>
      <trkpt lat="48.44775" lon="3.63113">
        <ele>93.18</ele>
        <time>2021-06-23T10:38:44Z</time>
      </trkpt>
      <trkpt lat="48.44762" lon="3.63195">
        <ele>91.69</ele>
        <time>2021-06-23T10:38:52Z</time>
      </trkpt>
      <trkpt lat="48.44696" lon="3.63665">
        <ele>87.94</ele>
        <time>2021-06-23T10:39:01Z</time>
      </trkpt>
      <trkpt lat="48.44685" lon="3.63719">
        <ele>88.04</ele>
        <time>2021-06-23T10:39:09Z</time>
      </trkpt>
      <trkpt lat="48.44667" lon="3.6377">
        <ele>87.28</ele>
        <time>2021-06-23T10:39:17Z</time>
      </trkpt>
      <trkpt lat="48.44465" lon="3.64167">
        <ele>90</ele>
        <time>2021-06-23T10:39:25Z</time>
      </trkpt>
      <trkpt lat="48.44374" lon="3.64332">
        <ele>90</ele>
        <time>2021-06-23T10:39:33Z</time>
      </trkpt>
      <trkpt lat="48.44348" lon="3.64391">
        <ele>90</ele>
        <time>2021-06-23T10:39:41Z</time>
      </trkpt>
      <trkpt lat="48.44328" lon="3.64456">
        <ele>90.18</ele>
        <time>2021-06-23T10:39:50Z</time>
      </trkpt>
      <trkpt lat="48.44309" lon="3.64529">
        <ele>90.87</ele>
        <time>2021-06-23T10:39:58Z</time>
      </trkpt>
      <trkpt lat="48.44285" lon="3.64609">
        <ele>91.07</ele>
        <time>2021-06-23T10:40:06Z</time>
      </trkpt>
      <trkpt lat="48.44262" lon="3.64665">
        <ele>90.57</ele>
        <time>2021-06-23T10:40:14Z</time>
      </trkpt>
      <trkpt lat="48.44219" lon="3.64751">
        <ele>90.13</ele>
        <time>2021-06-23T10:40:22Z</time>
      </trkpt>
      <trkpt lat="48.44208" lon="3.64769">
        <ele>90.51</ele>
        <time>2021-06-23T10:40:30Z</time>
      </trkpt>
      <trkpt lat="48.44193" lon="3.64799">
        <ele>91.01</ele>
        <time>2021-06-23T10:40:38Z</time>
      </trkpt>
      <trkpt lat="48.44166" lon="3.6486">
        <ele>90.05</ele>
        <time>2021-06-23T10:40:47Z</time>
      </trkpt>
      <trkpt lat="48.44145" lon="3.6492">
        <ele>91.76</ele>
        <time>2021-06-23T10:40:55Z</time>
      </trkpt>
      <trkpt lat="48.44123" lon="3.64991">
        <ele>92.17</ele>
        <time>2021-06-23T10:41:03Z</time>
      </trkpt>
      <trkpt lat="48.44087" lon="3.65138">
        <ele>90.86</ele>
        <time>2021-06-23T10:41:11Z</time>
      </trkpt>
      <trkpt lat="48.44082" lon="3.65188">
        <ele>91.06</ele>
        <time>2021-06-23T10:41:19Z</time>
      </trkpt>
      <trkpt lat="48.44075" lon="3.65292">
        <ele>92</ele>
        <time>2021-06-23T10:41:27Z</time>
      </trkpt>
      <trkpt lat="48.44068" lon="3.65334">
        <ele>92</ele>
        <time>2021-06-23T10:41:36Z</time>
      </trkpt>
      <trkpt lat="48.44017" lon="3.6553">
        <ele>91.75</ele>
        <time>2021-06-23T10:41:44Z</time>
      </trkpt>
      <trkpt lat="48.44005" lon="3.6559">
        <ele>92</ele>
        <time>2021-06-23T10:41:52Z</time>
      </trkpt>
      <trkpt lat="48.43942" lon="3.65879">
        <ele>94.32</ele>
        <time>2021-06-23T10:42:00Z</time>
      </trkpt>
      <trkpt lat="48.4389" lon="3.66056">
        <ele>92.98</ele>
        <time>2021-06-23T10:42:08Z</time>
      </trkpt>
      <trkpt lat="48.43696" lon="3.669">
        <ele>97.95</ele>
        <time>2021-06-23T10:42:16Z</time>
      </trkpt>
      <trkpt lat="48.4366" lon="3.67161">
        <ele>97.18</ele>
        <time>2021-06-23T10:42:25Z</time>
      </trkpt>
      <trkpt lat="48.43647" lon="3.67224">
        <ele>98.5</ele>
        <time>2021-06-23T10:42:33Z</time>
      </trkpt>
      <trkpt lat="48.43635" lon="3.67264">
        <ele>100.36</ele>
        <time>2021-06-23T10:42:41Z</time>
      </trkpt>
      <trkpt lat="48.43608" lon="3.67332">
        <ele>101.74</ele>
        <time>2021-06-23T10:42:49Z</time>
      </trkpt>
      <trkpt lat="48.43608" lon="3.67332">
        <ele>101.74</ele>
        <time>2021-06-23T10:42:49Z</time>
      </trkpt>
      <trkpt lat="48.43529" lon="3.67521">
        <ele>98.26</ele>
        <time>2021-06-23T10:42:59Z</time>
      </trkpt>
      <trkpt lat="48.43458" lon="3.6761">
        <ele>98.02</ele>
        <time>2021-06-23T10:43:09Z</time>
      </trkpt>
      <trkpt lat="48.43397" lon="3.67674">
        <ele>97.51</ele>
        <time>2021-06-23T10:43:20Z</time>
      </trkpt>
      <trkpt lat="48.43336" lon="3.67741">
        <ele>97.03</ele>
        <time>2021-06-23T10:43:30Z</time>
      </trkpt>
      <trkpt lat="48.43162" lon="3.67996">
        <ele>108.88</ele>
        <time>2021-06-23T10:43:40Z</time>
      </trkpt>
      <trkpt lat="48.43125" lon="3.68046">
        <ele>114.84</ele>
        <time>2021-06-23T10:43:50Z</time>
      </trkpt>
      <trkpt lat="48.4299" lon="3.68246">
        <ele>124.34</ele>
        <time>2021-06-23T10:44:00Z</time>
      </trkpt>
      <trkpt lat="48.42938" lon="3.68345">
        <ele>123.56</ele>
        <time>2021-06-23T10:44:10Z</time>
      </trkpt>
      <trkpt lat="48.42913" lon="3.68409">
        <ele>123.87</ele>
        <time>2021-06-23T10:44:21Z</time>
      </trkpt>
      <trkpt lat="48.4288" lon="3.68501">
        <ele>126.34</ele>
        <time>2021-06-23T10:44:31Z</time>
      </trkpt>
      <trkpt lat="48.42722" lon="3.68922">
        <ele>130.01</ele>
        <time>2021-06-23T10:44:41Z</time>
      </trkpt>
      <trkpt lat="48.42609" lon="3.6914">
        <ele>134</ele>
        <time>2021-06-23T10:44:51Z</time>
      </trkpt>
      <trkpt lat="48.42502" lon="3.6934">
        <ele>133.87</ele>
        <time>2021-06-23T10:45:01Z</time>
      </trkpt>
      <trkpt lat="48.42289" lon="3.69708">
        <ele>125.41</ele>
        <time>2021-06-23T10:45:11Z</time>
      </trkpt>
      <trkpt lat="48.42119" lon="3.69991">
        <ele>117.83</ele>
        <time>2021-06-23T10:45:21Z</time>
      </trkpt>
      <trkpt lat="48.42053" lon="3.70075">
        <ele>111.1</ele>
        <time>2021-06-23T10:45:32Z</time>
      </trkpt>
      <trkpt lat="48.41996" lon="3.70128">
        <ele>105.86</ele>
        <time>2021-06-23T10:45:42Z</time>
      </trkpt>
      <trkpt lat="48.4184" lon="3.70273">
        <ele>109.14</ele>
        <time>2021-06-23T10:45:52Z</time>
      </trkpt>
      <trkpt lat="48.41733" lon="3.70399">
        <ele>107.25</ele>
        <time>2021-06-23T10:46:02Z</time>
      </trkpt>
      <trkpt lat="48.4171" lon="3.70449">
        <ele>108.48</ele>
        <time>2021-06-23T10:46:12Z</time>
      </trkpt>
      <trkpt lat="48.41555" lon="3.70903">
        <ele>119.99</ele>
        <time>2021-06-23T10:46:22Z</time>
      </trkpt>
      <trkpt lat="48.41502" lon="3.71003">
        <ele>114.05</ele>
        <time>2021-06-23T10:46:33Z</time>
      </trkpt>
      <trkpt lat="48.41302" lon="3.71235">
        <ele>105.14</ele>
        <time>2021-06-23T10:46:43Z</time>
      </trkpt>
      <trkpt lat="48.41121" lon="3.71413">
        <ele>108.29</ele>
        <time>2021-06-23T10:46:53Z</time>
      </trkpt>
      <trkpt lat="48.40842" lon="3.7174">
        <ele>104</ele>
        <time>2021-06-23T10:47:03Z</time>
      </trkpt>
      <trkpt lat="48.40802" lon="3.71796">
        <ele>104.85</ele>
        <time>2021-06-23T10:47:13Z</time>
      </trkpt>
      <trkpt lat="48.4058" lon="3.72197">
        <ele>103.24</ele>
        <time>2021-06-23T10:47:23Z</time>
      </trkpt>
      <trkpt lat="48.40556" lon="3.72243">
        <ele>105</ele>
        <time>2021-06-23T10:47:34Z</time>
      </trkpt>
      <trkpt lat="48.40546" lon="3.7227">
        <ele>105.82</ele>
        <time>2021-06-23T10:47:44Z</time>
      </trkpt>
      <trkpt lat="48.40537" lon="3.72301">
        <ele>106.56</ele>
        <time>2021-06-23T10:47:54Z</time>
      </trkpt>
      <trkpt lat="48.40529" lon="3.72346">
        <ele>107.05</ele>
        <time>2021-06-23T10:48:04Z</time>
      </trkpt>
      <trkpt lat="48.40529" lon="3.72346">
        <ele>107.05</ele>
        <time>2021-06-23T10:48:04Z</time>
      </trkpt>
      <trkpt lat="48.40492" lon="3.72608">
        <ele>107.03</ele>
        <time>2021-06-23T10:48:20Z</time>
      </trkpt>
      <trkpt lat="48.40439" lon="3.7297">
        <ele>109.74</ele>
        <time>2021-06-23T10:48:37Z</time>
      </trkpt>
      <trkpt lat="48.40405" lon="3.73213">
        <ele>108.29</ele>
        <time>2021-06-23T10:48:53Z</time>
      </trkpt>
      <trkpt lat="48.40404" lon="3.73351">
        <ele>108</ele>
        <time>2021-06-23T10:49:09Z</time>
      </trkpt>
      <trkpt lat="48.40385" lon="3.73446">
        <ele>109.18</ele>
        <time>2021-06-23T10:49:25Z</time>
      </trkpt>
      <trkpt lat="48.40329" lon="3.73596">
        <ele>110</ele>
        <time>2021-06-23T10:49:41Z</time>
      </trkpt>
      <trkpt lat="48.40299" lon="3.73678">
        <ele>110.13</ele>
        <time>2021-06-23T10:49:57Z</time>
      </trkpt>
      <trkpt lat="48.40292" lon="3.73699">
        <ele>109.82</ele>
        <time>2021-06-23T10:50:14Z</time>
      </trkpt>
      <trkpt lat="48.40294" lon="3.73711">
        <ele>109.39</ele>
        <time>2021-06-23T10:50:23Z</time>
      </trkpt>
      <trkpt lat="48.40299" lon="3.7372">
        <ele>109.1</ele>
        <time>2021-06-23T10:50:33Z</time>
      </trkpt>
      <trkpt lat="48.40299" lon="3.73731">
        <ele>108.92</ele>
        <time>2021-06-23T10:50:43Z</time>
      </trkpt>
      <trkpt lat="48.40267" lon="3.73863">
        <ele>110</ele>
        <time>2021-06-23T10:50:52Z</time>
      </trkpt>
      <trkpt lat="48.40266" lon="3.73869">
        <ele>110</ele>
        <time>2021-06-23T10:51:02Z</time>
      </trkpt>
      <trkpt lat="48.40216" lon="3.74086">
        <ele>110.21</ele>
        <time>2021-06-23T10:51:12Z</time>
      </trkpt>
      <trkpt lat="48.4021" lon="3.74155">
        <ele>109.43</ele>
        <time>2021-06-23T10:51:21Z</time>
      </trkpt>
      <trkpt lat="48.40178" lon="3.74473">
        <ele>109.79</ele>
        <time>2021-06-23T10:51:31Z</time>
      </trkpt>
      <trkpt lat="48.40177" lon="3.74514">
        <ele>109.02</ele>
        <time>2021-06-23T10:51:41Z</time>
      </trkpt>
      <trkpt lat="48.40221" lon="3.74912">
        <ele>109.13</ele>
        <time>2021-06-23T10:51:50Z</time>
      </trkpt>
      <trkpt lat="48.40215" lon="3.75046">
        <ele>109.4</ele>
        <time>2021-06-23T10:52:00Z</time>
      </trkpt>
      <trkpt lat="48.40215" lon="3.75076">
        <ele>109.93</ele>
        <time>2021-06-23T10:52:10Z</time>
      </trkpt>
      <trkpt lat="48.40223" lon="3.75185">
        <ele>112</ele>
        <time>2021-06-23T10:52:20Z</time>
      </trkpt>
      <trkpt lat="48.40232" lon="3.75243">
        <ele>112</ele>
        <time>2021-06-23T10:52:29Z</time>
      </trkpt>
      <trkpt lat="48.40283" lon="3.75484">
        <ele>111</ele>
        <time>2021-06-23T10:52:39Z</time>
      </trkpt>
      <trkpt lat="48.40295" lon="3.75557">
        <ele>112.25</ele>
        <time>2021-06-23T10:52:49Z</time>
      </trkpt>
      <trkpt lat="48.40307" lon="3.75648">
        <ele>113.95</ele>
        <time>2021-06-23T10:52:58Z</time>
      </trkpt>
      <trkpt lat="48.40312" lon="3.75697">
        <ele>112.5</ele>
        <time>2021-06-23T10:53:08Z</time>
      </trkpt>
      <trkpt lat="48.4031" lon="3.75818">
        <ele>111.85</ele>
        <time>2021-06-23T10:53:18Z</time>
      </trkpt>
      <trkpt lat="48.40313" lon="3.75911">
        <ele>112.75</ele>
        <time>2021-06-23T10:53:27Z</time>
      </trkpt>
      <trkpt lat="48.40321" lon="3.76079">
        <ele>113.49</ele>
        <time>2021-06-23T10:53:37Z</time>
      </trkpt>
      <trkpt lat="48.40313" lon="3.76123">
        <ele>113</ele>
        <time>2021-06-23T10:53:47Z</time>
      </trkpt>
      <trkpt lat="48.4029" lon="3.76201">
        <ele>112.44</ele>
        <time>2021-06-23T10:53:56Z</time>
      </trkpt>
      <trkpt lat="48.40245" lon="3.76321">
        <ele>113.25</ele>
        <time>2021-06-23T10:54:06Z</time>
      </trkpt>
      <trkpt lat="48.40235" lon="3.76363">
        <ele>113</ele>
        <time>2021-06-23T10:54:16Z</time>
      </trkpt>
      <trkpt lat="48.40228" lon="3.76431">
        <ele>114</ele>
        <time>2021-06-23T10:54:25Z</time>
      </trkpt>
      <trkpt lat="48.40219" lon="3.76592">
        <ele>115.66</ele>
        <time>2021-06-23T10:54:35Z</time>
      </trkpt>
      <trkpt lat="48.40208" lon="3.76706">
        <ele>115.78</ele>
        <time>2021-06-23T10:54:45Z</time>
      </trkpt>
      <trkpt lat="48.40191" lon="3.76787">
        <ele>115.3</ele>
        <time>2021-06-23T10:54:54Z</time>
      </trkpt>
      <trkpt lat="48.40063" lon="3.77316">
        <ele>118.72</ele>
        <time>2021-06-23T10:55:04Z</time>
      </trkpt>
      <trkpt lat="48.4003" lon="3.77476">
        <ele>121.71</ele>
        <time>2021-06-23T10:55:14Z</time>
      </trkpt>
      <trkpt lat="48.39983" lon="3.77772">
        <ele>120</ele>
        <time>2021-06-23T10:55:23Z</time>
      </trkpt>
      <trkpt lat="48.39974" lon="3.77768">
        <ele>120</ele>
        <time>2021-06-23T10:55:26Z</time>
      </trkpt>
      <trkpt lat="48.39943" lon="3.77963">
        <ele>121.87</ele>
        <time>2021-06-23T10:56:07Z</time>
      </trkpt>
      <trkpt lat="48.39943" lon="3.77963">
        <ele>121.87</ele>
        <time>2021-06-23T10:56:07Z</time>
      </trkpt>
      <trkpt lat="48.39974" lon="3.77768">
        <ele>120</ele>
        <time>2021-06-23T10:56:48Z</time>
      </trkpt>
      <trkpt lat="48.39983" lon="3.77772">
        <ele>120</ele>
        <time>2021-06-23T10:56:51Z</time>
      </trkpt>
      <trkpt lat="48.39675" lon="3.7968">
        <ele>129.34</ele>
        <time>2021-06-23T10:57:00Z</time>
      </trkpt>
      <trkpt lat="48.39396" lon="3.81429">
        <ele>146.43</ele>
        <time>2021-06-23T10:57:10Z</time>
      </trkpt>
      <trkpt lat="48.39241" lon="3.82381">
        <ele>148.53</ele>
        <time>2021-06-23T10:57:20Z</time>
      </trkpt>
      <trkpt lat="48.39206" lon="3.82606">
        <ele>145.85</ele>
        <time>2021-06-23T10:57:30Z</time>
      </trkpt>
      <trkpt lat="48.39188" lon="3.82706">
        <ele>144.38</ele>
        <time>2021-06-23T10:57:40Z</time>
      </trkpt>
      <trkpt lat="48.39169" lon="3.82777">
        <ele>143.93</ele>
        <time>2021-06-23T10:57:50Z</time>
      </trkpt>
      <trkpt lat="48.39145" lon="3.82836">
        <ele>143</ele>
        <time>2021-06-23T10:58:00Z</time>
      </trkpt>
      <trkpt lat="48.39123" lon="3.8287">
        <ele>143.58</ele>
        <time>2021-06-23T10:58:09Z</time>
      </trkpt>
      <trkpt lat="48.39019" lon="3.83">
        <ele>145.98</ele>
        <time>2021-06-23T10:58:19Z</time>
      </trkpt>
      <trkpt lat="48.38892" lon="3.83123">
        <ele>144.55</ele>
        <time>2021-06-23T10:58:29Z</time>
      </trkpt>
      <trkpt lat="48.38796" lon="3.83229">
        <ele>148.75</ele>
        <time>2021-06-23T10:58:39Z</time>
      </trkpt>
      <trkpt lat="48.38744" lon="3.83282">
        <ele>149.23</ele>
        <time>2021-06-23T10:58:49Z</time>
      </trkpt>
      <trkpt lat="48.38634" lon="3.83419">
        <ele>150.25</ele>
        <time>2021-06-23T10:58:59Z</time>
      </trkpt>
      <trkpt lat="48.38592" lon="3.83479">
        <ele>151.07</ele>
        <time>2021-06-23T10:59:09Z</time>
      </trkpt>
      <trkpt lat="48.38575" lon="3.83495">
        <ele>150.74</ele>
        <time>2021-06-23T10:59:18Z</time>
      </trkpt>
      <trkpt lat="48.38513" lon="3.83544">
        <ele>150.54</ele>
        <time>2021-06-23T10:59:28Z</time>
      </trkpt>
      <trkpt lat="48.38488" lon="3.83567">
        <ele>151</ele>
        <time>2021-06-23T10:59:38Z</time>
      </trkpt>
      <trkpt lat="48.38456" lon="3.83604">
        <ele>151.57</ele>
        <time>2021-06-23T10:59:48Z</time>
      </trkpt>
      <trkpt lat="48.38404" lon="3.83691">
        <ele>152.44</ele>
        <time>2021-06-23T10:59:58Z</time>
      </trkpt>
      <trkpt lat="48.38401" lon="3.83704">
        <ele>152.42</ele>
        <time>2021-06-23T11:00:08Z</time>
      </trkpt>
      <trkpt lat="48.38403" lon="3.83732">
        <ele>151.82</ele>
        <time>2021-06-23T11:00:18Z</time>
      </trkpt>
      <trkpt lat="48.38443" lon="3.83816">
        <ele>152.69</ele>
        <time>2021-06-23T11:00:28Z</time>
      </trkpt>
      <trkpt lat="48.38451" lon="3.83849">
        <ele>153.9</ele>
        <time>2021-06-23T11:00:37Z</time>
      </trkpt>
      <trkpt lat="48.38457" lon="3.83883">
        <ele>154</ele>
        <time>2021-06-23T11:00:47Z</time>
      </trkpt>
      <trkpt lat="48.38461" lon="3.8395">
        <ele>154.79</ele>
        <time>2021-06-23T11:00:57Z</time>
      </trkpt>
      <trkpt lat="48.38454" lon="3.84026">
        <ele>156.93</ele>
        <time>2021-06-23T11:01:07Z</time>
      </trkpt>
      <trkpt lat="48.3825" lon="3.85586">
        <ele>143.01</ele>
        <time>2021-06-23T11:01:17Z</time>
      </trkpt>
      <trkpt lat="48.38244" lon="3.85718">
        <ele>145.07</ele>
        <time>2021-06-23T11:01:27Z</time>
      </trkpt>
      <trkpt lat="48.38266" lon="3.86303">
        <ele>158.37</ele>
        <time>2021-06-23T11:01:37Z</time>
      </trkpt>
      <trkpt lat="48.38266" lon="3.86394">
        <ele>159.34</ele>
        <time>2021-06-23T11:01:46Z</time>
      </trkpt>
      <trkpt lat="48.38253" lon="3.86481">
        <ele>164.3</ele>
        <time>2021-06-23T11:01:56Z</time>
      </trkpt>
      <trkpt lat="48.38094" lon="3.8705">
        <ele>163.29</ele>
        <time>2021-06-23T11:02:06Z</time>
      </trkpt>
      <trkpt lat="48.3804" lon="3.87187">
        <ele>153.72</ele>
        <time>2021-06-23T11:02:16Z</time>
      </trkpt>
      <trkpt lat="48.37762" lon="3.87792">
        <ele>142.78</ele>
        <time>2021-06-23T11:02:26Z</time>
      </trkpt>
      <trkpt lat="48.37712" lon="3.87905">
        <ele>145.36</ele>
        <time>2021-06-23T11:02:36Z</time>
      </trkpt>
      <trkpt lat="48.37575" lon="3.88251">
        <ele>156</ele>
        <time>2021-06-23T11:02:46Z</time>
      </trkpt>
      <trkpt lat="48.37489" lon="3.88446">
        <ele>149.61</ele>
        <time>2021-06-23T11:02:55Z</time>
      </trkpt>
      <trkpt lat="48.37449" lon="3.88555">
        <ele>148.02</ele>
        <time>2021-06-23T11:03:05Z</time>
      </trkpt>
      <trkpt lat="48.3733" lon="3.88898">
        <ele>155</ele>
        <time>2021-06-23T11:03:15Z</time>
      </trkpt>
      <trkpt lat="48.37303" lon="3.88966">
        <ele>155.78</ele>
        <time>2021-06-23T11:03:25Z</time>
      </trkpt>
      <trkpt lat="48.37202" lon="3.89203">
        <ele>153.19</ele>
        <time>2021-06-23T11:03:35Z</time>
      </trkpt>
      <trkpt lat="48.37182" lon="3.8926">
        <ele>151.84</ele>
        <time>2021-06-23T11:03:45Z</time>
      </trkpt>
      <trkpt lat="48.37136" lon="3.89432">
        <ele>146.83</ele>
        <time>2021-06-23T11:03:55Z</time>
      </trkpt>
      <trkpt lat="48.37113" lon="3.89514">
        <ele>143.59</ele>
        <time>2021-06-23T11:04:05Z</time>
      </trkpt>
      <trkpt lat="48.37089" lon="3.89587">
        <ele>139.28</ele>
        <time>2021-06-23T11:04:14Z</time>
      </trkpt>
      <trkpt lat="48.37049" lon="3.89696">
        <ele>135.99</ele>
        <time>2021-06-23T11:04:24Z</time>
      </trkpt>
      <trkpt lat="48.36984" lon="3.89848">
        <ele>131.46</ele>
        <time>2021-06-23T11:04:34Z</time>
      </trkpt>
      <trkpt lat="48.36971" lon="3.89885">
        <ele>131.04</ele>
        <time>2021-06-23T11:04:44Z</time>
      </trkpt>
      <trkpt lat="48.3694" lon="3.89991">
        <ele>130.17</ele>
        <time>2021-06-23T11:04:54Z</time>
      </trkpt>
      <trkpt lat="48.36902" lon="3.90103">
        <ele>129</ele>
        <time>2021-06-23T11:05:04Z</time>
      </trkpt>
      <trkpt lat="48.3689" lon="3.90178">
        <ele>128.99</ele>
        <time>2021-06-23T11:05:14Z</time>
      </trkpt>
      <trkpt lat="48.36877" lon="3.90235">
        <ele>128.43</ele>
        <time>2021-06-23T11:05:23Z</time>
      </trkpt>
      <trkpt lat="48.36865" lon="3.90281">
        <ele>128.96</ele>
        <time>2021-06-23T11:05:33Z</time>
      </trkpt>
      <trkpt lat="48.36842" lon="3.90357">
        <ele>129.96</ele>
        <time>2021-06-23T11:05:43Z</time>
      </trkpt>
      <trkpt lat="48.36796" lon="3.90477">
        <ele>130.93</ele>
        <time>2021-06-23T11:05:53Z</time>
      </trkpt>
      <trkpt lat="48.36789" lon="3.90503">
        <ele>130.62</ele>
        <time>2021-06-23T11:06:03Z</time>
      </trkpt>
      <trkpt lat="48.36789" lon="3.90503">
        <ele>130.62</ele>
        <time>2021-06-23T11:06:03Z</time>
      </trkpt>
      <trkpt lat="48.36784" lon="3.90537">
        <ele>130</ele>
        <time>2021-06-23T11:06:15Z</time>
      </trkpt>
      <trkpt lat="48.36783" lon="3.90565">
        <ele>129.67</ele>
        <time>2021-06-23T11:06:27Z</time>
      </trkpt>
      <trkpt lat="48.36784" lon="3.90591">
        <ele>128.74</ele>
        <time>2021-06-23T11:06:39Z</time>
      </trkpt>
      <trkpt lat="48.36796" lon="3.90664">
        <ele>127.66</ele>
        <time>2021-06-23T11:06:52Z</time>
      </trkpt>
      <trkpt lat="48.36826" lon="3.90799">
        <ele>124.28</ele>
        <time>2021-06-23T11:07:04Z</time>
      </trkpt>
      <trkpt lat="48.36829" lon="3.90826">
        <ele>123.42</ele>
        <time>2021-06-23T11:07:16Z</time>
      </trkpt>
      <trkpt lat="48.36831" lon="3.90879">
        <ele>123.08</ele>
        <time>2021-06-23T11:07:28Z</time>
      </trkpt>
      <trkpt lat="48.36829" lon="3.91228">
        <ele>127.16</ele>
        <time>2021-06-23T11:07:40Z</time>
      </trkpt>
      <trkpt lat="48.36827" lon="3.91288">
        <ele>128</ele>
        <time>2021-06-23T11:07:53Z</time>
      </trkpt>
      <trkpt lat="48.36814" lon="3.91424">
        <ele>125.5</ele>
        <time>2021-06-23T11:08:05Z</time>
      </trkpt>
      <trkpt lat="48.36806" lon="3.91482">
        <ele>124.03</ele>
        <time>2021-06-23T11:08:17Z</time>
      </trkpt>
      <trkpt lat="48.36633" lon="3.92439">
        <ele>128.85</ele>
        <time>2021-06-23T11:08:29Z</time>
      </trkpt>
      <trkpt lat="48.36618" lon="3.92559">
        <ele>128.49</ele>
        <time>2021-06-23T11:08:41Z</time>
      </trkpt>
      <trkpt lat="48.36613" lon="3.92642">
        <ele>127.9</ele>
        <time>2021-06-23T11:08:53Z</time>
      </trkpt>
      <trkpt lat="48.36493" lon="3.96079">
        <ele>98.08</ele>
        <time>2021-06-23T11:09:06Z</time>
      </trkpt>
      <trkpt lat="48.36464" lon="3.96857">
        <ele>97.67</ele>
        <time>2021-06-23T11:09:18Z</time>
      </trkpt>
      <trkpt lat="48.36467" lon="3.96888">
        <ele>97.36</ele>
        <time>2021-06-23T11:09:30Z</time>
      </trkpt>
      <trkpt lat="48.36487" lon="3.96941">
        <ele>98.23</ele>
        <time>2021-06-23T11:09:42Z</time>
      </trkpt>
      <trkpt lat="48.36486" lon="3.96964">
        <ele>98.91</ele>
        <time>2021-06-23T11:09:54Z</time>
      </trkpt>
      <trkpt lat="48.36486" lon="3.96964">
        <ele>98.91</ele>
        <time>2021-06-23T11:09:54Z</time>
      </trkpt>
      <trkpt lat="48.36478" lon="3.97002">
        <ele>101.01</ele>
        <time>2021-06-23T11:10:03Z</time>
      </trkpt>
      <trkpt lat="48.3645" lon="3.97051">
        <ele>98.9</ele>
        <time>2021-06-23T11:10:11Z</time>
      </trkpt>
      <trkpt lat="48.36418" lon="3.97122">
        <ele>100.33</ele>
        <time>2021-06-23T11:10:19Z</time>
      </trkpt>
      <trkpt lat="48.36331" lon="3.97349">
        <ele>98.89</ele>
        <time>2021-06-23T11:10:27Z</time>
      </trkpt>
      <trkpt lat="48.36299" lon="3.97422">
        <ele>97</ele>
        <time>2021-06-23T11:10:36Z</time>
      </trkpt>
      <trkpt lat="48.36287" lon="3.97461">
        <ele>97</ele>
        <time>2021-06-23T11:10:44Z</time>
      </trkpt>
      <trkpt lat="48.36019" lon="3.98055">
        <ele>108</ele>
        <time>2021-06-23T11:10:52Z</time>
      </trkpt>
      <trkpt lat="48.3595" lon="3.98204">
        <ele>111.36</ele>
        <time>2021-06-23T11:11:01Z</time>
      </trkpt>
      <trkpt lat="48.35918" lon="3.9827">
        <ele>113</ele>
        <time>2021-06-23T11:11:09Z</time>
      </trkpt>
      <trkpt lat="48.35889" lon="3.98321">
        <ele>111.44</ele>
        <time>2021-06-23T11:11:17Z</time>
      </trkpt>
      <trkpt lat="48.35871" lon="3.98349">
        <ele>110.63</ele>
        <time>2021-06-23T11:11:25Z</time>
      </trkpt>
      <trkpt lat="48.35853" lon="3.98369">
        <ele>110.28</ele>
        <time>2021-06-23T11:11:34Z</time>
      </trkpt>
      <trkpt lat="48.35431" lon="3.99009">
        <ele>97.68</ele>
        <time>2021-06-23T11:11:42Z</time>
      </trkpt>
      <trkpt lat="48.35391" lon="3.99072">
        <ele>96</ele>
        <time>2021-06-23T11:11:50Z</time>
      </trkpt>
      <trkpt lat="48.35242" lon="3.99297">
        <ele>98.19</ele>
        <time>2021-06-23T11:11:58Z</time>
      </trkpt>
      <trkpt lat="48.35058" lon="3.99584">
        <ele>99.89</ele>
        <time>2021-06-23T11:12:07Z</time>
      </trkpt>
      <trkpt lat="48.35034" lon="3.99618">
        <ele>99.2</ele>
        <time>2021-06-23T11:12:15Z</time>
      </trkpt>
      <trkpt lat="48.34964" lon="3.99728">
        <ele>99.32</ele>
        <time>2021-06-23T11:12:23Z</time>
      </trkpt>
      <trkpt lat="48.34929" lon="3.99794">
        <ele>100.09</ele>
        <time>2021-06-23T11:12:32Z</time>
      </trkpt>
      <trkpt lat="48.34749" lon="4.00099">
        <ele>99</ele>
        <time>2021-06-23T11:12:40Z</time>
      </trkpt>
      <trkpt lat="48.34598" lon="4.00359">
        <ele>101.1</ele>
        <time>2021-06-23T11:12:48Z</time>
      </trkpt>
      <trkpt lat="48.34432" lon="4.00647">
        <ele>105.74</ele>
        <time>2021-06-23T11:12:56Z</time>
      </trkpt>
      <trkpt lat="48.34384" lon="4.00718">
        <ele>105.8</ele>
        <time>2021-06-23T11:13:05Z</time>
      </trkpt>
      <trkpt lat="48.33924" lon="4.01335">
        <ele>101.25</ele>
        <time>2021-06-23T11:13:13Z</time>
      </trkpt>
      <trkpt lat="48.337" lon="4.01631">
        <ele>103.18</ele>
        <time>2021-06-23T11:13:21Z</time>
      </trkpt>
      <trkpt lat="48.33617" lon="4.01736">
        <ele>103.89</ele>
        <time>2021-06-23T11:13:29Z</time>
      </trkpt>
      <trkpt lat="48.33335" lon="4.0211">
        <ele>102.94</ele>
        <time>2021-06-23T11:13:38Z</time>
      </trkpt>
      <trkpt lat="48.33276" lon="4.02191">
        <ele>107.05</ele>
        <time>2021-06-23T11:13:46Z</time>
      </trkpt>
      <trkpt lat="48.33177" lon="4.02321">
        <ele>107.93</ele>
        <time>2021-06-23T11:13:54Z</time>
      </trkpt>
      <trkpt lat="48.33118" lon="4.02389">
        <ele>109.48</ele>
        <time>2021-06-23T11:14:03Z</time>
      </trkpt>
      <trkpt lat="48.33062" lon="4.02454">
        <ele>108.95</ele>
        <time>2021-06-23T11:14:11Z</time>
      </trkpt>
      <trkpt lat="48.32955" lon="4.02573">
        <ele>108.24</ele>
        <time>2021-06-23T11:14:19Z</time>
      </trkpt>
      <trkpt lat="48.32887" lon="4.02656">
        <ele>103.43</ele>
        <time>2021-06-23T11:14:27Z</time>
      </trkpt>
      <trkpt lat="48.32841" lon="4.02722">
        <ele>104.71</ele>
        <time>2021-06-23T11:14:36Z</time>
      </trkpt>
      <trkpt lat="48.32795" lon="4.02779">
        <ele>104</ele>
        <time>2021-06-23T11:14:44Z</time>
      </trkpt>
      <trkpt lat="48.32744" lon="4.02829">
        <ele>105.21</ele>
        <time>2021-06-23T11:14:52Z</time>
      </trkpt>
      <trkpt lat="48.32673" lon="4.02898">
        <ele>108.5</ele>
        <time>2021-06-23T11:15:00Z</time>
      </trkpt>
      <trkpt lat="48.32599" lon="4.02969">
        <ele>108.65</ele>
        <time>2021-06-23T11:15:09Z</time>
      </trkpt>
      <trkpt lat="48.32545" lon="4.03022">
        <ele>105</ele>
        <time>2021-06-23T11:15:17Z</time>
      </trkpt>
      <trkpt lat="48.32531" lon="4.03033">
        <ele>105.2</ele>
        <time>2021-06-23T11:15:25Z</time>
      </trkpt>
      <trkpt lat="48.32525" lon="4.03036">
        <ele>105.26</ele>
        <time>2021-06-23T11:15:34Z</time>
      </trkpt>
      <trkpt lat="48.32518" lon="4.03036">
        <ele>105.19</ele>
        <time>2021-06-23T11:15:42Z</time>
      </trkpt>
      <trkpt lat="48.32512" lon="4.03034">
        <ele>105.09</ele>
        <time>2021-06-23T11:15:44Z</time>
      </trkpt>
      <trkpt lat="48.32501" lon="4.03018">
        <ele>105</ele>
        <time>2021-06-23T11:15:47Z</time>
      </trkpt>
      <trkpt lat="48.32495" lon="4.03007">
        <ele>105</ele>
        <time>2021-06-23T11:15:50Z</time>
      </trkpt>
      <trkpt lat="48.32488" lon="4.02977">
        <ele>105</ele>
        <time>2021-06-23T11:15:52Z</time>
      </trkpt>
      <trkpt lat="48.32484" lon="4.02946">
        <ele>105</ele>
        <time>2021-06-23T11:15:55Z</time>
      </trkpt>
      <trkpt lat="48.32484" lon="4.02934">
        <ele>105.15</ele>
        <time>2021-06-23T11:15:57Z</time>
      </trkpt>
      <trkpt lat="48.32487" lon="4.02921">
        <ele>105.43</ele>
        <time>2021-06-23T11:16:00Z</time>
      </trkpt>
      <trkpt lat="48.32495" lon="4.02903">
        <ele>106.3</ele>
        <time>2021-06-23T11:16:03Z</time>
      </trkpt>
      <trkpt lat="48.32508" lon="4.02891">
        <ele>107.23</ele>
        <time>2021-06-23T11:16:05Z</time>
      </trkpt>
      <trkpt lat="48.32526" lon="4.02888">
        <ele>107.93</ele>
        <time>2021-06-23T11:16:08Z</time>
      </trkpt>
      <trkpt lat="48.32567" lon="4.02908">
        <ele>108.6</ele>
        <time>2021-06-23T11:16:10Z</time>
      </trkpt>
      <trkpt lat="48.32602" lon="4.02947">
        <ele>109.56</ele>
        <time>2021-06-23T11:16:13Z</time>
      </trkpt>
      <trkpt lat="48.32652" lon="4.03021">
        <ele>107.74</ele>
        <time>2021-06-23T11:16:15Z</time>
      </trkpt>
      <trkpt lat="48.32675" lon="4.03062">
        <ele>106.15</ele>
        <time>2021-06-23T11:16:18Z</time>
      </trkpt>
      <trkpt lat="48.32695" lon="4.03106">
        <ele>106.21</ele>
        <time>2021-06-23T11:16:21Z</time>
      </trkpt>
      <trkpt lat="48.32714" lon="4.03154">
        <ele>105.71</ele>
        <time>2021-06-23T11:16:23Z</time>
      </trkpt>
      <trkpt lat="48.32726" lon="4.03193">
        <ele>106.96</ele>
        <time>2021-06-23T11:16:26Z</time>
      </trkpt>
      <trkpt lat="48.32747" lon="4.03279">
        <ele>107.04</ele>
        <time>2021-06-23T11:16:28Z</time>
      </trkpt>
      <trkpt lat="48.32799" lon="4.03536">
        <ele>105.93</ele>
        <time>2021-06-23T11:16:31Z</time>
      </trkpt>
      <trkpt lat="48.32896" lon="4.04005">
        <ele>100.86</ele>
        <time>2021-06-23T11:16:33Z</time>
      </trkpt>
      <trkpt lat="48.32942" lon="4.04234">
        <ele>98.28</ele>
        <time>2021-06-23T11:16:36Z</time>
      </trkpt>
      <trkpt lat="48.32942" lon="4.04234">
        <ele>98.28</ele>
        <time>2021-06-23T11:16:36Z</time>
      </trkpt>
      <trkpt lat="48.32962" lon="4.0434">
        <ele>96.62</ele>
        <time>2021-06-23T11:16:43Z</time>
      </trkpt>
      <trkpt lat="48.32969" lon="4.04407">
        <ele>96.89</ele>
        <time>2021-06-23T11:16:49Z</time>
      </trkpt>
      <trkpt lat="48.32973" lon="4.04465">
        <ele>98.01</ele>
        <time>2021-06-23T11:16:56Z</time>
      </trkpt>
      <trkpt lat="48.32974" lon="4.04547">
        <ele>95.43</ele>
        <time>2021-06-23T11:17:03Z</time>
      </trkpt>
      <trkpt lat="48.3297" lon="4.04641">
        <ele>95.99</ele>
        <time>2021-06-23T11:17:09Z</time>
      </trkpt>
      <trkpt lat="48.32962" lon="4.0471">
        <ele>97.37</ele>
        <time>2021-06-23T11:17:16Z</time>
      </trkpt>
      <trkpt lat="48.32949" lon="4.04792">
        <ele>96.42</ele>
        <time>2021-06-23T11:17:23Z</time>
      </trkpt>
      <trkpt lat="48.32938" lon="4.04842">
        <ele>96.31</ele>
        <time>2021-06-23T11:17:29Z</time>
      </trkpt>
      <trkpt lat="48.32811" lon="4.05314">
        <ele>99.03</ele>
        <time>2021-06-23T11:17:36Z</time>
      </trkpt>
      <trkpt lat="48.32799" lon="4.05372">
        <ele>101.87</ele>
        <time>2021-06-23T11:17:43Z</time>
      </trkpt>
      <trkpt lat="48.32791" lon="4.05431">
        <ele>104.31</ele>
        <time>2021-06-23T11:17:49Z</time>
      </trkpt>
      <trkpt lat="48.32783" lon="4.05498">
        <ele>101.33</ele>
        <time>2021-06-23T11:17:56Z</time>
      </trkpt>
      <trkpt lat="48.32777" lon="4.05578">
        <ele>99.95</ele>
        <time>2021-06-23T11:18:02Z</time>
      </trkpt>
      <trkpt lat="48.32764" lon="4.0685">
        <ele>96.81</ele>
        <time>2021-06-23T11:18:09Z</time>
      </trkpt>
      <trkpt lat="48.32761" lon="4.07027">
        <ele>97.03</ele>
        <time>2021-06-23T11:18:16Z</time>
      </trkpt>
      <trkpt lat="48.32761" lon="4.07158">
        <ele>95.28</ele>
        <time>2021-06-23T11:18:22Z</time>
      </trkpt>
      <trkpt lat="48.32764" lon="4.0727">
        <ele>97.45</ele>
        <time>2021-06-23T11:18:29Z</time>
      </trkpt>
      <trkpt lat="48.32767" lon="4.07333">
        <ele>98.83</ele>
        <time>2021-06-23T11:18:36Z</time>
      </trkpt>
      <trkpt lat="48.32773" lon="4.07404">
        <ele>96.18</ele>
        <time>2021-06-23T11:18:42Z</time>
      </trkpt>
      <trkpt lat="48.32789" lon="4.07548">
        <ele>99.06</ele>
        <time>2021-06-23T11:18:49Z</time>
      </trkpt>
      <trkpt lat="48.32801" lon="4.07633">
        <ele>98.22</ele>
        <time>2021-06-23T11:18:56Z</time>
      </trkpt>
      <trkpt lat="48.3284" lon="4.07823">
        <ele>99.57</ele>
        <time>2021-06-23T11:19:02Z</time>
      </trkpt>
      <trkpt lat="48.32872" lon="4.07945">
        <ele>101.82</ele>
        <time>2021-06-23T11:19:09Z</time>
      </trkpt>
      <trkpt lat="48.33448" lon="4.09934">
        <ele>107.74</ele>
        <time>2021-06-23T11:19:16Z</time>
      </trkpt>
      <trkpt lat="48.33544" lon="4.10274">
        <ele>112.79</ele>
        <time>2021-06-23T11:19:22Z</time>
      </trkpt>
      <trkpt lat="48.33557" lon="4.10335">
        <ele>112.15</ele>
        <time>2021-06-23T11:19:29Z</time>
      </trkpt>
      <trkpt lat="48.33565" lon="4.10399">
        <ele>115.4</ele>
        <time>2021-06-23T11:19:36Z</time>
      </trkpt>
      <trkpt lat="48.33566" lon="4.10445">
        <ele>117.77</ele>
        <time>2021-06-23T11:19:42Z</time>
      </trkpt>
      <trkpt lat="48.33565" lon="4.10484">
        <ele>118.74</ele>
        <time>2021-06-23T11:19:49Z</time>
      </trkpt>
      <trkpt lat="48.33556" lon="4.10551">
        <ele>119</ele>
        <time>2021-06-23T11:19:55Z</time>
      </trkpt>
      <trkpt lat="48.33547" lon="4.10589">
        <ele>119.05</ele>
        <time>2021-06-23T11:20:02Z</time>
      </trkpt>
      <trkpt lat="48.33547" lon="4.10589">
        <ele>119.05</ele>
        <time>2021-06-23T11:20:02Z</time>
      </trkpt>
      <trkpt lat="48.33526" lon="4.10652">
        <ele>119.38</ele>
        <time>2021-06-23T11:20:06Z</time>
      </trkpt>
      <trkpt lat="48.33507" lon="4.10689">
        <ele>117.72</ele>
        <time>2021-06-23T11:20:09Z</time>
      </trkpt>
      <trkpt lat="48.33471" lon="4.10743">
        <ele>116.46</ele>
        <time>2021-06-23T11:20:13Z</time>
      </trkpt>
      <trkpt lat="48.33454" lon="4.10762">
        <ele>116.9</ele>
        <time>2021-06-23T11:20:16Z</time>
      </trkpt>
      <trkpt lat="48.33409" lon="4.10798">
        <ele>118.53</ele>
        <time>2021-06-23T11:20:20Z</time>
      </trkpt>
      <trkpt lat="48.33386" lon="4.1081">
        <ele>117.15</ele>
        <time>2021-06-23T11:20:23Z</time>
      </trkpt>
      <trkpt lat="48.3327" lon="4.10857">
        <ele>115.83</ele>
        <time>2021-06-23T11:20:27Z</time>
      </trkpt>
      <trkpt lat="48.33222" lon="4.10882">
        <ele>114.26</ele>
        <time>2021-06-23T11:20:30Z</time>
      </trkpt>
      <trkpt lat="48.33196" lon="4.109">
        <ele>114.56</ele>
        <time>2021-06-23T11:20:34Z</time>
      </trkpt>
      <trkpt lat="48.3317" lon="4.10925">
        <ele>113.77</ele>
        <time>2021-06-23T11:20:37Z</time>
      </trkpt>
      <trkpt lat="48.33142" lon="4.10956">
        <ele>112.53</ele>
        <time>2021-06-23T11:20:41Z</time>
      </trkpt>
      <trkpt lat="48.33102" lon="4.11018">
        <ele>113.89</ele>
        <time>2021-06-23T11:20:45Z</time>
      </trkpt>
      <trkpt lat="48.32892" lon="4.11367">
        <ele>110.8</ele>
        <time>2021-06-23T11:20:48Z</time>
      </trkpt>
      <trkpt lat="48.32876" lon="4.11381">
        <ele>110.29</ele>
        <time>2021-06-23T11:20:51Z</time>
      </trkpt>
      <trkpt lat="48.3285" lon="4.11421">
        <ele>109.08</ele>
        <time>2021-06-23T11:20:54Z</time>
      </trkpt>
      <trkpt lat="48.32837" lon="4.11433">
        <ele>109.07</ele>
        <time>2021-06-23T11:20:57Z</time>
      </trkpt>
      <trkpt lat="48.32816" lon="4.11447">
        <ele>109.52</ele>
        <time>2021-06-23T11:21:00Z</time>
      </trkpt>
      <trkpt lat="48.32731" lon="4.11478">
        <ele>106.51</ele>
        <time>2021-06-23T11:21:02Z</time>
      </trkpt>
      <trkpt lat="48.32716" lon="4.11487">
        <ele>106.05</ele>
        <time>2021-06-23T11:21:05Z</time>
      </trkpt>
      <trkpt lat="48.32704" lon="4.11495">
        <ele>105.88</ele>
        <time>2021-06-23T11:21:08Z</time>
      </trkpt>
      <trkpt lat="48.32685" lon="4.11512">
        <ele>105.7</ele>
        <time>2021-06-23T11:21:11Z</time>
      </trkpt>
      <trkpt lat="48.32648" lon="4.11557">
        <ele>106.63</ele>
        <time>2021-06-23T11:21:14Z</time>
      </trkpt>
      <trkpt lat="48.32633" lon="4.11599">
        <ele>106.11</ele>
        <time>2021-06-23T11:21:17Z</time>
      </trkpt>
      <trkpt lat="48.32637" lon="4.11604">
        <ele>106.37</ele>
        <time>2021-06-23T11:21:17Z</time>
      </trkpt>
      <trkpt lat="48.32637" lon="4.11604">
        <ele>106.37</ele>
        <time>2021-06-23T11:21:17Z</time>
      </trkpt>
      <trkpt lat="48.32684" lon="4.11677">
        <ele>106.62</ele>
        <time>2021-06-23T11:21:21Z</time>
      </trkpt>
      <trkpt lat="48.32713" lon="4.11717">
        <ele>109.99</ele>
        <time>2021-06-23T11:21:24Z</time>
      </trkpt>
      <trkpt lat="48.32723" lon="4.11735">
        <ele>110.99</ele>
        <time>2021-06-23T11:21:27Z</time>
      </trkpt>
      <trkpt lat="48.32721" lon="4.11744">
        <ele>110.83</ele>
        <time>2021-06-23T11:21:47Z</time>
      </trkpt>
      <trkpt lat="48.3272" lon="4.11753">
        <ele>110.68</ele>
        <time>2021-06-23T11:22:06Z</time>
      </trkpt>
      <trkpt lat="48.32722" lon="4.11762">
        <ele>110.53</ele>
        <time>2021-06-23T11:22:26Z</time>
      </trkpt>
      <trkpt lat="48.32725" lon="4.1177">
        <ele>110.35</ele>
        <time>2021-06-23T11:22:45Z</time>
      </trkpt>
      <trkpt lat="48.32735" lon="4.1178">
        <ele>110.44</ele>
        <time>2021-06-23T11:23:05Z</time>
      </trkpt>
      <trkpt lat="48.32742" lon="4.11781">
        <ele>110.63</ele>
        <time>2021-06-23T11:23:24Z</time>
      </trkpt>
      <trkpt lat="48.32748" lon="4.11779">
        <ele>110.87</ele>
        <time>2021-06-23T11:23:44Z</time>
      </trkpt>
      <trkpt lat="48.32765" lon="4.11793">
        <ele>109.11</ele>
        <time>2021-06-23T11:24:04Z</time>
      </trkpt>
      <trkpt lat="48.32796" lon="4.11855">
        <ele>108.14</ele>
        <time>2021-06-23T11:24:23Z</time>
      </trkpt>
      <trkpt lat="48.32814" lon="4.11897">
        <ele>109</ele>
        <time>2021-06-23T11:24:43Z</time>
      </trkpt>
      <trkpt lat="48.32831" lon="4.11951">
        <ele>109.21</ele>
        <time>2021-06-23T11:25:02Z</time>
      </trkpt>
      <trkpt lat="48.3287" lon="4.12107">
        <ele>107.69</ele>
        <time>2021-06-23T11:25:22Z</time>
      </trkpt>
      <trkpt lat="48.33057" lon="4.12959">
        <ele>123.97</ele>
        <time>2021-06-23T11:25:41Z</time>
      </trkpt>
      <trkpt lat="48.33131" lon="4.13228">
        <ele>125.77</ele>
        <time>2021-06-23T11:26:01Z</time>
      </trkpt>
      <trkpt lat="48.33179" lon="4.13412">
        <ele>128.52</ele>
        <time>2021-06-23T11:26:21Z</time>
      </trkpt>
      <trkpt lat="48.33179" lon="4.13425">
        <ele>128.44</ele>
        <time>2021-06-23T11:26:40Z</time>
      </trkpt>
      <trkpt lat="48.33201" lon="4.13511">
        <ele>129.78</ele>
        <time>2021-06-23T11:27:00Z</time>
      </trkpt>
      <trkpt lat="48.33207" lon="4.1352">
        <ele>130.29</ele>
        <time>2021-06-23T11:27:19Z</time>
      </trkpt>
      <trkpt lat="48.33231" lon="4.13608">
        <ele>129.1</ele>
        <time>2021-06-23T11:27:39Z</time>
      </trkpt>
      <trkpt lat="48.3327" lon="4.13772">
        <ele>128.74</ele>
        <time>2021-06-23T11:27:58Z</time>
      </trkpt>
      <trkpt lat="48.33754" lon="4.16648">
        <ele>134.19</ele>
        <time>2021-06-23T11:28:18Z</time>
      </trkpt>
      <trkpt lat="48.33989" lon="4.18065">
        <ele>147.27</ele>
        <time>2021-06-23T11:28:38Z</time>
      </trkpt>
      <trkpt lat="48.34063" lon="4.18482">
        <ele>154.26</ele>
        <time>2021-06-23T11:28:57Z</time>
      </trkpt>
      <trkpt lat="48.34284" lon="4.19804">
        <ele>170.93</ele>
        <time>2021-06-23T11:29:17Z</time>
      </trkpt>
      <trkpt lat="48.34458" lon="4.20815">
        <ele>169.85</ele>
        <time>2021-06-23T11:29:36Z</time>
      </trkpt>
      <trkpt lat="48.3447" lon="4.20902">
        <ele>168.71</ele>
        <time>2021-06-23T11:29:56Z</time>
      </trkpt>
      <trkpt lat="48.34491" lon="4.21025">
        <ele>166.03</ele>
        <time>2021-06-23T11:30:15Z</time>
      </trkpt>
      <trkpt lat="48.34498" lon="4.21051">
        <ele>165.93</ele>
        <time>2021-06-23T11:30:35Z</time>
      </trkpt>
      <trkpt lat="48.345" lon="4.21078">
        <ele>165.21</ele>
        <time>2021-06-23T11:30:55Z</time>
      </trkpt>
      <trkpt lat="48.3451" lon="4.21141">
        <ele>164.29</ele>
        <time>2021-06-23T11:31:14Z</time>
      </trkpt>
      <trkpt lat="48.34523" lon="4.21213">
        <ele>162.17</ele>
        <time>2021-06-23T11:31:34Z</time>
      </trkpt>
      <trkpt lat="48.34533" lon="4.2125">
        <ele>160.84</ele>
        <time>2021-06-23T11:31:53Z</time>
      </trkpt>
      <trkpt lat="48.34687" lon="4.22161">
        <ele>178.75</ele>
        <time>2021-06-23T11:32:13Z</time>
      </trkpt>
      <trkpt lat="48.35105" lon="4.24648">
        <ele>140.78</ele>
        <time>2021-06-23T11:32:32Z</time>
      </trkpt>
      <trkpt lat="48.35178" lon="4.25074">
        <ele>137.13</ele>
        <time>2021-06-23T11:32:52Z</time>
      </trkpt>
      <trkpt lat="48.35269" lon="4.25624">
        <ele>134.3</ele>
        <time>2021-06-23T11:33:12Z</time>
      </trkpt>
      <trkpt lat="48.35544" lon="4.27238">
        <ele>136.57</ele>
        <time>2021-06-23T11:33:31Z</time>
      </trkpt>
      <trkpt lat="48.36162" lon="4.3095">
        <ele>117.65</ele>
        <time>2021-06-23T11:33:51Z</time>
      </trkpt>
      <trkpt lat="48.36338" lon="4.32021">
        <ele>118.57</ele>
        <time>2021-06-23T11:34:10Z</time>
      </trkpt>
      <trkpt lat="48.36367" lon="4.32183">
        <ele>118.64</ele>
        <time>2021-06-23T11:34:30Z</time>
      </trkpt>
      <trkpt lat="48.3638" lon="4.3228">
        <ele>118.06</ele>
        <time>2021-06-23T11:34:49Z</time>
      </trkpt>
      <trkpt lat="48.36389" lon="4.32319">
        <ele>119</ele>
        <time>2021-06-23T11:35:09Z</time>
      </trkpt>
      <trkpt lat="48.36391" lon="4.32338">
        <ele>118.77</ele>
        <time>2021-06-23T11:35:29Z</time>
      </trkpt>
      <trkpt lat="48.36392" lon="4.32387">
        <ele>117.93</ele>
        <time>2021-06-23T11:35:48Z</time>
      </trkpt>
      <trkpt lat="48.36392" lon="4.32387">
        <ele>117.93</ele>
        <time>2021-06-23T11:35:48Z</time>
      </trkpt>
      <trkpt lat="48.36391" lon="4.32413">
        <ele>117.99</ele>
        <time>2021-06-23T11:35:56Z</time>
      </trkpt>
      <trkpt lat="48.36381" lon="4.32506">
        <ele>117.56</ele>
        <time>2021-06-23T11:36:05Z</time>
      </trkpt>
      <trkpt lat="48.36302" lon="4.33104">
        <ele>118.76</ele>
        <time>2021-06-23T11:36:13Z</time>
      </trkpt>
      <trkpt lat="48.36302" lon="4.3321">
        <ele>117.4</ele>
        <time>2021-06-23T11:36:21Z</time>
      </trkpt>
      <trkpt lat="48.36305" lon="4.33224">
        <ele>117.05</ele>
        <time>2021-06-23T11:36:30Z</time>
      </trkpt>
      <trkpt lat="48.36313" lon="4.3324">
        <ele>117.97</ele>
        <time>2021-06-23T11:36:38Z</time>
      </trkpt>
      <trkpt lat="48.36362" lon="4.33314">
        <ele>119.03</ele>
        <time>2021-06-23T11:36:46Z</time>
      </trkpt>
      <trkpt lat="48.36392" lon="4.33372">
        <ele>120.45</ele>
        <time>2021-06-23T11:36:54Z</time>
      </trkpt>
      <trkpt lat="48.36397" lon="4.33399">
        <ele>121.11</ele>
        <time>2021-06-23T11:37:03Z</time>
      </trkpt>
      <trkpt lat="48.36421" lon="4.33732">
        <ele>122.85</ele>
        <time>2021-06-23T11:37:11Z</time>
      </trkpt>
      <trkpt lat="48.36426" lon="4.33761">
        <ele>122.66</ele>
        <time>2021-06-23T11:37:19Z</time>
      </trkpt>
      <trkpt lat="48.36432" lon="4.33782">
        <ele>122.54</ele>
        <time>2021-06-23T11:37:28Z</time>
      </trkpt>
      <trkpt lat="48.36427" lon="4.33789">
        <ele>122.78</ele>
        <time>2021-06-23T11:37:34Z</time>
      </trkpt>
      <trkpt lat="48.36425" lon="4.33807">
        <ele>123.01</ele>
        <time>2021-06-23T11:37:40Z</time>
      </trkpt>
      <trkpt lat="48.36426" lon="4.33897">
        <ele>125</ele>
        <time>2021-06-23T11:37:47Z</time>
      </trkpt>
      <trkpt lat="48.36421" lon="4.33952">
        <ele>125</ele>
        <time>2021-06-23T11:37:53Z</time>
      </trkpt>
      <trkpt lat="48.36399" lon="4.34074">
        <ele>123.58</ele>
        <time>2021-06-23T11:37:59Z</time>
      </trkpt>
      <trkpt lat="48.36394" lon="4.34126">
        <ele>123.37</ele>
        <time>2021-06-23T11:38:05Z</time>
      </trkpt>
      <trkpt lat="48.36395" lon="4.3415">
        <ele>123.36</ele>
        <time>2021-06-23T11:38:12Z</time>
      </trkpt>
      <trkpt lat="48.36409" lon="4.34281">
        <ele>124.97</ele>
        <time>2021-06-23T11:38:18Z</time>
      </trkpt>
      <trkpt lat="48.36407" lon="4.34325">
        <ele>124.65</ele>
        <time>2021-06-23T11:38:24Z</time>
      </trkpt>
      <trkpt lat="48.36398" lon="4.34365">
        <ele>124.57</ele>
        <time>2021-06-23T11:38:31Z</time>
      </trkpt>
      <trkpt lat="48.36386" lon="4.34394">
        <ele>126.17</ele>
        <time>2021-06-23T11:38:37Z</time>
      </trkpt>
      <trkpt lat="48.36354" lon="4.3446">
        <ele>126.31</ele>
        <time>2021-06-23T11:38:43Z</time>
      </trkpt>
      <trkpt lat="48.36338" lon="4.34498">
        <ele>126</ele>
        <time>2021-06-23T11:38:50Z</time>
      </trkpt>
      <trkpt lat="48.36331" lon="4.34523">
        <ele>125.83</ele>
        <time>2021-06-23T11:38:56Z</time>
      </trkpt>
      <trkpt lat="48.36326" lon="4.34554">
        <ele>124.75</ele>
        <time>2021-06-23T11:39:02Z</time>
      </trkpt>
      <trkpt lat="48.36325" lon="4.34593">
        <ele>123.33</ele>
        <time>2021-06-23T11:39:09Z</time>
      </trkpt>
      <trkpt lat="48.3633" lon="4.34641">
        <ele>122.87</ele>
        <time>2021-06-23T11:39:15Z</time>
      </trkpt>
      <trkpt lat="48.36356" lon="4.34846">
        <ele>124.18</ele>
        <time>2021-06-23T11:39:21Z</time>
      </trkpt>
      <trkpt lat="48.36359" lon="4.34915">
        <ele>125.93</ele>
        <time>2021-06-23T11:39:28Z</time>
      </trkpt>
      <trkpt lat="48.36357" lon="4.34945">
        <ele>126.16</ele>
        <time>2021-06-23T11:39:34Z</time>
      </trkpt>
      <trkpt lat="48.36352" lon="4.34977">
        <ele>127</ele>
        <time>2021-06-23T11:39:40Z</time>
      </trkpt>
      <trkpt lat="48.36329" lon="4.35079">
        <ele>127.83</ele>
        <time>2021-06-23T11:39:46Z</time>
      </trkpt>
      <trkpt lat="48.3632" lon="4.35132">
        <ele>128.87</ele>
        <time>2021-06-23T11:39:53Z</time>
      </trkpt>
      <trkpt lat="48.36313" lon="4.35198">
        <ele>129</ele>
        <time>2021-06-23T11:39:59Z</time>
      </trkpt>
      <trkpt lat="48.36308" lon="4.35219">
        <ele>129</ele>
        <time>2021-06-23T11:40:05Z</time>
      </trkpt>
      <trkpt lat="48.36295" lon="4.35245">
        <ele>128.57</ele>
        <time>2021-06-23T11:40:12Z</time>
      </trkpt>
      <trkpt lat="48.36282" lon="4.3526">
        <ele>128.13</ele>
        <time>2021-06-23T11:40:18Z</time>
      </trkpt>
      <trkpt lat="48.36223" lon="4.35312">
        <ele>125.03</ele>
        <time>2021-06-23T11:40:24Z</time>
      </trkpt>
      <trkpt lat="48.36204" lon="4.35331">
        <ele>124.35</ele>
        <time>2021-06-23T11:40:31Z</time>
      </trkpt>
      <trkpt lat="48.36196" lon="4.35345">
        <ele>124.06</ele>
        <time>2021-06-23T11:40:37Z</time>
      </trkpt>
      <trkpt lat="48.36191" lon="4.35362">
        <ele>123.75</ele>
        <time>2021-06-23T11:40:43Z</time>
      </trkpt>
      <trkpt lat="48.36187" lon="4.3543">
        <ele>122.26</ele>
        <time>2021-06-23T11:40:50Z</time>
      </trkpt>
      <trkpt lat="48.36179" lon="4.35505">
        <ele>123</ele>
        <time>2021-06-23T11:40:56Z</time>
      </trkpt>
      <trkpt lat="48.36178" lon="4.35528">
        <ele>123</ele>
        <time>2021-06-23T11:41:02Z</time>
      </trkpt>
      <trkpt lat="48.36181" lon="4.35569">
        <ele>122.51</ele>
        <time>2021-06-23T11:41:08Z</time>
      </trkpt>
      <trkpt lat="48.36188" lon="4.35599">
        <ele>122</ele>
        <time>2021-06-23T11:41:15Z</time>
      </trkpt>
      <trkpt lat="48.36206" lon="4.35654">
        <ele>122.32</ele>
        <time>2021-06-23T11:41:21Z</time>
      </trkpt>
      <trkpt lat="48.36247" lon="4.35762">
        <ele>124.09</ele>
        <time>2021-06-23T11:41:27Z</time>
      </trkpt>
      <trkpt lat="48.36262" lon="4.35813">
        <ele>123.17</ele>
        <time>2021-06-23T11:41:34Z</time>
      </trkpt>
      <trkpt lat="48.36315" lon="4.36067">
        <ele>115.08</ele>
        <time>2021-06-23T11:41:40Z</time>
      </trkpt>
      <trkpt lat="48.36393" lon="4.36425">
        <ele>110.3</ele>
        <time>2021-06-23T11:41:46Z</time>
      </trkpt>
      <trkpt lat="48.36395" lon="4.3645">
        <ele>110.63</ele>
        <time>2021-06-23T11:41:53Z</time>
      </trkpt>
      <trkpt lat="48.36396" lon="4.36475">
        <ele>110.36</ele>
        <time>2021-06-23T11:41:59Z</time>
      </trkpt>
      <trkpt lat="48.36212" lon="4.37273">
        <ele>111</ele>
        <time>2021-06-23T11:42:05Z</time>
      </trkpt>
      <trkpt lat="48.36155" lon="4.37479">
        <ele>112</ele>
        <time>2021-06-23T11:42:12Z</time>
      </trkpt>
      <trkpt lat="48.36047" lon="4.37932">
        <ele>112.63</ele>
        <time>2021-06-23T11:42:18Z</time>
      </trkpt>
      <trkpt lat="48.36039" lon="4.37951">
        <ele>112.59</ele>
        <time>2021-06-23T11:42:24Z</time>
      </trkpt>
      <trkpt lat="48.36022" lon="4.37974">
        <ele>112.96</ele>
        <time>2021-06-23T11:42:31Z</time>
      </trkpt>
      <trkpt lat="48.36018" lon="4.37981">
        <ele>112.67</ele>
        <time>2021-06-23T11:42:37Z</time>
      </trkpt>
      <trkpt lat="48.36014" lon="4.37995">
        <ele>112.17</ele>
        <time>2021-06-23T11:42:43Z</time>
      </trkpt>
      <trkpt lat="48.36008" lon="4.38075">
        <ele>110.71</ele>
        <time>2021-06-23T11:42:49Z</time>
      </trkpt>
      <trkpt lat="48.36002" lon="4.38119">
        <ele>110.91</ele>
        <time>2021-06-23T11:42:56Z</time>
      </trkpt>
      <trkpt lat="48.359" lon="4.38553">
        <ele>112.65</ele>
        <time>2021-06-23T11:43:02Z</time>
      </trkpt>
      <trkpt lat="48.35882" lon="4.38614">
        <ele>112</ele>
        <time>2021-06-23T11:43:08Z</time>
      </trkpt>
      <trkpt lat="48.35801" lon="4.38814">
        <ele>111.26</ele>
        <time>2021-06-23T11:43:15Z</time>
      </trkpt>
      <trkpt lat="48.35798" lon="4.38841">
        <ele>111.8</ele>
        <time>2021-06-23T11:43:21Z</time>
      </trkpt>
      <trkpt lat="48.35814" lon="4.39015">
        <ele>113.67</ele>
        <time>2021-06-23T11:43:27Z</time>
      </trkpt>
      <trkpt lat="48.35802" lon="4.39221">
        <ele>114.05</ele>
        <time>2021-06-23T11:43:34Z</time>
      </trkpt>
      <trkpt lat="48.35738" lon="4.39372">
        <ele>113.73</ele>
        <time>2021-06-23T11:43:40Z</time>
      </trkpt>
      <trkpt lat="48.35737" lon="4.39424">
        <ele>114</ele>
        <time>2021-06-23T11:43:46Z</time>
      </trkpt>
      <trkpt lat="48.35755" lon="4.39569">
        <ele>112</ele>
        <time>2021-06-23T11:43:53Z</time>
      </trkpt>
      <trkpt lat="48.35774" lon="4.39647">
        <ele>111.24</ele>
        <time>2021-06-23T11:43:59Z</time>
      </trkpt>
      <trkpt lat="48.35801" lon="4.39719">
        <ele>112</ele>
        <time>2021-06-23T11:44:05Z</time>
      </trkpt>
      <trkpt lat="48.3579" lon="4.39887">
        <ele>112</ele>
        <time>2021-06-23T11:44:12Z</time>
      </trkpt>
      <trkpt lat="48.35671" lon="4.40654">
        <ele>111</ele>
        <time>2021-06-23T11:44:18Z</time>
      </trkpt>
      <trkpt lat="48.35604" lon="4.41103">
        <ele>112.19</ele>
        <time>2021-06-23T11:44:24Z</time>
      </trkpt>
      <trkpt lat="48.35464" lon="4.41974">
        <ele>114.94</ele>
        <time>2021-06-23T11:44:30Z</time>
      </trkpt>
      <trkpt lat="48.35118" lon="4.44183">
        <ele>121.25</ele>
        <time>2021-06-23T11:44:37Z</time>
      </trkpt>
      <trkpt lat="48.34997" lon="4.44948">
        <ele>132.89</ele>
        <time>2021-06-23T11:44:43Z</time>
      </trkpt>
      <trkpt lat="48.34986" lon="4.45031">
        <ele>132.9</ele>
        <time>2021-06-23T11:44:49Z</time>
      </trkpt>
      <trkpt lat="48.34984" lon="4.45092">
        <ele>129.84</ele>
        <time>2021-06-23T11:44:56Z</time>
      </trkpt>
      <trkpt lat="48.34987" lon="4.45161">
        <ele>125.97</ele>
        <time>2021-06-23T11:45:02Z</time>
      </trkpt>
      <trkpt lat="48.35001" lon="4.45315">
        <ele>123.64</ele>
        <time>2021-06-23T11:45:08Z</time>
      </trkpt>
      <trkpt lat="48.35017" lon="4.45484">
        <ele>118.22</ele>
        <time>2021-06-23T11:45:15Z</time>
      </trkpt>
      <trkpt lat="48.35096" lon="4.46223">
        <ele>138.9</ele>
        <time>2021-06-23T11:45:21Z</time>
      </trkpt>
      <trkpt lat="48.35099" lon="4.46273">
        <ele>138.19</ele>
        <time>2021-06-23T11:45:27Z</time>
      </trkpt>
      <trkpt lat="48.35085" lon="4.46396">
        <ele>138.05</ele>
        <time>2021-06-23T11:45:34Z</time>
      </trkpt>
      <trkpt lat="48.35087" lon="4.46427">
        <ele>138.49</ele>
        <time>2021-06-23T11:45:40Z</time>
      </trkpt>
      <trkpt lat="48.35093" lon="4.46455">
        <ele>139.59</ele>
        <time>2021-06-23T11:45:46Z</time>
      </trkpt>
      <trkpt lat="48.35676" lon="4.48792">
        <ele>127</ele>
        <time>2021-06-23T11:45:53Z</time>
      </trkpt>
      <trkpt lat="48.35681" lon="4.4882">
        <ele>127</ele>
        <time>2021-06-23T11:45:59Z</time>
      </trkpt>
      <trkpt lat="48.35685" lon="4.48855">
        <ele>127</ele>
        <time>2021-06-23T11:46:05Z</time>
      </trkpt>
      <trkpt lat="48.35684" lon="4.48898">
        <ele>128.34</ele>
        <time>2021-06-23T11:46:11Z</time>
      </trkpt>
      <trkpt lat="48.3568" lon="4.48931">
        <ele>129.28</ele>
        <time>2021-06-23T11:46:18Z</time>
      </trkpt>
      <trkpt lat="48.35546" lon="4.49475">
        <ele>132.03</ele>
        <time>2021-06-23T11:46:24Z</time>
      </trkpt>
      <trkpt lat="48.35522" lon="4.49584">
        <ele>133.2</ele>
        <time>2021-06-23T11:46:30Z</time>
      </trkpt>
      <trkpt lat="48.3552" lon="4.49603">
        <ele>133.07</ele>
        <time>2021-06-23T11:46:37Z</time>
      </trkpt>
      <trkpt lat="48.35503" lon="4.49595">
        <ele>133.52</ele>
        <time>2021-06-23T11:46:41Z</time>
      </trkpt>
      <trkpt lat="48.35399" lon="4.49482">
        <ele>134</ele>
        <time>2021-06-23T11:46:45Z</time>
      </trkpt>
      <trkpt lat="48.35338" lon="4.49432">
        <ele>134</ele>
        <time>2021-06-23T11:46:49Z</time>
      </trkpt>
      <trkpt lat="48.35315" lon="4.4941">
        <ele>134.64</ele>
        <time>2021-06-23T11:46:53Z</time>
      </trkpt>
      <trkpt lat="48.35284" lon="4.49365">
        <ele>135</ele>
        <time>2021-06-23T11:46:58Z</time>
      </trkpt>
      <trkpt lat="48.35239" lon="4.49279">
        <ele>133.46</ele>
        <time>2021-06-23T11:47:02Z</time>
      </trkpt>
      <trkpt lat="48.3523" lon="4.49271">
        <ele>133.49</ele>
        <time>2021-06-23T11:47:06Z</time>
      </trkpt>
      <trkpt lat="48.35218" lon="4.49265">
        <ele>133.64</ele>
        <time>2021-06-23T11:47:10Z</time>
      </trkpt>
      <trkpt lat="48.3512" lon="4.49248">
        <ele>132.23</ele>
        <time>2021-06-23T11:47:14Z</time>
      </trkpt>
      <trkpt lat="48.35108" lon="4.49243">
        <ele>132.06</ele>
        <time>2021-06-23T11:47:18Z</time>
      </trkpt>
      <trkpt lat="48.35108" lon="4.49243">
        <ele>132.06</ele>
        <time>2021-06-23T11:47:18Z</time>
      </trkpt>
      <trkpt lat="48.3512" lon="4.49248">
        <ele>132.23</ele>
        <time>2021-06-23T11:47:23Z</time>
      </trkpt>
      <trkpt lat="48.35218" lon="4.49265">
        <ele>133.64</ele>
        <time>2021-06-23T11:47:27Z</time>
      </trkpt>
      <trkpt lat="48.3523" lon="4.49271">
        <ele>133.49</ele>
        <time>2021-06-23T11:47:31Z</time>
      </trkpt>
      <trkpt lat="48.35239" lon="4.49279">
        <ele>133.46</ele>
        <time>2021-06-23T11:47:35Z</time>
      </trkpt>
      <trkpt lat="48.35284" lon="4.49365">
        <ele>135</ele>
        <time>2021-06-23T11:47:39Z</time>
      </trkpt>
      <trkpt lat="48.35315" lon="4.4941">
        <ele>134.64</ele>
        <time>2021-06-23T11:47:43Z</time>
      </trkpt>
      <trkpt lat="48.35338" lon="4.49432">
        <ele>134</ele>
        <time>2021-06-23T11:47:47Z</time>
      </trkpt>
      <trkpt lat="48.35399" lon="4.49482">
        <ele>134</ele>
        <time>2021-06-23T11:47:52Z</time>
      </trkpt>
      <trkpt lat="48.35503" lon="4.49595">
        <ele>133.52</ele>
        <time>2021-06-23T11:47:56Z</time>
      </trkpt>
      <trkpt lat="48.3552" lon="4.49603">
        <ele>133.07</ele>
        <time>2021-06-23T11:48:00Z</time>
      </trkpt>
      <trkpt lat="48.35524" lon="4.49623">
        <ele>133</ele>
        <time>2021-06-23T11:48:09Z</time>
      </trkpt>
      <trkpt lat="48.35607" lon="4.49843">
        <ele>130.72</ele>
        <time>2021-06-23T11:48:19Z</time>
      </trkpt>
      <trkpt lat="48.35616" lon="4.49874">
        <ele>129.27</ele>
        <time>2021-06-23T11:48:28Z</time>
      </trkpt>
      <trkpt lat="48.35641" lon="4.50018">
        <ele>126.28</ele>
        <time>2021-06-23T11:48:38Z</time>
      </trkpt>
      <trkpt lat="48.35656" lon="4.50062">
        <ele>124.85</ele>
        <time>2021-06-23T11:48:47Z</time>
      </trkpt>
      <trkpt lat="48.35777" lon="4.50264">
        <ele>123</ele>
        <time>2021-06-23T11:48:56Z</time>
      </trkpt>
      <trkpt lat="48.35854" lon="4.50379">
        <ele>122.88</ele>
        <time>2021-06-23T11:49:06Z</time>
      </trkpt>
      <trkpt lat="48.35872" lon="4.50432">
        <ele>124.94</ele>
        <time>2021-06-23T11:49:15Z</time>
      </trkpt>
      <trkpt lat="48.35923" lon="4.50663">
        <ele>131.35</ele>
        <time>2021-06-23T11:49:25Z</time>
      </trkpt>
      <trkpt lat="48.35966" lon="4.50785">
        <ele>133</ele>
        <time>2021-06-23T11:49:34Z</time>
      </trkpt>
      <trkpt lat="48.35969" lon="4.50811">
        <ele>132.98</ele>
        <time>2021-06-23T11:49:40Z</time>
      </trkpt>
      <trkpt lat="48.35981" lon="4.5084">
        <ele>132.84</ele>
        <time>2021-06-23T11:49:45Z</time>
      </trkpt>
      <trkpt lat="48.36005" lon="4.5092">
        <ele>133.18</ele>
        <time>2021-06-23T11:49:51Z</time>
      </trkpt>
      <trkpt lat="48.36016" lon="4.50934">
        <ele>133.56</ele>
        <time>2021-06-23T11:49:56Z</time>
      </trkpt>
      <trkpt lat="48.3611" lon="4.50995">
        <ele>134.17</ele>
        <time>2021-06-23T11:50:02Z</time>
      </trkpt>
      <trkpt lat="48.36188" lon="4.51056">
        <ele>133</ele>
        <time>2021-06-23T11:50:07Z</time>
      </trkpt>
      <trkpt lat="48.36617" lon="4.51404">
        <ele>141.53</ele>
        <time>2021-06-23T11:50:13Z</time>
      </trkpt>
      <trkpt lat="48.36838" lon="4.51541">
        <ele>151.28</ele>
        <time>2021-06-23T11:50:19Z</time>
      </trkpt>
      <trkpt lat="48.36887" lon="4.51588">
        <ele>153.09</ele>
        <time>2021-06-23T11:50:24Z</time>
      </trkpt>
      <trkpt lat="48.36976" lon="4.51689">
        <ele>151.69</ele>
        <time>2021-06-23T11:50:30Z</time>
      </trkpt>
      <trkpt lat="48.37008" lon="4.51714">
        <ele>150.15</ele>
        <time>2021-06-23T11:50:35Z</time>
      </trkpt>
      <trkpt lat="48.37063" lon="4.51749">
        <ele>144.95</ele>
        <time>2021-06-23T11:50:41Z</time>
      </trkpt>
      <trkpt lat="48.37084" lon="4.51771">
        <ele>141.22</ele>
        <time>2021-06-23T11:50:47Z</time>
      </trkpt>
      <trkpt lat="48.37169" lon="4.51913">
        <ele>138.87</ele>
        <time>2021-06-23T11:50:52Z</time>
      </trkpt>
      <trkpt lat="48.37231" lon="4.52027">
        <ele>130.74</ele>
        <time>2021-06-23T11:50:58Z</time>
      </trkpt>
      <trkpt lat="48.37313" lon="4.52185">
        <ele>124.01</ele>
        <time>2021-06-23T11:51:03Z</time>
      </trkpt>
      <trkpt lat="48.37407" lon="4.5236">
        <ele>124.01</ele>
        <time>2021-06-23T11:51:09Z</time>
      </trkpt>
      <trkpt lat="48.37426" lon="4.52407">
        <ele>122.24</ele>
        <time>2021-06-23T11:51:14Z</time>
      </trkpt>
      <trkpt lat="48.37443" lon="4.52469">
        <ele>122</ele>
        <time>2021-06-23T11:51:20Z</time>
      </trkpt>
      <trkpt lat="48.37466" lon="4.52568">
        <ele>124.46</ele>
        <time>2021-06-23T11:51:26Z</time>
      </trkpt>
      <trkpt lat="48.37482" lon="4.52648">
        <ele>126</ele>
        <time>2021-06-23T11:51:31Z</time>
      </trkpt>
      <trkpt lat="48.37521" lon="4.52802">
        <ele>126.25</ele>
        <time>2021-06-23T11:51:37Z</time>
      </trkpt>
      <trkpt lat="48.37528" lon="4.52836">
        <ele>126.1</ele>
        <time>2021-06-23T11:51:42Z</time>
      </trkpt>
      <trkpt lat="48.37533" lon="4.52869">
        <ele>127</ele>
        <time>2021-06-23T11:51:48Z</time>
      </trkpt>
      <trkpt lat="48.37544" lon="4.52965">
        <ele>126.3</ele>
        <time>2021-06-23T11:51:53Z</time>
      </trkpt>
      <trkpt lat="48.37684" lon="4.5295">
        <ele>126.49</ele>
        <time>2021-06-23T11:52:05Z</time>
      </trkpt>
      <trkpt lat="48.37742" lon="4.52948">
        <ele>127.87</ele>
        <time>2021-06-23T11:52:17Z</time>
      </trkpt>
      <trkpt lat="48.37889" lon="4.52949">
        <ele>127.02</ele>
        <time>2021-06-23T11:52:29Z</time>
      </trkpt>
      <trkpt lat="48.3789" lon="4.53028">
        <ele>126.02</ele>
        <time>2021-06-23T11:52:34Z</time>
      </trkpt>
      <trkpt lat="48.3789" lon="4.53028">
        <ele>126.02</ele>
        <time>2021-06-23T11:52:34Z</time>
      </trkpt>
      <trkpt lat="48.3789" lon="4.53108">
        <ele>125.86</ele>
        <time>2021-06-23T11:52:42Z</time>
      </trkpt>
      <trkpt lat="48.37898" lon="4.53308">
        <ele>124.71</ele>
        <time>2021-06-23T11:52:50Z</time>
      </trkpt>
      <trkpt lat="48.37901" lon="4.53465">
        <ele>123.67</ele>
        <time>2021-06-23T11:52:58Z</time>
      </trkpt>
      <trkpt lat="48.37868" lon="4.53477">
        <ele>124</ele>
        <time>2021-06-23T11:53:00Z</time>
      </trkpt>
      <trkpt lat="48.37862" lon="4.53555">
        <ele>125</ele>
        <time>2021-06-23T11:53:23Z</time>
      </trkpt>
      <trkpt lat="48.37965" lon="4.5515">
        <ele>124.86</ele>
        <time>2021-06-23T11:53:45Z</time>
      </trkpt>
      <trkpt lat="48.37972" lon="4.55177">
        <ele>123.67</ele>
        <time>2021-06-23T11:54:08Z</time>
      </trkpt>
      <trkpt lat="48.37983" lon="4.55207">
        <ele>122.55</ele>
        <time>2021-06-23T11:54:31Z</time>
      </trkpt>
      <trkpt lat="48.37985" lon="4.55227">
        <ele>122</ele>
        <time>2021-06-23T11:54:54Z</time>
      </trkpt>
      <trkpt lat="48.37976" lon="4.55282">
        <ele>123.14</ele>
        <time>2021-06-23T11:55:16Z</time>
      </trkpt>
      <trkpt lat="48.37974" lon="4.5531">
        <ele>124</ele>
        <time>2021-06-23T11:55:39Z</time>
      </trkpt>
      <trkpt lat="48.38057" lon="4.56626">
        <ele>125.55</ele>
        <time>2021-06-23T11:56:02Z</time>
      </trkpt>
      <trkpt lat="48.38091" lon="4.57128">
        <ele>125.28</ele>
        <time>2021-06-23T11:56:25Z</time>
      </trkpt>
      <trkpt lat="48.38182" lon="4.58621">
        <ele>133.91</ele>
        <time>2021-06-23T11:56:48Z</time>
      </trkpt>
      <trkpt lat="48.38193" lon="4.58767">
        <ele>134.38</ele>
        <time>2021-06-23T11:57:10Z</time>
      </trkpt>
      <trkpt lat="48.38194" lon="4.58808">
        <ele>132.74</ele>
        <time>2021-06-23T11:57:33Z</time>
      </trkpt>
      <trkpt lat="48.38194" lon="4.58808">
        <ele>132.74</ele>
        <time>2021-06-23T11:57:33Z</time>
      </trkpt>
      <trkpt lat="48.38194" lon="4.58859">
        <ele>129.07</ele>
        <time>2021-06-23T11:58:00Z</time>
      </trkpt>
      <trkpt lat="48.38171" lon="4.59251">
        <ele>128.99</ele>
        <time>2021-06-23T11:58:28Z</time>
      </trkpt>
      <trkpt lat="48.38024" lon="4.6172">
        <ele>144.78</ele>
        <time>2021-06-23T11:58:55Z</time>
      </trkpt>
      <trkpt lat="48.38023" lon="4.61751">
        <ele>144.83</ele>
        <time>2021-06-23T11:59:23Z</time>
      </trkpt>
      <trkpt lat="48.38025" lon="4.61774">
        <ele>144.9</ele>
        <time>2021-06-23T11:59:50Z</time>
      </trkpt>
      <trkpt lat="48.38046" lon="4.61923">
        <ele>147.68</ele>
        <time>2021-06-23T12:00:17Z</time>
      </trkpt>
      <trkpt lat="48.38047" lon="4.62042">
        <ele>147.66</ele>
        <time>2021-06-23T12:00:45Z</time>
      </trkpt>
      <trkpt lat="48.38055" lon="4.6228">
        <ele>145.01</ele>
        <time>2021-06-23T12:01:12Z</time>
      </trkpt>
      <trkpt lat="48.3799" lon="4.63552">
        <ele>129.76</ele>
        <time>2021-06-23T12:01:39Z</time>
      </trkpt>
      <trkpt lat="48.3799" lon="4.63552">
        <ele>129.76</ele>
        <time>2021-06-23T12:01:39Z</time>
      </trkpt>
      <trkpt lat="48.37986" lon="4.63578">
        <ele>130</ele>
        <time>2021-06-23T12:01:43Z</time>
      </trkpt>
      <trkpt lat="48.37981" lon="4.63593">
        <ele>130.24</ele>
        <time>2021-06-23T12:01:47Z</time>
      </trkpt>
      <trkpt lat="48.37973" lon="4.63603">
        <ele>130.68</ele>
        <time>2021-06-23T12:01:51Z</time>
      </trkpt>
      <trkpt lat="48.37783" lon="4.63766">
        <ele>130.74</ele>
        <time>2021-06-23T12:01:55Z</time>
      </trkpt>
      <trkpt lat="48.3776" lon="4.63781">
        <ele>131.16</ele>
        <time>2021-06-23T12:01:58Z</time>
      </trkpt>
      <trkpt lat="48.37732" lon="4.63792">
        <ele>131.18</ele>
        <time>2021-06-23T12:02:02Z</time>
      </trkpt>
      <trkpt lat="48.37715" lon="4.63796">
        <ele>130.73</ele>
        <time>2021-06-23T12:02:06Z</time>
      </trkpt>
      <trkpt lat="48.377" lon="4.63796">
        <ele>130.2</ele>
        <time>2021-06-23T12:02:10Z</time>
      </trkpt>
      <trkpt lat="48.37649" lon="4.63789">
        <ele>132.7</ele>
        <time>2021-06-23T12:02:13Z</time>
      </trkpt>
      <trkpt lat="48.37641" lon="4.6379">
        <ele>133.32</ele>
        <time>2021-06-23T12:02:17Z</time>
      </trkpt>
      <trkpt lat="48.37635" lon="4.63794">
        <ele>133.44</ele>
        <time>2021-06-23T12:02:21Z</time>
      </trkpt>
      <trkpt lat="48.37629" lon="4.63803">
        <ele>133.55</ele>
        <time>2021-06-23T12:02:25Z</time>
      </trkpt>
      <trkpt lat="48.37625" lon="4.63822">
        <ele>133.21</ele>
        <time>2021-06-23T12:02:29Z</time>
      </trkpt>
      <trkpt lat="48.37617" lon="4.64009">
        <ele>138.13</ele>
        <time>2021-06-23T12:02:32Z</time>
      </trkpt>
      <trkpt lat="48.37613" lon="4.64036">
        <ele>139.21</ele>
        <time>2021-06-23T12:02:36Z</time>
      </trkpt>
      <trkpt lat="48.37605" lon="4.64063">
        <ele>140.27</ele>
        <time>2021-06-23T12:02:40Z</time>
      </trkpt>
      <trkpt lat="48.37595" lon="4.64086">
        <ele>141.13</ele>
        <time>2021-06-23T12:02:44Z</time>
      </trkpt>
      <trkpt lat="48.37585" lon="4.641">
        <ele>142.15</ele>
        <time>2021-06-23T12:02:48Z</time>
      </trkpt>
      <trkpt lat="48.37417" lon="4.64269">
        <ele>156.59</ele>
        <time>2021-06-23T12:02:51Z</time>
      </trkpt>
      <trkpt lat="48.37397" lon="4.64292">
        <ele>156.02</ele>
        <time>2021-06-23T12:02:55Z</time>
      </trkpt>
      <trkpt lat="48.37378" lon="4.64324">
        <ele>156</ele>
        <time>2021-06-23T12:02:59Z</time>
      </trkpt>
      <trkpt lat="48.37337" lon="4.64402">
        <ele>153.52</ele>
        <time>2021-06-23T12:03:03Z</time>
      </trkpt>
      <trkpt lat="48.37319" lon="4.64432">
        <ele>151.21</ele>
        <time>2021-06-23T12:03:06Z</time>
      </trkpt>
      <trkpt lat="48.37295" lon="4.64461">
        <ele>149.33</ele>
        <time>2021-06-23T12:03:10Z</time>
      </trkpt>
      <trkpt lat="48.37185" lon="4.64582">
        <ele>147.31</ele>
        <time>2021-06-23T12:03:14Z</time>
      </trkpt>
      <trkpt lat="48.37163" lon="4.6461">
        <ele>149.07</ele>
        <time>2021-06-23T12:03:18Z</time>
      </trkpt>
      <trkpt lat="48.37138" lon="4.64651">
        <ele>154.28</ele>
        <time>2021-06-23T12:03:22Z</time>
      </trkpt>
      <trkpt lat="48.37096" lon="4.64724">
        <ele>157.55</ele>
        <time>2021-06-23T12:03:25Z</time>
      </trkpt>
      <trkpt lat="48.3708" lon="4.64748">
        <ele>158.99</ele>
        <time>2021-06-23T12:03:29Z</time>
      </trkpt>
      <trkpt lat="48.37071" lon="4.64759">
        <ele>160.29</ele>
        <time>2021-06-23T12:03:33Z</time>
      </trkpt>
      <trkpt lat="48.37051" lon="4.64778">
        <ele>162.02</ele>
        <time>2021-06-23T12:03:37Z</time>
      </trkpt>
      <trkpt lat="48.37008" lon="4.64811">
        <ele>161.51</ele>
        <time>2021-06-23T12:03:41Z</time>
      </trkpt>
      <trkpt lat="48.36976" lon="4.64839">
        <ele>160.65</ele>
        <time>2021-06-23T12:03:44Z</time>
      </trkpt>
      <trkpt lat="48.36862" lon="4.64973">
        <ele>165.04</ele>
        <time>2021-06-23T12:03:48Z</time>
      </trkpt>
      <trkpt lat="48.36805" lon="4.65029">
        <ele>164.95</ele>
        <time>2021-06-23T12:03:52Z</time>
      </trkpt>
      <trkpt lat="48.36714" lon="4.65122">
        <ele>164.12</ele>
        <time>2021-06-23T12:03:56Z</time>
      </trkpt>
      <trkpt lat="48.36674" lon="4.65158">
        <ele>164.17</ele>
        <time>2021-06-23T12:04:00Z</time>
      </trkpt>
      <trkpt lat="48.36593" lon="4.65218">
        <ele>163.36</ele>
        <time>2021-06-23T12:04:03Z</time>
      </trkpt>
      <trkpt lat="48.36407" lon="4.66671">
        <ele>156.59</ele>
        <time>2021-06-23T12:04:29Z</time>
      </trkpt>
      <trkpt lat="48.36401" lon="4.66747">
        <ele>156.29</ele>
        <time>2021-06-23T12:04:55Z</time>
      </trkpt>
      <trkpt lat="48.36388" lon="4.6696">
        <ele>159.53</ele>
        <time>2021-06-23T12:05:21Z</time>
      </trkpt>
      <trkpt lat="48.36388" lon="4.6696">
        <ele>159.53</ele>
        <time>2021-06-23T12:05:21Z</time>
      </trkpt>
      <trkpt lat="48.36374" lon="4.67205">
        <ele>162.77</ele>
        <time>2021-06-23T12:05:43Z</time>
      </trkpt>
      <trkpt lat="48.36351" lon="4.67538">
        <ele>156.52</ele>
        <time>2021-06-23T12:06:05Z</time>
      </trkpt>
      <trkpt lat="48.36349" lon="4.67601">
        <ele>156.31</ele>
        <time>2021-06-23T12:06:27Z</time>
      </trkpt>
      <trkpt lat="48.36351" lon="4.67644">
        <ele>156.35</ele>
        <time>2021-06-23T12:06:49Z</time>
      </trkpt>
      <trkpt lat="48.36358" lon="4.67689">
        <ele>155.43</ele>
        <time>2021-06-23T12:07:11Z</time>
      </trkpt>
      <trkpt lat="48.36403" lon="4.67849">
        <ele>151</ele>
        <time>2021-06-23T12:07:34Z</time>
      </trkpt>
      <trkpt lat="48.36853" lon="4.69314">
        <ele>152.27</ele>
        <time>2021-06-23T12:07:56Z</time>
      </trkpt>
      <trkpt lat="48.36862" lon="4.69355">
        <ele>152</ele>
        <time>2021-06-23T12:08:18Z</time>
      </trkpt>
      <trkpt lat="48.37231" lon="4.72149">
        <ele>166.81</ele>
        <time>2021-06-23T12:08:40Z</time>
      </trkpt>
      <trkpt lat="48.37233" lon="4.72191">
        <ele>167</ele>
        <time>2021-06-23T12:09:02Z</time>
      </trkpt>
      <trkpt lat="48.37229" lon="4.72308">
        <ele>154.16</ele>
        <time>2021-06-23T12:09:24Z</time>
      </trkpt>
      <trkpt lat="48.37229" lon="4.72308">
        <ele>154.16</ele>
        <time>2021-06-23T12:09:24Z</time>
      </trkpt>
      <trkpt lat="48.37183" lon="4.73342">
        <ele>143.52</ele>
        <time>2021-06-23T12:09:59Z</time>
      </trkpt>
      <trkpt lat="48.37182" lon="4.73362">
        <ele>143.89</ele>
        <time>2021-06-23T12:10:33Z</time>
      </trkpt>
      <trkpt lat="48.37175" lon="4.73412">
        <ele>144.95</ele>
        <time>2021-06-23T12:11:08Z</time>
      </trkpt>
      <trkpt lat="48.37177" lon="4.73482">
        <ele>146.34</ele>
        <time>2021-06-23T12:11:42Z</time>
      </trkpt>
      <trkpt lat="48.37082" lon="4.75679">
        <ele>193.16</ele>
        <time>2021-06-23T12:12:17Z</time>
      </trkpt>
      <trkpt lat="48.37055" lon="4.76337">
        <ele>195.09</ele>
        <time>2021-06-23T12:12:51Z</time>
      </trkpt>
      <trkpt lat="48.36894" lon="4.78096">
        <ele>170.92</ele>
        <time>2021-06-23T12:13:26Z</time>
      </trkpt>
      <trkpt lat="48.36887" lon="4.78096">
        <ele>171.46</ele>
        <time>2021-06-23T12:13:27Z</time>
      </trkpt>
      <trkpt lat="48.36887" lon="4.78096">
        <ele>171.46</ele>
        <time>2021-06-23T12:13:27Z</time>
      </trkpt>
      <trkpt lat="48.36792" lon="4.78094">
        <ele>172</ele>
        <time>2021-06-23T12:13:31Z</time>
      </trkpt>
      <trkpt lat="48.36694" lon="4.7812">
        <ele>171.69</ele>
        <time>2021-06-23T12:13:35Z</time>
      </trkpt>
      <trkpt lat="48.36622" lon="4.78131">
        <ele>170.28</ele>
        <time>2021-06-23T12:13:40Z</time>
      </trkpt>
      <trkpt lat="48.366" lon="4.7814">
        <ele>170.43</ele>
        <time>2021-06-23T12:13:44Z</time>
      </trkpt>
      <trkpt lat="48.36453" lon="4.78182">
        <ele>173.7</ele>
        <time>2021-06-23T12:13:49Z</time>
      </trkpt>
      <trkpt lat="48.36387" lon="4.78204">
        <ele>174.69</ele>
        <time>2021-06-23T12:13:53Z</time>
      </trkpt>
      <trkpt lat="48.3637" lon="4.78216">
        <ele>175</ele>
        <time>2021-06-23T12:13:57Z</time>
      </trkpt>
      <trkpt lat="48.36333" lon="4.78247">
        <ele>174.9</ele>
        <time>2021-06-23T12:14:02Z</time>
      </trkpt>
      <trkpt lat="48.36306" lon="4.78264">
        <ele>176</ele>
        <time>2021-06-23T12:14:06Z</time>
      </trkpt>
      <trkpt lat="48.36282" lon="4.78275">
        <ele>175.05</ele>
        <time>2021-06-23T12:14:11Z</time>
      </trkpt>
      <trkpt lat="48.36202" lon="4.78303">
        <ele>172.22</ele>
        <time>2021-06-23T12:14:15Z</time>
      </trkpt>
      <trkpt lat="48.3615" lon="4.7834">
        <ele>173.09</ele>
        <time>2021-06-23T12:14:20Z</time>
      </trkpt>
      <trkpt lat="48.36035" lon="4.78427">
        <ele>172.09</ele>
        <time>2021-06-23T12:14:24Z</time>
      </trkpt>
      <trkpt lat="48.3599" lon="4.78457">
        <ele>171.44</ele>
        <time>2021-06-23T12:14:28Z</time>
      </trkpt>
      <trkpt lat="48.35912" lon="4.78501">
        <ele>172.39</ele>
        <time>2021-06-23T12:14:33Z</time>
      </trkpt>
      <trkpt lat="48.35881" lon="4.78524">
        <ele>174.29</ele>
        <time>2021-06-23T12:14:37Z</time>
      </trkpt>
      <trkpt lat="48.35834" lon="4.7855">
        <ele>175</ele>
        <time>2021-06-23T12:14:42Z</time>
      </trkpt>
      <trkpt lat="48.35813" lon="4.78565">
        <ele>175</ele>
        <time>2021-06-23T12:14:46Z</time>
      </trkpt>
      <trkpt lat="48.35759" lon="4.7862">
        <ele>175.69</ele>
        <time>2021-06-23T12:14:50Z</time>
      </trkpt>
      <trkpt lat="48.35716" lon="4.78637">
        <ele>175.94</ele>
        <time>2021-06-23T12:14:55Z</time>
      </trkpt>
      <trkpt lat="48.35661" lon="4.78644">
        <ele>176.63</ele>
        <time>2021-06-23T12:14:59Z</time>
      </trkpt>
      <trkpt lat="48.35626" lon="4.78656">
        <ele>175.15</ele>
        <time>2021-06-23T12:15:04Z</time>
      </trkpt>
      <trkpt lat="48.35594" lon="4.78671">
        <ele>174.46</ele>
        <time>2021-06-23T12:15:08Z</time>
      </trkpt>
      <trkpt lat="48.3556" lon="4.78682">
        <ele>174.53</ele>
        <time>2021-06-23T12:15:12Z</time>
      </trkpt>
      <trkpt lat="48.3551" lon="4.78683">
        <ele>174.21</ele>
        <time>2021-06-23T12:15:17Z</time>
      </trkpt>
      <trkpt lat="48.3545" lon="4.78711">
        <ele>175.74</ele>
        <time>2021-06-23T12:15:21Z</time>
      </trkpt>
      <trkpt lat="48.35133" lon="4.78683">
        <ele>179.12</ele>
        <time>2021-06-23T12:15:26Z</time>
      </trkpt>
      <trkpt lat="48.35114" lon="4.78683">
        <ele>179.51</ele>
        <time>2021-06-23T12:15:30Z</time>
      </trkpt>
      <trkpt lat="48.35102" lon="4.78685">
        <ele>179.99</ele>
        <time>2021-06-23T12:15:35Z</time>
      </trkpt>
      <trkpt lat="48.35034" lon="4.7872">
        <ele>181.06</ele>
        <time>2021-06-23T12:15:39Z</time>
      </trkpt>
      <trkpt lat="48.35013" lon="4.78726">
        <ele>180.88</ele>
        <time>2021-06-23T12:15:43Z</time>
      </trkpt>
      <trkpt lat="48.34996" lon="4.78721">
        <ele>181.19</ele>
        <time>2021-06-23T12:15:48Z</time>
      </trkpt>
      <trkpt lat="48.34983" lon="4.78713">
        <ele>181.97</ele>
        <time>2021-06-23T12:15:52Z</time>
      </trkpt>
      <trkpt lat="48.34957" lon="4.78685">
        <ele>183.54</ele>
        <time>2021-06-23T12:15:57Z</time>
      </trkpt>
      <trkpt lat="48.34944" lon="4.78663">
        <ele>184</ele>
        <time>2021-06-23T12:16:01Z</time>
      </trkpt>
      <trkpt lat="48.3493" lon="4.78631">
        <ele>183.33</ele>
        <time>2021-06-23T12:16:05Z</time>
      </trkpt>
      <trkpt lat="48.34885" lon="4.78529">
        <ele>183.15</ele>
        <time>2021-06-23T12:16:10Z</time>
      </trkpt>
      <trkpt lat="48.34863" lon="4.78468">
        <ele>182.92</ele>
        <time>2021-06-23T12:16:14Z</time>
      </trkpt>
      <trkpt lat="48.3486" lon="4.78448">
        <ele>183</ele>
        <time>2021-06-23T12:16:19Z</time>
      </trkpt>
      <trkpt lat="48.34863" lon="4.78418">
        <ele>182.95</ele>
        <time>2021-06-23T12:16:23Z</time>
      </trkpt>
      <trkpt lat="48.34867" lon="4.78381">
        <ele>183.21</ele>
        <time>2021-06-23T12:16:27Z</time>
      </trkpt>
      <trkpt lat="48.34867" lon="4.78372">
        <ele>183.47</ele>
        <time>2021-06-23T12:16:32Z</time>
      </trkpt>
      <trkpt lat="48.34864" lon="4.78367">
        <ele>183.7</ele>
        <time>2021-06-23T12:16:36Z</time>
      </trkpt>
      <trkpt lat="48.34835" lon="4.78345">
        <ele>184.52</ele>
        <time>2021-06-23T12:16:41Z</time>
      </trkpt>
      <trkpt lat="48.34817" lon="4.78312">
        <ele>185.75</ele>
        <time>2021-06-23T12:16:45Z</time>
      </trkpt>
      <trkpt lat="48.34763" lon="4.78433">
        <ele>181.73</ele>
        <time>2021-06-23T12:16:48Z</time>
      </trkpt>
      <trkpt lat="48.34752" lon="4.78449">
        <ele>181.93</ele>
        <time>2021-06-23T12:16:52Z</time>
      </trkpt>
      <trkpt lat="48.34721" lon="4.78482">
        <ele>184.44</ele>
        <time>2021-06-23T12:16:55Z</time>
      </trkpt>
      <trkpt lat="48.34703" lon="4.78497">
        <ele>186.26</ele>
        <time>2021-06-23T12:16:58Z</time>
      </trkpt>
      <trkpt lat="48.34695" lon="4.78508">
        <ele>187.21</ele>
        <time>2021-06-23T12:17:02Z</time>
      </trkpt>
      <trkpt lat="48.34681" lon="4.78543">
        <ele>189.33</ele>
        <time>2021-06-23T12:17:05Z</time>
      </trkpt>
      <trkpt lat="48.34681" lon="4.78543">
        <ele>189.33</ele>
        <time>2021-06-23T12:17:05Z</time>
      </trkpt>
      <trkpt lat="48.34665" lon="4.78586">
        <ele>190.22</ele>
        <time>2021-06-23T12:17:09Z</time>
      </trkpt>
      <trkpt lat="48.34657" lon="4.78613">
        <ele>191.32</ele>
        <time>2021-06-23T12:17:12Z</time>
      </trkpt>
      <trkpt lat="48.34649" lon="4.78654">
        <ele>190.79</ele>
        <time>2021-06-23T12:17:16Z</time>
      </trkpt>
      <trkpt lat="48.34623" lon="4.78876">
        <ele>181.47</ele>
        <time>2021-06-23T12:17:19Z</time>
      </trkpt>
      <trkpt lat="48.34626" lon="4.7894">
        <ele>181</ele>
        <time>2021-06-23T12:17:23Z</time>
      </trkpt>
      <trkpt lat="48.34632" lon="4.78961">
        <ele>181</ele>
        <time>2021-06-23T12:17:26Z</time>
      </trkpt>
      <trkpt lat="48.34639" lon="4.78977">
        <ele>181.01</ele>
        <time>2021-06-23T12:17:29Z</time>
      </trkpt>
      <trkpt lat="48.34703" lon="4.79092">
        <ele>182</ele>
        <time>2021-06-23T12:17:33Z</time>
      </trkpt>
      <trkpt lat="48.34713" lon="4.79115">
        <ele>182.15</ele>
        <time>2021-06-23T12:17:36Z</time>
      </trkpt>
      <trkpt lat="48.34739" lon="4.79212">
        <ele>184.38</ele>
        <time>2021-06-23T12:17:40Z</time>
      </trkpt>
      <trkpt lat="48.34724" lon="4.79279">
        <ele>185.18</ele>
        <time>2021-06-23T12:17:46Z</time>
      </trkpt>
      <trkpt lat="48.34604" lon="4.79536">
        <ele>188.05</ele>
        <time>2021-06-23T12:17:52Z</time>
      </trkpt>
      <trkpt lat="48.34589" lon="4.79561">
        <ele>188.46</ele>
        <time>2021-06-23T12:17:58Z</time>
      </trkpt>
      <trkpt lat="48.34567" lon="4.79582">
        <ele>188.96</ele>
        <time>2021-06-23T12:18:04Z</time>
      </trkpt>
      <trkpt lat="48.34513" lon="4.79605">
        <ele>187.22</ele>
        <time>2021-06-23T12:18:10Z</time>
      </trkpt>
      <trkpt lat="48.34496" lon="4.79616">
        <ele>187.03</ele>
        <time>2021-06-23T12:18:16Z</time>
      </trkpt>
      <trkpt lat="48.34475" lon="4.7964">
        <ele>187.14</ele>
        <time>2021-06-23T12:18:22Z</time>
      </trkpt>
      <trkpt lat="48.34374" lon="4.79828">
        <ele>188.28</ele>
        <time>2021-06-23T12:18:29Z</time>
      </trkpt>
      <trkpt lat="48.34343" lon="4.79893">
        <ele>187.4</ele>
        <time>2021-06-23T12:18:35Z</time>
      </trkpt>
      <trkpt lat="48.34211" lon="4.8024">
        <ele>191</ele>
        <time>2021-06-23T12:18:41Z</time>
      </trkpt>
      <trkpt lat="48.34098" lon="4.80504">
        <ele>196.77</ele>
        <time>2021-06-23T12:18:47Z</time>
      </trkpt>
      <trkpt lat="48.33988" lon="4.80745">
        <ele>196.59</ele>
        <time>2021-06-23T12:18:53Z</time>
      </trkpt>
      <trkpt lat="48.33964" lon="4.8082">
        <ele>199.26</ele>
        <time>2021-06-23T12:18:59Z</time>
      </trkpt>
      <trkpt lat="48.33949" lon="4.80879">
        <ele>199.68</ele>
        <time>2021-06-23T12:19:05Z</time>
      </trkpt>
      <trkpt lat="48.33912" lon="4.81049">
        <ele>196.48</ele>
        <time>2021-06-23T12:19:11Z</time>
      </trkpt>
      <trkpt lat="48.33849" lon="4.81389">
        <ele>198.31</ele>
        <time>2021-06-23T12:19:17Z</time>
      </trkpt>
      <trkpt lat="48.33837" lon="4.81437">
        <ele>198.56</ele>
        <time>2021-06-23T12:19:23Z</time>
      </trkpt>
      <trkpt lat="48.33818" lon="4.81502">
        <ele>197.95</ele>
        <time>2021-06-23T12:19:29Z</time>
      </trkpt>
      <trkpt lat="48.33792" lon="4.81572">
        <ele>196.98</ele>
        <time>2021-06-23T12:19:35Z</time>
      </trkpt>
      <trkpt lat="48.33767" lon="4.8163">
        <ele>197.69</ele>
        <time>2021-06-23T12:19:42Z</time>
      </trkpt>
      <trkpt lat="48.33753" lon="4.81657">
        <ele>197.62</ele>
        <time>2021-06-23T12:19:48Z</time>
      </trkpt>
      <trkpt lat="48.33753" lon="4.81657">
        <ele>197.62</ele>
        <time>2021-06-23T12:19:48Z</time>
      </trkpt>
      <trkpt lat="48.33739" lon="4.81684">
        <ele>197.56</ele>
        <time>2021-06-23T12:19:55Z</time>
      </trkpt>
      <trkpt lat="48.3371" lon="4.81731">
        <ele>196.9</ele>
        <time>2021-06-23T12:20:02Z</time>
      </trkpt>
      <trkpt lat="48.33609" lon="4.81866">
        <ele>197.08</ele>
        <time>2021-06-23T12:20:09Z</time>
      </trkpt>
      <trkpt lat="48.33463" lon="4.82101">
        <ele>200.57</ele>
        <time>2021-06-23T12:20:16Z</time>
      </trkpt>
      <trkpt lat="48.33218" lon="4.82378">
        <ele>206.7</ele>
        <time>2021-06-23T12:20:23Z</time>
      </trkpt>
      <trkpt lat="48.33169" lon="4.82456">
        <ele>208.16</ele>
        <time>2021-06-23T12:20:30Z</time>
      </trkpt>
      <trkpt lat="48.33108" lon="4.82546">
        <ele>212.12</ele>
        <time>2021-06-23T12:20:38Z</time>
      </trkpt>
      <trkpt lat="48.33055" lon="4.8263">
        <ele>212.6</ele>
        <time>2021-06-23T12:20:45Z</time>
      </trkpt>
      <trkpt lat="48.33012" lon="4.82673">
        <ele>209.83</ele>
        <time>2021-06-23T12:20:52Z</time>
      </trkpt>
      <trkpt lat="48.32953" lon="4.82716">
        <ele>208.93</ele>
        <time>2021-06-23T12:20:59Z</time>
      </trkpt>
      <trkpt lat="48.32873" lon="4.82769">
        <ele>209.04</ele>
        <time>2021-06-23T12:21:06Z</time>
      </trkpt>
      <trkpt lat="48.3282" lon="4.82809">
        <ele>209.84</ele>
        <time>2021-06-23T12:21:13Z</time>
      </trkpt>
      <trkpt lat="48.32754" lon="4.82844">
        <ele>209.35</ele>
        <time>2021-06-23T12:21:20Z</time>
      </trkpt>
      <trkpt lat="48.32696" lon="4.8288">
        <ele>210.17</ele>
        <time>2021-06-23T12:21:28Z</time>
      </trkpt>
      <trkpt lat="48.32458" lon="4.83054">
        <ele>211.82</ele>
        <time>2021-06-23T12:21:35Z</time>
      </trkpt>
      <trkpt lat="48.32403" lon="4.83103">
        <ele>211.93</ele>
        <time>2021-06-23T12:21:42Z</time>
      </trkpt>
      <trkpt lat="48.32218" lon="4.83243">
        <ele>214.83</ele>
        <time>2021-06-23T12:21:49Z</time>
      </trkpt>
      <trkpt lat="48.32135" lon="4.8328">
        <ele>216.25</ele>
        <time>2021-06-23T12:21:56Z</time>
      </trkpt>
      <trkpt lat="48.32049" lon="4.83307">
        <ele>216.77</ele>
        <time>2021-06-23T12:22:03Z</time>
      </trkpt>
      <trkpt lat="48.32049" lon="4.83307">
        <ele>216.77</ele>
        <time>2021-06-23T12:22:03Z</time>
      </trkpt>
      <trkpt lat="48.32047" lon="4.83312">
        <ele>216.94</ele>
        <time>2021-06-23T12:22:03Z</time>
      </trkpt>
      <trkpt lat="48.32151" lon="4.83339">
        <ele>225.56</ele>
        <time>2021-06-23T12:22:11Z</time>
      </trkpt>
      <trkpt lat="48.32312" lon="4.83377">
        <ele>233.84</ele>
        <time>2021-06-23T12:22:19Z</time>
      </trkpt>
      <trkpt lat="48.32327" lon="4.83389">
        <ele>234.97</ele>
        <time>2021-06-23T12:22:27Z</time>
      </trkpt>
      <trkpt lat="48.32337" lon="4.83401">
        <ele>235.04</ele>
        <time>2021-06-23T12:22:35Z</time>
      </trkpt>
      <trkpt lat="48.32343" lon="4.83414">
        <ele>235.13</ele>
        <time>2021-06-23T12:22:43Z</time>
      </trkpt>
      <trkpt lat="48.32356" lon="4.83453">
        <ele>239.31</ele>
        <time>2021-06-23T12:22:51Z</time>
      </trkpt>
      <trkpt lat="48.32541" lon="4.84366">
        <ele>260.72</ele>
        <time>2021-06-23T12:22:59Z</time>
      </trkpt>
      <trkpt lat="48.32551" lon="4.84409">
        <ele>261.87</ele>
        <time>2021-06-23T12:23:06Z</time>
      </trkpt>
      <trkpt lat="48.32558" lon="4.84429">
        <ele>262.86</ele>
        <time>2021-06-23T12:23:14Z</time>
      </trkpt>
      <trkpt lat="48.3256" lon="4.84457">
        <ele>264.07</ele>
        <time>2021-06-23T12:23:19Z</time>
      </trkpt>
      <trkpt lat="48.3258" lon="4.84553">
        <ele>265.11</ele>
        <time>2021-06-23T12:23:23Z</time>
      </trkpt>
      <trkpt lat="48.32582" lon="4.84587">
        <ele>265.16</ele>
        <time>2021-06-23T12:23:27Z</time>
      </trkpt>
      <trkpt lat="48.32578" lon="4.84625">
        <ele>266.67</ele>
        <time>2021-06-23T12:23:31Z</time>
      </trkpt>
      <trkpt lat="48.32567" lon="4.8467">
        <ele>268.25</ele>
        <time>2021-06-23T12:23:35Z</time>
      </trkpt>
      <trkpt lat="48.3255" lon="4.847">
        <ele>270.04</ele>
        <time>2021-06-23T12:23:40Z</time>
      </trkpt>
      <trkpt lat="48.32529" lon="4.84724">
        <ele>270.96</ele>
        <time>2021-06-23T12:23:44Z</time>
      </trkpt>
      <trkpt lat="48.32419" lon="4.84803">
        <ele>274.9</ele>
        <time>2021-06-23T12:23:48Z</time>
      </trkpt>
      <trkpt lat="48.32371" lon="4.84836">
        <ele>276.64</ele>
        <time>2021-06-23T12:23:52Z</time>
      </trkpt>
      <trkpt lat="48.32355" lon="4.84858">
        <ele>276.98</ele>
        <time>2021-06-23T12:23:57Z</time>
      </trkpt>
      <trkpt lat="48.32346" lon="4.84879">
        <ele>277</ele>
        <time>2021-06-23T12:24:01Z</time>
      </trkpt>
      <trkpt lat="48.32343" lon="4.84909">
        <ele>276.75</ele>
        <time>2021-06-23T12:24:05Z</time>
      </trkpt>
      <trkpt lat="48.32349" lon="4.84941">
        <ele>276.06</ele>
        <time>2021-06-23T12:24:09Z</time>
      </trkpt>
      <trkpt lat="48.32497" lon="4.85358">
        <ele>274.09</ele>
        <time>2021-06-23T12:24:14Z</time>
      </trkpt>
      <trkpt lat="48.32513" lon="4.85412">
        <ele>273.83</ele>
        <time>2021-06-23T12:24:18Z</time>
      </trkpt>
      <trkpt lat="48.32513" lon="4.85412">
        <ele>273.83</ele>
        <time>2021-06-23T12:24:18Z</time>
      </trkpt>
      <trkpt lat="48.32497" lon="4.85358">
        <ele>274.09</ele>
        <time>2021-06-23T12:24:22Z</time>
      </trkpt>
      <trkpt lat="48.32349" lon="4.84941">
        <ele>276.06</ele>
        <time>2021-06-23T12:24:26Z</time>
      </trkpt>
      <trkpt lat="48.32343" lon="4.84909">
        <ele>276.75</ele>
        <time>2021-06-23T12:24:30Z</time>
      </trkpt>
      <trkpt lat="48.32346" lon="4.84879">
        <ele>277</ele>
        <time>2021-06-23T12:24:35Z</time>
      </trkpt>
      <trkpt lat="48.32355" lon="4.84858">
        <ele>276.98</ele>
        <time>2021-06-23T12:24:39Z</time>
      </trkpt>
      <trkpt lat="48.32371" lon="4.84836">
        <ele>276.64</ele>
        <time>2021-06-23T12:24:43Z</time>
      </trkpt>
      <trkpt lat="48.32419" lon="4.84803">
        <ele>274.9</ele>
        <time>2021-06-23T12:24:47Z</time>
      </trkpt>
      <trkpt lat="48.32529" lon="4.84724">
        <ele>270.96</ele>
        <time>2021-06-23T12:24:52Z</time>
      </trkpt>
      <trkpt lat="48.3255" lon="4.847">
        <ele>270.04</ele>
        <time>2021-06-23T12:24:56Z</time>
      </trkpt>
      <trkpt lat="48.32567" lon="4.8467">
        <ele>268.25</ele>
        <time>2021-06-23T12:25:00Z</time>
      </trkpt>
      <trkpt lat="48.32578" lon="4.84625">
        <ele>266.67</ele>
        <time>2021-06-23T12:25:04Z</time>
      </trkpt>
      <trkpt lat="48.32582" lon="4.84587">
        <ele>265.16</ele>
        <time>2021-06-23T12:25:09Z</time>
      </trkpt>
      <trkpt lat="48.3258" lon="4.84553">
        <ele>265.11</ele>
        <time>2021-06-23T12:25:13Z</time>
      </trkpt>
      <trkpt lat="48.3256" lon="4.84457">
        <ele>264.07</ele>
        <time>2021-06-23T12:25:17Z</time>
      </trkpt>
      <trkpt lat="48.32558" lon="4.84429">
        <ele>262.86</ele>
        <time>2021-06-23T12:25:21Z</time>
      </trkpt>
      <trkpt lat="48.32551" lon="4.84409">
        <ele>261.87</ele>
        <time>2021-06-23T12:25:26Z</time>
      </trkpt>
      <trkpt lat="48.32541" lon="4.84366">
        <ele>260.72</ele>
        <time>2021-06-23T12:25:30Z</time>
      </trkpt>
      <trkpt lat="48.32356" lon="4.83453">
        <ele>239.31</ele>
        <time>2021-06-23T12:25:34Z</time>
      </trkpt>
      <trkpt lat="48.32343" lon="4.83414">
        <ele>235.13</ele>
        <time>2021-06-23T12:25:39Z</time>
      </trkpt>
      <trkpt lat="48.32337" lon="4.83401">
        <ele>235.04</ele>
        <time>2021-06-23T12:25:43Z</time>
      </trkpt>
      <trkpt lat="48.32327" lon="4.83389">
        <ele>234.97</ele>
        <time>2021-06-23T12:25:47Z</time>
      </trkpt>
      <trkpt lat="48.32312" lon="4.83377">
        <ele>233.84</ele>
        <time>2021-06-23T12:25:52Z</time>
      </trkpt>
      <trkpt lat="48.32151" lon="4.83339">
        <ele>225.56</ele>
        <time>2021-06-23T12:25:56Z</time>
      </trkpt>
      <trkpt lat="48.32047" lon="4.83312">
        <ele>216.94</ele>
        <time>2021-06-23T12:26:01Z</time>
      </trkpt>
      <trkpt lat="48.3201" lon="4.833">
        <ele>212.55</ele>
        <time>2021-06-23T12:26:05Z</time>
      </trkpt>
      <trkpt lat="48.31991" lon="4.83298">
        <ele>211.43</ele>
        <time>2021-06-23T12:26:09Z</time>
      </trkpt>
      <trkpt lat="48.31953" lon="4.833">
        <ele>211.76</ele>
        <time>2021-06-23T12:26:14Z</time>
      </trkpt>
      <trkpt lat="48.31838" lon="4.83327">
        <ele>212.78</ele>
        <time>2021-06-23T12:26:18Z</time>
      </trkpt>
      <trkpt lat="48.31831" lon="4.83334">
        <ele>213.01</ele>
        <time>2021-06-23T12:26:22Z</time>
      </trkpt>
      <trkpt lat="48.31818" lon="4.83363">
        <ele>214.02</ele>
        <time>2021-06-23T12:26:27Z</time>
      </trkpt>
      <trkpt lat="48.318" lon="4.83393">
        <ele>213.76</ele>
        <time>2021-06-23T12:26:31Z</time>
      </trkpt>
      <trkpt lat="48.31729" lon="4.83439">
        <ele>214.48</ele>
        <time>2021-06-23T12:26:36Z</time>
      </trkpt>
      <trkpt lat="48.31599" lon="4.83508">
        <ele>218.71</ele>
        <time>2021-06-23T12:26:40Z</time>
      </trkpt>
      <trkpt lat="48.31467" lon="4.83552">
        <ele>217.54</ele>
        <time>2021-06-23T12:26:44Z</time>
      </trkpt>
      <trkpt lat="48.31381" lon="4.83598">
        <ele>219.8</ele>
        <time>2021-06-23T12:26:49Z</time>
      </trkpt>
      <trkpt lat="48.31308" lon="4.83653">
        <ele>219.88</ele>
        <time>2021-06-23T12:26:53Z</time>
      </trkpt>
      <trkpt lat="48.31217" lon="4.83735">
        <ele>222.14</ele>
        <time>2021-06-23T12:26:57Z</time>
      </trkpt>
      <trkpt lat="48.31138" lon="4.8379">
        <ele>221.21</ele>
        <time>2021-06-23T12:27:02Z</time>
      </trkpt>
      <trkpt lat="48.31096" lon="4.83824">
        <ele>221.55</ele>
        <time>2021-06-23T12:27:06Z</time>
      </trkpt>
      <trkpt lat="48.31064" lon="4.83853">
        <ele>221.37</ele>
        <time>2021-06-23T12:27:11Z</time>
      </trkpt>
      <trkpt lat="48.31011" lon="4.83911">
        <ele>223.37</ele>
        <time>2021-06-23T12:27:15Z</time>
      </trkpt>
      <trkpt lat="48.30994" lon="4.83926">
        <ele>223.65</ele>
        <time>2021-06-23T12:27:19Z</time>
      </trkpt>
      <trkpt lat="48.30939" lon="4.83962">
        <ele>224.19</ele>
        <time>2021-06-23T12:27:24Z</time>
      </trkpt>
      <trkpt lat="48.30826" lon="4.84061">
        <ele>228.6</ele>
        <time>2021-06-23T12:27:28Z</time>
      </trkpt>
      <trkpt lat="48.30713" lon="4.84164">
        <ele>232.43</ele>
        <time>2021-06-23T12:27:32Z</time>
      </trkpt>
      <trkpt lat="48.30687" lon="4.84184">
        <ele>233.83</ele>
        <time>2021-06-23T12:27:37Z</time>
      </trkpt>
      <trkpt lat="48.30659" lon="4.84198">
        <ele>232.39</ele>
        <time>2021-06-23T12:27:41Z</time>
      </trkpt>
      <trkpt lat="48.30583" lon="4.84207">
        <ele>226.34</ele>
        <time>2021-06-23T12:27:46Z</time>
      </trkpt>
      <trkpt lat="48.3013" lon="4.84253">
        <ele>234.46</ele>
        <time>2021-06-23T12:27:50Z</time>
      </trkpt>
      <trkpt lat="48.30112" lon="4.84262">
        <ele>233.37</ele>
        <time>2021-06-23T12:27:54Z</time>
      </trkpt>
      <trkpt lat="48.30096" lon="4.84274">
        <ele>234.27</ele>
        <time>2021-06-23T12:27:59Z</time>
      </trkpt>
      <trkpt lat="48.30064" lon="4.84307">
        <ele>234.39</ele>
        <time>2021-06-23T12:28:03Z</time>
      </trkpt>
      <trkpt lat="48.30036" lon="4.84343">
        <ele>233.59</ele>
        <time>2021-06-23T12:28:07Z</time>
      </trkpt>
      <trkpt lat="48.30016" lon="4.84382">
        <ele>234.77</ele>
        <time>2021-06-23T12:28:12Z</time>
      </trkpt>
      <trkpt lat="48.29991" lon="4.8447">
        <ele>235.3</ele>
        <time>2021-06-23T12:28:16Z</time>
      </trkpt>
      <trkpt lat="48.29979" lon="4.84498">
        <ele>235.29</ele>
        <time>2021-06-23T12:28:21Z</time>
      </trkpt>
      <trkpt lat="48.29897" lon="4.84604">
        <ele>226.78</ele>
        <time>2021-06-23T12:28:25Z</time>
      </trkpt>
      <trkpt lat="48.29882" lon="4.84637">
        <ele>227.51</ele>
        <time>2021-06-23T12:28:29Z</time>
      </trkpt>
      <trkpt lat="48.29833" lon="4.84765">
        <ele>237.62</ele>
        <time>2021-06-23T12:28:34Z</time>
      </trkpt>
      <trkpt lat="48.29809" lon="4.84815">
        <ele>239.97</ele>
        <time>2021-06-23T12:28:38Z</time>
      </trkpt>
      <trkpt lat="48.29771" lon="4.84881">
        <ele>243.1</ele>
        <time>2021-06-23T12:28:42Z</time>
      </trkpt>
      <trkpt lat="48.29747" lon="4.84936">
        <ele>245.07</ele>
        <time>2021-06-23T12:28:47Z</time>
      </trkpt>
      <trkpt lat="48.29734" lon="4.84972">
        <ele>246.64</ele>
        <time>2021-06-23T12:28:51Z</time>
      </trkpt>
      <trkpt lat="48.29706" lon="4.85072">
        <ele>247.65</ele>
        <time>2021-06-23T12:28:56Z</time>
      </trkpt>
      <trkpt lat="48.29688" lon="4.85119">
        <ele>245.55</ele>
        <time>2021-06-23T12:29:00Z</time>
      </trkpt>
      <trkpt lat="48.29546" lon="4.85346">
        <ele>235.27</ele>
        <time>2021-06-23T12:29:04Z</time>
      </trkpt>
      <trkpt lat="48.29525" lon="4.85364">
        <ele>237.21</ele>
        <time>2021-06-23T12:29:09Z</time>
      </trkpt>
      <trkpt lat="48.29499" lon="4.85377">
        <ele>239.35</ele>
        <time>2021-06-23T12:29:13Z</time>
      </trkpt>
      <trkpt lat="48.29425" lon="4.85392">
        <ele>243.37</ele>
        <time>2021-06-23T12:29:17Z</time>
      </trkpt>
      <trkpt lat="48.29385" lon="4.85408">
        <ele>242.52</ele>
        <time>2021-06-23T12:29:22Z</time>
      </trkpt>
      <trkpt lat="48.29351" lon="4.85432">
        <ele>243.27</ele>
        <time>2021-06-23T12:29:26Z</time>
      </trkpt>
      <trkpt lat="48.29253" lon="4.85532">
        <ele>247.02</ele>
        <time>2021-06-23T12:29:30Z</time>
      </trkpt>
      <trkpt lat="48.29191" lon="4.85602">
        <ele>244.59</ele>
        <time>2021-06-23T12:29:35Z</time>
      </trkpt>
      <trkpt lat="48.29139" lon="4.85669">
        <ele>239.1</ele>
        <time>2021-06-23T12:29:39Z</time>
      </trkpt>
      <trkpt lat="48.29015" lon="4.85784">
        <ele>250.05</ele>
        <time>2021-06-23T12:29:44Z</time>
      </trkpt>
      <trkpt lat="48.29001" lon="4.85801">
        <ele>249.49</ele>
        <time>2021-06-23T12:29:48Z</time>
      </trkpt>
      <trkpt lat="48.28995" lon="4.85818">
        <ele>247.59</ele>
        <time>2021-06-23T12:29:52Z</time>
      </trkpt>
      <trkpt lat="48.28985" lon="4.85876">
        <ele>244.22</ele>
        <time>2021-06-23T12:29:57Z</time>
      </trkpt>
      <trkpt lat="48.28977" lon="4.85896">
        <ele>244.86</ele>
        <time>2021-06-23T12:30:01Z</time>
      </trkpt>
      <trkpt lat="48.28965" lon="4.85909">
        <ele>245.59</ele>
        <time>2021-06-23T12:30:05Z</time>
      </trkpt>
      <trkpt lat="48.28946" lon="4.85918">
        <ele>247.1</ele>
        <time>2021-06-23T12:30:10Z</time>
      </trkpt>
      <trkpt lat="48.2886" lon="4.85928">
        <ele>248.14</ele>
        <time>2021-06-23T12:30:14Z</time>
      </trkpt>
      <trkpt lat="48.28815" lon="4.85943">
        <ele>248.05</ele>
        <time>2021-06-23T12:30:19Z</time>
      </trkpt>
      <trkpt lat="48.28786" lon="4.85965">
        <ele>249.93</ele>
        <time>2021-06-23T12:30:23Z</time>
      </trkpt>
      <trkpt lat="48.28766" lon="4.85989">
        <ele>252.38</ele>
        <time>2021-06-23T12:30:27Z</time>
      </trkpt>
      <trkpt lat="48.28683" lon="4.86147">
        <ele>254.84</ele>
        <time>2021-06-23T12:30:32Z</time>
      </trkpt>
      <trkpt lat="48.28653" lon="4.86191">
        <ele>252.66</ele>
        <time>2021-06-23T12:30:36Z</time>
      </trkpt>
      <trkpt lat="48.28619" lon="4.86226">
        <ele>248.92</ele>
        <time>2021-06-23T12:30:40Z</time>
      </trkpt>
      <trkpt lat="48.28565" lon="4.86249">
        <ele>243.65</ele>
        <time>2021-06-23T12:30:45Z</time>
      </trkpt>
      <trkpt lat="48.28503" lon="4.8627">
        <ele>243.44</ele>
        <time>2021-06-23T12:30:49Z</time>
      </trkpt>
      <trkpt lat="48.28482" lon="4.86281">
        <ele>243.13</ele>
        <time>2021-06-23T12:30:54Z</time>
      </trkpt>
      <trkpt lat="48.28466" lon="4.86293">
        <ele>243.53</ele>
        <time>2021-06-23T12:30:58Z</time>
      </trkpt>
      <trkpt lat="48.28406" lon="4.8635">
        <ele>246.6</ele>
        <time>2021-06-23T12:31:02Z</time>
      </trkpt>
      <trkpt lat="48.28368" lon="4.86371">
        <ele>247.35</ele>
        <time>2021-06-23T12:31:07Z</time>
      </trkpt>
      <trkpt lat="48.28347" lon="4.86377">
        <ele>248.93</ele>
        <time>2021-06-23T12:31:11Z</time>
      </trkpt>
      <trkpt lat="48.28258" lon="4.8639">
        <ele>263.09</ele>
        <time>2021-06-23T12:31:15Z</time>
      </trkpt>
      <trkpt lat="48.28241" lon="4.86396">
        <ele>263.48</ele>
        <time>2021-06-23T12:31:20Z</time>
      </trkpt>
      <trkpt lat="48.28203" lon="4.86413">
        <ele>262.7</ele>
        <time>2021-06-23T12:31:24Z</time>
      </trkpt>
      <trkpt lat="48.28168" lon="4.86441">
        <ele>265.32</ele>
        <time>2021-06-23T12:31:29Z</time>
      </trkpt>
      <trkpt lat="48.28113" lon="4.86492">
        <ele>264.43</ele>
        <time>2021-06-23T12:31:33Z</time>
      </trkpt>
      <trkpt lat="48.28044" lon="4.86542">
        <ele>259.4</ele>
        <time>2021-06-23T12:31:37Z</time>
      </trkpt>
      <trkpt lat="48.27943" lon="4.86597">
        <ele>253.89</ele>
        <time>2021-06-23T12:31:42Z</time>
      </trkpt>
      <trkpt lat="48.27913" lon="4.86608">
        <ele>253.37</ele>
        <time>2021-06-23T12:31:46Z</time>
      </trkpt>
      <trkpt lat="48.27893" lon="4.86625">
        <ele>253.76</ele>
        <time>2021-06-23T12:31:50Z</time>
      </trkpt>
      <trkpt lat="48.27887" lon="4.86626">
        <ele>253.55</ele>
        <time>2021-06-23T12:31:55Z</time>
      </trkpt>
      <trkpt lat="48.27877" lon="4.86639">
        <ele>254.54</ele>
        <time>2021-06-23T12:31:59Z</time>
      </trkpt>
      <trkpt lat="48.27861" lon="4.86665">
        <ele>257.74</ele>
        <time>2021-06-23T12:32:04Z</time>
      </trkpt>
      <trkpt lat="48.27857" lon="4.86675">
        <ele>258.54</ele>
        <time>2021-06-23T12:32:08Z</time>
      </trkpt>
      <trkpt lat="48.27853" lon="4.86709">
        <ele>261.91</ele>
        <time>2021-06-23T12:32:12Z</time>
      </trkpt>
      <trkpt lat="48.27849" lon="4.86722">
        <ele>263.55</ele>
        <time>2021-06-23T12:32:17Z</time>
      </trkpt>
      <trkpt lat="48.27834" lon="4.86752">
        <ele>266.19</ele>
        <time>2021-06-23T12:32:21Z</time>
      </trkpt>
      <trkpt lat="48.27815" lon="4.86779">
        <ele>266.74</ele>
        <time>2021-06-23T12:32:25Z</time>
      </trkpt>
      <trkpt lat="48.27748" lon="4.86832">
        <ele>265.61</ele>
        <time>2021-06-23T12:32:30Z</time>
      </trkpt>
      <trkpt lat="48.27689" lon="4.86869">
        <ele>259.4</ele>
        <time>2021-06-23T12:32:34Z</time>
      </trkpt>
      <trkpt lat="48.27653" lon="4.86897">
        <ele>255.26</ele>
        <time>2021-06-23T12:32:39Z</time>
      </trkpt>
      <trkpt lat="48.27619" lon="4.86925">
        <ele>254.26</ele>
        <time>2021-06-23T12:32:43Z</time>
      </trkpt>
      <trkpt lat="48.2755" lon="4.86988">
        <ele>252.27</ele>
        <time>2021-06-23T12:32:47Z</time>
      </trkpt>
      <trkpt lat="48.27532" lon="4.86999">
        <ele>252.09</ele>
        <time>2021-06-23T12:32:52Z</time>
      </trkpt>
      <trkpt lat="48.27489" lon="4.87011">
        <ele>251.05</ele>
        <time>2021-06-23T12:32:56Z</time>
      </trkpt>
      <trkpt lat="48.27461" lon="4.87022">
        <ele>249.52</ele>
        <time>2021-06-23T12:33:00Z</time>
      </trkpt>
      <trkpt lat="48.27428" lon="4.87042">
        <ele>248.11</ele>
        <time>2021-06-23T12:33:05Z</time>
      </trkpt>
      <trkpt lat="48.27363" lon="4.87088">
        <ele>248.18</ele>
        <time>2021-06-23T12:33:09Z</time>
      </trkpt>
      <trkpt lat="48.27331" lon="4.87107">
        <ele>249.96</ele>
        <time>2021-06-23T12:33:14Z</time>
      </trkpt>
      <trkpt lat="48.27259" lon="4.87137">
        <ele>251.9</ele>
        <time>2021-06-23T12:33:18Z</time>
      </trkpt>
      <trkpt lat="48.27237" lon="4.8715">
        <ele>251.71</ele>
        <time>2021-06-23T12:33:22Z</time>
      </trkpt>
      <trkpt lat="48.27045" lon="4.87304">
        <ele>250.95</ele>
        <time>2021-06-23T12:33:27Z</time>
      </trkpt>
      <trkpt lat="48.27025" lon="4.87317">
        <ele>251.31</ele>
        <time>2021-06-23T12:33:31Z</time>
      </trkpt>
      <trkpt lat="48.26919" lon="4.8736">
        <ele>254.78</ele>
        <time>2021-06-23T12:33:35Z</time>
      </trkpt>
      <trkpt lat="48.26886" lon="4.87371">
        <ele>255.64</ele>
        <time>2021-06-23T12:33:40Z</time>
      </trkpt>
      <trkpt lat="48.26801" lon="4.87392">
        <ele>255.29</ele>
        <time>2021-06-23T12:33:44Z</time>
      </trkpt>
      <trkpt lat="48.26736" lon="4.87412">
        <ele>258.66</ele>
        <time>2021-06-23T12:33:48Z</time>
      </trkpt>
      <trkpt lat="48.26685" lon="4.87425">
        <ele>258.82</ele>
        <time>2021-06-23T12:33:53Z</time>
      </trkpt>
      <trkpt lat="48.26568" lon="4.87445">
        <ele>258</ele>
        <time>2021-06-23T12:33:57Z</time>
      </trkpt>
      <trkpt lat="48.26522" lon="4.87448">
        <ele>259.13</ele>
        <time>2021-06-23T12:34:02Z</time>
      </trkpt>
      <trkpt lat="48.26316" lon="4.87454">
        <ele>258.94</ele>
        <time>2021-06-23T12:34:06Z</time>
      </trkpt>
      <trkpt lat="48.26237" lon="4.87444">
        <ele>260.98</ele>
        <time>2021-06-23T12:34:10Z</time>
      </trkpt>
      <trkpt lat="48.26193" lon="4.87426">
        <ele>261.41</ele>
        <time>2021-06-23T12:34:15Z</time>
      </trkpt>
      <trkpt lat="48.26111" lon="4.87386">
        <ele>261.89</ele>
        <time>2021-06-23T12:34:19Z</time>
      </trkpt>
      <trkpt lat="48.2609" lon="4.87378">
        <ele>261.91</ele>
        <time>2021-06-23T12:34:23Z</time>
      </trkpt>
      <trkpt lat="48.26072" lon="4.87374">
        <ele>262.19</ele>
        <time>2021-06-23T12:34:28Z</time>
      </trkpt>
      <trkpt lat="48.26008" lon="4.87368">
        <ele>261.52</ele>
        <time>2021-06-23T12:34:32Z</time>
      </trkpt>
      <trkpt lat="48.25987" lon="4.87361">
        <ele>261.48</ele>
        <time>2021-06-23T12:34:37Z</time>
      </trkpt>
      <trkpt lat="48.25968" lon="4.87348">
        <ele>261.95</ele>
        <time>2021-06-23T12:34:41Z</time>
      </trkpt>
      <trkpt lat="48.25939" lon="4.8732">
        <ele>263.91</ele>
        <time>2021-06-23T12:34:45Z</time>
      </trkpt>
      <trkpt lat="48.25904" lon="4.87295">
        <ele>264.61</ele>
        <time>2021-06-23T12:34:50Z</time>
      </trkpt>
      <trkpt lat="48.2586" lon="4.87269">
        <ele>264.7</ele>
        <time>2021-06-23T12:34:54Z</time>
      </trkpt>
      <trkpt lat="48.2582" lon="4.87253">
        <ele>265.58</ele>
        <time>2021-06-23T12:34:58Z</time>
      </trkpt>
      <trkpt lat="48.25773" lon="4.87241">
        <ele>265.85</ele>
        <time>2021-06-23T12:35:03Z</time>
      </trkpt>
      <trkpt lat="48.25711" lon="4.87233">
        <ele>267.02</ele>
        <time>2021-06-23T12:35:07Z</time>
      </trkpt>
      <trkpt lat="48.2566" lon="4.87232">
        <ele>267.59</ele>
        <time>2021-06-23T12:35:12Z</time>
      </trkpt>
      <trkpt lat="48.25612" lon="4.87239">
        <ele>268.58</ele>
        <time>2021-06-23T12:35:16Z</time>
      </trkpt>
      <trkpt lat="48.25569" lon="4.87257">
        <ele>269.73</ele>
        <time>2021-06-23T12:35:20Z</time>
      </trkpt>
      <trkpt lat="48.2553" lon="4.87283">
        <ele>268.47</ele>
        <time>2021-06-23T12:35:25Z</time>
      </trkpt>
      <trkpt lat="48.25443" lon="4.87366">
        <ele>270.16</ele>
        <time>2021-06-23T12:35:29Z</time>
      </trkpt>
      <trkpt lat="48.25405" lon="4.87425">
        <ele>270.71</ele>
        <time>2021-06-23T12:35:33Z</time>
      </trkpt>
      <trkpt lat="48.25373" lon="4.87457">
        <ele>271.44</ele>
        <time>2021-06-23T12:35:38Z</time>
      </trkpt>
      <trkpt lat="48.25299" lon="4.87523">
        <ele>270.96</ele>
        <time>2021-06-23T12:35:42Z</time>
      </trkpt>
      <trkpt lat="48.25276" lon="4.87552">
        <ele>271.82</ele>
        <time>2021-06-23T12:35:47Z</time>
      </trkpt>
      <trkpt lat="48.25255" lon="4.87586">
        <ele>272.35</ele>
        <time>2021-06-23T12:35:51Z</time>
      </trkpt>
      <trkpt lat="48.25121" lon="4.87864">
        <ele>276.46</ele>
        <time>2021-06-23T12:35:55Z</time>
      </trkpt>
      <trkpt lat="48.2508" lon="4.87926">
        <ele>278.4</ele>
        <time>2021-06-23T12:36:00Z</time>
      </trkpt>
      <trkpt lat="48.2506" lon="4.87974">
        <ele>278.99</ele>
        <time>2021-06-23T12:36:04Z</time>
      </trkpt>
      <trkpt lat="48.25019" lon="4.88061">
        <ele>279.21</ele>
        <time>2021-06-23T12:36:08Z</time>
      </trkpt>
      <trkpt lat="48.2498" lon="4.88135">
        <ele>279.27</ele>
        <time>2021-06-23T12:36:13Z</time>
      </trkpt>
      <trkpt lat="48.24958" lon="4.88197">
        <ele>279.56</ele>
        <time>2021-06-23T12:36:17Z</time>
      </trkpt>
      <trkpt lat="48.24948" lon="4.88215">
        <ele>279.96</ele>
        <time>2021-06-23T12:36:22Z</time>
      </trkpt>
      <trkpt lat="48.2493" lon="4.88232">
        <ele>280.33</ele>
        <time>2021-06-23T12:36:26Z</time>
      </trkpt>
      <trkpt lat="48.24884" lon="4.88287">
        <ele>282.63</ele>
        <time>2021-06-23T12:36:30Z</time>
      </trkpt>
      <trkpt lat="48.24874" lon="4.88297">
        <ele>283.4</ele>
        <time>2021-06-23T12:36:35Z</time>
      </trkpt>
      <trkpt lat="48.24821" lon="4.88229">
        <ele>283.68</ele>
        <time>2021-06-23T12:36:38Z</time>
      </trkpt>
      <trkpt lat="48.24803" lon="4.88196">
        <ele>284.1</ele>
        <time>2021-06-23T12:36:41Z</time>
      </trkpt>
      <trkpt lat="48.24792" lon="4.88183">
        <ele>284.5</ele>
        <time>2021-06-23T12:36:44Z</time>
      </trkpt>
      <trkpt lat="48.24783" lon="4.88178">
        <ele>284.8</ele>
        <time>2021-06-23T12:36:48Z</time>
      </trkpt>
      <trkpt lat="48.24775" lon="4.88177">
        <ele>285</ele>
        <time>2021-06-23T12:36:51Z</time>
      </trkpt>
      <trkpt lat="48.24758" lon="4.88184">
        <ele>285</ele>
        <time>2021-06-23T12:36:54Z</time>
      </trkpt>
      <trkpt lat="48.24655" lon="4.88279">
        <ele>286.54</ele>
        <time>2021-06-23T12:36:57Z</time>
      </trkpt>
      <trkpt lat="48.24576" lon="4.8836">
        <ele>288.25</ele>
        <time>2021-06-23T12:37:01Z</time>
      </trkpt>
      <trkpt lat="48.24528" lon="4.88418">
        <ele>289.92</ele>
        <time>2021-06-23T12:37:04Z</time>
      </trkpt>
      <trkpt lat="48.24508" lon="4.88437">
        <ele>290.73</ele>
        <time>2021-06-23T12:37:07Z</time>
      </trkpt>
      <trkpt lat="48.24486" lon="4.88447">
        <ele>292</ele>
        <time>2021-06-23T12:37:10Z</time>
      </trkpt>
      <trkpt lat="48.2446" lon="4.88449">
        <ele>294.36</ele>
        <time>2021-06-23T12:37:14Z</time>
      </trkpt>
      <trkpt lat="48.24436" lon="4.88445">
        <ele>296.64</ele>
        <time>2021-06-23T12:37:17Z</time>
      </trkpt>
      <trkpt lat="48.24412" lon="4.8843">
        <ele>298.75</ele>
        <time>2021-06-23T12:37:20Z</time>
      </trkpt>
      <trkpt lat="48.24342" lon="4.88367">
        <ele>304.47</ele>
        <time>2021-06-23T12:37:23Z</time>
      </trkpt>
      <trkpt lat="48.24305" lon="4.88345">
        <ele>304.57</ele>
        <time>2021-06-23T12:37:27Z</time>
      </trkpt>
      <trkpt lat="48.2429" lon="4.88342">
        <ele>304.52</ele>
        <time>2021-06-23T12:37:30Z</time>
      </trkpt>
      <trkpt lat="48.24265" lon="4.88345">
        <ele>305.09</ele>
        <time>2021-06-23T12:37:33Z</time>
      </trkpt>
      <trkpt lat="48.24186" lon="4.88372">
        <ele>312.19</ele>
        <time>2021-06-23T12:37:36Z</time>
      </trkpt>
      <trkpt lat="48.24076" lon="4.88395">
        <ele>317.43</ele>
        <time>2021-06-23T12:37:40Z</time>
      </trkpt>
      <trkpt lat="48.24047" lon="4.88403">
        <ele>319.62</ele>
        <time>2021-06-23T12:37:43Z</time>
      </trkpt>
      <trkpt lat="48.24023" lon="4.8842">
        <ele>321.2</ele>
        <time>2021-06-23T12:37:46Z</time>
      </trkpt>
      <trkpt lat="48.23996" lon="4.88451">
        <ele>323.05</ele>
        <time>2021-06-23T12:37:50Z</time>
      </trkpt>
      <trkpt lat="48.23976" lon="4.88471">
        <ele>324.61</ele>
        <time>2021-06-23T12:37:53Z</time>
      </trkpt>
      <trkpt lat="48.23939" lon="4.88492">
        <ele>327.29</ele>
        <time>2021-06-23T12:37:56Z</time>
      </trkpt>
      <trkpt lat="48.239" lon="4.88505">
        <ele>329.67</ele>
        <time>2021-06-23T12:37:59Z</time>
      </trkpt>
      <trkpt lat="48.23873" lon="4.88508">
        <ele>332.05</ele>
        <time>2021-06-23T12:38:03Z</time>
      </trkpt>
      <trkpt lat="48.23852" lon="4.88507">
        <ele>333</ele>
        <time>2021-06-23T12:38:06Z</time>
      </trkpt>
      <trkpt lat="48.23766" lon="4.88487">
        <ele>335.94</ele>
        <time>2021-06-23T12:38:09Z</time>
      </trkpt>
      <trkpt lat="48.2375" lon="4.88488">
        <ele>336.57</ele>
        <time>2021-06-23T12:38:12Z</time>
      </trkpt>
      <trkpt lat="48.23733" lon="4.88491">
        <ele>337.3</ele>
        <time>2021-06-23T12:38:16Z</time>
      </trkpt>
      <trkpt lat="48.23613" lon="4.88546">
        <ele>340.6</ele>
        <time>2021-06-23T12:38:19Z</time>
      </trkpt>
      <trkpt lat="48.23576" lon="4.88561">
        <ele>341</ele>
        <time>2021-06-23T12:38:22Z</time>
      </trkpt>
      <trkpt lat="48.23536" lon="4.88573">
        <ele>341.45</ele>
        <time>2021-06-23T12:38:25Z</time>
      </trkpt>
      <trkpt lat="48.23447" lon="4.88587">
        <ele>346.91</ele>
        <time>2021-06-23T12:38:29Z</time>
      </trkpt>
      <trkpt lat="48.2341" lon="4.88584">
        <ele>347.24</ele>
        <time>2021-06-23T12:38:32Z</time>
      </trkpt>
      <trkpt lat="48.23375" lon="4.88574">
        <ele>348.15</ele>
        <time>2021-06-23T12:38:35Z</time>
      </trkpt>
      <trkpt lat="48.23316" lon="4.88539">
        <ele>347.41</ele>
        <time>2021-06-23T12:38:38Z</time>
      </trkpt>
      <trkpt lat="48.23223" lon="4.88474">
        <ele>351.96</ele>
        <time>2021-06-23T12:38:42Z</time>
      </trkpt>
      <trkpt lat="48.23138" lon="4.88397">
        <ele>353.3</ele>
        <time>2021-06-23T12:38:45Z</time>
      </trkpt>
      <trkpt lat="48.23112" lon="4.88377">
        <ele>353.55</ele>
        <time>2021-06-23T12:38:48Z</time>
      </trkpt>
      <trkpt lat="48.23081" lon="4.88364">
        <ele>354.09</ele>
        <time>2021-06-23T12:38:51Z</time>
      </trkpt>
      <trkpt lat="48.23031" lon="4.8836">
        <ele>355.89</ele>
        <time>2021-06-23T12:38:55Z</time>
      </trkpt>
      <trkpt lat="48.22924" lon="4.88364">
        <ele>357</ele>
        <time>2021-06-23T12:38:58Z</time>
      </trkpt>
      <trkpt lat="48.22782" lon="4.88338">
        <ele>355.17</ele>
        <time>2021-06-23T12:39:01Z</time>
      </trkpt>
      <trkpt lat="48.2276" lon="4.88331">
        <ele>355.07</ele>
        <time>2021-06-23T12:39:04Z</time>
      </trkpt>
      <trkpt lat="48.22754" lon="4.88327">
        <ele>355.2</ele>
        <time>2021-06-23T12:39:08Z</time>
      </trkpt>
      <trkpt lat="48.2275" lon="4.88318">
        <ele>355.58</ele>
        <time>2021-06-23T12:39:18Z</time>
      </trkpt>
      <trkpt lat="48.22742" lon="4.88312">
        <ele>356.11</ele>
        <time>2021-06-23T12:39:29Z</time>
      </trkpt>
      <trkpt lat="48.22734" lon="4.88312">
        <ele>356.48</ele>
        <time>2021-06-23T12:39:40Z</time>
      </trkpt>
      <trkpt lat="48.22726" lon="4.88317">
        <ele>356.8</ele>
        <time>2021-06-23T12:39:50Z</time>
      </trkpt>
      <trkpt lat="48.2272" lon="4.88326">
        <ele>357.11</ele>
        <time>2021-06-23T12:40:01Z</time>
      </trkpt>
      <trkpt lat="48.22718" lon="4.88343">
        <ele>357.07</ele>
        <time>2021-06-23T12:40:11Z</time>
      </trkpt>
      <trkpt lat="48.22721" lon="4.88355">
        <ele>356.42</ele>
        <time>2021-06-23T12:40:22Z</time>
      </trkpt>
      <trkpt lat="48.22727" lon="4.88365">
        <ele>355.5</ele>
        <time>2021-06-23T12:40:33Z</time>
      </trkpt>
      <trkpt lat="48.22726" lon="4.88382">
        <ele>354.97</ele>
        <time>2021-06-23T12:40:43Z</time>
      </trkpt>
      <trkpt lat="48.22724" lon="4.88402">
        <ele>353.99</ele>
        <time>2021-06-23T12:40:54Z</time>
      </trkpt>
      <trkpt lat="48.22717" lon="4.88425">
        <ele>353.62</ele>
        <time>2021-06-23T12:41:05Z</time>
      </trkpt>
      <trkpt lat="48.22711" lon="4.88436">
        <ele>354.53</ele>
        <time>2021-06-23T12:41:15Z</time>
      </trkpt>
      <trkpt lat="48.2267" lon="4.88491">
        <ele>362.02</ele>
        <time>2021-06-23T12:41:26Z</time>
      </trkpt>
      <trkpt lat="48.22554" lon="4.88775">
        <ele>347.25</ele>
        <time>2021-06-23T12:41:37Z</time>
      </trkpt>
      <trkpt lat="48.2248" lon="4.8895">
        <ele>343.05</ele>
        <time>2021-06-23T12:41:47Z</time>
      </trkpt>
      <trkpt lat="48.21469" lon="4.911">
        <ele>344.45</ele>
        <time>2021-06-23T12:41:58Z</time>
      </trkpt>
      <trkpt lat="48.21426" lon="4.91206">
        <ele>341.9</ele>
        <time>2021-06-23T12:42:08Z</time>
      </trkpt>
      <trkpt lat="48.21381" lon="4.91328">
        <ele>343.6</ele>
        <time>2021-06-23T12:42:19Z</time>
      </trkpt>
      <trkpt lat="48.21358" lon="4.91408">
        <ele>343.58</ele>
        <time>2021-06-23T12:42:30Z</time>
      </trkpt>
      <trkpt lat="48.21325" lon="4.91555">
        <ele>340.7</ele>
        <time>2021-06-23T12:42:40Z</time>
      </trkpt>
      <trkpt lat="48.21064" lon="4.92563">
        <ele>336.13</ele>
        <time>2021-06-23T12:42:51Z</time>
      </trkpt>
      <trkpt lat="48.21046" lon="4.92622">
        <ele>334</ele>
        <time>2021-06-23T12:43:02Z</time>
      </trkpt>
      <trkpt lat="48.21011" lon="4.92713">
        <ele>336.39</ele>
        <time>2021-06-23T12:43:12Z</time>
      </trkpt>
      <trkpt lat="48.20876" lon="4.9305">
        <ele>344.82</ele>
        <time>2021-06-23T12:43:23Z</time>
      </trkpt>
      <trkpt lat="48.20851" lon="4.93099">
        <ele>345.95</ele>
        <time>2021-06-23T12:43:34Z</time>
      </trkpt>
      <trkpt lat="48.20824" lon="4.93138">
        <ele>348.71</ele>
        <time>2021-06-23T12:43:44Z</time>
      </trkpt>
      <trkpt lat="48.20674" lon="4.93291">
        <ele>346.42</ele>
        <time>2021-06-23T12:43:55Z</time>
      </trkpt>
      <trkpt lat="48.20648" lon="4.93323">
        <ele>343.04</ele>
        <time>2021-06-23T12:44:05Z</time>
      </trkpt>
      <trkpt lat="48.2053" lon="4.93498">
        <ele>338.09</ele>
        <time>2021-06-23T12:44:16Z</time>
      </trkpt>
      <trkpt lat="48.20271" lon="4.93874">
        <ele>340.81</ele>
        <time>2021-06-23T12:44:27Z</time>
      </trkpt>
      <trkpt lat="48.19673" lon="4.94734">
        <ele>361.77</ele>
        <time>2021-06-23T12:44:37Z</time>
      </trkpt>
      <trkpt lat="48.19644" lon="4.94778">
        <ele>362</ele>
        <time>2021-06-23T12:44:48Z</time>
      </trkpt>
      <trkpt lat="48.19495" lon="4.95041">
        <ele>360.81</ele>
        <time>2021-06-23T12:44:59Z</time>
      </trkpt>
      <trkpt lat="48.19295" lon="4.95386">
        <ele>354.9</ele>
        <time>2021-06-23T12:45:09Z</time>
      </trkpt>
      <trkpt lat="48.19169" lon="4.95617">
        <ele>344.05</ele>
        <time>2021-06-23T12:45:20Z</time>
      </trkpt>
      <trkpt lat="48.188" lon="4.96318">
        <ele>317.82</ele>
        <time>2021-06-23T12:45:31Z</time>
      </trkpt>
      <trkpt lat="48.18636" lon="4.96642">
        <ele>320.56</ele>
        <time>2021-06-23T12:45:41Z</time>
      </trkpt>
      <trkpt lat="48.1862" lon="4.9668">
        <ele>318.51</ele>
        <time>2021-06-23T12:45:52Z</time>
      </trkpt>
      <trkpt lat="48.18608" lon="4.96716">
        <ele>317.97</ele>
        <time>2021-06-23T12:46:03Z</time>
      </trkpt>
      <trkpt lat="48.18589" lon="4.9679">
        <ele>316.13</ele>
        <time>2021-06-23T12:46:13Z</time>
      </trkpt>
      <trkpt lat="48.18583" lon="4.96828">
        <ele>314.38</ele>
        <time>2021-06-23T12:46:24Z</time>
      </trkpt>
      <trkpt lat="48.18577" lon="4.96884">
        <ele>312.6</ele>
        <time>2021-06-23T12:46:34Z</time>
      </trkpt>
      <trkpt lat="48.18575" lon="4.96926">
        <ele>312.6</ele>
        <time>2021-06-23T12:46:45Z</time>
      </trkpt>
      <trkpt lat="48.18578" lon="4.97299">
        <ele>303.13</ele>
        <time>2021-06-23T12:46:56Z</time>
      </trkpt>
      <trkpt lat="48.18572" lon="4.97355">
        <ele>301</ele>
        <time>2021-06-23T12:47:06Z</time>
      </trkpt>
      <trkpt lat="48.18564" lon="4.97402">
        <ele>300.96</ele>
        <time>2021-06-23T12:47:17Z</time>
      </trkpt>
      <trkpt lat="48.18554" lon="4.97433">
        <ele>301.06</ele>
        <time>2021-06-23T12:47:28Z</time>
      </trkpt>
      <trkpt lat="48.18544" lon="4.97459">
        <ele>301.23</ele>
        <time>2021-06-23T12:47:38Z</time>
      </trkpt>
      <trkpt lat="48.18528" lon="4.97493">
        <ele>301.48</ele>
        <time>2021-06-23T12:47:49Z</time>
      </trkpt>
      <trkpt lat="48.18524" lon="4.97509">
        <ele>300.67</ele>
        <time>2021-06-23T12:48:00Z</time>
      </trkpt>
      <trkpt lat="48.18511" lon="4.97535">
        <ele>299.7</ele>
        <time>2021-06-23T12:48:10Z</time>
      </trkpt>
      <trkpt lat="48.18502" lon="4.97547">
        <ele>299.49</ele>
        <time>2021-06-23T12:48:21Z</time>
      </trkpt>
      <trkpt lat="48.18455" lon="4.97638">
        <ele>297.64</ele>
        <time>2021-06-23T12:48:31Z</time>
      </trkpt>
      <trkpt lat="48.18433" lon="4.97689">
        <ele>297.43</ele>
        <time>2021-06-23T12:48:42Z</time>
      </trkpt>
      <trkpt lat="48.18295" lon="4.97956">
        <ele>300.23</ele>
        <time>2021-06-23T12:48:53Z</time>
      </trkpt>
      <trkpt lat="48.18224" lon="4.98097">
        <ele>300.91</ele>
        <time>2021-06-23T12:49:03Z</time>
      </trkpt>
      <trkpt lat="48.18201" lon="4.9814">
        <ele>301.74</ele>
        <time>2021-06-23T12:49:14Z</time>
      </trkpt>
      <trkpt lat="48.18189" lon="4.98153">
        <ele>301.69</ele>
        <time>2021-06-23T12:49:25Z</time>
      </trkpt>
      <trkpt lat="48.18165" lon="4.98196">
        <ele>301.87</ele>
        <time>2021-06-23T12:49:35Z</time>
      </trkpt>
      <trkpt lat="48.18151" lon="4.98226">
        <ele>300.36</ele>
        <time>2021-06-23T12:49:46Z</time>
      </trkpt>
      <trkpt lat="48.18127" lon="4.98289">
        <ele>297.83</ele>
        <time>2021-06-23T12:49:57Z</time>
      </trkpt>
      <trkpt lat="48.18068" lon="4.98435">
        <ele>298.84</ele>
        <time>2021-06-23T12:50:07Z</time>
      </trkpt>
      <trkpt lat="48.17916" lon="4.9882">
        <ele>303.45</ele>
        <time>2021-06-23T12:50:18Z</time>
      </trkpt>
      <trkpt lat="48.17831" lon="4.99028">
        <ele>297.09</ele>
        <time>2021-06-23T12:50:28Z</time>
      </trkpt>
      <trkpt lat="48.17815" lon="4.99059">
        <ele>297.66</ele>
        <time>2021-06-23T12:50:39Z</time>
      </trkpt>
      <trkpt lat="48.17779" lon="4.99121">
        <ele>299.98</ele>
        <time>2021-06-23T12:50:50Z</time>
      </trkpt>
      <trkpt lat="48.17753" lon="4.99159">
        <ele>300.73</ele>
        <time>2021-06-23T12:51:00Z</time>
      </trkpt>
      <trkpt lat="48.1772" lon="4.99199">
        <ele>300.93</ele>
        <time>2021-06-23T12:51:11Z</time>
      </trkpt>
      <trkpt lat="48.17685" lon="4.99238">
        <ele>300.24</ele>
        <time>2021-06-23T12:51:22Z</time>
      </trkpt>
      <trkpt lat="48.17467" lon="4.99454">
        <ele>304.88</ele>
        <time>2021-06-23T12:51:32Z</time>
      </trkpt>
      <trkpt lat="48.17257" lon="4.9965">
        <ele>313.76</ele>
        <time>2021-06-23T12:51:43Z</time>
      </trkpt>
      <trkpt lat="48.17183" lon="4.99746">
        <ele>312.52</ele>
        <time>2021-06-23T12:51:54Z</time>
      </trkpt>
      <trkpt lat="48.17165" lon="4.99774">
        <ele>312.73</ele>
        <time>2021-06-23T12:52:04Z</time>
      </trkpt>
      <trkpt lat="48.1706" lon="4.99921">
        <ele>304.78</ele>
        <time>2021-06-23T12:52:15Z</time>
      </trkpt>
      <trkpt lat="48.16353" lon="5.00937">
        <ele>317.9</ele>
        <time>2021-06-23T12:52:26Z</time>
      </trkpt>
      <trkpt lat="48.16353" lon="5.00937">
        <ele>317.9</ele>
        <time>2021-06-23T12:52:26Z</time>
      </trkpt>
      <trkpt lat="48.15973" lon="5.0148">
        <ele>347.59</ele>
        <time>2021-06-23T12:52:36Z</time>
      </trkpt>
      <trkpt lat="48.15855" lon="5.01641">
        <ele>349.98</ele>
        <time>2021-06-23T12:52:47Z</time>
      </trkpt>
      <trkpt lat="48.15078" lon="5.02684">
        <ele>352.58</ele>
        <time>2021-06-23T12:52:58Z</time>
      </trkpt>
      <trkpt lat="48.14643" lon="5.03274">
        <ele>360.87</ele>
        <time>2021-06-23T12:53:09Z</time>
      </trkpt>
      <trkpt lat="48.14348" lon="5.03676">
        <ele>374.35</ele>
        <time>2021-06-23T12:53:19Z</time>
      </trkpt>
      <trkpt lat="48.14322" lon="5.03709">
        <ele>375.12</ele>
        <time>2021-06-23T12:53:30Z</time>
      </trkpt>
      <trkpt lat="48.14199" lon="5.03884">
        <ele>377.81</ele>
        <time>2021-06-23T12:53:41Z</time>
      </trkpt>
      <trkpt lat="48.14176" lon="5.03924">
        <ele>378.33</ele>
        <time>2021-06-23T12:53:52Z</time>
      </trkpt>
      <trkpt lat="48.14149" lon="5.04008">
        <ele>378</ele>
        <time>2021-06-23T12:54:02Z</time>
      </trkpt>
      <trkpt lat="48.14135" lon="5.04053">
        <ele>377.08</ele>
        <time>2021-06-23T12:54:13Z</time>
      </trkpt>
      <trkpt lat="48.14118" lon="5.04122">
        <ele>375.4</ele>
        <time>2021-06-23T12:54:24Z</time>
      </trkpt>
      <trkpt lat="48.14103" lon="5.04196">
        <ele>375.7</ele>
        <time>2021-06-23T12:54:35Z</time>
      </trkpt>
      <trkpt lat="48.1409" lon="5.0428">
        <ele>374</ele>
        <time>2021-06-23T12:54:46Z</time>
      </trkpt>
      <trkpt lat="48.14087" lon="5.04308">
        <ele>374.1</ele>
        <time>2021-06-23T12:54:56Z</time>
      </trkpt>
      <trkpt lat="48.14084" lon="5.04374">
        <ele>374.52</ele>
        <time>2021-06-23T12:55:07Z</time>
      </trkpt>
      <trkpt lat="48.14078" lon="5.04642">
        <ele>366.46</ele>
        <time>2021-06-23T12:55:18Z</time>
      </trkpt>
      <trkpt lat="48.14076" lon="5.04783">
        <ele>361.9</ele>
        <time>2021-06-23T12:55:29Z</time>
      </trkpt>
      <trkpt lat="48.14078" lon="5.0481">
        <ele>361.06</ele>
        <time>2021-06-23T12:55:31Z</time>
      </trkpt>
      <trkpt lat="48.14075" lon="5.04954">
        <ele>357.75</ele>
        <time>2021-06-23T12:55:33Z</time>
      </trkpt>
      <trkpt lat="48.14074" lon="5.04977">
        <ele>356.58</ele>
        <time>2021-06-23T12:55:35Z</time>
      </trkpt>
      <trkpt lat="48.14068" lon="5.0501">
        <ele>356.69</ele>
        <time>2021-06-23T12:55:37Z</time>
      </trkpt>
      <trkpt lat="48.14055" lon="5.05041">
        <ele>355.58</ele>
        <time>2021-06-23T12:55:39Z</time>
      </trkpt>
      <trkpt lat="48.14046" lon="5.05057">
        <ele>354.62</ele>
        <time>2021-06-23T12:55:42Z</time>
      </trkpt>
      <trkpt lat="48.14033" lon="5.05073">
        <ele>353.86</ele>
        <time>2021-06-23T12:55:44Z</time>
      </trkpt>
      <trkpt lat="48.1402" lon="5.05085">
        <ele>353.15</ele>
        <time>2021-06-23T12:55:46Z</time>
      </trkpt>
      <trkpt lat="48.14006" lon="5.05092">
        <ele>352.69</ele>
        <time>2021-06-23T12:55:48Z</time>
      </trkpt>
      <trkpt lat="48.13983" lon="5.05098">
        <ele>350.21</ele>
        <time>2021-06-23T12:55:50Z</time>
      </trkpt>
      <trkpt lat="48.13971" lon="5.05099">
        <ele>348.89</ele>
        <time>2021-06-23T12:55:52Z</time>
      </trkpt>
      <trkpt lat="48.13958" lon="5.05097">
        <ele>346.54</ele>
        <time>2021-06-23T12:55:55Z</time>
      </trkpt>
      <trkpt lat="48.13946" lon="5.05092">
        <ele>345.13</ele>
        <time>2021-06-23T12:55:57Z</time>
      </trkpt>
      <trkpt lat="48.1378" lon="5.0497">
        <ele>343.81</ele>
        <time>2021-06-23T12:55:59Z</time>
      </trkpt>
      <trkpt lat="48.13765" lon="5.04961">
        <ele>344.29</ele>
        <time>2021-06-23T12:56:01Z</time>
      </trkpt>
      <trkpt lat="48.13754" lon="5.04957">
        <ele>343.82</ele>
        <time>2021-06-23T12:56:03Z</time>
      </trkpt>
      <trkpt lat="48.13741" lon="5.04952">
        <ele>344.04</ele>
        <time>2021-06-23T12:56:05Z</time>
      </trkpt>
      <trkpt lat="48.13729" lon="5.04952">
        <ele>343.87</ele>
        <time>2021-06-23T12:56:08Z</time>
      </trkpt>
      <trkpt lat="48.13716" lon="5.04954">
        <ele>343.75</ele>
        <time>2021-06-23T12:56:10Z</time>
      </trkpt>
      <trkpt lat="48.13704" lon="5.04959">
        <ele>343.63</ele>
        <time>2021-06-23T12:56:12Z</time>
      </trkpt>
      <trkpt lat="48.13687" lon="5.04974">
        <ele>342.33</ele>
        <time>2021-06-23T12:56:14Z</time>
      </trkpt>
      <trkpt lat="48.1368" lon="5.04985">
        <ele>340.83</ele>
        <time>2021-06-23T12:56:16Z</time>
      </trkpt>
      <trkpt lat="48.13668" lon="5.05012">
        <ele>337.24</ele>
        <time>2021-06-23T12:56:18Z</time>
      </trkpt>
      <trkpt lat="48.1366" lon="5.05049">
        <ele>334.3</ele>
        <time>2021-06-23T12:56:21Z</time>
      </trkpt>
      <trkpt lat="48.13658" lon="5.05067">
        <ele>333.46</ele>
        <time>2021-06-23T12:56:23Z</time>
      </trkpt>
      <trkpt lat="48.13657" lon="5.0509">
        <ele>331.74</ele>
        <time>2021-06-23T12:56:25Z</time>
      </trkpt>
      <trkpt lat="48.13657" lon="5.05233">
        <ele>316.69</ele>
        <time>2021-06-23T12:56:27Z</time>
      </trkpt>
      <trkpt lat="48.1366" lon="5.05368">
        <ele>308.75</ele>
        <time>2021-06-23T12:56:29Z</time>
      </trkpt>
      <trkpt lat="48.13651" lon="5.0536">
        <ele>309.02</ele>
        <time>2021-06-23T12:56:30Z</time>
      </trkpt>
      <trkpt lat="48.13654" lon="5.05402">
        <ele>307.79</ele>
        <time>2021-06-23T12:56:40Z</time>
      </trkpt>
      <trkpt lat="48.13667" lon="5.05474">
        <ele>306.78</ele>
        <time>2021-06-23T12:56:49Z</time>
      </trkpt>
      <trkpt lat="48.1368" lon="5.05517">
        <ele>302.96</ele>
        <time>2021-06-23T12:56:58Z</time>
      </trkpt>
      <trkpt lat="48.13704" lon="5.05585">
        <ele>299</ele>
        <time>2021-06-23T12:57:08Z</time>
      </trkpt>
      <trkpt lat="48.13738" lon="5.0567">
        <ele>297.34</ele>
        <time>2021-06-23T12:57:17Z</time>
      </trkpt>
      <trkpt lat="48.13825" lon="5.05952">
        <ele>290.86</ele>
        <time>2021-06-23T12:57:27Z</time>
      </trkpt>
      <trkpt lat="48.13841" lon="5.06015">
        <ele>285.88</ele>
        <time>2021-06-23T12:57:36Z</time>
      </trkpt>
      <trkpt lat="48.13852" lon="5.0608">
        <ele>283.94</ele>
        <time>2021-06-23T12:57:46Z</time>
      </trkpt>
      <trkpt lat="48.13877" lon="5.06427">
        <ele>279.13</ele>
        <time>2021-06-23T12:57:55Z</time>
      </trkpt>
      <trkpt lat="48.13894" lon="5.06761">
        <ele>274.93</ele>
        <time>2021-06-23T12:58:04Z</time>
      </trkpt>
      <trkpt lat="48.13894" lon="5.06825">
        <ele>273.91</ele>
        <time>2021-06-23T12:58:14Z</time>
      </trkpt>
      <trkpt lat="48.13886" lon="5.06889">
        <ele>270.92</ele>
        <time>2021-06-23T12:58:23Z</time>
      </trkpt>
      <trkpt lat="48.13872" lon="5.06959">
        <ele>268.8</ele>
        <time>2021-06-23T12:58:33Z</time>
      </trkpt>
      <trkpt lat="48.13538" lon="5.08425">
        <ele>276.69</ele>
        <time>2021-06-23T12:58:42Z</time>
      </trkpt>
      <trkpt lat="48.13528" lon="5.08465">
        <ele>276</ele>
        <time>2021-06-23T12:58:52Z</time>
      </trkpt>
      <trkpt lat="48.13354" lon="5.09006">
        <ele>285</ele>
        <time>2021-06-23T12:59:01Z</time>
      </trkpt>
      <trkpt lat="48.13254" lon="5.09324">
        <ele>287.66</ele>
        <time>2021-06-23T12:59:10Z</time>
      </trkpt>
      <trkpt lat="48.1289" lon="5.10459">
        <ele>294.05</ele>
        <time>2021-06-23T12:59:20Z</time>
      </trkpt>
      <trkpt lat="48.1288" lon="5.10486">
        <ele>293.84</ele>
        <time>2021-06-23T12:59:29Z</time>
      </trkpt>
      <trkpt lat="48.12834" lon="5.10624">
        <ele>290.53</ele>
        <time>2021-06-23T12:59:39Z</time>
      </trkpt>
      <trkpt lat="48.1283" lon="5.10632">
        <ele>290.38</ele>
        <time>2021-06-23T12:59:48Z</time>
      </trkpt>
      <trkpt lat="48.12818" lon="5.10644">
        <ele>290.45</ele>
        <time>2021-06-23T12:59:58Z</time>
      </trkpt>
      <trkpt lat="48.12809" lon="5.10642">
        <ele>290.79</ele>
        <time>2021-06-23T13:00:02Z</time>
      </trkpt>
      <trkpt lat="48.12797" lon="5.10644">
        <ele>290.82</ele>
        <time>2021-06-23T13:00:07Z</time>
      </trkpt>
      <trkpt lat="48.12788" lon="5.1065">
        <ele>290.62</ele>
        <time>2021-06-23T13:00:12Z</time>
      </trkpt>
      <trkpt lat="48.12778" lon="5.10651">
        <ele>290.58</ele>
        <time>2021-06-23T13:00:16Z</time>
      </trkpt>
      <trkpt lat="48.12729" lon="5.10627">
        <ele>290.1</ele>
        <time>2021-06-23T13:00:21Z</time>
      </trkpt>
      <trkpt lat="48.12702" lon="5.1062">
        <ele>290.71</ele>
        <time>2021-06-23T13:00:26Z</time>
      </trkpt>
      <trkpt lat="48.12678" lon="5.10622">
        <ele>291.6</ele>
        <time>2021-06-23T13:00:30Z</time>
      </trkpt>
      <trkpt lat="48.12655" lon="5.10634">
        <ele>291.57</ele>
        <time>2021-06-23T13:00:35Z</time>
      </trkpt>
      <trkpt lat="48.12615" lon="5.10674">
        <ele>292</ele>
        <time>2021-06-23T13:00:39Z</time>
      </trkpt>
      <trkpt lat="48.12567" lon="5.10712">
        <ele>292.84</ele>
        <time>2021-06-23T13:00:44Z</time>
      </trkpt>
      <trkpt lat="48.12492" lon="5.10752">
        <ele>293</ele>
        <time>2021-06-23T13:00:49Z</time>
      </trkpt>
      <trkpt lat="48.12401" lon="5.10787">
        <ele>287.04</ele>
        <time>2021-06-23T13:00:53Z</time>
      </trkpt>
      <trkpt lat="48.12201" lon="5.10894">
        <ele>291.05</ele>
        <time>2021-06-23T13:00:58Z</time>
      </trkpt>
      <trkpt lat="48.1214" lon="5.10921">
        <ele>289.32</ele>
        <time>2021-06-23T13:01:03Z</time>
      </trkpt>
      <trkpt lat="48.12074" lon="5.10945">
        <ele>290.68</ele>
        <time>2021-06-23T13:01:07Z</time>
      </trkpt>
      <trkpt lat="48.12" lon="5.10965">
        <ele>285.06</ele>
        <time>2021-06-23T13:01:12Z</time>
      </trkpt>
      <trkpt lat="48.11928" lon="5.1098">
        <ele>277.58</ele>
        <time>2021-06-23T13:01:17Z</time>
      </trkpt>
      <trkpt lat="48.11843" lon="5.10986">
        <ele>291.63</ele>
        <time>2021-06-23T13:01:21Z</time>
      </trkpt>
      <trkpt lat="48.11776" lon="5.10988">
        <ele>294.48</ele>
        <time>2021-06-23T13:01:26Z</time>
      </trkpt>
      <trkpt lat="48.11707" lon="5.10984">
        <ele>293.95</ele>
        <time>2021-06-23T13:01:31Z</time>
      </trkpt>
      <trkpt lat="48.11423" lon="5.10976">
        <ele>298.66</ele>
        <time>2021-06-23T13:01:35Z</time>
      </trkpt>
      <trkpt lat="48.11226" lon="5.10981">
        <ele>303.73</ele>
        <time>2021-06-23T13:01:40Z</time>
      </trkpt>
      <trkpt lat="48.11171" lon="5.1098">
        <ele>305.69</ele>
        <time>2021-06-23T13:01:45Z</time>
      </trkpt>
      <trkpt lat="48.10929" lon="5.10949">
        <ele>313.57</ele>
        <time>2021-06-23T13:01:49Z</time>
      </trkpt>
      <trkpt lat="48.10902" lon="5.10942">
        <ele>313.42</ele>
        <time>2021-06-23T13:01:54Z</time>
      </trkpt>
      <trkpt lat="48.10897" lon="5.10929">
        <ele>313.13</ele>
        <time>2021-06-23T13:02:00Z</time>
      </trkpt>
      <trkpt lat="48.10888" lon="5.1092">
        <ele>312.95</ele>
        <time>2021-06-23T13:02:06Z</time>
      </trkpt>
      <trkpt lat="48.10879" lon="5.1092">
        <ele>312.6</ele>
        <time>2021-06-23T13:02:12Z</time>
      </trkpt>
      <trkpt lat="48.10869" lon="5.10926">
        <ele>312.04</ele>
        <time>2021-06-23T13:02:19Z</time>
      </trkpt>
      <trkpt lat="48.10865" lon="5.10936">
        <ele>311.51</ele>
        <time>2021-06-23T13:02:25Z</time>
      </trkpt>
      <trkpt lat="48.10858" lon="5.10942">
        <ele>310.9</ele>
        <time>2021-06-23T13:02:31Z</time>
      </trkpt>
      <trkpt lat="48.10835" lon="5.1095">
        <ele>308.87</ele>
        <time>2021-06-23T13:02:37Z</time>
      </trkpt>
      <trkpt lat="48.10559" lon="5.10952">
        <ele>312</ele>
        <time>2021-06-23T13:02:43Z</time>
      </trkpt>
      <trkpt lat="48.10232" lon="5.10898">
        <ele>305.78</ele>
        <time>2021-06-23T13:02:49Z</time>
      </trkpt>
      <trkpt lat="48.09952" lon="5.10847">
        <ele>306.39</ele>
        <time>2021-06-23T13:02:56Z</time>
      </trkpt>
      <trkpt lat="48.09863" lon="5.10836">
        <ele>304.06</ele>
        <time>2021-06-23T13:03:02Z</time>
      </trkpt>
      <trkpt lat="48.09772" lon="5.10843">
        <ele>286.73</ele>
        <time>2021-06-23T13:03:08Z</time>
      </trkpt>
      <trkpt lat="48.09676" lon="5.10861">
        <ele>284.67</ele>
        <time>2021-06-23T13:03:14Z</time>
      </trkpt>
      <trkpt lat="48.09631" lon="5.10865">
        <ele>286.56</ele>
        <time>2021-06-23T13:03:20Z</time>
      </trkpt>
      <trkpt lat="48.09589" lon="5.10863">
        <ele>292.81</ele>
        <time>2021-06-23T13:03:26Z</time>
      </trkpt>
      <trkpt lat="48.09519" lon="5.10846">
        <ele>302.81</ele>
        <time>2021-06-23T13:03:33Z</time>
      </trkpt>
      <trkpt lat="48.09227" lon="5.10744">
        <ele>307.03</ele>
        <time>2021-06-23T13:03:39Z</time>
      </trkpt>
      <trkpt lat="48.0917" lon="5.10717">
        <ele>309.27</ele>
        <time>2021-06-23T13:03:45Z</time>
      </trkpt>
      <trkpt lat="48.09138" lon="5.10698">
        <ele>310.84</ele>
        <time>2021-06-23T13:03:51Z</time>
      </trkpt>
      <trkpt lat="48.09111" lon="5.10678">
        <ele>311.22</ele>
        <time>2021-06-23T13:03:57Z</time>
      </trkpt>
      <trkpt lat="48.09087" lon="5.10654">
        <ele>310.73</ele>
        <time>2021-06-23T13:04:03Z</time>
      </trkpt>
      <trkpt lat="48.09043" lon="5.10604">
        <ele>310.38</ele>
        <time>2021-06-23T13:04:10Z</time>
      </trkpt>
      <trkpt lat="48.08944" lon="5.10468">
        <ele>312.23</ele>
        <time>2021-06-23T13:04:16Z</time>
      </trkpt>
      <trkpt lat="48.08914" lon="5.1043">
        <ele>312.82</ele>
        <time>2021-06-23T13:04:22Z</time>
      </trkpt>
      <trkpt lat="48.08876" lon="5.10388">
        <ele>313.1</ele>
        <time>2021-06-23T13:04:28Z</time>
      </trkpt>
      <trkpt lat="48.08835" lon="5.10348">
        <ele>309.65</ele>
        <time>2021-06-23T13:04:34Z</time>
      </trkpt>
      <trkpt lat="48.08503" lon="5.10047">
        <ele>302.97</ele>
        <time>2021-06-23T13:04:41Z</time>
      </trkpt>
      <trkpt lat="48.08435" lon="5.09964">
        <ele>301.3</ele>
        <time>2021-06-23T13:04:47Z</time>
      </trkpt>
      <trkpt lat="48.08401" lon="5.09901">
        <ele>304.61</ele>
        <time>2021-06-23T13:04:53Z</time>
      </trkpt>
      <trkpt lat="48.0811" lon="5.09271">
        <ele>311.1</ele>
        <time>2021-06-23T13:04:59Z</time>
      </trkpt>
      <trkpt lat="48.08082" lon="5.09185">
        <ele>310.47</ele>
        <time>2021-06-23T13:05:05Z</time>
      </trkpt>
      <trkpt lat="48.08064" lon="5.09104">
        <ele>308.81</ele>
        <time>2021-06-23T13:05:11Z</time>
      </trkpt>
      <trkpt lat="48.08014" lon="5.08804">
        <ele>303.55</ele>
        <time>2021-06-23T13:05:18Z</time>
      </trkpt>
      <trkpt lat="48.0797" lon="5.08528">
        <ele>306.17</ele>
        <time>2021-06-23T13:05:24Z</time>
      </trkpt>
      <trkpt lat="48.07941" lon="5.08395">
        <ele>300.89</ele>
        <time>2021-06-23T13:05:30Z</time>
      </trkpt>
      <trkpt lat="48.07927" lon="5.08347">
        <ele>297.28</ele>
        <time>2021-06-23T13:05:36Z</time>
      </trkpt>
      <trkpt lat="48.0791" lon="5.08301">
        <ele>296.5</ele>
        <time>2021-06-23T13:05:42Z</time>
      </trkpt>
      <trkpt lat="48.07889" lon="5.08257">
        <ele>297.27</ele>
        <time>2021-06-23T13:05:48Z</time>
      </trkpt>
      <trkpt lat="48.07863" lon="5.08211">
        <ele>300.01</ele>
        <time>2021-06-23T13:05:55Z</time>
      </trkpt>
      <trkpt lat="48.07841" lon="5.08177">
        <ele>301.54</ele>
        <time>2021-06-23T13:06:01Z</time>
      </trkpt>
      <trkpt lat="48.078" lon="5.08129">
        <ele>305.58</ele>
        <time>2021-06-23T13:06:07Z</time>
      </trkpt>
      <trkpt lat="48.07649" lon="5.07978">
        <ele>303.54</ele>
        <time>2021-06-23T13:06:13Z</time>
      </trkpt>
      <trkpt lat="48.07427" lon="5.07679">
        <ele>306.16</ele>
        <time>2021-06-23T13:06:19Z</time>
      </trkpt>
      <trkpt lat="48.07323" lon="5.07551">
        <ele>303.38</ele>
        <time>2021-06-23T13:06:25Z</time>
      </trkpt>
      <trkpt lat="48.07286" lon="5.07501">
        <ele>300.82</ele>
        <time>2021-06-23T13:06:32Z</time>
      </trkpt>
      <trkpt lat="48.072" lon="5.07402">
        <ele>303.54</ele>
        <time>2021-06-23T13:06:38Z</time>
      </trkpt>
      <trkpt lat="48.07161" lon="5.07361">
        <ele>304.8</ele>
        <time>2021-06-23T13:06:44Z</time>
      </trkpt>
      <trkpt lat="48.07084" lon="5.07296">
        <ele>301.37</ele>
        <time>2021-06-23T13:06:50Z</time>
      </trkpt>
      <trkpt lat="48.07034" lon="5.07263">
        <ele>304.35</ele>
        <time>2021-06-23T13:06:56Z</time>
      </trkpt>
      <trkpt lat="48.06982" lon="5.07232">
        <ele>302.15</ele>
        <time>2021-06-23T13:07:02Z</time>
      </trkpt>
      <trkpt lat="48.0688" lon="5.07194">
        <ele>306.32</ele>
        <time>2021-06-23T13:07:09Z</time>
      </trkpt>
      <trkpt lat="48.06829" lon="5.07182">
        <ele>306.32</ele>
        <time>2021-06-23T13:07:15Z</time>
      </trkpt>
      <trkpt lat="48.06785" lon="5.07175">
        <ele>305</ele>
        <time>2021-06-23T13:07:21Z</time>
      </trkpt>
      <trkpt lat="48.06224" lon="5.071">
        <ele>310.95</ele>
        <time>2021-06-23T13:07:27Z</time>
      </trkpt>
      <trkpt lat="48.06083" lon="5.07048">
        <ele>309.01</ele>
        <time>2021-06-23T13:07:33Z</time>
      </trkpt>
      <trkpt lat="48.05923" lon="5.06927">
        <ele>310.21</ele>
        <time>2021-06-23T13:07:39Z</time>
      </trkpt>
      <trkpt lat="48.05481" lon="5.06488">
        <ele>321.3</ele>
        <time>2021-06-23T13:07:46Z</time>
      </trkpt>
      <trkpt lat="48.05363" lon="5.06329">
        <ele>322.93</ele>
        <time>2021-06-23T13:07:52Z</time>
      </trkpt>
      <trkpt lat="48.05121" lon="5.05955">
        <ele>325</ele>
        <time>2021-06-23T13:07:58Z</time>
      </trkpt>
      <trkpt lat="48.05046" lon="5.0586">
        <ele>325.68</ele>
        <time>2021-06-23T13:08:04Z</time>
      </trkpt>
      <trkpt lat="48.04953" lon="5.05796">
        <ele>324.55</ele>
        <time>2021-06-23T13:08:10Z</time>
      </trkpt>
      <trkpt lat="48.04905" lon="5.05779">
        <ele>324</ele>
        <time>2021-06-23T13:08:16Z</time>
      </trkpt>
      <trkpt lat="48.04863" lon="5.05766">
        <ele>325.49</ele>
        <time>2021-06-23T13:08:23Z</time>
      </trkpt>
      <trkpt lat="48.04815" lon="5.0576">
        <ele>327.37</ele>
        <time>2021-06-23T13:08:29Z</time>
      </trkpt>
      <trkpt lat="48.04672" lon="5.05757">
        <ele>325.92</ele>
        <time>2021-06-23T13:08:35Z</time>
      </trkpt>
      <trkpt lat="48.0442" lon="5.05756">
        <ele>327.88</ele>
        <time>2021-06-23T13:08:41Z</time>
      </trkpt>
      <trkpt lat="48.04412" lon="5.05747">
        <ele>327.91</ele>
        <time>2021-06-23T13:08:49Z</time>
      </trkpt>
      <trkpt lat="48.04406" lon="5.05746">
        <ele>327.76</ele>
        <time>2021-06-23T13:08:57Z</time>
      </trkpt>
      <trkpt lat="48.04378" lon="5.0576">
        <ele>327</ele>
        <time>2021-06-23T13:09:06Z</time>
      </trkpt>
      <trkpt lat="48.04307" lon="5.05764">
        <ele>331.33</ele>
        <time>2021-06-23T13:09:14Z</time>
      </trkpt>
      <trkpt lat="48.04053" lon="5.05764">
        <ele>328.38</ele>
        <time>2021-06-23T13:09:22Z</time>
      </trkpt>
      <trkpt lat="48.03798" lon="5.05773">
        <ele>332.91</ele>
        <time>2021-06-23T13:09:30Z</time>
      </trkpt>
      <trkpt lat="48.03678" lon="5.0579">
        <ele>337.76</ele>
        <time>2021-06-23T13:09:38Z</time>
      </trkpt>
      <trkpt lat="48.03386" lon="5.05878">
        <ele>339.04</ele>
        <time>2021-06-23T13:09:46Z</time>
      </trkpt>
      <trkpt lat="48.03121" lon="5.05961">
        <ele>340.56</ele>
        <time>2021-06-23T13:09:54Z</time>
      </trkpt>
      <trkpt lat="48.03095" lon="5.05966">
        <ele>339.51</ele>
        <time>2021-06-23T13:10:02Z</time>
      </trkpt>
      <trkpt lat="48.02693" lon="5.05964">
        <ele>338</ele>
        <time>2021-06-23T13:10:10Z</time>
      </trkpt>
      <trkpt lat="48.02563" lon="5.0597">
        <ele>340</ele>
        <time>2021-06-23T13:10:18Z</time>
      </trkpt>
      <trkpt lat="48.02387" lon="5.0599">
        <ele>341.65</ele>
        <time>2021-06-23T13:10:27Z</time>
      </trkpt>
      <trkpt lat="48.02345" lon="5.05992">
        <ele>341.29</ele>
        <time>2021-06-23T13:10:35Z</time>
      </trkpt>
      <trkpt lat="48.02312" lon="5.0599">
        <ele>341</ele>
        <time>2021-06-23T13:10:43Z</time>
      </trkpt>
      <trkpt lat="48.02266" lon="5.0597">
        <ele>341.57</ele>
        <time>2021-06-23T13:10:51Z</time>
      </trkpt>
      <trkpt lat="48.02211" lon="5.05944">
        <ele>340.97</ele>
        <time>2021-06-23T13:10:59Z</time>
      </trkpt>
      <trkpt lat="48.022" lon="5.05935">
        <ele>340.67</ele>
        <time>2021-06-23T13:11:07Z</time>
      </trkpt>
      <trkpt lat="48.0215" lon="5.06009">
        <ele>342.18</ele>
        <time>2021-06-23T13:11:11Z</time>
      </trkpt>
      <trkpt lat="48.02054" lon="5.06162">
        <ele>342.16</ele>
        <time>2021-06-23T13:11:16Z</time>
      </trkpt>
      <trkpt lat="48.0198" lon="5.06307">
        <ele>341.02</ele>
        <time>2021-06-23T13:11:20Z</time>
      </trkpt>
      <trkpt lat="48.01977" lon="5.06321">
        <ele>341.35</ele>
        <time>2021-06-23T13:11:25Z</time>
      </trkpt>
      <trkpt lat="48.01975" lon="5.06346">
        <ele>341.77</ele>
        <time>2021-06-23T13:11:29Z</time>
      </trkpt>
      <trkpt lat="48.01976" lon="5.06398">
        <ele>341.78</ele>
        <time>2021-06-23T13:11:33Z</time>
      </trkpt>
      <trkpt lat="48.01984" lon="5.06452">
        <ele>341.57</ele>
        <time>2021-06-23T13:11:38Z</time>
      </trkpt>
      <trkpt lat="48.02022" lon="5.0668">
        <ele>339.79</ele>
        <time>2021-06-23T13:11:42Z</time>
      </trkpt>
      <trkpt lat="48.02024" lon="5.06718">
        <ele>339.14</ele>
        <time>2021-06-23T13:11:46Z</time>
      </trkpt>
      <trkpt lat="48.02018" lon="5.06774">
        <ele>339</ele>
        <time>2021-06-23T13:11:51Z</time>
      </trkpt>
      <trkpt lat="48.02019" lon="5.06794">
        <ele>339.19</ele>
        <time>2021-06-23T13:11:55Z</time>
      </trkpt>
      <trkpt lat="48.0203" lon="5.06826">
        <ele>338.92</ele>
        <time>2021-06-23T13:11:59Z</time>
      </trkpt>
      <trkpt lat="48.02076" lon="5.06909">
        <ele>340.9</ele>
        <time>2021-06-23T13:12:04Z</time>
      </trkpt>
      <trkpt lat="48.02092" lon="5.06953">
        <ele>341.78</ele>
        <time>2021-06-23T13:12:08Z</time>
      </trkpt>
      <trkpt lat="48.02104" lon="5.07007">
        <ele>342.07</ele>
        <time>2021-06-23T13:12:12Z</time>
      </trkpt>
      <trkpt lat="48.02116" lon="5.07114">
        <ele>343.07</ele>
        <time>2021-06-23T13:12:17Z</time>
      </trkpt>
      <trkpt lat="48.02114" lon="5.07215">
        <ele>342.92</ele>
        <time>2021-06-23T13:12:21Z</time>
      </trkpt>
      <trkpt lat="48.02094" lon="5.07348">
        <ele>342.62</ele>
        <time>2021-06-23T13:12:26Z</time>
      </trkpt>
      <trkpt lat="48.02072" lon="5.07439">
        <ele>343.64</ele>
        <time>2021-06-23T13:12:30Z</time>
      </trkpt>
      <trkpt lat="48.02044" lon="5.0754">
        <ele>344.24</ele>
        <time>2021-06-23T13:12:34Z</time>
      </trkpt>
      <trkpt lat="48.0202" lon="5.07642">
        <ele>345.92</ele>
        <time>2021-06-23T13:12:39Z</time>
      </trkpt>
      <trkpt lat="48.02002" lon="5.07756">
        <ele>346</ele>
        <time>2021-06-23T13:12:43Z</time>
      </trkpt>
      <trkpt lat="48.01989" lon="5.07895">
        <ele>342.77</ele>
        <time>2021-06-23T13:12:47Z</time>
      </trkpt>
      <trkpt lat="48.01977" lon="5.08093">
        <ele>336.17</ele>
        <time>2021-06-23T13:12:52Z</time>
      </trkpt>
      <trkpt lat="48.0197" lon="5.08166">
        <ele>335</ele>
        <time>2021-06-23T13:12:56Z</time>
      </trkpt>
      <trkpt lat="48.01972" lon="5.08203">
        <ele>335</ele>
        <time>2021-06-23T13:13:00Z</time>
      </trkpt>
      <trkpt lat="48.01996" lon="5.08316">
        <ele>335</ele>
        <time>2021-06-23T13:13:05Z</time>
      </trkpt>
      <trkpt lat="48.01998" lon="5.0838">
        <ele>334.97</ele>
        <time>2021-06-23T13:13:09Z</time>
      </trkpt>
      <trkpt lat="48.01988" lon="5.08439">
        <ele>333.24</ele>
        <time>2021-06-23T13:13:13Z</time>
      </trkpt>
      <trkpt lat="48.01981" lon="5.08539">
        <ele>329.84</ele>
        <time>2021-06-23T13:13:18Z</time>
      </trkpt>
      <trkpt lat="48.01978" lon="5.08707">
        <ele>316</ele>
        <time>2021-06-23T13:13:22Z</time>
      </trkpt>
      <trkpt lat="48.01979" lon="5.08725">
        <ele>316.2</ele>
        <time>2021-06-23T13:13:27Z</time>
      </trkpt>
      <trkpt lat="48.01982" lon="5.08744">
        <ele>317.83</ele>
        <time>2021-06-23T13:13:31Z</time>
      </trkpt>
      <trkpt lat="48.01988" lon="5.08761">
        <ele>320.53</ele>
        <time>2021-06-23T13:13:35Z</time>
      </trkpt>
      <trkpt lat="48.02014" lon="5.08804">
        <ele>325.86</ele>
        <time>2021-06-23T13:13:40Z</time>
      </trkpt>
      <trkpt lat="48.02016" lon="5.08811">
        <ele>326.11</ele>
        <time>2021-06-23T13:13:44Z</time>
      </trkpt>
      <trkpt lat="48.02018" lon="5.08827">
        <ele>326.79</ele>
        <time>2021-06-23T13:13:48Z</time>
      </trkpt>
      <trkpt lat="48.02015" lon="5.08844">
        <ele>327.41</ele>
        <time>2021-06-23T13:13:53Z</time>
      </trkpt>
      <trkpt lat="48.01987" lon="5.08912">
        <ele>331.66</ele>
        <time>2021-06-23T13:13:57Z</time>
      </trkpt>
      <trkpt lat="48.01969" lon="5.08952">
        <ele>335.11</ele>
        <time>2021-06-23T13:14:01Z</time>
      </trkpt>
      <trkpt lat="48.01944" lon="5.09005">
        <ele>336</ele>
        <time>2021-06-23T13:14:06Z</time>
      </trkpt>
      <trkpt lat="48.01931" lon="5.09053">
        <ele>337.4</ele>
        <time>2021-06-23T13:14:10Z</time>
      </trkpt>
      <trkpt lat="48.01926" lon="5.09089">
        <ele>337.65</ele>
        <time>2021-06-23T13:14:14Z</time>
      </trkpt>
      <trkpt lat="48.01903" lon="5.09628">
        <ele>342.9</ele>
        <time>2021-06-23T13:14:19Z</time>
      </trkpt>
      <trkpt lat="48.01903" lon="5.0966">
        <ele>345.92</ele>
        <time>2021-06-23T13:14:23Z</time>
      </trkpt>
      <trkpt lat="48.01913" lon="5.0986">
        <ele>356.13</ele>
        <time>2021-06-23T13:14:28Z</time>
      </trkpt>
      <trkpt lat="48.01912" lon="5.099">
        <ele>358.99</ele>
        <time>2021-06-23T13:14:32Z</time>
      </trkpt>
      <trkpt lat="48.01907" lon="5.09967">
        <ele>360.54</ele>
        <time>2021-06-23T13:14:36Z</time>
      </trkpt>
      <trkpt lat="48.01893" lon="5.1008">
        <ele>361.76</ele>
        <time>2021-06-23T13:14:41Z</time>
      </trkpt>
      <trkpt lat="48.01891" lon="5.10113">
        <ele>363.08</ele>
        <time>2021-06-23T13:14:45Z</time>
      </trkpt>
      <trkpt lat="48.01893" lon="5.10139">
        <ele>364</ele>
        <time>2021-06-23T13:14:49Z</time>
      </trkpt>
      <trkpt lat="48.01909" lon="5.10274">
        <ele>368.35</ele>
        <time>2021-06-23T13:14:54Z</time>
      </trkpt>
      <trkpt lat="48.01932" lon="5.10476">
        <ele>371.14</ele>
        <time>2021-06-23T13:14:58Z</time>
      </trkpt>
      <trkpt lat="48.01936" lon="5.10517">
        <ele>372.8</ele>
        <time>2021-06-23T13:15:02Z</time>
      </trkpt>
      <trkpt lat="48.01937" lon="5.10542">
        <ele>373.65</ele>
        <time>2021-06-23T13:15:07Z</time>
      </trkpt>
      <trkpt lat="48.01935" lon="5.10605">
        <ele>373</ele>
        <time>2021-06-23T13:15:11Z</time>
      </trkpt>
      <trkpt lat="48.01928" lon="5.10817">
        <ele>374.76</ele>
        <time>2021-06-23T13:15:15Z</time>
      </trkpt>
      <trkpt lat="48.01924" lon="5.10865">
        <ele>375.28</ele>
        <time>2021-06-23T13:15:20Z</time>
      </trkpt>
      <trkpt lat="48.01834" lon="5.11185">
        <ele>375.17</ele>
        <time>2021-06-23T13:15:24Z</time>
      </trkpt>
      <trkpt lat="48.01834" lon="5.11185">
        <ele>375.17</ele>
        <time>2021-06-23T13:15:24Z</time>
      </trkpt>
      <trkpt lat="48.01564" lon="5.1213">
        <ele>375.46</ele>
        <time>2021-06-23T13:15:29Z</time>
      </trkpt>
      <trkpt lat="48.01542" lon="5.12217">
        <ele>374.61</ele>
        <time>2021-06-23T13:15:33Z</time>
      </trkpt>
      <trkpt lat="48.01534" lon="5.12264">
        <ele>373.61</ele>
        <time>2021-06-23T13:15:38Z</time>
      </trkpt>
      <trkpt lat="48.01529" lon="5.12311">
        <ele>372.99</ele>
        <time>2021-06-23T13:15:42Z</time>
      </trkpt>
      <trkpt lat="48.01458" lon="5.13642">
        <ele>376.54</ele>
        <time>2021-06-23T13:15:46Z</time>
      </trkpt>
      <trkpt lat="48.01456" lon="5.13703">
        <ele>377.4</ele>
        <time>2021-06-23T13:15:51Z</time>
      </trkpt>
      <trkpt lat="48.01457" lon="5.13758">
        <ele>375.72</ele>
        <time>2021-06-23T13:15:55Z</time>
      </trkpt>
      <trkpt lat="48.01469" lon="5.13861">
        <ele>372.92</ele>
        <time>2021-06-23T13:16:00Z</time>
      </trkpt>
      <trkpt lat="48.01594" lon="5.14771">
        <ele>350.95</ele>
        <time>2021-06-23T13:16:04Z</time>
      </trkpt>
      <trkpt lat="48.01602" lon="5.14798">
        <ele>350.57</ele>
        <time>2021-06-23T13:16:09Z</time>
      </trkpt>
      <trkpt lat="48.01607" lon="5.14813">
        <ele>350.23</ele>
        <time>2021-06-23T13:16:13Z</time>
      </trkpt>
      <trkpt lat="48.01623" lon="5.14844">
        <ele>349.27</ele>
        <time>2021-06-23T13:16:18Z</time>
      </trkpt>
      <trkpt lat="48.01634" lon="5.1486">
        <ele>349.04</ele>
        <time>2021-06-23T13:16:22Z</time>
      </trkpt>
      <trkpt lat="48.01818" lon="5.15065">
        <ele>345.22</ele>
        <time>2021-06-23T13:16:27Z</time>
      </trkpt>
      <trkpt lat="48.01851" lon="5.15097">
        <ele>344.18</ele>
        <time>2021-06-23T13:16:31Z</time>
      </trkpt>
      <trkpt lat="48.01888" lon="5.15127">
        <ele>344.99</ele>
        <time>2021-06-23T13:16:35Z</time>
      </trkpt>
      <trkpt lat="48.01982" lon="5.15193">
        <ele>343.73</ele>
        <time>2021-06-23T13:16:40Z</time>
      </trkpt>
      <trkpt lat="48.02018" lon="5.15222">
        <ele>341.05</ele>
        <time>2021-06-23T13:16:44Z</time>
      </trkpt>
      <trkpt lat="48.02039" lon="5.15242">
        <ele>339.18</ele>
        <time>2021-06-23T13:16:49Z</time>
      </trkpt>
      <trkpt lat="48.02077" lon="5.15286">
        <ele>335.53</ele>
        <time>2021-06-23T13:16:53Z</time>
      </trkpt>
      <trkpt lat="48.02143" lon="5.1534">
        <ele>335.83</ele>
        <time>2021-06-23T13:16:58Z</time>
      </trkpt>
      <trkpt lat="48.02191" lon="5.15385">
        <ele>337.75</ele>
        <time>2021-06-23T13:17:02Z</time>
      </trkpt>
      <trkpt lat="48.02225" lon="5.15423">
        <ele>338.77</ele>
        <time>2021-06-23T13:17:07Z</time>
      </trkpt>
      <trkpt lat="48.0224" lon="5.15443">
        <ele>338.34</ele>
        <time>2021-06-23T13:17:11Z</time>
      </trkpt>
      <trkpt lat="48.02262" lon="5.15488">
        <ele>332.46</ele>
        <time>2021-06-23T13:17:16Z</time>
      </trkpt>
      <trkpt lat="48.02309" lon="5.15606">
        <ele>319.44</ele>
        <time>2021-06-23T13:17:20Z</time>
      </trkpt>
      <trkpt lat="48.02332" lon="5.1566">
        <ele>318.34</ele>
        <time>2021-06-23T13:17:25Z</time>
      </trkpt>
      <trkpt lat="48.02353" lon="5.15703">
        <ele>317.54</ele>
        <time>2021-06-23T13:17:29Z</time>
      </trkpt>
      <trkpt lat="48.02359" lon="5.15722">
        <ele>316</ele>
        <time>2021-06-23T13:17:33Z</time>
      </trkpt>
      <trkpt lat="48.02364" lon="5.15747">
        <ele>313.25</ele>
        <time>2021-06-23T13:17:38Z</time>
      </trkpt>
      <trkpt lat="48.02366" lon="5.15778">
        <ele>310.83</ele>
        <time>2021-06-23T13:17:42Z</time>
      </trkpt>
      <trkpt lat="48.02365" lon="5.15863">
        <ele>309.78</ele>
        <time>2021-06-23T13:17:47Z</time>
      </trkpt>
      <trkpt lat="48.02367" lon="5.15871">
        <ele>309.49</ele>
        <time>2021-06-23T13:17:51Z</time>
      </trkpt>
      <trkpt lat="48.02373" lon="5.15878">
        <ele>309.23</ele>
        <time>2021-06-23T13:17:56Z</time>
      </trkpt>
      <trkpt lat="48.0238" lon="5.15881">
        <ele>309.09</ele>
        <time>2021-06-23T13:18:00Z</time>
      </trkpt>
      <trkpt lat="48.02401" lon="5.15884">
        <ele>309</ele>
        <time>2021-06-23T13:18:05Z</time>
      </trkpt>
      <trkpt lat="48.02411" lon="5.15888">
        <ele>309</ele>
        <time>2021-06-23T13:18:09Z</time>
      </trkpt>
      <trkpt lat="48.02417" lon="5.15895">
        <ele>308.78</ele>
        <time>2021-06-23T13:18:14Z</time>
      </trkpt>
      <trkpt lat="48.02434" lon="5.15946">
        <ele>308.64</ele>
        <time>2021-06-23T13:18:18Z</time>
      </trkpt>
      <trkpt lat="48.02439" lon="5.15974">
        <ele>309.05</ele>
        <time>2021-06-23T13:18:22Z</time>
      </trkpt>
      <trkpt lat="48.02432" lon="5.16184">
        <ele>311.63</ele>
        <time>2021-06-23T13:18:27Z</time>
      </trkpt>
      <trkpt lat="48.02435" lon="5.16312">
        <ele>313.09</ele>
        <time>2021-06-23T13:18:31Z</time>
      </trkpt>
      <trkpt lat="48.02437" lon="5.16343">
        <ele>313.66</ele>
        <time>2021-06-23T13:18:36Z</time>
      </trkpt>
      <trkpt lat="48.02443" lon="5.16375">
        <ele>314.34</ele>
        <time>2021-06-23T13:18:40Z</time>
      </trkpt>
      <trkpt lat="48.0246" lon="5.16433">
        <ele>320.07</ele>
        <time>2021-06-23T13:18:45Z</time>
      </trkpt>
      <trkpt lat="48.02464" lon="5.16453">
        <ele>321.02</ele>
        <time>2021-06-23T13:18:49Z</time>
      </trkpt>
      <trkpt lat="48.02465" lon="5.16473">
        <ele>321.48</ele>
        <time>2021-06-23T13:18:54Z</time>
      </trkpt>
      <trkpt lat="48.02462" lon="5.16511">
        <ele>321.56</ele>
        <time>2021-06-23T13:18:58Z</time>
      </trkpt>
      <trkpt lat="48.02454" lon="5.16576">
        <ele>324.59</ele>
        <time>2021-06-23T13:19:03Z</time>
      </trkpt>
      <trkpt lat="48.02444" lon="5.16631">
        <ele>328.05</ele>
        <time>2021-06-23T13:19:07Z</time>
      </trkpt>
      <trkpt lat="48.02397" lon="5.1688">
        <ele>341.48</ele>
        <time>2021-06-23T13:19:11Z</time>
      </trkpt>
      <trkpt lat="48.02391" lon="5.16899">
        <ele>342.09</ele>
        <time>2021-06-23T13:19:16Z</time>
      </trkpt>
      <trkpt lat="48.02379" lon="5.16926">
        <ele>342.19</ele>
        <time>2021-06-23T13:19:20Z</time>
      </trkpt>
      <trkpt lat="48.02334" lon="5.17002">
        <ele>352.3</ele>
        <time>2021-06-23T13:19:25Z</time>
      </trkpt>
      <trkpt lat="48.02313" lon="5.17028">
        <ele>353.06</ele>
        <time>2021-06-23T13:19:29Z</time>
      </trkpt>
      <trkpt lat="48.02284" lon="5.17055">
        <ele>354.39</ele>
        <time>2021-06-23T13:19:34Z</time>
      </trkpt>
      <trkpt lat="48.02231" lon="5.17101">
        <ele>356.45</ele>
        <time>2021-06-23T13:19:38Z</time>
      </trkpt>
      <trkpt lat="48.02215" lon="5.17119">
        <ele>357.71</ele>
        <time>2021-06-23T13:19:43Z</time>
      </trkpt>
      <trkpt lat="48.02176" lon="5.17174">
        <ele>361.53</ele>
        <time>2021-06-23T13:19:47Z</time>
      </trkpt>
      <trkpt lat="48.02165" lon="5.17203">
        <ele>362.1</ele>
        <time>2021-06-23T13:19:52Z</time>
      </trkpt>
      <trkpt lat="48.02162" lon="5.17213">
        <ele>362.27</ele>
        <time>2021-06-23T13:19:56Z</time>
      </trkpt>
      <trkpt lat="48.02161" lon="5.1724">
        <ele>363.73</ele>
        <time>2021-06-23T13:20:00Z</time>
      </trkpt>
      <trkpt lat="48.02166" lon="5.17259">
        <ele>364.43</ele>
        <time>2021-06-23T13:20:05Z</time>
      </trkpt>
      <trkpt lat="48.02176" lon="5.1728">
        <ele>364.4</ele>
        <time>2021-06-23T13:20:09Z</time>
      </trkpt>
      <trkpt lat="48.0219" lon="5.17297">
        <ele>364.02</ele>
        <time>2021-06-23T13:20:14Z</time>
      </trkpt>
      <trkpt lat="48.02206" lon="5.17309">
        <ele>364.17</ele>
        <time>2021-06-23T13:20:18Z</time>
      </trkpt>
      <trkpt lat="48.02617" lon="5.17461">
        <ele>376.05</ele>
        <time>2021-06-23T13:20:23Z</time>
      </trkpt>
      <trkpt lat="48.02627" lon="5.17466">
        <ele>376.13</ele>
        <time>2021-06-23T13:20:27Z</time>
      </trkpt>
      <trkpt lat="48.02643" lon="5.1748">
        <ele>376.09</ele>
        <time>2021-06-23T13:20:32Z</time>
      </trkpt>
      <trkpt lat="48.02667" lon="5.17509">
        <ele>375.34</ele>
        <time>2021-06-23T13:20:36Z</time>
      </trkpt>
      <trkpt lat="48.02688" lon="5.17553">
        <ele>376.92</ele>
        <time>2021-06-23T13:20:41Z</time>
      </trkpt>
      <trkpt lat="48.02704" lon="5.17599">
        <ele>376.64</ele>
        <time>2021-06-23T13:20:45Z</time>
      </trkpt>
      <trkpt lat="48.02743" lon="5.17715">
        <ele>377.53</ele>
        <time>2021-06-23T13:20:49Z</time>
      </trkpt>
      <trkpt lat="48.02754" lon="5.17756">
        <ele>378.11</ele>
        <time>2021-06-23T13:20:54Z</time>
      </trkpt>
      <trkpt lat="48.02764" lon="5.17802">
        <ele>380.31</ele>
        <time>2021-06-23T13:20:58Z</time>
      </trkpt>
      <trkpt lat="48.02783" lon="5.17944">
        <ele>383.6</ele>
        <time>2021-06-23T13:21:03Z</time>
      </trkpt>
      <trkpt lat="48.02791" lon="5.17976">
        <ele>384.6</ele>
        <time>2021-06-23T13:21:07Z</time>
      </trkpt>
      <trkpt lat="48.02816" lon="5.18058">
        <ele>387.1</ele>
        <time>2021-06-23T13:21:12Z</time>
      </trkpt>
      <trkpt lat="48.02822" lon="5.18085">
        <ele>388.05</ele>
        <time>2021-06-23T13:21:16Z</time>
      </trkpt>
      <trkpt lat="48.02842" lon="5.18197">
        <ele>391.39</ele>
        <time>2021-06-23T13:21:21Z</time>
      </trkpt>
      <trkpt lat="48.02853" lon="5.18295">
        <ele>396.22</ele>
        <time>2021-06-23T13:21:25Z</time>
      </trkpt>
      <trkpt lat="48.02872" lon="5.18413">
        <ele>397.38</ele>
        <time>2021-06-23T13:21:30Z</time>
      </trkpt>
      <trkpt lat="48.0288" lon="5.18487">
        <ele>398.38</ele>
        <time>2021-06-23T13:21:34Z</time>
      </trkpt>
      <trkpt lat="48.02883" lon="5.18525">
        <ele>397.85</ele>
        <time>2021-06-23T13:21:39Z</time>
      </trkpt>
      <trkpt lat="48.02882" lon="5.18567">
        <ele>397.17</ele>
        <time>2021-06-23T13:21:43Z</time>
      </trkpt>
      <trkpt lat="48.02872" lon="5.18676">
        <ele>390.46</ele>
        <time>2021-06-23T13:21:47Z</time>
      </trkpt>
      <trkpt lat="48.02875" lon="5.18714">
        <ele>389.63</ele>
        <time>2021-06-23T13:21:52Z</time>
      </trkpt>
      <trkpt lat="48.02916" lon="5.18991">
        <ele>378.26</ele>
        <time>2021-06-23T13:21:56Z</time>
      </trkpt>
      <trkpt lat="48.02926" lon="5.19035">
        <ele>377.33</ele>
        <time>2021-06-23T13:22:01Z</time>
      </trkpt>
      <trkpt lat="48.0297" lon="5.19203">
        <ele>375.39</ele>
        <time>2021-06-23T13:22:05Z</time>
      </trkpt>
      <trkpt lat="48.02997" lon="5.19301">
        <ele>374.88</ele>
        <time>2021-06-23T13:22:10Z</time>
      </trkpt>
      <trkpt lat="48.03008" lon="5.19338">
        <ele>374.2</ele>
        <time>2021-06-23T13:22:14Z</time>
      </trkpt>
      <trkpt lat="48.03025" lon="5.19382">
        <ele>370.4</ele>
        <time>2021-06-23T13:22:19Z</time>
      </trkpt>
      <trkpt lat="48.03043" lon="5.19421">
        <ele>368.99</ele>
        <time>2021-06-23T13:22:23Z</time>
      </trkpt>
      <trkpt lat="48.03085" lon="5.19499">
        <ele>366.87</ele>
        <time>2021-06-23T13:22:28Z</time>
      </trkpt>
      <trkpt lat="48.03124" lon="5.19558">
        <ele>367.94</ele>
        <time>2021-06-23T13:22:32Z</time>
      </trkpt>
      <trkpt lat="48.0315" lon="5.19589">
        <ele>370.05</ele>
        <time>2021-06-23T13:22:36Z</time>
      </trkpt>
      <trkpt lat="48.03234" lon="5.19682">
        <ele>370.96</ele>
        <time>2021-06-23T13:22:41Z</time>
      </trkpt>
      <trkpt lat="48.03256" lon="5.19712">
        <ele>372.22</ele>
        <time>2021-06-23T13:22:45Z</time>
      </trkpt>
      <trkpt lat="48.03273" lon="5.1974">
        <ele>373.82</ele>
        <time>2021-06-23T13:22:50Z</time>
      </trkpt>
      <trkpt lat="48.03292" lon="5.19776">
        <ele>374.05</ele>
        <time>2021-06-23T13:22:54Z</time>
      </trkpt>
      <trkpt lat="48.03315" lon="5.19836">
        <ele>372.64</ele>
        <time>2021-06-23T13:22:59Z</time>
      </trkpt>
      <trkpt lat="48.03345" lon="5.19954">
        <ele>369.33</ele>
        <time>2021-06-23T13:23:03Z</time>
      </trkpt>
      <trkpt lat="48.03368" lon="5.20015">
        <ele>364.07</ele>
        <time>2021-06-23T13:23:08Z</time>
      </trkpt>
      <trkpt lat="48.03383" lon="5.20044">
        <ele>362.86</ele>
        <time>2021-06-23T13:23:12Z</time>
      </trkpt>
      <trkpt lat="48.03405" lon="5.20078">
        <ele>359.84</ele>
        <time>2021-06-23T13:23:17Z</time>
      </trkpt>
      <trkpt lat="48.03425" lon="5.20102">
        <ele>358.54</ele>
        <time>2021-06-23T13:23:21Z</time>
      </trkpt>
      <trkpt lat="48.03475" lon="5.20151">
        <ele>357.14</ele>
        <time>2021-06-23T13:23:25Z</time>
      </trkpt>
      <trkpt lat="48.03693" lon="5.20355">
        <ele>341.44</ele>
        <time>2021-06-23T13:23:30Z</time>
      </trkpt>
      <trkpt lat="48.03711" lon="5.20368">
        <ele>340.53</ele>
        <time>2021-06-23T13:23:34Z</time>
      </trkpt>
      <trkpt lat="48.03733" lon="5.20377">
        <ele>339.46</ele>
        <time>2021-06-23T13:23:39Z</time>
      </trkpt>
      <trkpt lat="48.03755" lon="5.20384">
        <ele>337.68</ele>
        <time>2021-06-23T13:23:43Z</time>
      </trkpt>
      <trkpt lat="48.03792" lon="5.20389">
        <ele>333.48</ele>
        <time>2021-06-23T13:23:48Z</time>
      </trkpt>
      <trkpt lat="48.03802" lon="5.20395">
        <ele>332.92</ele>
        <time>2021-06-23T13:23:52Z</time>
      </trkpt>
      <trkpt lat="48.03806" lon="5.20401">
        <ele>332.58</ele>
        <time>2021-06-23T13:23:57Z</time>
      </trkpt>
      <trkpt lat="48.03811" lon="5.20419">
        <ele>331.98</ele>
        <time>2021-06-23T13:24:01Z</time>
      </trkpt>
      <trkpt lat="48.0381" lon="5.20435">
        <ele>331.91</ele>
        <time>2021-06-23T13:24:06Z</time>
      </trkpt>
      <trkpt lat="48.03807" lon="5.20442">
        <ele>331.95</ele>
        <time>2021-06-23T13:24:10Z</time>
      </trkpt>
      <trkpt lat="48.0378" lon="5.20485">
        <ele>332.41</ele>
        <time>2021-06-23T13:24:14Z</time>
      </trkpt>
      <trkpt lat="48.03775" lon="5.20503">
        <ele>331.98</ele>
        <time>2021-06-23T13:24:19Z</time>
      </trkpt>
      <trkpt lat="48.03774" lon="5.20529">
        <ele>331.09</ele>
        <time>2021-06-23T13:24:23Z</time>
      </trkpt>
      <trkpt lat="48.03777" lon="5.20544">
        <ele>330.45</ele>
        <time>2021-06-23T13:24:28Z</time>
      </trkpt>
      <trkpt lat="48.03786" lon="5.20562">
        <ele>329.79</ele>
        <time>2021-06-23T13:24:32Z</time>
      </trkpt>
      <trkpt lat="48.03854" lon="5.20672">
        <ele>323.11</ele>
        <time>2021-06-23T13:24:37Z</time>
      </trkpt>
      <trkpt lat="48.03869" lon="5.20709">
        <ele>320.66</ele>
        <time>2021-06-23T13:24:41Z</time>
      </trkpt>
      <trkpt lat="48.03873" lon="5.20726">
        <ele>320.27</ele>
        <time>2021-06-23T13:24:46Z</time>
      </trkpt>
      <trkpt lat="48.03877" lon="5.20756">
        <ele>318.86</ele>
        <time>2021-06-23T13:24:50Z</time>
      </trkpt>
      <trkpt lat="48.03877" lon="5.20862">
        <ele>311.32</ele>
        <time>2021-06-23T13:24:55Z</time>
      </trkpt>
      <trkpt lat="48.03873" lon="5.20951">
        <ele>306.86</ele>
        <time>2021-06-23T13:24:59Z</time>
      </trkpt>
      <trkpt lat="48.03847" lon="5.21157">
        <ele>298.72</ele>
        <time>2021-06-23T13:25:03Z</time>
      </trkpt>
      <trkpt lat="48.03845" lon="5.21163">
        <ele>298.42</ele>
        <time>2021-06-23T13:25:08Z</time>
      </trkpt>
      <trkpt lat="48.03838" lon="5.21175">
        <ele>298.14</ele>
        <time>2021-06-23T13:25:12Z</time>
      </trkpt>
      <trkpt lat="48.03789" lon="5.21238">
        <ele>294.85</ele>
        <time>2021-06-23T13:25:17Z</time>
      </trkpt>
      <trkpt lat="48.03785" lon="5.21251">
        <ele>294.26</ele>
        <time>2021-06-23T13:25:21Z</time>
      </trkpt>
      <trkpt lat="48.03784" lon="5.21266">
        <ele>294.2</ele>
        <time>2021-06-23T13:25:26Z</time>
      </trkpt>
      <trkpt lat="48.03786" lon="5.21298">
        <ele>294.8</ele>
        <time>2021-06-23T13:25:30Z</time>
      </trkpt>
      <trkpt lat="48.03807" lon="5.21464">
        <ele>296.18</ele>
        <time>2021-06-23T13:25:35Z</time>
      </trkpt>
      <trkpt lat="48.03812" lon="5.21481">
        <ele>295.37</ele>
        <time>2021-06-23T13:25:39Z</time>
      </trkpt>
      <trkpt lat="48.0378" lon="5.21573">
        <ele>294.86</ele>
        <time>2021-06-23T13:25:44Z</time>
      </trkpt>
      <trkpt lat="48.03761" lon="5.21618">
        <ele>295.09</ele>
        <time>2021-06-23T13:25:49Z</time>
      </trkpt>
      <trkpt lat="48.03702" lon="5.21722">
        <ele>296.42</ele>
        <time>2021-06-23T13:25:54Z</time>
      </trkpt>
      <trkpt lat="48.03663" lon="5.21783">
        <ele>297.8</ele>
        <time>2021-06-23T13:25:59Z</time>
      </trkpt>
      <trkpt lat="48.03611" lon="5.21874">
        <ele>296.55</ele>
        <time>2021-06-23T13:26:04Z</time>
      </trkpt>
      <trkpt lat="48.03599" lon="5.21897">
        <ele>295.88</ele>
        <time>2021-06-23T13:26:09Z</time>
      </trkpt>
      <trkpt lat="48.03589" lon="5.2193">
        <ele>294.62</ele>
        <time>2021-06-23T13:26:14Z</time>
      </trkpt>
      <trkpt lat="48.03584" lon="5.21955">
        <ele>293.62</ele>
        <time>2021-06-23T13:26:19Z</time>
      </trkpt>
      <trkpt lat="48.03582" lon="5.21977">
        <ele>293.04</ele>
        <time>2021-06-23T13:26:24Z</time>
      </trkpt>
      <trkpt lat="48.0358" lon="5.22173">
        <ele>296.35</ele>
        <time>2021-06-23T13:26:29Z</time>
      </trkpt>
      <trkpt lat="48.03574" lon="5.22237">
        <ele>297.87</ele>
        <time>2021-06-23T13:26:34Z</time>
      </trkpt>
      <trkpt lat="48.03563" lon="5.22301">
        <ele>300.58</ele>
        <time>2021-06-23T13:26:39Z</time>
      </trkpt>
      <trkpt lat="48.0355" lon="5.22354">
        <ele>302.42</ele>
        <time>2021-06-23T13:26:44Z</time>
      </trkpt>
      <trkpt lat="48.03539" lon="5.22391">
        <ele>303.29</ele>
        <time>2021-06-23T13:26:49Z</time>
      </trkpt>
      <trkpt lat="48.03397" lon="5.22795">
        <ele>316.33</ele>
        <time>2021-06-23T13:26:53Z</time>
      </trkpt>
      <trkpt lat="48.03368" lon="5.22864">
        <ele>320.92</ele>
        <time>2021-06-23T13:26:58Z</time>
      </trkpt>
      <trkpt lat="48.03347" lon="5.22903">
        <ele>323.52</ele>
        <time>2021-06-23T13:27:03Z</time>
      </trkpt>
      <trkpt lat="48.03321" lon="5.22944">
        <ele>325.38</ele>
        <time>2021-06-23T13:27:08Z</time>
      </trkpt>
      <trkpt lat="48.03141" lon="5.23185">
        <ele>321.11</ele>
        <time>2021-06-23T13:27:13Z</time>
      </trkpt>
      <trkpt lat="48.03112" lon="5.2322">
        <ele>323.94</ele>
        <time>2021-06-23T13:27:18Z</time>
      </trkpt>
      <trkpt lat="48.03102" lon="5.2323">
        <ele>324.76</ele>
        <time>2021-06-23T13:27:23Z</time>
      </trkpt>
      <trkpt lat="48.03066" lon="5.23257">
        <ele>327.82</ele>
        <time>2021-06-23T13:27:28Z</time>
      </trkpt>
      <trkpt lat="48.03039" lon="5.23271">
        <ele>327.93</ele>
        <time>2021-06-23T13:27:33Z</time>
      </trkpt>
      <trkpt lat="48.03004" lon="5.23282">
        <ele>327.84</ele>
        <time>2021-06-23T13:27:38Z</time>
      </trkpt>
      <trkpt lat="48.02813" lon="5.23323">
        <ele>332.1</ele>
        <time>2021-06-23T13:27:43Z</time>
      </trkpt>
      <trkpt lat="48.02754" lon="5.23335">
        <ele>330.14</ele>
        <time>2021-06-23T13:27:48Z</time>
      </trkpt>
      <trkpt lat="48.02728" lon="5.23339">
        <ele>331.27</ele>
        <time>2021-06-23T13:27:53Z</time>
      </trkpt>
      <trkpt lat="48.0267" lon="5.2334">
        <ele>329.77</ele>
        <time>2021-06-23T13:27:58Z</time>
      </trkpt>
      <trkpt lat="48.02626" lon="5.23338">
        <ele>328.07</ele>
        <time>2021-06-23T13:28:03Z</time>
      </trkpt>
      <trkpt lat="48.02589" lon="5.23331">
        <ele>328.96</ele>
        <time>2021-06-23T13:28:08Z</time>
      </trkpt>
      <trkpt lat="48.02555" lon="5.2332">
        <ele>329.99</ele>
        <time>2021-06-23T13:28:13Z</time>
      </trkpt>
      <trkpt lat="48.02445" lon="5.23267">
        <ele>331.01</ele>
        <time>2021-06-23T13:28:18Z</time>
      </trkpt>
      <trkpt lat="48.02423" lon="5.23259">
        <ele>330.52</ele>
        <time>2021-06-23T13:28:23Z</time>
      </trkpt>
      <trkpt lat="48.02389" lon="5.23252">
        <ele>330.83</ele>
        <time>2021-06-23T13:28:28Z</time>
      </trkpt>
      <trkpt lat="48.02365" lon="5.23252">
        <ele>330.83</ele>
        <time>2021-06-23T13:28:33Z</time>
      </trkpt>
      <trkpt lat="48.02338" lon="5.23256">
        <ele>330.09</ele>
        <time>2021-06-23T13:28:38Z</time>
      </trkpt>
      <trkpt lat="48.02307" lon="5.23266">
        <ele>331.1</ele>
        <time>2021-06-23T13:28:42Z</time>
      </trkpt>
      <trkpt lat="48.02283" lon="5.23276">
        <ele>334.4</ele>
        <time>2021-06-23T13:28:47Z</time>
      </trkpt>
      <trkpt lat="48.02052" lon="5.23405">
        <ele>331.61</ele>
        <time>2021-06-23T13:28:52Z</time>
      </trkpt>
      <trkpt lat="48.02002" lon="5.23436">
        <ele>333.17</ele>
        <time>2021-06-23T13:28:57Z</time>
      </trkpt>
      <trkpt lat="48.01977" lon="5.23457">
        <ele>333.35</ele>
        <time>2021-06-23T13:29:02Z</time>
      </trkpt>
      <trkpt lat="48.01944" lon="5.23495">
        <ele>333</ele>
        <time>2021-06-23T13:29:07Z</time>
      </trkpt>
      <trkpt lat="48.0192" lon="5.2353">
        <ele>331.63</ele>
        <time>2021-06-23T13:29:12Z</time>
      </trkpt>
      <trkpt lat="48.01507" lon="5.24217">
        <ele>330.49</ele>
        <time>2021-06-23T13:29:17Z</time>
      </trkpt>
      <trkpt lat="48.01507" lon="5.24217">
        <ele>330.49</ele>
        <time>2021-06-23T13:29:17Z</time>
      </trkpt>
      <trkpt lat="48.01325" lon="5.24518">
        <ele>328.56</ele>
        <time>2021-06-23T13:29:23Z</time>
      </trkpt>
      <trkpt lat="48.01291" lon="5.24569">
        <ele>328.12</ele>
        <time>2021-06-23T13:29:29Z</time>
      </trkpt>
      <trkpt lat="48.01256" lon="5.24613">
        <ele>328.22</ele>
        <time>2021-06-23T13:29:35Z</time>
      </trkpt>
      <trkpt lat="48.01222" lon="5.2465">
        <ele>326.69</ele>
        <time>2021-06-23T13:29:41Z</time>
      </trkpt>
      <trkpt lat="48.01177" lon="5.24689">
        <ele>320.5</ele>
        <time>2021-06-23T13:29:47Z</time>
      </trkpt>
      <trkpt lat="48.01039" lon="5.24788">
        <ele>307.69</ele>
        <time>2021-06-23T13:29:53Z</time>
      </trkpt>
      <trkpt lat="48.00912" lon="5.24875">
        <ele>301.8</ele>
        <time>2021-06-23T13:29:59Z</time>
      </trkpt>
      <trkpt lat="48.00825" lon="5.2492">
        <ele>298.14</ele>
        <time>2021-06-23T13:30:04Z</time>
      </trkpt>
      <trkpt lat="48.00706" lon="5.24973">
        <ele>294.58</ele>
        <time>2021-06-23T13:30:10Z</time>
      </trkpt>
      <trkpt lat="48.00662" lon="5.24981">
        <ele>299.15</ele>
        <time>2021-06-23T13:30:16Z</time>
      </trkpt>
      <trkpt lat="48.00572" lon="5.24992">
        <ele>300.91</ele>
        <time>2021-06-23T13:30:22Z</time>
      </trkpt>
      <trkpt lat="48.00542" lon="5.25">
        <ele>300.54</ele>
        <time>2021-06-23T13:30:28Z</time>
      </trkpt>
      <trkpt lat="48.00517" lon="5.25012">
        <ele>299.58</ele>
        <time>2021-06-23T13:30:34Z</time>
      </trkpt>
      <trkpt lat="48.00492" lon="5.25027">
        <ele>299.33</ele>
        <time>2021-06-23T13:30:40Z</time>
      </trkpt>
      <trkpt lat="48.0046" lon="5.25054">
        <ele>300.83</ele>
        <time>2021-06-23T13:30:46Z</time>
      </trkpt>
      <trkpt lat="48.00422" lon="5.25101">
        <ele>303.44</ele>
        <time>2021-06-23T13:30:52Z</time>
      </trkpt>
      <trkpt lat="48.0039" lon="5.25156">
        <ele>306.21</ele>
        <time>2021-06-23T13:30:58Z</time>
      </trkpt>
      <trkpt lat="48.00366" lon="5.25216">
        <ele>304.91</ele>
        <time>2021-06-23T13:31:04Z</time>
      </trkpt>
      <trkpt lat="48.00337" lon="5.25308">
        <ele>305.78</ele>
        <time>2021-06-23T13:31:09Z</time>
      </trkpt>
      <trkpt lat="48.00301" lon="5.25455">
        <ele>304.73</ele>
        <time>2021-06-23T13:31:15Z</time>
      </trkpt>
      <trkpt lat="48.00264" lon="5.25628">
        <ele>307.61</ele>
        <time>2021-06-23T13:31:21Z</time>
      </trkpt>
      <trkpt lat="48.00254" lon="5.25667">
        <ele>307.11</ele>
        <time>2021-06-23T13:31:27Z</time>
      </trkpt>
      <trkpt lat="48.00236" lon="5.25719">
        <ele>305.76</ele>
        <time>2021-06-23T13:31:33Z</time>
      </trkpt>
      <trkpt lat="48.00205" lon="5.2579">
        <ele>304.13</ele>
        <time>2021-06-23T13:31:39Z</time>
      </trkpt>
      <trkpt lat="48.00195" lon="5.25809">
        <ele>303.53</ele>
        <time>2021-06-23T13:31:45Z</time>
      </trkpt>
      <trkpt lat="48.0018" lon="5.25831">
        <ele>303.82</ele>
        <time>2021-06-23T13:31:51Z</time>
      </trkpt>
      <trkpt lat="48.00152" lon="5.25861">
        <ele>304.04</ele>
        <time>2021-06-23T13:31:57Z</time>
      </trkpt>
      <trkpt lat="48.00095" lon="5.25913">
        <ele>303.27</ele>
        <time>2021-06-23T13:32:03Z</time>
      </trkpt>
      <trkpt lat="48.00049" lon="5.25953">
        <ele>302.59</ele>
        <time>2021-06-23T13:32:09Z</time>
      </trkpt>
      <trkpt lat="48.00007" lon="5.25994">
        <ele>301.83</ele>
        <time>2021-06-23T13:32:14Z</time>
      </trkpt>
      <trkpt lat="47.99966" lon="5.26041">
        <ele>299.62</ele>
        <time>2021-06-23T13:32:20Z</time>
      </trkpt>
      <trkpt lat="47.99926" lon="5.26099">
        <ele>298.73</ele>
        <time>2021-06-23T13:32:26Z</time>
      </trkpt>
      <trkpt lat="47.99825" lon="5.26262">
        <ele>300.77</ele>
        <time>2021-06-23T13:32:32Z</time>
      </trkpt>
      <trkpt lat="47.9981" lon="5.26282">
        <ele>301.48</ele>
        <time>2021-06-23T13:32:38Z</time>
      </trkpt>
      <trkpt lat="47.99781" lon="5.26307">
        <ele>300.93</ele>
        <time>2021-06-23T13:32:44Z</time>
      </trkpt>
      <trkpt lat="47.99762" lon="5.2632">
        <ele>300.45</ele>
        <time>2021-06-23T13:32:50Z</time>
      </trkpt>
      <trkpt lat="47.99695" lon="5.26352">
        <ele>301.3</ele>
        <time>2021-06-23T13:32:56Z</time>
      </trkpt>
      <trkpt lat="47.99581" lon="5.26404">
        <ele>303.49</ele>
        <time>2021-06-23T13:33:02Z</time>
      </trkpt>
      <trkpt lat="47.99549" lon="5.26413">
        <ele>303.95</ele>
        <time>2021-06-23T13:33:08Z</time>
      </trkpt>
      <trkpt lat="47.99526" lon="5.26416">
        <ele>305.33</ele>
        <time>2021-06-23T13:33:14Z</time>
      </trkpt>
      <trkpt lat="47.99484" lon="5.2641">
        <ele>309.58</ele>
        <time>2021-06-23T13:33:19Z</time>
      </trkpt>
      <trkpt lat="47.99456" lon="5.26401">
        <ele>310.4</ele>
        <time>2021-06-23T13:33:25Z</time>
      </trkpt>
      <trkpt lat="47.99337" lon="5.26346">
        <ele>307.28</ele>
        <time>2021-06-23T13:33:31Z</time>
      </trkpt>
      <trkpt lat="47.99303" lon="5.26339">
        <ele>306.75</ele>
        <time>2021-06-23T13:33:37Z</time>
      </trkpt>
      <trkpt lat="47.99251" lon="5.26341">
        <ele>311.16</ele>
        <time>2021-06-23T13:33:43Z</time>
      </trkpt>
      <trkpt lat="47.99125" lon="5.26357">
        <ele>305.45</ele>
        <time>2021-06-23T13:33:49Z</time>
      </trkpt>
      <trkpt lat="47.99081" lon="5.26365">
        <ele>306.9</ele>
        <time>2021-06-23T13:33:55Z</time>
      </trkpt>
      <trkpt lat="47.99056" lon="5.26372">
        <ele>309.99</ele>
        <time>2021-06-23T13:34:01Z</time>
      </trkpt>
      <trkpt lat="47.99012" lon="5.26389">
        <ele>307.55</ele>
        <time>2021-06-23T13:34:07Z</time>
      </trkpt>
      <trkpt lat="47.98742" lon="5.2652">
        <ele>304.83</ele>
        <time>2021-06-23T13:34:13Z</time>
      </trkpt>
      <trkpt lat="47.9861" lon="5.26581">
        <ele>306.52</ele>
        <time>2021-06-23T13:34:19Z</time>
      </trkpt>
      <trkpt lat="47.98429" lon="5.2666">
        <ele>304.02</ele>
        <time>2021-06-23T13:34:24Z</time>
      </trkpt>
      <trkpt lat="47.98326" lon="5.26699">
        <ele>302.4</ele>
        <time>2021-06-23T13:34:30Z</time>
      </trkpt>
      <trkpt lat="47.98247" lon="5.26726">
        <ele>303.22</ele>
        <time>2021-06-23T13:34:36Z</time>
      </trkpt>
      <trkpt lat="47.98203" lon="5.26736">
        <ele>304.52</ele>
        <time>2021-06-23T13:34:42Z</time>
      </trkpt>
      <trkpt lat="47.98068" lon="5.26758">
        <ele>304.9</ele>
        <time>2021-06-23T13:34:48Z</time>
      </trkpt>
      <trkpt lat="47.97575" lon="5.26822">
        <ele>306.23</ele>
        <time>2021-06-23T13:34:54Z</time>
      </trkpt>
      <trkpt lat="47.97363" lon="5.26866">
        <ele>310.64</ele>
        <time>2021-06-23T13:35:00Z</time>
      </trkpt>
      <trkpt lat="47.97347" lon="5.26867">
        <ele>311.1</ele>
        <time>2021-06-23T13:35:06Z</time>
      </trkpt>
      <trkpt lat="47.96682" lon="5.26844">
        <ele>317.26</ele>
        <time>2021-06-23T13:35:12Z</time>
      </trkpt>
      <trkpt lat="47.9665" lon="5.26846">
        <ele>317.38</ele>
        <time>2021-06-23T13:35:18Z</time>
      </trkpt>
      <trkpt lat="47.96624" lon="5.26852">
        <ele>316.97</ele>
        <time>2021-06-23T13:35:23Z</time>
      </trkpt>
      <trkpt lat="47.96591" lon="5.26865">
        <ele>316.54</ele>
        <time>2021-06-23T13:35:29Z</time>
      </trkpt>
      <trkpt lat="47.96569" lon="5.26878">
        <ele>317.65</ele>
        <time>2021-06-23T13:35:35Z</time>
      </trkpt>
      <trkpt lat="47.96545" lon="5.26894">
        <ele>318.51</ele>
        <time>2021-06-23T13:35:41Z</time>
      </trkpt>
      <trkpt lat="47.96499" lon="5.26937">
        <ele>316.61</ele>
        <time>2021-06-23T13:35:47Z</time>
      </trkpt>
      <trkpt lat="47.96327" lon="5.27132">
        <ele>312</ele>
        <time>2021-06-23T13:35:53Z</time>
      </trkpt>
      <trkpt lat="47.96299" lon="5.27162">
        <ele>312.57</ele>
        <time>2021-06-23T13:35:59Z</time>
      </trkpt>
      <trkpt lat="47.96248" lon="5.27204">
        <ele>312.98</ele>
        <time>2021-06-23T13:36:05Z</time>
      </trkpt>
      <trkpt lat="47.96218" lon="5.27223">
        <ele>311.99</ele>
        <time>2021-06-23T13:36:11Z</time>
      </trkpt>
      <trkpt lat="47.95899" lon="5.27387">
        <ele>311.7</ele>
        <time>2021-06-23T13:36:17Z</time>
      </trkpt>
      <trkpt lat="47.95315" lon="5.27683">
        <ele>313.42</ele>
        <time>2021-06-23T13:36:23Z</time>
      </trkpt>
      <trkpt lat="47.95237" lon="5.2771">
        <ele>320.2</ele>
        <time>2021-06-23T13:36:28Z</time>
      </trkpt>
      <trkpt lat="47.9516" lon="5.27722">
        <ele>321.59</ele>
        <time>2021-06-23T13:36:34Z</time>
      </trkpt>
      <trkpt lat="47.94925" lon="5.2775">
        <ele>324.45</ele>
        <time>2021-06-23T13:36:40Z</time>
      </trkpt>
      <trkpt lat="47.94895" lon="5.27759">
        <ele>325.36</ele>
        <time>2021-06-23T13:36:46Z</time>
      </trkpt>
      <trkpt lat="47.94878" lon="5.27767">
        <ele>325.18</ele>
        <time>2021-06-23T13:36:52Z</time>
      </trkpt>
      <trkpt lat="47.94856" lon="5.27781">
        <ele>324.57</ele>
        <time>2021-06-23T13:36:58Z</time>
      </trkpt>
      <trkpt lat="47.9482" lon="5.27809">
        <ele>321.09</ele>
        <time>2021-06-23T13:37:04Z</time>
      </trkpt>
      <trkpt lat="47.94784" lon="5.27851">
        <ele>319.97</ele>
        <time>2021-06-23T13:37:10Z</time>
      </trkpt>
      <trkpt lat="47.94757" lon="5.27894">
        <ele>318.83</ele>
        <time>2021-06-23T13:37:16Z</time>
      </trkpt>
      <trkpt lat="47.9473" lon="5.27957">
        <ele>316.56</ele>
        <time>2021-06-23T13:37:22Z</time>
      </trkpt>
      <trkpt lat="47.94649" lon="5.28168">
        <ele>318.62</ele>
        <time>2021-06-23T13:37:28Z</time>
      </trkpt>
      <trkpt lat="47.94538" lon="5.2841">
        <ele>319.71</ele>
        <time>2021-06-23T13:37:33Z</time>
      </trkpt>
      <trkpt lat="47.94406" lon="5.28694">
        <ele>318.75</ele>
        <time>2021-06-23T13:37:39Z</time>
      </trkpt>
      <trkpt lat="47.94373" lon="5.28755">
        <ele>319.92</ele>
        <time>2021-06-23T13:37:45Z</time>
      </trkpt>
      <trkpt lat="47.94346" lon="5.28792">
        <ele>320.29</ele>
        <time>2021-06-23T13:37:51Z</time>
      </trkpt>
      <trkpt lat="47.94324" lon="5.28817">
        <ele>320.81</ele>
        <time>2021-06-23T13:37:57Z</time>
      </trkpt>
      <trkpt lat="47.94273" lon="5.28868">
        <ele>320</ele>
        <time>2021-06-23T13:38:03Z</time>
      </trkpt>
      <trkpt lat="47.94219" lon="5.28908">
        <ele>323.31</ele>
        <time>2021-06-23T13:38:09Z</time>
      </trkpt>
      <trkpt lat="47.94179" lon="5.28931">
        <ele>326</ele>
        <time>2021-06-23T13:38:15Z</time>
      </trkpt>
      <trkpt lat="47.94136" lon="5.28949">
        <ele>325.15</ele>
        <time>2021-06-23T13:38:21Z</time>
      </trkpt>
      <trkpt lat="47.94136" lon="5.28949">
        <ele>325.15</ele>
        <time>2021-06-23T13:38:21Z</time>
      </trkpt>
      <trkpt lat="47.94101" lon="5.28959">
        <ele>325.3</ele>
        <time>2021-06-23T13:38:24Z</time>
      </trkpt>
      <trkpt lat="47.94044" lon="5.28967">
        <ele>321.78</ele>
        <time>2021-06-23T13:38:28Z</time>
      </trkpt>
      <trkpt lat="47.9401" lon="5.28968">
        <ele>321.88</ele>
        <time>2021-06-23T13:38:31Z</time>
      </trkpt>
      <trkpt lat="47.93891" lon="5.28965">
        <ele>326.49</ele>
        <time>2021-06-23T13:38:35Z</time>
      </trkpt>
      <trkpt lat="47.93758" lon="5.28945">
        <ele>328.7</ele>
        <time>2021-06-23T13:38:39Z</time>
      </trkpt>
      <trkpt lat="47.9373" lon="5.28932">
        <ele>326.07</ele>
        <time>2021-06-23T13:38:42Z</time>
      </trkpt>
      <trkpt lat="47.93716" lon="5.28921">
        <ele>324.51</ele>
        <time>2021-06-23T13:38:46Z</time>
      </trkpt>
      <trkpt lat="47.93709" lon="5.28906">
        <ele>324.42</ele>
        <time>2021-06-23T13:38:51Z</time>
      </trkpt>
      <trkpt lat="47.937" lon="5.28899">
        <ele>324.03</ele>
        <time>2021-06-23T13:38:57Z</time>
      </trkpt>
      <trkpt lat="47.93695" lon="5.28897">
        <ele>323.72</ele>
        <time>2021-06-23T13:39:03Z</time>
      </trkpt>
      <trkpt lat="47.9369" lon="5.28897">
        <ele>323.35</ele>
        <time>2021-06-23T13:39:09Z</time>
      </trkpt>
      <trkpt lat="47.9368" lon="5.28902">
        <ele>322.5</ele>
        <time>2021-06-23T13:39:14Z</time>
      </trkpt>
      <trkpt lat="47.93672" lon="5.28911">
        <ele>321.61</ele>
        <time>2021-06-23T13:39:20Z</time>
      </trkpt>
      <trkpt lat="47.93653" lon="5.28922">
        <ele>320.9</ele>
        <time>2021-06-23T13:39:26Z</time>
      </trkpt>
      <trkpt lat="47.93578" lon="5.28911">
        <ele>325.37</ele>
        <time>2021-06-23T13:39:31Z</time>
      </trkpt>
      <trkpt lat="47.93555" lon="5.28911">
        <ele>326.78</ele>
        <time>2021-06-23T13:39:37Z</time>
      </trkpt>
      <trkpt lat="47.93514" lon="5.28905">
        <ele>326.59</ele>
        <time>2021-06-23T13:39:43Z</time>
      </trkpt>
      <trkpt lat="47.93483" lon="5.28905">
        <ele>327.49</ele>
        <time>2021-06-23T13:39:49Z</time>
      </trkpt>
      <trkpt lat="47.93195" lon="5.28933">
        <ele>335.59</ele>
        <time>2021-06-23T13:39:54Z</time>
      </trkpt>
      <trkpt lat="47.9284" lon="5.28973">
        <ele>329.76</ele>
        <time>2021-06-23T13:40:00Z</time>
      </trkpt>
      <trkpt lat="47.92789" lon="5.28984">
        <ele>328.16</ele>
        <time>2021-06-23T13:40:06Z</time>
      </trkpt>
      <trkpt lat="47.92708" lon="5.29006">
        <ele>324.89</ele>
        <time>2021-06-23T13:40:12Z</time>
      </trkpt>
      <trkpt lat="47.92656" lon="5.29023">
        <ele>327.72</ele>
        <time>2021-06-23T13:40:17Z</time>
      </trkpt>
      <trkpt lat="47.92577" lon="5.29055">
        <ele>329.65</ele>
        <time>2021-06-23T13:40:23Z</time>
      </trkpt>
      <trkpt lat="47.92512" lon="5.29089">
        <ele>334.08</ele>
        <time>2021-06-23T13:40:29Z</time>
      </trkpt>
      <trkpt lat="47.92398" lon="5.29156">
        <ele>334.36</ele>
        <time>2021-06-23T13:40:34Z</time>
      </trkpt>
      <trkpt lat="47.92354" lon="5.29174">
        <ele>338.25</ele>
        <time>2021-06-23T13:40:40Z</time>
      </trkpt>
      <trkpt lat="47.9217" lon="5.29225">
        <ele>342.11</ele>
        <time>2021-06-23T13:40:46Z</time>
      </trkpt>
      <trkpt lat="47.92142" lon="5.2923">
        <ele>341.76</ele>
        <time>2021-06-23T13:40:52Z</time>
      </trkpt>
      <trkpt lat="47.92117" lon="5.29229">
        <ele>342.56</ele>
        <time>2021-06-23T13:40:57Z</time>
      </trkpt>
      <trkpt lat="47.92085" lon="5.29223">
        <ele>342.03</ele>
        <time>2021-06-23T13:41:03Z</time>
      </trkpt>
      <trkpt lat="47.92045" lon="5.29206">
        <ele>340.36</ele>
        <time>2021-06-23T13:41:09Z</time>
      </trkpt>
      <trkpt lat="47.91869" lon="5.29094">
        <ele>335.73</ele>
        <time>2021-06-23T13:41:15Z</time>
      </trkpt>
      <trkpt lat="47.91706" lon="5.28985">
        <ele>336.77</ele>
        <time>2021-06-23T13:41:20Z</time>
      </trkpt>
      <trkpt lat="47.91683" lon="5.28972">
        <ele>337</ele>
        <time>2021-06-23T13:41:26Z</time>
      </trkpt>
      <trkpt lat="47.91619" lon="5.28947">
        <ele>338.11</ele>
        <time>2021-06-23T13:41:32Z</time>
      </trkpt>
      <trkpt lat="47.91595" lon="5.28941">
        <ele>338.2</ele>
        <time>2021-06-23T13:41:37Z</time>
      </trkpt>
      <trkpt lat="47.91544" lon="5.28933">
        <ele>340.68</ele>
        <time>2021-06-23T13:41:43Z</time>
      </trkpt>
      <trkpt lat="47.915" lon="5.28932">
        <ele>341.3</ele>
        <time>2021-06-23T13:41:49Z</time>
      </trkpt>
      <trkpt lat="47.9146" lon="5.28937">
        <ele>341.39</ele>
        <time>2021-06-23T13:41:55Z</time>
      </trkpt>
      <trkpt lat="47.91398" lon="5.28953">
        <ele>338.44</ele>
        <time>2021-06-23T13:42:00Z</time>
      </trkpt>
      <trkpt lat="47.91358" lon="5.28968">
        <ele>342.25</ele>
        <time>2021-06-23T13:42:06Z</time>
      </trkpt>
      <trkpt lat="47.91328" lon="5.28983">
        <ele>342.72</ele>
        <time>2021-06-23T13:42:12Z</time>
      </trkpt>
      <trkpt lat="47.91299" lon="5.29001">
        <ele>341.23</ele>
        <time>2021-06-23T13:42:17Z</time>
      </trkpt>
      <trkpt lat="47.91248" lon="5.29038">
        <ele>343.71</ele>
        <time>2021-06-23T13:42:23Z</time>
      </trkpt>
      <trkpt lat="47.9119" lon="5.29088">
        <ele>343.83</ele>
        <time>2021-06-23T13:42:29Z</time>
      </trkpt>
      <trkpt lat="47.91144" lon="5.29124">
        <ele>344.74</ele>
        <time>2021-06-23T13:42:35Z</time>
      </trkpt>
      <trkpt lat="47.91107" lon="5.29147">
        <ele>344.35</ele>
        <time>2021-06-23T13:42:40Z</time>
      </trkpt>
      <trkpt lat="47.91019" lon="5.29189">
        <ele>343.14</ele>
        <time>2021-06-23T13:42:46Z</time>
      </trkpt>
      <trkpt lat="47.9098" lon="5.29211">
        <ele>340.23</ele>
        <time>2021-06-23T13:42:52Z</time>
      </trkpt>
      <trkpt lat="47.90961" lon="5.29225">
        <ele>339.44</ele>
        <time>2021-06-23T13:42:58Z</time>
      </trkpt>
      <trkpt lat="47.90871" lon="5.29304">
        <ele>338.09</ele>
        <time>2021-06-23T13:43:03Z</time>
      </trkpt>
      <trkpt lat="47.90824" lon="5.29348">
        <ele>338.46</ele>
        <time>2021-06-23T13:43:09Z</time>
      </trkpt>
      <trkpt lat="47.90793" lon="5.29386">
        <ele>337.11</ele>
        <time>2021-06-23T13:43:15Z</time>
      </trkpt>
      <trkpt lat="47.90768" lon="5.29427">
        <ele>336.37</ele>
        <time>2021-06-23T13:43:20Z</time>
      </trkpt>
      <trkpt lat="47.90745" lon="5.29473">
        <ele>336.34</ele>
        <time>2021-06-23T13:43:26Z</time>
      </trkpt>
      <trkpt lat="47.90732" lon="5.29509">
        <ele>338.2</ele>
        <time>2021-06-23T13:43:32Z</time>
      </trkpt>
      <trkpt lat="47.90679" lon="5.2968">
        <ele>337.62</ele>
        <time>2021-06-23T13:43:38Z</time>
      </trkpt>
      <trkpt lat="47.90654" lon="5.29741">
        <ele>334.07</ele>
        <time>2021-06-23T13:43:43Z</time>
      </trkpt>
      <trkpt lat="47.90598" lon="5.29862">
        <ele>332.44</ele>
        <time>2021-06-23T13:43:49Z</time>
      </trkpt>
      <trkpt lat="47.90535" lon="5.29996">
        <ele>333.27</ele>
        <time>2021-06-23T13:43:55Z</time>
      </trkpt>
      <trkpt lat="47.90453" lon="5.30169">
        <ele>321.86</ele>
        <time>2021-06-23T13:44:01Z</time>
      </trkpt>
      <trkpt lat="47.90439" lon="5.30193">
        <ele>320.04</ele>
        <time>2021-06-23T13:44:06Z</time>
      </trkpt>
      <trkpt lat="47.90414" lon="5.30227">
        <ele>319.09</ele>
        <time>2021-06-23T13:44:12Z</time>
      </trkpt>
      <trkpt lat="47.90399" lon="5.30244">
        <ele>319.64</ele>
        <time>2021-06-23T13:44:18Z</time>
      </trkpt>
      <trkpt lat="47.90325" lon="5.30313">
        <ele>319.11</ele>
        <time>2021-06-23T13:44:23Z</time>
      </trkpt>
      <trkpt lat="47.90288" lon="5.30351">
        <ele>320.38</ele>
        <time>2021-06-23T13:44:29Z</time>
      </trkpt>
      <trkpt lat="47.90188" lon="5.30458">
        <ele>323.23</ele>
        <time>2021-06-23T13:44:35Z</time>
      </trkpt>
      <trkpt lat="47.90174" lon="5.30475">
        <ele>323.76</ele>
        <time>2021-06-23T13:44:41Z</time>
      </trkpt>
      <trkpt lat="47.90158" lon="5.30499">
        <ele>324.32</ele>
        <time>2021-06-23T13:44:46Z</time>
      </trkpt>
      <trkpt lat="47.90131" lon="5.30537">
        <ele>324.29</ele>
        <time>2021-06-23T13:44:52Z</time>
      </trkpt>
      <trkpt lat="47.90081" lon="5.30627">
        <ele>327.56</ele>
        <time>2021-06-23T13:44:58Z</time>
      </trkpt>
      <trkpt lat="47.9006" lon="5.30657">
        <ele>329.21</ele>
        <time>2021-06-23T13:45:04Z</time>
      </trkpt>
      <trkpt lat="47.90016" lon="5.30707">
        <ele>332.82</ele>
        <time>2021-06-23T13:45:09Z</time>
      </trkpt>
      <trkpt lat="47.89975" lon="5.30744">
        <ele>336.5</ele>
        <time>2021-06-23T13:45:15Z</time>
      </trkpt>
      <trkpt lat="47.89913" lon="5.30796">
        <ele>338.31</ele>
        <time>2021-06-23T13:45:21Z</time>
      </trkpt>
      <trkpt lat="47.89845" lon="5.30867">
        <ele>338.08</ele>
        <time>2021-06-23T13:45:26Z</time>
      </trkpt>
      <trkpt lat="47.89592" lon="5.31186">
        <ele>346.8</ele>
        <time>2021-06-23T13:45:32Z</time>
      </trkpt>
      <trkpt lat="47.89561" lon="5.31222">
        <ele>347.99</ele>
        <time>2021-06-23T13:45:38Z</time>
      </trkpt>
      <trkpt lat="47.89512" lon="5.31272">
        <ele>348.79</ele>
        <time>2021-06-23T13:45:44Z</time>
      </trkpt>
      <trkpt lat="47.89446" lon="5.31329">
        <ele>350</ele>
        <time>2021-06-23T13:45:49Z</time>
      </trkpt>
      <trkpt lat="47.89422" lon="5.31347">
        <ele>350.74</ele>
        <time>2021-06-23T13:45:55Z</time>
      </trkpt>
      <trkpt lat="47.8938" lon="5.31371">
        <ele>352.74</ele>
        <time>2021-06-23T13:46:01Z</time>
      </trkpt>
      <trkpt lat="47.89076" lon="5.31525">
        <ele>360.19</ele>
        <time>2021-06-23T13:46:07Z</time>
      </trkpt>
      <trkpt lat="47.8902" lon="5.31555">
        <ele>361</ele>
        <time>2021-06-23T13:46:12Z</time>
      </trkpt>
      <trkpt lat="47.88971" lon="5.31585">
        <ele>360.93</ele>
        <time>2021-06-23T13:46:18Z</time>
      </trkpt>
      <trkpt lat="47.88761" lon="5.3172">
        <ele>364.03</ele>
        <time>2021-06-23T13:46:24Z</time>
      </trkpt>
      <trkpt lat="47.88558" lon="5.3184">
        <ele>363.72</ele>
        <time>2021-06-23T13:46:29Z</time>
      </trkpt>
      <trkpt lat="47.88446" lon="5.31908">
        <ele>362.05</ele>
        <time>2021-06-23T13:46:35Z</time>
      </trkpt>
      <trkpt lat="47.88302" lon="5.31999">
        <ele>361</ele>
        <time>2021-06-23T13:46:41Z</time>
      </trkpt>
      <trkpt lat="47.8825" lon="5.32029">
        <ele>361</ele>
        <time>2021-06-23T13:46:47Z</time>
      </trkpt>
      <trkpt lat="47.88231" lon="5.32038">
        <ele>361.26</ele>
        <time>2021-06-23T13:46:52Z</time>
      </trkpt>
      <trkpt lat="47.88158" lon="5.32068">
        <ele>362.63</ele>
        <time>2021-06-23T13:46:58Z</time>
      </trkpt>
      <trkpt lat="47.88086" lon="5.32089">
        <ele>365</ele>
        <time>2021-06-23T13:47:04Z</time>
      </trkpt>
      <trkpt lat="47.88004" lon="5.321">
        <ele>366.86</ele>
        <time>2021-06-23T13:47:10Z</time>
      </trkpt>
      <trkpt lat="47.87673" lon="5.32111">
        <ele>382.75</ele>
        <time>2021-06-23T13:47:15Z</time>
      </trkpt>
      <trkpt lat="47.87629" lon="5.32115">
        <ele>385.28</ele>
        <time>2021-06-23T13:47:21Z</time>
      </trkpt>
      <trkpt lat="47.8757" lon="5.32125">
        <ele>385.95</ele>
        <time>2021-06-23T13:47:27Z</time>
      </trkpt>
      <trkpt lat="47.87516" lon="5.32138">
        <ele>390.71</ele>
        <time>2021-06-23T13:47:32Z</time>
      </trkpt>
      <trkpt lat="47.87464" lon="5.3216">
        <ele>391.99</ele>
        <time>2021-06-23T13:47:38Z</time>
      </trkpt>
      <trkpt lat="47.87439" lon="5.32174">
        <ele>390.81</ele>
        <time>2021-06-23T13:47:44Z</time>
      </trkpt>
      <trkpt lat="47.87413" lon="5.32192">
        <ele>389.86</ele>
        <time>2021-06-23T13:47:50Z</time>
      </trkpt>
      <trkpt lat="47.87386" lon="5.32213">
        <ele>388.94</ele>
        <time>2021-06-23T13:47:55Z</time>
      </trkpt>
      <trkpt lat="47.87349" lon="5.3225">
        <ele>389.11</ele>
        <time>2021-06-23T13:48:01Z</time>
      </trkpt>
      <trkpt lat="47.87331" lon="5.32272">
        <ele>389.29</ele>
        <time>2021-06-23T13:48:07Z</time>
      </trkpt>
      <trkpt lat="47.87307" lon="5.32304">
        <ele>388.97</ele>
        <time>2021-06-23T13:48:13Z</time>
      </trkpt>
      <trkpt lat="47.87287" lon="5.32336">
        <ele>389.36</ele>
        <time>2021-06-23T13:48:18Z</time>
      </trkpt>
      <trkpt lat="47.87266" lon="5.32375">
        <ele>388.59</ele>
        <time>2021-06-23T13:48:24Z</time>
      </trkpt>
      <trkpt lat="47.87251" lon="5.3241">
        <ele>388.05</ele>
        <time>2021-06-23T13:48:30Z</time>
      </trkpt>
      <trkpt lat="47.872" lon="5.32557">
        <ele>389.29</ele>
        <time>2021-06-23T13:48:35Z</time>
      </trkpt>
      <trkpt lat="47.87195" lon="5.32569">
        <ele>389.47</ele>
        <time>2021-06-23T13:48:41Z</time>
      </trkpt>
      <trkpt lat="47.87189" lon="5.32564">
        <ele>389.04</ele>
        <time>2021-06-23T13:48:44Z</time>
      </trkpt>
      <trkpt lat="47.87182" lon="5.32563">
        <ele>388.71</ele>
        <time>2021-06-23T13:48:46Z</time>
      </trkpt>
      <trkpt lat="47.87174" lon="5.32568">
        <ele>388.36</ele>
        <time>2021-06-23T13:48:48Z</time>
      </trkpt>
      <trkpt lat="47.87171" lon="5.32573">
        <ele>388.23</ele>
        <time>2021-06-23T13:48:51Z</time>
      </trkpt>
      <trkpt lat="47.87168" lon="5.32584">
        <ele>388.06</ele>
        <time>2021-06-23T13:48:53Z</time>
      </trkpt>
      <trkpt lat="47.87168" lon="5.3259">
        <ele>388.07</ele>
        <time>2021-06-23T13:48:56Z</time>
      </trkpt>
      <trkpt lat="47.87171" lon="5.32602">
        <ele>388.38</ele>
        <time>2021-06-23T13:48:58Z</time>
      </trkpt>
      <trkpt lat="47.87174" lon="5.32606">
        <ele>388.7</ele>
        <time>2021-06-23T13:49:01Z</time>
      </trkpt>
      <trkpt lat="47.87153" lon="5.32632">
        <ele>388.37</ele>
        <time>2021-06-23T13:49:03Z</time>
      </trkpt>
      <trkpt lat="47.87087" lon="5.32701">
        <ele>390</ele>
        <time>2021-06-23T13:49:05Z</time>
      </trkpt>
      <trkpt lat="47.87059" lon="5.32727">
        <ele>390</ele>
        <time>2021-06-23T13:49:08Z</time>
      </trkpt>
      <trkpt lat="47.87043" lon="5.32749">
        <ele>390.94</ele>
        <time>2021-06-23T13:49:10Z</time>
      </trkpt>
      <trkpt lat="47.87029" lon="5.32778">
        <ele>392.85</ele>
        <time>2021-06-23T13:49:13Z</time>
      </trkpt>
      <trkpt lat="47.87024" lon="5.32774">
        <ele>393.15</ele>
        <time>2021-06-23T13:49:24Z</time>
      </trkpt>
      <trkpt lat="47.86965" lon="5.32807">
        <ele>398.52</ele>
        <time>2021-06-23T13:49:35Z</time>
      </trkpt>
      <trkpt lat="47.86907" lon="5.32832">
        <ele>405.02</ele>
        <time>2021-06-23T13:49:46Z</time>
      </trkpt>
      <trkpt lat="47.86798" lon="5.32872">
        <ele>417.89</ele>
        <time>2021-06-23T13:49:57Z</time>
      </trkpt>
      <trkpt lat="47.86749" lon="5.32888">
        <ele>426.89</ele>
        <time>2021-06-23T13:50:09Z</time>
      </trkpt>
      <trkpt lat="47.86686" lon="5.32922">
        <ele>436.69</ele>
        <time>2021-06-23T13:50:20Z</time>
      </trkpt>
      <trkpt lat="47.86627" lon="5.32959">
        <ele>442.81</ele>
        <time>2021-06-23T13:50:31Z</time>
      </trkpt>
      <trkpt lat="47.86647" lon="5.32961">
        <ele>443.06</ele>
        <time>2021-06-23T13:50:33Z</time>
      </trkpt>
      <trkpt lat="47.8665" lon="5.32966">
        <ele>443.65</ele>
        <time>2021-06-23T13:50:36Z</time>
      </trkpt>
      <trkpt lat="47.8644" lon="5.33015">
        <ele>457.73</ele>
        <time>2021-06-23T13:50:53Z</time>
      </trkpt>
      <trkpt lat="47.86395" lon="5.3302">
        <ele>457.71</ele>
        <time>2021-06-23T13:51:09Z</time>
      </trkpt>
      <trkpt lat="47.86386" lon="5.33025">
        <ele>458.3</ele>
        <time>2021-06-23T13:51:13Z</time>
      </trkpt>
      <trkpt lat="47.86347" lon="5.33029">
        <ele>456.1</ele>
        <time>2021-06-23T13:51:16Z</time>
      </trkpt>
      <trkpt lat="47.86342" lon="5.33033">
        <ele>456.52</ele>
        <time>2021-06-23T13:51:20Z</time>
      </trkpt>
      <trkpt lat="47.86342" lon="5.3304">
        <ele>457.74</ele>
        <time>2021-06-23T13:51:21Z</time>
      </trkpt>
      <trkpt lat="47.86347" lon="5.33049">
        <ele>459.45</ele>
        <time>2021-06-23T13:51:22Z</time>
      </trkpt>
      <trkpt lat="47.86357" lon="5.33033">
        <ele>457.51</ele>
        <time>2021-06-23T13:51:29Z</time>
      </trkpt>
      <trkpt lat="47.86406" lon="5.3303">
        <ele>460.57</ele>
        <time>2021-06-23T13:51:35Z</time>
      </trkpt>
      <trkpt lat="47.86484" lon="5.33017">
        <ele>457.48</ele>
        <time>2021-06-23T13:51:42Z</time>
      </trkpt>
      <trkpt lat="47.86485" lon="5.3302">
        <ele>457.99</ele>
        <time>2021-06-23T13:51:47Z</time>
      </trkpt>
      <trkpt lat="47.86504" lon="5.33024">
        <ele>459.27</ele>
        <time>2021-06-23T13:51:52Z</time>
      </trkpt>
      <trkpt lat="47.86549" lon="5.3303">
        <ele>459.55</ele>
        <time>2021-06-23T13:51:57Z</time>
      </trkpt>
      <trkpt lat="47.86588" lon="5.3303">
        <ele>455.92</ele>
        <time>2021-06-23T13:52:02Z</time>
      </trkpt>
      <trkpt lat="47.86592" lon="5.33032">
        <ele>455.59</ele>
        <time>2021-06-23T13:52:08Z</time>
      </trkpt>
      <trkpt lat="47.86598" lon="5.3304">
        <ele>456.43</ele>
        <time>2021-06-23T13:52:13Z</time>
      </trkpt>
      <trkpt lat="47.86601" lon="5.33051">
        <ele>458.37</ele>
        <time>2021-06-23T13:52:18Z</time>
      </trkpt>
      <trkpt lat="47.86601" lon="5.33095">
        <ele>465.01</ele>
        <time>2021-06-23T13:52:23Z</time>
      </trkpt>
      <trkpt lat="47.86567" lon="5.33088">
        <ele>466.62</ele>
        <time>2021-06-23T13:52:30Z</time>
      </trkpt>
      <trkpt lat="47.86564" lon="5.33126">
        <ele>469.39</ele>
        <time>2021-06-23T13:52:34Z</time>
      </trkpt>
    </trkseg>
  </trk>
  <trk>
    <name><![CDATA[2021-06-12_15-59_Sat]]></name>
    <extensions>
      <line xmlns="http://www.topografix.com/GPX/gpx_style/0/2">
        <color>008800</color>
        <width>4</width>
      </line>
    </extensions>
    <trkseg>
      <trkpt lat="47.85924" lon="5.3327">
        <ele>469.26</ele>
        <time>2021-06-23T09:02:45Z</time>
      </trkpt>
      <trkpt lat="47.85924" lon="5.3327">
        <ele>469.26</ele>
        <time>2021-06-23T09:02:45Z</time>
      </trkpt>
      <trkpt lat="47.85946" lon="5.33158">
        <ele>469.46</ele>
        <time>2021-06-23T09:02:51Z</time>
      </trkpt>
      <trkpt lat="47.8596" lon="5.331">
        <ele>466.61</ele>
        <time>2021-06-23T09:02:57Z</time>
      </trkpt>
      <trkpt lat="47.8597" lon="5.33069">
        <ele>465.51</ele>
        <time>2021-06-23T09:03:04Z</time>
      </trkpt>
      <trkpt lat="47.85981" lon="5.33045">
        <ele>464.8</ele>
        <time>2021-06-23T09:03:10Z</time>
      </trkpt>
      <trkpt lat="47.8599" lon="5.33032">
        <ele>464.91</ele>
        <time>2021-06-23T09:03:16Z</time>
      </trkpt>
      <trkpt lat="47.85999" lon="5.33023">
        <ele>465.15</ele>
        <time>2021-06-23T09:03:22Z</time>
      </trkpt>
      <trkpt lat="47.86014" lon="5.33014">
        <ele>465.23</ele>
        <time>2021-06-23T09:03:28Z</time>
      </trkpt>
      <trkpt lat="47.86027" lon="5.33011">
        <ele>465.22</ele>
        <time>2021-06-23T09:03:35Z</time>
      </trkpt>
      <trkpt lat="47.86039" lon="5.33011">
        <ele>464.55</ele>
        <time>2021-06-23T09:03:41Z</time>
      </trkpt>
      <trkpt lat="47.86144" lon="5.33046">
        <ele>462.58</ele>
        <time>2021-06-23T09:03:47Z</time>
      </trkpt>
      <trkpt lat="47.86247" lon="5.33065">
        <ele>462.93</ele>
        <time>2021-06-23T09:03:53Z</time>
      </trkpt>
      <trkpt lat="47.86252" lon="5.33066">
        <ele>462.55</ele>
        <time>2021-06-23T09:04:00Z</time>
      </trkpt>
      <trkpt lat="47.86263" lon="5.33061">
        <ele>461.06</ele>
        <time>2021-06-23T09:04:06Z</time>
      </trkpt>
      <trkpt lat="47.86268" lon="5.33056">
        <ele>460.08</ele>
        <time>2021-06-23T09:04:12Z</time>
      </trkpt>
      <trkpt lat="47.86293" lon="5.33056">
        <ele>457.89</ele>
        <time>2021-06-23T09:04:18Z</time>
      </trkpt>
      <trkpt lat="47.86347" lon="5.33049">
        <ele>459.45</ele>
        <time>2021-06-23T09:04:24Z</time>
      </trkpt>
      <trkpt lat="47.86357" lon="5.33033">
        <ele>457.51</ele>
        <time>2021-06-23T09:04:30Z</time>
      </trkpt>
      <trkpt lat="47.86406" lon="5.3303">
        <ele>460.57</ele>
        <time>2021-06-23T09:04:36Z</time>
      </trkpt>
      <trkpt lat="47.86484" lon="5.33017">
        <ele>457.48</ele>
        <time>2021-06-23T09:04:42Z</time>
      </trkpt>
      <trkpt lat="47.86568" lon="5.32998">
        <ele>449.23</ele>
        <time>2021-06-23T09:04:48Z</time>
      </trkpt>
      <trkpt lat="47.86652" lon="5.32976">
        <ele>444.87</ele>
        <time>2021-06-23T09:04:53Z</time>
      </trkpt>
      <trkpt lat="47.8669" lon="5.3297">
        <ele>442.11</ele>
        <time>2021-06-23T09:04:59Z</time>
      </trkpt>
      <trkpt lat="47.86705" lon="5.32972">
        <ele>441.22</ele>
        <time>2021-06-23T09:05:05Z</time>
      </trkpt>
      <trkpt lat="47.8672" lon="5.32977">
        <ele>440.57</ele>
        <time>2021-06-23T09:05:11Z</time>
      </trkpt>
      <trkpt lat="47.86743" lon="5.32991">
        <ele>439.68</ele>
        <time>2021-06-23T09:05:17Z</time>
      </trkpt>
      <trkpt lat="47.86761" lon="5.33008">
        <ele>438.87</ele>
        <time>2021-06-23T09:05:22Z</time>
      </trkpt>
      <trkpt lat="47.86773" lon="5.33023">
        <ele>437.68</ele>
        <time>2021-06-23T09:05:28Z</time>
      </trkpt>
      <trkpt lat="47.8679" lon="5.33051">
        <ele>436.16</ele>
        <time>2021-06-23T09:05:34Z</time>
      </trkpt>
      <trkpt lat="47.86813" lon="5.33099">
        <ele>435.97</ele>
        <time>2021-06-23T09:05:40Z</time>
      </trkpt>
      <trkpt lat="47.86829" lon="5.3314">
        <ele>435.02</ele>
        <time>2021-06-23T09:05:46Z</time>
      </trkpt>
      <trkpt lat="47.86835" lon="5.33161">
        <ele>433.77</ele>
        <time>2021-06-23T09:05:51Z</time>
      </trkpt>
      <trkpt lat="47.86849" lon="5.33223">
        <ele>433.13</ele>
        <time>2021-06-23T09:05:57Z</time>
      </trkpt>
      <trkpt lat="47.86869" lon="5.33336">
        <ele>427.2</ele>
        <time>2021-06-23T09:06:03Z</time>
      </trkpt>
      <trkpt lat="47.86877" lon="5.33354">
        <ele>426.85</ele>
        <time>2021-06-23T09:06:09Z</time>
      </trkpt>
      <trkpt lat="47.86885" lon="5.33367">
        <ele>425.61</ele>
        <time>2021-06-23T09:06:15Z</time>
      </trkpt>
      <trkpt lat="47.86893" lon="5.33374">
        <ele>424.37</ele>
        <time>2021-06-23T09:06:20Z</time>
      </trkpt>
      <trkpt lat="47.869" lon="5.33377">
        <ele>423.44</ele>
        <time>2021-06-23T09:06:26Z</time>
      </trkpt>
      <trkpt lat="47.86917" lon="5.33376">
        <ele>420.93</ele>
        <time>2021-06-23T09:06:32Z</time>
      </trkpt>
      <trkpt lat="47.86934" lon="5.33363">
        <ele>419.19</ele>
        <time>2021-06-23T09:06:38Z</time>
      </trkpt>
      <trkpt lat="47.8694" lon="5.33348">
        <ele>418.39</ele>
        <time>2021-06-23T09:06:44Z</time>
      </trkpt>
      <trkpt lat="47.86942" lon="5.33339">
        <ele>418.17</ele>
        <time>2021-06-23T09:06:49Z</time>
      </trkpt>
      <trkpt lat="47.86944" lon="5.33313">
        <ele>416.54</ele>
        <time>2021-06-23T09:06:55Z</time>
      </trkpt>
      <trkpt lat="47.86929" lon="5.33204">
        <ele>415.43</ele>
        <time>2021-06-23T09:07:01Z</time>
      </trkpt>
      <trkpt lat="47.86928" lon="5.33183">
        <ele>415.74</ele>
        <time>2021-06-23T09:07:07Z</time>
      </trkpt>
      <trkpt lat="47.8693" lon="5.33158">
        <ele>415.47</ele>
        <time>2021-06-23T09:07:13Z</time>
      </trkpt>
      <trkpt lat="47.86935" lon="5.33135">
        <ele>414.1</ele>
        <time>2021-06-23T09:07:18Z</time>
      </trkpt>
      <trkpt lat="47.86993" lon="5.32918">
        <ele>399.5</ele>
        <time>2021-06-23T09:07:24Z</time>
      </trkpt>
      <trkpt lat="47.8703" lon="5.32801">
        <ele>393.68</ele>
        <time>2021-06-23T09:07:30Z</time>
      </trkpt>
      <trkpt lat="47.87037" lon="5.32788">
        <ele>392.43</ele>
        <time>2021-06-23T09:07:32Z</time>
      </trkpt>
      <trkpt lat="47.87037" lon="5.32788">
        <ele>392.43</ele>
        <time>2021-06-23T09:07:32Z</time>
      </trkpt>
      <trkpt lat="47.8704" lon="5.32785">
        <ele>392.07</ele>
        <time>2021-06-23T09:07:33Z</time>
      </trkpt>
      <trkpt lat="47.87048" lon="5.32782">
        <ele>391.11</ele>
        <time>2021-06-23T09:07:34Z</time>
      </trkpt>
      <trkpt lat="47.8706" lon="5.32785">
        <ele>390.39</ele>
        <time>2021-06-23T09:07:35Z</time>
      </trkpt>
      <trkpt lat="47.8717" lon="5.33008">
        <ele>379.35</ele>
        <time>2021-06-23T09:07:46Z</time>
      </trkpt>
      <trkpt lat="47.87271" lon="5.33217">
        <ele>368.03</ele>
        <time>2021-06-23T09:07:56Z</time>
      </trkpt>
      <trkpt lat="47.87285" lon="5.33249">
        <ele>366.48</ele>
        <time>2021-06-23T09:08:07Z</time>
      </trkpt>
      <trkpt lat="47.87288" lon="5.33277">
        <ele>367.24</ele>
        <time>2021-06-23T09:08:18Z</time>
      </trkpt>
      <trkpt lat="47.87287" lon="5.33289">
        <ele>367.35</ele>
        <time>2021-06-23T09:08:29Z</time>
      </trkpt>
      <trkpt lat="47.87284" lon="5.33304">
        <ele>367.58</ele>
        <time>2021-06-23T09:08:35Z</time>
      </trkpt>
      <trkpt lat="47.87286" lon="5.33314">
        <ele>367.43</ele>
        <time>2021-06-23T09:08:42Z</time>
      </trkpt>
      <trkpt lat="47.87293" lon="5.33323">
        <ele>366.89</ele>
        <time>2021-06-23T09:08:48Z</time>
      </trkpt>
      <trkpt lat="47.87301" lon="5.33324">
        <ele>366.34</ele>
        <time>2021-06-23T09:08:55Z</time>
      </trkpt>
      <trkpt lat="47.87306" lon="5.33321">
        <ele>365.97</ele>
        <time>2021-06-23T09:09:01Z</time>
      </trkpt>
      <trkpt lat="47.87325" lon="5.33331">
        <ele>364.51</ele>
        <time>2021-06-23T09:09:08Z</time>
      </trkpt>
      <trkpt lat="47.8734" lon="5.33344">
        <ele>363.38</ele>
        <time>2021-06-23T09:09:14Z</time>
      </trkpt>
      <trkpt lat="47.87412" lon="5.3345">
        <ele>363.18</ele>
        <time>2021-06-23T09:09:20Z</time>
      </trkpt>
      <trkpt lat="47.87468" lon="5.33539">
        <ele>358.2</ele>
        <time>2021-06-23T09:09:27Z</time>
      </trkpt>
      <trkpt lat="47.87514" lon="5.33614">
        <ele>355.96</ele>
        <time>2021-06-23T09:09:33Z</time>
      </trkpt>
      <trkpt lat="47.87637" lon="5.33831">
        <ele>344.88</ele>
        <time>2021-06-23T09:09:40Z</time>
      </trkpt>
      <trkpt lat="47.87687" lon="5.33914">
        <ele>338.67</ele>
        <time>2021-06-23T09:09:46Z</time>
      </trkpt>
      <trkpt lat="47.8774" lon="5.33969">
        <ele>334.7</ele>
        <time>2021-06-23T09:09:53Z</time>
      </trkpt>
      <trkpt lat="47.87781" lon="5.34002">
        <ele>332.99</ele>
        <time>2021-06-23T09:09:59Z</time>
      </trkpt>
      <trkpt lat="47.878" lon="5.34011">
        <ele>332.68</ele>
        <time>2021-06-23T09:10:06Z</time>
      </trkpt>
      <trkpt lat="47.8782" lon="5.34016">
        <ele>332.93</ele>
        <time>2021-06-23T09:10:12Z</time>
      </trkpt>
      <trkpt lat="47.8786" lon="5.34021">
        <ele>335.13</ele>
        <time>2021-06-23T09:10:19Z</time>
      </trkpt>
      <trkpt lat="47.8788" lon="5.34027">
        <ele>335.01</ele>
        <time>2021-06-23T09:10:25Z</time>
      </trkpt>
      <trkpt lat="47.87898" lon="5.34039">
        <ele>334.2</ele>
        <time>2021-06-23T09:10:31Z</time>
      </trkpt>
      <trkpt lat="47.87951" lon="5.341">
        <ele>333.17</ele>
        <time>2021-06-23T09:10:38Z</time>
      </trkpt>
      <trkpt lat="47.88026" lon="5.34196">
        <ele>333.91</ele>
        <time>2021-06-23T09:10:44Z</time>
      </trkpt>
      <trkpt lat="47.8804" lon="5.34211">
        <ele>333.22</ele>
        <time>2021-06-23T09:10:51Z</time>
      </trkpt>
      <trkpt lat="47.8805" lon="5.34227">
        <ele>333.33</ele>
        <time>2021-06-23T09:10:57Z</time>
      </trkpt>
      <trkpt lat="47.88054" lon="5.3424">
        <ele>334.24</ele>
        <time>2021-06-23T09:11:04Z</time>
      </trkpt>
      <trkpt lat="47.88052" lon="5.34263">
        <ele>335.71</ele>
        <time>2021-06-23T09:11:10Z</time>
      </trkpt>
      <trkpt lat="47.88044" lon="5.34288">
        <ele>336.76</ele>
        <time>2021-06-23T09:11:17Z</time>
      </trkpt>
      <trkpt lat="47.88016" lon="5.34364">
        <ele>336.62</ele>
        <time>2021-06-23T09:11:23Z</time>
      </trkpt>
      <trkpt lat="47.88001" lon="5.34395">
        <ele>334.39</ele>
        <time>2021-06-23T09:11:29Z</time>
      </trkpt>
      <trkpt lat="47.87992" lon="5.34414">
        <ele>333.7</ele>
        <time>2021-06-23T09:11:36Z</time>
      </trkpt>
      <trkpt lat="47.87984" lon="5.34433">
        <ele>333.24</ele>
        <time>2021-06-23T09:11:42Z</time>
      </trkpt>
      <trkpt lat="47.8798" lon="5.34452">
        <ele>333.11</ele>
        <time>2021-06-23T09:11:49Z</time>
      </trkpt>
      <trkpt lat="47.87977" lon="5.34475">
        <ele>334.27</ele>
        <time>2021-06-23T09:11:55Z</time>
      </trkpt>
      <trkpt lat="47.87976" lon="5.34502">
        <ele>336.8</ele>
        <time>2021-06-23T09:12:02Z</time>
      </trkpt>
      <trkpt lat="47.87981" lon="5.3461">
        <ele>339.1</ele>
        <time>2021-06-23T09:12:08Z</time>
      </trkpt>
      <trkpt lat="47.87985" lon="5.34714">
        <ele>342.82</ele>
        <time>2021-06-23T09:12:15Z</time>
      </trkpt>
      <trkpt lat="47.87985" lon="5.3476">
        <ele>343.51</ele>
        <time>2021-06-23T09:12:21Z</time>
      </trkpt>
      <trkpt lat="47.87984" lon="5.34777">
        <ele>343.67</ele>
        <time>2021-06-23T09:12:27Z</time>
      </trkpt>
      <trkpt lat="47.8798" lon="5.34806">
        <ele>343.85</ele>
        <time>2021-06-23T09:12:34Z</time>
      </trkpt>
      <trkpt lat="47.87959" lon="5.34913">
        <ele>341.95</ele>
        <time>2021-06-23T09:12:40Z</time>
      </trkpt>
      <trkpt lat="47.87956" lon="5.34954">
        <ele>341.67</ele>
        <time>2021-06-23T09:12:47Z</time>
      </trkpt>
      <trkpt lat="47.87958" lon="5.34986">
        <ele>342.4</ele>
        <time>2021-06-23T09:12:53Z</time>
      </trkpt>
      <trkpt lat="47.87966" lon="5.35024">
        <ele>343.24</ele>
        <time>2021-06-23T09:13:00Z</time>
      </trkpt>
      <trkpt lat="47.87975" lon="5.35044">
        <ele>343.44</ele>
        <time>2021-06-23T09:13:06Z</time>
      </trkpt>
      <trkpt lat="47.87988" lon="5.35066">
        <ele>344.61</ele>
        <time>2021-06-23T09:13:13Z</time>
      </trkpt>
      <trkpt lat="47.88002" lon="5.35081">
        <ele>345.54</ele>
        <time>2021-06-23T09:13:19Z</time>
      </trkpt>
      <trkpt lat="47.88049" lon="5.35121">
        <ele>348.22</ele>
        <time>2021-06-23T09:13:25Z</time>
      </trkpt>
      <trkpt lat="47.88182" lon="5.3521">
        <ele>356.77</ele>
        <time>2021-06-23T09:13:32Z</time>
      </trkpt>
      <trkpt lat="47.88236" lon="5.35255">
        <ele>359.28</ele>
        <time>2021-06-23T09:13:38Z</time>
      </trkpt>
      <trkpt lat="47.88284" lon="5.35308">
        <ele>361.7</ele>
        <time>2021-06-23T09:13:45Z</time>
      </trkpt>
      <trkpt lat="47.88346" lon="5.35384">
        <ele>359.7</ele>
        <time>2021-06-23T09:13:51Z</time>
      </trkpt>
      <trkpt lat="47.88425" lon="5.35487">
        <ele>360.3</ele>
        <time>2021-06-23T09:13:58Z</time>
      </trkpt>
      <trkpt lat="47.88462" lon="5.35527">
        <ele>360.31</ele>
        <time>2021-06-23T09:14:04Z</time>
      </trkpt>
      <trkpt lat="47.88568" lon="5.35618">
        <ele>369.55</ele>
        <time>2021-06-23T09:14:11Z</time>
      </trkpt>
      <trkpt lat="47.8859" lon="5.35642">
        <ele>367.25</ele>
        <time>2021-06-23T09:14:17Z</time>
      </trkpt>
      <trkpt lat="47.88619" lon="5.35681">
        <ele>365.57</ele>
        <time>2021-06-23T09:14:23Z</time>
      </trkpt>
      <trkpt lat="47.88642" lon="5.35723">
        <ele>366.43</ele>
        <time>2021-06-23T09:14:30Z</time>
      </trkpt>
      <trkpt lat="47.88655" lon="5.35755">
        <ele>367.9</ele>
        <time>2021-06-23T09:14:36Z</time>
      </trkpt>
      <trkpt lat="47.88666" lon="5.3579">
        <ele>367.42</ele>
        <time>2021-06-23T09:14:43Z</time>
      </trkpt>
      <trkpt lat="47.8868" lon="5.35842">
        <ele>369.99</ele>
        <time>2021-06-23T09:14:49Z</time>
      </trkpt>
      <trkpt lat="47.88706" lon="5.35963">
        <ele>370.28</ele>
        <time>2021-06-23T09:14:56Z</time>
      </trkpt>
      <trkpt lat="47.88719" lon="5.36008">
        <ele>372.42</ele>
        <time>2021-06-23T09:15:02Z</time>
      </trkpt>
      <trkpt lat="47.88746" lon="5.36083">
        <ele>374.7</ele>
        <time>2021-06-23T09:15:09Z</time>
      </trkpt>
      <trkpt lat="47.89204" lon="5.37155">
        <ele>385.28</ele>
        <time>2021-06-23T09:15:15Z</time>
      </trkpt>
      <trkpt lat="47.89629" lon="5.38144">
        <ele>387.04</ele>
        <time>2021-06-23T09:15:21Z</time>
      </trkpt>
      <trkpt lat="47.89904" lon="5.38792">
        <ele>389.95</ele>
        <time>2021-06-23T09:15:28Z</time>
      </trkpt>
      <trkpt lat="47.89912" lon="5.38825">
        <ele>390.33</ele>
        <time>2021-06-23T09:15:34Z</time>
      </trkpt>
      <trkpt lat="47.89916" lon="5.38874">
        <ele>392.13</ele>
        <time>2021-06-23T09:15:41Z</time>
      </trkpt>
      <trkpt lat="47.8992" lon="5.39096">
        <ele>391.41</ele>
        <time>2021-06-23T09:15:47Z</time>
      </trkpt>
      <trkpt lat="47.89927" lon="5.39161">
        <ele>389.22</ele>
        <time>2021-06-23T09:15:54Z</time>
      </trkpt>
      <trkpt lat="47.89937" lon="5.39202">
        <ele>386.64</ele>
        <time>2021-06-23T09:16:00Z</time>
      </trkpt>
      <trkpt lat="47.90008" lon="5.39367">
        <ele>381.77</ele>
        <time>2021-06-23T09:16:07Z</time>
      </trkpt>
      <trkpt lat="47.90102" lon="5.39579">
        <ele>390.68</ele>
        <time>2021-06-23T09:16:13Z</time>
      </trkpt>
      <trkpt lat="47.90126" lon="5.39621">
        <ele>389.81</ele>
        <time>2021-06-23T09:16:19Z</time>
      </trkpt>
      <trkpt lat="47.90168" lon="5.39679">
        <ele>388.28</ele>
        <time>2021-06-23T09:16:26Z</time>
      </trkpt>
      <trkpt lat="47.90168" lon="5.39679">
        <ele>388.28</ele>
        <time>2021-06-23T09:16:26Z</time>
      </trkpt>
      <trkpt lat="47.9025" lon="5.39784">
        <ele>387</ele>
        <time>2021-06-23T09:16:31Z</time>
      </trkpt>
      <trkpt lat="47.90294" lon="5.39824">
        <ele>387.05</ele>
        <time>2021-06-23T09:16:36Z</time>
      </trkpt>
      <trkpt lat="47.90462" lon="5.39951">
        <ele>385.2</ele>
        <time>2021-06-23T09:16:41Z</time>
      </trkpt>
      <trkpt lat="47.90633" lon="5.4008">
        <ele>375.45</ele>
        <time>2021-06-23T09:16:46Z</time>
      </trkpt>
      <trkpt lat="47.90787" lon="5.40155">
        <ele>364.16</ele>
        <time>2021-06-23T09:16:51Z</time>
      </trkpt>
      <trkpt lat="47.90809" lon="5.4016">
        <ele>363.85</ele>
        <time>2021-06-23T09:16:56Z</time>
      </trkpt>
      <trkpt lat="47.90828" lon="5.40159">
        <ele>362.98</ele>
        <time>2021-06-23T09:17:01Z</time>
      </trkpt>
      <trkpt lat="47.90843" lon="5.40153">
        <ele>361.47</ele>
        <time>2021-06-23T09:17:06Z</time>
      </trkpt>
      <trkpt lat="47.90851" lon="5.40148">
        <ele>360.25</ele>
        <time>2021-06-23T09:17:11Z</time>
      </trkpt>
      <trkpt lat="47.90893" lon="5.40109">
        <ele>352.69</ele>
        <time>2021-06-23T09:17:16Z</time>
      </trkpt>
      <trkpt lat="47.90911" lon="5.40096">
        <ele>351</ele>
        <time>2021-06-23T09:17:21Z</time>
      </trkpt>
      <trkpt lat="47.90946" lon="5.40083">
        <ele>348.92</ele>
        <time>2021-06-23T09:17:26Z</time>
      </trkpt>
      <trkpt lat="47.90976" lon="5.40082">
        <ele>346.92</ele>
        <time>2021-06-23T09:17:31Z</time>
      </trkpt>
      <trkpt lat="47.9101" lon="5.40089">
        <ele>345.23</ele>
        <time>2021-06-23T09:17:36Z</time>
      </trkpt>
      <trkpt lat="47.91025" lon="5.40098">
        <ele>344.64</ele>
        <time>2021-06-23T09:17:41Z</time>
      </trkpt>
      <trkpt lat="47.91033" lon="5.40106">
        <ele>344.28</ele>
        <time>2021-06-23T09:17:46Z</time>
      </trkpt>
      <trkpt lat="47.91061" lon="5.40145">
        <ele>342.01</ele>
        <time>2021-06-23T09:17:51Z</time>
      </trkpt>
      <trkpt lat="47.9107" lon="5.40155">
        <ele>342.03</ele>
        <time>2021-06-23T09:17:56Z</time>
      </trkpt>
      <trkpt lat="47.91079" lon="5.40161">
        <ele>341.97</ele>
        <time>2021-06-23T09:18:01Z</time>
      </trkpt>
      <trkpt lat="47.91096" lon="5.40169">
        <ele>341.54</ele>
        <time>2021-06-23T09:18:06Z</time>
      </trkpt>
      <trkpt lat="47.9112" lon="5.40172">
        <ele>340.94</ele>
        <time>2021-06-23T09:18:11Z</time>
      </trkpt>
      <trkpt lat="47.9132" lon="5.40163">
        <ele>341.27</ele>
        <time>2021-06-23T09:18:16Z</time>
      </trkpt>
      <trkpt lat="47.91334" lon="5.40169">
        <ele>339.97</ele>
        <time>2021-06-23T09:18:21Z</time>
      </trkpt>
      <trkpt lat="47.9135" lon="5.40183">
        <ele>339.03</ele>
        <time>2021-06-23T09:18:26Z</time>
      </trkpt>
      <trkpt lat="47.91359" lon="5.40195">
        <ele>338.2</ele>
        <time>2021-06-23T09:18:31Z</time>
      </trkpt>
      <trkpt lat="47.91366" lon="5.40215">
        <ele>339.55</ele>
        <time>2021-06-23T09:18:36Z</time>
      </trkpt>
      <trkpt lat="47.91397" lon="5.40378">
        <ele>339.6</ele>
        <time>2021-06-23T09:18:40Z</time>
      </trkpt>
      <trkpt lat="47.91449" lon="5.40687">
        <ele>342.21</ele>
        <time>2021-06-23T09:18:45Z</time>
      </trkpt>
      <trkpt lat="47.9147" lon="5.40776">
        <ele>342.02</ele>
        <time>2021-06-23T09:18:50Z</time>
      </trkpt>
      <trkpt lat="47.91473" lon="5.40786">
        <ele>342.65</ele>
        <time>2021-06-23T09:18:55Z</time>
      </trkpt>
      <trkpt lat="47.91489" lon="5.40816">
        <ele>344.3</ele>
        <time>2021-06-23T09:19:00Z</time>
      </trkpt>
      <trkpt lat="47.91504" lon="5.40834">
        <ele>344.29</ele>
        <time>2021-06-23T09:19:05Z</time>
      </trkpt>
      <trkpt lat="47.91516" lon="5.40844">
        <ele>345.56</ele>
        <time>2021-06-23T09:19:10Z</time>
      </trkpt>
      <trkpt lat="47.91531" lon="5.40852">
        <ele>347.29</ele>
        <time>2021-06-23T09:19:15Z</time>
      </trkpt>
      <trkpt lat="47.91561" lon="5.40858">
        <ele>352.3</ele>
        <time>2021-06-23T09:19:20Z</time>
      </trkpt>
      <trkpt lat="47.91701" lon="5.40843">
        <ele>363.05</ele>
        <time>2021-06-23T09:19:25Z</time>
      </trkpt>
      <trkpt lat="47.91766" lon="5.40839">
        <ele>365.33</ele>
        <time>2021-06-23T09:19:30Z</time>
      </trkpt>
      <trkpt lat="47.91792" lon="5.4084">
        <ele>364.82</ele>
        <time>2021-06-23T09:19:35Z</time>
      </trkpt>
      <trkpt lat="47.91814" lon="5.40846">
        <ele>365.35</ele>
        <time>2021-06-23T09:19:40Z</time>
      </trkpt>
      <trkpt lat="47.91833" lon="5.40855">
        <ele>366.64</ele>
        <time>2021-06-23T09:19:45Z</time>
      </trkpt>
      <trkpt lat="47.9185" lon="5.40866">
        <ele>369.03</ele>
        <time>2021-06-23T09:19:50Z</time>
      </trkpt>
      <trkpt lat="47.91866" lon="5.40881">
        <ele>371.12</ele>
        <time>2021-06-23T09:19:55Z</time>
      </trkpt>
      <trkpt lat="47.91884" lon="5.40903">
        <ele>372.73</ele>
        <time>2021-06-23T09:20:00Z</time>
      </trkpt>
      <trkpt lat="47.91969" lon="5.41021">
        <ele>380.57</ele>
        <time>2021-06-23T09:20:05Z</time>
      </trkpt>
      <trkpt lat="47.92092" lon="5.41173">
        <ele>386.49</ele>
        <time>2021-06-23T09:20:10Z</time>
      </trkpt>
      <trkpt lat="47.92128" lon="5.41227">
        <ele>387.59</ele>
        <time>2021-06-23T09:20:15Z</time>
      </trkpt>
      <trkpt lat="47.92146" lon="5.41259">
        <ele>388.93</ele>
        <time>2021-06-23T09:20:20Z</time>
      </trkpt>
      <trkpt lat="47.92168" lon="5.41309">
        <ele>393.28</ele>
        <time>2021-06-23T09:20:25Z</time>
      </trkpt>
      <trkpt lat="47.92268" lon="5.41557">
        <ele>395.36</ele>
        <time>2021-06-23T09:20:30Z</time>
      </trkpt>
      <trkpt lat="47.92316" lon="5.41658">
        <ele>396.27</ele>
        <time>2021-06-23T09:20:35Z</time>
      </trkpt>
      <trkpt lat="47.92604" lon="5.42221">
        <ele>402.95</ele>
        <time>2021-06-23T09:20:40Z</time>
      </trkpt>
      <trkpt lat="47.92753" lon="5.42508">
        <ele>402.82</ele>
        <time>2021-06-23T09:20:45Z</time>
      </trkpt>
      <trkpt lat="47.93147" lon="5.4326">
        <ele>411.11</ele>
        <time>2021-06-23T09:20:50Z</time>
      </trkpt>
      <trkpt lat="47.93172" lon="5.433">
        <ele>411.36</ele>
        <time>2021-06-23T09:20:55Z</time>
      </trkpt>
      <trkpt lat="47.93189" lon="5.4332">
        <ele>411.38</ele>
        <time>2021-06-23T09:21:00Z</time>
      </trkpt>
      <trkpt lat="47.93205" lon="5.43334">
        <ele>411.72</ele>
        <time>2021-06-23T09:21:05Z</time>
      </trkpt>
      <trkpt lat="47.93224" lon="5.43347">
        <ele>412.01</ele>
        <time>2021-06-23T09:21:10Z</time>
      </trkpt>
      <trkpt lat="47.93248" lon="5.43357">
        <ele>410.46</ele>
        <time>2021-06-23T09:21:15Z</time>
      </trkpt>
      <trkpt lat="47.93276" lon="5.43363">
        <ele>410.8</ele>
        <time>2021-06-23T09:21:20Z</time>
      </trkpt>
      <trkpt lat="47.9329" lon="5.43363">
        <ele>412.13</ele>
        <time>2021-06-23T09:21:25Z</time>
      </trkpt>
      <trkpt lat="47.93352" lon="5.43351">
        <ele>414.38</ele>
        <time>2021-06-23T09:21:30Z</time>
      </trkpt>
      <trkpt lat="47.93631" lon="5.43289">
        <ele>409.83</ele>
        <time>2021-06-23T09:21:35Z</time>
      </trkpt>
      <trkpt lat="47.93719" lon="5.43272">
        <ele>410.97</ele>
        <time>2021-06-23T09:21:40Z</time>
      </trkpt>
      <trkpt lat="47.93746" lon="5.43274">
        <ele>410.4</ele>
        <time>2021-06-23T09:21:45Z</time>
      </trkpt>
      <trkpt lat="47.93774" lon="5.43281">
        <ele>410.79</ele>
        <time>2021-06-23T09:21:50Z</time>
      </trkpt>
      <trkpt lat="47.93795" lon="5.4329">
        <ele>413.02</ele>
        <time>2021-06-23T09:21:55Z</time>
      </trkpt>
      <trkpt lat="47.93823" lon="5.43312">
        <ele>416.07</ele>
        <time>2021-06-23T09:22:00Z</time>
      </trkpt>
      <trkpt lat="47.93837" lon="5.43326">
        <ele>416.96</ele>
        <time>2021-06-23T09:22:05Z</time>
      </trkpt>
      <trkpt lat="47.93862" lon="5.43356">
        <ele>416.68</ele>
        <time>2021-06-23T09:22:10Z</time>
      </trkpt>
      <trkpt lat="47.93912" lon="5.43422">
        <ele>414.69</ele>
        <time>2021-06-23T09:22:15Z</time>
      </trkpt>
      <trkpt lat="47.93912" lon="5.43422">
        <ele>414.69</ele>
        <time>2021-06-23T09:22:15Z</time>
      </trkpt>
      <trkpt lat="47.93924" lon="5.43438">
        <ele>412.69</ele>
        <time>2021-06-23T09:22:22Z</time>
      </trkpt>
      <trkpt lat="47.93948" lon="5.4348">
        <ele>411.86</ele>
        <time>2021-06-23T09:22:30Z</time>
      </trkpt>
      <trkpt lat="47.93961" lon="5.43508">
        <ele>411.28</ele>
        <time>2021-06-23T09:22:37Z</time>
      </trkpt>
      <trkpt lat="47.93972" lon="5.43538">
        <ele>411</ele>
        <time>2021-06-23T09:22:45Z</time>
      </trkpt>
      <trkpt lat="47.93984" lon="5.43579">
        <ele>411.77</ele>
        <time>2021-06-23T09:22:52Z</time>
      </trkpt>
      <trkpt lat="47.93991" lon="5.43611">
        <ele>413.07</ele>
        <time>2021-06-23T09:23:00Z</time>
      </trkpt>
      <trkpt lat="47.94042" lon="5.43909">
        <ele>423.55</ele>
        <time>2021-06-23T09:23:07Z</time>
      </trkpt>
      <trkpt lat="47.94052" lon="5.4396">
        <ele>426.32</ele>
        <time>2021-06-23T09:23:15Z</time>
      </trkpt>
      <trkpt lat="47.94061" lon="5.43992">
        <ele>426.28</ele>
        <time>2021-06-23T09:23:22Z</time>
      </trkpt>
      <trkpt lat="47.94087" lon="5.44072">
        <ele>422.84</ele>
        <time>2021-06-23T09:23:29Z</time>
      </trkpt>
      <trkpt lat="47.94137" lon="5.44241">
        <ele>425.92</ele>
        <time>2021-06-23T09:23:37Z</time>
      </trkpt>
      <trkpt lat="47.94315" lon="5.44808">
        <ele>419.76</ele>
        <time>2021-06-23T09:23:44Z</time>
      </trkpt>
      <trkpt lat="47.94332" lon="5.44854">
        <ele>421.47</ele>
        <time>2021-06-23T09:23:52Z</time>
      </trkpt>
      <trkpt lat="47.94357" lon="5.44908">
        <ele>422.05</ele>
        <time>2021-06-23T09:23:59Z</time>
      </trkpt>
      <trkpt lat="47.94389" lon="5.44964">
        <ele>420.29</ele>
        <time>2021-06-23T09:24:07Z</time>
      </trkpt>
      <trkpt lat="47.94415" lon="5.44999">
        <ele>420</ele>
        <time>2021-06-23T09:24:14Z</time>
      </trkpt>
      <trkpt lat="47.94465" lon="5.45059">
        <ele>416.45</ele>
        <time>2021-06-23T09:24:22Z</time>
      </trkpt>
      <trkpt lat="47.94483" lon="5.45076">
        <ele>415.61</ele>
        <time>2021-06-23T09:24:29Z</time>
      </trkpt>
      <trkpt lat="47.94507" lon="5.45093">
        <ele>414.75</ele>
        <time>2021-06-23T09:24:37Z</time>
      </trkpt>
      <trkpt lat="47.94629" lon="5.45161">
        <ele>413.47</ele>
        <time>2021-06-23T09:24:44Z</time>
      </trkpt>
      <trkpt lat="47.94823" lon="5.45249">
        <ele>408.08</ele>
        <time>2021-06-23T09:24:51Z</time>
      </trkpt>
      <trkpt lat="47.94864" lon="5.45271">
        <ele>407.01</ele>
        <time>2021-06-23T09:24:59Z</time>
      </trkpt>
      <trkpt lat="47.94923" lon="5.45304">
        <ele>405.3</ele>
        <time>2021-06-23T09:25:06Z</time>
      </trkpt>
      <trkpt lat="47.94984" lon="5.4534">
        <ele>405.38</ele>
        <time>2021-06-23T09:25:14Z</time>
      </trkpt>
      <trkpt lat="47.95081" lon="5.454">
        <ele>401.73</ele>
        <time>2021-06-23T09:25:21Z</time>
      </trkpt>
      <trkpt lat="47.95103" lon="5.45418">
        <ele>400.29</ele>
        <time>2021-06-23T09:25:29Z</time>
      </trkpt>
      <trkpt lat="47.95123" lon="5.45438">
        <ele>400.24</ele>
        <time>2021-06-23T09:25:36Z</time>
      </trkpt>
      <trkpt lat="47.95134" lon="5.45454">
        <ele>399.72</ele>
        <time>2021-06-23T09:25:44Z</time>
      </trkpt>
      <trkpt lat="47.95173" lon="5.45519">
        <ele>392.3</ele>
        <time>2021-06-23T09:25:51Z</time>
      </trkpt>
      <trkpt lat="47.952" lon="5.4556">
        <ele>388.36</ele>
        <time>2021-06-23T09:25:59Z</time>
      </trkpt>
      <trkpt lat="47.95407" lon="5.45845">
        <ele>389.69</ele>
        <time>2021-06-23T09:26:06Z</time>
      </trkpt>
      <trkpt lat="47.95462" lon="5.45925">
        <ele>397.2</ele>
        <time>2021-06-23T09:26:13Z</time>
      </trkpt>
      <trkpt lat="47.95506" lon="5.46001">
        <ele>408.29</ele>
        <time>2021-06-23T09:26:21Z</time>
      </trkpt>
      <trkpt lat="47.95555" lon="5.46091">
        <ele>417.24</ele>
        <time>2021-06-23T09:26:28Z</time>
      </trkpt>
      <trkpt lat="47.95652" lon="5.46294">
        <ele>422.48</ele>
        <time>2021-06-23T09:26:36Z</time>
      </trkpt>
      <trkpt lat="47.95729" lon="5.46431">
        <ele>424.53</ele>
        <time>2021-06-23T09:26:43Z</time>
      </trkpt>
      <trkpt lat="47.96313" lon="5.47472">
        <ele>432.75</ele>
        <time>2021-06-23T09:26:51Z</time>
      </trkpt>
      <trkpt lat="47.96341" lon="5.47512">
        <ele>431.54</ele>
        <time>2021-06-23T09:26:58Z</time>
      </trkpt>
      <trkpt lat="47.96341" lon="5.47512">
        <ele>431.54</ele>
        <time>2021-06-23T09:26:58Z</time>
      </trkpt>
      <trkpt lat="47.96363" lon="5.47535">
        <ele>430.98</ele>
        <time>2021-06-23T09:27:11Z</time>
      </trkpt>
      <trkpt lat="47.96442" lon="5.47596">
        <ele>431.41</ele>
        <time>2021-06-23T09:27:24Z</time>
      </trkpt>
      <trkpt lat="47.965" lon="5.47633">
        <ele>428.47</ele>
        <time>2021-06-23T09:27:37Z</time>
      </trkpt>
      <trkpt lat="47.96584" lon="5.47684">
        <ele>422.78</ele>
        <time>2021-06-23T09:27:49Z</time>
      </trkpt>
      <trkpt lat="47.9673" lon="5.47756">
        <ele>429.84</ele>
        <time>2021-06-23T09:28:02Z</time>
      </trkpt>
      <trkpt lat="47.96783" lon="5.47791">
        <ele>430.57</ele>
        <time>2021-06-23T09:28:15Z</time>
      </trkpt>
      <trkpt lat="47.9701" lon="5.47975">
        <ele>428.74</ele>
        <time>2021-06-23T09:28:28Z</time>
      </trkpt>
      <trkpt lat="47.97279" lon="5.48212">
        <ele>433.01</ele>
        <time>2021-06-23T09:28:40Z</time>
      </trkpt>
      <trkpt lat="47.97332" lon="5.48248">
        <ele>431.11</ele>
        <time>2021-06-23T09:28:53Z</time>
      </trkpt>
      <trkpt lat="47.97445" lon="5.48304">
        <ele>428.02</ele>
        <time>2021-06-23T09:29:06Z</time>
      </trkpt>
      <trkpt lat="47.97647" lon="5.4838">
        <ele>424.17</ele>
        <time>2021-06-23T09:29:19Z</time>
      </trkpt>
      <trkpt lat="47.97851" lon="5.48454">
        <ele>430.33</ele>
        <time>2021-06-23T09:29:31Z</time>
      </trkpt>
      <trkpt lat="47.98916" lon="5.48533">
        <ele>427.97</ele>
        <time>2021-06-23T09:29:44Z</time>
      </trkpt>
      <trkpt lat="47.99615" lon="5.48589">
        <ele>428.13</ele>
        <time>2021-06-23T09:29:57Z</time>
      </trkpt>
      <trkpt lat="47.9971" lon="5.48597">
        <ele>430.51</ele>
        <time>2021-06-23T09:30:10Z</time>
      </trkpt>
      <trkpt lat="47.99728" lon="5.48601">
        <ele>430.49</ele>
        <time>2021-06-23T09:30:23Z</time>
      </trkpt>
      <trkpt lat="47.99772" lon="5.48615">
        <ele>430.88</ele>
        <time>2021-06-23T09:30:35Z</time>
      </trkpt>
      <trkpt lat="47.9982" lon="5.48641">
        <ele>431</ele>
        <time>2021-06-23T09:30:48Z</time>
      </trkpt>
      <trkpt lat="47.99943" lon="5.48725">
        <ele>432.01</ele>
        <time>2021-06-23T09:31:01Z</time>
      </trkpt>
      <trkpt lat="48.00016" lon="5.48781">
        <ele>431.06</ele>
        <time>2021-06-23T09:31:14Z</time>
      </trkpt>
      <trkpt lat="48.00067" lon="5.48816">
        <ele>429.82</ele>
        <time>2021-06-23T09:31:26Z</time>
      </trkpt>
      <trkpt lat="48.00106" lon="5.48851">
        <ele>426.55</ele>
        <time>2021-06-23T09:31:39Z</time>
      </trkpt>
      <trkpt lat="48.00121" lon="5.48875">
        <ele>424.28</ele>
        <time>2021-06-23T09:31:52Z</time>
      </trkpt>
      <trkpt lat="48.00119" lon="5.48882">
        <ele>423.93</ele>
        <time>2021-06-23T09:31:53Z</time>
      </trkpt>
      <trkpt lat="48.00122" lon="5.48892">
        <ele>423.03</ele>
        <time>2021-06-23T09:31:54Z</time>
      </trkpt>
      <trkpt lat="48.00122" lon="5.48906">
        <ele>422.05</ele>
        <time>2021-06-23T09:31:54Z</time>
      </trkpt>
      <trkpt lat="48.00122" lon="5.48906">
        <ele>422.05</ele>
        <time>2021-06-23T09:31:54Z</time>
      </trkpt>
      <trkpt lat="48.00121" lon="5.48924">
        <ele>421.08</ele>
        <time>2021-06-23T09:32:00Z</time>
      </trkpt>
      <trkpt lat="48.0009" lon="5.4908">
        <ele>423.7</ele>
        <time>2021-06-23T09:32:06Z</time>
      </trkpt>
      <trkpt lat="48.00081" lon="5.49142">
        <ele>423.57</ele>
        <time>2021-06-23T09:32:12Z</time>
      </trkpt>
      <trkpt lat="48.00077" lon="5.49178">
        <ele>423.1</ele>
        <time>2021-06-23T09:32:17Z</time>
      </trkpt>
      <trkpt lat="48.00071" lon="5.49242">
        <ele>419.45</ele>
        <time>2021-06-23T09:32:23Z</time>
      </trkpt>
      <trkpt lat="48.00067" lon="5.4931">
        <ele>416.33</ele>
        <time>2021-06-23T09:32:29Z</time>
      </trkpt>
      <trkpt lat="48.00072" lon="5.49385">
        <ele>413.34</ele>
        <time>2021-06-23T09:32:35Z</time>
      </trkpt>
      <trkpt lat="48.00089" lon="5.49461">
        <ele>409.63</ele>
        <time>2021-06-23T09:32:41Z</time>
      </trkpt>
      <trkpt lat="48.00116" lon="5.49526">
        <ele>406.29</ele>
        <time>2021-06-23T09:32:46Z</time>
      </trkpt>
      <trkpt lat="48.00148" lon="5.49585">
        <ele>405.98</ele>
        <time>2021-06-23T09:32:52Z</time>
      </trkpt>
      <trkpt lat="48.00255" lon="5.49721">
        <ele>395.33</ele>
        <time>2021-06-23T09:32:58Z</time>
      </trkpt>
      <trkpt lat="48.00285" lon="5.49764">
        <ele>393.78</ele>
        <time>2021-06-23T09:33:04Z</time>
      </trkpt>
      <trkpt lat="48.00309" lon="5.49815">
        <ele>394.89</ele>
        <time>2021-06-23T09:33:09Z</time>
      </trkpt>
      <trkpt lat="48.00322" lon="5.49866">
        <ele>393.21</ele>
        <time>2021-06-23T09:33:15Z</time>
      </trkpt>
      <trkpt lat="48.00332" lon="5.49925">
        <ele>388.06</ele>
        <time>2021-06-23T09:33:21Z</time>
      </trkpt>
      <trkpt lat="48.0034" lon="5.50036">
        <ele>385.49</ele>
        <time>2021-06-23T09:33:27Z</time>
      </trkpt>
      <trkpt lat="48.00338" lon="5.50078">
        <ele>384.11</ele>
        <time>2021-06-23T09:33:32Z</time>
      </trkpt>
      <trkpt lat="48.0033" lon="5.5011">
        <ele>382.48</ele>
        <time>2021-06-23T09:33:38Z</time>
      </trkpt>
      <trkpt lat="48.00314" lon="5.50133">
        <ele>381.04</ele>
        <time>2021-06-23T09:33:44Z</time>
      </trkpt>
      <trkpt lat="48.00287" lon="5.50157">
        <ele>380.9</ele>
        <time>2021-06-23T09:33:50Z</time>
      </trkpt>
      <trkpt lat="48.0027" lon="5.50176">
        <ele>380.78</ele>
        <time>2021-06-23T09:33:55Z</time>
      </trkpt>
      <trkpt lat="48.00256" lon="5.50197">
        <ele>380.12</ele>
        <time>2021-06-23T09:34:01Z</time>
      </trkpt>
      <trkpt lat="48.00238" lon="5.50237">
        <ele>378.42</ele>
        <time>2021-06-23T09:34:07Z</time>
      </trkpt>
      <trkpt lat="48.00211" lon="5.50342">
        <ele>369.4</ele>
        <time>2021-06-23T09:34:13Z</time>
      </trkpt>
      <trkpt lat="48.00202" lon="5.50368">
        <ele>368.48</ele>
        <time>2021-06-23T09:34:19Z</time>
      </trkpt>
      <trkpt lat="48.00191" lon="5.50389">
        <ele>368.38</ele>
        <time>2021-06-23T09:34:24Z</time>
      </trkpt>
      <trkpt lat="48.00141" lon="5.50459">
        <ele>368.9</ele>
        <time>2021-06-23T09:34:30Z</time>
      </trkpt>
      <trkpt lat="48.00128" lon="5.50498">
        <ele>367.71</ele>
        <time>2021-06-23T09:34:36Z</time>
      </trkpt>
      <trkpt lat="48.00114" lon="5.5057">
        <ele>366.95</ele>
        <time>2021-06-23T09:34:42Z</time>
      </trkpt>
      <trkpt lat="48.00037" lon="5.51017">
        <ele>360.74</ele>
        <time>2021-06-23T09:34:47Z</time>
      </trkpt>
      <trkpt lat="48.00014" lon="5.511">
        <ele>361.58</ele>
        <time>2021-06-23T09:34:53Z</time>
      </trkpt>
      <trkpt lat="48.00003" lon="5.51146">
        <ele>362.11</ele>
        <time>2021-06-23T09:34:59Z</time>
      </trkpt>
      <trkpt lat="47.99985" lon="5.51252">
        <ele>360.52</ele>
        <time>2021-06-23T09:35:05Z</time>
      </trkpt>
      <trkpt lat="47.99975" lon="5.51326">
        <ele>362</ele>
        <time>2021-06-23T09:35:10Z</time>
      </trkpt>
      <trkpt lat="47.99961" lon="5.51445">
        <ele>362</ele>
        <time>2021-06-23T09:35:16Z</time>
      </trkpt>
      <trkpt lat="47.99707" lon="5.5285">
        <ele>346.44</ele>
        <time>2021-06-23T09:35:22Z</time>
      </trkpt>
      <trkpt lat="47.99666" lon="5.5306">
        <ele>347.95</ele>
        <time>2021-06-23T09:35:28Z</time>
      </trkpt>
      <trkpt lat="47.99637" lon="5.5323">
        <ele>342.02</ele>
        <time>2021-06-23T09:35:33Z</time>
      </trkpt>
      <trkpt lat="47.99576" lon="5.5357">
        <ele>351.89</ele>
        <time>2021-06-23T09:35:39Z</time>
      </trkpt>
      <trkpt lat="47.99401" lon="5.5453">
        <ele>357.07</ele>
        <time>2021-06-23T09:35:45Z</time>
      </trkpt>
      <trkpt lat="47.99384" lon="5.54602">
        <ele>356.06</ele>
        <time>2021-06-23T09:35:51Z</time>
      </trkpt>
      <trkpt lat="47.99366" lon="5.54653">
        <ele>356.6</ele>
        <time>2021-06-23T09:35:57Z</time>
      </trkpt>
      <trkpt lat="47.99337" lon="5.54719">
        <ele>356.74</ele>
        <time>2021-06-23T09:36:02Z</time>
      </trkpt>
      <trkpt lat="47.99188" lon="5.54993">
        <ele>343.34</ele>
        <time>2021-06-23T09:36:08Z</time>
      </trkpt>
      <trkpt lat="47.99181" lon="5.55013">
        <ele>343.13</ele>
        <time>2021-06-23T09:36:14Z</time>
      </trkpt>
      <trkpt lat="47.99176" lon="5.55036">
        <ele>342.89</ele>
        <time>2021-06-23T09:36:20Z</time>
      </trkpt>
      <trkpt lat="47.99173" lon="5.55057">
        <ele>342.74</ele>
        <time>2021-06-23T09:36:25Z</time>
      </trkpt>
      <trkpt lat="47.99173" lon="5.55092">
        <ele>342.57</ele>
        <time>2021-06-23T09:36:31Z</time>
      </trkpt>
      <trkpt lat="47.99174" lon="5.551">
        <ele>342.38</ele>
        <time>2021-06-23T09:36:31Z</time>
      </trkpt>
      <trkpt lat="47.99174" lon="5.551">
        <ele>342.38</ele>
        <time>2021-06-23T09:36:31Z</time>
      </trkpt>
      <trkpt lat="47.99178" lon="5.55133">
        <ele>342.18</ele>
        <time>2021-06-23T09:36:59Z</time>
      </trkpt>
      <trkpt lat="47.99186" lon="5.55146">
        <ele>341.8</ele>
        <time>2021-06-23T09:37:26Z</time>
      </trkpt>
      <trkpt lat="47.99194" lon="5.55152">
        <ele>341.48</ele>
        <time>2021-06-23T09:37:54Z</time>
      </trkpt>
      <trkpt lat="47.99205" lon="5.55167">
        <ele>342.02</ele>
        <time>2021-06-23T09:38:21Z</time>
      </trkpt>
      <trkpt lat="47.99362" lon="5.55427">
        <ele>356.37</ele>
        <time>2021-06-23T09:38:49Z</time>
      </trkpt>
      <trkpt lat="48.00381" lon="5.57094">
        <ele>371.38</ele>
        <time>2021-06-23T09:39:16Z</time>
      </trkpt>
      <trkpt lat="48.01538" lon="5.58983">
        <ele>371</ele>
        <time>2021-06-23T09:39:44Z</time>
      </trkpt>
      <trkpt lat="48.01594" lon="5.59079">
        <ele>373.08</ele>
        <time>2021-06-23T09:40:11Z</time>
      </trkpt>
      <trkpt lat="48.01594" lon="5.59079">
        <ele>373.08</ele>
        <time>2021-06-23T09:40:11Z</time>
      </trkpt>
      <trkpt lat="48.01605" lon="5.59103">
        <ele>373.17</ele>
        <time>2021-06-23T09:40:49Z</time>
      </trkpt>
      <trkpt lat="48.01623" lon="5.59154">
        <ele>372.25</ele>
        <time>2021-06-23T09:41:26Z</time>
      </trkpt>
      <trkpt lat="48.02318" lon="5.61373">
        <ele>387.27</ele>
        <time>2021-06-23T09:42:03Z</time>
      </trkpt>
      <trkpt lat="48.02396" lon="5.61627">
        <ele>389.76</ele>
        <time>2021-06-23T09:42:41Z</time>
      </trkpt>
      <trkpt lat="48.02463" lon="5.61838">
        <ele>389.21</ele>
        <time>2021-06-23T09:43:18Z</time>
      </trkpt>
      <trkpt lat="48.03141" lon="5.64007">
        <ele>391</ele>
        <time>2021-06-23T09:43:55Z</time>
      </trkpt>
      <trkpt lat="48.03735" lon="5.65924">
        <ele>397.42</ele>
        <time>2021-06-23T09:44:33Z</time>
      </trkpt>
      <trkpt lat="48.03735" lon="5.65924">
        <ele>397.42</ele>
        <time>2021-06-23T09:44:33Z</time>
      </trkpt>
      <trkpt lat="48.03788" lon="5.66102">
        <ele>396.25</ele>
        <time>2021-06-23T09:44:57Z</time>
      </trkpt>
      <trkpt lat="48.03796" lon="5.66149">
        <ele>397.78</ele>
        <time>2021-06-23T09:45:20Z</time>
      </trkpt>
      <trkpt lat="48.03804" lon="5.66233">
        <ele>397.65</ele>
        <time>2021-06-23T09:45:44Z</time>
      </trkpt>
      <trkpt lat="48.03973" lon="5.68245">
        <ele>425.01</ele>
        <time>2021-06-23T09:46:08Z</time>
      </trkpt>
      <trkpt lat="48.04152" lon="5.70425">
        <ele>446.69</ele>
        <time>2021-06-23T09:46:31Z</time>
      </trkpt>
      <trkpt lat="48.04161" lon="5.70507">
        <ele>445.11</ele>
        <time>2021-06-23T09:46:55Z</time>
      </trkpt>
      <trkpt lat="48.04323" lon="5.71055">
        <ele>447.49</ele>
        <time>2021-06-23T09:47:19Z</time>
      </trkpt>
      <trkpt lat="48.04375" lon="5.71404">
        <ele>455.77</ele>
        <time>2021-06-23T09:47:43Z</time>
      </trkpt>
      <trkpt lat="48.04467" lon="5.72037">
        <ele>459.52</ele>
        <time>2021-06-23T09:48:06Z</time>
      </trkpt>
      <trkpt lat="48.045" lon="5.72243">
        <ele>466.99</ele>
        <time>2021-06-23T09:48:30Z</time>
      </trkpt>
      <trkpt lat="48.0454" lon="5.72378">
        <ele>468.97</ele>
        <time>2021-06-23T09:48:54Z</time>
      </trkpt>
      <trkpt lat="48.05028" lon="5.73733">
        <ele>475.01</ele>
        <time>2021-06-23T09:49:18Z</time>
      </trkpt>
      <trkpt lat="48.05303" lon="5.7524">
        <ele>487.07</ele>
        <time>2021-06-23T09:49:41Z</time>
      </trkpt>
      <trkpt lat="48.05306" lon="5.75252">
        <ele>486.73</ele>
        <time>2021-06-23T09:50:05Z</time>
      </trkpt>
      <trkpt lat="48.05306" lon="5.75252">
        <ele>486.73</ele>
        <time>2021-06-23T09:50:05Z</time>
      </trkpt>
      <trkpt lat="48.0531" lon="5.75264">
        <ele>486.4</ele>
        <time>2021-06-23T09:50:07Z</time>
      </trkpt>
      <trkpt lat="48.05322" lon="5.75289">
        <ele>484.76</ele>
        <time>2021-06-23T09:50:08Z</time>
      </trkpt>
      <trkpt lat="48.0534" lon="5.75311">
        <ele>482.35</ele>
        <time>2021-06-23T09:50:10Z</time>
      </trkpt>
      <trkpt lat="48.05358" lon="5.75324">
        <ele>480.54</ele>
        <time>2021-06-23T09:50:11Z</time>
      </trkpt>
      <trkpt lat="48.05377" lon="5.75331">
        <ele>478.94</ele>
        <time>2021-06-23T09:50:13Z</time>
      </trkpt>
      <trkpt lat="48.05396" lon="5.75332">
        <ele>477.81</ele>
        <time>2021-06-23T09:50:14Z</time>
      </trkpt>
      <trkpt lat="48.05442" lon="5.75318">
        <ele>477.21</ele>
        <time>2021-06-23T09:50:16Z</time>
      </trkpt>
      <trkpt lat="48.05462" lon="5.75314">
        <ele>476.74</ele>
        <time>2021-06-23T09:50:17Z</time>
      </trkpt>
      <trkpt lat="48.05511" lon="5.75291">
        <ele>474.56</ele>
        <time>2021-06-23T09:50:19Z</time>
      </trkpt>
      <trkpt lat="48.05528" lon="5.75287">
        <ele>473.37</ele>
        <time>2021-06-23T09:50:20Z</time>
      </trkpt>
      <trkpt lat="48.05547" lon="5.75286">
        <ele>473.64</ele>
        <time>2021-06-23T09:50:22Z</time>
      </trkpt>
      <trkpt lat="48.05572" lon="5.7529">
        <ele>472.07</ele>
        <time>2021-06-23T09:50:23Z</time>
      </trkpt>
      <trkpt lat="48.05633" lon="5.75315">
        <ele>462.63</ele>
        <time>2021-06-23T09:50:25Z</time>
      </trkpt>
      <trkpt lat="48.05647" lon="5.75316">
        <ele>461.71</ele>
        <time>2021-06-23T09:50:27Z</time>
      </trkpt>
      <trkpt lat="48.05738" lon="5.75308">
        <ele>459.95</ele>
        <time>2021-06-23T09:50:28Z</time>
      </trkpt>
      <trkpt lat="48.05788" lon="5.75306">
        <ele>460.27</ele>
        <time>2021-06-23T09:50:30Z</time>
      </trkpt>
      <trkpt lat="48.05808" lon="5.75311">
        <ele>459.56</ele>
        <time>2021-06-23T09:50:31Z</time>
      </trkpt>
      <trkpt lat="48.0584" lon="5.75328">
        <ele>454.88</ele>
        <time>2021-06-23T09:50:33Z</time>
      </trkpt>
      <trkpt lat="48.05855" lon="5.75339">
        <ele>452.76</ele>
        <time>2021-06-23T09:50:34Z</time>
      </trkpt>
      <trkpt lat="48.05877" lon="5.75359">
        <ele>448.72</ele>
        <time>2021-06-23T09:50:36Z</time>
      </trkpt>
      <trkpt lat="48.05923" lon="5.75406">
        <ele>447.42</ele>
        <time>2021-06-23T09:50:37Z</time>
      </trkpt>
      <trkpt lat="48.05938" lon="5.75417">
        <ele>447.33</ele>
        <time>2021-06-23T09:50:39Z</time>
      </trkpt>
      <trkpt lat="48.05952" lon="5.75422">
        <ele>446.87</ele>
        <time>2021-06-23T09:50:40Z</time>
      </trkpt>
      <trkpt lat="48.05969" lon="5.75426">
        <ele>446.61</ele>
        <time>2021-06-23T09:50:42Z</time>
      </trkpt>
      <trkpt lat="48.06006" lon="5.7543">
        <ele>444.89</ele>
        <time>2021-06-23T09:50:43Z</time>
      </trkpt>
      <trkpt lat="48.06035" lon="5.75427">
        <ele>444.9</ele>
        <time>2021-06-23T09:50:45Z</time>
      </trkpt>
      <trkpt lat="48.06053" lon="5.75429">
        <ele>444.39</ele>
        <time>2021-06-23T09:50:46Z</time>
      </trkpt>
      <trkpt lat="48.06079" lon="5.75437">
        <ele>441.2</ele>
        <time>2021-06-23T09:50:48Z</time>
      </trkpt>
      <trkpt lat="48.06098" lon="5.75446">
        <ele>438.67</ele>
        <time>2021-06-23T09:50:50Z</time>
      </trkpt>
      <trkpt lat="48.0613" lon="5.75476">
        <ele>432.33</ele>
        <time>2021-06-23T09:50:51Z</time>
      </trkpt>
      <trkpt lat="48.06171" lon="5.75531">
        <ele>423.96</ele>
        <time>2021-06-23T09:50:53Z</time>
      </trkpt>
      <trkpt lat="48.06187" lon="5.75563">
        <ele>421.93</ele>
        <time>2021-06-23T09:50:54Z</time>
      </trkpt>
      <trkpt lat="48.062" lon="5.75599">
        <ele>417.32</ele>
        <time>2021-06-23T09:50:56Z</time>
      </trkpt>
      <trkpt lat="48.062" lon="5.75599">
        <ele>417.32</ele>
        <time>2021-06-23T09:50:56Z</time>
      </trkpt>
      <trkpt lat="48.06237" lon="5.75698">
        <ele>412.72</ele>
        <time>2021-06-23T09:51:02Z</time>
      </trkpt>
      <trkpt lat="48.06324" lon="5.75882">
        <ele>401.15</ele>
        <time>2021-06-23T09:51:08Z</time>
      </trkpt>
      <trkpt lat="48.06338" lon="5.7592">
        <ele>398.69</ele>
        <time>2021-06-23T09:51:15Z</time>
      </trkpt>
      <trkpt lat="48.06358" lon="5.76002">
        <ele>395.29</ele>
        <time>2021-06-23T09:51:21Z</time>
      </trkpt>
      <trkpt lat="48.06389" lon="5.76175">
        <ele>381.69</ele>
        <time>2021-06-23T09:51:27Z</time>
      </trkpt>
      <trkpt lat="48.06413" lon="5.76252">
        <ele>375.94</ele>
        <time>2021-06-23T09:51:34Z</time>
      </trkpt>
      <trkpt lat="48.06456" lon="5.76318">
        <ele>372.72</ele>
        <time>2021-06-23T09:51:40Z</time>
      </trkpt>
      <trkpt lat="48.06587" lon="5.76482">
        <ele>363.82</ele>
        <time>2021-06-23T09:51:46Z</time>
      </trkpt>
      <trkpt lat="48.06617" lon="5.7654">
        <ele>362.79</ele>
        <time>2021-06-23T09:51:53Z</time>
      </trkpt>
      <trkpt lat="48.06992" lon="5.77593">
        <ele>355.64</ele>
        <time>2021-06-23T09:51:59Z</time>
      </trkpt>
      <trkpt lat="48.07009" lon="5.77644">
        <ele>355.12</ele>
        <time>2021-06-23T09:52:05Z</time>
      </trkpt>
      <trkpt lat="48.07057" lon="5.77775">
        <ele>353.11</ele>
        <time>2021-06-23T09:52:12Z</time>
      </trkpt>
      <trkpt lat="48.07074" lon="5.7782">
        <ele>352</ele>
        <time>2021-06-23T09:52:18Z</time>
      </trkpt>
      <trkpt lat="48.07098" lon="5.77897">
        <ele>351.85</ele>
        <time>2021-06-23T09:52:24Z</time>
      </trkpt>
      <trkpt lat="48.07101" lon="5.77926">
        <ele>351.3</ele>
        <time>2021-06-23T09:52:31Z</time>
      </trkpt>
      <trkpt lat="48.07099" lon="5.77951">
        <ele>350.68</ele>
        <time>2021-06-23T09:52:37Z</time>
      </trkpt>
      <trkpt lat="48.07074" lon="5.7808">
        <ele>355.33</ele>
        <time>2021-06-23T09:52:43Z</time>
      </trkpt>
      <trkpt lat="48.07065" lon="5.78181">
        <ele>357</ele>
        <time>2021-06-23T09:52:50Z</time>
      </trkpt>
      <trkpt lat="48.07064" lon="5.78193">
        <ele>357</ele>
        <time>2021-06-23T09:52:56Z</time>
      </trkpt>
      <trkpt lat="48.07066" lon="5.78205">
        <ele>357.38</ele>
        <time>2021-06-23T09:53:02Z</time>
      </trkpt>
      <trkpt lat="48.07077" lon="5.78219">
        <ele>357.87</ele>
        <time>2021-06-23T09:53:08Z</time>
      </trkpt>
      <trkpt lat="48.07124" lon="5.78262">
        <ele>356.46</ele>
        <time>2021-06-23T09:53:15Z</time>
      </trkpt>
      <trkpt lat="48.07172" lon="5.78301">
        <ele>355.44</ele>
        <time>2021-06-23T09:53:21Z</time>
      </trkpt>
      <trkpt lat="48.07188" lon="5.78309">
        <ele>354.61</ele>
        <time>2021-06-23T09:53:27Z</time>
      </trkpt>
      <trkpt lat="48.07222" lon="5.78314">
        <ele>352.62</ele>
        <time>2021-06-23T09:53:34Z</time>
      </trkpt>
      <trkpt lat="48.07236" lon="5.78323">
        <ele>352.46</ele>
        <time>2021-06-23T09:53:40Z</time>
      </trkpt>
      <trkpt lat="48.07257" lon="5.78347">
        <ele>353.21</ele>
        <time>2021-06-23T09:53:46Z</time>
      </trkpt>
      <trkpt lat="48.07267" lon="5.78362">
        <ele>354.64</ele>
        <time>2021-06-23T09:53:53Z</time>
      </trkpt>
      <trkpt lat="48.07275" lon="5.78385">
        <ele>356.63</ele>
        <time>2021-06-23T09:53:59Z</time>
      </trkpt>
      <trkpt lat="48.07282" lon="5.78412">
        <ele>357.81</ele>
        <time>2021-06-23T09:54:05Z</time>
      </trkpt>
      <trkpt lat="48.07327" lon="5.78595">
        <ele>362.41</ele>
        <time>2021-06-23T09:54:12Z</time>
      </trkpt>
      <trkpt lat="48.07378" lon="5.78773">
        <ele>365.34</ele>
        <time>2021-06-23T09:54:18Z</time>
      </trkpt>
      <trkpt lat="48.07452" lon="5.79044">
        <ele>372.77</ele>
        <time>2021-06-23T09:54:24Z</time>
      </trkpt>
      <trkpt lat="48.07464" lon="5.79078">
        <ele>374.49</ele>
        <time>2021-06-23T09:54:31Z</time>
      </trkpt>
      <trkpt lat="48.07478" lon="5.79112">
        <ele>376.27</ele>
        <time>2021-06-23T09:54:37Z</time>
      </trkpt>
      <trkpt lat="48.07689" lon="5.79553">
        <ele>388.87</ele>
        <time>2021-06-23T09:54:43Z</time>
      </trkpt>
      <trkpt lat="48.07746" lon="5.79707">
        <ele>392.5</ele>
        <time>2021-06-23T09:54:50Z</time>
      </trkpt>
      <trkpt lat="48.07815" lon="5.79851">
        <ele>392.17</ele>
        <time>2021-06-23T09:54:56Z</time>
      </trkpt>
      <trkpt lat="48.07987" lon="5.80151">
        <ele>389.01</ele>
        <time>2021-06-23T09:55:02Z</time>
      </trkpt>
      <trkpt lat="48.08152" lon="5.8043">
        <ele>377.14</ele>
        <time>2021-06-23T09:55:09Z</time>
      </trkpt>
      <trkpt lat="48.08152" lon="5.8043">
        <ele>377.14</ele>
        <time>2021-06-23T09:55:09Z</time>
      </trkpt>
      <trkpt lat="48.08191" lon="5.80477">
        <ele>374.29</ele>
        <time>2021-06-23T09:55:12Z</time>
      </trkpt>
      <trkpt lat="48.0822" lon="5.80505">
        <ele>373.52</ele>
        <time>2021-06-23T09:55:16Z</time>
      </trkpt>
      <trkpt lat="48.08262" lon="5.8053">
        <ele>372.17</ele>
        <time>2021-06-23T09:55:20Z</time>
      </trkpt>
      <trkpt lat="48.08312" lon="5.80548">
        <ele>369.51</ele>
        <time>2021-06-23T09:55:23Z</time>
      </trkpt>
      <trkpt lat="48.08506" lon="5.80549">
        <ele>369.77</ele>
        <time>2021-06-23T09:55:27Z</time>
      </trkpt>
      <trkpt lat="48.08556" lon="5.80524">
        <ele>368.88</ele>
        <time>2021-06-23T09:55:31Z</time>
      </trkpt>
      <trkpt lat="48.08628" lon="5.80472">
        <ele>369.61</ele>
        <time>2021-06-23T09:55:34Z</time>
      </trkpt>
      <trkpt lat="48.0867" lon="5.80449">
        <ele>370.43</ele>
        <time>2021-06-23T09:55:38Z</time>
      </trkpt>
      <trkpt lat="48.08763" lon="5.8041">
        <ele>367.26</ele>
        <time>2021-06-23T09:55:42Z</time>
      </trkpt>
      <trkpt lat="48.08859" lon="5.80374">
        <ele>361.9</ele>
        <time>2021-06-23T09:55:45Z</time>
      </trkpt>
      <trkpt lat="48.08913" lon="5.80361">
        <ele>360.13</ele>
        <time>2021-06-23T09:55:49Z</time>
      </trkpt>
      <trkpt lat="48.08986" lon="5.80362">
        <ele>360.59</ele>
        <time>2021-06-23T09:55:52Z</time>
      </trkpt>
      <trkpt lat="48.09044" lon="5.80374">
        <ele>363.42</ele>
        <time>2021-06-23T09:55:56Z</time>
      </trkpt>
      <trkpt lat="48.09107" lon="5.80404">
        <ele>362.85</ele>
        <time>2021-06-23T09:56:00Z</time>
      </trkpt>
      <trkpt lat="48.09107" lon="5.80404">
        <ele>362.85</ele>
        <time>2021-06-23T09:56:00Z</time>
      </trkpt>
      <trkpt lat="48.09129" lon="5.80415">
        <ele>362.29</ele>
        <time>2021-06-23T09:56:04Z</time>
      </trkpt>
      <trkpt lat="48.09182" lon="5.80459">
        <ele>365.86</ele>
        <time>2021-06-23T09:56:08Z</time>
      </trkpt>
      <trkpt lat="48.09338" lon="5.80628">
        <ele>361.58</ele>
        <time>2021-06-23T09:56:12Z</time>
      </trkpt>
      <trkpt lat="48.09506" lon="5.80768">
        <ele>357</ele>
        <time>2021-06-23T09:56:16Z</time>
      </trkpt>
      <trkpt lat="48.09575" lon="5.80852">
        <ele>355.86</ele>
        <time>2021-06-23T09:56:20Z</time>
      </trkpt>
      <trkpt lat="48.09823" lon="5.81178">
        <ele>354.13</ele>
        <time>2021-06-23T09:56:24Z</time>
      </trkpt>
      <trkpt lat="48.09842" lon="5.8121">
        <ele>353.41</ele>
        <time>2021-06-23T09:56:28Z</time>
      </trkpt>
      <trkpt lat="48.09863" lon="5.81256">
        <ele>353.15</ele>
        <time>2021-06-23T09:56:32Z</time>
      </trkpt>
      <trkpt lat="48.09894" lon="5.81351">
        <ele>354.54</ele>
        <time>2021-06-23T09:56:36Z</time>
      </trkpt>
      <trkpt lat="48.09913" lon="5.81433">
        <ele>354.23</ele>
        <time>2021-06-23T09:56:40Z</time>
      </trkpt>
      <trkpt lat="48.09966" lon="5.81726">
        <ele>358.43</ele>
        <time>2021-06-23T09:56:44Z</time>
      </trkpt>
      <trkpt lat="48.09995" lon="5.8181">
        <ele>358.32</ele>
        <time>2021-06-23T09:56:48Z</time>
      </trkpt>
      <trkpt lat="48.1003" lon="5.8189">
        <ele>359</ele>
        <time>2021-06-23T09:56:52Z</time>
      </trkpt>
      <trkpt lat="48.10088" lon="5.81993">
        <ele>361.75</ele>
        <time>2021-06-23T09:56:56Z</time>
      </trkpt>
      <trkpt lat="48.10161" lon="5.82077">
        <ele>361.15</ele>
        <time>2021-06-23T09:57:00Z</time>
      </trkpt>
      <trkpt lat="48.10178" lon="5.82083">
        <ele>360.99</ele>
        <time>2021-06-23T09:57:04Z</time>
      </trkpt>
      <trkpt lat="48.10195" lon="5.82076">
        <ele>360.65</ele>
        <time>2021-06-23T09:57:08Z</time>
      </trkpt>
      <trkpt lat="48.10232" lon="5.82026">
        <ele>358.04</ele>
        <time>2021-06-23T09:57:12Z</time>
      </trkpt>
      <trkpt lat="48.10243" lon="5.81998">
        <ele>358.24</ele>
        <time>2021-06-23T09:57:16Z</time>
      </trkpt>
      <trkpt lat="48.10263" lon="5.81896">
        <ele>355.53</ele>
        <time>2021-06-23T09:57:20Z</time>
      </trkpt>
      <trkpt lat="48.10272" lon="5.8188">
        <ele>355.14</ele>
        <time>2021-06-23T09:57:24Z</time>
      </trkpt>
      <trkpt lat="48.10308" lon="5.81851">
        <ele>353.9</ele>
        <time>2021-06-23T09:57:28Z</time>
      </trkpt>
      <trkpt lat="48.1033" lon="5.81837">
        <ele>353.13</ele>
        <time>2021-06-23T09:57:32Z</time>
      </trkpt>
      <trkpt lat="48.10334" lon="5.81836">
        <ele>352.98</ele>
        <time>2021-06-23T09:57:36Z</time>
      </trkpt>
      <trkpt lat="48.10346" lon="5.81842">
        <ele>352.69</ele>
        <time>2021-06-23T09:57:40Z</time>
      </trkpt>
      <trkpt lat="48.10382" lon="5.81881">
        <ele>352.78</ele>
        <time>2021-06-23T09:57:44Z</time>
      </trkpt>
      <trkpt lat="48.10396" lon="5.81903">
        <ele>353.13</ele>
        <time>2021-06-23T09:57:48Z</time>
      </trkpt>
      <trkpt lat="48.10435" lon="5.8203">
        <ele>354</ele>
        <time>2021-06-23T09:57:52Z</time>
      </trkpt>
      <trkpt lat="48.10445" lon="5.82082">
        <ele>354.94</ele>
        <time>2021-06-23T09:57:56Z</time>
      </trkpt>
      <trkpt lat="48.10445" lon="5.82128">
        <ele>355</ele>
        <time>2021-06-23T09:58:00Z</time>
      </trkpt>
      <trkpt lat="48.10447" lon="5.82142">
        <ele>355</ele>
        <time>2021-06-23T09:58:04Z</time>
      </trkpt>
      <trkpt lat="48.10452" lon="5.82154">
        <ele>355</ele>
        <time>2021-06-23T09:58:08Z</time>
      </trkpt>
      <trkpt lat="48.10463" lon="5.8217">
        <ele>355.04</ele>
        <time>2021-06-23T09:58:12Z</time>
      </trkpt>
      <trkpt lat="48.10491" lon="5.82181">
        <ele>355.34</ele>
        <time>2021-06-23T09:58:16Z</time>
      </trkpt>
      <trkpt lat="48.10525" lon="5.82224">
        <ele>356.89</ele>
        <time>2021-06-23T09:58:20Z</time>
      </trkpt>
      <trkpt lat="48.10558" lon="5.82245">
        <ele>358.15</ele>
        <time>2021-06-23T09:58:24Z</time>
      </trkpt>
      <trkpt lat="48.10575" lon="5.8225">
        <ele>359.41</ele>
        <time>2021-06-23T09:58:28Z</time>
      </trkpt>
      <trkpt lat="48.1059" lon="5.82263">
        <ele>360</ele>
        <time>2021-06-23T09:58:32Z</time>
      </trkpt>
      <trkpt lat="48.10611" lon="5.82314">
        <ele>359.7</ele>
        <time>2021-06-23T09:58:36Z</time>
      </trkpt>
      <trkpt lat="48.1062" lon="5.82328">
        <ele>359.77</ele>
        <time>2021-06-23T09:58:40Z</time>
      </trkpt>
      <trkpt lat="48.10713" lon="5.82416">
        <ele>363.67</ele>
        <time>2021-06-23T09:58:44Z</time>
      </trkpt>
      <trkpt lat="48.10732" lon="5.82437">
        <ele>365.15</ele>
        <time>2021-06-23T09:58:48Z</time>
      </trkpt>
      <trkpt lat="48.10748" lon="5.8246">
        <ele>366.49</ele>
        <time>2021-06-23T09:58:52Z</time>
      </trkpt>
      <trkpt lat="48.10776" lon="5.82495">
        <ele>367.05</ele>
        <time>2021-06-23T09:58:56Z</time>
      </trkpt>
      <trkpt lat="48.10806" lon="5.8254">
        <ele>368</ele>
        <time>2021-06-23T09:59:00Z</time>
      </trkpt>
      <trkpt lat="48.10821" lon="5.82571">
        <ele>368.54</ele>
        <time>2021-06-23T09:59:04Z</time>
      </trkpt>
      <trkpt lat="48.10828" lon="5.82598">
        <ele>369.35</ele>
        <time>2021-06-23T09:59:08Z</time>
      </trkpt>
      <trkpt lat="48.10837" lon="5.82613">
        <ele>369.86</ele>
        <time>2021-06-23T09:59:12Z</time>
      </trkpt>
      <trkpt lat="48.10898" lon="5.82759">
        <ele>367.38</ele>
        <time>2021-06-23T09:59:16Z</time>
      </trkpt>
      <trkpt lat="48.10915" lon="5.82788">
        <ele>366.03</ele>
        <time>2021-06-23T09:59:20Z</time>
      </trkpt>
      <trkpt lat="48.10987" lon="5.82865">
        <ele>366.93</ele>
        <time>2021-06-23T09:59:24Z</time>
      </trkpt>
      <trkpt lat="48.11012" lon="5.82886">
        <ele>366.12</ele>
        <time>2021-06-23T09:59:28Z</time>
      </trkpt>
      <trkpt lat="48.11033" lon="5.82907">
        <ele>366.2</ele>
        <time>2021-06-23T09:59:32Z</time>
      </trkpt>
      <trkpt lat="48.11076" lon="5.82958">
        <ele>367.38</ele>
        <time>2021-06-23T09:59:36Z</time>
      </trkpt>
      <trkpt lat="48.11098" lon="5.8298">
        <ele>366.85</ele>
        <time>2021-06-23T09:59:40Z</time>
      </trkpt>
      <trkpt lat="48.11138" lon="5.83012">
        <ele>366.55</ele>
        <time>2021-06-23T09:59:44Z</time>
      </trkpt>
      <trkpt lat="48.11183" lon="5.83044">
        <ele>367</ele>
        <time>2021-06-23T09:59:48Z</time>
      </trkpt>
      <trkpt lat="48.11216" lon="5.83057">
        <ele>367</ele>
        <time>2021-06-23T09:59:52Z</time>
      </trkpt>
      <trkpt lat="48.11329" lon="5.83088">
        <ele>371.22</ele>
        <time>2021-06-23T09:59:56Z</time>
      </trkpt>
      <trkpt lat="48.11376" lon="5.8311">
        <ele>371.56</ele>
        <time>2021-06-23T10:00:00Z</time>
      </trkpt>
      <trkpt lat="48.11497" lon="5.83182">
        <ele>376.32</ele>
        <time>2021-06-23T10:00:04Z</time>
      </trkpt>
      <trkpt lat="48.11527" lon="5.83201">
        <ele>376.49</ele>
        <time>2021-06-23T10:00:08Z</time>
      </trkpt>
      <trkpt lat="48.11547" lon="5.83217">
        <ele>376.05</ele>
        <time>2021-06-23T10:00:12Z</time>
      </trkpt>
      <trkpt lat="48.11583" lon="5.83254">
        <ele>376.95</ele>
        <time>2021-06-23T10:00:16Z</time>
      </trkpt>
      <trkpt lat="48.11649" lon="5.83333">
        <ele>378.79</ele>
        <time>2021-06-23T10:00:20Z</time>
      </trkpt>
      <trkpt lat="48.11724" lon="5.8345">
        <ele>391.2</ele>
        <time>2021-06-23T10:00:24Z</time>
      </trkpt>
      <trkpt lat="48.11757" lon="5.83493">
        <ele>392.44</ele>
        <time>2021-06-23T10:00:28Z</time>
      </trkpt>
      <trkpt lat="48.11792" lon="5.83526">
        <ele>393.59</ele>
        <time>2021-06-23T10:00:32Z</time>
      </trkpt>
      <trkpt lat="48.11834" lon="5.83556">
        <ele>390.8</ele>
        <time>2021-06-23T10:00:36Z</time>
      </trkpt>
      <trkpt lat="48.11863" lon="5.83571">
        <ele>387.83</ele>
        <time>2021-06-23T10:00:40Z</time>
      </trkpt>
      <trkpt lat="48.11993" lon="5.83616">
        <ele>385.53</ele>
        <time>2021-06-23T10:00:44Z</time>
      </trkpt>
      <trkpt lat="48.12045" lon="5.83646">
        <ele>387.79</ele>
        <time>2021-06-23T10:00:48Z</time>
      </trkpt>
      <trkpt lat="48.12182" lon="5.83732">
        <ele>385.8</ele>
        <time>2021-06-23T10:00:52Z</time>
      </trkpt>
      <trkpt lat="48.12221" lon="5.83771">
        <ele>382.11</ele>
        <time>2021-06-23T10:00:56Z</time>
      </trkpt>
      <trkpt lat="48.12241" lon="5.83795">
        <ele>382</ele>
        <time>2021-06-23T10:01:00Z</time>
      </trkpt>
      <trkpt lat="48.12262" lon="5.83823">
        <ele>383.88</ele>
        <time>2021-06-23T10:01:04Z</time>
      </trkpt>
      <trkpt lat="48.12262" lon="5.83823">
        <ele>383.88</ele>
        <time>2021-06-23T10:01:04Z</time>
      </trkpt>
      <trkpt lat="48.12332" lon="5.83918">
        <ele>385.76</ele>
        <time>2021-06-23T10:01:10Z</time>
      </trkpt>
      <trkpt lat="48.12344" lon="5.83937">
        <ele>385.9</ele>
        <time>2021-06-23T10:01:16Z</time>
      </trkpt>
      <trkpt lat="48.12367" lon="5.83982">
        <ele>387.67</ele>
        <time>2021-06-23T10:01:22Z</time>
      </trkpt>
      <trkpt lat="48.12389" lon="5.84028">
        <ele>388.96</ele>
        <time>2021-06-23T10:01:27Z</time>
      </trkpt>
      <trkpt lat="48.12406" lon="5.84075">
        <ele>390.07</ele>
        <time>2021-06-23T10:01:33Z</time>
      </trkpt>
      <trkpt lat="48.12439" lon="5.8421">
        <ele>395.11</ele>
        <time>2021-06-23T10:01:39Z</time>
      </trkpt>
      <trkpt lat="48.12459" lon="5.84266">
        <ele>395.54</ele>
        <time>2021-06-23T10:01:45Z</time>
      </trkpt>
      <trkpt lat="48.12803" lon="5.84917">
        <ele>401.08</ele>
        <time>2021-06-23T10:01:51Z</time>
      </trkpt>
      <trkpt lat="48.12863" lon="5.8506">
        <ele>394.82</ele>
        <time>2021-06-23T10:01:57Z</time>
      </trkpt>
      <trkpt lat="48.12892" lon="5.85125">
        <ele>393.49</ele>
        <time>2021-06-23T10:02:03Z</time>
      </trkpt>
      <trkpt lat="48.12932" lon="5.85193">
        <ele>396.49</ele>
        <time>2021-06-23T10:02:09Z</time>
      </trkpt>
      <trkpt lat="48.13026" lon="5.85339">
        <ele>397.82</ele>
        <time>2021-06-23T10:02:15Z</time>
      </trkpt>
      <trkpt lat="48.13105" lon="5.85491">
        <ele>396.12</ele>
        <time>2021-06-23T10:02:21Z</time>
      </trkpt>
      <trkpt lat="48.1313" lon="5.8553">
        <ele>394.89</ele>
        <time>2021-06-23T10:02:27Z</time>
      </trkpt>
      <trkpt lat="48.13201" lon="5.85635">
        <ele>392.43</ele>
        <time>2021-06-23T10:02:33Z</time>
      </trkpt>
      <trkpt lat="48.13275" lon="5.85737">
        <ele>391</ele>
        <time>2021-06-23T10:02:39Z</time>
      </trkpt>
      <trkpt lat="48.13409" lon="5.85896">
        <ele>390.62</ele>
        <time>2021-06-23T10:02:45Z</time>
      </trkpt>
      <trkpt lat="48.13442" lon="5.85946">
        <ele>387.12</ele>
        <time>2021-06-23T10:02:51Z</time>
      </trkpt>
      <trkpt lat="48.13475" lon="5.86021">
        <ele>384.32</ele>
        <time>2021-06-23T10:02:57Z</time>
      </trkpt>
      <trkpt lat="48.1349" lon="5.86049">
        <ele>383.37</ele>
        <time>2021-06-23T10:03:02Z</time>
      </trkpt>
      <trkpt lat="48.135" lon="5.86063">
        <ele>382.73</ele>
        <time>2021-06-23T10:03:08Z</time>
      </trkpt>
      <trkpt lat="48.13522" lon="5.86088">
        <ele>379.24</ele>
        <time>2021-06-23T10:03:14Z</time>
      </trkpt>
      <trkpt lat="48.13522" lon="5.86088">
        <ele>379.24</ele>
        <time>2021-06-23T10:03:14Z</time>
      </trkpt>
      <trkpt lat="48.13563" lon="5.86133">
        <ele>375.76</ele>
        <time>2021-06-23T10:03:21Z</time>
      </trkpt>
      <trkpt lat="48.13573" lon="5.86147">
        <ele>377.2</ele>
        <time>2021-06-23T10:03:27Z</time>
      </trkpt>
      <trkpt lat="48.1358" lon="5.86161">
        <ele>378.42</ele>
        <time>2021-06-23T10:03:33Z</time>
      </trkpt>
      <trkpt lat="48.13583" lon="5.86185">
        <ele>380.27</ele>
        <time>2021-06-23T10:03:40Z</time>
      </trkpt>
      <trkpt lat="48.13574" lon="5.86247">
        <ele>382.13</ele>
        <time>2021-06-23T10:03:46Z</time>
      </trkpt>
      <trkpt lat="48.13573" lon="5.86259">
        <ele>382.88</ele>
        <time>2021-06-23T10:03:52Z</time>
      </trkpt>
      <trkpt lat="48.13576" lon="5.86289">
        <ele>385.41</ele>
        <time>2021-06-23T10:03:59Z</time>
      </trkpt>
      <trkpt lat="48.13593" lon="5.86382">
        <ele>390.65</ele>
        <time>2021-06-23T10:04:05Z</time>
      </trkpt>
      <trkpt lat="48.13602" lon="5.86548">
        <ele>394.64</ele>
        <time>2021-06-23T10:04:11Z</time>
      </trkpt>
      <trkpt lat="48.13603" lon="5.86636">
        <ele>396</ele>
        <time>2021-06-23T10:04:17Z</time>
      </trkpt>
      <trkpt lat="48.13603" lon="5.87232">
        <ele>391.54</ele>
        <time>2021-06-23T10:04:24Z</time>
      </trkpt>
      <trkpt lat="48.13602" lon="5.87271">
        <ele>391.13</ele>
        <time>2021-06-23T10:04:30Z</time>
      </trkpt>
      <trkpt lat="48.13583" lon="5.8768">
        <ele>409.47</ele>
        <time>2021-06-23T10:04:36Z</time>
      </trkpt>
      <trkpt lat="48.13582" lon="5.87767">
        <ele>408.87</ele>
        <time>2021-06-23T10:04:43Z</time>
      </trkpt>
      <trkpt lat="48.1359" lon="5.87811">
        <ele>409.91</ele>
        <time>2021-06-23T10:04:49Z</time>
      </trkpt>
      <trkpt lat="48.13648" lon="5.88311">
        <ele>412.5</ele>
        <time>2021-06-23T10:04:55Z</time>
      </trkpt>
      <trkpt lat="48.13716" lon="5.88788">
        <ele>407.53</ele>
        <time>2021-06-23T10:05:02Z</time>
      </trkpt>
      <trkpt lat="48.13737" lon="5.88881">
        <ele>408.78</ele>
        <time>2021-06-23T10:05:08Z</time>
      </trkpt>
      <trkpt lat="48.13752" lon="5.88931">
        <ele>408.9</ele>
        <time>2021-06-23T10:05:14Z</time>
      </trkpt>
      <trkpt lat="48.13765" lon="5.88969">
        <ele>409.74</ele>
        <time>2021-06-23T10:05:21Z</time>
      </trkpt>
      <trkpt lat="48.13979" lon="5.89438">
        <ele>400.6</ele>
        <time>2021-06-23T10:05:27Z</time>
      </trkpt>
      <trkpt lat="48.14001" lon="5.895">
        <ele>403.98</ele>
        <time>2021-06-23T10:05:33Z</time>
      </trkpt>
      <trkpt lat="48.14018" lon="5.89571">
        <ele>406.36</ele>
        <time>2021-06-23T10:05:39Z</time>
      </trkpt>
      <trkpt lat="48.14025" lon="5.8964">
        <ele>407.92</ele>
        <time>2021-06-23T10:05:46Z</time>
      </trkpt>
      <trkpt lat="48.14049" lon="5.89943">
        <ele>411.76</ele>
        <time>2021-06-23T10:05:52Z</time>
      </trkpt>
      <trkpt lat="48.14055" lon="5.89981">
        <ele>411.68</ele>
        <time>2021-06-23T10:05:58Z</time>
      </trkpt>
      <trkpt lat="48.14066" lon="5.90022">
        <ele>411</ele>
        <time>2021-06-23T10:06:05Z</time>
      </trkpt>
      <trkpt lat="48.14088" lon="5.90078">
        <ele>409.82</ele>
        <time>2021-06-23T10:06:11Z</time>
      </trkpt>
      <trkpt lat="48.1416" lon="5.90301">
        <ele>406.04</ele>
        <time>2021-06-23T10:06:17Z</time>
      </trkpt>
      <trkpt lat="48.14245" lon="5.9055">
        <ele>402.38</ele>
        <time>2021-06-23T10:06:24Z</time>
      </trkpt>
      <trkpt lat="48.14266" lon="5.906">
        <ele>402.44</ele>
        <time>2021-06-23T10:06:30Z</time>
      </trkpt>
      <trkpt lat="48.14315" lon="5.90699">
        <ele>402.44</ele>
        <time>2021-06-23T10:06:36Z</time>
      </trkpt>
      <trkpt lat="48.14359" lon="5.90783">
        <ele>403.07</ele>
        <time>2021-06-23T10:06:43Z</time>
      </trkpt>
      <trkpt lat="48.14392" lon="5.90831">
        <ele>400.79</ele>
        <time>2021-06-23T10:06:49Z</time>
      </trkpt>
      <trkpt lat="48.14449" lon="5.909">
        <ele>397.7</ele>
        <time>2021-06-23T10:06:55Z</time>
      </trkpt>
      <trkpt lat="48.14505" lon="5.90974">
        <ele>393.82</ele>
        <time>2021-06-23T10:07:01Z</time>
      </trkpt>
      <trkpt lat="48.14512" lon="5.90982">
        <ele>393.42</ele>
        <time>2021-06-23T10:07:08Z</time>
      </trkpt>
      <trkpt lat="48.14541" lon="5.91004">
        <ele>391.29</ele>
        <time>2021-06-23T10:07:14Z</time>
      </trkpt>
      <trkpt lat="48.14554" lon="5.91023">
        <ele>390.18</ele>
        <time>2021-06-23T10:07:20Z</time>
      </trkpt>
      <trkpt lat="48.14573" lon="5.91059">
        <ele>388.96</ele>
        <time>2021-06-23T10:07:27Z</time>
      </trkpt>
      <trkpt lat="48.14583" lon="5.91087">
        <ele>388.99</ele>
        <time>2021-06-23T10:07:33Z</time>
      </trkpt>
      <trkpt lat="48.1459" lon="5.91115">
        <ele>388.79</ele>
        <time>2021-06-23T10:07:39Z</time>
      </trkpt>
      <trkpt lat="48.14591" lon="5.91143">
        <ele>387.19</ele>
        <time>2021-06-23T10:07:46Z</time>
      </trkpt>
      <trkpt lat="48.1459" lon="5.91168">
        <ele>385.05</ele>
        <time>2021-06-23T10:07:52Z</time>
      </trkpt>
      <trkpt lat="48.14591" lon="5.91184">
        <ele>383.4</ele>
        <time>2021-06-23T10:07:58Z</time>
      </trkpt>
      <trkpt lat="48.14594" lon="5.912">
        <ele>382.1</ele>
        <time>2021-06-23T10:08:05Z</time>
      </trkpt>
      <trkpt lat="48.14603" lon="5.91227">
        <ele>380.75</ele>
        <time>2021-06-23T10:08:11Z</time>
      </trkpt>
      <trkpt lat="48.14637" lon="5.91287">
        <ele>379.08</ele>
        <time>2021-06-23T10:08:17Z</time>
      </trkpt>
      <trkpt lat="48.14641" lon="5.91289">
        <ele>378.96</ele>
        <time>2021-06-23T10:08:24Z</time>
      </trkpt>
      <trkpt lat="48.14641" lon="5.91289">
        <ele>378.96</ele>
        <time>2021-06-23T10:08:24Z</time>
      </trkpt>
      <trkpt lat="48.14652" lon="5.91295">
        <ele>378.82</ele>
        <time>2021-06-23T10:08:32Z</time>
      </trkpt>
      <trkpt lat="48.1467" lon="5.91292">
        <ele>378.47</ele>
        <time>2021-06-23T10:08:41Z</time>
      </trkpt>
      <trkpt lat="48.14676" lon="5.91289">
        <ele>378.28</ele>
        <time>2021-06-23T10:08:50Z</time>
      </trkpt>
      <trkpt lat="48.14685" lon="5.91283">
        <ele>378.06</ele>
        <time>2021-06-23T10:08:58Z</time>
      </trkpt>
      <trkpt lat="48.14826" lon="5.91184">
        <ele>377.29</ele>
        <time>2021-06-23T10:09:07Z</time>
      </trkpt>
      <trkpt lat="48.14848" lon="5.91161">
        <ele>378.49</ele>
        <time>2021-06-23T10:09:16Z</time>
      </trkpt>
      <trkpt lat="48.14866" lon="5.91138">
        <ele>378.89</ele>
        <time>2021-06-23T10:09:24Z</time>
      </trkpt>
      <trkpt lat="48.14902" lon="5.91106">
        <ele>373.63</ele>
        <time>2021-06-23T10:09:33Z</time>
      </trkpt>
      <trkpt lat="48.14976" lon="5.91067">
        <ele>372.92</ele>
        <time>2021-06-23T10:09:42Z</time>
      </trkpt>
      <trkpt lat="48.15304" lon="5.90902">
        <ele>369.52</ele>
        <time>2021-06-23T10:09:50Z</time>
      </trkpt>
      <trkpt lat="48.15363" lon="5.90867">
        <ele>370</ele>
        <time>2021-06-23T10:09:59Z</time>
      </trkpt>
      <trkpt lat="48.15563" lon="5.90699">
        <ele>366.57</ele>
        <time>2021-06-23T10:10:08Z</time>
      </trkpt>
      <trkpt lat="48.15627" lon="5.90658">
        <ele>366.42</ele>
        <time>2021-06-23T10:10:16Z</time>
      </trkpt>
      <trkpt lat="48.16039" lon="5.90479">
        <ele>363.21</ele>
        <time>2021-06-23T10:10:25Z</time>
      </trkpt>
      <trkpt lat="48.16094" lon="5.90462">
        <ele>361.7</ele>
        <time>2021-06-23T10:10:34Z</time>
      </trkpt>
      <trkpt lat="48.16673" lon="5.90353">
        <ele>360.55</ele>
        <time>2021-06-23T10:10:42Z</time>
      </trkpt>
      <trkpt lat="48.167" lon="5.90342">
        <ele>359.9</ele>
        <time>2021-06-23T10:10:51Z</time>
      </trkpt>
      <trkpt lat="48.16724" lon="5.90324">
        <ele>358.46</ele>
        <time>2021-06-23T10:11:00Z</time>
      </trkpt>
      <trkpt lat="48.16759" lon="5.90292">
        <ele>357.5</ele>
        <time>2021-06-23T10:11:08Z</time>
      </trkpt>
      <trkpt lat="48.16942" lon="5.90092">
        <ele>353.83</ele>
        <time>2021-06-23T10:11:17Z</time>
      </trkpt>
      <trkpt lat="48.16972" lon="5.9007">
        <ele>351.96</ele>
        <time>2021-06-23T10:11:26Z</time>
      </trkpt>
      <trkpt lat="48.16997" lon="5.90059">
        <ele>351.13</ele>
        <time>2021-06-23T10:11:34Z</time>
      </trkpt>
      <trkpt lat="48.17021" lon="5.90052">
        <ele>351.45</ele>
        <time>2021-06-23T10:11:43Z</time>
      </trkpt>
      <trkpt lat="48.17064" lon="5.90054">
        <ele>351.86</ele>
        <time>2021-06-23T10:11:52Z</time>
      </trkpt>
      <trkpt lat="48.17121" lon="5.90061">
        <ele>352.24</ele>
        <time>2021-06-23T10:12:00Z</time>
      </trkpt>
      <trkpt lat="48.17138" lon="5.90062">
        <ele>351.52</ele>
        <time>2021-06-23T10:12:09Z</time>
      </trkpt>
      <trkpt lat="48.17182" lon="5.90055">
        <ele>350.47</ele>
        <time>2021-06-23T10:12:18Z</time>
      </trkpt>
      <trkpt lat="48.17205" lon="5.90047">
        <ele>351.05</ele>
        <time>2021-06-23T10:12:26Z</time>
      </trkpt>
      <trkpt lat="48.1725" lon="5.90024">
        <ele>351.36</ele>
        <time>2021-06-23T10:12:35Z</time>
      </trkpt>
      <trkpt lat="48.17276" lon="5.90008">
        <ele>350.6</ele>
        <time>2021-06-23T10:12:44Z</time>
      </trkpt>
      <trkpt lat="48.17291" lon="5.89996">
        <ele>349.72</ele>
        <time>2021-06-23T10:12:52Z</time>
      </trkpt>
      <trkpt lat="48.17365" lon="5.89926">
        <ele>346.84</ele>
        <time>2021-06-23T10:13:01Z</time>
      </trkpt>
      <trkpt lat="48.175" lon="5.89792">
        <ele>346.04</ele>
        <time>2021-06-23T10:13:10Z</time>
      </trkpt>
      <trkpt lat="48.17582" lon="5.89717">
        <ele>343.81</ele>
        <time>2021-06-23T10:13:18Z</time>
      </trkpt>
      <trkpt lat="48.1786" lon="5.89512">
        <ele>340.51</ele>
        <time>2021-06-23T10:13:27Z</time>
      </trkpt>
      <trkpt lat="48.17884" lon="5.89502">
        <ele>340.06</ele>
        <time>2021-06-23T10:13:36Z</time>
      </trkpt>
      <trkpt lat="48.17892" lon="5.89503">
        <ele>340.22</ele>
        <time>2021-06-23T10:13:44Z</time>
      </trkpt>
      <trkpt lat="48.17995" lon="5.89481">
        <ele>338.91</ele>
        <time>2021-06-23T10:13:53Z</time>
      </trkpt>
      <trkpt lat="48.18065" lon="5.8948">
        <ele>338</ele>
        <time>2021-06-23T10:14:02Z</time>
      </trkpt>
      <trkpt lat="48.18208" lon="5.89492">
        <ele>340.55</ele>
        <time>2021-06-23T10:14:10Z</time>
      </trkpt>
      <trkpt lat="48.18265" lon="5.89488">
        <ele>341.16</ele>
        <time>2021-06-23T10:14:19Z</time>
      </trkpt>
      <trkpt lat="48.1834" lon="5.89456">
        <ele>339.85</ele>
        <time>2021-06-23T10:14:28Z</time>
      </trkpt>
      <trkpt lat="48.18366" lon="5.89455">
        <ele>339.07</ele>
        <time>2021-06-23T10:14:36Z</time>
      </trkpt>
      <trkpt lat="48.18439" lon="5.89468">
        <ele>336.97</ele>
        <time>2021-06-23T10:14:45Z</time>
      </trkpt>
      <trkpt lat="48.185" lon="5.89468">
        <ele>337.17</ele>
        <time>2021-06-23T10:14:54Z</time>
      </trkpt>
      <trkpt lat="48.18537" lon="5.8946">
        <ele>337.71</ele>
        <time>2021-06-23T10:15:03Z</time>
      </trkpt>
      <trkpt lat="48.18643" lon="5.89426">
        <ele>338.11</ele>
        <time>2021-06-23T10:15:11Z</time>
      </trkpt>
      <trkpt lat="48.18753" lon="5.89385">
        <ele>336.74</ele>
        <time>2021-06-23T10:15:20Z</time>
      </trkpt>
      <trkpt lat="48.18857" lon="5.89355">
        <ele>335.78</ele>
        <time>2021-06-23T10:15:29Z</time>
      </trkpt>
      <trkpt lat="48.18881" lon="5.89356">
        <ele>335.81</ele>
        <time>2021-06-23T10:15:37Z</time>
      </trkpt>
      <trkpt lat="48.18917" lon="5.89368">
        <ele>337.23</ele>
        <time>2021-06-23T10:15:46Z</time>
      </trkpt>
      <trkpt lat="48.18939" lon="5.89385">
        <ele>337.95</ele>
        <time>2021-06-23T10:15:55Z</time>
      </trkpt>
      <trkpt lat="48.18939" lon="5.89385">
        <ele>337.95</ele>
        <time>2021-06-23T10:15:55Z</time>
      </trkpt>
      <trkpt lat="48.18945" lon="5.89389">
        <ele>338</ele>
        <time>2021-06-23T10:16:01Z</time>
      </trkpt>
      <trkpt lat="48.18969" lon="5.89419">
        <ele>338.19</ele>
        <time>2021-06-23T10:16:08Z</time>
      </trkpt>
      <trkpt lat="48.18984" lon="5.89448">
        <ele>338.69</ele>
        <time>2021-06-23T10:16:15Z</time>
      </trkpt>
      <trkpt lat="48.18993" lon="5.89476">
        <ele>339.39</ele>
        <time>2021-06-23T10:16:22Z</time>
      </trkpt>
      <trkpt lat="48.18999" lon="5.89507">
        <ele>340.29</ele>
        <time>2021-06-23T10:16:29Z</time>
      </trkpt>
      <trkpt lat="48.19002" lon="5.89537">
        <ele>340.92</ele>
        <time>2021-06-23T10:16:35Z</time>
      </trkpt>
      <trkpt lat="48.18999" lon="5.89606">
        <ele>342.06</ele>
        <time>2021-06-23T10:16:42Z</time>
      </trkpt>
      <trkpt lat="48.18956" lon="5.89982">
        <ele>345.1</ele>
        <time>2021-06-23T10:16:49Z</time>
      </trkpt>
      <trkpt lat="48.18952" lon="5.90033">
        <ele>346.35</ele>
        <time>2021-06-23T10:16:56Z</time>
      </trkpt>
      <trkpt lat="48.18948" lon="5.90102">
        <ele>344.86</ele>
        <time>2021-06-23T10:17:03Z</time>
      </trkpt>
      <trkpt lat="48.18954" lon="5.90196">
        <ele>346.34</ele>
        <time>2021-06-23T10:17:09Z</time>
      </trkpt>
      <trkpt lat="48.18949" lon="5.90198">
        <ele>346.79</ele>
        <time>2021-06-23T10:17:14Z</time>
      </trkpt>
      <trkpt lat="48.18945" lon="5.90203">
        <ele>347.3</ele>
        <time>2021-06-23T10:17:18Z</time>
      </trkpt>
      <trkpt lat="48.1894" lon="5.90215">
        <ele>348.37</ele>
        <time>2021-06-23T10:17:22Z</time>
      </trkpt>
      <trkpt lat="48.1894" lon="5.90225">
        <ele>348.77</ele>
        <time>2021-06-23T10:17:26Z</time>
      </trkpt>
      <trkpt lat="48.18944" lon="5.90237">
        <ele>348.61</ele>
        <time>2021-06-23T10:17:30Z</time>
      </trkpt>
      <trkpt lat="48.18952" lon="5.90244">
        <ele>348.25</ele>
        <time>2021-06-23T10:17:34Z</time>
      </trkpt>
      <trkpt lat="48.18958" lon="5.90245">
        <ele>347.83</ele>
        <time>2021-06-23T10:17:39Z</time>
      </trkpt>
      <trkpt lat="48.18965" lon="5.90348">
        <ele>349.25</ele>
        <time>2021-06-23T10:17:43Z</time>
      </trkpt>
      <trkpt lat="48.1898" lon="5.90577">
        <ele>350.37</ele>
        <time>2021-06-23T10:17:47Z</time>
      </trkpt>
      <trkpt lat="48.18984" lon="5.90689">
        <ele>353.05</ele>
        <time>2021-06-23T10:17:51Z</time>
      </trkpt>
      <trkpt lat="48.18984" lon="5.90822">
        <ele>353.92</ele>
        <time>2021-06-23T10:17:55Z</time>
      </trkpt>
      <trkpt lat="48.18964" lon="5.91268">
        <ele>358.63</ele>
        <time>2021-06-23T10:18:00Z</time>
      </trkpt>
      <trkpt lat="48.18965" lon="5.91313">
        <ele>360.25</ele>
        <time>2021-06-23T10:18:04Z</time>
      </trkpt>
      <trkpt lat="48.18977" lon="5.9141">
        <ele>363</ele>
        <time>2021-06-23T10:18:08Z</time>
      </trkpt>
      <trkpt lat="48.19015" lon="5.91637">
        <ele>364.46</ele>
        <time>2021-06-23T10:18:12Z</time>
      </trkpt>
      <trkpt lat="48.1902" lon="5.91704">
        <ele>365.1</ele>
        <time>2021-06-23T10:18:16Z</time>
      </trkpt>
      <trkpt lat="48.19018" lon="5.91719">
        <ele>365.3</ele>
        <time>2021-06-23T10:18:21Z</time>
      </trkpt>
      <trkpt lat="48.19011" lon="5.91736">
        <ele>366</ele>
        <time>2021-06-23T10:18:25Z</time>
      </trkpt>
      <trkpt lat="48.19002" lon="5.91744">
        <ele>366.03</ele>
        <time>2021-06-23T10:18:26Z</time>
      </trkpt>
      <trkpt lat="48.18997" lon="5.91753">
        <ele>366.11</ele>
        <time>2021-06-23T10:18:27Z</time>
      </trkpt>
      <trkpt lat="48.18993" lon="5.91764">
        <ele>366.48</ele>
        <time>2021-06-23T10:18:28Z</time>
      </trkpt>
      <trkpt lat="48.18992" lon="5.91775">
        <ele>366.9</ele>
        <time>2021-06-23T10:18:30Z</time>
      </trkpt>
      <trkpt lat="48.18995" lon="5.9179">
        <ele>367.95</ele>
        <time>2021-06-23T10:18:31Z</time>
      </trkpt>
      <trkpt lat="48.19001" lon="5.91803">
        <ele>368.83</ele>
        <time>2021-06-23T10:18:32Z</time>
      </trkpt>
      <trkpt lat="48.1901" lon="5.91812">
        <ele>369.36</ele>
        <time>2021-06-23T10:18:33Z</time>
      </trkpt>
      <trkpt lat="48.19021" lon="5.91814">
        <ele>369.38</ele>
        <time>2021-06-23T10:18:35Z</time>
      </trkpt>
      <trkpt lat="48.19027" lon="5.91825">
        <ele>369.72</ele>
        <time>2021-06-23T10:18:36Z</time>
      </trkpt>
      <trkpt lat="48.19046" lon="5.91876">
        <ele>371.1</ele>
        <time>2021-06-23T10:18:37Z</time>
      </trkpt>
      <trkpt lat="48.19056" lon="5.91916">
        <ele>373.91</ele>
        <time>2021-06-23T10:18:38Z</time>
      </trkpt>
      <trkpt lat="48.19069" lon="5.91979">
        <ele>376.65</ele>
        <time>2021-06-23T10:18:40Z</time>
      </trkpt>
      <trkpt lat="48.19076" lon="5.92034">
        <ele>377.45</ele>
        <time>2021-06-23T10:18:41Z</time>
      </trkpt>
      <trkpt lat="48.19091" lon="5.92233">
        <ele>379.38</ele>
        <time>2021-06-23T10:18:42Z</time>
      </trkpt>
      <trkpt lat="48.19095" lon="5.92266">
        <ele>378.98</ele>
        <time>2021-06-23T10:18:43Z</time>
      </trkpt>
      <trkpt lat="48.19095" lon="5.92266">
        <ele>378.98</ele>
        <time>2021-06-23T10:18:43Z</time>
      </trkpt>
      <trkpt lat="48.19099" lon="5.92301">
        <ele>378.57</ele>
        <time>2021-06-23T10:18:46Z</time>
      </trkpt>
      <trkpt lat="48.19108" lon="5.92338">
        <ele>374.86</ele>
        <time>2021-06-23T10:18:49Z</time>
      </trkpt>
      <trkpt lat="48.19118" lon="5.92372">
        <ele>374.77</ele>
        <time>2021-06-23T10:18:52Z</time>
      </trkpt>
      <trkpt lat="48.19187" lon="5.92552">
        <ele>380.62</ele>
        <time>2021-06-23T10:18:55Z</time>
      </trkpt>
      <trkpt lat="48.19237" lon="5.92666">
        <ele>376.96</ele>
        <time>2021-06-23T10:18:58Z</time>
      </trkpt>
      <trkpt lat="48.19292" lon="5.92783">
        <ele>375.39</ele>
        <time>2021-06-23T10:19:01Z</time>
      </trkpt>
      <trkpt lat="48.19344" lon="5.929">
        <ele>369.41</ele>
        <time>2021-06-23T10:19:04Z</time>
      </trkpt>
      <trkpt lat="48.19355" lon="5.92932">
        <ele>366.85</ele>
        <time>2021-06-23T10:19:07Z</time>
      </trkpt>
      <trkpt lat="48.19354" lon="5.92949">
        <ele>366.35</ele>
        <time>2021-06-23T10:19:09Z</time>
      </trkpt>
      <trkpt lat="48.19347" lon="5.92973">
        <ele>366.04</ele>
        <time>2021-06-23T10:19:10Z</time>
      </trkpt>
      <trkpt lat="48.19339" lon="5.92984">
        <ele>366.55</ele>
        <time>2021-06-23T10:19:11Z</time>
      </trkpt>
      <trkpt lat="48.19286" lon="5.93038">
        <ele>374.02</ele>
        <time>2021-06-23T10:19:13Z</time>
      </trkpt>
      <trkpt lat="48.19286" lon="5.93038">
        <ele>374.02</ele>
        <time>2021-06-23T10:19:13Z</time>
      </trkpt>
      <trkpt lat="48.19274" lon="5.93053">
        <ele>375.08</ele>
        <time>2021-06-23T10:19:18Z</time>
      </trkpt>
      <trkpt lat="48.19234" lon="5.93094">
        <ele>377.49</ele>
        <time>2021-06-23T10:19:23Z</time>
      </trkpt>
      <trkpt lat="48.19197" lon="5.93145">
        <ele>379.35</ele>
        <time>2021-06-23T10:19:28Z</time>
      </trkpt>
      <trkpt lat="48.19179" lon="5.93174">
        <ele>379.43</ele>
        <time>2021-06-23T10:19:33Z</time>
      </trkpt>
      <trkpt lat="48.19161" lon="5.93209">
        <ele>378.6</ele>
        <time>2021-06-23T10:19:38Z</time>
      </trkpt>
      <trkpt lat="48.19136" lon="5.93267">
        <ele>378.66</ele>
        <time>2021-06-23T10:19:43Z</time>
      </trkpt>
      <trkpt lat="48.18791" lon="5.94265">
        <ele>363.94</ele>
        <time>2021-06-23T10:19:48Z</time>
      </trkpt>
      <trkpt lat="48.18762" lon="5.94357">
        <ele>361.12</ele>
        <time>2021-06-23T10:19:53Z</time>
      </trkpt>
      <trkpt lat="48.18748" lon="5.94413">
        <ele>359.85</ele>
        <time>2021-06-23T10:19:58Z</time>
      </trkpt>
      <trkpt lat="48.18734" lon="5.94479">
        <ele>361.41</ele>
        <time>2021-06-23T10:20:03Z</time>
      </trkpt>
      <trkpt lat="48.18723" lon="5.94576">
        <ele>365.67</ele>
        <time>2021-06-23T10:20:07Z</time>
      </trkpt>
      <trkpt lat="48.18719" lon="5.94625">
        <ele>368.55</ele>
        <time>2021-06-23T10:20:12Z</time>
      </trkpt>
      <trkpt lat="48.18718" lon="5.94675">
        <ele>370.85</ele>
        <time>2021-06-23T10:20:17Z</time>
      </trkpt>
      <trkpt lat="48.18719" lon="5.94738">
        <ele>375.05</ele>
        <time>2021-06-23T10:20:22Z</time>
      </trkpt>
      <trkpt lat="48.18722" lon="5.94805">
        <ele>376</ele>
        <time>2021-06-23T10:20:27Z</time>
      </trkpt>
      <trkpt lat="48.1873" lon="5.94862">
        <ele>381.93</ele>
        <time>2021-06-23T10:20:32Z</time>
      </trkpt>
      <trkpt lat="48.1873" lon="5.94862">
        <ele>381.93</ele>
        <time>2021-06-23T10:20:32Z</time>
      </trkpt>
      <trkpt lat="48.18912" lon="5.9617">
        <ele>401.18</ele>
        <time>2021-06-23T10:20:44Z</time>
      </trkpt>
      <trkpt lat="48.18947" lon="5.96368">
        <ele>396.98</ele>
        <time>2021-06-23T10:20:56Z</time>
      </trkpt>
      <trkpt lat="48.1899" lon="5.96561">
        <ele>394.57</ele>
        <time>2021-06-23T10:21:08Z</time>
      </trkpt>
      <trkpt lat="48.19051" lon="5.96781">
        <ele>385.64</ele>
        <time>2021-06-23T10:21:20Z</time>
      </trkpt>
      <trkpt lat="48.19132" lon="5.97023">
        <ele>378.39</ele>
        <time>2021-06-23T10:21:32Z</time>
      </trkpt>
      <trkpt lat="48.19524" lon="5.98023">
        <ele>366.14</ele>
        <time>2021-06-23T10:21:44Z</time>
      </trkpt>
      <trkpt lat="48.19544" lon="5.98072">
        <ele>362.51</ele>
        <time>2021-06-23T10:21:56Z</time>
      </trkpt>
      <trkpt lat="48.19638" lon="5.98316">
        <ele>363.38</ele>
        <time>2021-06-23T10:22:08Z</time>
      </trkpt>
      <trkpt lat="48.19651" lon="5.98354">
        <ele>363.45</ele>
        <time>2021-06-23T10:22:20Z</time>
      </trkpt>
      <trkpt lat="48.19663" lon="5.98401">
        <ele>363.68</ele>
        <time>2021-06-23T10:22:32Z</time>
      </trkpt>
      <trkpt lat="48.19677" lon="5.98481">
        <ele>362.71</ele>
        <time>2021-06-23T10:22:44Z</time>
      </trkpt>
      <trkpt lat="48.19682" lon="5.98555">
        <ele>362.89</ele>
        <time>2021-06-23T10:22:56Z</time>
      </trkpt>
      <trkpt lat="48.1968" lon="5.98624">
        <ele>364.65</ele>
        <time>2021-06-23T10:23:09Z</time>
      </trkpt>
      <trkpt lat="48.1968" lon="5.98624">
        <ele>364.65</ele>
        <time>2021-06-23T10:23:09Z</time>
      </trkpt>
      <trkpt lat="48.19672" lon="5.98701">
        <ele>363.76</ele>
        <time>2021-06-23T10:23:11Z</time>
      </trkpt>
      <trkpt lat="48.19656" lon="5.98773">
        <ele>363.44</ele>
        <time>2021-06-23T10:23:13Z</time>
      </trkpt>
      <trkpt lat="48.19647" lon="5.98801">
        <ele>362.86</ele>
        <time>2021-06-23T10:23:16Z</time>
      </trkpt>
      <trkpt lat="48.19621" lon="5.98857">
        <ele>362.05</ele>
        <time>2021-06-23T10:23:18Z</time>
      </trkpt>
      <trkpt lat="48.1959" lon="5.98909">
        <ele>362.76</ele>
        <time>2021-06-23T10:23:21Z</time>
      </trkpt>
      <trkpt lat="48.19577" lon="5.98911">
        <ele>363.21</ele>
        <time>2021-06-23T10:23:24Z</time>
      </trkpt>
      <trkpt lat="48.19567" lon="5.98918">
        <ele>363.62</ele>
        <time>2021-06-23T10:23:27Z</time>
      </trkpt>
      <trkpt lat="48.1956" lon="5.98929">
        <ele>363.9</ele>
        <time>2021-06-23T10:23:29Z</time>
      </trkpt>
      <trkpt lat="48.19556" lon="5.98943">
        <ele>364</ele>
        <time>2021-06-23T10:23:32Z</time>
      </trkpt>
      <trkpt lat="48.19555" lon="5.98953">
        <ele>363.98</ele>
        <time>2021-06-23T10:23:35Z</time>
      </trkpt>
      <trkpt lat="48.19556" lon="5.98967">
        <ele>364</ele>
        <time>2021-06-23T10:23:38Z</time>
      </trkpt>
      <trkpt lat="48.1956" lon="5.98979">
        <ele>364.45</ele>
        <time>2021-06-23T10:23:41Z</time>
      </trkpt>
      <trkpt lat="48.19557" lon="5.98999">
        <ele>365.88</ele>
        <time>2021-06-23T10:23:44Z</time>
      </trkpt>
      <trkpt lat="48.19554" lon="5.99013">
        <ele>366.42</ele>
        <time>2021-06-23T10:23:46Z</time>
      </trkpt>
      <trkpt lat="48.19522" lon="5.99078">
        <ele>366.2</ele>
        <time>2021-06-23T10:23:49Z</time>
      </trkpt>
      <trkpt lat="48.19513" lon="5.99098">
        <ele>365.75</ele>
        <time>2021-06-23T10:23:52Z</time>
      </trkpt>
      <trkpt lat="48.19451" lon="5.99193">
        <ele>367.77</ele>
        <time>2021-06-23T10:23:55Z</time>
      </trkpt>
      <trkpt lat="48.19147" lon="5.99636">
        <ele>376.43</ele>
        <time>2021-06-23T10:23:58Z</time>
      </trkpt>
      <trkpt lat="48.19119" lon="5.99669">
        <ele>376.6</ele>
        <time>2021-06-23T10:24:01Z</time>
      </trkpt>
      <trkpt lat="48.1908" lon="5.99702">
        <ele>375.74</ele>
        <time>2021-06-23T10:24:04Z</time>
      </trkpt>
      <trkpt lat="48.19051" lon="5.99718">
        <ele>376.17</ele>
        <time>2021-06-23T10:24:06Z</time>
      </trkpt>
      <trkpt lat="48.18951" lon="5.99761">
        <ele>376.61</ele>
        <time>2021-06-23T10:24:09Z</time>
      </trkpt>
      <trkpt lat="48.18902" lon="5.99794">
        <ele>377.74</ele>
        <time>2021-06-23T10:24:12Z</time>
      </trkpt>
      <trkpt lat="48.18867" lon="5.99828">
        <ele>378.14</ele>
        <time>2021-06-23T10:24:15Z</time>
      </trkpt>
      <trkpt lat="48.18847" lon="5.99852">
        <ele>378.5</ele>
        <time>2021-06-23T10:24:18Z</time>
      </trkpt>
      <trkpt lat="48.18826" lon="5.9989">
        <ele>377.5</ele>
        <time>2021-06-23T10:24:21Z</time>
      </trkpt>
      <trkpt lat="48.18826" lon="5.9989">
        <ele>377.5</ele>
        <time>2021-06-23T10:24:21Z</time>
      </trkpt>
      <trkpt lat="48.18812" lon="5.99935">
        <ele>377.75</ele>
        <time>2021-06-23T10:24:26Z</time>
      </trkpt>
      <trkpt lat="48.18806" lon="5.99989">
        <ele>378.01</ele>
        <time>2021-06-23T10:24:32Z</time>
      </trkpt>
      <trkpt lat="48.18805" lon="6.0002">
        <ele>377.27</ele>
        <time>2021-06-23T10:24:38Z</time>
      </trkpt>
      <trkpt lat="48.18821" lon="6.00191">
        <ele>379.47</ele>
        <time>2021-06-23T10:24:44Z</time>
      </trkpt>
      <trkpt lat="48.18824" lon="6.00264">
        <ele>381.52</ele>
        <time>2021-06-23T10:24:50Z</time>
      </trkpt>
      <trkpt lat="48.18821" lon="6.00314">
        <ele>381.86</ele>
        <time>2021-06-23T10:24:56Z</time>
      </trkpt>
      <trkpt lat="48.18792" lon="6.00562">
        <ele>387.1</ele>
        <time>2021-06-23T10:25:02Z</time>
      </trkpt>
      <trkpt lat="48.18784" lon="6.00607">
        <ele>387.77</ele>
        <time>2021-06-23T10:25:08Z</time>
      </trkpt>
      <trkpt lat="48.18766" lon="6.00673">
        <ele>389.86</ele>
        <time>2021-06-23T10:25:14Z</time>
      </trkpt>
      <trkpt lat="48.18745" lon="6.00725">
        <ele>392.17</ele>
        <time>2021-06-23T10:25:20Z</time>
      </trkpt>
      <trkpt lat="48.18691" lon="6.00851">
        <ele>396.13</ele>
        <time>2021-06-23T10:25:26Z</time>
      </trkpt>
      <trkpt lat="48.18612" lon="6.01046">
        <ele>399.98</ele>
        <time>2021-06-23T10:25:31Z</time>
      </trkpt>
      <trkpt lat="48.18585" lon="6.01116">
        <ele>397.82</ele>
        <time>2021-06-23T10:25:37Z</time>
      </trkpt>
      <trkpt lat="48.18577" lon="6.0114">
        <ele>397.44</ele>
        <time>2021-06-23T10:25:43Z</time>
      </trkpt>
      <trkpt lat="48.18574" lon="6.01168">
        <ele>397.67</ele>
        <time>2021-06-23T10:25:49Z</time>
      </trkpt>
      <trkpt lat="48.18575" lon="6.0118">
        <ele>397.74</ele>
        <time>2021-06-23T10:25:55Z</time>
      </trkpt>
      <trkpt lat="48.18589" lon="6.0125">
        <ele>398.62</ele>
        <time>2021-06-23T10:26:01Z</time>
      </trkpt>
      <trkpt lat="48.18595" lon="6.01307">
        <ele>398.34</ele>
        <time>2021-06-23T10:26:07Z</time>
      </trkpt>
      <trkpt lat="48.18593" lon="6.01414">
        <ele>396.71</ele>
        <time>2021-06-23T10:26:13Z</time>
      </trkpt>
      <trkpt lat="48.18593" lon="6.01475">
        <ele>397</ele>
        <time>2021-06-23T10:26:19Z</time>
      </trkpt>
      <trkpt lat="48.18607" lon="6.0216">
        <ele>410.39</ele>
        <time>2021-06-23T10:26:25Z</time>
      </trkpt>
      <trkpt lat="48.18612" lon="6.02255">
        <ele>413.21</ele>
        <time>2021-06-23T10:26:30Z</time>
      </trkpt>
      <trkpt lat="48.18627" lon="6.02465">
        <ele>420.33</ele>
        <time>2021-06-23T10:26:36Z</time>
      </trkpt>
      <trkpt lat="48.18627" lon="6.02555">
        <ele>422</ele>
        <time>2021-06-23T10:26:42Z</time>
      </trkpt>
      <trkpt lat="48.18622" lon="6.02639">
        <ele>424.41</ele>
        <time>2021-06-23T10:26:48Z</time>
      </trkpt>
      <trkpt lat="48.18603" lon="6.02865">
        <ele>431.38</ele>
        <time>2021-06-23T10:26:54Z</time>
      </trkpt>
      <trkpt lat="48.18603" lon="6.02886">
        <ele>431.48</ele>
        <time>2021-06-23T10:27:00Z</time>
      </trkpt>
      <trkpt lat="48.18603" lon="6.02886">
        <ele>431.48</ele>
        <time>2021-06-23T10:27:00Z</time>
      </trkpt>
      <trkpt lat="48.18603" lon="6.02956">
        <ele>431.58</ele>
        <time>2021-06-23T10:27:04Z</time>
      </trkpt>
      <trkpt lat="48.18606" lon="6.02989">
        <ele>430.89</ele>
        <time>2021-06-23T10:27:08Z</time>
      </trkpt>
      <trkpt lat="48.18612" lon="6.03048">
        <ele>430.66</ele>
        <time>2021-06-23T10:27:13Z</time>
      </trkpt>
      <trkpt lat="48.18623" lon="6.03114">
        <ele>431</ele>
        <time>2021-06-23T10:27:17Z</time>
      </trkpt>
      <trkpt lat="48.1864" lon="6.03179">
        <ele>429.55</ele>
        <time>2021-06-23T10:27:21Z</time>
      </trkpt>
      <trkpt lat="48.18658" lon="6.03234">
        <ele>427.71</ele>
        <time>2021-06-23T10:27:26Z</time>
      </trkpt>
      <trkpt lat="48.18672" lon="6.03271">
        <ele>426.24</ele>
        <time>2021-06-23T10:27:30Z</time>
      </trkpt>
      <trkpt lat="48.18693" lon="6.03317">
        <ele>425.54</ele>
        <time>2021-06-23T10:27:34Z</time>
      </trkpt>
      <trkpt lat="48.18721" lon="6.03365">
        <ele>423.85</ele>
        <time>2021-06-23T10:27:38Z</time>
      </trkpt>
      <trkpt lat="48.18959" lon="6.0369">
        <ele>407.79</ele>
        <time>2021-06-23T10:27:43Z</time>
      </trkpt>
      <trkpt lat="48.18986" lon="6.0373">
        <ele>405.98</ele>
        <time>2021-06-23T10:27:47Z</time>
      </trkpt>
      <trkpt lat="48.19017" lon="6.03783">
        <ele>405.31</ele>
        <time>2021-06-23T10:27:51Z</time>
      </trkpt>
      <trkpt lat="48.19038" lon="6.03828">
        <ele>403.76</ele>
        <time>2021-06-23T10:27:55Z</time>
      </trkpt>
      <trkpt lat="48.19094" lon="6.03966">
        <ele>402.52</ele>
        <time>2021-06-23T10:28:00Z</time>
      </trkpt>
      <trkpt lat="48.19127" lon="6.04043">
        <ele>403.85</ele>
        <time>2021-06-23T10:28:04Z</time>
      </trkpt>
      <trkpt lat="48.19155" lon="6.04093">
        <ele>404.23</ele>
        <time>2021-06-23T10:28:08Z</time>
      </trkpt>
      <trkpt lat="48.19181" lon="6.04134">
        <ele>403.19</ele>
        <time>2021-06-23T10:28:13Z</time>
      </trkpt>
      <trkpt lat="48.19325" lon="6.0433">
        <ele>395.57</ele>
        <time>2021-06-23T10:28:17Z</time>
      </trkpt>
      <trkpt lat="48.19623" lon="6.04726">
        <ele>385.37</ele>
        <time>2021-06-23T10:28:21Z</time>
      </trkpt>
      <trkpt lat="48.19665" lon="6.04791">
        <ele>383.03</ele>
        <time>2021-06-23T10:28:25Z</time>
      </trkpt>
      <trkpt lat="48.19686" lon="6.04837">
        <ele>380.83</ele>
        <time>2021-06-23T10:28:30Z</time>
      </trkpt>
      <trkpt lat="48.197" lon="6.04876">
        <ele>379.69</ele>
        <time>2021-06-23T10:28:34Z</time>
      </trkpt>
      <trkpt lat="48.1971" lon="6.0491">
        <ele>379.36</ele>
        <time>2021-06-23T10:28:38Z</time>
      </trkpt>
      <trkpt lat="48.19721" lon="6.04966">
        <ele>378.92</ele>
        <time>2021-06-23T10:28:42Z</time>
      </trkpt>
      <trkpt lat="48.19726" lon="6.05006">
        <ele>380.26</ele>
        <time>2021-06-23T10:28:47Z</time>
      </trkpt>
      <trkpt lat="48.19737" lon="6.05003">
        <ele>381.06</ele>
        <time>2021-06-23T10:28:48Z</time>
      </trkpt>
      <trkpt lat="48.19759" lon="6.04982">
        <ele>382.19</ele>
        <time>2021-06-23T10:28:48Z</time>
      </trkpt>
      <trkpt lat="48.19725" lon="6.04968">
        <ele>380.56</ele>
        <time>2021-06-23T10:28:50Z</time>
      </trkpt>
      <trkpt lat="48.19725" lon="6.04968">
        <ele>380.56</ele>
        <time>2021-06-23T10:28:50Z</time>
      </trkpt>
      <trkpt lat="48.19721" lon="6.04966">
        <ele>378.92</ele>
        <time>2021-06-23T10:28:50Z</time>
      </trkpt>
      <trkpt lat="48.19726" lon="6.05006">
        <ele>380.26</ele>
        <time>2021-06-23T10:28:56Z</time>
      </trkpt>
      <trkpt lat="48.19727" lon="6.05032">
        <ele>380.18</ele>
        <time>2021-06-23T10:29:01Z</time>
      </trkpt>
      <trkpt lat="48.19726" lon="6.05077">
        <ele>378.48</ele>
        <time>2021-06-23T10:29:06Z</time>
      </trkpt>
      <trkpt lat="48.19722" lon="6.05128">
        <ele>377</ele>
        <time>2021-06-23T10:29:12Z</time>
      </trkpt>
      <trkpt lat="48.1971" lon="6.0519">
        <ele>377.6</ele>
        <time>2021-06-23T10:29:17Z</time>
      </trkpt>
      <trkpt lat="48.19701" lon="6.05224">
        <ele>377.48</ele>
        <time>2021-06-23T10:29:22Z</time>
      </trkpt>
      <trkpt lat="48.19645" lon="6.05359">
        <ele>375.16</ele>
        <time>2021-06-23T10:29:28Z</time>
      </trkpt>
      <trkpt lat="48.19568" lon="6.05539">
        <ele>368.86</ele>
        <time>2021-06-23T10:29:33Z</time>
      </trkpt>
      <trkpt lat="48.19547" lon="6.05599">
        <ele>365.27</ele>
        <time>2021-06-23T10:29:38Z</time>
      </trkpt>
      <trkpt lat="48.1943" lon="6.06032">
        <ele>350.92</ele>
        <time>2021-06-23T10:29:44Z</time>
      </trkpt>
      <trkpt lat="48.19406" lon="6.06127">
        <ele>348.79</ele>
        <time>2021-06-23T10:29:49Z</time>
      </trkpt>
      <trkpt lat="48.19381" lon="6.06214">
        <ele>345.08</ele>
        <time>2021-06-23T10:29:55Z</time>
      </trkpt>
      <trkpt lat="48.19364" lon="6.06264">
        <ele>343.11</ele>
        <time>2021-06-23T10:30:00Z</time>
      </trkpt>
      <trkpt lat="48.19343" lon="6.06316">
        <ele>343</ele>
        <time>2021-06-23T10:30:05Z</time>
      </trkpt>
      <trkpt lat="48.19214" lon="6.06594">
        <ele>343.83</ele>
        <time>2021-06-23T10:30:11Z</time>
      </trkpt>
      <trkpt lat="48.19191" lon="6.06648">
        <ele>344.89</ele>
        <time>2021-06-23T10:30:16Z</time>
      </trkpt>
      <trkpt lat="48.19176" lon="6.06688">
        <ele>343.11</ele>
        <time>2021-06-23T10:30:21Z</time>
      </trkpt>
      <trkpt lat="48.19131" lon="6.06849">
        <ele>335.59</ele>
        <time>2021-06-23T10:30:27Z</time>
      </trkpt>
      <trkpt lat="48.19093" lon="6.06996">
        <ele>335.06</ele>
        <time>2021-06-23T10:30:32Z</time>
      </trkpt>
      <trkpt lat="48.1908" lon="6.07084">
        <ele>333.89</ele>
        <time>2021-06-23T10:30:37Z</time>
      </trkpt>
      <trkpt lat="48.1898" lon="6.08052">
        <ele>321.26</ele>
        <time>2021-06-23T10:30:43Z</time>
      </trkpt>
      <trkpt lat="48.1897" lon="6.08159">
        <ele>317.92</ele>
        <time>2021-06-23T10:30:48Z</time>
      </trkpt>
      <trkpt lat="48.18967" lon="6.08227">
        <ele>315.53</ele>
        <time>2021-06-23T10:30:54Z</time>
      </trkpt>
      <trkpt lat="48.1897" lon="6.08276">
        <ele>313.97</ele>
        <time>2021-06-23T10:30:59Z</time>
      </trkpt>
      <trkpt lat="48.18972" lon="6.08299">
        <ele>312.44</ele>
        <time>2021-06-23T10:31:04Z</time>
      </trkpt>
      <trkpt lat="48.18979" lon="6.08347">
        <ele>309.89</ele>
        <time>2021-06-23T10:31:10Z</time>
      </trkpt>
      <trkpt lat="48.18979" lon="6.08347">
        <ele>309.89</ele>
        <time>2021-06-23T10:31:10Z</time>
      </trkpt>
      <trkpt lat="48.18992" lon="6.084">
        <ele>309</ele>
        <time>2021-06-23T10:31:14Z</time>
      </trkpt>
      <trkpt lat="48.19013" lon="6.08479">
        <ele>309.35</ele>
        <time>2021-06-23T10:31:18Z</time>
      </trkpt>
      <trkpt lat="48.19085" lon="6.08705">
        <ele>307.06</ele>
        <time>2021-06-23T10:31:22Z</time>
      </trkpt>
      <trkpt lat="48.19152" lon="6.08942">
        <ele>306.53</ele>
        <time>2021-06-23T10:31:27Z</time>
      </trkpt>
      <trkpt lat="48.19165" lon="6.09009">
        <ele>307.05</ele>
        <time>2021-06-23T10:31:31Z</time>
      </trkpt>
      <trkpt lat="48.19194" lon="6.09221">
        <ele>305.96</ele>
        <time>2021-06-23T10:31:35Z</time>
      </trkpt>
      <trkpt lat="48.19205" lon="6.09273">
        <ele>309.35</ele>
        <time>2021-06-23T10:31:39Z</time>
      </trkpt>
      <trkpt lat="48.19225" lon="6.09335">
        <ele>310.79</ele>
        <time>2021-06-23T10:31:44Z</time>
      </trkpt>
      <trkpt lat="48.19247" lon="6.09386">
        <ele>312.09</ele>
        <time>2021-06-23T10:31:48Z</time>
      </trkpt>
      <trkpt lat="48.19273" lon="6.09433">
        <ele>317.65</ele>
        <time>2021-06-23T10:31:52Z</time>
      </trkpt>
      <trkpt lat="48.1931" lon="6.09479">
        <ele>319.48</ele>
        <time>2021-06-23T10:31:56Z</time>
      </trkpt>
      <trkpt lat="48.19349" lon="6.09515">
        <ele>321.27</ele>
        <time>2021-06-23T10:32:01Z</time>
      </trkpt>
      <trkpt lat="48.19379" lon="6.09536">
        <ele>323.98</ele>
        <time>2021-06-23T10:32:05Z</time>
      </trkpt>
      <trkpt lat="48.19533" lon="6.09632">
        <ele>326.81</ele>
        <time>2021-06-23T10:32:09Z</time>
      </trkpt>
      <trkpt lat="48.19566" lon="6.09656">
        <ele>328.88</ele>
        <time>2021-06-23T10:32:13Z</time>
      </trkpt>
      <trkpt lat="48.19597" lon="6.09686">
        <ele>330.02</ele>
        <time>2021-06-23T10:32:18Z</time>
      </trkpt>
      <trkpt lat="48.19626" lon="6.09722">
        <ele>330.33</ele>
        <time>2021-06-23T10:32:22Z</time>
      </trkpt>
      <trkpt lat="48.19647" lon="6.09754">
        <ele>331.45</ele>
        <time>2021-06-23T10:32:26Z</time>
      </trkpt>
      <trkpt lat="48.19664" lon="6.09785">
        <ele>332.37</ele>
        <time>2021-06-23T10:32:30Z</time>
      </trkpt>
      <trkpt lat="48.19692" lon="6.09853">
        <ele>336.54</ele>
        <time>2021-06-23T10:32:34Z</time>
      </trkpt>
      <trkpt lat="48.19734" lon="6.09972">
        <ele>323.62</ele>
        <time>2021-06-23T10:32:39Z</time>
      </trkpt>
      <trkpt lat="48.19878" lon="6.10377">
        <ele>318.11</ele>
        <time>2021-06-23T10:32:43Z</time>
      </trkpt>
      <trkpt lat="48.1991" lon="6.10474">
        <ele>319.05</ele>
        <time>2021-06-23T10:32:47Z</time>
      </trkpt>
      <trkpt lat="48.19929" lon="6.10543">
        <ele>319.48</ele>
        <time>2021-06-23T10:32:51Z</time>
      </trkpt>
      <trkpt lat="48.20015" lon="6.10952">
        <ele>318.26</ele>
        <time>2021-06-23T10:32:56Z</time>
      </trkpt>
      <trkpt lat="48.20043" lon="6.1109">
        <ele>317.52</ele>
        <time>2021-06-23T10:33:00Z</time>
      </trkpt>
      <trkpt lat="48.20055" lon="6.11136">
        <ele>317.79</ele>
        <time>2021-06-23T10:33:04Z</time>
      </trkpt>
      <trkpt lat="48.20067" lon="6.11171">
        <ele>318.13</ele>
        <time>2021-06-23T10:33:08Z</time>
      </trkpt>
      <trkpt lat="48.20081" lon="6.11206">
        <ele>319.21</ele>
        <time>2021-06-23T10:33:13Z</time>
      </trkpt>
      <trkpt lat="48.20097" lon="6.1124">
        <ele>320.08</ele>
        <time>2021-06-23T10:33:17Z</time>
      </trkpt>
      <trkpt lat="48.20156" lon="6.11338">
        <ele>319.4</ele>
        <time>2021-06-23T10:33:21Z</time>
      </trkpt>
      <trkpt lat="48.20174" lon="6.1137">
        <ele>319.77</ele>
        <time>2021-06-23T10:33:25Z</time>
      </trkpt>
      <trkpt lat="48.2019" lon="6.11402">
        <ele>319.54</ele>
        <time>2021-06-23T10:33:30Z</time>
      </trkpt>
      <trkpt lat="48.20235" lon="6.11526">
        <ele>321.07</ele>
        <time>2021-06-23T10:33:34Z</time>
      </trkpt>
      <trkpt lat="48.20255" lon="6.11588">
        <ele>322.06</ele>
        <time>2021-06-23T10:33:38Z</time>
      </trkpt>
      <trkpt lat="48.20278" lon="6.1165">
        <ele>323.86</ele>
        <time>2021-06-23T10:33:42Z</time>
      </trkpt>
      <trkpt lat="48.20311" lon="6.11724">
        <ele>325.67</ele>
        <time>2021-06-23T10:33:47Z</time>
      </trkpt>
      <trkpt lat="48.20345" lon="6.11794">
        <ele>324.55</ele>
        <time>2021-06-23T10:33:51Z</time>
      </trkpt>
      <trkpt lat="48.20462" lon="6.11989">
        <ele>321.8</ele>
        <time>2021-06-23T10:33:55Z</time>
      </trkpt>
      <trkpt lat="48.20473" lon="6.1201">
        <ele>321.68</ele>
        <time>2021-06-23T10:33:59Z</time>
      </trkpt>
      <trkpt lat="48.2049" lon="6.12054">
        <ele>319.59</ele>
        <time>2021-06-23T10:34:04Z</time>
      </trkpt>
      <trkpt lat="48.20501" lon="6.12098">
        <ele>315.54</ele>
        <time>2021-06-23T10:34:08Z</time>
      </trkpt>
      <trkpt lat="48.2051" lon="6.12142">
        <ele>313.55</ele>
        <time>2021-06-23T10:34:12Z</time>
      </trkpt>
      <trkpt lat="48.20518" lon="6.12186">
        <ele>314.4</ele>
        <time>2021-06-23T10:34:16Z</time>
      </trkpt>
      <trkpt lat="48.20521" lon="6.12229">
        <ele>312.56</ele>
        <time>2021-06-23T10:34:21Z</time>
      </trkpt>
      <trkpt lat="48.2052" lon="6.1229">
        <ele>315.66</ele>
        <time>2021-06-23T10:34:25Z</time>
      </trkpt>
      <trkpt lat="48.2052" lon="6.1229">
        <ele>315.66</ele>
        <time>2021-06-23T10:34:25Z</time>
      </trkpt>
      <trkpt lat="48.20514" lon="6.12365">
        <ele>318.99</ele>
        <time>2021-06-23T10:34:32Z</time>
      </trkpt>
      <trkpt lat="48.20498" lon="6.125">
        <ele>312.77</ele>
        <time>2021-06-23T10:34:39Z</time>
      </trkpt>
      <trkpt lat="48.20483" lon="6.12624">
        <ele>316.48</ele>
        <time>2021-06-23T10:34:46Z</time>
      </trkpt>
      <trkpt lat="48.20467" lon="6.12769">
        <ele>312.97</ele>
        <time>2021-06-23T10:34:53Z</time>
      </trkpt>
      <trkpt lat="48.20445" lon="6.12992">
        <ele>320.41</ele>
        <time>2021-06-23T10:34:59Z</time>
      </trkpt>
      <trkpt lat="48.20445" lon="6.13041">
        <ele>319.01</ele>
        <time>2021-06-23T10:35:06Z</time>
      </trkpt>
      <trkpt lat="48.20449" lon="6.13094">
        <ele>315.07</ele>
        <time>2021-06-23T10:35:13Z</time>
      </trkpt>
      <trkpt lat="48.20472" lon="6.1326">
        <ele>306.37</ele>
        <time>2021-06-23T10:35:20Z</time>
      </trkpt>
      <trkpt lat="48.20474" lon="6.13322">
        <ele>301.74</ele>
        <time>2021-06-23T10:35:27Z</time>
      </trkpt>
      <trkpt lat="48.20473" lon="6.13371">
        <ele>304.17</ele>
        <time>2021-06-23T10:35:34Z</time>
      </trkpt>
      <trkpt lat="48.20468" lon="6.13425">
        <ele>303.53</ele>
        <time>2021-06-23T10:35:41Z</time>
      </trkpt>
      <trkpt lat="48.20442" lon="6.13573">
        <ele>299.35</ele>
        <time>2021-06-23T10:35:48Z</time>
      </trkpt>
      <trkpt lat="48.20404" lon="6.13739">
        <ele>296.09</ele>
        <time>2021-06-23T10:35:55Z</time>
      </trkpt>
      <trkpt lat="48.2036" lon="6.13933">
        <ele>291.56</ele>
        <time>2021-06-23T10:36:02Z</time>
      </trkpt>
      <trkpt lat="48.20315" lon="6.1408">
        <ele>290.09</ele>
        <time>2021-06-23T10:36:09Z</time>
      </trkpt>
      <trkpt lat="48.20285" lon="6.14253">
        <ele>285.87</ele>
        <time>2021-06-23T10:36:16Z</time>
      </trkpt>
      <trkpt lat="48.20229" lon="6.14583">
        <ele>282.73</ele>
        <time>2021-06-23T10:36:23Z</time>
      </trkpt>
      <trkpt lat="48.20222" lon="6.14626">
        <ele>283.53</ele>
        <time>2021-06-23T10:36:30Z</time>
      </trkpt>
      <trkpt lat="48.2018" lon="6.14881">
        <ele>287.53</ele>
        <time>2021-06-23T10:36:37Z</time>
      </trkpt>
      <trkpt lat="48.20173" lon="6.14934">
        <ele>289.18</ele>
        <time>2021-06-23T10:36:44Z</time>
      </trkpt>
      <trkpt lat="48.2017" lon="6.1498">
        <ele>290.04</ele>
        <time>2021-06-23T10:36:51Z</time>
      </trkpt>
      <trkpt lat="48.20172" lon="6.15021">
        <ele>291.98</ele>
        <time>2021-06-23T10:36:57Z</time>
      </trkpt>
      <trkpt lat="48.20214" lon="6.15443">
        <ele>286.72</ele>
        <time>2021-06-23T10:37:04Z</time>
      </trkpt>
      <trkpt lat="48.20214" lon="6.15443">
        <ele>286.72</ele>
        <time>2021-06-23T10:37:04Z</time>
      </trkpt>
      <trkpt lat="48.20233" lon="6.15623">
        <ele>285</ele>
        <time>2021-06-23T10:37:12Z</time>
      </trkpt>
      <trkpt lat="48.2024" lon="6.15667">
        <ele>284.7</ele>
        <time>2021-06-23T10:37:20Z</time>
      </trkpt>
      <trkpt lat="48.20293" lon="6.15902">
        <ele>282</ele>
        <time>2021-06-23T10:37:28Z</time>
      </trkpt>
      <trkpt lat="48.20411" lon="6.16411">
        <ele>290.16</ele>
        <time>2021-06-23T10:37:36Z</time>
      </trkpt>
      <trkpt lat="48.20411" lon="6.16438">
        <ele>289.85</ele>
        <time>2021-06-23T10:37:44Z</time>
      </trkpt>
      <trkpt lat="48.20409" lon="6.16443">
        <ele>289.73</ele>
        <time>2021-06-23T10:37:50Z</time>
      </trkpt>
      <trkpt lat="48.20408" lon="6.16456">
        <ele>289.96</ele>
        <time>2021-06-23T10:37:55Z</time>
      </trkpt>
      <trkpt lat="48.20411" lon="6.16464">
        <ele>290.38</ele>
        <time>2021-06-23T10:38:00Z</time>
      </trkpt>
      <trkpt lat="48.20417" lon="6.16469">
        <ele>290.93</ele>
        <time>2021-06-23T10:38:06Z</time>
      </trkpt>
      <trkpt lat="48.2043" lon="6.16491">
        <ele>293.09</ele>
        <time>2021-06-23T10:38:11Z</time>
      </trkpt>
      <trkpt lat="48.20434" lon="6.16515">
        <ele>294.08</ele>
        <time>2021-06-23T10:38:16Z</time>
      </trkpt>
      <trkpt lat="48.20479" lon="6.16704">
        <ele>300.22</ele>
        <time>2021-06-23T10:38:21Z</time>
      </trkpt>
      <trkpt lat="48.20499" lon="6.16774">
        <ele>302.05</ele>
        <time>2021-06-23T10:38:27Z</time>
      </trkpt>
      <trkpt lat="48.20527" lon="6.16846">
        <ele>306.92</ele>
        <time>2021-06-23T10:38:32Z</time>
      </trkpt>
      <trkpt lat="48.2056" lon="6.1691">
        <ele>310.78</ele>
        <time>2021-06-23T10:38:37Z</time>
      </trkpt>
      <trkpt lat="48.20588" lon="6.16958">
        <ele>314.51</ele>
        <time>2021-06-23T10:38:43Z</time>
      </trkpt>
      <trkpt lat="48.20646" lon="6.1704">
        <ele>316.82</ele>
        <time>2021-06-23T10:38:48Z</time>
      </trkpt>
      <trkpt lat="48.20782" lon="6.17259">
        <ele>313.71</ele>
        <time>2021-06-23T10:38:53Z</time>
      </trkpt>
      <trkpt lat="48.20975" lon="6.17558">
        <ele>311.41</ele>
        <time>2021-06-23T10:38:59Z</time>
      </trkpt>
      <trkpt lat="48.21057" lon="6.17688">
        <ele>315.48</ele>
        <time>2021-06-23T10:39:04Z</time>
      </trkpt>
      <trkpt lat="48.21072" lon="6.17716">
        <ele>317.76</ele>
        <time>2021-06-23T10:39:09Z</time>
      </trkpt>
      <trkpt lat="48.21108" lon="6.17811">
        <ele>323.9</ele>
        <time>2021-06-23T10:39:14Z</time>
      </trkpt>
      <trkpt lat="48.21126" lon="6.17886">
        <ele>324.77</ele>
        <time>2021-06-23T10:39:20Z</time>
      </trkpt>
      <trkpt lat="48.21141" lon="6.17974">
        <ele>328.21</ele>
        <time>2021-06-23T10:39:25Z</time>
      </trkpt>
      <trkpt lat="48.21146" lon="6.18045">
        <ele>329.43</ele>
        <time>2021-06-23T10:39:30Z</time>
      </trkpt>
      <trkpt lat="48.21146" lon="6.18071">
        <ele>329.89</ele>
        <time>2021-06-23T10:39:36Z</time>
      </trkpt>
      <trkpt lat="48.21136" lon="6.1822">
        <ele>325.16</ele>
        <time>2021-06-23T10:39:41Z</time>
      </trkpt>
      <trkpt lat="48.21135" lon="6.18281">
        <ele>326.4</ele>
        <time>2021-06-23T10:39:46Z</time>
      </trkpt>
      <trkpt lat="48.21137" lon="6.18323">
        <ele>327.63</ele>
        <time>2021-06-23T10:39:52Z</time>
      </trkpt>
      <trkpt lat="48.21144" lon="6.18385">
        <ele>328.07</ele>
        <time>2021-06-23T10:39:57Z</time>
      </trkpt>
      <trkpt lat="48.21171" lon="6.1855">
        <ele>332.63</ele>
        <time>2021-06-23T10:40:02Z</time>
      </trkpt>
      <trkpt lat="48.21182" lon="6.18607">
        <ele>334.37</ele>
        <time>2021-06-23T10:40:07Z</time>
      </trkpt>
      <trkpt lat="48.21196" lon="6.18651">
        <ele>335.39</ele>
        <time>2021-06-23T10:40:13Z</time>
      </trkpt>
      <trkpt lat="48.21264" lon="6.18848">
        <ele>338.26</ele>
        <time>2021-06-23T10:40:18Z</time>
      </trkpt>
      <trkpt lat="48.2132" lon="6.19025">
        <ele>343.38</ele>
        <time>2021-06-23T10:40:23Z</time>
      </trkpt>
      <trkpt lat="48.21463" lon="6.19538">
        <ele>345</ele>
        <time>2021-06-23T10:40:29Z</time>
      </trkpt>
      <trkpt lat="48.21477" lon="6.19575">
        <ele>344.83</ele>
        <time>2021-06-23T10:40:34Z</time>
      </trkpt>
      <trkpt lat="48.21519" lon="6.19721">
        <ele>343.89</ele>
        <time>2021-06-23T10:40:39Z</time>
      </trkpt>
      <trkpt lat="48.21755" lon="6.20555">
        <ele>318.55</ele>
        <time>2021-06-23T10:40:45Z</time>
      </trkpt>
      <trkpt lat="48.21755" lon="6.20555">
        <ele>318.55</ele>
        <time>2021-06-23T10:40:45Z</time>
      </trkpt>
      <trkpt lat="48.21762" lon="6.20584">
        <ele>318.11</ele>
        <time>2021-06-23T10:40:49Z</time>
      </trkpt>
      <trkpt lat="48.21779" lon="6.20673">
        <ele>314.1</ele>
        <time>2021-06-23T10:40:54Z</time>
      </trkpt>
      <trkpt lat="48.21786" lon="6.20745">
        <ele>315</ele>
        <time>2021-06-23T10:40:59Z</time>
      </trkpt>
      <trkpt lat="48.21808" lon="6.21354">
        <ele>314.49</ele>
        <time>2021-06-23T10:41:04Z</time>
      </trkpt>
      <trkpt lat="48.21814" lon="6.21452">
        <ele>310.79</ele>
        <time>2021-06-23T10:41:08Z</time>
      </trkpt>
      <trkpt lat="48.21823" lon="6.21505">
        <ele>311.2</ele>
        <time>2021-06-23T10:41:13Z</time>
      </trkpt>
      <trkpt lat="48.21852" lon="6.21616">
        <ele>310.5</ele>
        <time>2021-06-23T10:41:18Z</time>
      </trkpt>
      <trkpt lat="48.21855" lon="6.21637">
        <ele>311.16</ele>
        <time>2021-06-23T10:41:23Z</time>
      </trkpt>
      <trkpt lat="48.21854" lon="6.2165">
        <ele>311.65</ele>
        <time>2021-06-23T10:41:27Z</time>
      </trkpt>
      <trkpt lat="48.21852" lon="6.21665">
        <ele>312.3</ele>
        <time>2021-06-23T10:41:34Z</time>
      </trkpt>
      <trkpt lat="48.21855" lon="6.21684">
        <ele>312.37</ele>
        <time>2021-06-23T10:41:41Z</time>
      </trkpt>
      <trkpt lat="48.21854" lon="6.21707">
        <ele>312.51</ele>
        <time>2021-06-23T10:41:47Z</time>
      </trkpt>
      <trkpt lat="48.21851" lon="6.21726">
        <ele>312.74</ele>
        <time>2021-06-23T10:41:54Z</time>
      </trkpt>
      <trkpt lat="48.2182" lon="6.21834">
        <ele>313</ele>
        <time>2021-06-23T10:42:01Z</time>
      </trkpt>
      <trkpt lat="48.21809" lon="6.2189">
        <ele>313</ele>
        <time>2021-06-23T10:42:07Z</time>
      </trkpt>
      <trkpt lat="48.21801" lon="6.21947">
        <ele>313.06</ele>
        <time>2021-06-23T10:42:14Z</time>
      </trkpt>
      <trkpt lat="48.21797" lon="6.21992">
        <ele>311.51</ele>
        <time>2021-06-23T10:42:21Z</time>
      </trkpt>
      <trkpt lat="48.21796" lon="6.22054">
        <ele>311.68</ele>
        <time>2021-06-23T10:42:27Z</time>
      </trkpt>
      <trkpt lat="48.21807" lon="6.22699">
        <ele>303</ele>
        <time>2021-06-23T10:42:34Z</time>
      </trkpt>
      <trkpt lat="48.21811" lon="6.22824">
        <ele>302.8</ele>
        <time>2021-06-23T10:42:41Z</time>
      </trkpt>
      <trkpt lat="48.21874" lon="6.2358">
        <ele>296.76</ele>
        <time>2021-06-23T10:42:47Z</time>
      </trkpt>
      <trkpt lat="48.21962" lon="6.24615">
        <ele>303.34</ele>
        <time>2021-06-23T10:42:54Z</time>
      </trkpt>
      <trkpt lat="48.21969" lon="6.24737">
        <ele>303.3</ele>
        <time>2021-06-23T10:43:01Z</time>
      </trkpt>
      <trkpt lat="48.2197" lon="6.24845">
        <ele>304.57</ele>
        <time>2021-06-23T10:43:08Z</time>
      </trkpt>
      <trkpt lat="48.2197" lon="6.24845">
        <ele>304.57</ele>
        <time>2021-06-23T10:43:08Z</time>
      </trkpt>
      <trkpt lat="48.21971" lon="6.24877">
        <ele>305.84</ele>
        <time>2021-06-23T10:43:17Z</time>
      </trkpt>
      <trkpt lat="48.21967" lon="6.25031">
        <ele>307.59</ele>
        <time>2021-06-23T10:43:27Z</time>
      </trkpt>
      <trkpt lat="48.21959" lon="6.25223">
        <ele>307.07</ele>
        <time>2021-06-23T10:43:36Z</time>
      </trkpt>
      <trkpt lat="48.21934" lon="6.25547">
        <ele>306.39</ele>
        <time>2021-06-23T10:43:46Z</time>
      </trkpt>
      <trkpt lat="48.21919" lon="6.25774">
        <ele>307.24</ele>
        <time>2021-06-23T10:43:55Z</time>
      </trkpt>
      <trkpt lat="48.21889" lon="6.2618">
        <ele>309.48</ele>
        <time>2021-06-23T10:44:05Z</time>
      </trkpt>
      <trkpt lat="48.21844" lon="6.2674">
        <ele>322</ele>
        <time>2021-06-23T10:44:14Z</time>
      </trkpt>
      <trkpt lat="48.21841" lon="6.2684">
        <ele>320.47</ele>
        <time>2021-06-23T10:44:24Z</time>
      </trkpt>
      <trkpt lat="48.21838" lon="6.27044">
        <ele>320.82</ele>
        <time>2021-06-23T10:44:33Z</time>
      </trkpt>
      <trkpt lat="48.21832" lon="6.27166">
        <ele>318.03</ele>
        <time>2021-06-23T10:44:43Z</time>
      </trkpt>
      <trkpt lat="48.21744" lon="6.28347">
        <ele>332.65</ele>
        <time>2021-06-23T10:44:52Z</time>
      </trkpt>
      <trkpt lat="48.21741" lon="6.28378">
        <ele>332.56</ele>
        <time>2021-06-23T10:45:02Z</time>
      </trkpt>
      <trkpt lat="48.21701" lon="6.28934">
        <ele>331.23</ele>
        <time>2021-06-23T10:45:11Z</time>
      </trkpt>
      <trkpt lat="48.21681" lon="6.29159">
        <ele>330.81</ele>
        <time>2021-06-23T10:45:21Z</time>
      </trkpt>
      <trkpt lat="48.21681" lon="6.29159">
        <ele>330.81</ele>
        <time>2021-06-23T10:45:21Z</time>
      </trkpt>
      <trkpt lat="48.21674" lon="6.29236">
        <ele>330.39</ele>
        <time>2021-06-23T10:45:30Z</time>
      </trkpt>
      <trkpt lat="48.21652" lon="6.29379">
        <ele>332.84</ele>
        <time>2021-06-23T10:45:39Z</time>
      </trkpt>
      <trkpt lat="48.21629" lon="6.2948">
        <ele>332.36</ele>
        <time>2021-06-23T10:45:48Z</time>
      </trkpt>
      <trkpt lat="48.21613" lon="6.29539">
        <ele>336.26</ele>
        <time>2021-06-23T10:45:57Z</time>
      </trkpt>
      <trkpt lat="48.21595" lon="6.29599">
        <ele>339.06</ele>
        <time>2021-06-23T10:46:06Z</time>
      </trkpt>
      <trkpt lat="48.21576" lon="6.29655">
        <ele>342.68</ele>
        <time>2021-06-23T10:46:15Z</time>
      </trkpt>
      <trkpt lat="48.21111" lon="6.30904">
        <ele>366</ele>
        <time>2021-06-23T10:46:24Z</time>
      </trkpt>
      <trkpt lat="48.20948" lon="6.31346">
        <ele>376.42</ele>
        <time>2021-06-23T10:46:33Z</time>
      </trkpt>
      <trkpt lat="48.20538" lon="6.3242">
        <ele>374.05</ele>
        <time>2021-06-23T10:46:43Z</time>
      </trkpt>
      <trkpt lat="48.20514" lon="6.32495">
        <ele>375.59</ele>
        <time>2021-06-23T10:46:52Z</time>
      </trkpt>
      <trkpt lat="48.20495" lon="6.32561">
        <ele>373.6</ele>
        <time>2021-06-23T10:47:01Z</time>
      </trkpt>
      <trkpt lat="48.20466" lon="6.32682">
        <ele>371.14</ele>
        <time>2021-06-23T10:47:10Z</time>
      </trkpt>
      <trkpt lat="48.20443" lon="6.32805">
        <ele>370.93</ele>
        <time>2021-06-23T10:47:19Z</time>
      </trkpt>
      <trkpt lat="48.20424" lon="6.32937">
        <ele>365.25</ele>
        <time>2021-06-23T10:47:28Z</time>
      </trkpt>
      <trkpt lat="48.20403" lon="6.33126">
        <ele>367.36</ele>
        <time>2021-06-23T10:47:37Z</time>
      </trkpt>
      <trkpt lat="48.20403" lon="6.33126">
        <ele>367.36</ele>
        <time>2021-06-23T10:47:37Z</time>
      </trkpt>
      <trkpt lat="48.20391" lon="6.33234">
        <ele>369.47</ele>
        <time>2021-06-23T10:47:52Z</time>
      </trkpt>
      <trkpt lat="48.20351" lon="6.33637">
        <ele>360.38</ele>
        <time>2021-06-23T10:48:07Z</time>
      </trkpt>
      <trkpt lat="48.20344" lon="6.33733">
        <ele>358.73</ele>
        <time>2021-06-23T10:48:22Z</time>
      </trkpt>
      <trkpt lat="48.20338" lon="6.34034">
        <ele>358.82</ele>
        <time>2021-06-23T10:48:38Z</time>
      </trkpt>
      <trkpt lat="48.20358" lon="6.35701">
        <ele>347.88</ele>
        <time>2021-06-23T10:48:53Z</time>
      </trkpt>
      <trkpt lat="48.20365" lon="6.35916">
        <ele>349.69</ele>
        <time>2021-06-23T10:49:08Z</time>
      </trkpt>
      <trkpt lat="48.20401" lon="6.36446">
        <ele>353.41</ele>
        <time>2021-06-23T10:49:23Z</time>
      </trkpt>
      <trkpt lat="48.20418" lon="6.36763">
        <ele>357.51</ele>
        <time>2021-06-23T10:49:38Z</time>
      </trkpt>
      <trkpt lat="48.20491" lon="6.37885">
        <ele>334.79</ele>
        <time>2021-06-23T10:49:53Z</time>
      </trkpt>
      <trkpt lat="48.20518" lon="6.38368">
        <ele>357.01</ele>
        <time>2021-06-23T10:50:09Z</time>
      </trkpt>
      <trkpt lat="48.20535" lon="6.38535">
        <ele>364.06</ele>
        <time>2021-06-23T10:50:24Z</time>
      </trkpt>
      <trkpt lat="48.20535" lon="6.38576">
        <ele>365.01</ele>
        <time>2021-06-23T10:50:39Z</time>
      </trkpt>
      <trkpt lat="48.20532" lon="6.38645">
        <ele>366.85</ele>
        <time>2021-06-23T10:50:54Z</time>
      </trkpt>
      <trkpt lat="48.20519" lon="6.38742">
        <ele>368.73</ele>
        <time>2021-06-23T10:51:09Z</time>
      </trkpt>
      <trkpt lat="48.20519" lon="6.38742">
        <ele>368.73</ele>
        <time>2021-06-23T10:51:09Z</time>
      </trkpt>
      <trkpt lat="48.20512" lon="6.38793">
        <ele>370.61</ele>
        <time>2021-06-23T10:51:17Z</time>
      </trkpt>
      <trkpt lat="48.20471" lon="6.38901">
        <ele>373.21</ele>
        <time>2021-06-23T10:51:24Z</time>
      </trkpt>
      <trkpt lat="48.20402" lon="6.39016">
        <ele>372.43</ele>
        <time>2021-06-23T10:51:32Z</time>
      </trkpt>
      <trkpt lat="48.19934" lon="6.39519">
        <ele>373.77</ele>
        <time>2021-06-23T10:51:39Z</time>
      </trkpt>
      <trkpt lat="48.19693" lon="6.39776">
        <ele>373</ele>
        <time>2021-06-23T10:51:47Z</time>
      </trkpt>
      <trkpt lat="48.19644" lon="6.39823">
        <ele>373.51</ele>
        <time>2021-06-23T10:51:55Z</time>
      </trkpt>
      <trkpt lat="48.19604" lon="6.39857">
        <ele>374.83</ele>
        <time>2021-06-23T10:52:02Z</time>
      </trkpt>
      <trkpt lat="48.19558" lon="6.39888">
        <ele>370.28</ele>
        <time>2021-06-23T10:52:10Z</time>
      </trkpt>
      <trkpt lat="48.19514" lon="6.39914">
        <ele>371.51</ele>
        <time>2021-06-23T10:52:17Z</time>
      </trkpt>
      <trkpt lat="48.19469" lon="6.39936">
        <ele>372</ele>
        <time>2021-06-23T10:52:25Z</time>
      </trkpt>
      <trkpt lat="48.19202" lon="6.40035">
        <ele>370.88</ele>
        <time>2021-06-23T10:52:32Z</time>
      </trkpt>
      <trkpt lat="48.19171" lon="6.40038">
        <ele>369.78</ele>
        <time>2021-06-23T10:52:40Z</time>
      </trkpt>
      <trkpt lat="48.19154" lon="6.40035">
        <ele>369.63</ele>
        <time>2021-06-23T10:52:47Z</time>
      </trkpt>
      <trkpt lat="48.19147" lon="6.40025">
        <ele>370.24</ele>
        <time>2021-06-23T10:52:49Z</time>
      </trkpt>
      <trkpt lat="48.19131" lon="6.40018">
        <ele>371.01</ele>
        <time>2021-06-23T10:52:50Z</time>
      </trkpt>
      <trkpt lat="48.19117" lon="6.40022">
        <ele>371.2</ele>
        <time>2021-06-23T10:52:51Z</time>
      </trkpt>
      <trkpt lat="48.19107" lon="6.40033">
        <ele>370.73</ele>
        <time>2021-06-23T10:52:52Z</time>
      </trkpt>
      <trkpt lat="48.19103" lon="6.40045">
        <ele>370.12</ele>
        <time>2021-06-23T10:52:54Z</time>
      </trkpt>
      <trkpt lat="48.19103" lon="6.40045">
        <ele>370.12</ele>
        <time>2021-06-23T10:52:54Z</time>
      </trkpt>
      <trkpt lat="48.19101" lon="6.40051">
        <ele>369.52</ele>
        <time>2021-06-23T10:52:59Z</time>
      </trkpt>
      <trkpt lat="48.191" lon="6.40067">
        <ele>368.63</ele>
        <time>2021-06-23T10:53:04Z</time>
      </trkpt>
      <trkpt lat="48.19103" lon="6.40084">
        <ele>367.59</ele>
        <time>2021-06-23T10:53:10Z</time>
      </trkpt>
      <trkpt lat="48.1911" lon="6.40099">
        <ele>367.02</ele>
        <time>2021-06-23T10:53:15Z</time>
      </trkpt>
      <trkpt lat="48.1912" lon="6.40107">
        <ele>367.31</ele>
        <time>2021-06-23T10:53:20Z</time>
      </trkpt>
      <trkpt lat="48.19131" lon="6.40109">
        <ele>367.71</ele>
        <time>2021-06-23T10:53:26Z</time>
      </trkpt>
      <trkpt lat="48.19141" lon="6.40107">
        <ele>368.07</ele>
        <time>2021-06-23T10:53:31Z</time>
      </trkpt>
      <trkpt lat="48.19157" lon="6.40115">
        <ele>368.77</ele>
        <time>2021-06-23T10:53:36Z</time>
      </trkpt>
      <trkpt lat="48.19177" lon="6.40138">
        <ele>370.33</ele>
        <time>2021-06-23T10:53:42Z</time>
      </trkpt>
      <trkpt lat="48.1974" lon="6.41083">
        <ele>372.68</ele>
        <time>2021-06-23T10:53:47Z</time>
      </trkpt>
      <trkpt lat="48.19747" lon="6.41104">
        <ele>370.85</ele>
        <time>2021-06-23T10:53:52Z</time>
      </trkpt>
      <trkpt lat="48.19753" lon="6.41131">
        <ele>368.28</ele>
        <time>2021-06-23T10:53:57Z</time>
      </trkpt>
      <trkpt lat="48.19752" lon="6.41147">
        <ele>366.86</ele>
        <time>2021-06-23T10:54:02Z</time>
      </trkpt>
      <trkpt lat="48.19754" lon="6.41155">
        <ele>365.83</ele>
        <time>2021-06-23T10:54:06Z</time>
      </trkpt>
      <trkpt lat="48.19762" lon="6.41167">
        <ele>363.73</ele>
        <time>2021-06-23T10:54:10Z</time>
      </trkpt>
      <trkpt lat="48.19767" lon="6.4117">
        <ele>363.06</ele>
        <time>2021-06-23T10:54:14Z</time>
      </trkpt>
      <trkpt lat="48.19778" lon="6.41169">
        <ele>361.96</ele>
        <time>2021-06-23T10:54:19Z</time>
      </trkpt>
      <trkpt lat="48.19802" lon="6.41187">
        <ele>358.93</ele>
        <time>2021-06-23T10:54:23Z</time>
      </trkpt>
      <trkpt lat="48.19876" lon="6.41311">
        <ele>353.82</ele>
        <time>2021-06-23T10:54:27Z</time>
      </trkpt>
      <trkpt lat="48.19916" lon="6.4137">
        <ele>349.77</ele>
        <time>2021-06-23T10:54:31Z</time>
      </trkpt>
      <trkpt lat="48.19955" lon="6.41422">
        <ele>348.72</ele>
        <time>2021-06-23T10:54:36Z</time>
      </trkpt>
      <trkpt lat="48.20006" lon="6.41484">
        <ele>348.09</ele>
        <time>2021-06-23T10:54:40Z</time>
      </trkpt>
      <trkpt lat="48.20057" lon="6.4154">
        <ele>351.1</ele>
        <time>2021-06-23T10:54:44Z</time>
      </trkpt>
      <trkpt lat="48.20104" lon="6.41587">
        <ele>354.16</ele>
        <time>2021-06-23T10:54:48Z</time>
      </trkpt>
      <trkpt lat="48.2015" lon="6.41631">
        <ele>354.59</ele>
        <time>2021-06-23T10:54:53Z</time>
      </trkpt>
      <trkpt lat="48.20205" lon="6.41675">
        <ele>353.44</ele>
        <time>2021-06-23T10:54:57Z</time>
      </trkpt>
      <trkpt lat="48.2026" lon="6.41716">
        <ele>356.17</ele>
        <time>2021-06-23T10:55:01Z</time>
      </trkpt>
      <trkpt lat="48.20312" lon="6.41749">
        <ele>357.27</ele>
        <time>2021-06-23T10:55:05Z</time>
      </trkpt>
      <trkpt lat="48.20367" lon="6.4178">
        <ele>356.55</ele>
        <time>2021-06-23T10:55:10Z</time>
      </trkpt>
      <trkpt lat="48.2042" lon="6.41806">
        <ele>353.98</ele>
        <time>2021-06-23T10:55:14Z</time>
      </trkpt>
      <trkpt lat="48.20472" lon="6.41826">
        <ele>351.55</ele>
        <time>2021-06-23T10:55:18Z</time>
      </trkpt>
      <trkpt lat="48.2049" lon="6.41835">
        <ele>350.28</ele>
        <time>2021-06-23T10:55:22Z</time>
      </trkpt>
      <trkpt lat="48.20522" lon="6.41846">
        <ele>346.24</ele>
        <time>2021-06-23T10:55:27Z</time>
      </trkpt>
      <trkpt lat="48.20586" lon="6.41859">
        <ele>337.35</ele>
        <time>2021-06-23T10:55:31Z</time>
      </trkpt>
      <trkpt lat="48.20661" lon="6.41883">
        <ele>344.09</ele>
        <time>2021-06-23T10:55:35Z</time>
      </trkpt>
      <trkpt lat="48.20807" lon="6.41912">
        <ele>337.93</ele>
        <time>2021-06-23T10:55:39Z</time>
      </trkpt>
      <trkpt lat="48.20945" lon="6.41933">
        <ele>334.99</ele>
        <time>2021-06-23T10:55:43Z</time>
      </trkpt>
      <trkpt lat="48.21022" lon="6.41936">
        <ele>336</ele>
        <time>2021-06-23T10:55:48Z</time>
      </trkpt>
      <trkpt lat="48.21135" lon="6.41959">
        <ele>333.08</ele>
        <time>2021-06-23T10:55:52Z</time>
      </trkpt>
      <trkpt lat="48.21238" lon="6.41995">
        <ele>331.85</ele>
        <time>2021-06-23T10:55:56Z</time>
      </trkpt>
      <trkpt lat="48.21353" lon="6.42063">
        <ele>334.96</ele>
        <time>2021-06-23T10:56:00Z</time>
      </trkpt>
      <trkpt lat="48.21458" lon="6.42141">
        <ele>329.45</ele>
        <time>2021-06-23T10:56:05Z</time>
      </trkpt>
      <trkpt lat="48.21556" lon="6.42233">
        <ele>330.96</ele>
        <time>2021-06-23T10:56:09Z</time>
      </trkpt>
      <trkpt lat="48.216" lon="6.4228">
        <ele>327.87</ele>
        <time>2021-06-23T10:56:13Z</time>
      </trkpt>
      <trkpt lat="48.21644" lon="6.42336">
        <ele>327.92</ele>
        <time>2021-06-23T10:56:17Z</time>
      </trkpt>
      <trkpt lat="48.21724" lon="6.42458">
        <ele>327.38</ele>
        <time>2021-06-23T10:56:22Z</time>
      </trkpt>
      <trkpt lat="48.21799" lon="6.4259">
        <ele>326.55</ele>
        <time>2021-06-23T10:56:26Z</time>
      </trkpt>
      <trkpt lat="48.21845" lon="6.42683">
        <ele>326.76</ele>
        <time>2021-06-23T10:56:30Z</time>
      </trkpt>
      <trkpt lat="48.21992" lon="6.43011">
        <ele>323.44</ele>
        <time>2021-06-23T10:56:34Z</time>
      </trkpt>
      <trkpt lat="48.2201" lon="6.4306">
        <ele>321.22</ele>
        <time>2021-06-23T10:56:39Z</time>
      </trkpt>
      <trkpt lat="48.22017" lon="6.43092">
        <ele>319.64</ele>
        <time>2021-06-23T10:56:43Z</time>
      </trkpt>
      <trkpt lat="48.22014" lon="6.43103">
        <ele>319.11</ele>
        <time>2021-06-23T10:56:44Z</time>
      </trkpt>
      <trkpt lat="48.22014" lon="6.43113">
        <ele>318.43</ele>
        <time>2021-06-23T10:56:46Z</time>
      </trkpt>
      <trkpt lat="48.22016" lon="6.43123">
        <ele>318.07</ele>
        <time>2021-06-23T10:56:48Z</time>
      </trkpt>
      <trkpt lat="48.2202" lon="6.43132">
        <ele>317.86</ele>
        <time>2021-06-23T10:56:49Z</time>
      </trkpt>
      <trkpt lat="48.22024" lon="6.43137">
        <ele>317.89</ele>
        <time>2021-06-23T10:56:51Z</time>
      </trkpt>
      <trkpt lat="48.2203" lon="6.43141">
        <ele>318.06</ele>
        <time>2021-06-23T10:56:52Z</time>
      </trkpt>
      <trkpt lat="48.22041" lon="6.43141">
        <ele>317.65</ele>
        <time>2021-06-23T10:56:54Z</time>
      </trkpt>
      <trkpt lat="48.22073" lon="6.43202">
        <ele>316.89</ele>
        <time>2021-06-23T10:56:56Z</time>
      </trkpt>
      <trkpt lat="48.22182" lon="6.43451">
        <ele>312.8</ele>
        <time>2021-06-23T10:56:57Z</time>
      </trkpt>
      <trkpt lat="48.22192" lon="6.43485">
        <ele>311.18</ele>
        <time>2021-06-23T10:56:59Z</time>
      </trkpt>
      <trkpt lat="48.22196" lon="6.43506">
        <ele>310.72</ele>
        <time>2021-06-23T10:57:00Z</time>
      </trkpt>
      <trkpt lat="48.22194" lon="6.43518">
        <ele>310.37</ele>
        <time>2021-06-23T10:57:03Z</time>
      </trkpt>
      <trkpt lat="48.22195" lon="6.4353">
        <ele>309.93</ele>
        <time>2021-06-23T10:57:05Z</time>
      </trkpt>
      <trkpt lat="48.22199" lon="6.43543">
        <ele>309.39</ele>
        <time>2021-06-23T10:57:07Z</time>
      </trkpt>
      <trkpt lat="48.22207" lon="6.43552">
        <ele>309.07</ele>
        <time>2021-06-23T10:57:09Z</time>
      </trkpt>
      <trkpt lat="48.22216" lon="6.43555">
        <ele>309</ele>
        <time>2021-06-23T10:57:11Z</time>
      </trkpt>
      <trkpt lat="48.22222" lon="6.43555">
        <ele>309</ele>
        <time>2021-06-23T10:57:14Z</time>
      </trkpt>
      <trkpt lat="48.22233" lon="6.43546">
        <ele>308.24</ele>
        <time>2021-06-23T10:57:16Z</time>
      </trkpt>
      <trkpt lat="48.22238" lon="6.43534">
        <ele>307.85</ele>
        <time>2021-06-23T10:57:18Z</time>
      </trkpt>
      <trkpt lat="48.22239" lon="6.43515">
        <ele>308.23</ele>
        <time>2021-06-23T10:57:20Z</time>
      </trkpt>
      <trkpt lat="48.22243" lon="6.43503">
        <ele>308.4</ele>
        <time>2021-06-23T10:57:23Z</time>
      </trkpt>
      <trkpt lat="48.22364" lon="6.43264">
        <ele>308.86</ele>
        <time>2021-06-23T10:57:25Z</time>
      </trkpt>
      <trkpt lat="48.22393" lon="6.4322">
        <ele>310.93</ele>
        <time>2021-06-23T10:57:27Z</time>
      </trkpt>
      <trkpt lat="48.22412" lon="6.43201">
        <ele>310.34</ele>
        <time>2021-06-23T10:57:29Z</time>
      </trkpt>
      <trkpt lat="48.22435" lon="6.43184">
        <ele>310.89</ele>
        <time>2021-06-23T10:57:32Z</time>
      </trkpt>
      <trkpt lat="48.22452" lon="6.43178">
        <ele>311.2</ele>
        <time>2021-06-23T10:57:34Z</time>
      </trkpt>
      <trkpt lat="48.22483" lon="6.4318">
        <ele>310.27</ele>
        <time>2021-06-23T10:57:38Z</time>
      </trkpt>
      <trkpt lat="48.22507" lon="6.43196">
        <ele>308.27</ele>
        <time>2021-06-23T10:57:41Z</time>
      </trkpt>
      <trkpt lat="48.22524" lon="6.43222">
        <ele>309.73</ele>
        <time>2021-06-23T10:57:45Z</time>
      </trkpt>
      <trkpt lat="48.22531" lon="6.43242">
        <ele>310.82</ele>
        <time>2021-06-23T10:57:49Z</time>
      </trkpt>
      <trkpt lat="48.22536" lon="6.4327">
        <ele>311.29</ele>
        <time>2021-06-23T10:57:52Z</time>
      </trkpt>
      <trkpt lat="48.22544" lon="6.43388">
        <ele>310.13</ele>
        <time>2021-06-23T10:57:56Z</time>
      </trkpt>
      <trkpt lat="48.22545" lon="6.43425">
        <ele>310.48</ele>
        <time>2021-06-23T10:58:00Z</time>
      </trkpt>
      <trkpt lat="48.22543" lon="6.43455">
        <ele>309.73</ele>
        <time>2021-06-23T10:58:03Z</time>
      </trkpt>
      <trkpt lat="48.22546" lon="6.43515">
        <ele>308.52</ele>
        <time>2021-06-23T10:58:07Z</time>
      </trkpt>
      <trkpt lat="48.22521" lon="6.44">
        <ele>310.13</ele>
        <time>2021-06-23T10:58:11Z</time>
      </trkpt>
      <trkpt lat="48.22521" lon="6.44">
        <ele>310.13</ele>
        <time>2021-06-23T10:58:11Z</time>
      </trkpt>
      <trkpt lat="48.22518" lon="6.44055">
        <ele>311.01</ele>
        <time>2021-06-23T10:58:17Z</time>
      </trkpt>
      <trkpt lat="48.22509" lon="6.44147">
        <ele>307.8</ele>
        <time>2021-06-23T10:58:23Z</time>
      </trkpt>
      <trkpt lat="48.22497" lon="6.44238">
        <ele>305.07</ele>
        <time>2021-06-23T10:58:30Z</time>
      </trkpt>
      <trkpt lat="48.22476" lon="6.44343">
        <ele>306.93</ele>
        <time>2021-06-23T10:58:36Z</time>
      </trkpt>
      <trkpt lat="48.2246" lon="6.44407">
        <ele>307.34</ele>
        <time>2021-06-23T10:58:43Z</time>
      </trkpt>
      <trkpt lat="48.22419" lon="6.44541">
        <ele>310.27</ele>
        <time>2021-06-23T10:58:49Z</time>
      </trkpt>
      <trkpt lat="48.22378" lon="6.44646">
        <ele>307.7</ele>
        <time>2021-06-23T10:58:55Z</time>
      </trkpt>
      <trkpt lat="48.22333" lon="6.44739">
        <ele>309.37</ele>
        <time>2021-06-23T10:59:02Z</time>
      </trkpt>
      <trkpt lat="48.22228" lon="6.44918">
        <ele>308.22</ele>
        <time>2021-06-23T10:59:08Z</time>
      </trkpt>
      <trkpt lat="48.2216" lon="6.4501">
        <ele>311.25</ele>
        <time>2021-06-23T10:59:15Z</time>
      </trkpt>
      <trkpt lat="48.22061" lon="6.45138">
        <ele>311.81</ele>
        <time>2021-06-23T10:59:21Z</time>
      </trkpt>
      <trkpt lat="48.22013" lon="6.45193">
        <ele>311.02</ele>
        <time>2021-06-23T10:59:27Z</time>
      </trkpt>
      <trkpt lat="48.21952" lon="6.45258">
        <ele>311.92</ele>
        <time>2021-06-23T10:59:34Z</time>
      </trkpt>
      <trkpt lat="48.21869" lon="6.45331">
        <ele>312.65</ele>
        <time>2021-06-23T10:59:40Z</time>
      </trkpt>
      <trkpt lat="48.21789" lon="6.45393">
        <ele>314.08</ele>
        <time>2021-06-23T10:59:47Z</time>
      </trkpt>
      <trkpt lat="48.21688" lon="6.45447">
        <ele>318.17</ele>
        <time>2021-06-23T10:59:53Z</time>
      </trkpt>
      <trkpt lat="48.21417" lon="6.45573">
        <ele>323.31</ele>
        <time>2021-06-23T10:59:59Z</time>
      </trkpt>
      <trkpt lat="48.2125" lon="6.4566">
        <ele>320.48</ele>
        <time>2021-06-23T11:00:06Z</time>
      </trkpt>
      <trkpt lat="48.21127" lon="6.45737">
        <ele>322.97</ele>
        <time>2021-06-23T11:00:12Z</time>
      </trkpt>
      <trkpt lat="48.21006" lon="6.45828">
        <ele>325.04</ele>
        <time>2021-06-23T11:00:19Z</time>
      </trkpt>
      <trkpt lat="48.20856" lon="6.45967">
        <ele>330.55</ele>
        <time>2021-06-23T11:00:25Z</time>
      </trkpt>
      <trkpt lat="48.20732" lon="6.46102">
        <ele>337.37</ele>
        <time>2021-06-23T11:00:31Z</time>
      </trkpt>
      <trkpt lat="48.2065" lon="6.46203">
        <ele>346.78</ele>
        <time>2021-06-23T11:00:38Z</time>
      </trkpt>
      <trkpt lat="48.19959" lon="6.47077">
        <ele>348.73</ele>
        <time>2021-06-23T11:00:44Z</time>
      </trkpt>
      <trkpt lat="48.19921" lon="6.47124">
        <ele>348.98</ele>
        <time>2021-06-23T11:00:51Z</time>
      </trkpt>
      <trkpt lat="48.19862" lon="6.47189">
        <ele>347</ele>
        <time>2021-06-23T11:00:57Z</time>
      </trkpt>
      <trkpt lat="48.19803" lon="6.47249">
        <ele>342.98</ele>
        <time>2021-06-23T11:01:03Z</time>
      </trkpt>
      <trkpt lat="48.19742" lon="6.47302">
        <ele>343.04</ele>
        <time>2021-06-23T11:01:10Z</time>
      </trkpt>
      <trkpt lat="48.19695" lon="6.47339">
        <ele>339.61</ele>
        <time>2021-06-23T11:01:16Z</time>
      </trkpt>
      <trkpt lat="48.19619" lon="6.47394">
        <ele>338.58</ele>
        <time>2021-06-23T11:01:23Z</time>
      </trkpt>
      <trkpt lat="48.19149" lon="6.477">
        <ele>358.57</ele>
        <time>2021-06-23T11:01:29Z</time>
      </trkpt>
      <trkpt lat="48.18927" lon="6.4785">
        <ele>372.75</ele>
        <time>2021-06-23T11:01:35Z</time>
      </trkpt>
      <trkpt lat="48.1884" lon="6.47914">
        <ele>376.54</ele>
        <time>2021-06-23T11:01:42Z</time>
      </trkpt>
      <trkpt lat="48.18771" lon="6.47972">
        <ele>374.74</ele>
        <time>2021-06-23T11:01:48Z</time>
      </trkpt>
      <trkpt lat="48.18456" lon="6.48279">
        <ele>376.46</ele>
        <time>2021-06-23T11:01:55Z</time>
      </trkpt>
      <trkpt lat="48.18425" lon="6.48306">
        <ele>376.32</ele>
        <time>2021-06-23T11:02:01Z</time>
      </trkpt>
      <trkpt lat="48.18363" lon="6.48355">
        <ele>379.47</ele>
        <time>2021-06-23T11:02:07Z</time>
      </trkpt>
      <trkpt lat="48.18312" lon="6.48386">
        <ele>383.87</ele>
        <time>2021-06-23T11:02:14Z</time>
      </trkpt>
      <trkpt lat="48.18312" lon="6.48386">
        <ele>383.87</ele>
        <time>2021-06-23T11:02:14Z</time>
      </trkpt>
      <trkpt lat="48.18281" lon="6.48402">
        <ele>384.42</ele>
        <time>2021-06-23T11:02:18Z</time>
      </trkpt>
      <trkpt lat="48.18237" lon="6.48422">
        <ele>385.01</ele>
        <time>2021-06-23T11:02:22Z</time>
      </trkpt>
      <trkpt lat="48.18203" lon="6.48433">
        <ele>388.77</ele>
        <time>2021-06-23T11:02:26Z</time>
      </trkpt>
      <trkpt lat="48.18133" lon="6.48448">
        <ele>390.14</ele>
        <time>2021-06-23T11:02:30Z</time>
      </trkpt>
      <trkpt lat="48.18091" lon="6.48453">
        <ele>388.65</ele>
        <time>2021-06-23T11:02:34Z</time>
      </trkpt>
      <trkpt lat="48.18013" lon="6.48451">
        <ele>388.78</ele>
        <time>2021-06-23T11:02:38Z</time>
      </trkpt>
      <trkpt lat="48.17962" lon="6.48442">
        <ele>394.54</ele>
        <time>2021-06-23T11:02:43Z</time>
      </trkpt>
      <trkpt lat="48.179" lon="6.48427">
        <ele>398.98</ele>
        <time>2021-06-23T11:02:47Z</time>
      </trkpt>
      <trkpt lat="48.17613" lon="6.48323">
        <ele>418.86</ele>
        <time>2021-06-23T11:02:51Z</time>
      </trkpt>
      <trkpt lat="48.17536" lon="6.48296">
        <ele>422.05</ele>
        <time>2021-06-23T11:02:55Z</time>
      </trkpt>
      <trkpt lat="48.17492" lon="6.48283">
        <ele>425.57</ele>
        <time>2021-06-23T11:02:59Z</time>
      </trkpt>
      <trkpt lat="48.17432" lon="6.48271">
        <ele>427.57</ele>
        <time>2021-06-23T11:03:03Z</time>
      </trkpt>
      <trkpt lat="48.17384" lon="6.48267">
        <ele>432.89</ele>
        <time>2021-06-23T11:03:07Z</time>
      </trkpt>
      <trkpt lat="48.17304" lon="6.4827">
        <ele>433.23</ele>
        <time>2021-06-23T11:03:11Z</time>
      </trkpt>
      <trkpt lat="48.17216" lon="6.48287">
        <ele>444.36</ele>
        <time>2021-06-23T11:03:15Z</time>
      </trkpt>
      <trkpt lat="48.17146" lon="6.48314">
        <ele>439.81</ele>
        <time>2021-06-23T11:03:19Z</time>
      </trkpt>
      <trkpt lat="48.17101" lon="6.48336">
        <ele>439.05</ele>
        <time>2021-06-23T11:03:23Z</time>
      </trkpt>
      <trkpt lat="48.16597" lon="6.48651">
        <ele>452.63</ele>
        <time>2021-06-23T11:03:28Z</time>
      </trkpt>
      <trkpt lat="48.16508" lon="6.48697">
        <ele>454.3</ele>
        <time>2021-06-23T11:03:32Z</time>
      </trkpt>
      <trkpt lat="48.16434" lon="6.48724">
        <ele>453.68</ele>
        <time>2021-06-23T11:03:36Z</time>
      </trkpt>
      <trkpt lat="48.16369" lon="6.48735">
        <ele>450.05</ele>
        <time>2021-06-23T11:03:40Z</time>
      </trkpt>
      <trkpt lat="48.16314" lon="6.48739">
        <ele>447.22</ele>
        <time>2021-06-23T11:03:44Z</time>
      </trkpt>
      <trkpt lat="48.16268" lon="6.48734">
        <ele>445.26</ele>
        <time>2021-06-23T11:03:48Z</time>
      </trkpt>
      <trkpt lat="48.16227" lon="6.48727">
        <ele>440.88</ele>
        <time>2021-06-23T11:03:52Z</time>
      </trkpt>
      <trkpt lat="48.16171" lon="6.48713">
        <ele>445.29</ele>
        <time>2021-06-23T11:03:56Z</time>
      </trkpt>
      <trkpt lat="48.16117" lon="6.48696">
        <ele>447.09</ele>
        <time>2021-06-23T11:04:00Z</time>
      </trkpt>
      <trkpt lat="48.1593" lon="6.48629">
        <ele>437.78</ele>
        <time>2021-06-23T11:04:04Z</time>
      </trkpt>
      <trkpt lat="48.15688" lon="6.48547">
        <ele>432</ele>
        <time>2021-06-23T11:04:09Z</time>
      </trkpt>
      <trkpt lat="48.15642" lon="6.48536">
        <ele>428.76</ele>
        <time>2021-06-23T11:04:13Z</time>
      </trkpt>
      <trkpt lat="48.15567" lon="6.48526">
        <ele>421.05</ele>
        <time>2021-06-23T11:04:17Z</time>
      </trkpt>
      <trkpt lat="48.15509" lon="6.48525">
        <ele>414</ele>
        <time>2021-06-23T11:04:21Z</time>
      </trkpt>
      <trkpt lat="48.15462" lon="6.48529">
        <ele>406.57</ele>
        <time>2021-06-23T11:04:25Z</time>
      </trkpt>
      <trkpt lat="48.15391" lon="6.4854">
        <ele>401.72</ele>
        <time>2021-06-23T11:04:29Z</time>
      </trkpt>
      <trkpt lat="48.15347" lon="6.48552">
        <ele>400.4</ele>
        <time>2021-06-23T11:04:33Z</time>
      </trkpt>
      <trkpt lat="48.15274" lon="6.48578">
        <ele>401.16</ele>
        <time>2021-06-23T11:04:37Z</time>
      </trkpt>
      <trkpt lat="48.15211" lon="6.48609">
        <ele>403.98</ele>
        <time>2021-06-23T11:04:41Z</time>
      </trkpt>
      <trkpt lat="48.15127" lon="6.48663">
        <ele>389.74</ele>
        <time>2021-06-23T11:04:45Z</time>
      </trkpt>
      <trkpt lat="48.15051" lon="6.48726">
        <ele>381.6</ele>
        <time>2021-06-23T11:04:50Z</time>
      </trkpt>
      <trkpt lat="48.15051" lon="6.48726">
        <ele>381.6</ele>
        <time>2021-06-23T11:04:50Z</time>
      </trkpt>
      <trkpt lat="48.1499" lon="6.48787">
        <ele>380.07</ele>
        <time>2021-06-23T11:04:52Z</time>
      </trkpt>
      <trkpt lat="48.14951" lon="6.48834">
        <ele>375.23</ele>
        <time>2021-06-23T11:04:55Z</time>
      </trkpt>
      <trkpt lat="48.14919" lon="6.48877">
        <ele>374.08</ele>
        <time>2021-06-23T11:04:58Z</time>
      </trkpt>
      <trkpt lat="48.14897" lon="6.48912">
        <ele>373.18</ele>
        <time>2021-06-23T11:05:01Z</time>
      </trkpt>
      <trkpt lat="48.14881" lon="6.48941">
        <ele>373.28</ele>
        <time>2021-06-23T11:05:04Z</time>
      </trkpt>
      <trkpt lat="48.1486" lon="6.48982">
        <ele>372.02</ele>
        <time>2021-06-23T11:05:06Z</time>
      </trkpt>
      <trkpt lat="48.14843" lon="6.49025">
        <ele>373.87</ele>
        <time>2021-06-23T11:05:09Z</time>
      </trkpt>
      <trkpt lat="48.14825" lon="6.49077">
        <ele>375.26</ele>
        <time>2021-06-23T11:05:12Z</time>
      </trkpt>
      <trkpt lat="48.14811" lon="6.49135">
        <ele>372.58</ele>
        <time>2021-06-23T11:05:15Z</time>
      </trkpt>
      <trkpt lat="48.14799" lon="6.4922">
        <ele>368.51</ele>
        <time>2021-06-23T11:05:18Z</time>
      </trkpt>
      <trkpt lat="48.14795" lon="6.49278">
        <ele>364.09</ele>
        <time>2021-06-23T11:05:21Z</time>
      </trkpt>
      <trkpt lat="48.14796" lon="6.4935">
        <ele>359.35</ele>
        <time>2021-06-23T11:05:23Z</time>
      </trkpt>
      <trkpt lat="48.14801" lon="6.4942">
        <ele>358.79</ele>
        <time>2021-06-23T11:05:26Z</time>
      </trkpt>
      <trkpt lat="48.14827" lon="6.49617">
        <ele>347.76</ele>
        <time>2021-06-23T11:05:29Z</time>
      </trkpt>
      <trkpt lat="48.1484" lon="6.4974">
        <ele>344.53</ele>
        <time>2021-06-23T11:05:32Z</time>
      </trkpt>
      <trkpt lat="48.14843" lon="6.49843">
        <ele>344.87</ele>
        <time>2021-06-23T11:05:35Z</time>
      </trkpt>
      <trkpt lat="48.1484" lon="6.49925">
        <ele>347.46</ele>
        <time>2021-06-23T11:05:37Z</time>
      </trkpt>
      <trkpt lat="48.14828" lon="6.50036">
        <ele>338.35</ele>
        <time>2021-06-23T11:05:40Z</time>
      </trkpt>
      <trkpt lat="48.14813" lon="6.50117">
        <ele>344.47</ele>
        <time>2021-06-23T11:05:43Z</time>
      </trkpt>
      <trkpt lat="48.14796" lon="6.50191">
        <ele>355.06</ele>
        <time>2021-06-23T11:05:46Z</time>
      </trkpt>
      <trkpt lat="48.14771" lon="6.5027">
        <ele>356.3</ele>
        <time>2021-06-23T11:05:49Z</time>
      </trkpt>
      <trkpt lat="48.14744" lon="6.50338">
        <ele>357.08</ele>
        <time>2021-06-23T11:05:52Z</time>
      </trkpt>
      <trkpt lat="48.14689" lon="6.50455">
        <ele>356.12</ele>
        <time>2021-06-23T11:05:54Z</time>
      </trkpt>
      <trkpt lat="48.14614" lon="6.50602">
        <ele>352</ele>
        <time>2021-06-23T11:05:57Z</time>
      </trkpt>
      <trkpt lat="48.14567" lon="6.50692">
        <ele>350.95</ele>
        <time>2021-06-23T11:06:00Z</time>
      </trkpt>
      <trkpt lat="48.14524" lon="6.50766">
        <ele>352.94</ele>
        <time>2021-06-23T11:06:03Z</time>
      </trkpt>
      <trkpt lat="48.14459" lon="6.50864">
        <ele>345.73</ele>
        <time>2021-06-23T11:06:06Z</time>
      </trkpt>
      <trkpt lat="48.14459" lon="6.50864">
        <ele>345.73</ele>
        <time>2021-06-23T11:06:06Z</time>
      </trkpt>
      <trkpt lat="48.14422" lon="6.50913">
        <ele>343.51</ele>
        <time>2021-06-23T11:06:10Z</time>
      </trkpt>
      <trkpt lat="48.14369" lon="6.50976">
        <ele>346.06</ele>
        <time>2021-06-23T11:06:13Z</time>
      </trkpt>
      <trkpt lat="48.14318" lon="6.5103">
        <ele>340.01</ele>
        <time>2021-06-23T11:06:17Z</time>
      </trkpt>
      <trkpt lat="48.14298" lon="6.5105">
        <ele>340.14</ele>
        <time>2021-06-23T11:06:21Z</time>
      </trkpt>
      <trkpt lat="48.14235" lon="6.51104">
        <ele>338.38</ele>
        <time>2021-06-23T11:06:25Z</time>
      </trkpt>
      <trkpt lat="48.14046" lon="6.51251">
        <ele>331.47</ele>
        <time>2021-06-23T11:06:29Z</time>
      </trkpt>
      <trkpt lat="48.13877" lon="6.51378">
        <ele>339.37</ele>
        <time>2021-06-23T11:06:33Z</time>
      </trkpt>
      <trkpt lat="48.13827" lon="6.51411">
        <ele>337.45</ele>
        <time>2021-06-23T11:06:36Z</time>
      </trkpt>
      <trkpt lat="48.13763" lon="6.51443">
        <ele>342.13</ele>
        <time>2021-06-23T11:06:40Z</time>
      </trkpt>
      <trkpt lat="48.13735" lon="6.51453">
        <ele>341.38</ele>
        <time>2021-06-23T11:06:44Z</time>
      </trkpt>
      <trkpt lat="48.13691" lon="6.51465">
        <ele>338.53</ele>
        <time>2021-06-23T11:06:48Z</time>
      </trkpt>
      <trkpt lat="48.13543" lon="6.51499">
        <ele>345.95</ele>
        <time>2021-06-23T11:06:52Z</time>
      </trkpt>
      <trkpt lat="48.13464" lon="6.51514">
        <ele>349</ele>
        <time>2021-06-23T11:06:56Z</time>
      </trkpt>
      <trkpt lat="48.13388" lon="6.51526">
        <ele>343.81</ele>
        <time>2021-06-23T11:06:59Z</time>
      </trkpt>
      <trkpt lat="48.13264" lon="6.51527">
        <ele>339.42</ele>
        <time>2021-06-23T11:07:03Z</time>
      </trkpt>
      <trkpt lat="48.12979" lon="6.51509">
        <ele>337.86</ele>
        <time>2021-06-23T11:07:07Z</time>
      </trkpt>
      <trkpt lat="48.12917" lon="6.51513">
        <ele>341.45</ele>
        <time>2021-06-23T11:07:11Z</time>
      </trkpt>
      <trkpt lat="48.12872" lon="6.51522">
        <ele>340.58</ele>
        <time>2021-06-23T11:07:15Z</time>
      </trkpt>
      <trkpt lat="48.12835" lon="6.51532">
        <ele>339.93</ele>
        <time>2021-06-23T11:07:19Z</time>
      </trkpt>
      <trkpt lat="48.12779" lon="6.51554">
        <ele>338.93</ele>
        <time>2021-06-23T11:07:22Z</time>
      </trkpt>
      <trkpt lat="48.1275" lon="6.51567">
        <ele>338.44</ele>
        <time>2021-06-23T11:07:26Z</time>
      </trkpt>
      <trkpt lat="48.12703" lon="6.51596">
        <ele>339.86</ele>
        <time>2021-06-23T11:07:30Z</time>
      </trkpt>
      <trkpt lat="48.1267" lon="6.51623">
        <ele>341.12</ele>
        <time>2021-06-23T11:07:34Z</time>
      </trkpt>
      <trkpt lat="48.1267" lon="6.51623">
        <ele>341.12</ele>
        <time>2021-06-23T11:07:34Z</time>
      </trkpt>
      <trkpt lat="48.12629" lon="6.51657">
        <ele>342.39</ele>
        <time>2021-06-23T11:07:36Z</time>
      </trkpt>
      <trkpt lat="48.12578" lon="6.51711">
        <ele>344.21</ele>
        <time>2021-06-23T11:07:39Z</time>
      </trkpt>
      <trkpt lat="48.12546" lon="6.5175">
        <ele>346.36</ele>
        <time>2021-06-23T11:07:41Z</time>
      </trkpt>
      <trkpt lat="48.12519" lon="6.51788">
        <ele>346.3</ele>
        <time>2021-06-23T11:07:44Z</time>
      </trkpt>
      <trkpt lat="48.12482" lon="6.51847">
        <ele>342.02</ele>
        <time>2021-06-23T11:07:46Z</time>
      </trkpt>
      <trkpt lat="48.12445" lon="6.51912">
        <ele>340.17</ele>
        <time>2021-06-23T11:07:49Z</time>
      </trkpt>
      <trkpt lat="48.12397" lon="6.52016">
        <ele>338.57</ele>
        <time>2021-06-23T11:07:51Z</time>
      </trkpt>
      <trkpt lat="48.12365" lon="6.52101">
        <ele>342</ele>
        <time>2021-06-23T11:07:54Z</time>
      </trkpt>
      <trkpt lat="48.1235" lon="6.52144">
        <ele>341.83</ele>
        <time>2021-06-23T11:07:56Z</time>
      </trkpt>
      <trkpt lat="48.12336" lon="6.52188">
        <ele>340.92</ele>
        <time>2021-06-23T11:07:59Z</time>
      </trkpt>
      <trkpt lat="48.12312" lon="6.52278">
        <ele>339.57</ele>
        <time>2021-06-23T11:08:01Z</time>
      </trkpt>
      <trkpt lat="48.12298" lon="6.52336">
        <ele>342.5</ele>
        <time>2021-06-23T11:08:04Z</time>
      </trkpt>
      <trkpt lat="48.12279" lon="6.52423">
        <ele>341.42</ele>
        <time>2021-06-23T11:08:06Z</time>
      </trkpt>
      <trkpt lat="48.12259" lon="6.52542">
        <ele>340.38</ele>
        <time>2021-06-23T11:08:08Z</time>
      </trkpt>
      <trkpt lat="48.12241" lon="6.5268">
        <ele>341.16</ele>
        <time>2021-06-23T11:08:11Z</time>
      </trkpt>
      <trkpt lat="48.12235" lon="6.52754">
        <ele>340.45</ele>
        <time>2021-06-23T11:08:13Z</time>
      </trkpt>
      <trkpt lat="48.12227" lon="6.52877">
        <ele>344.17</ele>
        <time>2021-06-23T11:08:16Z</time>
      </trkpt>
      <trkpt lat="48.12218" lon="6.52964">
        <ele>340.31</ele>
        <time>2021-06-23T11:08:18Z</time>
      </trkpt>
      <trkpt lat="48.12211" lon="6.53008">
        <ele>340.69</ele>
        <time>2021-06-23T11:08:21Z</time>
      </trkpt>
      <trkpt lat="48.122" lon="6.53057">
        <ele>341.81</ele>
        <time>2021-06-23T11:08:23Z</time>
      </trkpt>
      <trkpt lat="48.12189" lon="6.53094">
        <ele>342.74</ele>
        <time>2021-06-23T11:08:26Z</time>
      </trkpt>
      <trkpt lat="48.12174" lon="6.53139">
        <ele>344.51</ele>
        <time>2021-06-23T11:08:28Z</time>
      </trkpt>
      <trkpt lat="48.12152" lon="6.53188">
        <ele>343.76</ele>
        <time>2021-06-23T11:08:31Z</time>
      </trkpt>
      <trkpt lat="48.12122" lon="6.53243">
        <ele>343.15</ele>
        <time>2021-06-23T11:08:33Z</time>
      </trkpt>
      <trkpt lat="48.12096" lon="6.53283">
        <ele>341.54</ele>
        <time>2021-06-23T11:08:36Z</time>
      </trkpt>
      <trkpt lat="48.12068" lon="6.53318">
        <ele>342.45</ele>
        <time>2021-06-23T11:08:38Z</time>
      </trkpt>
      <trkpt lat="48.12004" lon="6.53387">
        <ele>343</ele>
        <time>2021-06-23T11:08:41Z</time>
      </trkpt>
      <trkpt lat="48.11787" lon="6.53591">
        <ele>342.15</ele>
        <time>2021-06-23T11:08:43Z</time>
      </trkpt>
      <trkpt lat="48.11758" lon="6.53621">
        <ele>342</ele>
        <time>2021-06-23T11:08:45Z</time>
      </trkpt>
      <trkpt lat="48.11705" lon="6.53684">
        <ele>343.64</ele>
        <time>2021-06-23T11:08:48Z</time>
      </trkpt>
      <trkpt lat="48.11679" lon="6.53722">
        <ele>344.58</ele>
        <time>2021-06-23T11:08:50Z</time>
      </trkpt>
      <trkpt lat="48.1166" lon="6.53754">
        <ele>346.37</ele>
        <time>2021-06-23T11:08:53Z</time>
      </trkpt>
      <trkpt lat="48.11641" lon="6.53793">
        <ele>348</ele>
        <time>2021-06-23T11:08:55Z</time>
      </trkpt>
      <trkpt lat="48.11622" lon="6.53837">
        <ele>346.23</ele>
        <time>2021-06-23T11:08:58Z</time>
      </trkpt>
      <trkpt lat="48.11605" lon="6.53884">
        <ele>345.42</ele>
        <time>2021-06-23T11:09:00Z</time>
      </trkpt>
      <trkpt lat="48.11593" lon="6.53921">
        <ele>345.84</ele>
        <time>2021-06-23T11:09:03Z</time>
      </trkpt>
      <trkpt lat="48.11588" lon="6.53943">
        <ele>345.72</ele>
        <time>2021-06-23T11:09:05Z</time>
      </trkpt>
      <trkpt lat="48.11588" lon="6.53943">
        <ele>345.72</ele>
        <time>2021-06-23T11:09:05Z</time>
      </trkpt>
      <trkpt lat="48.11575" lon="6.53999">
        <ele>345.6</ele>
        <time>2021-06-23T11:09:10Z</time>
      </trkpt>
      <trkpt lat="48.11564" lon="6.54077">
        <ele>345.4</ele>
        <time>2021-06-23T11:09:16Z</time>
      </trkpt>
      <trkpt lat="48.11561" lon="6.54114">
        <ele>345.82</ele>
        <time>2021-06-23T11:09:21Z</time>
      </trkpt>
      <trkpt lat="48.11558" lon="6.54199">
        <ele>347.72</ele>
        <time>2021-06-23T11:09:26Z</time>
      </trkpt>
      <trkpt lat="48.11558" lon="6.54269">
        <ele>346.09</ele>
        <time>2021-06-23T11:09:32Z</time>
      </trkpt>
      <trkpt lat="48.11564" lon="6.54935">
        <ele>352.66</ele>
        <time>2021-06-23T11:09:37Z</time>
      </trkpt>
      <trkpt lat="48.11566" lon="6.55229">
        <ele>356.91</ele>
        <time>2021-06-23T11:09:42Z</time>
      </trkpt>
      <trkpt lat="48.11562" lon="6.55317">
        <ele>354.75</ele>
        <time>2021-06-23T11:09:47Z</time>
      </trkpt>
      <trkpt lat="48.11553" lon="6.55404">
        <ele>356.57</ele>
        <time>2021-06-23T11:09:53Z</time>
      </trkpt>
      <trkpt lat="48.11535" lon="6.55511">
        <ele>357.76</ele>
        <time>2021-06-23T11:09:58Z</time>
      </trkpt>
      <trkpt lat="48.11524" lon="6.55564">
        <ele>356.9</ele>
        <time>2021-06-23T11:10:03Z</time>
      </trkpt>
      <trkpt lat="48.11512" lon="6.55608">
        <ele>356.63</ele>
        <time>2021-06-23T11:10:08Z</time>
      </trkpt>
      <trkpt lat="48.11476" lon="6.55719">
        <ele>357.02</ele>
        <time>2021-06-23T11:10:14Z</time>
      </trkpt>
      <trkpt lat="48.1145" lon="6.55785">
        <ele>358.6</ele>
        <time>2021-06-23T11:10:19Z</time>
      </trkpt>
      <trkpt lat="48.11229" lon="6.56315">
        <ele>352.75</ele>
        <time>2021-06-23T11:10:24Z</time>
      </trkpt>
      <trkpt lat="48.11085" lon="6.56668">
        <ele>354.93</ele>
        <time>2021-06-23T11:10:29Z</time>
      </trkpt>
      <trkpt lat="48.11059" lon="6.56759">
        <ele>352.79</ele>
        <time>2021-06-23T11:10:35Z</time>
      </trkpt>
      <trkpt lat="48.11045" lon="6.5682">
        <ele>353.14</ele>
        <time>2021-06-23T11:10:40Z</time>
      </trkpt>
      <trkpt lat="48.11034" lon="6.56856">
        <ele>353.23</ele>
        <time>2021-06-23T11:10:43Z</time>
      </trkpt>
      <trkpt lat="48.11026" lon="6.56905">
        <ele>352.06</ele>
        <time>2021-06-23T11:10:46Z</time>
      </trkpt>
      <trkpt lat="48.11005" lon="6.57075">
        <ele>356.13</ele>
        <time>2021-06-23T11:10:49Z</time>
      </trkpt>
      <trkpt lat="48.11002" lon="6.57117">
        <ele>357.06</ele>
        <time>2021-06-23T11:10:52Z</time>
      </trkpt>
      <trkpt lat="48.11003" lon="6.57127">
        <ele>357.11</ele>
        <time>2021-06-23T11:10:52Z</time>
      </trkpt>
      <trkpt lat="48.11" lon="6.57154">
        <ele>356.97</ele>
        <time>2021-06-23T11:10:53Z</time>
      </trkpt>
      <trkpt lat="48.10995" lon="6.57167">
        <ele>356.5</ele>
        <time>2021-06-23T11:10:54Z</time>
      </trkpt>
      <trkpt lat="48.10985" lon="6.57187">
        <ele>355.03</ele>
        <time>2021-06-23T11:10:55Z</time>
      </trkpt>
      <trkpt lat="48.10988" lon="6.57215">
        <ele>355.47</ele>
        <time>2021-06-23T11:10:58Z</time>
      </trkpt>
      <trkpt lat="48.10988" lon="6.57254">
        <ele>356.14</ele>
        <time>2021-06-23T11:11:02Z</time>
      </trkpt>
      <trkpt lat="48.10985" lon="6.57279">
        <ele>355.92</ele>
        <time>2021-06-23T11:11:05Z</time>
      </trkpt>
      <trkpt lat="48.10962" lon="6.57383">
        <ele>356.35</ele>
        <time>2021-06-23T11:11:09Z</time>
      </trkpt>
      <trkpt lat="48.10962" lon="6.57383">
        <ele>356.35</ele>
        <time>2021-06-23T11:11:09Z</time>
      </trkpt>
      <trkpt lat="48.10958" lon="6.57408">
        <ele>357.17</ele>
        <time>2021-06-23T11:11:10Z</time>
      </trkpt>
      <trkpt lat="48.10967" lon="6.57407">
        <ele>357.44</ele>
        <time>2021-06-23T11:11:13Z</time>
      </trkpt>
      <trkpt lat="48.10988" lon="6.57411">
        <ele>357.78</ele>
        <time>2021-06-23T11:11:15Z</time>
      </trkpt>
      <trkpt lat="48.1108" lon="6.57439">
        <ele>356.43</ele>
        <time>2021-06-23T11:11:18Z</time>
      </trkpt>
      <trkpt lat="48.11155" lon="6.57462">
        <ele>357.36</ele>
        <time>2021-06-23T11:11:20Z</time>
      </trkpt>
      <trkpt lat="48.1117" lon="6.57472">
        <ele>359.49</ele>
        <time>2021-06-23T11:11:23Z</time>
      </trkpt>
      <trkpt lat="48.11173" lon="6.57479">
        <ele>360.67</ele>
        <time>2021-06-23T11:11:26Z</time>
      </trkpt>
      <trkpt lat="48.11176" lon="6.57482">
        <ele>361.68</ele>
        <time>2021-06-23T11:11:28Z</time>
      </trkpt>
      <trkpt lat="48.11185" lon="6.57482">
        <ele>363.53</ele>
        <time>2021-06-23T11:11:31Z</time>
      </trkpt>
      <trkpt lat="48.11192" lon="6.57473">
        <ele>363.66</ele>
        <time>2021-06-23T11:11:34Z</time>
      </trkpt>
      <trkpt lat="48.11193" lon="6.57463">
        <ele>362.81</ele>
        <time>2021-06-23T11:11:36Z</time>
      </trkpt>
      <trkpt lat="48.11189" lon="6.57451">
        <ele>361.01</ele>
        <time>2021-06-23T11:11:39Z</time>
      </trkpt>
      <trkpt lat="48.11185" lon="6.57447">
        <ele>360.23</ele>
        <time>2021-06-23T11:11:42Z</time>
      </trkpt>
      <trkpt lat="48.11176" lon="6.57405">
        <ele>357.35</ele>
        <time>2021-06-23T11:11:44Z</time>
      </trkpt>
      <trkpt lat="48.11176" lon="6.57381">
        <ele>357</ele>
        <time>2021-06-23T11:11:47Z</time>
      </trkpt>
      <trkpt lat="48.11182" lon="6.57322">
        <ele>356.32</ele>
        <time>2021-06-23T11:11:50Z</time>
      </trkpt>
      <trkpt lat="48.11189" lon="6.57286">
        <ele>355.41</ele>
        <time>2021-06-23T11:11:52Z</time>
      </trkpt>
      <trkpt lat="48.11197" lon="6.57259">
        <ele>354.41</ele>
        <time>2021-06-23T11:11:55Z</time>
      </trkpt>
      <trkpt lat="48.1121" lon="6.57227">
        <ele>352.9</ele>
        <time>2021-06-23T11:11:58Z</time>
      </trkpt>
      <trkpt lat="48.11386" lon="6.56873">
        <ele>349.63</ele>
        <time>2021-06-23T11:12:00Z</time>
      </trkpt>
      <trkpt lat="48.11398" lon="6.56858">
        <ele>349.33</ele>
        <time>2021-06-23T11:12:03Z</time>
      </trkpt>
      <trkpt lat="48.11414" lon="6.56849">
        <ele>349.9</ele>
        <time>2021-06-23T11:12:06Z</time>
      </trkpt>
      <trkpt lat="48.11424" lon="6.56849">
        <ele>350.56</ele>
        <time>2021-06-23T11:12:08Z</time>
      </trkpt>
      <trkpt lat="48.11433" lon="6.56852">
        <ele>351.19</ele>
        <time>2021-06-23T11:12:11Z</time>
      </trkpt>
      <trkpt lat="48.11441" lon="6.56857">
        <ele>351.73</ele>
        <time>2021-06-23T11:12:14Z</time>
      </trkpt>
      <trkpt lat="48.1145" lon="6.56867">
        <ele>352.18</ele>
        <time>2021-06-23T11:12:16Z</time>
      </trkpt>
      <trkpt lat="48.11459" lon="6.56884">
        <ele>352.54</ele>
        <time>2021-06-23T11:12:19Z</time>
      </trkpt>
      <trkpt lat="48.11501" lon="6.56974">
        <ele>352.04</ele>
        <time>2021-06-23T11:12:22Z</time>
      </trkpt>
      <trkpt lat="48.11513" lon="6.56991">
        <ele>352.15</ele>
        <time>2021-06-23T11:12:24Z</time>
      </trkpt>
      <trkpt lat="48.11528" lon="6.57009">
        <ele>352.02</ele>
        <time>2021-06-23T11:12:27Z</time>
      </trkpt>
      <trkpt lat="48.11545" lon="6.57023">
        <ele>352.73</ele>
        <time>2021-06-23T11:12:30Z</time>
      </trkpt>
      <trkpt lat="48.11626" lon="6.5707">
        <ele>355.5</ele>
        <time>2021-06-23T11:12:32Z</time>
      </trkpt>
      <trkpt lat="48.11658" lon="6.57093">
        <ele>356.58</ele>
        <time>2021-06-23T11:12:35Z</time>
      </trkpt>
      <trkpt lat="48.1167" lon="6.57105">
        <ele>356.71</ele>
        <time>2021-06-23T11:12:38Z</time>
      </trkpt>
      <trkpt lat="48.11716" lon="6.57171">
        <ele>358.42</ele>
        <time>2021-06-23T11:12:40Z</time>
      </trkpt>
      <trkpt lat="48.11773" lon="6.57264">
        <ele>358.26</ele>
        <time>2021-06-23T11:12:43Z</time>
      </trkpt>
      <trkpt lat="48.11801" lon="6.57292">
        <ele>359.9</ele>
        <time>2021-06-23T11:12:46Z</time>
      </trkpt>
      <trkpt lat="48.11877" lon="6.57332">
        <ele>366.74</ele>
        <time>2021-06-23T11:12:48Z</time>
      </trkpt>
      <trkpt lat="48.11894" lon="6.57346">
        <ele>368.83</ele>
        <time>2021-06-23T11:12:51Z</time>
      </trkpt>
      <trkpt lat="48.11921" lon="6.57379">
        <ele>371.35</ele>
        <time>2021-06-23T11:12:54Z</time>
      </trkpt>
      <trkpt lat="48.11931" lon="6.57398">
        <ele>371.37</ele>
        <time>2021-06-23T11:12:56Z</time>
      </trkpt>
      <trkpt lat="48.11939" lon="6.57418">
        <ele>366.76</ele>
        <time>2021-06-23T11:12:59Z</time>
      </trkpt>
      <trkpt lat="48.11939" lon="6.57418">
        <ele>366.76</ele>
        <time>2021-06-23T11:12:59Z</time>
      </trkpt>
      <trkpt lat="48.12014" lon="6.57642">
        <ele>365.53</ele>
        <time>2021-06-23T11:13:04Z</time>
      </trkpt>
      <trkpt lat="48.12033" lon="6.57743">
        <ele>367.77</ele>
        <time>2021-06-23T11:13:09Z</time>
      </trkpt>
      <trkpt lat="48.12041" lon="6.57764">
        <ele>369.76</ele>
        <time>2021-06-23T11:13:14Z</time>
      </trkpt>
      <trkpt lat="48.12068" lon="6.57815">
        <ele>375.92</ele>
        <time>2021-06-23T11:13:18Z</time>
      </trkpt>
      <trkpt lat="48.121" lon="6.57865">
        <ele>377.24</ele>
        <time>2021-06-23T11:13:23Z</time>
      </trkpt>
      <trkpt lat="48.12117" lon="6.57895">
        <ele>375.24</ele>
        <time>2021-06-23T11:13:28Z</time>
      </trkpt>
      <trkpt lat="48.12125" lon="6.57913">
        <ele>374.35</ele>
        <time>2021-06-23T11:13:33Z</time>
      </trkpt>
      <trkpt lat="48.12146" lon="6.57967">
        <ele>376.09</ele>
        <time>2021-06-23T11:13:38Z</time>
      </trkpt>
      <trkpt lat="48.12163" lon="6.58025">
        <ele>374.73</ele>
        <time>2021-06-23T11:13:43Z</time>
      </trkpt>
      <trkpt lat="48.12255" lon="6.58371">
        <ele>370.4</ele>
        <time>2021-06-23T11:13:48Z</time>
      </trkpt>
      <trkpt lat="48.12268" lon="6.58418">
        <ele>369.52</ele>
        <time>2021-06-23T11:13:52Z</time>
      </trkpt>
      <trkpt lat="48.12278" lon="6.58442">
        <ele>368.4</ele>
        <time>2021-06-23T11:13:57Z</time>
      </trkpt>
      <trkpt lat="48.12291" lon="6.58469">
        <ele>369.31</ele>
        <time>2021-06-23T11:14:02Z</time>
      </trkpt>
      <trkpt lat="48.1232" lon="6.58508">
        <ele>371.19</ele>
        <time>2021-06-23T11:14:07Z</time>
      </trkpt>
      <trkpt lat="48.12333" lon="6.58523">
        <ele>371.83</ele>
        <time>2021-06-23T11:14:12Z</time>
      </trkpt>
      <trkpt lat="48.12348" lon="6.58535">
        <ele>372.44</ele>
        <time>2021-06-23T11:14:17Z</time>
      </trkpt>
      <trkpt lat="48.12381" lon="6.58554">
        <ele>377.26</ele>
        <time>2021-06-23T11:14:22Z</time>
      </trkpt>
      <trkpt lat="48.12498" lon="6.58616">
        <ele>386.49</ele>
        <time>2021-06-23T11:14:26Z</time>
      </trkpt>
      <trkpt lat="48.1253" lon="6.58637">
        <ele>385.14</ele>
        <time>2021-06-23T11:14:31Z</time>
      </trkpt>
      <trkpt lat="48.12548" lon="6.58661">
        <ele>382.45</ele>
        <time>2021-06-23T11:14:36Z</time>
      </trkpt>
      <trkpt lat="48.12561" lon="6.58684">
        <ele>383.08</ele>
        <time>2021-06-23T11:14:41Z</time>
      </trkpt>
      <trkpt lat="48.12574" lon="6.58719">
        <ele>385.67</ele>
        <time>2021-06-23T11:14:46Z</time>
      </trkpt>
      <trkpt lat="48.12586" lon="6.58776">
        <ele>386.56</ele>
        <time>2021-06-23T11:14:51Z</time>
      </trkpt>
      <trkpt lat="48.12614" lon="6.58947">
        <ele>375.94</ele>
        <time>2021-06-23T11:14:56Z</time>
      </trkpt>
      <trkpt lat="48.12621" lon="6.58983">
        <ele>374.38</ele>
        <time>2021-06-23T11:15:00Z</time>
      </trkpt>
      <trkpt lat="48.12634" lon="6.59022">
        <ele>374.09</ele>
        <time>2021-06-23T11:15:05Z</time>
      </trkpt>
      <trkpt lat="48.12657" lon="6.5907">
        <ele>374.82</ele>
        <time>2021-06-23T11:15:10Z</time>
      </trkpt>
      <trkpt lat="48.1271" lon="6.59171">
        <ele>370.61</ele>
        <time>2021-06-23T11:15:15Z</time>
      </trkpt>
      <trkpt lat="48.12991" lon="6.59663">
        <ele>366.14</ele>
        <time>2021-06-23T11:15:20Z</time>
      </trkpt>
      <trkpt lat="48.1302" lon="6.59702">
        <ele>366</ele>
        <time>2021-06-23T11:15:25Z</time>
      </trkpt>
      <trkpt lat="48.13056" lon="6.59738">
        <ele>365.58</ele>
        <time>2021-06-23T11:15:30Z</time>
      </trkpt>
      <trkpt lat="48.1312" lon="6.59795">
        <ele>366.33</ele>
        <time>2021-06-23T11:15:35Z</time>
      </trkpt>
      <trkpt lat="48.13203" lon="6.59865">
        <ele>369.19</ele>
        <time>2021-06-23T11:15:39Z</time>
      </trkpt>
      <trkpt lat="48.13574" lon="6.60185">
        <ele>370.78</ele>
        <time>2021-06-23T11:15:44Z</time>
      </trkpt>
      <trkpt lat="48.13671" lon="6.60271">
        <ele>370</ele>
        <time>2021-06-23T11:15:49Z</time>
      </trkpt>
      <trkpt lat="48.13745" lon="6.60332">
        <ele>371.81</ele>
        <time>2021-06-23T11:15:54Z</time>
      </trkpt>
      <trkpt lat="48.13797" lon="6.60367">
        <ele>370.85</ele>
        <time>2021-06-23T11:15:59Z</time>
      </trkpt>
      <trkpt lat="48.13819" lon="6.60385">
        <ele>370.56</ele>
        <time>2021-06-23T11:16:04Z</time>
      </trkpt>
      <trkpt lat="48.13828" lon="6.60387">
        <ele>370.8</ele>
        <time>2021-06-23T11:16:09Z</time>
      </trkpt>
      <trkpt lat="48.13833" lon="6.60386">
        <ele>370.98</ele>
        <time>2021-06-23T11:16:13Z</time>
      </trkpt>
      <trkpt lat="48.1392" lon="6.6031">
        <ele>374</ele>
        <time>2021-06-23T11:16:18Z</time>
      </trkpt>
      <trkpt lat="48.13952" lon="6.60274">
        <ele>373.77</ele>
        <time>2021-06-23T11:16:23Z</time>
      </trkpt>
      <trkpt lat="48.14042" lon="6.60158">
        <ele>375.49</ele>
        <time>2021-06-23T11:16:28Z</time>
      </trkpt>
      <trkpt lat="48.14052" lon="6.60147">
        <ele>375.14</ele>
        <time>2021-06-23T11:16:33Z</time>
      </trkpt>
      <trkpt lat="48.14146" lon="6.60119">
        <ele>378.84</ele>
        <time>2021-06-23T11:16:38Z</time>
      </trkpt>
      <trkpt lat="48.14201" lon="6.60104">
        <ele>386.62</ele>
        <time>2021-06-23T11:16:43Z</time>
      </trkpt>
      <trkpt lat="48.14262" lon="6.60082">
        <ele>390.83</ele>
        <time>2021-06-23T11:16:47Z</time>
      </trkpt>
      <trkpt lat="48.14274" lon="6.60129">
        <ele>393.51</ele>
        <time>2021-06-23T11:16:50Z</time>
      </trkpt>
      <trkpt lat="48.14278" lon="6.60164">
        <ele>395.84</ele>
        <time>2021-06-23T11:16:53Z</time>
      </trkpt>
      <trkpt lat="48.14279" lon="6.60224">
        <ele>397.19</ele>
        <time>2021-06-23T11:16:56Z</time>
      </trkpt>
      <trkpt lat="48.14282" lon="6.60252">
        <ele>397.61</ele>
        <time>2021-06-23T11:16:58Z</time>
      </trkpt>
      <trkpt lat="48.14293" lon="6.60283">
        <ele>398.39</ele>
        <time>2021-06-23T11:17:01Z</time>
      </trkpt>
      <trkpt lat="48.14352" lon="6.60397">
        <ele>400.63</ele>
        <time>2021-06-23T11:17:04Z</time>
      </trkpt>
      <trkpt lat="48.14368" lon="6.60439">
        <ele>402.25</ele>
        <time>2021-06-23T11:17:06Z</time>
      </trkpt>
      <trkpt lat="48.14377" lon="6.60453">
        <ele>403.74</ele>
        <time>2021-06-23T11:17:09Z</time>
      </trkpt>
      <trkpt lat="48.14398" lon="6.60493">
        <ele>405.77</ele>
        <time>2021-06-23T11:17:12Z</time>
      </trkpt>
      <trkpt lat="48.14424" lon="6.6053">
        <ele>407.52</ele>
        <time>2021-06-23T11:17:16Z</time>
      </trkpt>
      <trkpt lat="48.14552" lon="6.60693">
        <ele>405.57</ele>
        <time>2021-06-23T11:17:19Z</time>
      </trkpt>
      <trkpt lat="48.14595" lon="6.60775">
        <ele>404.48</ele>
        <time>2021-06-23T11:17:23Z</time>
      </trkpt>
      <trkpt lat="48.14627" lon="6.60878">
        <ele>404.77</ele>
        <time>2021-06-23T11:17:26Z</time>
      </trkpt>
      <trkpt lat="48.14638" lon="6.60966">
        <ele>401.67</ele>
        <time>2021-06-23T11:17:29Z</time>
      </trkpt>
      <trkpt lat="48.14639" lon="6.61154">
        <ele>391.92</ele>
        <time>2021-06-23T11:17:33Z</time>
      </trkpt>
      <trkpt lat="48.14648" lon="6.61213">
        <ele>394.6</ele>
        <time>2021-06-23T11:17:36Z</time>
      </trkpt>
      <trkpt lat="48.14664" lon="6.61275">
        <ele>395.85</ele>
        <time>2021-06-23T11:17:40Z</time>
      </trkpt>
      <trkpt lat="48.14676" lon="6.61306">
        <ele>394.99</ele>
        <time>2021-06-23T11:17:43Z</time>
      </trkpt>
      <trkpt lat="48.14693" lon="6.61342">
        <ele>393.01</ele>
        <time>2021-06-23T11:17:46Z</time>
      </trkpt>
      <trkpt lat="48.14729" lon="6.61394">
        <ele>391.24</ele>
        <time>2021-06-23T11:17:50Z</time>
      </trkpt>
      <trkpt lat="48.14761" lon="6.61428">
        <ele>389.55</ele>
        <time>2021-06-23T11:17:53Z</time>
      </trkpt>
      <trkpt lat="48.1483" lon="6.61486">
        <ele>385.35</ele>
        <time>2021-06-23T11:17:56Z</time>
      </trkpt>
      <trkpt lat="48.14858" lon="6.61512">
        <ele>382.69</ele>
        <time>2021-06-23T11:18:00Z</time>
      </trkpt>
      <trkpt lat="48.14907" lon="6.61573">
        <ele>377.16</ele>
        <time>2021-06-23T11:18:03Z</time>
      </trkpt>
      <trkpt lat="48.14937" lon="6.61626">
        <ele>378.78</ele>
        <time>2021-06-23T11:18:07Z</time>
      </trkpt>
      <trkpt lat="48.14952" lon="6.61659">
        <ele>380.08</ele>
        <time>2021-06-23T11:18:10Z</time>
      </trkpt>
      <trkpt lat="48.14974" lon="6.61716">
        <ele>381.28</ele>
        <time>2021-06-23T11:18:13Z</time>
      </trkpt>
      <trkpt lat="48.14989" lon="6.61763">
        <ele>383.96</ele>
        <time>2021-06-23T11:18:17Z</time>
      </trkpt>
      <trkpt lat="48.14999" lon="6.61812">
        <ele>383.41</ele>
        <time>2021-06-23T11:18:20Z</time>
      </trkpt>
      <trkpt lat="48.15019" lon="6.61925">
        <ele>384.1</ele>
        <time>2021-06-23T11:18:24Z</time>
      </trkpt>
      <trkpt lat="48.15031" lon="6.61971">
        <ele>385.55</ele>
        <time>2021-06-23T11:18:27Z</time>
      </trkpt>
      <trkpt lat="48.15046" lon="6.62017">
        <ele>385.82</ele>
        <time>2021-06-23T11:18:30Z</time>
      </trkpt>
      <trkpt lat="48.15085" lon="6.62119">
        <ele>391.84</ele>
        <time>2021-06-23T11:18:34Z</time>
      </trkpt>
      <trkpt lat="48.151" lon="6.62176">
        <ele>390.27</ele>
        <time>2021-06-23T11:18:37Z</time>
      </trkpt>
      <trkpt lat="48.15102" lon="6.62193">
        <ele>389.74</ele>
        <time>2021-06-23T11:18:40Z</time>
      </trkpt>
      <trkpt lat="48.15102" lon="6.62201">
        <ele>389.52</ele>
        <time>2021-06-23T11:18:44Z</time>
      </trkpt>
      <trkpt lat="48.15098" lon="6.62213">
        <ele>388.92</ele>
        <time>2021-06-23T11:18:44Z</time>
      </trkpt>
      <trkpt lat="48.15098" lon="6.62218">
        <ele>388.77</ele>
        <time>2021-06-23T11:18:44Z</time>
      </trkpt>
      <trkpt lat="48.15098" lon="6.62218">
        <ele>388.77</ele>
        <time>2021-06-23T11:18:44Z</time>
      </trkpt>
      <trkpt lat="48.15098" lon="6.62228">
        <ele>388.63</ele>
        <time>2021-06-23T11:18:49Z</time>
      </trkpt>
      <trkpt lat="48.151" lon="6.62241">
        <ele>388.95</ele>
        <time>2021-06-23T11:18:54Z</time>
      </trkpt>
      <trkpt lat="48.1509" lon="6.62284">
        <ele>386.41</ele>
        <time>2021-06-23T11:18:59Z</time>
      </trkpt>
      <trkpt lat="48.15084" lon="6.62302">
        <ele>385.07</ele>
        <time>2021-06-23T11:19:03Z</time>
      </trkpt>
      <trkpt lat="48.15076" lon="6.62324">
        <ele>383.7</ele>
        <time>2021-06-23T11:19:08Z</time>
      </trkpt>
      <trkpt lat="48.15065" lon="6.62352">
        <ele>382.01</ele>
        <time>2021-06-23T11:19:13Z</time>
      </trkpt>
      <trkpt lat="48.15052" lon="6.62376">
        <ele>380.94</ele>
        <time>2021-06-23T11:19:17Z</time>
      </trkpt>
      <trkpt lat="48.15029" lon="6.62411">
        <ele>381</ele>
        <time>2021-06-23T11:19:22Z</time>
      </trkpt>
      <trkpt lat="48.14957" lon="6.62489">
        <ele>382.88</ele>
        <time>2021-06-23T11:19:27Z</time>
      </trkpt>
      <trkpt lat="48.14806" lon="6.62641">
        <ele>395.08</ele>
        <time>2021-06-23T11:19:31Z</time>
      </trkpt>
      <trkpt lat="48.14722" lon="6.6273">
        <ele>397.56</ele>
        <time>2021-06-23T11:19:36Z</time>
      </trkpt>
      <trkpt lat="48.14615" lon="6.62835">
        <ele>402.97</ele>
        <time>2021-06-23T11:19:41Z</time>
      </trkpt>
      <trkpt lat="48.14546" lon="6.62913">
        <ele>404.83</ele>
        <time>2021-06-23T11:19:45Z</time>
      </trkpt>
      <trkpt lat="48.14481" lon="6.63">
        <ele>402.32</ele>
        <time>2021-06-23T11:19:50Z</time>
      </trkpt>
      <trkpt lat="48.14415" lon="6.63109">
        <ele>395.53</ele>
        <time>2021-06-23T11:19:55Z</time>
      </trkpt>
      <trkpt lat="48.14272" lon="6.63363">
        <ele>405.27</ele>
        <time>2021-06-23T11:20:00Z</time>
      </trkpt>
      <trkpt lat="48.14249" lon="6.63409">
        <ele>403.72</ele>
        <time>2021-06-23T11:20:04Z</time>
      </trkpt>
      <trkpt lat="48.14229" lon="6.63455">
        <ele>403.98</ele>
        <time>2021-06-23T11:20:09Z</time>
      </trkpt>
      <trkpt lat="48.14185" lon="6.63574">
        <ele>402.64</ele>
        <time>2021-06-23T11:20:14Z</time>
      </trkpt>
      <trkpt lat="48.14102" lon="6.63872">
        <ele>402.86</ele>
        <time>2021-06-23T11:20:18Z</time>
      </trkpt>
      <trkpt lat="48.14074" lon="6.64007">
        <ele>399.94</ele>
        <time>2021-06-23T11:20:23Z</time>
      </trkpt>
      <trkpt lat="48.14063" lon="6.64086">
        <ele>400.9</ele>
        <time>2021-06-23T11:20:28Z</time>
      </trkpt>
      <trkpt lat="48.14055" lon="6.64169">
        <ele>401.07</ele>
        <time>2021-06-23T11:20:32Z</time>
      </trkpt>
      <trkpt lat="48.14049" lon="6.64262">
        <ele>403.99</ele>
        <time>2021-06-23T11:20:37Z</time>
      </trkpt>
      <trkpt lat="48.14018" lon="6.64844">
        <ele>409.14</ele>
        <time>2021-06-23T11:20:42Z</time>
      </trkpt>
      <trkpt lat="48.14014" lon="6.64899">
        <ele>410.15</ele>
        <time>2021-06-23T11:20:47Z</time>
      </trkpt>
      <trkpt lat="48.14009" lon="6.64936">
        <ele>409.67</ele>
        <time>2021-06-23T11:20:51Z</time>
      </trkpt>
      <trkpt lat="48.13998" lon="6.64983">
        <ele>408.97</ele>
        <time>2021-06-23T11:20:56Z</time>
      </trkpt>
      <trkpt lat="48.13982" lon="6.65036">
        <ele>410.35</ele>
        <time>2021-06-23T11:21:01Z</time>
      </trkpt>
      <trkpt lat="48.13899" lon="6.65241">
        <ele>410.53</ele>
        <time>2021-06-23T11:21:05Z</time>
      </trkpt>
      <trkpt lat="48.13857" lon="6.65337">
        <ele>407.87</ele>
        <time>2021-06-23T11:21:10Z</time>
      </trkpt>
      <trkpt lat="48.13786" lon="6.65439">
        <ele>409.89</ele>
        <time>2021-06-23T11:21:15Z</time>
      </trkpt>
      <trkpt lat="48.13774" lon="6.65466">
        <ele>411.18</ele>
        <time>2021-06-23T11:21:19Z</time>
      </trkpt>
      <trkpt lat="48.13766" lon="6.65499">
        <ele>415.33</ele>
        <time>2021-06-23T11:21:24Z</time>
      </trkpt>
      <trkpt lat="48.13763" lon="6.65527">
        <ele>418.03</ele>
        <time>2021-06-23T11:21:29Z</time>
      </trkpt>
      <trkpt lat="48.13763" lon="6.65556">
        <ele>418.54</ele>
        <time>2021-06-23T11:21:34Z</time>
      </trkpt>
      <trkpt lat="48.13767" lon="6.65593">
        <ele>417.86</ele>
        <time>2021-06-23T11:21:38Z</time>
      </trkpt>
      <trkpt lat="48.13779" lon="6.65631">
        <ele>417.15</ele>
        <time>2021-06-23T11:21:43Z</time>
      </trkpt>
      <trkpt lat="48.13846" lon="6.65818">
        <ele>418.9</ele>
        <time>2021-06-23T11:21:48Z</time>
      </trkpt>
      <trkpt lat="48.13857" lon="6.65861">
        <ele>420.04</ele>
        <time>2021-06-23T11:21:52Z</time>
      </trkpt>
      <trkpt lat="48.13866" lon="6.65924">
        <ele>419.75</ele>
        <time>2021-06-23T11:21:57Z</time>
      </trkpt>
      <trkpt lat="48.13866" lon="6.66061">
        <ele>419.61</ele>
        <time>2021-06-23T11:22:02Z</time>
      </trkpt>
      <trkpt lat="48.1386" lon="6.66216">
        <ele>415.55</ele>
        <time>2021-06-23T11:22:06Z</time>
      </trkpt>
      <trkpt lat="48.13855" lon="6.66265">
        <ele>417.71</ele>
        <time>2021-06-23T11:22:11Z</time>
      </trkpt>
      <trkpt lat="48.13846" lon="6.66327">
        <ele>423</ele>
        <time>2021-06-23T11:22:16Z</time>
      </trkpt>
      <trkpt lat="48.1383" lon="6.66406">
        <ele>420.26</ele>
        <time>2021-06-23T11:22:20Z</time>
      </trkpt>
      <trkpt lat="48.13812" lon="6.66473">
        <ele>420.5</ele>
        <time>2021-06-23T11:22:25Z</time>
      </trkpt>
      <trkpt lat="48.13773" lon="6.66577">
        <ele>417.53</ele>
        <time>2021-06-23T11:22:30Z</time>
      </trkpt>
      <trkpt lat="48.13659" lon="6.66829">
        <ele>421.21</ele>
        <time>2021-06-23T11:22:35Z</time>
      </trkpt>
      <trkpt lat="48.13637" lon="6.66903">
        <ele>423.72</ele>
        <time>2021-06-23T11:22:39Z</time>
      </trkpt>
      <trkpt lat="48.13624" lon="6.66968">
        <ele>426.18</ele>
        <time>2021-06-23T11:22:44Z</time>
      </trkpt>
      <trkpt lat="48.13604" lon="6.67104">
        <ele>425.98</ele>
        <time>2021-06-23T11:22:49Z</time>
      </trkpt>
      <trkpt lat="48.13593" lon="6.67166">
        <ele>428.32</ele>
        <time>2021-06-23T11:22:53Z</time>
      </trkpt>
      <trkpt lat="48.1358" lon="6.67213">
        <ele>431.39</ele>
        <time>2021-06-23T11:22:58Z</time>
      </trkpt>
      <trkpt lat="48.13549" lon="6.67295">
        <ele>430.61</ele>
        <time>2021-06-23T11:23:03Z</time>
      </trkpt>
      <trkpt lat="48.13494" lon="6.67398">
        <ele>431.07</ele>
        <time>2021-06-23T11:23:07Z</time>
      </trkpt>
      <trkpt lat="48.13462" lon="6.67449">
        <ele>433.18</ele>
        <time>2021-06-23T11:23:12Z</time>
      </trkpt>
      <trkpt lat="48.13449" lon="6.67461">
        <ele>432.74</ele>
        <time>2021-06-23T11:23:17Z</time>
      </trkpt>
      <trkpt lat="48.13449" lon="6.67461">
        <ele>432.74</ele>
        <time>2021-06-23T11:23:17Z</time>
      </trkpt>
      <trkpt lat="48.13415" lon="6.67489">
        <ele>430.43</ele>
        <time>2021-06-23T11:23:21Z</time>
      </trkpt>
      <trkpt lat="48.1338" lon="6.67506">
        <ele>426.86</ele>
        <time>2021-06-23T11:23:26Z</time>
      </trkpt>
      <trkpt lat="48.13329" lon="6.6752">
        <ele>425.77</ele>
        <time>2021-06-23T11:23:31Z</time>
      </trkpt>
      <trkpt lat="48.13132" lon="6.6757">
        <ele>436.2</ele>
        <time>2021-06-23T11:23:35Z</time>
      </trkpt>
      <trkpt lat="48.131" lon="6.67591">
        <ele>436.02</ele>
        <time>2021-06-23T11:23:40Z</time>
      </trkpt>
      <trkpt lat="48.13064" lon="6.67614">
        <ele>435.49</ele>
        <time>2021-06-23T11:23:44Z</time>
      </trkpt>
      <trkpt lat="48.13044" lon="6.67621">
        <ele>435.43</ele>
        <time>2021-06-23T11:23:49Z</time>
      </trkpt>
      <trkpt lat="48.13008" lon="6.67626">
        <ele>435.47</ele>
        <time>2021-06-23T11:23:54Z</time>
      </trkpt>
      <trkpt lat="48.12938" lon="6.6762">
        <ele>437.25</ele>
        <time>2021-06-23T11:23:58Z</time>
      </trkpt>
      <trkpt lat="48.12853" lon="6.67621">
        <ele>435.26</ele>
        <time>2021-06-23T11:24:03Z</time>
      </trkpt>
      <trkpt lat="48.1278" lon="6.67649">
        <ele>437.41</ele>
        <time>2021-06-23T11:24:07Z</time>
      </trkpt>
      <trkpt lat="48.12726" lon="6.67679">
        <ele>438.32</ele>
        <time>2021-06-23T11:24:12Z</time>
      </trkpt>
      <trkpt lat="48.1264" lon="6.67733">
        <ele>443.36</ele>
        <time>2021-06-23T11:24:16Z</time>
      </trkpt>
      <trkpt lat="48.12596" lon="6.67758">
        <ele>447</ele>
        <time>2021-06-23T11:24:21Z</time>
      </trkpt>
      <trkpt lat="48.12431" lon="6.67863">
        <ele>451.98</ele>
        <time>2021-06-23T11:24:26Z</time>
      </trkpt>
      <trkpt lat="48.12417" lon="6.67868">
        <ele>453.21</ele>
        <time>2021-06-23T11:24:30Z</time>
      </trkpt>
      <trkpt lat="48.12406" lon="6.6787">
        <ele>454.17</ele>
        <time>2021-06-23T11:24:35Z</time>
      </trkpt>
      <trkpt lat="48.1231" lon="6.67836">
        <ele>455.98</ele>
        <time>2021-06-23T11:24:39Z</time>
      </trkpt>
      <trkpt lat="48.12287" lon="6.67832">
        <ele>456.54</ele>
        <time>2021-06-23T11:24:44Z</time>
      </trkpt>
      <trkpt lat="48.12277" lon="6.67833">
        <ele>457.06</ele>
        <time>2021-06-23T11:24:48Z</time>
      </trkpt>
      <trkpt lat="48.12263" lon="6.67839">
        <ele>458.37</ele>
        <time>2021-06-23T11:24:53Z</time>
      </trkpt>
      <trkpt lat="48.12182" lon="6.67901">
        <ele>457.57</ele>
        <time>2021-06-23T11:24:58Z</time>
      </trkpt>
      <trkpt lat="48.12167" lon="6.67909">
        <ele>456.77</ele>
        <time>2021-06-23T11:25:02Z</time>
      </trkpt>
      <trkpt lat="48.1215" lon="6.67912">
        <ele>456.83</ele>
        <time>2021-06-23T11:25:07Z</time>
      </trkpt>
      <trkpt lat="48.1213" lon="6.67906">
        <ele>456.92</ele>
        <time>2021-06-23T11:25:11Z</time>
      </trkpt>
      <trkpt lat="48.12105" lon="6.67893">
        <ele>457.19</ele>
        <time>2021-06-23T11:25:16Z</time>
      </trkpt>
      <trkpt lat="48.12098" lon="6.67894">
        <ele>457.25</ele>
        <time>2021-06-23T11:25:20Z</time>
      </trkpt>
      <trkpt lat="48.12087" lon="6.67907">
        <ele>458.21</ele>
        <time>2021-06-23T11:25:25Z</time>
      </trkpt>
      <trkpt lat="48.12067" lon="6.67936">
        <ele>459.11</ele>
        <time>2021-06-23T11:25:30Z</time>
      </trkpt>
      <trkpt lat="48.12004" lon="6.67971">
        <ele>457.76</ele>
        <time>2021-06-23T11:25:34Z</time>
      </trkpt>
      <trkpt lat="48.11983" lon="6.67978">
        <ele>459.08</ele>
        <time>2021-06-23T11:25:39Z</time>
      </trkpt>
      <trkpt lat="48.11893" lon="6.67998">
        <ele>466.46</ele>
        <time>2021-06-23T11:25:43Z</time>
      </trkpt>
      <trkpt lat="48.11878" lon="6.67998">
        <ele>466.41</ele>
        <time>2021-06-23T11:25:48Z</time>
      </trkpt>
      <trkpt lat="48.11837" lon="6.68007">
        <ele>468.23</ele>
        <time>2021-06-23T11:25:53Z</time>
      </trkpt>
      <trkpt lat="48.11827" lon="6.68012">
        <ele>470.41</ele>
        <time>2021-06-23T11:25:57Z</time>
      </trkpt>
      <trkpt lat="48.11819" lon="6.68013">
        <ele>471.73</ele>
        <time>2021-06-23T11:26:02Z</time>
      </trkpt>
      <trkpt lat="48.1175" lon="6.68025">
        <ele>474.36</ele>
        <time>2021-06-23T11:26:06Z</time>
      </trkpt>
      <trkpt lat="48.11723" lon="6.68025">
        <ele>476.12</ele>
        <time>2021-06-23T11:26:11Z</time>
      </trkpt>
      <trkpt lat="48.11692" lon="6.68013">
        <ele>476.39</ele>
        <time>2021-06-23T11:26:15Z</time>
      </trkpt>
      <trkpt lat="48.11674" lon="6.67999">
        <ele>478.52</ele>
        <time>2021-06-23T11:26:20Z</time>
      </trkpt>
      <trkpt lat="48.11621" lon="6.6794">
        <ele>480.19</ele>
        <time>2021-06-23T11:26:25Z</time>
      </trkpt>
      <trkpt lat="48.11589" lon="6.6791">
        <ele>483.01</ele>
        <time>2021-06-23T11:26:29Z</time>
      </trkpt>
      <trkpt lat="48.11562" lon="6.67902">
        <ele>485.84</ele>
        <time>2021-06-23T11:26:34Z</time>
      </trkpt>
      <trkpt lat="48.11542" lon="6.679">
        <ele>485.95</ele>
        <time>2021-06-23T11:26:38Z</time>
      </trkpt>
      <trkpt lat="48.1151" lon="6.67906">
        <ele>484.14</ele>
        <time>2021-06-23T11:26:43Z</time>
      </trkpt>
      <trkpt lat="48.11495" lon="6.67913">
        <ele>482.86</ele>
        <time>2021-06-23T11:26:47Z</time>
      </trkpt>
      <trkpt lat="48.1148" lon="6.67923">
        <ele>482.32</ele>
        <time>2021-06-23T11:26:52Z</time>
      </trkpt>
      <trkpt lat="48.11438" lon="6.67965">
        <ele>486.63</ele>
        <time>2021-06-23T11:26:57Z</time>
      </trkpt>
      <trkpt lat="48.1136" lon="6.68052">
        <ele>491.42</ele>
        <time>2021-06-23T11:27:01Z</time>
      </trkpt>
      <trkpt lat="48.11308" lon="6.68125">
        <ele>498.95</ele>
        <time>2021-06-23T11:27:06Z</time>
      </trkpt>
      <trkpt lat="48.11262" lon="6.6817">
        <ele>506.69</ele>
        <time>2021-06-23T11:27:10Z</time>
      </trkpt>
      <trkpt lat="48.112" lon="6.68221">
        <ele>516.7</ele>
        <time>2021-06-23T11:27:15Z</time>
      </trkpt>
      <trkpt lat="48.11135" lon="6.68268">
        <ele>521.12</ele>
        <time>2021-06-23T11:27:19Z</time>
      </trkpt>
      <trkpt lat="48.11063" lon="6.68311">
        <ele>525.7</ele>
        <time>2021-06-23T11:27:24Z</time>
      </trkpt>
      <trkpt lat="48.10994" lon="6.68364">
        <ele>528.22</ele>
        <time>2021-06-23T11:27:29Z</time>
      </trkpt>
      <trkpt lat="48.10938" lon="6.68438">
        <ele>535.06</ele>
        <time>2021-06-23T11:27:33Z</time>
      </trkpt>
      <trkpt lat="48.10909" lon="6.68485">
        <ele>541.3</ele>
        <time>2021-06-23T11:27:38Z</time>
      </trkpt>
      <trkpt lat="48.10909" lon="6.68485">
        <ele>541.3</ele>
        <time>2021-06-23T11:27:38Z</time>
      </trkpt>
      <trkpt lat="48.10891" lon="6.68519">
        <ele>542.42</ele>
        <time>2021-06-23T11:27:42Z</time>
      </trkpt>
      <trkpt lat="48.10873" lon="6.68563">
        <ele>546.24</ele>
        <time>2021-06-23T11:27:45Z</time>
      </trkpt>
      <trkpt lat="48.10823" lon="6.68713">
        <ele>555.57</ele>
        <time>2021-06-23T11:27:49Z</time>
      </trkpt>
      <trkpt lat="48.10772" lon="6.68838">
        <ele>561.56</ele>
        <time>2021-06-23T11:27:53Z</time>
      </trkpt>
      <trkpt lat="48.10716" lon="6.68914">
        <ele>563.3</ele>
        <time>2021-06-23T11:27:57Z</time>
      </trkpt>
      <trkpt lat="48.1069" lon="6.68963">
        <ele>570.27</ele>
        <time>2021-06-23T11:28:01Z</time>
      </trkpt>
      <trkpt lat="48.10673" lon="6.6901">
        <ele>571.12</ele>
        <time>2021-06-23T11:28:04Z</time>
      </trkpt>
      <trkpt lat="48.10654" lon="6.69103">
        <ele>575.68</ele>
        <time>2021-06-23T11:28:08Z</time>
      </trkpt>
      <trkpt lat="48.10649" lon="6.69117">
        <ele>576.11</ele>
        <time>2021-06-23T11:28:12Z</time>
      </trkpt>
      <trkpt lat="48.10632" lon="6.69139">
        <ele>576.03</ele>
        <time>2021-06-23T11:28:16Z</time>
      </trkpt>
      <trkpt lat="48.10608" lon="6.69165">
        <ele>578.3</ele>
        <time>2021-06-23T11:28:19Z</time>
      </trkpt>
      <trkpt lat="48.10567" lon="6.69203">
        <ele>579.87</ele>
        <time>2021-06-23T11:28:23Z</time>
      </trkpt>
      <trkpt lat="48.10509" lon="6.69271">
        <ele>582.08</ele>
        <time>2021-06-23T11:28:27Z</time>
      </trkpt>
      <trkpt lat="48.10487" lon="6.69302">
        <ele>582.96</ele>
        <time>2021-06-23T11:28:31Z</time>
      </trkpt>
      <trkpt lat="48.10469" lon="6.69333">
        <ele>583.66</ele>
        <time>2021-06-23T11:28:35Z</time>
      </trkpt>
      <trkpt lat="48.10454" lon="6.69375">
        <ele>585.04</ele>
        <time>2021-06-23T11:28:38Z</time>
      </trkpt>
      <trkpt lat="48.10448" lon="6.69413">
        <ele>592.3</ele>
        <time>2021-06-23T11:28:42Z</time>
      </trkpt>
      <trkpt lat="48.10439" lon="6.69448">
        <ele>594.6</ele>
        <time>2021-06-23T11:28:46Z</time>
      </trkpt>
      <trkpt lat="48.1041" lon="6.69532">
        <ele>598.23</ele>
        <time>2021-06-23T11:28:50Z</time>
      </trkpt>
      <trkpt lat="48.10397" lon="6.69564">
        <ele>599.72</ele>
        <time>2021-06-23T11:28:53Z</time>
      </trkpt>
      <trkpt lat="48.10388" lon="6.69581">
        <ele>600.96</ele>
        <time>2021-06-23T11:28:57Z</time>
      </trkpt>
      <trkpt lat="48.10344" lon="6.69644">
        <ele>600.17</ele>
        <time>2021-06-23T11:29:01Z</time>
      </trkpt>
      <trkpt lat="48.10319" lon="6.69705">
        <ele>600.2</ele>
        <time>2021-06-23T11:29:05Z</time>
      </trkpt>
      <trkpt lat="48.10295" lon="6.69781">
        <ele>602.6</ele>
        <time>2021-06-23T11:29:09Z</time>
      </trkpt>
      <trkpt lat="48.10285" lon="6.6981">
        <ele>602.28</ele>
        <time>2021-06-23T11:29:12Z</time>
      </trkpt>
      <trkpt lat="48.10277" lon="6.69866">
        <ele>602.06</ele>
        <time>2021-06-23T11:29:16Z</time>
      </trkpt>
      <trkpt lat="48.10275" lon="6.6991">
        <ele>601.78</ele>
        <time>2021-06-23T11:29:20Z</time>
      </trkpt>
      <trkpt lat="48.10277" lon="6.69945">
        <ele>601.74</ele>
        <time>2021-06-23T11:29:24Z</time>
      </trkpt>
      <trkpt lat="48.10281" lon="6.69988">
        <ele>601.85</ele>
        <time>2021-06-23T11:29:27Z</time>
      </trkpt>
      <trkpt lat="48.10288" lon="6.70015">
        <ele>602.97</ele>
        <time>2021-06-23T11:29:31Z</time>
      </trkpt>
      <trkpt lat="48.1031" lon="6.70124">
        <ele>608.79</ele>
        <time>2021-06-23T11:29:35Z</time>
      </trkpt>
      <trkpt lat="48.10312" lon="6.70142">
        <ele>609.81</ele>
        <time>2021-06-23T11:29:39Z</time>
      </trkpt>
      <trkpt lat="48.10312" lon="6.7017">
        <ele>610.76</ele>
        <time>2021-06-23T11:29:43Z</time>
      </trkpt>
      <trkpt lat="48.10305" lon="6.70197">
        <ele>613.32</ele>
        <time>2021-06-23T11:29:46Z</time>
      </trkpt>
      <trkpt lat="48.10295" lon="6.70222">
        <ele>615.45</ele>
        <time>2021-06-23T11:29:50Z</time>
      </trkpt>
      <trkpt lat="48.10281" lon="6.7024">
        <ele>616.59</ele>
        <time>2021-06-23T11:29:54Z</time>
      </trkpt>
      <trkpt lat="48.10267" lon="6.70251">
        <ele>616.59</ele>
        <time>2021-06-23T11:29:58Z</time>
      </trkpt>
      <trkpt lat="48.10243" lon="6.70264">
        <ele>616.21</ele>
        <time>2021-06-23T11:30:01Z</time>
      </trkpt>
      <trkpt lat="48.10192" lon="6.70278">
        <ele>617.11</ele>
        <time>2021-06-23T11:30:05Z</time>
      </trkpt>
      <trkpt lat="48.10171" lon="6.70291">
        <ele>619.21</ele>
        <time>2021-06-23T11:30:09Z</time>
      </trkpt>
      <trkpt lat="48.10155" lon="6.70306">
        <ele>619.77</ele>
        <time>2021-06-23T11:30:13Z</time>
      </trkpt>
      <trkpt lat="48.10125" lon="6.70342">
        <ele>618.1</ele>
        <time>2021-06-23T11:30:17Z</time>
      </trkpt>
      <trkpt lat="48.10001" lon="6.70516">
        <ele>632.34</ele>
        <time>2021-06-23T11:30:20Z</time>
      </trkpt>
      <trkpt lat="48.09989" lon="6.70543">
        <ele>631.58</ele>
        <time>2021-06-23T11:30:24Z</time>
      </trkpt>
      <trkpt lat="48.09978" lon="6.70576">
        <ele>631.55</ele>
        <time>2021-06-23T11:30:28Z</time>
      </trkpt>
      <trkpt lat="48.0994" lon="6.70772">
        <ele>646.84</ele>
        <time>2021-06-23T11:30:32Z</time>
      </trkpt>
      <trkpt lat="48.09925" lon="6.70861">
        <ele>646.11</ele>
        <time>2021-06-23T11:30:36Z</time>
      </trkpt>
      <trkpt lat="48.09915" lon="6.71049">
        <ele>655.13</ele>
        <time>2021-06-23T11:30:39Z</time>
      </trkpt>
      <trkpt lat="48.09905" lon="6.71111">
        <ele>659.54</ele>
        <time>2021-06-23T11:30:43Z</time>
      </trkpt>
      <trkpt lat="48.09889" lon="6.71172">
        <ele>661.06</ele>
        <time>2021-06-23T11:30:47Z</time>
      </trkpt>
      <trkpt lat="48.09867" lon="6.71238">
        <ele>658.67</ele>
        <time>2021-06-23T11:30:51Z</time>
      </trkpt>
      <trkpt lat="48.09832" lon="6.71316">
        <ele>656.95</ele>
        <time>2021-06-23T11:30:54Z</time>
      </trkpt>
      <trkpt lat="48.09788" lon="6.71402">
        <ele>660.01</ele>
        <time>2021-06-23T11:30:58Z</time>
      </trkpt>
      <trkpt lat="48.09772" lon="6.7144">
        <ele>664.01</ele>
        <time>2021-06-23T11:31:02Z</time>
      </trkpt>
      <trkpt lat="48.09745" lon="6.71492">
        <ele>669.15</ele>
        <time>2021-06-23T11:31:06Z</time>
      </trkpt>
      <trkpt lat="48.09718" lon="6.71537">
        <ele>676.21</ele>
        <time>2021-06-23T11:31:10Z</time>
      </trkpt>
      <trkpt lat="48.09676" lon="6.71601">
        <ele>679.41</ele>
        <time>2021-06-23T11:31:13Z</time>
      </trkpt>
      <trkpt lat="48.09667" lon="6.7161">
        <ele>678.93</ele>
        <time>2021-06-23T11:31:17Z</time>
      </trkpt>
      <trkpt lat="48.09645" lon="6.71622">
        <ele>678.23</ele>
        <time>2021-06-23T11:31:21Z</time>
      </trkpt>
      <trkpt lat="48.09629" lon="6.71625">
        <ele>677.27</ele>
        <time>2021-06-23T11:31:25Z</time>
      </trkpt>
      <trkpt lat="48.09593" lon="6.71627">
        <ele>675.21</ele>
        <time>2021-06-23T11:31:28Z</time>
      </trkpt>
      <trkpt lat="48.09561" lon="6.71637">
        <ele>674.25</ele>
        <time>2021-06-23T11:31:32Z</time>
      </trkpt>
      <trkpt lat="48.0955" lon="6.71643">
        <ele>674.18</ele>
        <time>2021-06-23T11:31:36Z</time>
      </trkpt>
      <trkpt lat="48.0952" lon="6.7167">
        <ele>673.93</ele>
        <time>2021-06-23T11:31:40Z</time>
      </trkpt>
      <trkpt lat="48.09501" lon="6.71697">
        <ele>671.4</ele>
        <time>2021-06-23T11:31:44Z</time>
      </trkpt>
      <trkpt lat="48.09493" lon="6.71715">
        <ele>672</ele>
        <time>2021-06-23T11:31:47Z</time>
      </trkpt>
      <trkpt lat="48.09461" lon="6.71807">
        <ele>672.57</ele>
        <time>2021-06-23T11:31:51Z</time>
      </trkpt>
      <trkpt lat="48.09456" lon="6.7185">
        <ele>673.68</ele>
        <time>2021-06-23T11:31:55Z</time>
      </trkpt>
      <trkpt lat="48.09456" lon="6.72032">
        <ele>674.53</ele>
        <time>2021-06-23T11:31:59Z</time>
      </trkpt>
      <trkpt lat="48.09459" lon="6.72099">
        <ele>677.69</ele>
        <time>2021-06-23T11:32:02Z</time>
      </trkpt>
      <trkpt lat="48.09473" lon="6.7217">
        <ele>678.73</ele>
        <time>2021-06-23T11:32:06Z</time>
      </trkpt>
      <trkpt lat="48.09478" lon="6.72208">
        <ele>675.65</ele>
        <time>2021-06-23T11:32:10Z</time>
      </trkpt>
      <trkpt lat="48.09474" lon="6.72326">
        <ele>664.75</ele>
        <time>2021-06-23T11:32:14Z</time>
      </trkpt>
      <trkpt lat="48.09474" lon="6.72455">
        <ele>661.56</ele>
        <time>2021-06-23T11:32:18Z</time>
      </trkpt>
      <trkpt lat="48.09471" lon="6.72503">
        <ele>660.43</ele>
        <time>2021-06-23T11:32:21Z</time>
      </trkpt>
      <trkpt lat="48.09466" lon="6.72536">
        <ele>657.54</ele>
        <time>2021-06-23T11:32:25Z</time>
      </trkpt>
      <trkpt lat="48.09451" lon="6.72593">
        <ele>655.09</ele>
        <time>2021-06-23T11:32:29Z</time>
      </trkpt>
      <trkpt lat="48.09387" lon="6.72795">
        <ele>648.53</ele>
        <time>2021-06-23T11:32:33Z</time>
      </trkpt>
      <trkpt lat="48.09375" lon="6.72814">
        <ele>648.99</ele>
        <time>2021-06-23T11:32:36Z</time>
      </trkpt>
      <trkpt lat="48.09363" lon="6.72831">
        <ele>649.05</ele>
        <time>2021-06-23T11:32:40Z</time>
      </trkpt>
      <trkpt lat="48.09339" lon="6.72858">
        <ele>650.08</ele>
        <time>2021-06-23T11:32:44Z</time>
      </trkpt>
      <trkpt lat="48.09312" lon="6.72877">
        <ele>648.14</ele>
        <time>2021-06-23T11:32:48Z</time>
      </trkpt>
      <trkpt lat="48.09286" lon="6.72894">
        <ele>646.07</ele>
        <time>2021-06-23T11:32:52Z</time>
      </trkpt>
      <trkpt lat="48.0922" lon="6.72919">
        <ele>640.68</ele>
        <time>2021-06-23T11:32:55Z</time>
      </trkpt>
      <trkpt lat="48.09141" lon="6.72993">
        <ele>631.82</ele>
        <time>2021-06-23T11:32:59Z</time>
      </trkpt>
      <trkpt lat="48.08969" lon="6.73117">
        <ele>627.07</ele>
        <time>2021-06-23T11:33:03Z</time>
      </trkpt>
      <trkpt lat="48.08951" lon="6.73134">
        <ele>626.83</ele>
        <time>2021-06-23T11:33:07Z</time>
      </trkpt>
      <trkpt lat="48.08857" lon="6.73237">
        <ele>614.4</ele>
        <time>2021-06-23T11:33:10Z</time>
      </trkpt>
      <trkpt lat="48.08834" lon="6.73256">
        <ele>614.86</ele>
        <time>2021-06-23T11:33:14Z</time>
      </trkpt>
      <trkpt lat="48.08791" lon="6.7328">
        <ele>609.76</ele>
        <time>2021-06-23T11:33:18Z</time>
      </trkpt>
      <trkpt lat="48.08773" lon="6.73298">
        <ele>608.17</ele>
        <time>2021-06-23T11:33:22Z</time>
      </trkpt>
      <trkpt lat="48.08762" lon="6.73312">
        <ele>607.99</ele>
        <time>2021-06-23T11:33:26Z</time>
      </trkpt>
      <trkpt lat="48.08687" lon="6.73422">
        <ele>600.8</ele>
        <time>2021-06-23T11:33:29Z</time>
      </trkpt>
      <trkpt lat="48.08548" lon="6.73614">
        <ele>613.65</ele>
        <time>2021-06-23T11:33:33Z</time>
      </trkpt>
      <trkpt lat="48.08486" lon="6.73712">
        <ele>613.08</ele>
        <time>2021-06-23T11:33:37Z</time>
      </trkpt>
      <trkpt lat="48.08455" lon="6.73776">
        <ele>612.09</ele>
        <time>2021-06-23T11:33:41Z</time>
      </trkpt>
      <trkpt lat="48.08431" lon="6.73833">
        <ele>608.58</ele>
        <time>2021-06-23T11:33:45Z</time>
      </trkpt>
      <trkpt lat="48.08357" lon="6.73966">
        <ele>601.8</ele>
        <time>2021-06-23T11:33:48Z</time>
      </trkpt>
      <trkpt lat="48.08324" lon="6.74029">
        <ele>598.17</ele>
        <time>2021-06-23T11:33:52Z</time>
      </trkpt>
      <trkpt lat="48.08279" lon="6.74187">
        <ele>601.82</ele>
        <time>2021-06-23T11:33:56Z</time>
      </trkpt>
      <trkpt lat="48.08267" lon="6.742">
        <ele>600.82</ele>
        <time>2021-06-23T11:34:00Z</time>
      </trkpt>
      <trkpt lat="48.08267" lon="6.742">
        <ele>600.82</ele>
        <time>2021-06-23T11:34:00Z</time>
      </trkpt>
      <trkpt lat="48.08245" lon="6.74227">
        <ele>599.46</ele>
        <time>2021-06-23T11:34:04Z</time>
      </trkpt>
      <trkpt lat="48.08242" lon="6.74242">
        <ele>598.27</ele>
        <time>2021-06-23T11:34:08Z</time>
      </trkpt>
      <trkpt lat="48.08239" lon="6.74294">
        <ele>595.31</ele>
        <time>2021-06-23T11:34:12Z</time>
      </trkpt>
      <trkpt lat="48.0824" lon="6.74325">
        <ele>593.91</ele>
        <time>2021-06-23T11:34:16Z</time>
      </trkpt>
      <trkpt lat="48.08241" lon="6.74333">
        <ele>593.79</ele>
        <time>2021-06-23T11:34:20Z</time>
      </trkpt>
      <trkpt lat="48.08247" lon="6.74352">
        <ele>593.34</ele>
        <time>2021-06-23T11:34:24Z</time>
      </trkpt>
      <trkpt lat="48.08282" lon="6.74433">
        <ele>593.48</ele>
        <time>2021-06-23T11:34:28Z</time>
      </trkpt>
      <trkpt lat="48.08288" lon="6.74457">
        <ele>592.27</ele>
        <time>2021-06-23T11:34:33Z</time>
      </trkpt>
      <trkpt lat="48.08296" lon="6.74559">
        <ele>583.75</ele>
        <time>2021-06-23T11:34:37Z</time>
      </trkpt>
      <trkpt lat="48.08296" lon="6.74577">
        <ele>583.32</ele>
        <time>2021-06-23T11:34:41Z</time>
      </trkpt>
      <trkpt lat="48.08292" lon="6.74606">
        <ele>582.44</ele>
        <time>2021-06-23T11:34:45Z</time>
      </trkpt>
      <trkpt lat="48.0826" lon="6.74759">
        <ele>577.63</ele>
        <time>2021-06-23T11:34:49Z</time>
      </trkpt>
      <trkpt lat="48.08227" lon="6.74877">
        <ele>572.69</ele>
        <time>2021-06-23T11:34:53Z</time>
      </trkpt>
      <trkpt lat="48.08219" lon="6.74914">
        <ele>571.81</ele>
        <time>2021-06-23T11:34:57Z</time>
      </trkpt>
      <trkpt lat="48.08213" lon="6.74946">
        <ele>570.91</ele>
        <time>2021-06-23T11:35:01Z</time>
      </trkpt>
      <trkpt lat="48.0821" lon="6.74969">
        <ele>570.49</ele>
        <time>2021-06-23T11:35:06Z</time>
      </trkpt>
      <trkpt lat="48.08211" lon="6.74993">
        <ele>570.98</ele>
        <time>2021-06-23T11:35:10Z</time>
      </trkpt>
      <trkpt lat="48.08216" lon="6.75022">
        <ele>572.4</ele>
        <time>2021-06-23T11:35:14Z</time>
      </trkpt>
      <trkpt lat="48.08234" lon="6.75078">
        <ele>571.52</ele>
        <time>2021-06-23T11:35:18Z</time>
      </trkpt>
      <trkpt lat="48.08238" lon="6.75101">
        <ele>570.16</ele>
        <time>2021-06-23T11:35:22Z</time>
      </trkpt>
      <trkpt lat="48.08252" lon="6.75208">
        <ele>565.1</ele>
        <time>2021-06-23T11:35:26Z</time>
      </trkpt>
      <trkpt lat="48.08243" lon="6.75232">
        <ele>562.49</ele>
        <time>2021-06-23T11:35:30Z</time>
      </trkpt>
      <trkpt lat="48.08268" lon="6.75282">
        <ele>567.95</ele>
        <time>2021-06-23T11:35:36Z</time>
      </trkpt>
      <trkpt lat="48.08287" lon="6.7533">
        <ele>571.95</ele>
        <time>2021-06-23T11:35:42Z</time>
      </trkpt>
      <trkpt lat="48.08306" lon="6.75387">
        <ele>573.13</ele>
        <time>2021-06-23T11:35:48Z</time>
      </trkpt>
      <trkpt lat="48.08373" lon="6.75692">
        <ele>578.76</ele>
        <time>2021-06-23T11:35:54Z</time>
      </trkpt>
      <trkpt lat="48.08382" lon="6.75777">
        <ele>582.36</ele>
        <time>2021-06-23T11:36:00Z</time>
      </trkpt>
      <trkpt lat="48.08387" lon="6.75809">
        <ele>581.4</ele>
        <time>2021-06-23T11:36:06Z</time>
      </trkpt>
      <trkpt lat="48.08399" lon="6.75859">
        <ele>582.72</ele>
        <time>2021-06-23T11:36:12Z</time>
      </trkpt>
      <trkpt lat="48.08408" lon="6.75887">
        <ele>584.86</ele>
        <time>2021-06-23T11:36:17Z</time>
      </trkpt>
      <trkpt lat="48.08421" lon="6.75919">
        <ele>586.88</ele>
        <time>2021-06-23T11:36:23Z</time>
      </trkpt>
      <trkpt lat="48.08434" lon="6.75958">
        <ele>587.67</ele>
        <time>2021-06-23T11:36:29Z</time>
      </trkpt>
      <trkpt lat="48.08445" lon="6.75996">
        <ele>588.33</ele>
        <time>2021-06-23T11:36:35Z</time>
      </trkpt>
      <trkpt lat="48.08453" lon="6.76038">
        <ele>583.77</ele>
        <time>2021-06-23T11:36:41Z</time>
      </trkpt>
      <trkpt lat="48.08456" lon="6.76066">
        <ele>580.26</ele>
        <time>2021-06-23T11:36:47Z</time>
      </trkpt>
      <trkpt lat="48.08461" lon="6.76161">
        <ele>578.46</ele>
        <time>2021-06-23T11:36:53Z</time>
      </trkpt>
      <trkpt lat="48.08465" lon="6.76216">
        <ele>578.64</ele>
        <time>2021-06-23T11:36:59Z</time>
      </trkpt>
      <trkpt lat="48.08468" lon="6.76232">
        <ele>578.43</ele>
        <time>2021-06-23T11:37:05Z</time>
      </trkpt>
      <trkpt lat="48.08479" lon="6.76275">
        <ele>578.49</ele>
        <time>2021-06-23T11:37:11Z</time>
      </trkpt>
      <trkpt lat="48.08514" lon="6.76392">
        <ele>577.02</ele>
        <time>2021-06-23T11:37:16Z</time>
      </trkpt>
      <trkpt lat="48.08521" lon="6.76428">
        <ele>577.48</ele>
        <time>2021-06-23T11:37:22Z</time>
      </trkpt>
      <trkpt lat="48.08524" lon="6.76472">
        <ele>576.88</ele>
        <time>2021-06-23T11:37:28Z</time>
      </trkpt>
      <trkpt lat="48.08524" lon="6.76526">
        <ele>577.79</ele>
        <time>2021-06-23T11:37:34Z</time>
      </trkpt>
      <trkpt lat="48.08519" lon="6.76615">
        <ele>579.26</ele>
        <time>2021-06-23T11:37:40Z</time>
      </trkpt>
      <trkpt lat="48.0852" lon="6.76665">
        <ele>581.36</ele>
        <time>2021-06-23T11:37:46Z</time>
      </trkpt>
      <trkpt lat="48.08525" lon="6.76772">
        <ele>579.2</ele>
        <time>2021-06-23T11:37:52Z</time>
      </trkpt>
      <trkpt lat="48.08524" lon="6.76819">
        <ele>580.47</ele>
        <time>2021-06-23T11:37:58Z</time>
      </trkpt>
      <trkpt lat="48.08521" lon="6.7685">
        <ele>581.15</ele>
        <time>2021-06-23T11:38:04Z</time>
      </trkpt>
      <trkpt lat="48.0851" lon="6.76934">
        <ele>581.61</ele>
        <time>2021-06-23T11:38:10Z</time>
      </trkpt>
      <trkpt lat="48.08509" lon="6.76971">
        <ele>581.97</ele>
        <time>2021-06-23T11:38:15Z</time>
      </trkpt>
      <trkpt lat="48.08513" lon="6.7711">
        <ele>584.45</ele>
        <time>2021-06-23T11:38:21Z</time>
      </trkpt>
      <trkpt lat="48.08511" lon="6.77143">
        <ele>583.41</ele>
        <time>2021-06-23T11:38:27Z</time>
      </trkpt>
      <trkpt lat="48.08508" lon="6.77165">
        <ele>583.3</ele>
        <time>2021-06-23T11:38:33Z</time>
      </trkpt>
      <trkpt lat="48.08499" lon="6.77208">
        <ele>584.52</ele>
        <time>2021-06-23T11:38:39Z</time>
      </trkpt>
      <trkpt lat="48.08486" lon="6.77242">
        <ele>585</ele>
        <time>2021-06-23T11:38:45Z</time>
      </trkpt>
      <trkpt lat="48.08467" lon="6.77279">
        <ele>585.39</ele>
        <time>2021-06-23T11:38:51Z</time>
      </trkpt>
      <trkpt lat="48.08444" lon="6.77312">
        <ele>587.75</ele>
        <time>2021-06-23T11:38:57Z</time>
      </trkpt>
      <trkpt lat="48.08183" lon="6.77551">
        <ele>588.27</ele>
        <time>2021-06-23T11:39:03Z</time>
      </trkpt>
      <trkpt lat="48.08148" lon="6.77588">
        <ele>588.18</ele>
        <time>2021-06-23T11:39:09Z</time>
      </trkpt>
      <trkpt lat="48.08102" lon="6.77652">
        <ele>587.85</ele>
        <time>2021-06-23T11:39:14Z</time>
      </trkpt>
      <trkpt lat="48.08087" lon="6.77677">
        <ele>586.8</ele>
        <time>2021-06-23T11:39:20Z</time>
      </trkpt>
      <trkpt lat="48.08068" lon="6.77712">
        <ele>586.84</ele>
        <time>2021-06-23T11:39:26Z</time>
      </trkpt>
      <trkpt lat="48.0804" lon="6.77776">
        <ele>588.49</ele>
        <time>2021-06-23T11:39:32Z</time>
      </trkpt>
      <trkpt lat="48.0802" lon="6.77846">
        <ele>592</ele>
        <time>2021-06-23T11:39:38Z</time>
      </trkpt>
      <trkpt lat="48.07998" lon="6.77936">
        <ele>592.48</ele>
        <time>2021-06-23T11:39:44Z</time>
      </trkpt>
      <trkpt lat="48.07798" lon="6.79207">
        <ele>599.96</ele>
        <time>2021-06-23T11:39:50Z</time>
      </trkpt>
      <trkpt lat="48.07787" lon="6.79296">
        <ele>605.74</ele>
        <time>2021-06-23T11:39:56Z</time>
      </trkpt>
      <trkpt lat="48.07783" lon="6.79341">
        <ele>606.94</ele>
        <time>2021-06-23T11:40:02Z</time>
      </trkpt>
      <trkpt lat="48.07783" lon="6.79434">
        <ele>607.83</ele>
        <time>2021-06-23T11:40:08Z</time>
      </trkpt>
      <trkpt lat="48.07796" lon="6.79623">
        <ele>615.46</ele>
        <time>2021-06-23T11:40:13Z</time>
      </trkpt>
      <trkpt lat="48.07798" lon="6.79656">
        <ele>616.08</ele>
        <time>2021-06-23T11:40:19Z</time>
      </trkpt>
      <trkpt lat="48.07797" lon="6.7969">
        <ele>616.42</ele>
        <time>2021-06-23T11:40:25Z</time>
      </trkpt>
      <trkpt lat="48.07795" lon="6.79719">
        <ele>618.03</ele>
        <time>2021-06-23T11:40:31Z</time>
      </trkpt>
      <trkpt lat="48.07705" lon="6.8043">
        <ele>624.15</ele>
        <time>2021-06-23T11:40:37Z</time>
      </trkpt>
      <trkpt lat="48.0768" lon="6.80534">
        <ele>621.77</ele>
        <time>2021-06-23T11:40:43Z</time>
      </trkpt>
      <trkpt lat="48.07575" lon="6.80744">
        <ele>622.24</ele>
        <time>2021-06-23T11:40:49Z</time>
      </trkpt>
      <trkpt lat="48.07562" lon="6.80777">
        <ele>622.19</ele>
        <time>2021-06-23T11:40:55Z</time>
      </trkpt>
      <trkpt lat="48.07546" lon="6.80823">
        <ele>621.4</ele>
        <time>2021-06-23T11:41:01Z</time>
      </trkpt>
      <trkpt lat="48.07534" lon="6.80883">
        <ele>621.95</ele>
        <time>2021-06-23T11:41:07Z</time>
      </trkpt>
      <trkpt lat="48.0753" lon="6.80917">
        <ele>621.07</ele>
        <time>2021-06-23T11:41:12Z</time>
      </trkpt>
      <trkpt lat="48.07526" lon="6.80988">
        <ele>620.09</ele>
        <time>2021-06-23T11:41:18Z</time>
      </trkpt>
      <trkpt lat="48.07522" lon="6.81118">
        <ele>623.41</ele>
        <time>2021-06-23T11:41:24Z</time>
      </trkpt>
      <trkpt lat="48.07515" lon="6.81186">
        <ele>623.69</ele>
        <time>2021-06-23T11:41:30Z</time>
      </trkpt>
      <trkpt lat="48.07506" lon="6.8123">
        <ele>621.11</ele>
        <time>2021-06-23T11:41:36Z</time>
      </trkpt>
      <trkpt lat="48.07492" lon="6.81276">
        <ele>620.12</ele>
        <time>2021-06-23T11:41:42Z</time>
      </trkpt>
      <trkpt lat="48.07468" lon="6.81336">
        <ele>620.13</ele>
        <time>2021-06-23T11:41:48Z</time>
      </trkpt>
      <trkpt lat="48.07428" lon="6.81424">
        <ele>620.48</ele>
        <time>2021-06-23T11:41:54Z</time>
      </trkpt>
      <trkpt lat="48.07416" lon="6.81455">
        <ele>618.74</ele>
        <time>2021-06-23T11:42:00Z</time>
      </trkpt>
      <trkpt lat="48.07367" lon="6.8156">
        <ele>622.03</ele>
        <time>2021-06-23T11:42:06Z</time>
      </trkpt>
      <trkpt lat="48.07265" lon="6.8179">
        <ele>631.21</ele>
        <time>2021-06-23T11:42:11Z</time>
      </trkpt>
      <trkpt lat="48.07259" lon="6.81809">
        <ele>631.8</ele>
        <time>2021-06-23T11:42:17Z</time>
      </trkpt>
      <trkpt lat="48.07257" lon="6.81828">
        <ele>632.29</ele>
        <time>2021-06-23T11:42:23Z</time>
      </trkpt>
      <trkpt lat="48.07258" lon="6.81862">
        <ele>633.88</ele>
        <time>2021-06-23T11:42:29Z</time>
      </trkpt>
      <trkpt lat="48.07302" lon="6.82065">
        <ele>641.75</ele>
        <time>2021-06-23T11:42:35Z</time>
      </trkpt>
      <trkpt lat="48.07321" lon="6.82147">
        <ele>644.78</ele>
        <time>2021-06-23T11:42:41Z</time>
      </trkpt>
      <trkpt lat="48.0733" lon="6.82183">
        <ele>646.04</ele>
        <time>2021-06-23T11:42:47Z</time>
      </trkpt>
      <trkpt lat="48.07347" lon="6.82236">
        <ele>647</ele>
        <time>2021-06-23T11:42:53Z</time>
      </trkpt>
      <trkpt lat="48.07354" lon="6.82263">
        <ele>648</ele>
        <time>2021-06-23T11:42:59Z</time>
      </trkpt>
      <trkpt lat="48.0736" lon="6.8229">
        <ele>649.66</ele>
        <time>2021-06-23T11:43:05Z</time>
      </trkpt>
      <trkpt lat="48.07361" lon="6.82314">
        <ele>651</ele>
        <time>2021-06-23T11:43:10Z</time>
      </trkpt>
      <trkpt lat="48.07357" lon="6.82365">
        <ele>651.44</ele>
        <time>2021-06-23T11:43:16Z</time>
      </trkpt>
      <trkpt lat="48.07338" lon="6.82511">
        <ele>654.41</ele>
        <time>2021-06-23T11:43:22Z</time>
      </trkpt>
      <trkpt lat="48.07305" lon="6.82838">
        <ele>659.98</ele>
        <time>2021-06-23T11:43:28Z</time>
      </trkpt>
      <trkpt lat="48.07304" lon="6.82881">
        <ele>659.81</ele>
        <time>2021-06-23T11:43:34Z</time>
      </trkpt>
      <trkpt lat="48.07306" lon="6.82921">
        <ele>659.84</ele>
        <time>2021-06-23T11:43:40Z</time>
      </trkpt>
      <trkpt lat="48.07339" lon="6.83174">
        <ele>661.04</ele>
        <time>2021-06-23T11:43:46Z</time>
      </trkpt>
      <trkpt lat="48.07347" lon="6.83215">
        <ele>662.88</ele>
        <time>2021-06-23T11:43:52Z</time>
      </trkpt>
      <trkpt lat="48.07373" lon="6.83322">
        <ele>665.58</ele>
        <time>2021-06-23T11:43:58Z</time>
      </trkpt>
      <trkpt lat="48.07384" lon="6.8339">
        <ele>668.83</ele>
        <time>2021-06-23T11:44:04Z</time>
      </trkpt>
      <trkpt lat="48.07386" lon="6.83431">
        <ele>669.86</ele>
        <time>2021-06-23T11:44:09Z</time>
      </trkpt>
      <trkpt lat="48.07385" lon="6.83468">
        <ele>671.46</ele>
        <time>2021-06-23T11:44:15Z</time>
      </trkpt>
      <trkpt lat="48.07383" lon="6.835">
        <ele>675.34</ele>
        <time>2021-06-23T11:44:21Z</time>
      </trkpt>
      <trkpt lat="48.07373" lon="6.83562">
        <ele>679.19</ele>
        <time>2021-06-23T11:44:27Z</time>
      </trkpt>
      <trkpt lat="48.07319" lon="6.83811">
        <ele>682.1</ele>
        <time>2021-06-23T11:44:33Z</time>
      </trkpt>
      <trkpt lat="48.07302" lon="6.83867">
        <ele>683.36</ele>
        <time>2021-06-23T11:44:39Z</time>
      </trkpt>
      <trkpt lat="48.0728" lon="6.83902">
        <ele>679</ele>
        <time>2021-06-23T11:44:45Z</time>
      </trkpt>
      <trkpt lat="48.07268" lon="6.83916">
        <ele>676.89</ele>
        <time>2021-06-23T11:44:51Z</time>
      </trkpt>
      <trkpt lat="48.07258" lon="6.83917">
        <ele>674.78</ele>
        <time>2021-06-23T11:44:55Z</time>
      </trkpt>
      <trkpt lat="48.07252" lon="6.83922">
        <ele>673.21</ele>
        <time>2021-06-23T11:45:00Z</time>
      </trkpt>
      <trkpt lat="48.07246" lon="6.83932">
        <ele>671.91</ele>
        <time>2021-06-23T11:45:05Z</time>
      </trkpt>
      <trkpt lat="48.07244" lon="6.83947">
        <ele>671.23</ele>
        <time>2021-06-23T11:45:09Z</time>
      </trkpt>
      <trkpt lat="48.07247" lon="6.8396">
        <ele>672.03</ele>
        <time>2021-06-23T11:45:14Z</time>
      </trkpt>
      <trkpt lat="48.07255" lon="6.8397">
        <ele>674.24</ele>
        <time>2021-06-23T11:45:19Z</time>
      </trkpt>
      <trkpt lat="48.07257" lon="6.83988">
        <ele>676.5</ele>
        <time>2021-06-23T11:45:23Z</time>
      </trkpt>
      <trkpt lat="48.07257" lon="6.84009">
        <ele>678.17</ele>
        <time>2021-06-23T11:45:28Z</time>
      </trkpt>
      <trkpt lat="48.0726" lon="6.84021">
        <ele>679.6</ele>
        <time>2021-06-23T11:45:33Z</time>
      </trkpt>
      <trkpt lat="48.07256" lon="6.84096">
        <ele>683.74</ele>
        <time>2021-06-23T11:45:37Z</time>
      </trkpt>
      <trkpt lat="48.07238" lon="6.84239">
        <ele>677.99</ele>
        <time>2021-06-23T11:45:42Z</time>
      </trkpt>
      <trkpt lat="48.07238" lon="6.84274">
        <ele>680.16</ele>
        <time>2021-06-23T11:45:47Z</time>
      </trkpt>
      <trkpt lat="48.07286" lon="6.84541">
        <ele>676.51</ele>
        <time>2021-06-23T11:45:51Z</time>
      </trkpt>
      <trkpt lat="48.07289" lon="6.84573">
        <ele>673.36</ele>
        <time>2021-06-23T11:45:56Z</time>
      </trkpt>
      <trkpt lat="48.0729" lon="6.84601">
        <ele>671.4</ele>
        <time>2021-06-23T11:46:01Z</time>
      </trkpt>
      <trkpt lat="48.07276" lon="6.84786">
        <ele>671.39</ele>
        <time>2021-06-23T11:46:05Z</time>
      </trkpt>
      <trkpt lat="48.07269" lon="6.84827">
        <ele>669.54</ele>
        <time>2021-06-23T11:46:10Z</time>
      </trkpt>
      <trkpt lat="48.07253" lon="6.84888">
        <ele>670.13</ele>
        <time>2021-06-23T11:46:15Z</time>
      </trkpt>
      <trkpt lat="48.07249" lon="6.84925">
        <ele>671.36</ele>
        <time>2021-06-23T11:46:19Z</time>
      </trkpt>
      <trkpt lat="48.07234" lon="6.85123">
        <ele>669.04</ele>
        <time>2021-06-23T11:46:24Z</time>
      </trkpt>
      <trkpt lat="48.0723" lon="6.85199">
        <ele>665.06</ele>
        <time>2021-06-23T11:46:29Z</time>
      </trkpt>
      <trkpt lat="48.07231" lon="6.85436">
        <ele>663.91</ele>
        <time>2021-06-23T11:46:33Z</time>
      </trkpt>
      <trkpt lat="48.07231" lon="6.85472">
        <ele>664.29</ele>
        <time>2021-06-23T11:46:38Z</time>
      </trkpt>
      <trkpt lat="48.07238" lon="6.85576">
        <ele>664.77</ele>
        <time>2021-06-23T11:46:42Z</time>
      </trkpt>
      <trkpt lat="48.07253" lon="6.85708">
        <ele>664.47</ele>
        <time>2021-06-23T11:46:47Z</time>
      </trkpt>
      <trkpt lat="48.07267" lon="6.8592">
        <ele>662</ele>
        <time>2021-06-23T11:46:52Z</time>
      </trkpt>
      <trkpt lat="48.07267" lon="6.8604">
        <ele>662.91</ele>
        <time>2021-06-23T11:46:56Z</time>
      </trkpt>
      <trkpt lat="48.07263" lon="6.86069">
        <ele>663.67</ele>
        <time>2021-06-23T11:47:01Z</time>
      </trkpt>
      <trkpt lat="48.07253" lon="6.86119">
        <ele>663.81</ele>
        <time>2021-06-23T11:47:06Z</time>
      </trkpt>
      <trkpt lat="48.07232" lon="6.86202">
        <ele>662.43</ele>
        <time>2021-06-23T11:47:10Z</time>
      </trkpt>
      <trkpt lat="48.0721" lon="6.8628">
        <ele>662.16</ele>
        <time>2021-06-23T11:47:15Z</time>
      </trkpt>
      <trkpt lat="48.072" lon="6.86325">
        <ele>662.77</ele>
        <time>2021-06-23T11:47:20Z</time>
      </trkpt>
      <trkpt lat="48.07193" lon="6.86365">
        <ele>663.21</ele>
        <time>2021-06-23T11:47:24Z</time>
      </trkpt>
      <trkpt lat="48.07188" lon="6.86407">
        <ele>664.6</ele>
        <time>2021-06-23T11:47:29Z</time>
      </trkpt>
      <trkpt lat="48.07163" lon="6.86671">
        <ele>660.87</ele>
        <time>2021-06-23T11:47:34Z</time>
      </trkpt>
      <trkpt lat="48.07159" lon="6.867">
        <ele>660.78</ele>
        <time>2021-06-23T11:47:38Z</time>
      </trkpt>
      <trkpt lat="48.07153" lon="6.86719">
        <ele>660.95</ele>
        <time>2021-06-23T11:47:43Z</time>
      </trkpt>
      <trkpt lat="48.0715" lon="6.86722">
        <ele>660.99</ele>
        <time>2021-06-23T11:47:43Z</time>
      </trkpt>
      <trkpt lat="48.0715" lon="6.86722">
        <ele>660.99</ele>
        <time>2021-06-23T11:47:43Z</time>
      </trkpt>
      <trkpt lat="48.07146" lon="6.86727">
        <ele>661.04</ele>
        <time>2021-06-23T11:47:55Z</time>
      </trkpt>
      <trkpt lat="48.07142" lon="6.86742">
        <ele>661.08</ele>
        <time>2021-06-23T11:48:08Z</time>
      </trkpt>
      <trkpt lat="48.07144" lon="6.86755">
        <ele>661.36</ele>
        <time>2021-06-23T11:48:20Z</time>
      </trkpt>
      <trkpt lat="48.07149" lon="6.86762">
        <ele>661.79</ele>
        <time>2021-06-23T11:48:32Z</time>
      </trkpt>
      <trkpt lat="48.07157" lon="6.86767">
        <ele>662.27</ele>
        <time>2021-06-23T11:48:44Z</time>
      </trkpt>
      <trkpt lat="48.07167" lon="6.86763">
        <ele>662.49</ele>
        <time>2021-06-23T11:48:56Z</time>
      </trkpt>
      <trkpt lat="48.0718" lon="6.86776">
        <ele>662.97</ele>
        <time>2021-06-23T11:49:08Z</time>
      </trkpt>
      <trkpt lat="48.07286" lon="6.87015">
        <ele>662.87</ele>
        <time>2021-06-23T11:49:20Z</time>
      </trkpt>
      <trkpt lat="48.0744" lon="6.87337">
        <ele>660.66</ele>
        <time>2021-06-23T11:49:33Z</time>
      </trkpt>
      <trkpt lat="48.07691" lon="6.87822">
        <ele>655.95</ele>
        <time>2021-06-23T11:49:45Z</time>
      </trkpt>
      <trkpt lat="48.07761" lon="6.87966">
        <ele>656.29</ele>
        <time>2021-06-23T11:49:57Z</time>
      </trkpt>
      <trkpt lat="48.07799" lon="6.88049">
        <ele>655.14</ele>
        <time>2021-06-23T11:50:09Z</time>
      </trkpt>
      <trkpt lat="48.07799" lon="6.88049">
        <ele>655.14</ele>
        <time>2021-06-23T11:50:09Z</time>
      </trkpt>
      <trkpt lat="48.07826" lon="6.88108">
        <ele>654.96</ele>
        <time>2021-06-23T11:50:15Z</time>
      </trkpt>
      <trkpt lat="48.07849" lon="6.88167">
        <ele>653.51</ele>
        <time>2021-06-23T11:50:21Z</time>
      </trkpt>
      <trkpt lat="48.07858" lon="6.88199">
        <ele>652.72</ele>
        <time>2021-06-23T11:50:27Z</time>
      </trkpt>
      <trkpt lat="48.07864" lon="6.88238">
        <ele>652.57</ele>
        <time>2021-06-23T11:50:32Z</time>
      </trkpt>
      <trkpt lat="48.07866" lon="6.88289">
        <ele>649.89</ele>
        <time>2021-06-23T11:50:38Z</time>
      </trkpt>
      <trkpt lat="48.07864" lon="6.88326">
        <ele>648.43</ele>
        <time>2021-06-23T11:50:44Z</time>
      </trkpt>
      <trkpt lat="48.07853" lon="6.8838">
        <ele>649.96</ele>
        <time>2021-06-23T11:50:50Z</time>
      </trkpt>
      <trkpt lat="48.0778" lon="6.88597">
        <ele>654.39</ele>
        <time>2021-06-23T11:50:56Z</time>
      </trkpt>
      <trkpt lat="48.07767" lon="6.88632">
        <ele>655.84</ele>
        <time>2021-06-23T11:51:02Z</time>
      </trkpt>
      <trkpt lat="48.07754" lon="6.88647">
        <ele>656.3</ele>
        <time>2021-06-23T11:51:08Z</time>
      </trkpt>
      <trkpt lat="48.07751" lon="6.88647">
        <ele>656.28</ele>
        <time>2021-06-23T11:51:09Z</time>
      </trkpt>
      <trkpt lat="48.07745" lon="6.8865">
        <ele>656.22</ele>
        <time>2021-06-23T11:51:11Z</time>
      </trkpt>
      <trkpt lat="48.07742" lon="6.88655">
        <ele>656.28</ele>
        <time>2021-06-23T11:51:13Z</time>
      </trkpt>
      <trkpt lat="48.07741" lon="6.88665">
        <ele>656.61</ele>
        <time>2021-06-23T11:51:15Z</time>
      </trkpt>
      <trkpt lat="48.07743" lon="6.88673">
        <ele>657.02</ele>
        <time>2021-06-23T11:51:16Z</time>
      </trkpt>
      <trkpt lat="48.0775" lon="6.88678">
        <ele>657.41</ele>
        <time>2021-06-23T11:51:18Z</time>
      </trkpt>
      <trkpt lat="48.07759" lon="6.88699">
        <ele>657.76</ele>
        <time>2021-06-23T11:51:20Z</time>
      </trkpt>
      <trkpt lat="48.07766" lon="6.88723">
        <ele>657.33</ele>
        <time>2021-06-23T11:51:22Z</time>
      </trkpt>
      <trkpt lat="48.07785" lon="6.88802">
        <ele>658.1</ele>
        <time>2021-06-23T11:51:23Z</time>
      </trkpt>
      <trkpt lat="48.07789" lon="6.88826">
        <ele>658.51</ele>
        <time>2021-06-23T11:51:25Z</time>
      </trkpt>
      <trkpt lat="48.07788" lon="6.88834">
        <ele>658.91</ele>
        <time>2021-06-23T11:51:33Z</time>
      </trkpt>
      <trkpt lat="48.07792" lon="6.88845">
        <ele>659.09</ele>
        <time>2021-06-23T11:51:40Z</time>
      </trkpt>
      <trkpt lat="48.07795" lon="6.88848">
        <ele>659.01</ele>
        <time>2021-06-23T11:51:48Z</time>
      </trkpt>
      <trkpt lat="48.07809" lon="6.88871">
        <ele>659.51</ele>
        <time>2021-06-23T11:51:55Z</time>
      </trkpt>
      <trkpt lat="48.07875" lon="6.89032">
        <ele>666.31</ele>
        <time>2021-06-23T11:52:03Z</time>
      </trkpt>
      <trkpt lat="48.07905" lon="6.8912">
        <ele>668.6</ele>
        <time>2021-06-23T11:52:10Z</time>
      </trkpt>
      <trkpt lat="48.07955" lon="6.8929">
        <ele>668.55</ele>
        <time>2021-06-23T11:52:18Z</time>
      </trkpt>
      <trkpt lat="48.0798" lon="6.89365">
        <ele>666.16</ele>
        <time>2021-06-23T11:52:25Z</time>
      </trkpt>
      <trkpt lat="48.08087" lon="6.89667">
        <ele>668.86</ele>
        <time>2021-06-23T11:52:33Z</time>
      </trkpt>
      <trkpt lat="48.08113" lon="6.89737">
        <ele>670.39</ele>
        <time>2021-06-23T11:52:40Z</time>
      </trkpt>
      <trkpt lat="48.08174" lon="6.89901">
        <ele>669</ele>
        <time>2021-06-23T11:52:47Z</time>
      </trkpt>
      <trkpt lat="48.08272" lon="6.9011">
        <ele>675.79</ele>
        <time>2021-06-23T11:52:55Z</time>
      </trkpt>
      <trkpt lat="48.08283" lon="6.90135">
        <ele>674.95</ele>
        <time>2021-06-23T11:53:02Z</time>
      </trkpt>
      <trkpt lat="48.08293" lon="6.90164">
        <ele>674.94</ele>
        <time>2021-06-23T11:53:10Z</time>
      </trkpt>
      <trkpt lat="48.08301" lon="6.90196">
        <ele>676.18</ele>
        <time>2021-06-23T11:53:17Z</time>
      </trkpt>
      <trkpt lat="48.08306" lon="6.90233">
        <ele>676</ele>
        <time>2021-06-23T11:53:25Z</time>
      </trkpt>
      <trkpt lat="48.08304" lon="6.90292">
        <ele>674.57</ele>
        <time>2021-06-23T11:53:32Z</time>
      </trkpt>
      <trkpt lat="48.08303" lon="6.90301">
        <ele>674.31</ele>
        <time>2021-06-23T11:53:40Z</time>
      </trkpt>
      <trkpt lat="48.08301" lon="6.90308">
        <ele>674.26</ele>
        <time>2021-06-23T11:53:43Z</time>
      </trkpt>
      <trkpt lat="48.08301" lon="6.90317">
        <ele>674.57</ele>
        <time>2021-06-23T11:53:45Z</time>
      </trkpt>
      <trkpt lat="48.08306" lon="6.90327">
        <ele>674.77</ele>
        <time>2021-06-23T11:53:48Z</time>
      </trkpt>
      <trkpt lat="48.08312" lon="6.90331">
        <ele>674.91</ele>
        <time>2021-06-23T11:53:51Z</time>
      </trkpt>
      <trkpt lat="48.08318" lon="6.90349">
        <ele>675.32</ele>
        <time>2021-06-23T11:53:54Z</time>
      </trkpt>
      <trkpt lat="48.0832" lon="6.90378">
        <ele>677.01</ele>
        <time>2021-06-23T11:53:56Z</time>
      </trkpt>
      <trkpt lat="48.0833" lon="6.90463">
        <ele>683.38</ele>
        <time>2021-06-23T11:53:59Z</time>
      </trkpt>
      <trkpt lat="48.08341" lon="6.90579">
        <ele>686.76</ele>
        <time>2021-06-23T11:54:02Z</time>
      </trkpt>
      <trkpt lat="48.08342" lon="6.90619">
        <ele>686.88</ele>
        <time>2021-06-23T11:54:05Z</time>
      </trkpt>
      <trkpt lat="48.08339" lon="6.90662">
        <ele>688.28</ele>
        <time>2021-06-23T11:54:07Z</time>
      </trkpt>
      <trkpt lat="48.08317" lon="6.90782">
        <ele>693.74</ele>
        <time>2021-06-23T11:54:10Z</time>
      </trkpt>
      <trkpt lat="48.08316" lon="6.90823">
        <ele>693.39</ele>
        <time>2021-06-23T11:54:13Z</time>
      </trkpt>
      <trkpt lat="48.08317" lon="6.90845">
        <ele>691.74</ele>
        <time>2021-06-23T11:54:16Z</time>
      </trkpt>
      <trkpt lat="48.08322" lon="6.90869">
        <ele>690.13</ele>
        <time>2021-06-23T11:54:18Z</time>
      </trkpt>
      <trkpt lat="48.08331" lon="6.90897">
        <ele>688.75</ele>
        <time>2021-06-23T11:54:21Z</time>
      </trkpt>
      <trkpt lat="48.08342" lon="6.9092">
        <ele>687.96</ele>
        <time>2021-06-23T11:54:24Z</time>
      </trkpt>
      <trkpt lat="48.08364" lon="6.90953">
        <ele>690.31</ele>
        <time>2021-06-23T11:54:27Z</time>
      </trkpt>
      <trkpt lat="48.0838" lon="6.90968">
        <ele>693.66</ele>
        <time>2021-06-23T11:54:29Z</time>
      </trkpt>
      <trkpt lat="48.08399" lon="6.90981">
        <ele>696.77</ele>
        <time>2021-06-23T11:54:32Z</time>
      </trkpt>
      <trkpt lat="48.08421" lon="6.9099">
        <ele>696.06</ele>
        <time>2021-06-23T11:54:35Z</time>
      </trkpt>
      <trkpt lat="48.08467" lon="6.90995">
        <ele>692.32</ele>
        <time>2021-06-23T11:54:38Z</time>
      </trkpt>
      <trkpt lat="48.08474" lon="6.91004">
        <ele>693.34</ele>
        <time>2021-06-23T11:54:40Z</time>
      </trkpt>
      <trkpt lat="48.08477" lon="6.91013">
        <ele>694.09</ele>
        <time>2021-06-23T11:54:45Z</time>
      </trkpt>
      <trkpt lat="48.0848" lon="6.91017">
        <ele>694.95</ele>
        <time>2021-06-23T11:54:50Z</time>
      </trkpt>
      <trkpt lat="48.08486" lon="6.91077">
        <ele>703.46</ele>
        <time>2021-06-23T11:54:55Z</time>
      </trkpt>
      <trkpt lat="48.08484" lon="6.91126">
        <ele>705.27</ele>
        <time>2021-06-23T11:55:00Z</time>
      </trkpt>
      <trkpt lat="48.08479" lon="6.91158">
        <ele>706.53</ele>
        <time>2021-06-23T11:55:04Z</time>
      </trkpt>
      <trkpt lat="48.08451" lon="6.91251">
        <ele>705.41</ele>
        <time>2021-06-23T11:55:09Z</time>
      </trkpt>
      <trkpt lat="48.08419" lon="6.91389">
        <ele>705.56</ele>
        <time>2021-06-23T11:55:14Z</time>
      </trkpt>
      <trkpt lat="48.08411" lon="6.91448">
        <ele>706.06</ele>
        <time>2021-06-23T11:55:19Z</time>
      </trkpt>
      <trkpt lat="48.08401" lon="6.91553">
        <ele>710.58</ele>
        <time>2021-06-23T11:55:24Z</time>
      </trkpt>
      <trkpt lat="48.08389" lon="6.91645">
        <ele>709.99</ele>
        <time>2021-06-23T11:55:28Z</time>
      </trkpt>
      <trkpt lat="48.08369" lon="6.91717">
        <ele>714.53</ele>
        <time>2021-06-23T11:55:33Z</time>
      </trkpt>
      <trkpt lat="48.08362" lon="6.9175">
        <ele>715.12</ele>
        <time>2021-06-23T11:55:38Z</time>
      </trkpt>
      <trkpt lat="48.08356" lon="6.91795">
        <ele>712.71</ele>
        <time>2021-06-23T11:55:43Z</time>
      </trkpt>
      <trkpt lat="48.08351" lon="6.91858">
        <ele>709.28</ele>
        <time>2021-06-23T11:55:48Z</time>
      </trkpt>
      <trkpt lat="48.08337" lon="6.92132">
        <ele>716.33</ele>
        <time>2021-06-23T11:55:53Z</time>
      </trkpt>
      <trkpt lat="48.08332" lon="6.9217">
        <ele>715.84</ele>
        <time>2021-06-23T11:55:57Z</time>
      </trkpt>
      <trkpt lat="48.08312" lon="6.92284">
        <ele>711.41</ele>
        <time>2021-06-23T11:56:02Z</time>
      </trkpt>
      <trkpt lat="48.08304" lon="6.92343">
        <ele>713.32</ele>
        <time>2021-06-23T11:56:07Z</time>
      </trkpt>
      <trkpt lat="48.08303" lon="6.92397">
        <ele>714.92</ele>
        <time>2021-06-23T11:56:12Z</time>
      </trkpt>
      <trkpt lat="48.08305" lon="6.92417">
        <ele>714.97</ele>
        <time>2021-06-23T11:56:17Z</time>
      </trkpt>
      <trkpt lat="48.08312" lon="6.92452">
        <ele>715.09</ele>
        <time>2021-06-23T11:56:21Z</time>
      </trkpt>
      <trkpt lat="48.08322" lon="6.92488">
        <ele>716.48</ele>
        <time>2021-06-23T11:56:26Z</time>
      </trkpt>
      <trkpt lat="48.08365" lon="6.92602">
        <ele>720.9</ele>
        <time>2021-06-23T11:56:31Z</time>
      </trkpt>
      <trkpt lat="48.08377" lon="6.92651">
        <ele>721.84</ele>
        <time>2021-06-23T11:56:36Z</time>
      </trkpt>
      <trkpt lat="48.08385" lon="6.92705">
        <ele>723.7</ele>
        <time>2021-06-23T11:56:41Z</time>
      </trkpt>
      <trkpt lat="48.0839" lon="6.92817">
        <ele>723.16</ele>
        <time>2021-06-23T11:56:45Z</time>
      </trkpt>
      <trkpt lat="48.084" lon="6.92817">
        <ele>724.36</ele>
        <time>2021-06-23T11:56:47Z</time>
      </trkpt>
      <trkpt lat="48.08401" lon="6.92822">
        <ele>724.52</ele>
        <time>2021-06-23T11:56:56Z</time>
      </trkpt>
      <trkpt lat="48.08413" lon="6.92921">
        <ele>728.52</ele>
        <time>2021-06-23T11:57:05Z</time>
      </trkpt>
      <trkpt lat="48.08417" lon="6.93018">
        <ele>730.35</ele>
        <time>2021-06-23T11:57:14Z</time>
      </trkpt>
      <trkpt lat="48.08424" lon="6.93163">
        <ele>739.1</ele>
        <time>2021-06-23T11:57:23Z</time>
      </trkpt>
      <trkpt lat="48.08432" lon="6.9319">
        <ele>740.89</ele>
        <time>2021-06-23T11:57:32Z</time>
      </trkpt>
      <trkpt lat="48.08459" lon="6.93237">
        <ele>745.28</ele>
        <time>2021-06-23T11:57:41Z</time>
      </trkpt>
      <trkpt lat="48.08464" lon="6.93229">
        <ele>747.2</ele>
        <time>2021-06-23T11:57:45Z</time>
      </trkpt>
      <trkpt lat="48.08469" lon="6.93217">
        <ele>749.15</ele>
        <time>2021-06-23T11:57:49Z</time>
      </trkpt>
      <trkpt lat="48.08479" lon="6.93149">
        <ele>752.07</ele>
        <time>2021-06-23T11:57:53Z</time>
      </trkpt>
    </trkseg>
  </trk>
  <trk>
    <name><![CDATA[2021-06-14_09-11_Mon]]></name>
    <extensions>
      <line xmlns="http://www.topografix.com/GPX/gpx_style/0/2">
        <color>804040</color>
        <width>4</width>
      </line>
    </extensions>
    <trkseg>
      <trkpt lat="48.08619" lon="6.92554">
        <ele>753.75</ele>
        <time>2021-06-23T09:37:53Z</time>
      </trkpt>
      <trkpt lat="48.08619" lon="6.92554">
        <ele>753.75</ele>
        <time>2021-06-23T09:37:53Z</time>
      </trkpt>
      <trkpt lat="48.08609" lon="6.92541">
        <ele>752.4</ele>
        <time>2021-06-23T09:37:57Z</time>
      </trkpt>
      <trkpt lat="48.08589" lon="6.92528">
        <ele>747.19</ele>
        <time>2021-06-23T09:38:00Z</time>
      </trkpt>
      <trkpt lat="48.08555" lon="6.92534">
        <ele>743.43</ele>
        <time>2021-06-23T09:38:04Z</time>
      </trkpt>
      <trkpt lat="48.08482" lon="6.92561">
        <ele>739.02</ele>
        <time>2021-06-23T09:38:07Z</time>
      </trkpt>
      <trkpt lat="48.08473" lon="6.92568">
        <ele>738.06</ele>
        <time>2021-06-23T09:38:11Z</time>
      </trkpt>
      <trkpt lat="48.08462" lon="6.92582">
        <ele>736.5</ele>
        <time>2021-06-23T09:38:15Z</time>
      </trkpt>
      <trkpt lat="48.08458" lon="6.9259">
        <ele>735.16</ele>
        <time>2021-06-23T09:38:18Z</time>
      </trkpt>
      <trkpt lat="48.08457" lon="6.92599">
        <ele>733.86</ele>
        <time>2021-06-23T09:38:22Z</time>
      </trkpt>
      <trkpt lat="48.08459" lon="6.9261">
        <ele>732.73</ele>
        <time>2021-06-23T09:38:25Z</time>
      </trkpt>
      <trkpt lat="48.08476" lon="6.9263">
        <ele>732.3</ele>
        <time>2021-06-23T09:38:29Z</time>
      </trkpt>
      <trkpt lat="48.08479" lon="6.92636">
        <ele>731.81</ele>
        <time>2021-06-23T09:38:33Z</time>
      </trkpt>
      <trkpt lat="48.0848" lon="6.92644">
        <ele>731.57</ele>
        <time>2021-06-23T09:38:36Z</time>
      </trkpt>
      <trkpt lat="48.08478" lon="6.92652">
        <ele>731.41</ele>
        <time>2021-06-23T09:38:40Z</time>
      </trkpt>
      <trkpt lat="48.08474" lon="6.92658">
        <ele>731.13</ele>
        <time>2021-06-23T09:38:43Z</time>
      </trkpt>
      <trkpt lat="48.08468" lon="6.92661">
        <ele>730.8</ele>
        <time>2021-06-23T09:38:47Z</time>
      </trkpt>
      <trkpt lat="48.08433" lon="6.92655">
        <ele>728.55</ele>
        <time>2021-06-23T09:38:51Z</time>
      </trkpt>
      <trkpt lat="48.08377" lon="6.92651">
        <ele>721.84</ele>
        <time>2021-06-23T09:38:54Z</time>
      </trkpt>
      <trkpt lat="48.08385" lon="6.92705">
        <ele>723.7</ele>
        <time>2021-06-23T09:39:02Z</time>
      </trkpt>
      <trkpt lat="48.0839" lon="6.92817">
        <ele>723.16</ele>
        <time>2021-06-23T09:39:09Z</time>
      </trkpt>
      <trkpt lat="48.08396" lon="6.9288">
        <ele>724.47</ele>
        <time>2021-06-23T09:39:17Z</time>
      </trkpt>
      <trkpt lat="48.08399" lon="6.92929">
        <ele>725.7</ele>
        <time>2021-06-23T09:39:24Z</time>
      </trkpt>
      <trkpt lat="48.08399" lon="6.92975">
        <ele>726.57</ele>
        <time>2021-06-23T09:39:32Z</time>
      </trkpt>
      <trkpt lat="48.08392" lon="6.93125">
        <ele>730.16</ele>
        <time>2021-06-23T09:39:39Z</time>
      </trkpt>
      <trkpt lat="48.08385" lon="6.93246">
        <ele>728.67</ele>
        <time>2021-06-23T09:39:47Z</time>
      </trkpt>
      <trkpt lat="48.08541" lon="6.93476">
        <ele>739.65</ele>
        <time>2021-06-23T09:39:50Z</time>
      </trkpt>
      <trkpt lat="48.08642" lon="6.93649">
        <ele>745.92</ele>
        <time>2021-06-23T09:39:53Z</time>
      </trkpt>
      <trkpt lat="48.08649" lon="6.93666">
        <ele>746.16</ele>
        <time>2021-06-23T09:39:56Z</time>
      </trkpt>
      <trkpt lat="48.08711" lon="6.9383">
        <ele>749.32</ele>
        <time>2021-06-23T09:39:59Z</time>
      </trkpt>
      <trkpt lat="48.08723" lon="6.93853">
        <ele>751.39</ele>
        <time>2021-06-23T09:40:01Z</time>
      </trkpt>
      <trkpt lat="48.08747" lon="6.9389">
        <ele>753.5</ele>
        <time>2021-06-23T09:40:04Z</time>
      </trkpt>
      <trkpt lat="48.08757" lon="6.93909">
        <ele>753.91</ele>
        <time>2021-06-23T09:40:07Z</time>
      </trkpt>
      <trkpt lat="48.08762" lon="6.93927">
        <ele>754.12</ele>
        <time>2021-06-23T09:40:10Z</time>
      </trkpt>
      <trkpt lat="48.08767" lon="6.93967">
        <ele>755.93</ele>
        <time>2021-06-23T09:40:13Z</time>
      </trkpt>
      <trkpt lat="48.08774" lon="6.93988">
        <ele>757.93</ele>
        <time>2021-06-23T09:40:16Z</time>
      </trkpt>
      <trkpt lat="48.08839" lon="6.94074">
        <ele>764.33</ele>
        <time>2021-06-23T09:40:19Z</time>
      </trkpt>
      <trkpt lat="48.08845" lon="6.94083">
        <ele>765.11</ele>
        <time>2021-06-23T09:40:22Z</time>
      </trkpt>
      <trkpt lat="48.08848" lon="6.94093">
        <ele>765.88</ele>
        <time>2021-06-23T09:40:25Z</time>
      </trkpt>
      <trkpt lat="48.0885" lon="6.9411">
        <ele>766.62</ele>
        <time>2021-06-23T09:40:28Z</time>
      </trkpt>
      <trkpt lat="48.08849" lon="6.94124">
        <ele>766.33</ele>
        <time>2021-06-23T09:40:31Z</time>
      </trkpt>
      <trkpt lat="48.08837" lon="6.94172">
        <ele>764.6</ele>
        <time>2021-06-23T09:40:34Z</time>
      </trkpt>
      <trkpt lat="48.08835" lon="6.94183">
        <ele>764.38</ele>
        <time>2021-06-23T09:40:36Z</time>
      </trkpt>
      <trkpt lat="48.08838" lon="6.94207">
        <ele>764.86</ele>
        <time>2021-06-23T09:40:39Z</time>
      </trkpt>
      <trkpt lat="48.08862" lon="6.94266">
        <ele>770.25</ele>
        <time>2021-06-23T09:40:42Z</time>
      </trkpt>
      <trkpt lat="48.08882" lon="6.94306">
        <ele>771.97</ele>
        <time>2021-06-23T09:40:45Z</time>
      </trkpt>
      <trkpt lat="48.08898" lon="6.94317">
        <ele>772.8</ele>
        <time>2021-06-23T09:40:48Z</time>
      </trkpt>
      <trkpt lat="48.08923" lon="6.94323">
        <ele>774.81</ele>
        <time>2021-06-23T09:40:51Z</time>
      </trkpt>
      <trkpt lat="48.08933" lon="6.94335">
        <ele>775.88</ele>
        <time>2021-06-23T09:40:54Z</time>
      </trkpt>
      <trkpt lat="48.08935" lon="6.94343">
        <ele>776.14</ele>
        <time>2021-06-23T09:40:57Z</time>
      </trkpt>
      <trkpt lat="48.08936" lon="6.94352">
        <ele>776</ele>
        <time>2021-06-23T09:41:00Z</time>
      </trkpt>
      <trkpt lat="48.08934" lon="6.94362">
        <ele>775.57</ele>
        <time>2021-06-23T09:41:03Z</time>
      </trkpt>
      <trkpt lat="48.08925" lon="6.94389">
        <ele>774.79</ele>
        <time>2021-06-23T09:41:06Z</time>
      </trkpt>
      <trkpt lat="48.08922" lon="6.94401">
        <ele>774.63</ele>
        <time>2021-06-23T09:41:09Z</time>
      </trkpt>
      <trkpt lat="48.08922" lon="6.94412">
        <ele>774.88</ele>
        <time>2021-06-23T09:41:11Z</time>
      </trkpt>
      <trkpt lat="48.08922" lon="6.94423">
        <ele>775.09</ele>
        <time>2021-06-23T09:41:14Z</time>
      </trkpt>
      <trkpt lat="48.08927" lon="6.94442">
        <ele>775.89</ele>
        <time>2021-06-23T09:41:17Z</time>
      </trkpt>
      <trkpt lat="48.08932" lon="6.94449">
        <ele>776.53</ele>
        <time>2021-06-23T09:41:20Z</time>
      </trkpt>
      <trkpt lat="48.08963" lon="6.94478">
        <ele>780.97</ele>
        <time>2021-06-23T09:41:23Z</time>
      </trkpt>
      <trkpt lat="48.08975" lon="6.94486">
        <ele>782.78</ele>
        <time>2021-06-23T09:41:26Z</time>
      </trkpt>
      <trkpt lat="48.08991" lon="6.94486">
        <ele>784.2</ele>
        <time>2021-06-23T09:41:29Z</time>
      </trkpt>
      <trkpt lat="48.08999" lon="6.94482">
        <ele>785.16</ele>
        <time>2021-06-23T09:41:32Z</time>
      </trkpt>
      <trkpt lat="48.09014" lon="6.94462">
        <ele>786.07</ele>
        <time>2021-06-23T09:41:35Z</time>
      </trkpt>
      <trkpt lat="48.09028" lon="6.94439">
        <ele>787.2</ele>
        <time>2021-06-23T09:41:38Z</time>
      </trkpt>
      <trkpt lat="48.09043" lon="6.94422">
        <ele>787.26</ele>
        <time>2021-06-23T09:41:41Z</time>
      </trkpt>
      <trkpt lat="48.09049" lon="6.94419">
        <ele>787.13</ele>
        <time>2021-06-23T09:41:44Z</time>
      </trkpt>
      <trkpt lat="48.09058" lon="6.9442">
        <ele>787.1</ele>
        <time>2021-06-23T09:41:46Z</time>
      </trkpt>
      <trkpt lat="48.09066" lon="6.94424">
        <ele>787.7</ele>
        <time>2021-06-23T09:41:49Z</time>
      </trkpt>
      <trkpt lat="48.09073" lon="6.94433">
        <ele>787.95</ele>
        <time>2021-06-23T09:41:52Z</time>
      </trkpt>
      <trkpt lat="48.09239" lon="6.947">
        <ele>797.49</ele>
        <time>2021-06-23T09:41:55Z</time>
      </trkpt>
      <trkpt lat="48.0925" lon="6.94712">
        <ele>797.4</ele>
        <time>2021-06-23T09:41:58Z</time>
      </trkpt>
      <trkpt lat="48.09358" lon="6.94807">
        <ele>808.03</ele>
        <time>2021-06-23T09:42:01Z</time>
      </trkpt>
      <trkpt lat="48.09368" lon="6.94822">
        <ele>809.3</ele>
        <time>2021-06-23T09:42:04Z</time>
      </trkpt>
      <trkpt lat="48.09374" lon="6.94834">
        <ele>809.16</ele>
        <time>2021-06-23T09:42:07Z</time>
      </trkpt>
      <trkpt lat="48.09393" lon="6.9489">
        <ele>809.66</ele>
        <time>2021-06-23T09:42:10Z</time>
      </trkpt>
      <trkpt lat="48.09402" lon="6.94908">
        <ele>811.95</ele>
        <time>2021-06-23T09:42:13Z</time>
      </trkpt>
      <trkpt lat="48.0947" lon="6.95003">
        <ele>819.97</ele>
        <time>2021-06-23T09:42:16Z</time>
      </trkpt>
      <trkpt lat="48.09484" lon="6.95028">
        <ele>819.01</ele>
        <time>2021-06-23T09:42:19Z</time>
      </trkpt>
      <trkpt lat="48.09502" lon="6.95073">
        <ele>817.65</ele>
        <time>2021-06-23T09:42:21Z</time>
      </trkpt>
      <trkpt lat="48.09583" lon="6.95304">
        <ele>827.09</ele>
        <time>2021-06-23T09:42:24Z</time>
      </trkpt>
      <trkpt lat="48.09599" lon="6.95365">
        <ele>825.12</ele>
        <time>2021-06-23T09:42:27Z</time>
      </trkpt>
      <trkpt lat="48.09603" lon="6.95396">
        <ele>824.98</ele>
        <time>2021-06-23T09:42:30Z</time>
      </trkpt>
      <trkpt lat="48.09607" lon="6.95436">
        <ele>824.11</ele>
        <time>2021-06-23T09:42:33Z</time>
      </trkpt>
      <trkpt lat="48.09607" lon="6.9547">
        <ele>821.98</ele>
        <time>2021-06-23T09:42:36Z</time>
      </trkpt>
      <trkpt lat="48.09605" lon="6.95496">
        <ele>820.9</ele>
        <time>2021-06-23T09:42:39Z</time>
      </trkpt>
      <trkpt lat="48.09599" lon="6.9552">
        <ele>818.86</ele>
        <time>2021-06-23T09:42:42Z</time>
      </trkpt>
      <trkpt lat="48.09587" lon="6.95559">
        <ele>814.66</ele>
        <time>2021-06-23T09:42:45Z</time>
      </trkpt>
      <trkpt lat="48.09541" lon="6.95674">
        <ele>809.38</ele>
        <time>2021-06-23T09:42:48Z</time>
      </trkpt>
      <trkpt lat="48.09531" lon="6.95713">
        <ele>809.08</ele>
        <time>2021-06-23T09:42:51Z</time>
      </trkpt>
      <trkpt lat="48.09525" lon="6.95758">
        <ele>809.79</ele>
        <time>2021-06-23T09:42:54Z</time>
      </trkpt>
      <trkpt lat="48.09526" lon="6.95793">
        <ele>811.61</ele>
        <time>2021-06-23T09:42:56Z</time>
      </trkpt>
      <trkpt lat="48.0953" lon="6.95829">
        <ele>812.58</ele>
        <time>2021-06-23T09:42:59Z</time>
      </trkpt>
      <trkpt lat="48.09542" lon="6.95907">
        <ele>822.16</ele>
        <time>2021-06-23T09:43:02Z</time>
      </trkpt>
      <trkpt lat="48.09574" lon="6.96095">
        <ele>827.92</ele>
        <time>2021-06-23T09:43:05Z</time>
      </trkpt>
      <trkpt lat="48.09588" lon="6.96141">
        <ele>827.88</ele>
        <time>2021-06-23T09:43:08Z</time>
      </trkpt>
      <trkpt lat="48.09622" lon="6.96219">
        <ele>821.51</ele>
        <time>2021-06-23T09:43:11Z</time>
      </trkpt>
      <trkpt lat="48.0963" lon="6.9625">
        <ele>823.95</ele>
        <time>2021-06-23T09:43:14Z</time>
      </trkpt>
      <trkpt lat="48.09653" lon="6.96376">
        <ele>824.52</ele>
        <time>2021-06-23T09:43:17Z</time>
      </trkpt>
      <trkpt lat="48.09654" lon="6.96419">
        <ele>823.82</ele>
        <time>2021-06-23T09:43:20Z</time>
      </trkpt>
      <trkpt lat="48.09653" lon="6.96467">
        <ele>825.68</ele>
        <time>2021-06-23T09:43:23Z</time>
      </trkpt>
      <trkpt lat="48.09641" lon="6.966">
        <ele>823.59</ele>
        <time>2021-06-23T09:43:26Z</time>
      </trkpt>
      <trkpt lat="48.09635" lon="6.96622">
        <ele>822.86</ele>
        <time>2021-06-23T09:43:29Z</time>
      </trkpt>
      <trkpt lat="48.09616" lon="6.96676">
        <ele>822.06</ele>
        <time>2021-06-23T09:43:31Z</time>
      </trkpt>
      <trkpt lat="48.09608" lon="6.96704">
        <ele>824.35</ele>
        <time>2021-06-23T09:43:34Z</time>
      </trkpt>
      <trkpt lat="48.09605" lon="6.96739">
        <ele>825.4</ele>
        <time>2021-06-23T09:43:37Z</time>
      </trkpt>
      <trkpt lat="48.0961" lon="6.96809">
        <ele>824.65</ele>
        <time>2021-06-23T09:43:40Z</time>
      </trkpt>
      <trkpt lat="48.09623" lon="6.96874">
        <ele>823.37</ele>
        <time>2021-06-23T09:43:43Z</time>
      </trkpt>
      <trkpt lat="48.09629" lon="6.96893">
        <ele>822.54</ele>
        <time>2021-06-23T09:43:46Z</time>
      </trkpt>
      <trkpt lat="48.09631" lon="6.9691">
        <ele>822.46</ele>
        <time>2021-06-23T09:43:49Z</time>
      </trkpt>
      <trkpt lat="48.09629" lon="6.96948">
        <ele>822.02</ele>
        <time>2021-06-23T09:43:52Z</time>
      </trkpt>
      <trkpt lat="48.09617" lon="6.97025">
        <ele>820.51</ele>
        <time>2021-06-23T09:43:55Z</time>
      </trkpt>
      <trkpt lat="48.0961" lon="6.97042">
        <ele>822.33</ele>
        <time>2021-06-23T09:43:58Z</time>
      </trkpt>
      <trkpt lat="48.09596" lon="6.97056">
        <ele>827.55</ele>
        <time>2021-06-23T09:44:01Z</time>
      </trkpt>
      <trkpt lat="48.09583" lon="6.97082">
        <ele>830.1</ele>
        <time>2021-06-23T09:44:04Z</time>
      </trkpt>
      <trkpt lat="48.09583" lon="6.97091">
        <ele>830.42</ele>
        <time>2021-06-23T09:44:06Z</time>
      </trkpt>
      <trkpt lat="48.09584" lon="6.97102">
        <ele>830.57</ele>
        <time>2021-06-23T09:44:09Z</time>
      </trkpt>
      <trkpt lat="48.09596" lon="6.97134">
        <ele>827.68</ele>
        <time>2021-06-23T09:44:12Z</time>
      </trkpt>
      <trkpt lat="48.09602" lon="6.97167">
        <ele>827.33</ele>
        <time>2021-06-23T09:44:15Z</time>
      </trkpt>
      <trkpt lat="48.09601" lon="6.97183">
        <ele>827.46</ele>
        <time>2021-06-23T09:44:18Z</time>
      </trkpt>
      <trkpt lat="48.09593" lon="6.97211">
        <ele>829.06</ele>
        <time>2021-06-23T09:44:21Z</time>
      </trkpt>
      <trkpt lat="48.09591" lon="6.97227">
        <ele>828.91</ele>
        <time>2021-06-23T09:44:24Z</time>
      </trkpt>
      <trkpt lat="48.09594" lon="6.97261">
        <ele>826.46</ele>
        <time>2021-06-23T09:44:27Z</time>
      </trkpt>
      <trkpt lat="48.09599" lon="6.97278">
        <ele>824.47</ele>
        <time>2021-06-23T09:44:30Z</time>
      </trkpt>
      <trkpt lat="48.09614" lon="6.97314">
        <ele>821.06</ele>
        <time>2021-06-23T09:44:33Z</time>
      </trkpt>
      <trkpt lat="48.09619" lon="6.97333">
        <ele>821.35</ele>
        <time>2021-06-23T09:44:36Z</time>
      </trkpt>
      <trkpt lat="48.09621" lon="6.97352">
        <ele>821.2</ele>
        <time>2021-06-23T09:44:39Z</time>
      </trkpt>
      <trkpt lat="48.09618" lon="6.97371">
        <ele>822.16</ele>
        <time>2021-06-23T09:44:41Z</time>
      </trkpt>
      <trkpt lat="48.09613" lon="6.97388">
        <ele>823.74</ele>
        <time>2021-06-23T09:44:44Z</time>
      </trkpt>
      <trkpt lat="48.09574" lon="6.97476">
        <ele>828.01</ele>
        <time>2021-06-23T09:44:47Z</time>
      </trkpt>
      <trkpt lat="48.09553" lon="6.97503">
        <ele>830.23</ele>
        <time>2021-06-23T09:44:50Z</time>
      </trkpt>
      <trkpt lat="48.09529" lon="6.97524">
        <ele>832.45</ele>
        <time>2021-06-23T09:44:53Z</time>
      </trkpt>
      <trkpt lat="48.09491" lon="6.97565">
        <ele>831.53</ele>
        <time>2021-06-23T09:44:56Z</time>
      </trkpt>
      <trkpt lat="48.09466" lon="6.97603">
        <ele>829.59</ele>
        <time>2021-06-23T09:44:59Z</time>
      </trkpt>
      <trkpt lat="48.09458" lon="6.97624">
        <ele>829.06</ele>
        <time>2021-06-23T09:45:02Z</time>
      </trkpt>
      <trkpt lat="48.09452" lon="6.97644">
        <ele>827.25</ele>
        <time>2021-06-23T09:45:05Z</time>
      </trkpt>
      <trkpt lat="48.0945" lon="6.9766">
        <ele>825.09</ele>
        <time>2021-06-23T09:45:08Z</time>
      </trkpt>
      <trkpt lat="48.09449" lon="6.97675">
        <ele>822.77</ele>
        <time>2021-06-23T09:45:11Z</time>
      </trkpt>
      <trkpt lat="48.09451" lon="6.97691">
        <ele>820.55</ele>
        <time>2021-06-23T09:45:14Z</time>
      </trkpt>
      <trkpt lat="48.0948" lon="6.978">
        <ele>813.66</ele>
        <time>2021-06-23T09:45:16Z</time>
      </trkpt>
      <trkpt lat="48.09484" lon="6.9782">
        <ele>811.99</ele>
        <time>2021-06-23T09:45:19Z</time>
      </trkpt>
      <trkpt lat="48.09486" lon="6.97836">
        <ele>810.99</ele>
        <time>2021-06-23T09:45:22Z</time>
      </trkpt>
      <trkpt lat="48.09487" lon="6.97891">
        <ele>811.2</ele>
        <time>2021-06-23T09:45:25Z</time>
      </trkpt>
      <trkpt lat="48.09496" lon="6.97935">
        <ele>816.06</ele>
        <time>2021-06-23T09:45:28Z</time>
      </trkpt>
      <trkpt lat="48.09514" lon="6.97972">
        <ele>818.48</ele>
        <time>2021-06-23T09:45:31Z</time>
      </trkpt>
      <trkpt lat="48.09527" lon="6.98006">
        <ele>819.84</ele>
        <time>2021-06-23T09:45:34Z</time>
      </trkpt>
      <trkpt lat="48.09569" lon="6.98164">
        <ele>822.64</ele>
        <time>2021-06-23T09:45:37Z</time>
      </trkpt>
      <trkpt lat="48.09577" lon="6.98191">
        <ele>821.55</ele>
        <time>2021-06-23T09:45:40Z</time>
      </trkpt>
      <trkpt lat="48.09603" lon="6.98254">
        <ele>817.71</ele>
        <time>2021-06-23T09:45:43Z</time>
      </trkpt>
      <trkpt lat="48.09612" lon="6.98279">
        <ele>816.01</ele>
        <time>2021-06-23T09:45:46Z</time>
      </trkpt>
      <trkpt lat="48.0962" lon="6.98311">
        <ele>816.53</ele>
        <time>2021-06-23T09:45:49Z</time>
      </trkpt>
      <trkpt lat="48.09633" lon="6.98381">
        <ele>818.19</ele>
        <time>2021-06-23T09:45:51Z</time>
      </trkpt>
      <trkpt lat="48.09673" lon="6.98478">
        <ele>820.93</ele>
        <time>2021-06-23T09:45:54Z</time>
      </trkpt>
      <trkpt lat="48.0968" lon="6.98517">
        <ele>824.17</ele>
        <time>2021-06-23T09:45:57Z</time>
      </trkpt>
      <trkpt lat="48.09681" lon="6.98538">
        <ele>825.46</ele>
        <time>2021-06-23T09:46:00Z</time>
      </trkpt>
      <trkpt lat="48.0968" lon="6.9856">
        <ele>825.92</ele>
        <time>2021-06-23T09:46:03Z</time>
      </trkpt>
      <trkpt lat="48.09658" lon="6.98723">
        <ele>831.21</ele>
        <time>2021-06-23T09:46:06Z</time>
      </trkpt>
      <trkpt lat="48.09648" lon="6.98775">
        <ele>834.13</ele>
        <time>2021-06-23T09:46:09Z</time>
      </trkpt>
      <trkpt lat="48.09603" lon="6.98949">
        <ele>841.81</ele>
        <time>2021-06-23T09:46:12Z</time>
      </trkpt>
      <trkpt lat="48.09591" lon="6.99013">
        <ele>843.42</ele>
        <time>2021-06-23T09:46:15Z</time>
      </trkpt>
      <trkpt lat="48.09584" lon="6.99059">
        <ele>842.32</ele>
        <time>2021-06-23T09:46:18Z</time>
      </trkpt>
      <trkpt lat="48.0958" lon="6.99116">
        <ele>842.78</ele>
        <time>2021-06-23T09:46:21Z</time>
      </trkpt>
      <trkpt lat="48.09536" lon="6.99918">
        <ele>850.85</ele>
        <time>2021-06-23T09:46:23Z</time>
      </trkpt>
      <trkpt lat="48.09523" lon="7.0012">
        <ele>854.83</ele>
        <time>2021-06-23T09:46:26Z</time>
      </trkpt>
      <trkpt lat="48.09513" lon="7.00803">
        <ele>847.9</ele>
        <time>2021-06-23T09:46:29Z</time>
      </trkpt>
      <trkpt lat="48.09514" lon="7.01016">
        <ele>848.39</ele>
        <time>2021-06-23T09:46:32Z</time>
      </trkpt>
      <trkpt lat="48.09515" lon="7.01052">
        <ele>850.06</ele>
        <time>2021-06-23T09:46:35Z</time>
      </trkpt>
      <trkpt lat="48.09522" lon="7.01087">
        <ele>849.37</ele>
        <time>2021-06-23T09:46:38Z</time>
      </trkpt>
      <trkpt lat="48.09542" lon="7.01153">
        <ele>844.25</ele>
        <time>2021-06-23T09:46:41Z</time>
      </trkpt>
      <trkpt lat="48.09561" lon="7.01225">
        <ele>834.47</ele>
        <time>2021-06-23T09:46:44Z</time>
      </trkpt>
      <trkpt lat="48.09584" lon="7.01327">
        <ele>835.99</ele>
        <time>2021-06-23T09:46:47Z</time>
      </trkpt>
      <trkpt lat="48.09586" lon="7.01351">
        <ele>834.66</ele>
        <time>2021-06-23T09:46:50Z</time>
      </trkpt>
      <trkpt lat="48.09585" lon="7.01374">
        <ele>832.6</ele>
        <time>2021-06-23T09:46:53Z</time>
      </trkpt>
      <trkpt lat="48.09557" lon="7.01527">
        <ele>822.09</ele>
        <time>2021-06-23T09:46:56Z</time>
      </trkpt>
      <trkpt lat="48.09546" lon="7.01571">
        <ele>820.9</ele>
        <time>2021-06-23T09:46:58Z</time>
      </trkpt>
      <trkpt lat="48.09523" lon="7.01633">
        <ele>813.66</ele>
        <time>2021-06-23T09:47:01Z</time>
      </trkpt>
      <trkpt lat="48.09495" lon="7.01682">
        <ele>809.41</ele>
        <time>2021-06-23T09:47:04Z</time>
      </trkpt>
      <trkpt lat="48.0949" lon="7.01695">
        <ele>807.8</ele>
        <time>2021-06-23T09:47:07Z</time>
      </trkpt>
      <trkpt lat="48.09486" lon="7.01713">
        <ele>809.05</ele>
        <time>2021-06-23T09:47:10Z</time>
      </trkpt>
      <trkpt lat="48.09485" lon="7.01734">
        <ele>809.43</ele>
        <time>2021-06-23T09:47:13Z</time>
      </trkpt>
      <trkpt lat="48.09487" lon="7.01761">
        <ele>807.32</ele>
        <time>2021-06-23T09:47:16Z</time>
      </trkpt>
      <trkpt lat="48.09517" lon="7.01947">
        <ele>791.91</ele>
        <time>2021-06-23T09:47:19Z</time>
      </trkpt>
      <trkpt lat="48.09529" lon="7.01991">
        <ele>793.48</ele>
        <time>2021-06-23T09:47:22Z</time>
      </trkpt>
      <trkpt lat="48.09546" lon="7.02022">
        <ele>790.22</ele>
        <time>2021-06-23T09:47:25Z</time>
      </trkpt>
      <trkpt lat="48.09572" lon="7.02061">
        <ele>788.14</ele>
        <time>2021-06-23T09:47:28Z</time>
      </trkpt>
      <trkpt lat="48.09592" lon="7.02087">
        <ele>786.23</ele>
        <time>2021-06-23T09:47:31Z</time>
      </trkpt>
      <trkpt lat="48.09656" lon="7.02184">
        <ele>777.53</ele>
        <time>2021-06-23T09:47:33Z</time>
      </trkpt>
      <trkpt lat="48.09676" lon="7.0222">
        <ele>774.82</ele>
        <time>2021-06-23T09:47:36Z</time>
      </trkpt>
      <trkpt lat="48.0969" lon="7.02268">
        <ele>776.19</ele>
        <time>2021-06-23T09:47:39Z</time>
      </trkpt>
      <trkpt lat="48.09691" lon="7.02268">
        <ele>774.61</ele>
        <time>2021-06-23T09:47:42Z</time>
      </trkpt>
      <trkpt lat="48.09691" lon="7.02268">
        <ele>774.61</ele>
        <time>2021-06-23T09:47:42Z</time>
      </trkpt>
      <trkpt lat="48.09698" lon="7.0227">
        <ele>773.02</ele>
        <time>2021-06-23T09:47:44Z</time>
      </trkpt>
      <trkpt lat="48.09703" lon="7.02265">
        <ele>770.08</ele>
        <time>2021-06-23T09:47:46Z</time>
      </trkpt>
      <trkpt lat="48.09704" lon="7.02251">
        <ele>767.56</ele>
        <time>2021-06-23T09:47:48Z</time>
      </trkpt>
      <trkpt lat="48.09694" lon="7.02222">
        <ele>769.28</ele>
        <time>2021-06-23T09:47:49Z</time>
      </trkpt>
      <trkpt lat="48.09645" lon="7.0212">
        <ele>771.14</ele>
        <time>2021-06-23T09:47:51Z</time>
      </trkpt>
      <trkpt lat="48.09641" lon="7.02106">
        <ele>769.95</ele>
        <time>2021-06-23T09:47:53Z</time>
      </trkpt>
      <trkpt lat="48.09621" lon="7.01973">
        <ele>768.29</ele>
        <time>2021-06-23T09:47:55Z</time>
      </trkpt>
      <trkpt lat="48.09622" lon="7.01952">
        <ele>768.8</ele>
        <time>2021-06-23T09:47:56Z</time>
      </trkpt>
      <trkpt lat="48.09628" lon="7.01939">
        <ele>769.64</ele>
        <time>2021-06-23T09:47:58Z</time>
      </trkpt>
      <trkpt lat="48.09632" lon="7.01935">
        <ele>770.03</ele>
        <time>2021-06-23T09:48:00Z</time>
      </trkpt>
      <trkpt lat="48.09638" lon="7.01932">
        <ele>770.33</ele>
        <time>2021-06-23T09:48:02Z</time>
      </trkpt>
      <trkpt lat="48.09647" lon="7.01935">
        <ele>770.77</ele>
        <time>2021-06-23T09:48:03Z</time>
      </trkpt>
      <trkpt lat="48.09658" lon="7.01943">
        <ele>770.6</ele>
        <time>2021-06-23T09:48:05Z</time>
      </trkpt>
      <trkpt lat="48.09716" lon="7.02003">
        <ele>762.55</ele>
        <time>2021-06-23T09:48:07Z</time>
      </trkpt>
      <trkpt lat="48.09729" lon="7.02022">
        <ele>761.59</ele>
        <time>2021-06-23T09:48:09Z</time>
      </trkpt>
      <trkpt lat="48.09739" lon="7.02048">
        <ele>759.47</ele>
        <time>2021-06-23T09:48:11Z</time>
      </trkpt>
      <trkpt lat="48.09745" lon="7.02072">
        <ele>757.26</ele>
        <time>2021-06-23T09:48:12Z</time>
      </trkpt>
      <trkpt lat="48.09748" lon="7.02089">
        <ele>755.84</ele>
        <time>2021-06-23T09:48:14Z</time>
      </trkpt>
      <trkpt lat="48.09745" lon="7.02148">
        <ele>752.91</ele>
        <time>2021-06-23T09:48:16Z</time>
      </trkpt>
      <trkpt lat="48.09746" lon="7.02161">
        <ele>752.1</ele>
        <time>2021-06-23T09:48:18Z</time>
      </trkpt>
      <trkpt lat="48.0975" lon="7.02176">
        <ele>750.34</ele>
        <time>2021-06-23T09:48:19Z</time>
      </trkpt>
      <trkpt lat="48.09757" lon="7.02192">
        <ele>749.21</ele>
        <time>2021-06-23T09:48:21Z</time>
      </trkpt>
      <trkpt lat="48.09796" lon="7.02256">
        <ele>748.52</ele>
        <time>2021-06-23T09:48:23Z</time>
      </trkpt>
      <trkpt lat="48.09803" lon="7.0227">
        <ele>748.24</ele>
        <time>2021-06-23T09:48:25Z</time>
      </trkpt>
      <trkpt lat="48.09823" lon="7.02327">
        <ele>747.8</ele>
        <time>2021-06-23T09:48:26Z</time>
      </trkpt>
      <trkpt lat="48.09836" lon="7.02356">
        <ele>746.84</ele>
        <time>2021-06-23T09:48:28Z</time>
      </trkpt>
      <trkpt lat="48.09848" lon="7.02376">
        <ele>746.49</ele>
        <time>2021-06-23T09:48:30Z</time>
      </trkpt>
      <trkpt lat="48.09864" lon="7.02395">
        <ele>746.05</ele>
        <time>2021-06-23T09:48:32Z</time>
      </trkpt>
      <trkpt lat="48.09887" lon="7.02415">
        <ele>745.05</ele>
        <time>2021-06-23T09:48:33Z</time>
      </trkpt>
      <trkpt lat="48.09933" lon="7.02437">
        <ele>746.02</ele>
        <time>2021-06-23T09:48:35Z</time>
      </trkpt>
      <trkpt lat="48.09948" lon="7.0244">
        <ele>745.51</ele>
        <time>2021-06-23T09:48:37Z</time>
      </trkpt>
      <trkpt lat="48.09962" lon="7.02436">
        <ele>744.01</ele>
        <time>2021-06-23T09:48:39Z</time>
      </trkpt>
      <trkpt lat="48.0997" lon="7.02432">
        <ele>743.23</ele>
        <time>2021-06-23T09:48:41Z</time>
      </trkpt>
      <trkpt lat="48.10001" lon="7.02398">
        <ele>743.38</ele>
        <time>2021-06-23T09:48:42Z</time>
      </trkpt>
      <trkpt lat="48.10015" lon="7.02391">
        <ele>744.29</ele>
        <time>2021-06-23T09:48:44Z</time>
      </trkpt>
      <trkpt lat="48.10081" lon="7.02394">
        <ele>741.82</ele>
        <time>2021-06-23T09:48:46Z</time>
      </trkpt>
      <trkpt lat="48.1012" lon="7.02408">
        <ele>740.58</ele>
        <time>2021-06-23T09:48:48Z</time>
      </trkpt>
      <trkpt lat="48.10129" lon="7.02415">
        <ele>741.32</ele>
        <time>2021-06-23T09:48:49Z</time>
      </trkpt>
      <trkpt lat="48.10136" lon="7.02421">
        <ele>742.01</ele>
        <time>2021-06-23T09:48:51Z</time>
      </trkpt>
      <trkpt lat="48.10145" lon="7.02438">
        <ele>743.15</ele>
        <time>2021-06-23T09:48:53Z</time>
      </trkpt>
      <trkpt lat="48.10158" lon="7.02476">
        <ele>744.08</ele>
        <time>2021-06-23T09:48:55Z</time>
      </trkpt>
      <trkpt lat="48.10168" lon="7.02495">
        <ele>742.84</ele>
        <time>2021-06-23T09:48:56Z</time>
      </trkpt>
      <trkpt lat="48.10198" lon="7.02532">
        <ele>742.58</ele>
        <time>2021-06-23T09:48:58Z</time>
      </trkpt>
      <trkpt lat="48.10218" lon="7.02549">
        <ele>740.71</ele>
        <time>2021-06-23T09:49:00Z</time>
      </trkpt>
      <trkpt lat="48.10236" lon="7.02555">
        <ele>738.09</ele>
        <time>2021-06-23T09:49:02Z</time>
      </trkpt>
      <trkpt lat="48.1026" lon="7.02557">
        <ele>737.33</ele>
        <time>2021-06-23T09:49:04Z</time>
      </trkpt>
      <trkpt lat="48.10269" lon="7.0256">
        <ele>738.51</ele>
        <time>2021-06-23T09:49:05Z</time>
      </trkpt>
      <trkpt lat="48.1028" lon="7.02565">
        <ele>739.88</ele>
        <time>2021-06-23T09:49:07Z</time>
      </trkpt>
      <trkpt lat="48.10287" lon="7.02571">
        <ele>741.26</ele>
        <time>2021-06-23T09:49:09Z</time>
      </trkpt>
      <trkpt lat="48.10296" lon="7.02586">
        <ele>741.79</ele>
        <time>2021-06-23T09:49:11Z</time>
      </trkpt>
      <trkpt lat="48.10299" lon="7.02595">
        <ele>741.92</ele>
        <time>2021-06-23T09:49:12Z</time>
      </trkpt>
      <trkpt lat="48.10308" lon="7.02649">
        <ele>740.74</ele>
        <time>2021-06-23T09:49:14Z</time>
      </trkpt>
      <trkpt lat="48.10314" lon="7.02674">
        <ele>739.96</ele>
        <time>2021-06-23T09:49:16Z</time>
      </trkpt>
      <trkpt lat="48.10327" lon="7.02709">
        <ele>738.66</ele>
        <time>2021-06-23T09:49:18Z</time>
      </trkpt>
      <trkpt lat="48.10353" lon="7.02757">
        <ele>738.16</ele>
        <time>2021-06-23T09:49:19Z</time>
      </trkpt>
      <trkpt lat="48.10367" lon="7.02775">
        <ele>739.24</ele>
        <time>2021-06-23T09:49:21Z</time>
      </trkpt>
      <trkpt lat="48.10433" lon="7.02843">
        <ele>732.08</ele>
        <time>2021-06-23T09:49:23Z</time>
      </trkpt>
      <trkpt lat="48.10445" lon="7.02852">
        <ele>731</ele>
        <time>2021-06-23T09:49:25Z</time>
      </trkpt>
      <trkpt lat="48.10456" lon="7.02857">
        <ele>730.55</ele>
        <time>2021-06-23T09:49:27Z</time>
      </trkpt>
      <trkpt lat="48.10471" lon="7.02859">
        <ele>730.31</ele>
        <time>2021-06-23T09:49:28Z</time>
      </trkpt>
      <trkpt lat="48.10508" lon="7.02856">
        <ele>732.91</ele>
        <time>2021-06-23T09:49:30Z</time>
      </trkpt>
      <trkpt lat="48.10513" lon="7.02858">
        <ele>733.04</ele>
        <time>2021-06-23T09:49:32Z</time>
      </trkpt>
      <trkpt lat="48.10566" lon="7.02905">
        <ele>735.1</ele>
        <time>2021-06-23T09:49:34Z</time>
      </trkpt>
      <trkpt lat="48.10576" lon="7.02919">
        <ele>734.66</ele>
        <time>2021-06-23T09:49:35Z</time>
      </trkpt>
      <trkpt lat="48.10605" lon="7.02976">
        <ele>730.64</ele>
        <time>2021-06-23T09:49:37Z</time>
      </trkpt>
      <trkpt lat="48.1063" lon="7.03013">
        <ele>728.44</ele>
        <time>2021-06-23T09:49:39Z</time>
      </trkpt>
      <trkpt lat="48.10686" lon="7.03073">
        <ele>727.59</ele>
        <time>2021-06-23T09:49:41Z</time>
      </trkpt>
      <trkpt lat="48.1074" lon="7.03122">
        <ele>725.22</ele>
        <time>2021-06-23T09:49:42Z</time>
      </trkpt>
      <trkpt lat="48.1077" lon="7.03161">
        <ele>720.81</ele>
        <time>2021-06-23T09:49:44Z</time>
      </trkpt>
      <trkpt lat="48.1078" lon="7.03171">
        <ele>719.94</ele>
        <time>2021-06-23T09:49:46Z</time>
      </trkpt>
      <trkpt lat="48.10815" lon="7.03191">
        <ele>720.81</ele>
        <time>2021-06-23T09:49:48Z</time>
      </trkpt>
      <trkpt lat="48.1083" lon="7.03205">
        <ele>721.08</ele>
        <time>2021-06-23T09:49:50Z</time>
      </trkpt>
      <trkpt lat="48.10914" lon="7.03309">
        <ele>714.89</ele>
        <time>2021-06-23T09:49:51Z</time>
      </trkpt>
      <trkpt lat="48.10927" lon="7.0332">
        <ele>713.96</ele>
        <time>2021-06-23T09:49:53Z</time>
      </trkpt>
      <trkpt lat="48.10976" lon="7.03351">
        <ele>711.68</ele>
        <time>2021-06-23T09:49:55Z</time>
      </trkpt>
      <trkpt lat="48.11013" lon="7.03379">
        <ele>712.51</ele>
        <time>2021-06-23T09:49:57Z</time>
      </trkpt>
      <trkpt lat="48.11038" lon="7.03401">
        <ele>716.99</ele>
        <time>2021-06-23T09:49:58Z</time>
      </trkpt>
      <trkpt lat="48.11054" lon="7.03425">
        <ele>719.72</ele>
        <time>2021-06-23T09:50:00Z</time>
      </trkpt>
      <trkpt lat="48.11083" lon="7.03487">
        <ele>717.89</ele>
        <time>2021-06-23T09:50:02Z</time>
      </trkpt>
      <trkpt lat="48.11094" lon="7.03501">
        <ele>717.85</ele>
        <time>2021-06-23T09:50:04Z</time>
      </trkpt>
      <trkpt lat="48.11196" lon="7.03608">
        <ele>711.71</ele>
        <time>2021-06-23T09:50:05Z</time>
      </trkpt>
      <trkpt lat="48.11255" lon="7.03667">
        <ele>709.58</ele>
        <time>2021-06-23T09:50:07Z</time>
      </trkpt>
      <trkpt lat="48.11291" lon="7.037">
        <ele>709.86</ele>
        <time>2021-06-23T09:50:09Z</time>
      </trkpt>
      <trkpt lat="48.11327" lon="7.03728">
        <ele>711.54</ele>
        <time>2021-06-23T09:50:11Z</time>
      </trkpt>
      <trkpt lat="48.11407" lon="7.03783">
        <ele>710.28</ele>
        <time>2021-06-23T09:50:13Z</time>
      </trkpt>
      <trkpt lat="48.11472" lon="7.03832">
        <ele>716.14</ele>
        <time>2021-06-23T09:50:14Z</time>
      </trkpt>
      <trkpt lat="48.11536" lon="7.03885">
        <ele>715.3</ele>
        <time>2021-06-23T09:50:16Z</time>
      </trkpt>
      <trkpt lat="48.11666" lon="7.04012">
        <ele>709.3</ele>
        <time>2021-06-23T09:50:18Z</time>
      </trkpt>
      <trkpt lat="48.1173" lon="7.04079">
        <ele>708.3</ele>
        <time>2021-06-23T09:50:20Z</time>
      </trkpt>
      <trkpt lat="48.11751" lon="7.04095">
        <ele>708.57</ele>
        <time>2021-06-23T09:50:21Z</time>
      </trkpt>
      <trkpt lat="48.11773" lon="7.04106">
        <ele>708.23</ele>
        <time>2021-06-23T09:50:23Z</time>
      </trkpt>
      <trkpt lat="48.11829" lon="7.0412">
        <ele>712.72</ele>
        <time>2021-06-23T09:50:25Z</time>
      </trkpt>
      <trkpt lat="48.11903" lon="7.04135">
        <ele>711.97</ele>
        <time>2021-06-23T09:50:27Z</time>
      </trkpt>
      <trkpt lat="48.11924" lon="7.04147">
        <ele>705.43</ele>
        <time>2021-06-23T09:50:28Z</time>
      </trkpt>
      <trkpt lat="48.11958" lon="7.04185">
        <ele>702.97</ele>
        <time>2021-06-23T09:50:30Z</time>
      </trkpt>
      <trkpt lat="48.11978" lon="7.04199">
        <ele>703.95</ele>
        <time>2021-06-23T09:50:32Z</time>
      </trkpt>
      <trkpt lat="48.11988" lon="7.04202">
        <ele>703.7</ele>
        <time>2021-06-23T09:50:34Z</time>
      </trkpt>
      <trkpt lat="48.11993" lon="7.04201">
        <ele>702.9</ele>
        <time>2021-06-23T09:50:36Z</time>
      </trkpt>
      <trkpt lat="48.11993" lon="7.04201">
        <ele>702.9</ele>
        <time>2021-06-23T09:50:36Z</time>
      </trkpt>
      <trkpt lat="48.12009" lon="7.04199">
        <ele>702.1</ele>
        <time>2021-06-23T09:50:37Z</time>
      </trkpt>
      <trkpt lat="48.12032" lon="7.04185">
        <ele>700</ele>
        <time>2021-06-23T09:50:39Z</time>
      </trkpt>
      <trkpt lat="48.12077" lon="7.04139">
        <ele>702.35</ele>
        <time>2021-06-23T09:50:40Z</time>
      </trkpt>
      <trkpt lat="48.12092" lon="7.04121">
        <ele>702.05</ele>
        <time>2021-06-23T09:50:42Z</time>
      </trkpt>
      <trkpt lat="48.12109" lon="7.04092">
        <ele>701.33</ele>
        <time>2021-06-23T09:50:43Z</time>
      </trkpt>
      <trkpt lat="48.12113" lon="7.04077">
        <ele>700.99</ele>
        <time>2021-06-23T09:50:45Z</time>
      </trkpt>
      <trkpt lat="48.12115" lon="7.04056">
        <ele>700.38</ele>
        <time>2021-06-23T09:50:47Z</time>
      </trkpt>
      <trkpt lat="48.12115" lon="7.04034">
        <ele>698.02</ele>
        <time>2021-06-23T09:50:48Z</time>
      </trkpt>
      <trkpt lat="48.12106" lon="7.03969">
        <ele>695.26</ele>
        <time>2021-06-23T09:50:50Z</time>
      </trkpt>
      <trkpt lat="48.12106" lon="7.03944">
        <ele>695.2</ele>
        <time>2021-06-23T09:50:51Z</time>
      </trkpt>
      <trkpt lat="48.12112" lon="7.03877">
        <ele>699.57</ele>
        <time>2021-06-23T09:50:53Z</time>
      </trkpt>
      <trkpt lat="48.12111" lon="7.03805">
        <ele>700.11</ele>
        <time>2021-06-23T09:50:55Z</time>
      </trkpt>
      <trkpt lat="48.12116" lon="7.03763">
        <ele>701.23</ele>
        <time>2021-06-23T09:50:56Z</time>
      </trkpt>
      <trkpt lat="48.12124" lon="7.03716">
        <ele>700.77</ele>
        <time>2021-06-23T09:50:58Z</time>
      </trkpt>
      <trkpt lat="48.12137" lon="7.03652">
        <ele>696</ele>
        <time>2021-06-23T09:50:59Z</time>
      </trkpt>
      <trkpt lat="48.1216" lon="7.03572">
        <ele>686.89</ele>
        <time>2021-06-23T09:51:01Z</time>
      </trkpt>
      <trkpt lat="48.12171" lon="7.03511">
        <ele>683.31</ele>
        <time>2021-06-23T09:51:03Z</time>
      </trkpt>
      <trkpt lat="48.12202" lon="7.03401">
        <ele>674.79</ele>
        <time>2021-06-23T09:51:04Z</time>
      </trkpt>
      <trkpt lat="48.12212" lon="7.03377">
        <ele>674.74</ele>
        <time>2021-06-23T09:51:06Z</time>
      </trkpt>
      <trkpt lat="48.12229" lon="7.03347">
        <ele>674</ele>
        <time>2021-06-23T09:51:07Z</time>
      </trkpt>
      <trkpt lat="48.12264" lon="7.03299">
        <ele>675.54</ele>
        <time>2021-06-23T09:51:09Z</time>
      </trkpt>
      <trkpt lat="48.12282" lon="7.03269">
        <ele>674.93</ele>
        <time>2021-06-23T09:51:11Z</time>
      </trkpt>
      <trkpt lat="48.12321" lon="7.03183">
        <ele>665.77</ele>
        <time>2021-06-23T09:51:12Z</time>
      </trkpt>
      <trkpt lat="48.12333" lon="7.03163">
        <ele>665.94</ele>
        <time>2021-06-23T09:51:14Z</time>
      </trkpt>
      <trkpt lat="48.12329" lon="7.03141">
        <ele>666.24</ele>
        <time>2021-06-23T09:51:17Z</time>
      </trkpt>
      <trkpt lat="48.12329" lon="7.03132">
        <ele>666.95</ele>
        <time>2021-06-23T09:51:20Z</time>
      </trkpt>
      <trkpt lat="48.12332" lon="7.03123">
        <ele>667.3</ele>
        <time>2021-06-23T09:51:24Z</time>
      </trkpt>
      <trkpt lat="48.12354" lon="7.03091">
        <ele>664.61</ele>
        <time>2021-06-23T09:51:27Z</time>
      </trkpt>
      <trkpt lat="48.12369" lon="7.03059">
        <ele>661.59</ele>
        <time>2021-06-23T09:51:30Z</time>
      </trkpt>
      <trkpt lat="48.12387" lon="7.02999">
        <ele>658.3</ele>
        <time>2021-06-23T09:51:34Z</time>
      </trkpt>
      <trkpt lat="48.12415" lon="7.02894">
        <ele>653.14</ele>
        <time>2021-06-23T09:51:37Z</time>
      </trkpt>
      <trkpt lat="48.12452" lon="7.02809">
        <ele>651.03</ele>
        <time>2021-06-23T09:51:40Z</time>
      </trkpt>
      <trkpt lat="48.1247" lon="7.02786">
        <ele>650</ele>
        <time>2021-06-23T09:51:43Z</time>
      </trkpt>
      <trkpt lat="48.12484" lon="7.02771">
        <ele>649.26</ele>
        <time>2021-06-23T09:51:47Z</time>
      </trkpt>
      <trkpt lat="48.12494" lon="7.02766">
        <ele>648.49</ele>
        <time>2021-06-23T09:51:50Z</time>
      </trkpt>
      <trkpt lat="48.12504" lon="7.02765">
        <ele>647.78</ele>
        <time>2021-06-23T09:51:53Z</time>
      </trkpt>
      <trkpt lat="48.12548" lon="7.02788">
        <ele>646</ele>
        <time>2021-06-23T09:51:57Z</time>
      </trkpt>
      <trkpt lat="48.12565" lon="7.02792">
        <ele>646.17</ele>
        <time>2021-06-23T09:52:00Z</time>
      </trkpt>
      <trkpt lat="48.12582" lon="7.0279">
        <ele>646.51</ele>
        <time>2021-06-23T09:52:03Z</time>
      </trkpt>
      <trkpt lat="48.12625" lon="7.02768">
        <ele>645.43</ele>
        <time>2021-06-23T09:52:07Z</time>
      </trkpt>
      <trkpt lat="48.12625" lon="7.02768">
        <ele>645.43</ele>
        <time>2021-06-23T09:52:07Z</time>
      </trkpt>
      <trkpt lat="48.12663" lon="7.02749">
        <ele>644.34</ele>
        <time>2021-06-23T09:52:13Z</time>
      </trkpt>
      <trkpt lat="48.12724" lon="7.02677">
        <ele>648.95</ele>
        <time>2021-06-23T09:52:20Z</time>
      </trkpt>
      <trkpt lat="48.12753" lon="7.02677">
        <ele>649.55</ele>
        <time>2021-06-23T09:52:25Z</time>
      </trkpt>
      <trkpt lat="48.12774" lon="7.02685">
        <ele>648.67</ele>
        <time>2021-06-23T09:52:30Z</time>
      </trkpt>
      <trkpt lat="48.12882" lon="7.02738">
        <ele>640.18</ele>
        <time>2021-06-23T09:52:34Z</time>
      </trkpt>
      <trkpt lat="48.12912" lon="7.0274">
        <ele>636.01</ele>
        <time>2021-06-23T09:52:39Z</time>
      </trkpt>
      <trkpt lat="48.12945" lon="7.02733">
        <ele>635.79</ele>
        <time>2021-06-23T09:52:44Z</time>
      </trkpt>
      <trkpt lat="48.12996" lon="7.02718">
        <ele>635.79</ele>
        <time>2021-06-23T09:52:49Z</time>
      </trkpt>
      <trkpt lat="48.13018" lon="7.02718">
        <ele>633.7</ele>
        <time>2021-06-23T09:52:53Z</time>
      </trkpt>
      <trkpt lat="48.13059" lon="7.02743">
        <ele>633.74</ele>
        <time>2021-06-23T09:52:58Z</time>
      </trkpt>
      <trkpt lat="48.13084" lon="7.02747">
        <ele>634.16</ele>
        <time>2021-06-23T09:53:03Z</time>
      </trkpt>
      <trkpt lat="48.13084" lon="7.02747">
        <ele>634.16</ele>
        <time>2021-06-23T09:53:03Z</time>
      </trkpt>
      <trkpt lat="48.13144" lon="7.02757">
        <ele>634.59</ele>
        <time>2021-06-23T09:53:07Z</time>
      </trkpt>
      <trkpt lat="48.13188" lon="7.02743">
        <ele>632.49</ele>
        <time>2021-06-23T09:53:10Z</time>
      </trkpt>
      <trkpt lat="48.13209" lon="7.0274">
        <ele>631.84</ele>
        <time>2021-06-23T09:53:14Z</time>
      </trkpt>
      <trkpt lat="48.13221" lon="7.02745">
        <ele>631.24</ele>
        <time>2021-06-23T09:53:18Z</time>
      </trkpt>
      <trkpt lat="48.13236" lon="7.02768">
        <ele>632.27</ele>
        <time>2021-06-23T09:53:21Z</time>
      </trkpt>
      <trkpt lat="48.13268" lon="7.0274">
        <ele>631.4</ele>
        <time>2021-06-23T09:53:27Z</time>
      </trkpt>
      <trkpt lat="48.13286" lon="7.02731">
        <ele>631.31</ele>
        <time>2021-06-23T09:53:32Z</time>
      </trkpt>
      <trkpt lat="48.13365" lon="7.02726">
        <ele>630.02</ele>
        <time>2021-06-23T09:53:37Z</time>
      </trkpt>
      <trkpt lat="48.13461" lon="7.02729">
        <ele>627.01</ele>
        <time>2021-06-23T09:53:42Z</time>
      </trkpt>
      <trkpt lat="48.13476" lon="7.02723">
        <ele>624.34</ele>
        <time>2021-06-23T09:53:47Z</time>
      </trkpt>
      <trkpt lat="48.13511" lon="7.02701">
        <ele>621.35</ele>
        <time>2021-06-23T09:53:52Z</time>
      </trkpt>
      <trkpt lat="48.13595" lon="7.02642">
        <ele>618.12</ele>
        <time>2021-06-23T09:53:57Z</time>
      </trkpt>
      <trkpt lat="48.1382" lon="7.02491">
        <ele>617.71</ele>
        <time>2021-06-23T09:54:03Z</time>
      </trkpt>
      <trkpt lat="48.13869" lon="7.0246">
        <ele>618.99</ele>
        <time>2021-06-23T09:54:08Z</time>
      </trkpt>
      <trkpt lat="48.13927" lon="7.02431">
        <ele>618.43</ele>
        <time>2021-06-23T09:54:13Z</time>
      </trkpt>
      <trkpt lat="48.14033" lon="7.0239">
        <ele>619.76</ele>
        <time>2021-06-23T09:54:18Z</time>
      </trkpt>
      <trkpt lat="48.14054" lon="7.02371">
        <ele>619.57</ele>
        <time>2021-06-23T09:54:23Z</time>
      </trkpt>
      <trkpt lat="48.14131" lon="7.02277">
        <ele>619.37</ele>
        <time>2021-06-23T09:54:28Z</time>
      </trkpt>
      <trkpt lat="48.14173" lon="7.02199">
        <ele>618.19</ele>
        <time>2021-06-23T09:54:33Z</time>
      </trkpt>
      <trkpt lat="48.1422" lon="7.02137">
        <ele>613.45</ele>
        <time>2021-06-23T09:54:39Z</time>
      </trkpt>
      <trkpt lat="48.14232" lon="7.02116">
        <ele>612.16</ele>
        <time>2021-06-23T09:54:44Z</time>
      </trkpt>
      <trkpt lat="48.14239" lon="7.02097">
        <ele>611.14</ele>
        <time>2021-06-23T09:54:49Z</time>
      </trkpt>
      <trkpt lat="48.14245" lon="7.02065">
        <ele>609.86</ele>
        <time>2021-06-23T09:54:54Z</time>
      </trkpt>
      <trkpt lat="48.14258" lon="7.01967">
        <ele>610.35</ele>
        <time>2021-06-23T09:54:59Z</time>
      </trkpt>
      <trkpt lat="48.14262" lon="7.0194">
        <ele>609.64</ele>
        <time>2021-06-23T09:55:04Z</time>
      </trkpt>
      <trkpt lat="48.14274" lon="7.01909">
        <ele>608.84</ele>
        <time>2021-06-23T09:55:09Z</time>
      </trkpt>
      <trkpt lat="48.14306" lon="7.01837">
        <ele>605.28</ele>
        <time>2021-06-23T09:55:15Z</time>
      </trkpt>
      <trkpt lat="48.14323" lon="7.01788">
        <ele>605.87</ele>
        <time>2021-06-23T09:55:20Z</time>
      </trkpt>
      <trkpt lat="48.14344" lon="7.01723">
        <ele>606.24</ele>
        <time>2021-06-23T09:55:25Z</time>
      </trkpt>
      <trkpt lat="48.14384" lon="7.01634">
        <ele>604.34</ele>
        <time>2021-06-23T09:55:30Z</time>
      </trkpt>
      <trkpt lat="48.14411" lon="7.0158">
        <ele>606</ele>
        <time>2021-06-23T09:55:35Z</time>
      </trkpt>
      <trkpt lat="48.14426" lon="7.01561">
        <ele>606.18</ele>
        <time>2021-06-23T09:55:40Z</time>
      </trkpt>
      <trkpt lat="48.14454" lon="7.01539">
        <ele>606.02</ele>
        <time>2021-06-23T09:55:46Z</time>
      </trkpt>
      <trkpt lat="48.14474" lon="7.01515">
        <ele>605.83</ele>
        <time>2021-06-23T09:55:51Z</time>
      </trkpt>
      <trkpt lat="48.14504" lon="7.01446">
        <ele>602.28</ele>
        <time>2021-06-23T09:55:56Z</time>
      </trkpt>
      <trkpt lat="48.1452" lon="7.01419">
        <ele>601.8</ele>
        <time>2021-06-23T09:56:01Z</time>
      </trkpt>
      <trkpt lat="48.14575" lon="7.01338">
        <ele>603.74</ele>
        <time>2021-06-23T09:56:06Z</time>
      </trkpt>
      <trkpt lat="48.14599" lon="7.01274">
        <ele>603.65</ele>
        <time>2021-06-23T09:56:11Z</time>
      </trkpt>
      <trkpt lat="48.1463" lon="7.01184">
        <ele>601</ele>
        <time>2021-06-23T09:56:16Z</time>
      </trkpt>
      <trkpt lat="48.14647" lon="7.01149">
        <ele>599.93</ele>
        <time>2021-06-23T09:56:22Z</time>
      </trkpt>
      <trkpt lat="48.1467" lon="7.01105">
        <ele>598.93</ele>
        <time>2021-06-23T09:56:27Z</time>
      </trkpt>
      <trkpt lat="48.14691" lon="7.01075">
        <ele>598.18</ele>
        <time>2021-06-23T09:56:32Z</time>
      </trkpt>
      <trkpt lat="48.14806" lon="7.00958">
        <ele>598.47</ele>
        <time>2021-06-23T09:56:37Z</time>
      </trkpt>
      <trkpt lat="48.14814" lon="7.00953">
        <ele>598.65</ele>
        <time>2021-06-23T09:56:42Z</time>
      </trkpt>
      <trkpt lat="48.14814" lon="7.00953">
        <ele>598.65</ele>
        <time>2021-06-23T09:56:42Z</time>
      </trkpt>
      <trkpt lat="48.14866" lon="7.00929">
        <ele>599.17</ele>
        <time>2021-06-23T09:56:48Z</time>
      </trkpt>
      <trkpt lat="48.15001" lon="7.00892">
        <ele>594.1</ele>
        <time>2021-06-23T09:56:53Z</time>
      </trkpt>
      <trkpt lat="48.15048" lon="7.00875">
        <ele>592.78</ele>
        <time>2021-06-23T09:56:59Z</time>
      </trkpt>
      <trkpt lat="48.15072" lon="7.00871">
        <ele>591.16</ele>
        <time>2021-06-23T09:57:04Z</time>
      </trkpt>
      <trkpt lat="48.15094" lon="7.0087">
        <ele>589.82</ele>
        <time>2021-06-23T09:57:10Z</time>
      </trkpt>
      <trkpt lat="48.1517" lon="7.00884">
        <ele>587.52</ele>
        <time>2021-06-23T09:57:16Z</time>
      </trkpt>
      <trkpt lat="48.15251" lon="7.00882">
        <ele>583.74</ele>
        <time>2021-06-23T09:57:21Z</time>
      </trkpt>
      <trkpt lat="48.15292" lon="7.00878">
        <ele>583.8</ele>
        <time>2021-06-23T09:57:27Z</time>
      </trkpt>
      <trkpt lat="48.15356" lon="7.00853">
        <ele>581.69</ele>
        <time>2021-06-23T09:57:32Z</time>
      </trkpt>
      <trkpt lat="48.15407" lon="7.00847">
        <ele>580.49</ele>
        <time>2021-06-23T09:57:38Z</time>
      </trkpt>
      <trkpt lat="48.15481" lon="7.00844">
        <ele>579.74</ele>
        <time>2021-06-23T09:57:43Z</time>
      </trkpt>
      <trkpt lat="48.15719" lon="7.00813">
        <ele>573</ele>
        <time>2021-06-23T09:57:49Z</time>
      </trkpt>
      <trkpt lat="48.15755" lon="7.00817">
        <ele>572.5</ele>
        <time>2021-06-23T09:57:55Z</time>
      </trkpt>
      <trkpt lat="48.15775" lon="7.0083">
        <ele>572.99</ele>
        <time>2021-06-23T09:58:00Z</time>
      </trkpt>
      <trkpt lat="48.15795" lon="7.00856">
        <ele>572.51</ele>
        <time>2021-06-23T09:58:06Z</time>
      </trkpt>
      <trkpt lat="48.15811" lon="7.00884">
        <ele>571.84</ele>
        <time>2021-06-23T09:58:11Z</time>
      </trkpt>
      <trkpt lat="48.15826" lon="7.00904">
        <ele>571.67</ele>
        <time>2021-06-23T09:58:17Z</time>
      </trkpt>
      <trkpt lat="48.15845" lon="7.00916">
        <ele>571.57</ele>
        <time>2021-06-23T09:58:22Z</time>
      </trkpt>
      <trkpt lat="48.15867" lon="7.00914">
        <ele>571.1</ele>
        <time>2021-06-23T09:58:28Z</time>
      </trkpt>
      <trkpt lat="48.16091" lon="7.0086">
        <ele>564.9</ele>
        <time>2021-06-23T09:58:34Z</time>
      </trkpt>
      <trkpt lat="48.16115" lon="7.00862">
        <ele>564.82</ele>
        <time>2021-06-23T09:58:39Z</time>
      </trkpt>
      <trkpt lat="48.1625" lon="7.00905">
        <ele>557.6</ele>
        <time>2021-06-23T09:58:45Z</time>
      </trkpt>
      <trkpt lat="48.16343" lon="7.00962">
        <ele>553.89</ele>
        <time>2021-06-23T09:58:50Z</time>
      </trkpt>
      <trkpt lat="48.16365" lon="7.00972">
        <ele>554.15</ele>
        <time>2021-06-23T09:58:56Z</time>
      </trkpt>
      <trkpt lat="48.16386" lon="7.00978">
        <ele>554.97</ele>
        <time>2021-06-23T09:59:02Z</time>
      </trkpt>
      <trkpt lat="48.16438" lon="7.00985">
        <ele>551.21</ele>
        <time>2021-06-23T09:59:07Z</time>
      </trkpt>
      <trkpt lat="48.165" lon="7.00996">
        <ele>549.01</ele>
        <time>2021-06-23T09:59:13Z</time>
      </trkpt>
      <trkpt lat="48.16515" lon="7.01005">
        <ele>548.3</ele>
        <time>2021-06-23T09:59:18Z</time>
      </trkpt>
      <trkpt lat="48.16531" lon="7.01023">
        <ele>547.09</ele>
        <time>2021-06-23T09:59:24Z</time>
      </trkpt>
      <trkpt lat="48.16568" lon="7.01057">
        <ele>546.48</ele>
        <time>2021-06-23T09:59:29Z</time>
      </trkpt>
      <trkpt lat="48.16587" lon="7.01065">
        <ele>546.76</ele>
        <time>2021-06-23T09:59:35Z</time>
      </trkpt>
      <trkpt lat="48.16603" lon="7.01068">
        <ele>545.56</ele>
        <time>2021-06-23T09:59:41Z</time>
      </trkpt>
      <trkpt lat="48.16644" lon="7.01065">
        <ele>544.15</ele>
        <time>2021-06-23T09:59:46Z</time>
      </trkpt>
      <trkpt lat="48.16657" lon="7.01066">
        <ele>543.74</ele>
        <time>2021-06-23T09:59:52Z</time>
      </trkpt>
      <trkpt lat="48.16739" lon="7.01099">
        <ele>542.49</ele>
        <time>2021-06-23T09:59:57Z</time>
      </trkpt>
      <trkpt lat="48.16753" lon="7.01109">
        <ele>542.09</ele>
        <time>2021-06-23T10:00:03Z</time>
      </trkpt>
      <trkpt lat="48.16768" lon="7.01129">
        <ele>542.22</ele>
        <time>2021-06-23T10:00:08Z</time>
      </trkpt>
      <trkpt lat="48.16796" lon="7.01183">
        <ele>541.34</ele>
        <time>2021-06-23T10:00:14Z</time>
      </trkpt>
      <trkpt lat="48.16813" lon="7.01205">
        <ele>541.02</ele>
        <time>2021-06-23T10:00:20Z</time>
      </trkpt>
      <trkpt lat="48.16868" lon="7.01263">
        <ele>540.09</ele>
        <time>2021-06-23T10:00:25Z</time>
      </trkpt>
      <trkpt lat="48.16885" lon="7.01277">
        <ele>539.29</ele>
        <time>2021-06-23T10:00:31Z</time>
      </trkpt>
      <trkpt lat="48.16977" lon="7.01341">
        <ele>537.9</ele>
        <time>2021-06-23T10:00:36Z</time>
      </trkpt>
      <trkpt lat="48.17063" lon="7.01384">
        <ele>535.35</ele>
        <time>2021-06-23T10:00:42Z</time>
      </trkpt>
      <trkpt lat="48.1714" lon="7.01413">
        <ele>535.02</ele>
        <time>2021-06-23T10:00:47Z</time>
      </trkpt>
      <trkpt lat="48.17214" lon="7.01416">
        <ele>535.3</ele>
        <time>2021-06-23T10:00:53Z</time>
      </trkpt>
      <trkpt lat="48.17233" lon="7.01422">
        <ele>534.69</ele>
        <time>2021-06-23T10:00:59Z</time>
      </trkpt>
      <trkpt lat="48.17248" lon="7.01431">
        <ele>534.61</ele>
        <time>2021-06-23T10:01:04Z</time>
      </trkpt>
      <trkpt lat="48.17248" lon="7.01431">
        <ele>534.61</ele>
        <time>2021-06-23T10:01:04Z</time>
      </trkpt>
      <trkpt lat="48.1726" lon="7.01444">
        <ele>534.61</ele>
        <time>2021-06-23T10:01:06Z</time>
      </trkpt>
      <trkpt lat="48.17201" lon="7.0159">
        <ele>534.76</ele>
        <time>2021-06-23T10:01:10Z</time>
      </trkpt>
      <trkpt lat="48.17175" lon="7.01681">
        <ele>537.54</ele>
        <time>2021-06-23T10:01:15Z</time>
      </trkpt>
      <trkpt lat="48.17165" lon="7.01703">
        <ele>538.05</ele>
        <time>2021-06-23T10:01:20Z</time>
      </trkpt>
      <trkpt lat="48.17112" lon="7.01793">
        <ele>538.97</ele>
        <time>2021-06-23T10:01:24Z</time>
      </trkpt>
      <trkpt lat="48.17105" lon="7.0181">
        <ele>539.21</ele>
        <time>2021-06-23T10:01:29Z</time>
      </trkpt>
      <trkpt lat="48.17084" lon="7.01892">
        <ele>540</ele>
        <time>2021-06-23T10:01:34Z</time>
      </trkpt>
      <trkpt lat="48.17075" lon="7.01933">
        <ele>540.4</ele>
        <time>2021-06-23T10:01:39Z</time>
      </trkpt>
      <trkpt lat="48.17065" lon="7.01964">
        <ele>541.37</ele>
        <time>2021-06-23T10:01:43Z</time>
      </trkpt>
      <trkpt lat="48.17058" lon="7.01977">
        <ele>542.08</ele>
        <time>2021-06-23T10:01:48Z</time>
      </trkpt>
      <trkpt lat="48.1702" lon="7.02036">
        <ele>546.77</ele>
        <time>2021-06-23T10:01:53Z</time>
      </trkpt>
      <trkpt lat="48.16999" lon="7.02083">
        <ele>549.29</ele>
        <time>2021-06-23T10:01:57Z</time>
      </trkpt>
      <trkpt lat="48.16959" lon="7.02212">
        <ele>556.47</ele>
        <time>2021-06-23T10:02:02Z</time>
      </trkpt>
      <trkpt lat="48.16927" lon="7.02325">
        <ele>558.49</ele>
        <time>2021-06-23T10:02:07Z</time>
      </trkpt>
      <trkpt lat="48.16882" lon="7.02475">
        <ele>559.84</ele>
        <time>2021-06-23T10:02:11Z</time>
      </trkpt>
      <trkpt lat="48.16835" lon="7.02656">
        <ele>567.15</ele>
        <time>2021-06-23T10:02:16Z</time>
      </trkpt>
      <trkpt lat="48.16799" lon="7.02793">
        <ele>570.22</ele>
        <time>2021-06-23T10:02:21Z</time>
      </trkpt>
      <trkpt lat="48.16794" lon="7.02821">
        <ele>570.22</ele>
        <time>2021-06-23T10:02:25Z</time>
      </trkpt>
      <trkpt lat="48.16784" lon="7.02947">
        <ele>575.11</ele>
        <time>2021-06-23T10:02:30Z</time>
      </trkpt>
      <trkpt lat="48.16776" lon="7.03064">
        <ele>581.65</ele>
        <time>2021-06-23T10:02:35Z</time>
      </trkpt>
      <trkpt lat="48.16776" lon="7.03095">
        <ele>584.57</ele>
        <time>2021-06-23T10:02:39Z</time>
      </trkpt>
      <trkpt lat="48.16779" lon="7.03116">
        <ele>584.98</ele>
        <time>2021-06-23T10:02:44Z</time>
      </trkpt>
      <trkpt lat="48.16784" lon="7.03134">
        <ele>584.78</ele>
        <time>2021-06-23T10:02:49Z</time>
      </trkpt>
      <trkpt lat="48.16795" lon="7.03157">
        <ele>584.58</ele>
        <time>2021-06-23T10:02:53Z</time>
      </trkpt>
      <trkpt lat="48.16804" lon="7.03173">
        <ele>583.83</ele>
        <time>2021-06-23T10:02:58Z</time>
      </trkpt>
      <trkpt lat="48.16813" lon="7.03182">
        <ele>583.98</ele>
        <time>2021-06-23T10:03:03Z</time>
      </trkpt>
      <trkpt lat="48.16813" lon="7.03182">
        <ele>583.98</ele>
        <time>2021-06-23T10:03:03Z</time>
      </trkpt>
      <trkpt lat="48.16818" lon="7.03187">
        <ele>584.14</ele>
        <time>2021-06-23T10:03:06Z</time>
      </trkpt>
      <trkpt lat="48.16834" lon="7.03195">
        <ele>584.14</ele>
        <time>2021-06-23T10:03:09Z</time>
      </trkpt>
      <trkpt lat="48.16851" lon="7.03199">
        <ele>585.69</ele>
        <time>2021-06-23T10:03:11Z</time>
      </trkpt>
      <trkpt lat="48.16875" lon="7.03193">
        <ele>587.77</ele>
        <time>2021-06-23T10:03:14Z</time>
      </trkpt>
      <trkpt lat="48.16897" lon="7.03171">
        <ele>590.48</ele>
        <time>2021-06-23T10:03:17Z</time>
      </trkpt>
      <trkpt lat="48.16934" lon="7.03112">
        <ele>591.6</ele>
        <time>2021-06-23T10:03:20Z</time>
      </trkpt>
      <trkpt lat="48.17015" lon="7.02969">
        <ele>596.11</ele>
        <time>2021-06-23T10:03:23Z</time>
      </trkpt>
      <trkpt lat="48.17112" lon="7.02811">
        <ele>605.11</ele>
        <time>2021-06-23T10:03:26Z</time>
      </trkpt>
      <trkpt lat="48.17212" lon="7.02673">
        <ele>616.08</ele>
        <time>2021-06-23T10:03:29Z</time>
      </trkpt>
      <trkpt lat="48.17254" lon="7.02612">
        <ele>618.11</ele>
        <time>2021-06-23T10:03:32Z</time>
      </trkpt>
      <trkpt lat="48.1735" lon="7.02479">
        <ele>630.64</ele>
        <time>2021-06-23T10:03:35Z</time>
      </trkpt>
      <trkpt lat="48.17382" lon="7.02448">
        <ele>629.1</ele>
        <time>2021-06-23T10:03:38Z</time>
      </trkpt>
      <trkpt lat="48.17425" lon="7.02424">
        <ele>629.28</ele>
        <time>2021-06-23T10:03:41Z</time>
      </trkpt>
      <trkpt lat="48.1746" lon="7.02412">
        <ele>629.77</ele>
        <time>2021-06-23T10:03:44Z</time>
      </trkpt>
      <trkpt lat="48.17528" lon="7.02394">
        <ele>634.75</ele>
        <time>2021-06-23T10:03:47Z</time>
      </trkpt>
      <trkpt lat="48.17552" lon="7.02392">
        <ele>637</ele>
        <time>2021-06-23T10:03:50Z</time>
      </trkpt>
      <trkpt lat="48.1758" lon="7.02396">
        <ele>637.34</ele>
        <time>2021-06-23T10:03:53Z</time>
      </trkpt>
      <trkpt lat="48.17611" lon="7.02413">
        <ele>640.14</ele>
        <time>2021-06-23T10:03:56Z</time>
      </trkpt>
      <trkpt lat="48.17656" lon="7.02442">
        <ele>645.1</ele>
        <time>2021-06-23T10:03:59Z</time>
      </trkpt>
      <trkpt lat="48.17687" lon="7.02467">
        <ele>646.61</ele>
        <time>2021-06-23T10:04:02Z</time>
      </trkpt>
      <trkpt lat="48.17707" lon="7.02479">
        <ele>647.93</ele>
        <time>2021-06-23T10:04:04Z</time>
      </trkpt>
      <trkpt lat="48.17733" lon="7.02486">
        <ele>650.32</ele>
        <time>2021-06-23T10:04:07Z</time>
      </trkpt>
      <trkpt lat="48.17757" lon="7.02488">
        <ele>652.64</ele>
        <time>2021-06-23T10:04:10Z</time>
      </trkpt>
      <trkpt lat="48.17783" lon="7.02487">
        <ele>652.64</ele>
        <time>2021-06-23T10:04:13Z</time>
      </trkpt>
      <trkpt lat="48.17827" lon="7.02472">
        <ele>652.8</ele>
        <time>2021-06-23T10:04:16Z</time>
      </trkpt>
      <trkpt lat="48.17919" lon="7.0241">
        <ele>656.53</ele>
        <time>2021-06-23T10:04:19Z</time>
      </trkpt>
      <trkpt lat="48.17933" lon="7.02397">
        <ele>657.78</ele>
        <time>2021-06-23T10:04:22Z</time>
      </trkpt>
      <trkpt lat="48.17962" lon="7.0235">
        <ele>660.53</ele>
        <time>2021-06-23T10:04:25Z</time>
      </trkpt>
      <trkpt lat="48.17972" lon="7.02339">
        <ele>661.42</ele>
        <time>2021-06-23T10:04:28Z</time>
      </trkpt>
      <trkpt lat="48.17984" lon="7.02335">
        <ele>661.11</ele>
        <time>2021-06-23T10:04:31Z</time>
      </trkpt>
      <trkpt lat="48.17995" lon="7.02336">
        <ele>661.2</ele>
        <time>2021-06-23T10:04:34Z</time>
      </trkpt>
      <trkpt lat="48.18007" lon="7.02347">
        <ele>661.14</ele>
        <time>2021-06-23T10:04:37Z</time>
      </trkpt>
      <trkpt lat="48.18013" lon="7.02359">
        <ele>661.47</ele>
        <time>2021-06-23T10:04:40Z</time>
      </trkpt>
      <trkpt lat="48.18015" lon="7.0237">
        <ele>662.53</ele>
        <time>2021-06-23T10:04:43Z</time>
      </trkpt>
      <trkpt lat="48.18015" lon="7.02386">
        <ele>664.59</ele>
        <time>2021-06-23T10:04:46Z</time>
      </trkpt>
      <trkpt lat="48.18013" lon="7.02397">
        <ele>665.95</ele>
        <time>2021-06-23T10:04:49Z</time>
      </trkpt>
      <trkpt lat="48.18008" lon="7.02408">
        <ele>667.16</ele>
        <time>2021-06-23T10:04:52Z</time>
      </trkpt>
      <trkpt lat="48.18002" lon="7.02417">
        <ele>667.98</ele>
        <time>2021-06-23T10:04:55Z</time>
      </trkpt>
      <trkpt lat="48.17953" lon="7.02442">
        <ele>668.8</ele>
        <time>2021-06-23T10:04:58Z</time>
      </trkpt>
      <trkpt lat="48.17937" lon="7.02455">
        <ele>669.04</ele>
        <time>2021-06-23T10:05:00Z</time>
      </trkpt>
      <trkpt lat="48.1789" lon="7.02518">
        <ele>677.74</ele>
        <time>2021-06-23T10:05:03Z</time>
      </trkpt>
      <trkpt lat="48.17836" lon="7.026">
        <ele>686.48</ele>
        <time>2021-06-23T10:05:06Z</time>
      </trkpt>
      <trkpt lat="48.17815" lon="7.02619">
        <ele>688.62</ele>
        <time>2021-06-23T10:05:09Z</time>
      </trkpt>
      <trkpt lat="48.17788" lon="7.02638">
        <ele>687.61</ele>
        <time>2021-06-23T10:05:12Z</time>
      </trkpt>
      <trkpt lat="48.17716" lon="7.02668">
        <ele>686.99</ele>
        <time>2021-06-23T10:05:15Z</time>
      </trkpt>
      <trkpt lat="48.17679" lon="7.02682">
        <ele>688.82</ele>
        <time>2021-06-23T10:05:18Z</time>
      </trkpt>
      <trkpt lat="48.17653" lon="7.0269">
        <ele>690.6</ele>
        <time>2021-06-23T10:05:21Z</time>
      </trkpt>
      <trkpt lat="48.17627" lon="7.02695">
        <ele>693.34</ele>
        <time>2021-06-23T10:05:24Z</time>
      </trkpt>
      <trkpt lat="48.17605" lon="7.02695">
        <ele>695.79</ele>
        <time>2021-06-23T10:05:27Z</time>
      </trkpt>
      <trkpt lat="48.17559" lon="7.02691">
        <ele>698.06</ele>
        <time>2021-06-23T10:05:30Z</time>
      </trkpt>
      <trkpt lat="48.17541" lon="7.02694">
        <ele>699.44</ele>
        <time>2021-06-23T10:05:33Z</time>
      </trkpt>
      <trkpt lat="48.17526" lon="7.02701">
        <ele>701.04</ele>
        <time>2021-06-23T10:05:36Z</time>
      </trkpt>
      <trkpt lat="48.17509" lon="7.02712">
        <ele>700.97</ele>
        <time>2021-06-23T10:05:39Z</time>
      </trkpt>
      <trkpt lat="48.17487" lon="7.02736">
        <ele>702.8</ele>
        <time>2021-06-23T10:05:42Z</time>
      </trkpt>
      <trkpt lat="48.17465" lon="7.02773">
        <ele>706.29</ele>
        <time>2021-06-23T10:05:45Z</time>
      </trkpt>
      <trkpt lat="48.17349" lon="7.02978">
        <ele>711.17</ele>
        <time>2021-06-23T10:05:48Z</time>
      </trkpt>
      <trkpt lat="48.1733" lon="7.03015">
        <ele>714.92</ele>
        <time>2021-06-23T10:05:51Z</time>
      </trkpt>
      <trkpt lat="48.17319" lon="7.0304">
        <ele>716.85</ele>
        <time>2021-06-23T10:05:53Z</time>
      </trkpt>
      <trkpt lat="48.17304" lon="7.031">
        <ele>720.95</ele>
        <time>2021-06-23T10:05:56Z</time>
      </trkpt>
      <trkpt lat="48.173" lon="7.03136">
        <ele>723.37</ele>
        <time>2021-06-23T10:05:59Z</time>
      </trkpt>
      <trkpt lat="48.17303" lon="7.03316">
        <ele>730.45</ele>
        <time>2021-06-23T10:06:02Z</time>
      </trkpt>
      <trkpt lat="48.17306" lon="7.03349">
        <ele>731.2</ele>
        <time>2021-06-23T10:06:05Z</time>
      </trkpt>
      <trkpt lat="48.17319" lon="7.03401">
        <ele>732.22</ele>
        <time>2021-06-23T10:06:08Z</time>
      </trkpt>
      <trkpt lat="48.17329" lon="7.03425">
        <ele>731.97</ele>
        <time>2021-06-23T10:06:11Z</time>
      </trkpt>
      <trkpt lat="48.17347" lon="7.03457">
        <ele>735.65</ele>
        <time>2021-06-23T10:06:14Z</time>
      </trkpt>
      <trkpt lat="48.17366" lon="7.0348">
        <ele>738.56</ele>
        <time>2021-06-23T10:06:17Z</time>
      </trkpt>
      <trkpt lat="48.17424" lon="7.03533">
        <ele>739.33</ele>
        <time>2021-06-23T10:06:20Z</time>
      </trkpt>
      <trkpt lat="48.17448" lon="7.03559">
        <ele>739.92</ele>
        <time>2021-06-23T10:06:23Z</time>
      </trkpt>
      <trkpt lat="48.17466" lon="7.03585">
        <ele>741.69</ele>
        <time>2021-06-23T10:06:26Z</time>
      </trkpt>
      <trkpt lat="48.17478" lon="7.03611">
        <ele>743.25</ele>
        <time>2021-06-23T10:06:29Z</time>
      </trkpt>
      <trkpt lat="48.17489" lon="7.03641">
        <ele>745.39</ele>
        <time>2021-06-23T10:06:32Z</time>
      </trkpt>
      <trkpt lat="48.17496" lon="7.03671">
        <ele>747.05</ele>
        <time>2021-06-23T10:06:35Z</time>
      </trkpt>
      <trkpt lat="48.17504" lon="7.03724">
        <ele>748.86</ele>
        <time>2021-06-23T10:06:38Z</time>
      </trkpt>
      <trkpt lat="48.1751" lon="7.03782">
        <ele>748.77</ele>
        <time>2021-06-23T10:06:41Z</time>
      </trkpt>
      <trkpt lat="48.17509" lon="7.03821">
        <ele>748.97</ele>
        <time>2021-06-23T10:06:44Z</time>
      </trkpt>
      <trkpt lat="48.17501" lon="7.03897">
        <ele>752.16</ele>
        <time>2021-06-23T10:06:47Z</time>
      </trkpt>
      <trkpt lat="48.17495" lon="7.03915">
        <ele>752.47</ele>
        <time>2021-06-23T10:06:49Z</time>
      </trkpt>
      <trkpt lat="48.17487" lon="7.03931">
        <ele>753.95</ele>
        <time>2021-06-23T10:06:52Z</time>
      </trkpt>
      <trkpt lat="48.17473" lon="7.03955">
        <ele>754.24</ele>
        <time>2021-06-23T10:06:55Z</time>
      </trkpt>
      <trkpt lat="48.17448" lon="7.03974">
        <ele>759.99</ele>
        <time>2021-06-23T10:06:58Z</time>
      </trkpt>
      <trkpt lat="48.17436" lon="7.03978">
        <ele>762.66</ele>
        <time>2021-06-23T10:07:01Z</time>
      </trkpt>
      <trkpt lat="48.17423" lon="7.0398">
        <ele>765.01</ele>
        <time>2021-06-23T10:07:04Z</time>
      </trkpt>
      <trkpt lat="48.17363" lon="7.03977">
        <ele>774.85</ele>
        <time>2021-06-23T10:07:07Z</time>
      </trkpt>
      <trkpt lat="48.17341" lon="7.03978">
        <ele>777.72</ele>
        <time>2021-06-23T10:07:10Z</time>
      </trkpt>
      <trkpt lat="48.17313" lon="7.03982">
        <ele>781.51</ele>
        <time>2021-06-23T10:07:13Z</time>
      </trkpt>
      <trkpt lat="48.1725" lon="7.04003">
        <ele>785.84</ele>
        <time>2021-06-23T10:07:16Z</time>
      </trkpt>
      <trkpt lat="48.17216" lon="7.04017">
        <ele>786.39</ele>
        <time>2021-06-23T10:07:19Z</time>
      </trkpt>
      <trkpt lat="48.17197" lon="7.04028">
        <ele>785.57</ele>
        <time>2021-06-23T10:07:22Z</time>
      </trkpt>
      <trkpt lat="48.17183" lon="7.04039">
        <ele>784.68</ele>
        <time>2021-06-23T10:07:25Z</time>
      </trkpt>
      <trkpt lat="48.17146" lon="7.0408">
        <ele>783.17</ele>
        <time>2021-06-23T10:07:28Z</time>
      </trkpt>
      <trkpt lat="48.17104" lon="7.04142">
        <ele>787.51</ele>
        <time>2021-06-23T10:07:31Z</time>
      </trkpt>
      <trkpt lat="48.17095" lon="7.04163">
        <ele>787.16</ele>
        <time>2021-06-23T10:07:34Z</time>
      </trkpt>
      <trkpt lat="48.17077" lon="7.0421">
        <ele>787.04</ele>
        <time>2021-06-23T10:07:37Z</time>
      </trkpt>
      <trkpt lat="48.17051" lon="7.04322">
        <ele>791.5</ele>
        <time>2021-06-23T10:07:40Z</time>
      </trkpt>
      <trkpt lat="48.17008" lon="7.04563">
        <ele>807.36</ele>
        <time>2021-06-23T10:07:42Z</time>
      </trkpt>
      <trkpt lat="48.16998" lon="7.04603">
        <ele>808.22</ele>
        <time>2021-06-23T10:07:45Z</time>
      </trkpt>
      <trkpt lat="48.16962" lon="7.0471">
        <ele>810.04</ele>
        <time>2021-06-23T10:07:48Z</time>
      </trkpt>
      <trkpt lat="48.16877" lon="7.04902">
        <ele>823.38</ele>
        <time>2021-06-23T10:07:51Z</time>
      </trkpt>
      <trkpt lat="48.1683" lon="7.04996">
        <ele>824.73</ele>
        <time>2021-06-23T10:07:54Z</time>
      </trkpt>
      <trkpt lat="48.1682" lon="7.05021">
        <ele>823.39</ele>
        <time>2021-06-23T10:07:57Z</time>
      </trkpt>
      <trkpt lat="48.16814" lon="7.05043">
        <ele>822.51</ele>
        <time>2021-06-23T10:08:00Z</time>
      </trkpt>
      <trkpt lat="48.16812" lon="7.05063">
        <ele>823.16</ele>
        <time>2021-06-23T10:08:03Z</time>
      </trkpt>
      <trkpt lat="48.16812" lon="7.05083">
        <ele>824.16</ele>
        <time>2021-06-23T10:08:06Z</time>
      </trkpt>
      <trkpt lat="48.16817" lon="7.05105">
        <ele>826.31</ele>
        <time>2021-06-23T10:08:09Z</time>
      </trkpt>
      <trkpt lat="48.16829" lon="7.05135">
        <ele>829.88</ele>
        <time>2021-06-23T10:08:12Z</time>
      </trkpt>
      <trkpt lat="48.16849" lon="7.05174">
        <ele>835.91</ele>
        <time>2021-06-23T10:08:15Z</time>
      </trkpt>
      <trkpt lat="48.1689" lon="7.05239">
        <ele>839.24</ele>
        <time>2021-06-23T10:08:18Z</time>
      </trkpt>
      <trkpt lat="48.16981" lon="7.05398">
        <ele>845.68</ele>
        <time>2021-06-23T10:08:21Z</time>
      </trkpt>
      <trkpt lat="48.17" lon="7.05421">
        <ele>848.51</ele>
        <time>2021-06-23T10:08:24Z</time>
      </trkpt>
      <trkpt lat="48.1705" lon="7.05473">
        <ele>855.65</ele>
        <time>2021-06-23T10:08:27Z</time>
      </trkpt>
      <trkpt lat="48.17069" lon="7.05497">
        <ele>856.53</ele>
        <time>2021-06-23T10:08:30Z</time>
      </trkpt>
      <trkpt lat="48.17085" lon="7.05523">
        <ele>856.26</ele>
        <time>2021-06-23T10:08:33Z</time>
      </trkpt>
      <trkpt lat="48.17097" lon="7.05554">
        <ele>855.96</ele>
        <time>2021-06-23T10:08:36Z</time>
      </trkpt>
      <trkpt lat="48.17105" lon="7.05584">
        <ele>856.53</ele>
        <time>2021-06-23T10:08:38Z</time>
      </trkpt>
      <trkpt lat="48.17113" lon="7.05619">
        <ele>859.73</ele>
        <time>2021-06-23T10:08:41Z</time>
      </trkpt>
      <trkpt lat="48.17115" lon="7.05652">
        <ele>860.05</ele>
        <time>2021-06-23T10:08:44Z</time>
      </trkpt>
      <trkpt lat="48.17115" lon="7.05678">
        <ele>859.46</ele>
        <time>2021-06-23T10:08:47Z</time>
      </trkpt>
      <trkpt lat="48.17111" lon="7.05707">
        <ele>857.81</ele>
        <time>2021-06-23T10:08:50Z</time>
      </trkpt>
      <trkpt lat="48.17102" lon="7.05738">
        <ele>858.95</ele>
        <time>2021-06-23T10:08:53Z</time>
      </trkpt>
      <trkpt lat="48.17088" lon="7.05766">
        <ele>860.32</ele>
        <time>2021-06-23T10:08:56Z</time>
      </trkpt>
      <trkpt lat="48.17049" lon="7.05827">
        <ele>864.79</ele>
        <time>2021-06-23T10:08:59Z</time>
      </trkpt>
      <trkpt lat="48.17023" lon="7.05857">
        <ele>870.05</ele>
        <time>2021-06-23T10:09:02Z</time>
      </trkpt>
      <trkpt lat="48.1696" lon="7.05893">
        <ele>869.67</ele>
        <time>2021-06-23T10:09:05Z</time>
      </trkpt>
      <trkpt lat="48.16864" lon="7.05972">
        <ele>874.55</ele>
        <time>2021-06-23T10:09:08Z</time>
      </trkpt>
      <trkpt lat="48.16814" lon="7.06008">
        <ele>870.61</ele>
        <time>2021-06-23T10:09:11Z</time>
      </trkpt>
      <trkpt lat="48.1679" lon="7.06033">
        <ele>872.59</ele>
        <time>2021-06-23T10:09:14Z</time>
      </trkpt>
      <trkpt lat="48.16772" lon="7.06055">
        <ele>875.52</ele>
        <time>2021-06-23T10:09:17Z</time>
      </trkpt>
      <trkpt lat="48.16757" lon="7.06081">
        <ele>878.51</ele>
        <time>2021-06-23T10:09:20Z</time>
      </trkpt>
      <trkpt lat="48.16747" lon="7.06108">
        <ele>880.68</ele>
        <time>2021-06-23T10:09:23Z</time>
      </trkpt>
      <trkpt lat="48.16735" lon="7.06149">
        <ele>884.44</ele>
        <time>2021-06-23T10:09:26Z</time>
      </trkpt>
      <trkpt lat="48.16728" lon="7.06205">
        <ele>886.24</ele>
        <time>2021-06-23T10:09:29Z</time>
      </trkpt>
      <trkpt lat="48.16724" lon="7.06363">
        <ele>895.55</ele>
        <time>2021-06-23T10:09:31Z</time>
      </trkpt>
      <trkpt lat="48.16717" lon="7.06513">
        <ele>902.91</ele>
        <time>2021-06-23T10:09:34Z</time>
      </trkpt>
      <trkpt lat="48.16715" lon="7.06602">
        <ele>903.92</ele>
        <time>2021-06-23T10:09:37Z</time>
      </trkpt>
      <trkpt lat="48.16721" lon="7.0674">
        <ele>911.2</ele>
        <time>2021-06-23T10:09:40Z</time>
      </trkpt>
      <trkpt lat="48.16721" lon="7.06786">
        <ele>913.78</ele>
        <time>2021-06-23T10:09:43Z</time>
      </trkpt>
      <trkpt lat="48.16717" lon="7.06826">
        <ele>915.45</ele>
        <time>2021-06-23T10:09:46Z</time>
      </trkpt>
      <trkpt lat="48.16682" lon="7.06973">
        <ele>916.93</ele>
        <time>2021-06-23T10:09:49Z</time>
      </trkpt>
      <trkpt lat="48.16675" lon="7.07015">
        <ele>916.03</ele>
        <time>2021-06-23T10:09:52Z</time>
      </trkpt>
      <trkpt lat="48.16674" lon="7.07052">
        <ele>918.34</ele>
        <time>2021-06-23T10:09:55Z</time>
      </trkpt>
      <trkpt lat="48.16682" lon="7.07193">
        <ele>925.52</ele>
        <time>2021-06-23T10:09:58Z</time>
      </trkpt>
      <trkpt lat="48.1668" lon="7.07251">
        <ele>928.42</ele>
        <time>2021-06-23T10:10:01Z</time>
      </trkpt>
      <trkpt lat="48.16676" lon="7.07308">
        <ele>929.66</ele>
        <time>2021-06-23T10:10:04Z</time>
      </trkpt>
      <trkpt lat="48.16634" lon="7.07534">
        <ele>937.38</ele>
        <time>2021-06-23T10:10:07Z</time>
      </trkpt>
      <trkpt lat="48.16625" lon="7.07566">
        <ele>936.89</ele>
        <time>2021-06-23T10:10:10Z</time>
      </trkpt>
      <trkpt lat="48.16615" lon="7.07593">
        <ele>937.7</ele>
        <time>2021-06-23T10:10:13Z</time>
      </trkpt>
      <trkpt lat="48.16586" lon="7.07659">
        <ele>942.32</ele>
        <time>2021-06-23T10:10:16Z</time>
      </trkpt>
      <trkpt lat="48.16576" lon="7.07685">
        <ele>942.93</ele>
        <time>2021-06-23T10:10:19Z</time>
      </trkpt>
      <trkpt lat="48.16516" lon="7.07895">
        <ele>947.67</ele>
        <time>2021-06-23T10:10:22Z</time>
      </trkpt>
      <trkpt lat="48.16508" lon="7.07918">
        <ele>948.06</ele>
        <time>2021-06-23T10:10:25Z</time>
      </trkpt>
      <trkpt lat="48.16491" lon="7.07955">
        <ele>949.61</ele>
        <time>2021-06-23T10:10:28Z</time>
      </trkpt>
      <trkpt lat="48.16515" lon="7.07976">
        <ele>957.44</ele>
        <time>2021-06-23T10:10:30Z</time>
      </trkpt>
      <trkpt lat="48.16515" lon="7.07976">
        <ele>957.44</ele>
        <time>2021-06-23T10:10:30Z</time>
      </trkpt>
      <trkpt lat="48.16598" lon="7.0807">
        <ele>963.47</ele>
        <time>2021-06-23T10:10:32Z</time>
      </trkpt>
      <trkpt lat="48.16614" lon="7.08084">
        <ele>963.31</ele>
        <time>2021-06-23T10:10:35Z</time>
      </trkpt>
      <trkpt lat="48.16678" lon="7.08132">
        <ele>961.3</ele>
        <time>2021-06-23T10:10:37Z</time>
      </trkpt>
      <trkpt lat="48.16724" lon="7.08151">
        <ele>961.81</ele>
        <time>2021-06-23T10:10:39Z</time>
      </trkpt>
      <trkpt lat="48.16783" lon="7.08161">
        <ele>958.31</ele>
        <time>2021-06-23T10:10:42Z</time>
      </trkpt>
      <trkpt lat="48.16816" lon="7.08161">
        <ele>959.41</ele>
        <time>2021-06-23T10:10:44Z</time>
      </trkpt>
      <trkpt lat="48.16845" lon="7.08151">
        <ele>967.49</ele>
        <time>2021-06-23T10:10:47Z</time>
      </trkpt>
      <trkpt lat="48.1686" lon="7.08151">
        <ele>969.77</ele>
        <time>2021-06-23T10:10:49Z</time>
      </trkpt>
      <trkpt lat="48.16873" lon="7.08158">
        <ele>969.7</ele>
        <time>2021-06-23T10:10:51Z</time>
      </trkpt>
      <trkpt lat="48.16881" lon="7.08167">
        <ele>968.53</ele>
        <time>2021-06-23T10:10:54Z</time>
      </trkpt>
      <trkpt lat="48.16888" lon="7.08179">
        <ele>967.58</ele>
        <time>2021-06-23T10:10:56Z</time>
      </trkpt>
      <trkpt lat="48.16892" lon="7.08192">
        <ele>966.29</ele>
        <time>2021-06-23T10:10:59Z</time>
      </trkpt>
      <trkpt lat="48.16895" lon="7.08211">
        <ele>965.2</ele>
        <time>2021-06-23T10:11:01Z</time>
      </trkpt>
      <trkpt lat="48.16898" lon="7.0825">
        <ele>961.83</ele>
        <time>2021-06-23T10:11:03Z</time>
      </trkpt>
      <trkpt lat="48.16908" lon="7.08505">
        <ele>955.02</ele>
        <time>2021-06-23T10:11:06Z</time>
      </trkpt>
      <trkpt lat="48.16907" lon="7.08529">
        <ele>954.62</ele>
        <time>2021-06-23T10:11:08Z</time>
      </trkpt>
      <trkpt lat="48.16901" lon="7.08617">
        <ele>947.75</ele>
        <time>2021-06-23T10:11:11Z</time>
      </trkpt>
      <trkpt lat="48.16903" lon="7.08668">
        <ele>940.4</ele>
        <time>2021-06-23T10:11:13Z</time>
      </trkpt>
      <trkpt lat="48.16914" lon="7.08707">
        <ele>940.23</ele>
        <time>2021-06-23T10:11:15Z</time>
      </trkpt>
      <trkpt lat="48.16953" lon="7.08782">
        <ele>944.26</ele>
        <time>2021-06-23T10:11:18Z</time>
      </trkpt>
      <trkpt lat="48.16978" lon="7.0882">
        <ele>945.05</ele>
        <time>2021-06-23T10:11:20Z</time>
      </trkpt>
      <trkpt lat="48.17003" lon="7.08849">
        <ele>945.28</ele>
        <time>2021-06-23T10:11:23Z</time>
      </trkpt>
      <trkpt lat="48.17083" lon="7.08917">
        <ele>945.84</ele>
        <time>2021-06-23T10:11:25Z</time>
      </trkpt>
      <trkpt lat="48.17098" lon="7.08928">
        <ele>942.94</ele>
        <time>2021-06-23T10:11:27Z</time>
      </trkpt>
      <trkpt lat="48.17181" lon="7.08957">
        <ele>939.73</ele>
        <time>2021-06-23T10:11:30Z</time>
      </trkpt>
      <trkpt lat="48.17192" lon="7.08965">
        <ele>938.57</ele>
        <time>2021-06-23T10:11:32Z</time>
      </trkpt>
      <trkpt lat="48.17231" lon="7.09021">
        <ele>928.56</ele>
        <time>2021-06-23T10:11:35Z</time>
      </trkpt>
      <trkpt lat="48.17255" lon="7.09039">
        <ele>926.82</ele>
        <time>2021-06-23T10:11:37Z</time>
      </trkpt>
      <trkpt lat="48.17277" lon="7.09042">
        <ele>927.42</ele>
        <time>2021-06-23T10:11:39Z</time>
      </trkpt>
      <trkpt lat="48.17294" lon="7.09037">
        <ele>925.63</ele>
        <time>2021-06-23T10:11:42Z</time>
      </trkpt>
      <trkpt lat="48.17306" lon="7.09022">
        <ele>927.55</ele>
        <time>2021-06-23T10:11:44Z</time>
      </trkpt>
      <trkpt lat="48.17314" lon="7.09002">
        <ele>930.38</ele>
        <time>2021-06-23T10:11:47Z</time>
      </trkpt>
      <trkpt lat="48.17326" lon="7.08916">
        <ele>944.63</ele>
        <time>2021-06-23T10:11:49Z</time>
      </trkpt>
      <trkpt lat="48.17333" lon="7.08891">
        <ele>945.11</ele>
        <time>2021-06-23T10:11:51Z</time>
      </trkpt>
      <trkpt lat="48.17341" lon="7.08875">
        <ele>944</ele>
        <time>2021-06-23T10:11:54Z</time>
      </trkpt>
      <trkpt lat="48.1735" lon="7.08866">
        <ele>942</ele>
        <time>2021-06-23T10:11:56Z</time>
      </trkpt>
      <trkpt lat="48.1742" lon="7.08824">
        <ele>948.85</ele>
        <time>2021-06-23T10:11:59Z</time>
      </trkpt>
      <trkpt lat="48.17434" lon="7.08819">
        <ele>952.72</ele>
        <time>2021-06-23T10:12:01Z</time>
      </trkpt>
      <trkpt lat="48.17448" lon="7.08818">
        <ele>956.34</ele>
        <time>2021-06-23T10:12:03Z</time>
      </trkpt>
      <trkpt lat="48.17461" lon="7.08825">
        <ele>960.28</ele>
        <time>2021-06-23T10:12:06Z</time>
      </trkpt>
      <trkpt lat="48.17468" lon="7.08832">
        <ele>962.21</ele>
        <time>2021-06-23T10:12:08Z</time>
      </trkpt>
      <trkpt lat="48.17481" lon="7.08851">
        <ele>963.25</ele>
        <time>2021-06-23T10:12:11Z</time>
      </trkpt>
      <trkpt lat="48.17499" lon="7.08888">
        <ele>960.83</ele>
        <time>2021-06-23T10:12:13Z</time>
      </trkpt>
      <trkpt lat="48.1751" lon="7.08916">
        <ele>958.68</ele>
        <time>2021-06-23T10:12:15Z</time>
      </trkpt>
      <trkpt lat="48.17518" lon="7.08947">
        <ele>957.11</ele>
        <time>2021-06-23T10:12:18Z</time>
      </trkpt>
      <trkpt lat="48.17529" lon="7.09">
        <ele>953.67</ele>
        <time>2021-06-23T10:12:20Z</time>
      </trkpt>
      <trkpt lat="48.17537" lon="7.0902">
        <ele>955.35</ele>
        <time>2021-06-23T10:12:23Z</time>
      </trkpt>
      <trkpt lat="48.17561" lon="7.09071">
        <ele>956.27</ele>
        <time>2021-06-23T10:12:25Z</time>
      </trkpt>
      <trkpt lat="48.17591" lon="7.09129">
        <ele>957.9</ele>
        <time>2021-06-23T10:12:27Z</time>
      </trkpt>
      <trkpt lat="48.17607" lon="7.09152">
        <ele>957.56</ele>
        <time>2021-06-23T10:12:30Z</time>
      </trkpt>
      <trkpt lat="48.1762" lon="7.09163">
        <ele>957.53</ele>
        <time>2021-06-23T10:12:32Z</time>
      </trkpt>
      <trkpt lat="48.17633" lon="7.0917">
        <ele>958.57</ele>
        <time>2021-06-23T10:12:35Z</time>
      </trkpt>
      <trkpt lat="48.17647" lon="7.09173">
        <ele>960.59</ele>
        <time>2021-06-23T10:12:37Z</time>
      </trkpt>
      <trkpt lat="48.17664" lon="7.09172">
        <ele>964.92</ele>
        <time>2021-06-23T10:12:39Z</time>
      </trkpt>
      <trkpt lat="48.17694" lon="7.09166">
        <ele>965.25</ele>
        <time>2021-06-23T10:12:42Z</time>
      </trkpt>
      <trkpt lat="48.17705" lon="7.09159">
        <ele>965.52</ele>
        <time>2021-06-23T10:12:44Z</time>
      </trkpt>
      <trkpt lat="48.17714" lon="7.09144">
        <ele>968.37</ele>
        <time>2021-06-23T10:12:47Z</time>
      </trkpt>
      <trkpt lat="48.17743" lon="7.09059">
        <ele>989.49</ele>
        <time>2021-06-23T10:12:49Z</time>
      </trkpt>
      <trkpt lat="48.17765" lon="7.09021">
        <ele>990.37</ele>
        <time>2021-06-23T10:12:51Z</time>
      </trkpt>
      <trkpt lat="48.17782" lon="7.09008">
        <ele>989.59</ele>
        <time>2021-06-23T10:12:54Z</time>
      </trkpt>
      <trkpt lat="48.17795" lon="7.09006">
        <ele>993.63</ele>
        <time>2021-06-23T10:12:56Z</time>
      </trkpt>
      <trkpt lat="48.17808" lon="7.09011">
        <ele>995.18</ele>
        <time>2021-06-23T10:12:59Z</time>
      </trkpt>
      <trkpt lat="48.17818" lon="7.09021">
        <ele>995.04</ele>
        <time>2021-06-23T10:13:01Z</time>
      </trkpt>
      <trkpt lat="48.17844" lon="7.09079">
        <ele>984.85</ele>
        <time>2021-06-23T10:13:03Z</time>
      </trkpt>
      <trkpt lat="48.17852" lon="7.09092">
        <ele>984.68</ele>
        <time>2021-06-23T10:13:06Z</time>
      </trkpt>
      <trkpt lat="48.17862" lon="7.09103">
        <ele>985.74</ele>
        <time>2021-06-23T10:13:08Z</time>
      </trkpt>
      <trkpt lat="48.17869" lon="7.09107">
        <ele>986.7</ele>
        <time>2021-06-23T10:13:11Z</time>
      </trkpt>
      <trkpt lat="48.17883" lon="7.09109">
        <ele>989.39</ele>
        <time>2021-06-23T10:13:13Z</time>
      </trkpt>
      <trkpt lat="48.17894" lon="7.09105">
        <ele>992.94</ele>
        <time>2021-06-23T10:13:15Z</time>
      </trkpt>
      <trkpt lat="48.17927" lon="7.09086">
        <ele>1001.49</ele>
        <time>2021-06-23T10:13:18Z</time>
      </trkpt>
      <trkpt lat="48.18006" lon="7.09035">
        <ele>1008.85</ele>
        <time>2021-06-23T10:13:20Z</time>
      </trkpt>
      <trkpt lat="48.1807" lon="7.09005">
        <ele>1011.22</ele>
        <time>2021-06-23T10:13:23Z</time>
      </trkpt>
      <trkpt lat="48.18085" lon="7.08994">
        <ele>1015.35</ele>
        <time>2021-06-23T10:13:25Z</time>
      </trkpt>
      <trkpt lat="48.18101" lon="7.08974">
        <ele>1027.55</ele>
        <time>2021-06-23T10:13:27Z</time>
      </trkpt>
      <trkpt lat="48.18129" lon="7.08931">
        <ele>1039.23</ele>
        <time>2021-06-23T10:13:30Z</time>
      </trkpt>
      <trkpt lat="48.18145" lon="7.0891">
        <ele>1040.23</ele>
        <time>2021-06-23T10:13:32Z</time>
      </trkpt>
      <trkpt lat="48.18162" lon="7.08897">
        <ele>1039.17</ele>
        <time>2021-06-23T10:13:35Z</time>
      </trkpt>
      <trkpt lat="48.18221" lon="7.08862">
        <ele>1046.63</ele>
        <time>2021-06-23T10:13:37Z</time>
      </trkpt>
      <trkpt lat="48.18229" lon="7.08861">
        <ele>1048.74</ele>
        <time>2021-06-23T10:13:39Z</time>
      </trkpt>
      <trkpt lat="48.18239" lon="7.08865">
        <ele>1050.41</ele>
        <time>2021-06-23T10:13:42Z</time>
      </trkpt>
      <trkpt lat="48.18251" lon="7.08878">
        <ele>1050.67</ele>
        <time>2021-06-23T10:13:44Z</time>
      </trkpt>
      <trkpt lat="48.18257" lon="7.08889">
        <ele>1050.4</ele>
        <time>2021-06-23T10:13:47Z</time>
      </trkpt>
      <trkpt lat="48.18261" lon="7.08902">
        <ele>1050.23</ele>
        <time>2021-06-23T10:13:49Z</time>
      </trkpt>
      <trkpt lat="48.18264" lon="7.08923">
        <ele>1049.39</ele>
        <time>2021-06-23T10:13:51Z</time>
      </trkpt>
      <trkpt lat="48.18267" lon="7.0904">
        <ele>1052.11</ele>
        <time>2021-06-23T10:13:54Z</time>
      </trkpt>
      <trkpt lat="48.1827" lon="7.09113">
        <ele>1058.38</ele>
        <time>2021-06-23T10:13:56Z</time>
      </trkpt>
      <trkpt lat="48.18282" lon="7.0922">
        <ele>1068.85</ele>
        <time>2021-06-23T10:13:59Z</time>
      </trkpt>
      <trkpt lat="48.18286" lon="7.09244">
        <ele>1070.69</ele>
        <time>2021-06-23T10:14:01Z</time>
      </trkpt>
      <trkpt lat="48.18293" lon="7.09265">
        <ele>1071.1</ele>
        <time>2021-06-23T10:14:03Z</time>
      </trkpt>
      <trkpt lat="48.183" lon="7.09278">
        <ele>1071.42</ele>
        <time>2021-06-23T10:14:06Z</time>
      </trkpt>
      <trkpt lat="48.18311" lon="7.0929">
        <ele>1071.42</ele>
        <time>2021-06-23T10:14:08Z</time>
      </trkpt>
      <trkpt lat="48.18324" lon="7.09302">
        <ele>1070.57</ele>
        <time>2021-06-23T10:14:11Z</time>
      </trkpt>
      <trkpt lat="48.18341" lon="7.09309">
        <ele>1070.14</ele>
        <time>2021-06-23T10:14:13Z</time>
      </trkpt>
      <trkpt lat="48.18391" lon="7.09322">
        <ele>1073.81</ele>
        <time>2021-06-23T10:14:15Z</time>
      </trkpt>
      <trkpt lat="48.18495" lon="7.09338">
        <ele>1074.95</ele>
        <time>2021-06-23T10:14:18Z</time>
      </trkpt>
      <trkpt lat="48.18535" lon="7.09349">
        <ele>1072.22</ele>
        <time>2021-06-23T10:14:20Z</time>
      </trkpt>
      <trkpt lat="48.18576" lon="7.09373">
        <ele>1070.06</ele>
        <time>2021-06-23T10:14:23Z</time>
      </trkpt>
      <trkpt lat="48.18685" lon="7.09445">
        <ele>1075.58</ele>
        <time>2021-06-23T10:14:25Z</time>
      </trkpt>
      <trkpt lat="48.18704" lon="7.09463">
        <ele>1075.1</ele>
        <time>2021-06-23T10:14:27Z</time>
      </trkpt>
      <trkpt lat="48.18717" lon="7.09483">
        <ele>1074.92</ele>
        <time>2021-06-23T10:14:30Z</time>
      </trkpt>
      <trkpt lat="48.18752" lon="7.0955">
        <ele>1072.72</ele>
        <time>2021-06-23T10:14:32Z</time>
      </trkpt>
      <trkpt lat="48.18813" lon="7.09729">
        <ele>1076.28</ele>
        <time>2021-06-23T10:14:35Z</time>
      </trkpt>
      <trkpt lat="48.18823" lon="7.09764">
        <ele>1075.66</ele>
        <time>2021-06-23T10:14:37Z</time>
      </trkpt>
      <trkpt lat="48.18826" lon="7.09783">
        <ele>1075.37</ele>
        <time>2021-06-23T10:14:39Z</time>
      </trkpt>
      <trkpt lat="48.18829" lon="7.09872">
        <ele>1072.91</ele>
        <time>2021-06-23T10:14:42Z</time>
      </trkpt>
      <trkpt lat="48.18835" lon="7.0993">
        <ele>1064.15</ele>
        <time>2021-06-23T10:14:44Z</time>
      </trkpt>
      <trkpt lat="48.18842" lon="7.09953">
        <ele>1062.14</ele>
        <time>2021-06-23T10:14:47Z</time>
      </trkpt>
      <trkpt lat="48.18849" lon="7.0997">
        <ele>1062.08</ele>
        <time>2021-06-23T10:14:49Z</time>
      </trkpt>
      <trkpt lat="48.18885" lon="7.10046">
        <ele>1060.15</ele>
        <time>2021-06-23T10:14:51Z</time>
      </trkpt>
      <trkpt lat="48.18898" lon="7.10068">
        <ele>1057.82</ele>
        <time>2021-06-23T10:14:54Z</time>
      </trkpt>
      <trkpt lat="48.18904" lon="7.10074">
        <ele>1057.23</ele>
        <time>2021-06-23T10:14:56Z</time>
      </trkpt>
      <trkpt lat="48.18919" lon="7.10085">
        <ele>1056.72</ele>
        <time>2021-06-23T10:14:59Z</time>
      </trkpt>
      <trkpt lat="48.18946" lon="7.10094">
        <ele>1056.25</ele>
        <time>2021-06-23T10:15:01Z</time>
      </trkpt>
      <trkpt lat="48.1908" lon="7.101">
        <ele>1060.32</ele>
        <time>2021-06-23T10:15:03Z</time>
      </trkpt>
      <trkpt lat="48.19101" lon="7.10095">
        <ele>1060.94</ele>
        <time>2021-06-23T10:15:06Z</time>
      </trkpt>
      <trkpt lat="48.19159" lon="7.10075">
        <ele>1060.39</ele>
        <time>2021-06-23T10:15:08Z</time>
      </trkpt>
      <trkpt lat="48.19197" lon="7.10069">
        <ele>1057.26</ele>
        <time>2021-06-23T10:15:11Z</time>
      </trkpt>
      <trkpt lat="48.1921" lon="7.10071">
        <ele>1057.15</ele>
        <time>2021-06-23T10:15:13Z</time>
      </trkpt>
      <trkpt lat="48.19278" lon="7.10099">
        <ele>1059.1</ele>
        <time>2021-06-23T10:15:15Z</time>
      </trkpt>
      <trkpt lat="48.19312" lon="7.10116">
        <ele>1058.21</ele>
        <time>2021-06-23T10:15:18Z</time>
      </trkpt>
      <trkpt lat="48.19346" lon="7.10143">
        <ele>1058.69</ele>
        <time>2021-06-23T10:15:20Z</time>
      </trkpt>
      <trkpt lat="48.19431" lon="7.10237">
        <ele>1052.61</ele>
        <time>2021-06-23T10:15:23Z</time>
      </trkpt>
      <trkpt lat="48.19491" lon="7.10308">
        <ele>1050.69</ele>
        <time>2021-06-23T10:15:25Z</time>
      </trkpt>
      <trkpt lat="48.19552" lon="7.10368">
        <ele>1044.59</ele>
        <time>2021-06-23T10:15:27Z</time>
      </trkpt>
      <trkpt lat="48.19568" lon="7.1038">
        <ele>1042.91</ele>
        <time>2021-06-23T10:15:30Z</time>
      </trkpt>
      <trkpt lat="48.19587" lon="7.10389">
        <ele>1040.57</ele>
        <time>2021-06-23T10:15:32Z</time>
      </trkpt>
      <trkpt lat="48.19617" lon="7.10399">
        <ele>1038.97</ele>
        <time>2021-06-23T10:15:35Z</time>
      </trkpt>
      <trkpt lat="48.19636" lon="7.10411">
        <ele>1038.67</ele>
        <time>2021-06-23T10:15:37Z</time>
      </trkpt>
      <trkpt lat="48.19656" lon="7.10437">
        <ele>1038.74</ele>
        <time>2021-06-23T10:15:39Z</time>
      </trkpt>
      <trkpt lat="48.19726" lon="7.10556">
        <ele>1039.19</ele>
        <time>2021-06-23T10:15:42Z</time>
      </trkpt>
      <trkpt lat="48.19742" lon="7.10579">
        <ele>1035.71</ele>
        <time>2021-06-23T10:15:44Z</time>
      </trkpt>
      <trkpt lat="48.19752" lon="7.1059">
        <ele>1033.82</ele>
        <time>2021-06-23T10:15:47Z</time>
      </trkpt>
      <trkpt lat="48.19894" lon="7.10671">
        <ele>1020.7</ele>
        <time>2021-06-23T10:15:49Z</time>
      </trkpt>
      <trkpt lat="48.1993" lon="7.10694">
        <ele>1017.59</ele>
        <time>2021-06-23T10:15:51Z</time>
      </trkpt>
      <trkpt lat="48.19935" lon="7.10699">
        <ele>1016.79</ele>
        <time>2021-06-23T10:15:54Z</time>
      </trkpt>
      <trkpt lat="48.19939" lon="7.10706">
        <ele>1015.97</ele>
        <time>2021-06-23T10:15:56Z</time>
      </trkpt>
      <trkpt lat="48.1994" lon="7.10715">
        <ele>1015.26</ele>
        <time>2021-06-23T10:15:59Z</time>
      </trkpt>
      <trkpt lat="48.19931" lon="7.10778">
        <ele>1012.47</ele>
        <time>2021-06-23T10:16:01Z</time>
      </trkpt>
      <trkpt lat="48.19927" lon="7.10817">
        <ele>1012.49</ele>
        <time>2021-06-23T10:16:03Z</time>
      </trkpt>
      <trkpt lat="48.19928" lon="7.10859">
        <ele>1009.69</ele>
        <time>2021-06-23T10:16:06Z</time>
      </trkpt>
      <trkpt lat="48.19936" lon="7.10961">
        <ele>1001.09</ele>
        <time>2021-06-23T10:16:08Z</time>
      </trkpt>
      <trkpt lat="48.19933" lon="7.10983">
        <ele>1000.15</ele>
        <time>2021-06-23T10:16:11Z</time>
      </trkpt>
      <trkpt lat="48.19923" lon="7.10995">
        <ele>1000.26</ele>
        <time>2021-06-23T10:16:13Z</time>
      </trkpt>
      <trkpt lat="48.19913" lon="7.10996">
        <ele>999.84</ele>
        <time>2021-06-23T10:16:15Z</time>
      </trkpt>
      <trkpt lat="48.19906" lon="7.10994">
        <ele>999.09</ele>
        <time>2021-06-23T10:16:18Z</time>
      </trkpt>
      <trkpt lat="48.19868" lon="7.10969">
        <ele>1001.57</ele>
        <time>2021-06-23T10:16:20Z</time>
      </trkpt>
      <trkpt lat="48.1978" lon="7.10964">
        <ele>988.45</ele>
        <time>2021-06-23T10:16:23Z</time>
      </trkpt>
      <trkpt lat="48.19701" lon="7.10938">
        <ele>995.09</ele>
        <time>2021-06-23T10:16:25Z</time>
      </trkpt>
      <trkpt lat="48.19676" lon="7.10935">
        <ele>993.89</ele>
        <time>2021-06-23T10:16:27Z</time>
      </trkpt>
      <trkpt lat="48.19667" lon="7.10938">
        <ele>990.42</ele>
        <time>2021-06-23T10:16:30Z</time>
      </trkpt>
      <trkpt lat="48.19659" lon="7.10945">
        <ele>986.22</ele>
        <time>2021-06-23T10:16:32Z</time>
      </trkpt>
      <trkpt lat="48.19637" lon="7.1097">
        <ele>979.83</ele>
        <time>2021-06-23T10:16:35Z</time>
      </trkpt>
      <trkpt lat="48.19625" lon="7.1098">
        <ele>978.06</ele>
        <time>2021-06-23T10:16:37Z</time>
      </trkpt>
      <trkpt lat="48.19611" lon="7.10985">
        <ele>978.81</ele>
        <time>2021-06-23T10:16:39Z</time>
      </trkpt>
      <trkpt lat="48.19557" lon="7.10989">
        <ele>977.97</ele>
        <time>2021-06-23T10:16:42Z</time>
      </trkpt>
      <trkpt lat="48.19527" lon="7.11004">
        <ele>978.05</ele>
        <time>2021-06-23T10:16:44Z</time>
      </trkpt>
      <trkpt lat="48.19515" lon="7.11019">
        <ele>976.77</ele>
        <time>2021-06-23T10:16:47Z</time>
      </trkpt>
      <trkpt lat="48.19504" lon="7.11038">
        <ele>971.99</ele>
        <time>2021-06-23T10:16:49Z</time>
      </trkpt>
      <trkpt lat="48.19496" lon="7.11059">
        <ele>966.53</ele>
        <time>2021-06-23T10:16:51Z</time>
      </trkpt>
      <trkpt lat="48.19483" lon="7.11103">
        <ele>962.98</ele>
        <time>2021-06-23T10:16:54Z</time>
      </trkpt>
      <trkpt lat="48.19456" lon="7.11157">
        <ele>962.09</ele>
        <time>2021-06-23T10:16:56Z</time>
      </trkpt>
      <trkpt lat="48.19444" lon="7.11173">
        <ele>960.97</ele>
        <time>2021-06-23T10:16:59Z</time>
      </trkpt>
      <trkpt lat="48.1943" lon="7.11185">
        <ele>961.88</ele>
        <time>2021-06-23T10:17:01Z</time>
      </trkpt>
      <trkpt lat="48.19413" lon="7.11194">
        <ele>963.07</ele>
        <time>2021-06-23T10:17:03Z</time>
      </trkpt>
      <trkpt lat="48.19381" lon="7.11199">
        <ele>964.59</ele>
        <time>2021-06-23T10:17:06Z</time>
      </trkpt>
      <trkpt lat="48.19354" lon="7.11196">
        <ele>960.37</ele>
        <time>2021-06-23T10:17:08Z</time>
      </trkpt>
      <trkpt lat="48.19338" lon="7.11189">
        <ele>956.66</ele>
        <time>2021-06-23T10:17:11Z</time>
      </trkpt>
      <trkpt lat="48.1932" lon="7.11175">
        <ele>953.9</ele>
        <time>2021-06-23T10:17:13Z</time>
      </trkpt>
      <trkpt lat="48.19308" lon="7.11162">
        <ele>952.79</ele>
        <time>2021-06-23T10:17:15Z</time>
      </trkpt>
      <trkpt lat="48.19286" lon="7.11129">
        <ele>952.95</ele>
        <time>2021-06-23T10:17:18Z</time>
      </trkpt>
      <trkpt lat="48.19272" lon="7.11091">
        <ele>954.78</ele>
        <time>2021-06-23T10:17:20Z</time>
      </trkpt>
      <trkpt lat="48.19246" lon="7.1101">
        <ele>952.9</ele>
        <time>2021-06-23T10:17:23Z</time>
      </trkpt>
      <trkpt lat="48.19236" lon="7.10986">
        <ele>950.32</ele>
        <time>2021-06-23T10:17:25Z</time>
      </trkpt>
      <trkpt lat="48.19208" lon="7.10936">
        <ele>944.09</ele>
        <time>2021-06-23T10:17:27Z</time>
      </trkpt>
      <trkpt lat="48.19182" lon="7.10885">
        <ele>943.54</ele>
        <time>2021-06-23T10:17:30Z</time>
      </trkpt>
      <trkpt lat="48.19175" lon="7.1088">
        <ele>940.67</ele>
        <time>2021-06-23T10:17:32Z</time>
      </trkpt>
      <trkpt lat="48.19169" lon="7.10881">
        <ele>936.81</ele>
        <time>2021-06-23T10:17:35Z</time>
      </trkpt>
      <trkpt lat="48.19163" lon="7.10892">
        <ele>931.62</ele>
        <time>2021-06-23T10:17:37Z</time>
      </trkpt>
      <trkpt lat="48.19164" lon="7.1091">
        <ele>928.05</ele>
        <time>2021-06-23T10:17:39Z</time>
      </trkpt>
      <trkpt lat="48.19168" lon="7.10921">
        <ele>927.6</ele>
        <time>2021-06-23T10:17:42Z</time>
      </trkpt>
      <trkpt lat="48.19207" lon="7.10982">
        <ele>934.35</ele>
        <time>2021-06-23T10:17:44Z</time>
      </trkpt>
      <trkpt lat="48.19217" lon="7.11005">
        <ele>936.5</ele>
        <time>2021-06-23T10:17:47Z</time>
      </trkpt>
      <trkpt lat="48.19225" lon="7.11046">
        <ele>936.55</ele>
        <time>2021-06-23T10:17:49Z</time>
      </trkpt>
      <trkpt lat="48.19234" lon="7.11138">
        <ele>928.46</ele>
        <time>2021-06-23T10:17:52Z</time>
      </trkpt>
      <trkpt lat="48.19251" lon="7.1122">
        <ele>918.65</ele>
        <time>2021-06-23T10:17:54Z</time>
      </trkpt>
      <trkpt lat="48.19255" lon="7.11256">
        <ele>914.37</ele>
        <time>2021-06-23T10:17:56Z</time>
      </trkpt>
      <trkpt lat="48.19256" lon="7.11313">
        <ele>907.56</ele>
        <time>2021-06-23T10:17:59Z</time>
      </trkpt>
      <trkpt lat="48.19255" lon="7.11337">
        <ele>904.53</ele>
        <time>2021-06-23T10:18:01Z</time>
      </trkpt>
      <trkpt lat="48.19248" lon="7.11394">
        <ele>904.53</ele>
        <time>2021-06-23T10:18:04Z</time>
      </trkpt>
      <trkpt lat="48.19257" lon="7.11404">
        <ele>905.97</ele>
        <time>2021-06-23T10:18:06Z</time>
      </trkpt>
      <trkpt lat="48.19285" lon="7.11452">
        <ele>903.56</ele>
        <time>2021-06-23T10:18:08Z</time>
      </trkpt>
      <trkpt lat="48.19296" lon="7.11476">
        <ele>900.08</ele>
        <time>2021-06-23T10:18:11Z</time>
      </trkpt>
      <trkpt lat="48.19314" lon="7.11526">
        <ele>895.17</ele>
        <time>2021-06-23T10:18:13Z</time>
      </trkpt>
      <trkpt lat="48.19346" lon="7.1167">
        <ele>896.33</ele>
        <time>2021-06-23T10:18:16Z</time>
      </trkpt>
      <trkpt lat="48.19351" lon="7.11714">
        <ele>900.95</ele>
        <time>2021-06-23T10:18:18Z</time>
      </trkpt>
      <trkpt lat="48.19358" lon="7.11736">
        <ele>901.42</ele>
        <time>2021-06-23T10:18:21Z</time>
      </trkpt>
      <trkpt lat="48.19393" lon="7.11771">
        <ele>894.02</ele>
        <time>2021-06-23T10:18:23Z</time>
      </trkpt>
      <trkpt lat="48.19408" lon="7.11792">
        <ele>893.14</ele>
        <time>2021-06-23T10:18:25Z</time>
      </trkpt>
      <trkpt lat="48.19428" lon="7.11826">
        <ele>890.27</ele>
        <time>2021-06-23T10:18:28Z</time>
      </trkpt>
      <trkpt lat="48.19445" lon="7.1186">
        <ele>883.62</ele>
        <time>2021-06-23T10:18:30Z</time>
      </trkpt>
      <trkpt lat="48.19455" lon="7.11886">
        <ele>881.4</ele>
        <time>2021-06-23T10:18:33Z</time>
      </trkpt>
      <trkpt lat="48.19466" lon="7.11938">
        <ele>888.11</ele>
        <time>2021-06-23T10:18:35Z</time>
      </trkpt>
      <trkpt lat="48.1949" lon="7.12013">
        <ele>889.11</ele>
        <time>2021-06-23T10:18:38Z</time>
      </trkpt>
      <trkpt lat="48.19502" lon="7.12066">
        <ele>884.95</ele>
        <time>2021-06-23T10:18:40Z</time>
      </trkpt>
      <trkpt lat="48.19535" lon="7.12252">
        <ele>861.1</ele>
        <time>2021-06-23T10:18:42Z</time>
      </trkpt>
      <trkpt lat="48.19536" lon="7.12264">
        <ele>860.14</ele>
        <time>2021-06-23T10:18:45Z</time>
      </trkpt>
      <trkpt lat="48.19535" lon="7.12274">
        <ele>860.06</ele>
        <time>2021-06-23T10:18:47Z</time>
      </trkpt>
      <trkpt lat="48.1953" lon="7.12289">
        <ele>861.97</ele>
        <time>2021-06-23T10:18:50Z</time>
      </trkpt>
      <trkpt lat="48.19505" lon="7.12338">
        <ele>871.64</ele>
        <time>2021-06-23T10:18:52Z</time>
      </trkpt>
      <trkpt lat="48.19495" lon="7.12374">
        <ele>874.51</ele>
        <time>2021-06-23T10:18:55Z</time>
      </trkpt>
      <trkpt lat="48.19491" lon="7.12392">
        <ele>875.73</ele>
        <time>2021-06-23T10:18:57Z</time>
      </trkpt>
      <trkpt lat="48.19491" lon="7.12401">
        <ele>875.87</ele>
        <time>2021-06-23T10:18:59Z</time>
      </trkpt>
      <trkpt lat="48.19492" lon="7.1241">
        <ele>874.75</ele>
        <time>2021-06-23T10:19:02Z</time>
      </trkpt>
      <trkpt lat="48.19496" lon="7.1242">
        <ele>871.98</ele>
        <time>2021-06-23T10:19:04Z</time>
      </trkpt>
      <trkpt lat="48.19504" lon="7.12427">
        <ele>868.08</ele>
        <time>2021-06-23T10:19:07Z</time>
      </trkpt>
      <trkpt lat="48.19522" lon="7.12432">
        <ele>862.99</ele>
        <time>2021-06-23T10:19:09Z</time>
      </trkpt>
      <trkpt lat="48.19534" lon="7.1244">
        <ele>860.7</ele>
        <time>2021-06-23T10:19:12Z</time>
      </trkpt>
      <trkpt lat="48.19573" lon="7.12477">
        <ele>859.16</ele>
        <time>2021-06-23T10:19:14Z</time>
      </trkpt>
      <trkpt lat="48.1961" lon="7.12508">
        <ele>853.53</ele>
        <time>2021-06-23T10:19:16Z</time>
      </trkpt>
      <trkpt lat="48.1965" lon="7.12533">
        <ele>849.74</ele>
        <time>2021-06-23T10:19:19Z</time>
      </trkpt>
      <trkpt lat="48.19711" lon="7.12566">
        <ele>843.31</ele>
        <time>2021-06-23T10:19:21Z</time>
      </trkpt>
      <trkpt lat="48.19725" lon="7.12577">
        <ele>841.9</ele>
        <time>2021-06-23T10:19:24Z</time>
      </trkpt>
      <trkpt lat="48.19729" lon="7.12583">
        <ele>841.55</ele>
        <time>2021-06-23T10:19:26Z</time>
      </trkpt>
      <trkpt lat="48.19733" lon="7.12599">
        <ele>841.02</ele>
        <time>2021-06-23T10:19:29Z</time>
      </trkpt>
      <trkpt lat="48.19734" lon="7.12611">
        <ele>841.11</ele>
        <time>2021-06-23T10:19:31Z</time>
      </trkpt>
      <trkpt lat="48.19732" lon="7.12675">
        <ele>838.5</ele>
        <time>2021-06-23T10:19:33Z</time>
      </trkpt>
      <trkpt lat="48.19737" lon="7.12752">
        <ele>826.12</ele>
        <time>2021-06-23T10:19:36Z</time>
      </trkpt>
      <trkpt lat="48.19736" lon="7.12766">
        <ele>826.99</ele>
        <time>2021-06-23T10:19:38Z</time>
      </trkpt>
      <trkpt lat="48.19729" lon="7.12811">
        <ele>839.22</ele>
        <time>2021-06-23T10:19:41Z</time>
      </trkpt>
      <trkpt lat="48.19729" lon="7.12821">
        <ele>842.11</ele>
        <time>2021-06-23T10:19:43Z</time>
      </trkpt>
      <trkpt lat="48.19732" lon="7.12831">
        <ele>844.04</ele>
        <time>2021-06-23T10:19:46Z</time>
      </trkpt>
      <trkpt lat="48.19738" lon="7.1284">
        <ele>845.38</ele>
        <time>2021-06-23T10:19:48Z</time>
      </trkpt>
      <trkpt lat="48.19744" lon="7.12843">
        <ele>844.71</ele>
        <time>2021-06-23T10:19:50Z</time>
      </trkpt>
      <trkpt lat="48.19826" lon="7.12857">
        <ele>823.63</ele>
        <time>2021-06-23T10:19:53Z</time>
      </trkpt>
      <trkpt lat="48.19838" lon="7.12862">
        <ele>821.9</ele>
        <time>2021-06-23T10:19:55Z</time>
      </trkpt>
      <trkpt lat="48.19853" lon="7.12871">
        <ele>821.49</ele>
        <time>2021-06-23T10:19:58Z</time>
      </trkpt>
      <trkpt lat="48.19863" lon="7.12884">
        <ele>822.94</ele>
        <time>2021-06-23T10:20:00Z</time>
      </trkpt>
      <trkpt lat="48.19869" lon="7.12896">
        <ele>824.81</ele>
        <time>2021-06-23T10:20:03Z</time>
      </trkpt>
      <trkpt lat="48.19873" lon="7.12911">
        <ele>826.58</ele>
        <time>2021-06-23T10:20:05Z</time>
      </trkpt>
      <trkpt lat="48.19875" lon="7.12924">
        <ele>827.42</ele>
        <time>2021-06-23T10:20:07Z</time>
      </trkpt>
      <trkpt lat="48.19877" lon="7.1295">
        <ele>828.33</ele>
        <time>2021-06-23T10:20:10Z</time>
      </trkpt>
      <trkpt lat="48.19877" lon="7.13067">
        <ele>824.96</ele>
        <time>2021-06-23T10:20:12Z</time>
      </trkpt>
      <trkpt lat="48.19872" lon="7.13141">
        <ele>824.78</ele>
        <time>2021-06-23T10:20:15Z</time>
      </trkpt>
      <trkpt lat="48.19872" lon="7.13187">
        <ele>824.71</ele>
        <time>2021-06-23T10:20:17Z</time>
      </trkpt>
      <trkpt lat="48.19875" lon="7.13212">
        <ele>823.86</ele>
        <time>2021-06-23T10:20:20Z</time>
      </trkpt>
      <trkpt lat="48.19878" lon="7.13227">
        <ele>822.01</ele>
        <time>2021-06-23T10:20:22Z</time>
      </trkpt>
      <trkpt lat="48.19888" lon="7.13245">
        <ele>815.39</ele>
        <time>2021-06-23T10:20:24Z</time>
      </trkpt>
      <trkpt lat="48.19895" lon="7.13249">
        <ele>814.5</ele>
        <time>2021-06-23T10:20:27Z</time>
      </trkpt>
      <trkpt lat="48.19905" lon="7.13249">
        <ele>813.65</ele>
        <time>2021-06-23T10:20:29Z</time>
      </trkpt>
      <trkpt lat="48.19912" lon="7.13243">
        <ele>811.84</ele>
        <time>2021-06-23T10:20:32Z</time>
      </trkpt>
      <trkpt lat="48.19942" lon="7.1321">
        <ele>806.99</ele>
        <time>2021-06-23T10:20:34Z</time>
      </trkpt>
      <trkpt lat="48.19992" lon="7.13167">
        <ele>800.86</ele>
        <time>2021-06-23T10:20:37Z</time>
      </trkpt>
      <trkpt lat="48.20024" lon="7.13142">
        <ele>799.37</ele>
        <time>2021-06-23T10:20:39Z</time>
      </trkpt>
      <trkpt lat="48.20062" lon="7.13121">
        <ele>795.75</ele>
        <time>2021-06-23T10:20:41Z</time>
      </trkpt>
      <trkpt lat="48.20088" lon="7.13112">
        <ele>792.27</ele>
        <time>2021-06-23T10:20:44Z</time>
      </trkpt>
      <trkpt lat="48.20132" lon="7.13107">
        <ele>789.9</ele>
        <time>2021-06-23T10:20:46Z</time>
      </trkpt>
      <trkpt lat="48.2016" lon="7.13117">
        <ele>789.23</ele>
        <time>2021-06-23T10:20:49Z</time>
      </trkpt>
      <trkpt lat="48.20178" lon="7.13133">
        <ele>790.13</ele>
        <time>2021-06-23T10:20:51Z</time>
      </trkpt>
      <trkpt lat="48.20236" lon="7.13197">
        <ele>791.13</ele>
        <time>2021-06-23T10:20:54Z</time>
      </trkpt>
      <trkpt lat="48.20262" lon="7.13221">
        <ele>788.99</ele>
        <time>2021-06-23T10:20:56Z</time>
      </trkpt>
      <trkpt lat="48.20281" lon="7.13237">
        <ele>785.95</ele>
        <time>2021-06-23T10:20:58Z</time>
      </trkpt>
      <trkpt lat="48.20374" lon="7.13288">
        <ele>776.35</ele>
        <time>2021-06-23T10:21:01Z</time>
      </trkpt>
      <trkpt lat="48.20439" lon="7.13332">
        <ele>769.85</ele>
        <time>2021-06-23T10:21:03Z</time>
      </trkpt>
      <trkpt lat="48.20488" lon="7.13361">
        <ele>763.11</ele>
        <time>2021-06-23T10:21:06Z</time>
      </trkpt>
      <trkpt lat="48.20519" lon="7.13386">
        <ele>762.09</ele>
        <time>2021-06-23T10:21:08Z</time>
      </trkpt>
      <trkpt lat="48.20536" lon="7.13405">
        <ele>757.87</ele>
        <time>2021-06-23T10:21:11Z</time>
      </trkpt>
      <trkpt lat="48.20566" lon="7.13454">
        <ele>754.76</ele>
        <time>2021-06-23T10:21:13Z</time>
      </trkpt>
      <trkpt lat="48.20582" lon="7.1349">
        <ele>755.09</ele>
        <time>2021-06-23T10:21:15Z</time>
      </trkpt>
      <trkpt lat="48.2059" lon="7.13521">
        <ele>755.73</ele>
        <time>2021-06-23T10:21:18Z</time>
      </trkpt>
      <trkpt lat="48.20594" lon="7.13531">
        <ele>754.83</ele>
        <time>2021-06-23T10:21:20Z</time>
      </trkpt>
      <trkpt lat="48.206" lon="7.13538">
        <ele>753.06</ele>
        <time>2021-06-23T10:21:23Z</time>
      </trkpt>
      <trkpt lat="48.20607" lon="7.13541">
        <ele>750.82</ele>
        <time>2021-06-23T10:21:25Z</time>
      </trkpt>
      <trkpt lat="48.20616" lon="7.13537">
        <ele>748.43</ele>
        <time>2021-06-23T10:21:28Z</time>
      </trkpt>
      <trkpt lat="48.20619" lon="7.13531">
        <ele>747.85</ele>
        <time>2021-06-23T10:21:30Z</time>
      </trkpt>
      <trkpt lat="48.2062" lon="7.13523">
        <ele>747.78</ele>
        <time>2021-06-23T10:21:32Z</time>
      </trkpt>
      <trkpt lat="48.20617" lon="7.13509">
        <ele>748.47</ele>
        <time>2021-06-23T10:21:35Z</time>
      </trkpt>
      <trkpt lat="48.20586" lon="7.13454">
        <ele>749.53</ele>
        <time>2021-06-23T10:21:37Z</time>
      </trkpt>
      <trkpt lat="48.20555" lon="7.13383">
        <ele>746.93</ele>
        <time>2021-06-23T10:21:40Z</time>
      </trkpt>
      <trkpt lat="48.20532" lon="7.13343">
        <ele>749.8</ele>
        <time>2021-06-23T10:21:42Z</time>
      </trkpt>
      <trkpt lat="48.20492" lon="7.13285">
        <ele>742.55</ele>
        <time>2021-06-23T10:21:45Z</time>
      </trkpt>
      <trkpt lat="48.20447" lon="7.13235">
        <ele>737.79</ele>
        <time>2021-06-23T10:21:47Z</time>
      </trkpt>
      <trkpt lat="48.20413" lon="7.13188">
        <ele>728.24</ele>
        <time>2021-06-23T10:21:49Z</time>
      </trkpt>
      <trkpt lat="48.20395" lon="7.13168">
        <ele>725.44</ele>
        <time>2021-06-23T10:21:52Z</time>
      </trkpt>
      <trkpt lat="48.20385" lon="7.13159">
        <ele>724.74</ele>
        <time>2021-06-23T10:21:54Z</time>
      </trkpt>
      <trkpt lat="48.20371" lon="7.13153">
        <ele>724.85</ele>
        <time>2021-06-23T10:21:57Z</time>
      </trkpt>
      <trkpt lat="48.20338" lon="7.13142">
        <ele>727.3</ele>
        <time>2021-06-23T10:21:59Z</time>
      </trkpt>
      <trkpt lat="48.2033" lon="7.13137">
        <ele>727.28</ele>
        <time>2021-06-23T10:22:02Z</time>
      </trkpt>
      <trkpt lat="48.20317" lon="7.13125">
        <ele>726.86</ele>
        <time>2021-06-23T10:22:04Z</time>
      </trkpt>
      <trkpt lat="48.20308" lon="7.13109">
        <ele>723.71</ele>
        <time>2021-06-23T10:22:06Z</time>
      </trkpt>
      <trkpt lat="48.203" lon="7.13087">
        <ele>722.37</ele>
        <time>2021-06-23T10:22:09Z</time>
      </trkpt>
      <trkpt lat="48.20295" lon="7.13068">
        <ele>721.46</ele>
        <time>2021-06-23T10:22:11Z</time>
      </trkpt>
      <trkpt lat="48.20292" lon="7.13047">
        <ele>718.15</ele>
        <time>2021-06-23T10:22:14Z</time>
      </trkpt>
      <trkpt lat="48.20291" lon="7.13035">
        <ele>715.43</ele>
        <time>2021-06-23T10:22:16Z</time>
      </trkpt>
      <trkpt lat="48.20296" lon="7.12986">
        <ele>705.39</ele>
        <time>2021-06-23T10:22:18Z</time>
      </trkpt>
      <trkpt lat="48.20295" lon="7.12969">
        <ele>703.64</ele>
        <time>2021-06-23T10:22:21Z</time>
      </trkpt>
      <trkpt lat="48.20289" lon="7.12946">
        <ele>705.2</ele>
        <time>2021-06-23T10:22:23Z</time>
      </trkpt>
      <trkpt lat="48.20261" lon="7.12886">
        <ele>705.74</ele>
        <time>2021-06-23T10:22:26Z</time>
      </trkpt>
      <trkpt lat="48.20233" lon="7.1282">
        <ele>697.94</ele>
        <time>2021-06-23T10:22:28Z</time>
      </trkpt>
      <trkpt lat="48.20225" lon="7.12812">
        <ele>696.27</ele>
        <time>2021-06-23T10:22:31Z</time>
      </trkpt>
      <trkpt lat="48.20219" lon="7.12808">
        <ele>695.21</ele>
        <time>2021-06-23T10:22:33Z</time>
      </trkpt>
      <trkpt lat="48.20211" lon="7.12808">
        <ele>694.24</ele>
        <time>2021-06-23T10:22:35Z</time>
      </trkpt>
      <trkpt lat="48.20166" lon="7.12835">
        <ele>696.34</ele>
        <time>2021-06-23T10:22:38Z</time>
      </trkpt>
      <trkpt lat="48.20145" lon="7.12857">
        <ele>700.63</ele>
        <time>2021-06-23T10:22:40Z</time>
      </trkpt>
      <trkpt lat="48.20138" lon="7.12863">
        <ele>701.48</ele>
        <time>2021-06-23T10:22:43Z</time>
      </trkpt>
      <trkpt lat="48.20101" lon="7.12881">
        <ele>707.04</ele>
        <time>2021-06-23T10:22:45Z</time>
      </trkpt>
      <trkpt lat="48.20093" lon="7.12881">
        <ele>708.7</ele>
        <time>2021-06-23T10:22:48Z</time>
      </trkpt>
      <trkpt lat="48.2009" lon="7.12878">
        <ele>709.45</ele>
        <time>2021-06-23T10:22:50Z</time>
      </trkpt>
      <trkpt lat="48.20086" lon="7.12871">
        <ele>710.09</ele>
        <time>2021-06-23T10:22:52Z</time>
      </trkpt>
      <trkpt lat="48.20086" lon="7.12861">
        <ele>709.99</ele>
        <time>2021-06-23T10:22:55Z</time>
      </trkpt>
      <trkpt lat="48.20107" lon="7.12808">
        <ele>695.74</ele>
        <time>2021-06-23T10:22:57Z</time>
      </trkpt>
      <trkpt lat="48.20112" lon="7.12789">
        <ele>691.09</ele>
        <time>2021-06-23T10:23:00Z</time>
      </trkpt>
      <trkpt lat="48.20114" lon="7.12766">
        <ele>688.65</ele>
        <time>2021-06-23T10:23:02Z</time>
      </trkpt>
      <trkpt lat="48.20115" lon="7.12742">
        <ele>687.58</ele>
        <time>2021-06-23T10:23:05Z</time>
      </trkpt>
      <trkpt lat="48.20109" lon="7.12699">
        <ele>689.68</ele>
        <time>2021-06-23T10:23:07Z</time>
      </trkpt>
      <trkpt lat="48.20104" lon="7.12685">
        <ele>692.14</ele>
        <time>2021-06-23T10:23:09Z</time>
      </trkpt>
      <trkpt lat="48.20094" lon="7.12663">
        <ele>696.32</ele>
        <time>2021-06-23T10:23:12Z</time>
      </trkpt>
      <trkpt lat="48.20091" lon="7.12651">
        <ele>698.08</ele>
        <time>2021-06-23T10:23:14Z</time>
      </trkpt>
      <trkpt lat="48.20091" lon="7.1264">
        <ele>698.71</ele>
        <time>2021-06-23T10:23:17Z</time>
      </trkpt>
      <trkpt lat="48.20094" lon="7.12628">
        <ele>698.49</ele>
        <time>2021-06-23T10:23:19Z</time>
      </trkpt>
      <trkpt lat="48.20101" lon="7.12617">
        <ele>696.53</ele>
        <time>2021-06-23T10:23:22Z</time>
      </trkpt>
      <trkpt lat="48.20123" lon="7.12597">
        <ele>689.24</ele>
        <time>2021-06-23T10:23:24Z</time>
      </trkpt>
      <trkpt lat="48.20131" lon="7.12587">
        <ele>685.83</ele>
        <time>2021-06-23T10:23:26Z</time>
      </trkpt>
      <trkpt lat="48.20136" lon="7.12574">
        <ele>681.14</ele>
        <time>2021-06-23T10:23:29Z</time>
      </trkpt>
      <trkpt lat="48.20139" lon="7.12559">
        <ele>676.06</ele>
        <time>2021-06-23T10:23:31Z</time>
      </trkpt>
      <trkpt lat="48.20139" lon="7.12547">
        <ele>673.51</ele>
        <time>2021-06-23T10:23:34Z</time>
      </trkpt>
      <trkpt lat="48.20136" lon="7.12533">
        <ele>673.41</ele>
        <time>2021-06-23T10:23:36Z</time>
      </trkpt>
      <trkpt lat="48.20125" lon="7.12504">
        <ele>673.89</ele>
        <time>2021-06-23T10:23:39Z</time>
      </trkpt>
      <trkpt lat="48.20079" lon="7.12415">
        <ele>670.68</ele>
        <time>2021-06-23T10:23:41Z</time>
      </trkpt>
      <trkpt lat="48.20027" lon="7.12286">
        <ele>648.27</ele>
        <time>2021-06-23T10:23:43Z</time>
      </trkpt>
      <trkpt lat="48.19999" lon="7.1224">
        <ele>656.02</ele>
        <time>2021-06-23T10:23:46Z</time>
      </trkpt>
      <trkpt lat="48.19993" lon="7.1222">
        <ele>654.31</ele>
        <time>2021-06-23T10:23:48Z</time>
      </trkpt>
      <trkpt lat="48.19995" lon="7.122">
        <ele>648.72</ele>
        <time>2021-06-23T10:23:51Z</time>
      </trkpt>
      <trkpt lat="48.2" lon="7.12183">
        <ele>646.58</ele>
        <time>2021-06-23T10:23:53Z</time>
      </trkpt>
      <trkpt lat="48.20004" lon="7.12177">
        <ele>646.67</ele>
        <time>2021-06-23T10:23:56Z</time>
      </trkpt>
      <trkpt lat="48.2001" lon="7.12168">
        <ele>646.54</ele>
        <time>2021-06-23T10:23:58Z</time>
      </trkpt>
      <trkpt lat="48.20026" lon="7.12159">
        <ele>645.13</ele>
        <time>2021-06-23T10:24:00Z</time>
      </trkpt>
      <trkpt lat="48.2004" lon="7.12157">
        <ele>644.18</ele>
        <time>2021-06-23T10:24:03Z</time>
      </trkpt>
      <trkpt lat="48.20057" lon="7.12171">
        <ele>640.87</ele>
        <time>2021-06-23T10:24:05Z</time>
      </trkpt>
      <trkpt lat="48.20076" lon="7.12212">
        <ele>635.55</ele>
        <time>2021-06-23T10:24:08Z</time>
      </trkpt>
      <trkpt lat="48.20091" lon="7.1223">
        <ele>631.93</ele>
        <time>2021-06-23T10:24:10Z</time>
      </trkpt>
      <trkpt lat="48.2015" lon="7.12279">
        <ele>626.38</ele>
        <time>2021-06-23T10:24:13Z</time>
      </trkpt>
      <trkpt lat="48.20242" lon="7.12346">
        <ele>627.84</ele>
        <time>2021-06-23T10:24:15Z</time>
      </trkpt>
      <trkpt lat="48.20331" lon="7.12394">
        <ele>630.57</ele>
        <time>2021-06-23T10:24:17Z</time>
      </trkpt>
      <trkpt lat="48.20353" lon="7.12424">
        <ele>619.41</ele>
        <time>2021-06-23T10:24:20Z</time>
      </trkpt>
      <trkpt lat="48.20366" lon="7.12464">
        <ele>607.86</ele>
        <time>2021-06-23T10:24:22Z</time>
      </trkpt>
      <trkpt lat="48.20387" lon="7.12491">
        <ele>604.74</ele>
        <time>2021-06-23T10:24:25Z</time>
      </trkpt>
      <trkpt lat="48.20441" lon="7.12526">
        <ele>602.39</ele>
        <time>2021-06-23T10:24:27Z</time>
      </trkpt>
      <trkpt lat="48.20495" lon="7.12606">
        <ele>591.38</ele>
        <time>2021-06-23T10:24:30Z</time>
      </trkpt>
      <trkpt lat="48.20514" lon="7.12639">
        <ele>588.01</ele>
        <time>2021-06-23T10:24:32Z</time>
      </trkpt>
      <trkpt lat="48.20608" lon="7.12768">
        <ele>579.45</ele>
        <time>2021-06-23T10:24:34Z</time>
      </trkpt>
      <trkpt lat="48.20679" lon="7.12836">
        <ele>572.29</ele>
        <time>2021-06-23T10:24:37Z</time>
      </trkpt>
      <trkpt lat="48.20733" lon="7.12908">
        <ele>570.65</ele>
        <time>2021-06-23T10:24:39Z</time>
      </trkpt>
      <trkpt lat="48.20795" lon="7.12964">
        <ele>564.55</ele>
        <time>2021-06-23T10:24:42Z</time>
      </trkpt>
      <trkpt lat="48.20837" lon="7.13028">
        <ele>559.58</ele>
        <time>2021-06-23T10:24:44Z</time>
      </trkpt>
      <trkpt lat="48.20855" lon="7.13073">
        <ele>565.24</ele>
        <time>2021-06-23T10:24:47Z</time>
      </trkpt>
      <trkpt lat="48.20866" lon="7.13114">
        <ele>565.56</ele>
        <time>2021-06-23T10:24:49Z</time>
      </trkpt>
      <trkpt lat="48.20874" lon="7.13176">
        <ele>561.78</ele>
        <time>2021-06-23T10:24:51Z</time>
      </trkpt>
      <trkpt lat="48.20883" lon="7.13208">
        <ele>560.97</ele>
        <time>2021-06-23T10:24:54Z</time>
      </trkpt>
      <trkpt lat="48.20897" lon="7.13243">
        <ele>563.71</ele>
        <time>2021-06-23T10:24:56Z</time>
      </trkpt>
      <trkpt lat="48.2094" lon="7.13294">
        <ele>571.99</ele>
        <time>2021-06-23T10:24:59Z</time>
      </trkpt>
      <trkpt lat="48.21031" lon="7.13381">
        <ele>556.09</ele>
        <time>2021-06-23T10:25:01Z</time>
      </trkpt>
      <trkpt lat="48.21047" lon="7.13391">
        <ele>554.95</ele>
        <time>2021-06-23T10:25:04Z</time>
      </trkpt>
      <trkpt lat="48.21061" lon="7.13392">
        <ele>553.29</ele>
        <time>2021-06-23T10:25:06Z</time>
      </trkpt>
      <trkpt lat="48.2109" lon="7.13382">
        <ele>550.66</ele>
        <time>2021-06-23T10:25:08Z</time>
      </trkpt>
      <trkpt lat="48.21108" lon="7.1338">
        <ele>548.89</ele>
        <time>2021-06-23T10:25:11Z</time>
      </trkpt>
      <trkpt lat="48.21125" lon="7.13382">
        <ele>546.56</ele>
        <time>2021-06-23T10:25:13Z</time>
      </trkpt>
      <trkpt lat="48.21141" lon="7.13386">
        <ele>543.85</ele>
        <time>2021-06-23T10:25:16Z</time>
      </trkpt>
      <trkpt lat="48.21186" lon="7.13415">
        <ele>539.41</ele>
        <time>2021-06-23T10:25:18Z</time>
      </trkpt>
      <trkpt lat="48.21204" lon="7.13434">
        <ele>542.3</ele>
        <time>2021-06-23T10:25:21Z</time>
      </trkpt>
      <trkpt lat="48.2125" lon="7.13497">
        <ele>539.52</ele>
        <time>2021-06-23T10:25:23Z</time>
      </trkpt>
      <trkpt lat="48.21268" lon="7.1351">
        <ele>535.12</ele>
        <time>2021-06-23T10:25:25Z</time>
      </trkpt>
      <trkpt lat="48.213" lon="7.13526">
        <ele>529.66</ele>
        <time>2021-06-23T10:25:28Z</time>
      </trkpt>
      <trkpt lat="48.21351" lon="7.13581">
        <ele>530.53</ele>
        <time>2021-06-23T10:25:30Z</time>
      </trkpt>
      <trkpt lat="48.21367" lon="7.13605">
        <ele>526.99</ele>
        <time>2021-06-23T10:25:33Z</time>
      </trkpt>
      <trkpt lat="48.21376" lon="7.13633">
        <ele>525.95</ele>
        <time>2021-06-23T10:25:35Z</time>
      </trkpt>
      <trkpt lat="48.2138" lon="7.13694">
        <ele>526.37</ele>
        <time>2021-06-23T10:25:38Z</time>
      </trkpt>
      <trkpt lat="48.21382" lon="7.1371">
        <ele>526.7</ele>
        <time>2021-06-23T10:25:40Z</time>
      </trkpt>
      <trkpt lat="48.21389" lon="7.13734">
        <ele>525.34</ele>
        <time>2021-06-23T10:25:42Z</time>
      </trkpt>
      <trkpt lat="48.21402" lon="7.13757">
        <ele>523.67</ele>
        <time>2021-06-23T10:25:45Z</time>
      </trkpt>
      <trkpt lat="48.21424" lon="7.13781">
        <ele>520.98</ele>
        <time>2021-06-23T10:25:47Z</time>
      </trkpt>
      <trkpt lat="48.21436" lon="7.13802">
        <ele>521.05</ele>
        <time>2021-06-23T10:25:50Z</time>
      </trkpt>
      <trkpt lat="48.21466" lon="7.13885">
        <ele>518.15</ele>
        <time>2021-06-23T10:25:52Z</time>
      </trkpt>
      <trkpt lat="48.21489" lon="7.13939">
        <ele>518.18</ele>
        <time>2021-06-23T10:25:55Z</time>
      </trkpt>
      <trkpt lat="48.21509" lon="7.1398">
        <ele>517.66</ele>
        <time>2021-06-23T10:25:57Z</time>
      </trkpt>
      <trkpt lat="48.2154" lon="7.14018">
        <ele>511.27</ele>
        <time>2021-06-23T10:25:59Z</time>
      </trkpt>
      <trkpt lat="48.21571" lon="7.14045">
        <ele>508.08</ele>
        <time>2021-06-23T10:26:02Z</time>
      </trkpt>
      <trkpt lat="48.21606" lon="7.14061">
        <ele>506.56</ele>
        <time>2021-06-23T10:26:04Z</time>
      </trkpt>
      <trkpt lat="48.2165" lon="7.14068">
        <ele>504.45</ele>
        <time>2021-06-23T10:26:07Z</time>
      </trkpt>
      <trkpt lat="48.21679" lon="7.14079">
        <ele>502.93</ele>
        <time>2021-06-23T10:26:09Z</time>
      </trkpt>
      <trkpt lat="48.21694" lon="7.14088">
        <ele>502.01</ele>
        <time>2021-06-23T10:26:12Z</time>
      </trkpt>
      <trkpt lat="48.21714" lon="7.14109">
        <ele>499.86</ele>
        <time>2021-06-23T10:26:14Z</time>
      </trkpt>
      <trkpt lat="48.21785" lon="7.14234">
        <ele>496.91</ele>
        <time>2021-06-23T10:26:16Z</time>
      </trkpt>
      <trkpt lat="48.21807" lon="7.14262">
        <ele>491.94</ele>
        <time>2021-06-23T10:26:19Z</time>
      </trkpt>
      <trkpt lat="48.21863" lon="7.14305">
        <ele>494.91</ele>
        <time>2021-06-23T10:26:21Z</time>
      </trkpt>
      <trkpt lat="48.21877" lon="7.14319">
        <ele>495.6</ele>
        <time>2021-06-23T10:26:24Z</time>
      </trkpt>
      <trkpt lat="48.21888" lon="7.14333">
        <ele>495.08</ele>
        <time>2021-06-23T10:26:26Z</time>
      </trkpt>
      <trkpt lat="48.2193" lon="7.14399">
        <ele>492.28</ele>
        <time>2021-06-23T10:26:29Z</time>
      </trkpt>
      <trkpt lat="48.2194" lon="7.14411">
        <ele>490.7</ele>
        <time>2021-06-23T10:26:31Z</time>
      </trkpt>
      <trkpt lat="48.21956" lon="7.14422">
        <ele>488.23</ele>
        <time>2021-06-23T10:26:33Z</time>
      </trkpt>
      <trkpt lat="48.21973" lon="7.14429">
        <ele>485.53</ele>
        <time>2021-06-23T10:26:36Z</time>
      </trkpt>
      <trkpt lat="48.22008" lon="7.14436">
        <ele>483.72</ele>
        <time>2021-06-23T10:26:38Z</time>
      </trkpt>
      <trkpt lat="48.22094" lon="7.1449">
        <ele>481.64</ele>
        <time>2021-06-23T10:26:41Z</time>
      </trkpt>
      <trkpt lat="48.22127" lon="7.14514">
        <ele>481.02</ele>
        <time>2021-06-23T10:26:43Z</time>
      </trkpt>
      <trkpt lat="48.22154" lon="7.14537">
        <ele>477.42</ele>
        <time>2021-06-23T10:26:46Z</time>
      </trkpt>
      <trkpt lat="48.22171" lon="7.14561">
        <ele>474.48</ele>
        <time>2021-06-23T10:26:48Z</time>
      </trkpt>
      <trkpt lat="48.2222" lon="7.14649">
        <ele>472.73</ele>
        <time>2021-06-23T10:26:50Z</time>
      </trkpt>
      <trkpt lat="48.22232" lon="7.14663">
        <ele>471.39</ele>
        <time>2021-06-23T10:26:53Z</time>
      </trkpt>
      <trkpt lat="48.22246" lon="7.14669">
        <ele>470.36</ele>
        <time>2021-06-23T10:26:55Z</time>
      </trkpt>
      <trkpt lat="48.22275" lon="7.14675">
        <ele>467.93</ele>
        <time>2021-06-23T10:26:58Z</time>
      </trkpt>
      <trkpt lat="48.22291" lon="7.14685">
        <ele>466.87</ele>
        <time>2021-06-23T10:27:00Z</time>
      </trkpt>
      <trkpt lat="48.22303" lon="7.147">
        <ele>465.92</ele>
        <time>2021-06-23T10:27:03Z</time>
      </trkpt>
      <trkpt lat="48.22337" lon="7.14756">
        <ele>466.27</ele>
        <time>2021-06-23T10:27:05Z</time>
      </trkpt>
      <trkpt lat="48.22351" lon="7.14788">
        <ele>466.01</ele>
        <time>2021-06-23T10:27:07Z</time>
      </trkpt>
      <trkpt lat="48.22368" lon="7.14834">
        <ele>464.38</ele>
        <time>2021-06-23T10:27:10Z</time>
      </trkpt>
      <trkpt lat="48.22387" lon="7.14878">
        <ele>464.8</ele>
        <time>2021-06-23T10:27:12Z</time>
      </trkpt>
      <trkpt lat="48.224" lon="7.149">
        <ele>466.11</ele>
        <time>2021-06-23T10:27:15Z</time>
      </trkpt>
      <trkpt lat="48.22468" lon="7.14957">
        <ele>463.23</ele>
        <time>2021-06-23T10:27:17Z</time>
      </trkpt>
      <trkpt lat="48.22506" lon="7.1498">
        <ele>462.31</ele>
        <time>2021-06-23T10:27:20Z</time>
      </trkpt>
      <trkpt lat="48.22554" lon="7.15019">
        <ele>457.95</ele>
        <time>2021-06-23T10:27:22Z</time>
      </trkpt>
      <trkpt lat="48.22598" lon="7.15062">
        <ele>456.63</ele>
        <time>2021-06-23T10:27:24Z</time>
      </trkpt>
      <trkpt lat="48.22631" lon="7.15099">
        <ele>455.83</ele>
        <time>2021-06-23T10:27:27Z</time>
      </trkpt>
      <trkpt lat="48.22663" lon="7.15138">
        <ele>451.97</ele>
        <time>2021-06-23T10:27:29Z</time>
      </trkpt>
      <trkpt lat="48.22754" lon="7.1527">
        <ele>444.54</ele>
        <time>2021-06-23T10:27:32Z</time>
      </trkpt>
      <trkpt lat="48.22879" lon="7.15432">
        <ele>447.3</ele>
        <time>2021-06-23T10:27:34Z</time>
      </trkpt>
      <trkpt lat="48.22891" lon="7.15455">
        <ele>447.24</ele>
        <time>2021-06-23T10:27:37Z</time>
      </trkpt>
      <trkpt lat="48.22939" lon="7.1557">
        <ele>441.73</ele>
        <time>2021-06-23T10:27:39Z</time>
      </trkpt>
      <trkpt lat="48.22945" lon="7.15591">
        <ele>439.89</ele>
        <time>2021-06-23T10:27:41Z</time>
      </trkpt>
      <trkpt lat="48.22959" lon="7.15691">
        <ele>440.27</ele>
        <time>2021-06-23T10:27:44Z</time>
      </trkpt>
      <trkpt lat="48.22989" lon="7.15867">
        <ele>433.44</ele>
        <time>2021-06-23T10:27:46Z</time>
      </trkpt>
      <trkpt lat="48.22995" lon="7.15939">
        <ele>430.96</ele>
        <time>2021-06-23T10:27:49Z</time>
      </trkpt>
      <trkpt lat="48.22998" lon="7.15959">
        <ele>430.69</ele>
        <time>2021-06-23T10:27:51Z</time>
      </trkpt>
      <trkpt lat="48.23006" lon="7.15981">
        <ele>430.89</ele>
        <time>2021-06-23T10:27:54Z</time>
      </trkpt>
      <trkpt lat="48.2302" lon="7.16006">
        <ele>430.4</ele>
        <time>2021-06-23T10:27:56Z</time>
      </trkpt>
      <trkpt lat="48.23077" lon="7.16076">
        <ele>426.77</ele>
        <time>2021-06-23T10:27:58Z</time>
      </trkpt>
      <trkpt lat="48.23091" lon="7.16087">
        <ele>426.14</ele>
        <time>2021-06-23T10:28:01Z</time>
      </trkpt>
      <trkpt lat="48.23104" lon="7.16093">
        <ele>425.92</ele>
        <time>2021-06-23T10:28:03Z</time>
      </trkpt>
      <trkpt lat="48.2315" lon="7.16094">
        <ele>426.94</ele>
        <time>2021-06-23T10:28:06Z</time>
      </trkpt>
      <trkpt lat="48.2318" lon="7.16109">
        <ele>426.43</ele>
        <time>2021-06-23T10:28:08Z</time>
      </trkpt>
      <trkpt lat="48.23225" lon="7.16122">
        <ele>427.98</ele>
        <time>2021-06-23T10:28:11Z</time>
      </trkpt>
      <trkpt lat="48.23327" lon="7.16169">
        <ele>422.41</ele>
        <time>2021-06-23T10:28:13Z</time>
      </trkpt>
      <trkpt lat="48.23364" lon="7.16196">
        <ele>421.02</ele>
        <time>2021-06-23T10:28:15Z</time>
      </trkpt>
      <trkpt lat="48.23381" lon="7.16213">
        <ele>419.62</ele>
        <time>2021-06-23T10:28:18Z</time>
      </trkpt>
      <trkpt lat="48.23422" lon="7.16258">
        <ele>416.57</ele>
        <time>2021-06-23T10:28:20Z</time>
      </trkpt>
      <trkpt lat="48.23494" lon="7.16302">
        <ele>420.37</ele>
        <time>2021-06-23T10:28:23Z</time>
      </trkpt>
      <trkpt lat="48.23515" lon="7.16324">
        <ele>423.81</ele>
        <time>2021-06-23T10:28:25Z</time>
      </trkpt>
      <trkpt lat="48.23532" lon="7.16351">
        <ele>426.54</ele>
        <time>2021-06-23T10:28:28Z</time>
      </trkpt>
      <trkpt lat="48.23546" lon="7.16383">
        <ele>429.25</ele>
        <time>2021-06-23T10:28:30Z</time>
      </trkpt>
      <trkpt lat="48.23554" lon="7.16409">
        <ele>428.97</ele>
        <time>2021-06-23T10:28:32Z</time>
      </trkpt>
      <trkpt lat="48.23571" lon="7.16504">
        <ele>421.59</ele>
        <time>2021-06-23T10:28:35Z</time>
      </trkpt>
      <trkpt lat="48.23576" lon="7.16525">
        <ele>421.16</ele>
        <time>2021-06-23T10:28:37Z</time>
      </trkpt>
      <trkpt lat="48.23596" lon="7.16582">
        <ele>425.88</ele>
        <time>2021-06-23T10:28:40Z</time>
      </trkpt>
      <trkpt lat="48.23602" lon="7.16608">
        <ele>426.83</ele>
        <time>2021-06-23T10:28:42Z</time>
      </trkpt>
      <trkpt lat="48.23612" lon="7.16706">
        <ele>421.08</ele>
        <time>2021-06-23T10:28:45Z</time>
      </trkpt>
      <trkpt lat="48.23622" lon="7.16766">
        <ele>420.48</ele>
        <time>2021-06-23T10:28:47Z</time>
      </trkpt>
      <trkpt lat="48.23629" lon="7.16796">
        <ele>421.26</ele>
        <time>2021-06-23T10:28:49Z</time>
      </trkpt>
      <trkpt lat="48.23663" lon="7.16895">
        <ele>420.16</ele>
        <time>2021-06-23T10:28:52Z</time>
      </trkpt>
      <trkpt lat="48.23683" lon="7.16967">
        <ele>420.71</ele>
        <time>2021-06-23T10:28:54Z</time>
      </trkpt>
      <trkpt lat="48.23715" lon="7.17142">
        <ele>417.64</ele>
        <time>2021-06-23T10:28:57Z</time>
      </trkpt>
      <trkpt lat="48.23732" lon="7.17206">
        <ele>413.9</ele>
        <time>2021-06-23T10:28:59Z</time>
      </trkpt>
      <trkpt lat="48.23796" lon="7.1736">
        <ele>414.15</ele>
        <time>2021-06-23T10:29:02Z</time>
      </trkpt>
      <trkpt lat="48.23799" lon="7.17383">
        <ele>410.29</ele>
        <time>2021-06-23T10:29:04Z</time>
      </trkpt>
      <trkpt lat="48.23807" lon="7.17393">
        <ele>410.89</ele>
        <time>2021-06-23T10:29:06Z</time>
      </trkpt>
      <trkpt lat="48.23861" lon="7.1751">
        <ele>402.05</ele>
        <time>2021-06-23T10:29:09Z</time>
      </trkpt>
      <trkpt lat="48.23883" lon="7.17604">
        <ele>395.76</ele>
        <time>2021-06-23T10:29:11Z</time>
      </trkpt>
      <trkpt lat="48.23891" lon="7.17668">
        <ele>389.9</ele>
        <time>2021-06-23T10:29:14Z</time>
      </trkpt>
      <trkpt lat="48.23896" lon="7.17688">
        <ele>387.87</ele>
        <time>2021-06-23T10:29:16Z</time>
      </trkpt>
      <trkpt lat="48.23906" lon="7.17708">
        <ele>387.92</ele>
        <time>2021-06-23T10:29:19Z</time>
      </trkpt>
      <trkpt lat="48.23944" lon="7.17751">
        <ele>391.85</ele>
        <time>2021-06-23T10:29:21Z</time>
      </trkpt>
      <trkpt lat="48.24" lon="7.17804">
        <ele>387.18</ele>
        <time>2021-06-23T10:29:23Z</time>
      </trkpt>
      <trkpt lat="48.24032" lon="7.17838">
        <ele>386.98</ele>
        <time>2021-06-23T10:29:26Z</time>
      </trkpt>
      <trkpt lat="48.24094" lon="7.1791">
        <ele>386.61</ele>
        <time>2021-06-23T10:29:28Z</time>
      </trkpt>
      <trkpt lat="48.24136" lon="7.17964">
        <ele>384.14</ele>
        <time>2021-06-23T10:29:31Z</time>
      </trkpt>
      <trkpt lat="48.24146" lon="7.17972">
        <ele>384</ele>
        <time>2021-06-23T10:29:33Z</time>
      </trkpt>
      <trkpt lat="48.2417" lon="7.17985">
        <ele>384</ele>
        <time>2021-06-23T10:29:36Z</time>
      </trkpt>
      <trkpt lat="48.24223" lon="7.17994">
        <ele>383</ele>
        <time>2021-06-23T10:29:38Z</time>
      </trkpt>
      <trkpt lat="48.24247" lon="7.17988">
        <ele>383</ele>
        <time>2021-06-23T10:29:40Z</time>
      </trkpt>
      <trkpt lat="48.2428" lon="7.17982">
        <ele>382.92</ele>
        <time>2021-06-23T10:29:43Z</time>
      </trkpt>
      <trkpt lat="48.24311" lon="7.17986">
        <ele>381.89</ele>
        <time>2021-06-23T10:29:45Z</time>
      </trkpt>
      <trkpt lat="48.24384" lon="7.18017">
        <ele>381.32</ele>
        <time>2021-06-23T10:29:48Z</time>
      </trkpt>
      <trkpt lat="48.24385" lon="7.18024">
        <ele>381.13</ele>
        <time>2021-06-23T10:29:51Z</time>
      </trkpt>
      <trkpt lat="48.24389" lon="7.18028">
        <ele>380.99</ele>
        <time>2021-06-23T10:29:54Z</time>
      </trkpt>
      <trkpt lat="48.24387" lon="7.18042">
        <ele>380.49</ele>
        <time>2021-06-23T10:29:57Z</time>
      </trkpt>
      <trkpt lat="48.24372" lon="7.18092">
        <ele>379.43</ele>
        <time>2021-06-23T10:30:00Z</time>
      </trkpt>
      <trkpt lat="48.24345" lon="7.18205">
        <ele>380</ele>
        <time>2021-06-23T10:30:03Z</time>
      </trkpt>
      <trkpt lat="48.24344" lon="7.18214">
        <ele>380</ele>
        <time>2021-06-23T10:30:07Z</time>
      </trkpt>
      <trkpt lat="48.24351" lon="7.18223">
        <ele>380.02</ele>
        <time>2021-06-23T10:30:12Z</time>
      </trkpt>
      <trkpt lat="48.2439" lon="7.1825">
        <ele>379.96</ele>
        <time>2021-06-23T10:30:18Z</time>
      </trkpt>
      <trkpt lat="48.24434" lon="7.18277">
        <ele>378.03</ele>
        <time>2021-06-23T10:30:23Z</time>
      </trkpt>
      <trkpt lat="48.24465" lon="7.18298">
        <ele>377.29</ele>
        <time>2021-06-23T10:30:29Z</time>
      </trkpt>
      <trkpt lat="48.24528" lon="7.18358">
        <ele>376.12</ele>
        <time>2021-06-23T10:30:34Z</time>
      </trkpt>
      <trkpt lat="48.24537" lon="7.18372">
        <ele>376.14</ele>
        <time>2021-06-23T10:30:40Z</time>
      </trkpt>
      <trkpt lat="48.24539" lon="7.18384">
        <ele>376.34</ele>
        <time>2021-06-23T10:30:45Z</time>
      </trkpt>
      <trkpt lat="48.24543" lon="7.1843">
        <ele>376.28</ele>
        <time>2021-06-23T10:30:51Z</time>
      </trkpt>
      <trkpt lat="48.24547" lon="7.18437">
        <ele>376.17</ele>
        <time>2021-06-23T10:30:56Z</time>
      </trkpt>
      <trkpt lat="48.24559" lon="7.18448">
        <ele>375.98</ele>
        <time>2021-06-23T10:31:02Z</time>
      </trkpt>
      <trkpt lat="48.24574" lon="7.18453">
        <ele>375.8</ele>
        <time>2021-06-23T10:31:07Z</time>
      </trkpt>
      <trkpt lat="48.24583" lon="7.18459">
        <ele>375.48</ele>
        <time>2021-06-23T10:31:13Z</time>
      </trkpt>
      <trkpt lat="48.2461" lon="7.18502">
        <ele>373.97</ele>
        <time>2021-06-23T10:31:18Z</time>
      </trkpt>
      <trkpt lat="48.2464" lon="7.18538">
        <ele>371.62</ele>
        <time>2021-06-23T10:31:24Z</time>
      </trkpt>
      <trkpt lat="48.24656" lon="7.1855">
        <ele>371.19</ele>
        <time>2021-06-23T10:31:29Z</time>
      </trkpt>
      <trkpt lat="48.24687" lon="7.18531">
        <ele>371.23</ele>
        <time>2021-06-23T10:31:36Z</time>
      </trkpt>
      <trkpt lat="48.24687" lon="7.18531">
        <ele>371.23</ele>
        <time>2021-06-23T10:31:36Z</time>
      </trkpt>
      <trkpt lat="48.24691" lon="7.18528">
        <ele>371.13</ele>
        <time>2021-06-23T10:31:36Z</time>
      </trkpt>
      <trkpt lat="48.24659" lon="7.1844">
        <ele>373.4</ele>
        <time>2021-06-23T10:31:40Z</time>
      </trkpt>
      <trkpt lat="48.24631" lon="7.18381">
        <ele>375.3</ele>
        <time>2021-06-23T10:31:44Z</time>
      </trkpt>
      <trkpt lat="48.24601" lon="7.18308">
        <ele>374.73</ele>
        <time>2021-06-23T10:31:48Z</time>
      </trkpt>
      <trkpt lat="48.24599" lon="7.18298">
        <ele>374.56</ele>
        <time>2021-06-23T10:31:51Z</time>
      </trkpt>
      <trkpt lat="48.24584" lon="7.1827">
        <ele>374.56</ele>
        <time>2021-06-23T10:31:55Z</time>
      </trkpt>
      <trkpt lat="48.24539" lon="7.18189">
        <ele>379.92</ele>
        <time>2021-06-23T10:31:59Z</time>
      </trkpt>
      <trkpt lat="48.2452" lon="7.18122">
        <ele>381.72</ele>
        <time>2021-06-23T10:32:03Z</time>
      </trkpt>
      <trkpt lat="48.24498" lon="7.18026">
        <ele>383.27</ele>
        <time>2021-06-23T10:32:07Z</time>
      </trkpt>
      <trkpt lat="48.24481" lon="7.1797">
        <ele>386.78</ele>
        <time>2021-06-23T10:32:10Z</time>
      </trkpt>
      <trkpt lat="48.24476" lon="7.17955">
        <ele>387.55</ele>
        <time>2021-06-23T10:32:14Z</time>
      </trkpt>
      <trkpt lat="48.24441" lon="7.17896">
        <ele>388.73</ele>
        <time>2021-06-23T10:32:18Z</time>
      </trkpt>
      <trkpt lat="48.24435" lon="7.17883">
        <ele>389.13</ele>
        <time>2021-06-23T10:32:22Z</time>
      </trkpt>
      <trkpt lat="48.24403" lon="7.17744">
        <ele>391.49</ele>
        <time>2021-06-23T10:32:25Z</time>
      </trkpt>
      <trkpt lat="48.24384" lon="7.17668">
        <ele>391.42</ele>
        <time>2021-06-23T10:32:29Z</time>
      </trkpt>
      <trkpt lat="48.24329" lon="7.17505">
        <ele>398.2</ele>
        <time>2021-06-23T10:32:33Z</time>
      </trkpt>
      <trkpt lat="48.24312" lon="7.17463">
        <ele>400.2</ele>
        <time>2021-06-23T10:32:37Z</time>
      </trkpt>
      <trkpt lat="48.24307" lon="7.17445">
        <ele>401.15</ele>
        <time>2021-06-23T10:32:41Z</time>
      </trkpt>
      <trkpt lat="48.24302" lon="7.17415">
        <ele>401.31</ele>
        <time>2021-06-23T10:32:44Z</time>
      </trkpt>
      <trkpt lat="48.243" lon="7.17372">
        <ele>404</ele>
        <time>2021-06-23T10:32:48Z</time>
      </trkpt>
      <trkpt lat="48.24301" lon="7.16983">
        <ele>413.7</ele>
        <time>2021-06-23T10:32:52Z</time>
      </trkpt>
      <trkpt lat="48.24296" lon="7.1691">
        <ele>412.04</ele>
        <time>2021-06-23T10:32:56Z</time>
      </trkpt>
      <trkpt lat="48.24288" lon="7.16846">
        <ele>414.23</ele>
        <time>2021-06-23T10:32:59Z</time>
      </trkpt>
      <trkpt lat="48.24245" lon="7.16641">
        <ele>421.16</ele>
        <time>2021-06-23T10:33:03Z</time>
      </trkpt>
      <trkpt lat="48.24247" lon="7.16619">
        <ele>420.49</ele>
        <time>2021-06-23T10:33:07Z</time>
      </trkpt>
      <trkpt lat="48.24277" lon="7.16482">
        <ele>426.91</ele>
        <time>2021-06-23T10:33:11Z</time>
      </trkpt>
      <trkpt lat="48.24293" lon="7.16391">
        <ele>438.23</ele>
        <time>2021-06-23T10:33:14Z</time>
      </trkpt>
      <trkpt lat="48.24303" lon="7.16295">
        <ele>437.8</ele>
        <time>2021-06-23T10:33:18Z</time>
      </trkpt>
      <trkpt lat="48.24309" lon="7.16271">
        <ele>441.07</ele>
        <time>2021-06-23T10:33:22Z</time>
      </trkpt>
      <trkpt lat="48.24321" lon="7.16247">
        <ele>445.02</ele>
        <time>2021-06-23T10:33:26Z</time>
      </trkpt>
      <trkpt lat="48.24342" lon="7.16213">
        <ele>450.01</ele>
        <time>2021-06-23T10:33:30Z</time>
      </trkpt>
      <trkpt lat="48.24362" lon="7.16187">
        <ele>452.69</ele>
        <time>2021-06-23T10:33:33Z</time>
      </trkpt>
      <trkpt lat="48.24375" lon="7.16179">
        <ele>454.51</ele>
        <time>2021-06-23T10:33:37Z</time>
      </trkpt>
      <trkpt lat="48.24391" lon="7.16176">
        <ele>455.1</ele>
        <time>2021-06-23T10:33:41Z</time>
      </trkpt>
      <trkpt lat="48.24405" lon="7.16181">
        <ele>455.9</ele>
        <time>2021-06-23T10:33:45Z</time>
      </trkpt>
      <trkpt lat="48.24422" lon="7.16194">
        <ele>456.62</ele>
        <time>2021-06-23T10:33:48Z</time>
      </trkpt>
      <trkpt lat="48.24434" lon="7.16209">
        <ele>458.38</ele>
        <time>2021-06-23T10:33:52Z</time>
      </trkpt>
      <trkpt lat="48.24446" lon="7.16232">
        <ele>462.27</ele>
        <time>2021-06-23T10:33:56Z</time>
      </trkpt>
      <trkpt lat="48.24462" lon="7.16255">
        <ele>468.08</ele>
        <time>2021-06-23T10:34:00Z</time>
      </trkpt>
      <trkpt lat="48.24476" lon="7.16265">
        <ele>471.03</ele>
        <time>2021-06-23T10:34:04Z</time>
      </trkpt>
      <trkpt lat="48.24539" lon="7.16277">
        <ele>475.14</ele>
        <time>2021-06-23T10:34:07Z</time>
      </trkpt>
      <trkpt lat="48.2457" lon="7.16275">
        <ele>476.53</ele>
        <time>2021-06-23T10:34:11Z</time>
      </trkpt>
      <trkpt lat="48.24591" lon="7.16267">
        <ele>476.01</ele>
        <time>2021-06-23T10:34:15Z</time>
      </trkpt>
      <trkpt lat="48.24611" lon="7.16256">
        <ele>478.07</ele>
        <time>2021-06-23T10:34:19Z</time>
      </trkpt>
      <trkpt lat="48.24649" lon="7.16226">
        <ele>481.7</ele>
        <time>2021-06-23T10:34:22Z</time>
      </trkpt>
      <trkpt lat="48.24738" lon="7.16148">
        <ele>491.55</ele>
        <time>2021-06-23T10:34:26Z</time>
      </trkpt>
      <trkpt lat="48.24757" lon="7.16135">
        <ele>494.54</ele>
        <time>2021-06-23T10:34:30Z</time>
      </trkpt>
      <trkpt lat="48.24808" lon="7.16113">
        <ele>499.85</ele>
        <time>2021-06-23T10:34:34Z</time>
      </trkpt>
      <trkpt lat="48.24841" lon="7.16094">
        <ele>502.19</ele>
        <time>2021-06-23T10:34:37Z</time>
      </trkpt>
      <trkpt lat="48.24859" lon="7.16076">
        <ele>501.99</ele>
        <time>2021-06-23T10:34:41Z</time>
      </trkpt>
      <trkpt lat="48.24879" lon="7.16048">
        <ele>503.27</ele>
        <time>2021-06-23T10:34:45Z</time>
      </trkpt>
      <trkpt lat="48.24925" lon="7.15965">
        <ele>508.31</ele>
        <time>2021-06-23T10:34:49Z</time>
      </trkpt>
      <trkpt lat="48.24956" lon="7.15895">
        <ele>517.76</ele>
        <time>2021-06-23T10:34:53Z</time>
      </trkpt>
      <trkpt lat="48.24967" lon="7.15874">
        <ele>519.22</ele>
        <time>2021-06-23T10:34:56Z</time>
      </trkpt>
      <trkpt lat="48.25063" lon="7.15749">
        <ele>525.87</ele>
        <time>2021-06-23T10:35:00Z</time>
      </trkpt>
      <trkpt lat="48.2509" lon="7.15709">
        <ele>534</ele>
        <time>2021-06-23T10:35:04Z</time>
      </trkpt>
      <trkpt lat="48.2514" lon="7.15651">
        <ele>540.32</ele>
        <time>2021-06-23T10:35:08Z</time>
      </trkpt>
      <trkpt lat="48.25189" lon="7.15588">
        <ele>550.69</ele>
        <time>2021-06-23T10:35:11Z</time>
      </trkpt>
      <trkpt lat="48.25195" lon="7.15565">
        <ele>547.4</ele>
        <time>2021-06-23T10:35:15Z</time>
      </trkpt>
      <trkpt lat="48.25194" lon="7.15545">
        <ele>544.27</ele>
        <time>2021-06-23T10:35:19Z</time>
      </trkpt>
      <trkpt lat="48.2519" lon="7.15528">
        <ele>543.2</ele>
        <time>2021-06-23T10:35:23Z</time>
      </trkpt>
      <trkpt lat="48.25179" lon="7.15512">
        <ele>545.38</ele>
        <time>2021-06-23T10:35:27Z</time>
      </trkpt>
      <trkpt lat="48.25167" lon="7.15507">
        <ele>547.71</ele>
        <time>2021-06-23T10:35:30Z</time>
      </trkpt>
      <trkpt lat="48.25153" lon="7.15508">
        <ele>553.45</ele>
        <time>2021-06-23T10:35:34Z</time>
      </trkpt>
      <trkpt lat="48.24957" lon="7.15592">
        <ele>573.3</ele>
        <time>2021-06-23T10:35:38Z</time>
      </trkpt>
      <trkpt lat="48.24914" lon="7.15615">
        <ele>576.24</ele>
        <time>2021-06-23T10:35:42Z</time>
      </trkpt>
      <trkpt lat="48.24883" lon="7.15637">
        <ele>577.82</ele>
        <time>2021-06-23T10:35:45Z</time>
      </trkpt>
      <trkpt lat="48.24778" lon="7.1573">
        <ele>598.65</ele>
        <time>2021-06-23T10:35:49Z</time>
      </trkpt>
      <trkpt lat="48.24765" lon="7.15745">
        <ele>601.74</ele>
        <time>2021-06-23T10:35:53Z</time>
      </trkpt>
      <trkpt lat="48.24759" lon="7.15764">
        <ele>600.07</ele>
        <time>2021-06-23T10:35:57Z</time>
      </trkpt>
      <trkpt lat="48.24752" lon="7.15815">
        <ele>592.69</ele>
        <time>2021-06-23T10:36:01Z</time>
      </trkpt>
      <trkpt lat="48.24749" lon="7.15832">
        <ele>590.73</ele>
        <time>2021-06-23T10:36:04Z</time>
      </trkpt>
      <trkpt lat="48.24743" lon="7.15845">
        <ele>590.08</ele>
        <time>2021-06-23T10:36:08Z</time>
      </trkpt>
      <trkpt lat="48.24735" lon="7.15855">
        <ele>590.73</ele>
        <time>2021-06-23T10:36:12Z</time>
      </trkpt>
      <trkpt lat="48.24724" lon="7.15863">
        <ele>592.18</ele>
        <time>2021-06-23T10:36:16Z</time>
      </trkpt>
      <trkpt lat="48.24709" lon="7.15866">
        <ele>593.05</ele>
        <time>2021-06-23T10:36:19Z</time>
      </trkpt>
      <trkpt lat="48.24695" lon="7.1586">
        <ele>596.14</ele>
        <time>2021-06-23T10:36:23Z</time>
      </trkpt>
      <trkpt lat="48.24683" lon="7.1585">
        <ele>596.26</ele>
        <time>2021-06-23T10:36:27Z</time>
      </trkpt>
      <trkpt lat="48.24676" lon="7.15836">
        <ele>598.05</ele>
        <time>2021-06-23T10:36:31Z</time>
      </trkpt>
      <trkpt lat="48.24671" lon="7.1582">
        <ele>599.67</ele>
        <time>2021-06-23T10:36:34Z</time>
      </trkpt>
      <trkpt lat="48.24669" lon="7.158">
        <ele>601.85</ele>
        <time>2021-06-23T10:36:38Z</time>
      </trkpt>
      <trkpt lat="48.24668" lon="7.15764">
        <ele>605.24</ele>
        <time>2021-06-23T10:36:42Z</time>
      </trkpt>
      <trkpt lat="48.24647" lon="7.15595">
        <ele>619.28</ele>
        <time>2021-06-23T10:36:46Z</time>
      </trkpt>
      <trkpt lat="48.24641" lon="7.15507">
        <ele>624.46</ele>
        <time>2021-06-23T10:36:50Z</time>
      </trkpt>
      <trkpt lat="48.2464" lon="7.15438">
        <ele>633.52</ele>
        <time>2021-06-23T10:36:53Z</time>
      </trkpt>
      <trkpt lat="48.24644" lon="7.15346">
        <ele>634.11</ele>
        <time>2021-06-23T10:36:57Z</time>
      </trkpt>
      <trkpt lat="48.24658" lon="7.15194">
        <ele>647.27</ele>
        <time>2021-06-23T10:37:01Z</time>
      </trkpt>
      <trkpt lat="48.24662" lon="7.15027">
        <ele>653.24</ele>
        <time>2021-06-23T10:37:05Z</time>
      </trkpt>
      <trkpt lat="48.24667" lon="7.15">
        <ele>657.2</ele>
        <time>2021-06-23T10:37:08Z</time>
      </trkpt>
      <trkpt lat="48.24674" lon="7.14981">
        <ele>657.95</ele>
        <time>2021-06-23T10:37:12Z</time>
      </trkpt>
      <trkpt lat="48.24794" lon="7.14752">
        <ele>674.79</ele>
        <time>2021-06-23T10:37:16Z</time>
      </trkpt>
      <trkpt lat="48.24804" lon="7.14728">
        <ele>676.83</ele>
        <time>2021-06-23T10:37:20Z</time>
      </trkpt>
      <trkpt lat="48.2481" lon="7.14699">
        <ele>678.38</ele>
        <time>2021-06-23T10:37:24Z</time>
      </trkpt>
      <trkpt lat="48.24819" lon="7.14615">
        <ele>683.74</ele>
        <time>2021-06-23T10:37:27Z</time>
      </trkpt>
      <trkpt lat="48.24819" lon="7.14581">
        <ele>685.8</ele>
        <time>2021-06-23T10:37:31Z</time>
      </trkpt>
      <trkpt lat="48.24814" lon="7.14551">
        <ele>687.54</ele>
        <time>2021-06-23T10:37:35Z</time>
      </trkpt>
      <trkpt lat="48.24804" lon="7.1453">
        <ele>687.51</ele>
        <time>2021-06-23T10:37:39Z</time>
      </trkpt>
      <trkpt lat="48.24793" lon="7.14515">
        <ele>691.33</ele>
        <time>2021-06-23T10:37:42Z</time>
      </trkpt>
      <trkpt lat="48.24777" lon="7.14503">
        <ele>694.35</ele>
        <time>2021-06-23T10:37:46Z</time>
      </trkpt>
      <trkpt lat="48.24757" lon="7.14492">
        <ele>703.97</ele>
        <time>2021-06-23T10:37:50Z</time>
      </trkpt>
      <trkpt lat="48.24738" lon="7.14488">
        <ele>707.95</ele>
        <time>2021-06-23T10:37:54Z</time>
      </trkpt>
      <trkpt lat="48.24696" lon="7.14498">
        <ele>698.98</ele>
        <time>2021-06-23T10:37:57Z</time>
      </trkpt>
      <trkpt lat="48.24681" lon="7.14498">
        <ele>696.14</ele>
        <time>2021-06-23T10:38:01Z</time>
      </trkpt>
      <trkpt lat="48.24668" lon="7.14491">
        <ele>695.47</ele>
        <time>2021-06-23T10:38:05Z</time>
      </trkpt>
      <trkpt lat="48.24658" lon="7.14481">
        <ele>695.86</ele>
        <time>2021-06-23T10:38:09Z</time>
      </trkpt>
      <trkpt lat="48.24652" lon="7.14472">
        <ele>696.9</ele>
        <time>2021-06-23T10:38:13Z</time>
      </trkpt>
      <trkpt lat="48.24647" lon="7.14453">
        <ele>698.87</ele>
        <time>2021-06-23T10:38:16Z</time>
      </trkpt>
      <trkpt lat="48.24646" lon="7.14431">
        <ele>700.94</ele>
        <time>2021-06-23T10:38:20Z</time>
      </trkpt>
      <trkpt lat="48.24656" lon="7.14347">
        <ele>709.23</ele>
        <time>2021-06-23T10:38:24Z</time>
      </trkpt>
      <trkpt lat="48.24664" lon="7.14239">
        <ele>722.5</ele>
        <time>2021-06-23T10:38:28Z</time>
      </trkpt>
      <trkpt lat="48.24661" lon="7.14196">
        <ele>726.05</ele>
        <time>2021-06-23T10:38:31Z</time>
      </trkpt>
      <trkpt lat="48.24621" lon="7.13979">
        <ele>736.65</ele>
        <time>2021-06-23T10:38:35Z</time>
      </trkpt>
      <trkpt lat="48.2461" lon="7.13932">
        <ele>739.01</ele>
        <time>2021-06-23T10:38:39Z</time>
      </trkpt>
      <trkpt lat="48.24603" lon="7.13914">
        <ele>739.35</ele>
        <time>2021-06-23T10:38:43Z</time>
      </trkpt>
      <trkpt lat="48.2449" lon="7.13726">
        <ele>758.87</ele>
        <time>2021-06-23T10:38:47Z</time>
      </trkpt>
      <trkpt lat="48.24477" lon="7.1371">
        <ele>760.23</ele>
        <time>2021-06-23T10:38:50Z</time>
      </trkpt>
      <trkpt lat="48.24428" lon="7.13664">
        <ele>758.86</ele>
        <time>2021-06-23T10:38:54Z</time>
      </trkpt>
      <trkpt lat="48.24406" lon="7.13638">
        <ele>760.7</ele>
        <time>2021-06-23T10:38:58Z</time>
      </trkpt>
      <trkpt lat="48.24389" lon="7.13613">
        <ele>761.61</ele>
        <time>2021-06-23T10:39:02Z</time>
      </trkpt>
      <trkpt lat="48.24379" lon="7.13594">
        <ele>761.57</ele>
        <time>2021-06-23T10:39:05Z</time>
      </trkpt>
      <trkpt lat="48.24373" lon="7.13578">
        <ele>761.64</ele>
        <time>2021-06-23T10:39:09Z</time>
      </trkpt>
      <trkpt lat="48.24368" lon="7.13555">
        <ele>762.42</ele>
        <time>2021-06-23T10:39:13Z</time>
      </trkpt>
      <trkpt lat="48.24366" lon="7.13534">
        <ele>763.12</ele>
        <time>2021-06-23T10:39:17Z</time>
      </trkpt>
      <trkpt lat="48.24367" lon="7.13452">
        <ele>771.34</ele>
        <time>2021-06-23T10:39:20Z</time>
      </trkpt>
      <trkpt lat="48.24362" lon="7.1341">
        <ele>772.77</ele>
        <time>2021-06-23T10:39:24Z</time>
      </trkpt>
      <trkpt lat="48.24355" lon="7.13386">
        <ele>772.93</ele>
        <time>2021-06-23T10:39:28Z</time>
      </trkpt>
      <trkpt lat="48.24341" lon="7.13329">
        <ele>776.06</ele>
        <time>2021-06-23T10:39:32Z</time>
      </trkpt>
      <trkpt lat="48.24333" lon="7.13279">
        <ele>775.99</ele>
        <time>2021-06-23T10:39:36Z</time>
      </trkpt>
      <trkpt lat="48.24332" lon="7.13264">
        <ele>775.54</ele>
        <time>2021-06-23T10:39:39Z</time>
      </trkpt>
      <trkpt lat="48.24332" lon="7.13264">
        <ele>775.54</ele>
        <time>2021-06-23T10:39:39Z</time>
      </trkpt>
      <trkpt lat="48.24332" lon="7.13254">
        <ele>775.1</ele>
        <time>2021-06-23T10:39:43Z</time>
      </trkpt>
      <trkpt lat="48.24335" lon="7.13216">
        <ele>771.4</ele>
        <time>2021-06-23T10:39:47Z</time>
      </trkpt>
      <trkpt lat="48.2434" lon="7.13195">
        <ele>769.3</ele>
        <time>2021-06-23T10:39:51Z</time>
      </trkpt>
      <trkpt lat="48.24347" lon="7.13179">
        <ele>767.81</ele>
        <time>2021-06-23T10:39:55Z</time>
      </trkpt>
      <trkpt lat="48.24362" lon="7.13163">
        <ele>765.13</ele>
        <time>2021-06-23T10:39:59Z</time>
      </trkpt>
      <trkpt lat="48.24378" lon="7.13153">
        <ele>763.6</ele>
        <time>2021-06-23T10:40:03Z</time>
      </trkpt>
      <trkpt lat="48.24496" lon="7.13104">
        <ele>759.39</ele>
        <time>2021-06-23T10:40:07Z</time>
      </trkpt>
      <trkpt lat="48.2453" lon="7.13085">
        <ele>758.5</ele>
        <time>2021-06-23T10:40:11Z</time>
      </trkpt>
      <trkpt lat="48.24564" lon="7.13056">
        <ele>749.34</ele>
        <time>2021-06-23T10:40:15Z</time>
      </trkpt>
      <trkpt lat="48.24626" lon="7.12998">
        <ele>738.34</ele>
        <time>2021-06-23T10:40:18Z</time>
      </trkpt>
      <trkpt lat="48.24666" lon="7.12953">
        <ele>736.61</ele>
        <time>2021-06-23T10:40:22Z</time>
      </trkpt>
      <trkpt lat="48.24724" lon="7.12895">
        <ele>732.06</ele>
        <time>2021-06-23T10:40:26Z</time>
      </trkpt>
      <trkpt lat="48.24884" lon="7.12751">
        <ele>715.71</ele>
        <time>2021-06-23T10:40:30Z</time>
      </trkpt>
      <trkpt lat="48.24907" lon="7.12738">
        <ele>715.76</ele>
        <time>2021-06-23T10:40:34Z</time>
      </trkpt>
      <trkpt lat="48.24923" lon="7.12735">
        <ele>716.71</ele>
        <time>2021-06-23T10:40:38Z</time>
      </trkpt>
      <trkpt lat="48.24943" lon="7.12743">
        <ele>720.15</ele>
        <time>2021-06-23T10:40:42Z</time>
      </trkpt>
      <trkpt lat="48.24996" lon="7.12781">
        <ele>712.42</ele>
        <time>2021-06-23T10:40:46Z</time>
      </trkpt>
      <trkpt lat="48.25027" lon="7.12798">
        <ele>705.05</ele>
        <time>2021-06-23T10:40:50Z</time>
      </trkpt>
      <trkpt lat="48.25058" lon="7.12804">
        <ele>699.46</ele>
        <time>2021-06-23T10:40:54Z</time>
      </trkpt>
      <trkpt lat="48.25096" lon="7.12805">
        <ele>697.4</ele>
        <time>2021-06-23T10:40:57Z</time>
      </trkpt>
      <trkpt lat="48.25141" lon="7.12823">
        <ele>693.01</ele>
        <time>2021-06-23T10:41:01Z</time>
      </trkpt>
      <trkpt lat="48.25193" lon="7.12883">
        <ele>690.07</ele>
        <time>2021-06-23T10:41:05Z</time>
      </trkpt>
      <trkpt lat="48.25252" lon="7.12928">
        <ele>690.23</ele>
        <time>2021-06-23T10:41:09Z</time>
      </trkpt>
      <trkpt lat="48.2526" lon="7.1293">
        <ele>688.44</ele>
        <time>2021-06-23T10:41:13Z</time>
      </trkpt>
      <trkpt lat="48.25266" lon="7.12927">
        <ele>685.32</ele>
        <time>2021-06-23T10:41:17Z</time>
      </trkpt>
      <trkpt lat="48.2527" lon="7.12917">
        <ele>681.29</ele>
        <time>2021-06-23T10:41:21Z</time>
      </trkpt>
      <trkpt lat="48.2527" lon="7.12908">
        <ele>679.32</ele>
        <time>2021-06-23T10:41:25Z</time>
      </trkpt>
      <trkpt lat="48.25267" lon="7.129">
        <ele>678.38</ele>
        <time>2021-06-23T10:41:29Z</time>
      </trkpt>
      <trkpt lat="48.25261" lon="7.12894">
        <ele>678.44</ele>
        <time>2021-06-23T10:41:33Z</time>
      </trkpt>
      <trkpt lat="48.25242" lon="7.12883">
        <ele>680.45</ele>
        <time>2021-06-23T10:41:36Z</time>
      </trkpt>
      <trkpt lat="48.25225" lon="7.12866">
        <ele>679.77</ele>
        <time>2021-06-23T10:41:40Z</time>
      </trkpt>
      <trkpt lat="48.25213" lon="7.1285">
        <ele>678.23</ele>
        <time>2021-06-23T10:41:44Z</time>
      </trkpt>
      <trkpt lat="48.25195" lon="7.12816">
        <ele>675.88</ele>
        <time>2021-06-23T10:41:48Z</time>
      </trkpt>
      <trkpt lat="48.25153" lon="7.12719">
        <ele>664.72</ele>
        <time>2021-06-23T10:41:52Z</time>
      </trkpt>
      <trkpt lat="48.25144" lon="7.12705">
        <ele>662.84</ele>
        <time>2021-06-23T10:41:56Z</time>
      </trkpt>
      <trkpt lat="48.25133" lon="7.12698">
        <ele>662.36</ele>
        <time>2021-06-23T10:42:00Z</time>
      </trkpt>
      <trkpt lat="48.25084" lon="7.12689">
        <ele>668.26</ele>
        <time>2021-06-23T10:42:04Z</time>
      </trkpt>
      <trkpt lat="48.25072" lon="7.12684">
        <ele>668.76</ele>
        <time>2021-06-23T10:42:08Z</time>
      </trkpt>
      <trkpt lat="48.25064" lon="7.12678">
        <ele>668.43</ele>
        <time>2021-06-23T10:42:12Z</time>
      </trkpt>
      <trkpt lat="48.2506" lon="7.12673">
        <ele>667.69</ele>
        <time>2021-06-23T10:42:15Z</time>
      </trkpt>
      <trkpt lat="48.25055" lon="7.12657">
        <ele>665.18</ele>
        <time>2021-06-23T10:42:19Z</time>
      </trkpt>
      <trkpt lat="48.25054" lon="7.12638">
        <ele>661.52</ele>
        <time>2021-06-23T10:42:23Z</time>
      </trkpt>
      <trkpt lat="48.25058" lon="7.12621">
        <ele>660.32</ele>
        <time>2021-06-23T10:42:27Z</time>
      </trkpt>
      <trkpt lat="48.25068" lon="7.12586">
        <ele>655.21</ele>
        <time>2021-06-23T10:42:31Z</time>
      </trkpt>
      <trkpt lat="48.25067" lon="7.12572">
        <ele>654.6</ele>
        <time>2021-06-23T10:42:35Z</time>
      </trkpt>
      <trkpt lat="48.25064" lon="7.12555">
        <ele>654.44</ele>
        <time>2021-06-23T10:42:39Z</time>
      </trkpt>
      <trkpt lat="48.25061" lon="7.12545">
        <ele>654.18</ele>
        <time>2021-06-23T10:42:43Z</time>
      </trkpt>
      <trkpt lat="48.25049" lon="7.12527">
        <ele>654.76</ele>
        <time>2021-06-23T10:42:47Z</time>
      </trkpt>
      <trkpt lat="48.25017" lon="7.12506">
        <ele>654.13</ele>
        <time>2021-06-23T10:42:51Z</time>
      </trkpt>
      <trkpt lat="48.24974" lon="7.12481">
        <ele>650.84</ele>
        <time>2021-06-23T10:42:54Z</time>
      </trkpt>
      <trkpt lat="48.24941" lon="7.12471">
        <ele>648.48</ele>
        <time>2021-06-23T10:42:58Z</time>
      </trkpt>
      <trkpt lat="48.24909" lon="7.12464">
        <ele>645.17</ele>
        <time>2021-06-23T10:43:02Z</time>
      </trkpt>
      <trkpt lat="48.24877" lon="7.12458">
        <ele>643.97</ele>
        <time>2021-06-23T10:43:06Z</time>
      </trkpt>
      <trkpt lat="48.24846" lon="7.12456">
        <ele>643.02</ele>
        <time>2021-06-23T10:43:10Z</time>
      </trkpt>
      <trkpt lat="48.24766" lon="7.12467">
        <ele>632.28</ele>
        <time>2021-06-23T10:43:14Z</time>
      </trkpt>
      <trkpt lat="48.24752" lon="7.12467">
        <ele>630.17</ele>
        <time>2021-06-23T10:43:18Z</time>
      </trkpt>
      <trkpt lat="48.24744" lon="7.12464">
        <ele>629.38</ele>
        <time>2021-06-23T10:43:22Z</time>
      </trkpt>
      <trkpt lat="48.24736" lon="7.12458">
        <ele>628.52</ele>
        <time>2021-06-23T10:43:26Z</time>
      </trkpt>
      <trkpt lat="48.24727" lon="7.12448">
        <ele>627.17</ele>
        <time>2021-06-23T10:43:30Z</time>
      </trkpt>
      <trkpt lat="48.24701" lon="7.12395">
        <ele>622.59</ele>
        <time>2021-06-23T10:43:33Z</time>
      </trkpt>
      <trkpt lat="48.24663" lon="7.12324">
        <ele>625.35</ele>
        <time>2021-06-23T10:43:37Z</time>
      </trkpt>
      <trkpt lat="48.24658" lon="7.12309">
        <ele>628.67</ele>
        <time>2021-06-23T10:43:41Z</time>
      </trkpt>
      <trkpt lat="48.24659" lon="7.12298">
        <ele>630.39</ele>
        <time>2021-06-23T10:43:45Z</time>
      </trkpt>
      <trkpt lat="48.24662" lon="7.1229">
        <ele>631.41</ele>
        <time>2021-06-23T10:43:49Z</time>
      </trkpt>
      <trkpt lat="48.24668" lon="7.12283">
        <ele>631.9</ele>
        <time>2021-06-23T10:43:53Z</time>
      </trkpt>
      <trkpt lat="48.24674" lon="7.1228">
        <ele>631.91</ele>
        <time>2021-06-23T10:43:57Z</time>
      </trkpt>
      <trkpt lat="48.24699" lon="7.12279">
        <ele>629.6</ele>
        <time>2021-06-23T10:44:01Z</time>
      </trkpt>
      <trkpt lat="48.24754" lon="7.12292">
        <ele>614.18</ele>
        <time>2021-06-23T10:44:05Z</time>
      </trkpt>
      <trkpt lat="48.24803" lon="7.1231">
        <ele>606.95</ele>
        <time>2021-06-23T10:44:09Z</time>
      </trkpt>
      <trkpt lat="48.24816" lon="7.12313">
        <ele>605.35</ele>
        <time>2021-06-23T10:44:12Z</time>
      </trkpt>
      <trkpt lat="48.24844" lon="7.12312">
        <ele>601.97</ele>
        <time>2021-06-23T10:44:16Z</time>
      </trkpt>
      <trkpt lat="48.24865" lon="7.12306">
        <ele>599.87</ele>
        <time>2021-06-23T10:44:20Z</time>
      </trkpt>
      <trkpt lat="48.24932" lon="7.12278">
        <ele>605.08</ele>
        <time>2021-06-23T10:44:24Z</time>
      </trkpt>
      <trkpt lat="48.25011" lon="7.12278">
        <ele>596.67</ele>
        <time>2021-06-23T10:44:28Z</time>
      </trkpt>
      <trkpt lat="48.25075" lon="7.12264">
        <ele>589.38</ele>
        <time>2021-06-23T10:44:32Z</time>
      </trkpt>
      <trkpt lat="48.25109" lon="7.1226">
        <ele>583.01</ele>
        <time>2021-06-23T10:44:36Z</time>
      </trkpt>
      <trkpt lat="48.25139" lon="7.12252">
        <ele>579.66</ele>
        <time>2021-06-23T10:44:40Z</time>
      </trkpt>
      <trkpt lat="48.25237" lon="7.12206">
        <ele>571.76</ele>
        <time>2021-06-23T10:44:44Z</time>
      </trkpt>
      <trkpt lat="48.25298" lon="7.1215">
        <ele>570.68</ele>
        <time>2021-06-23T10:44:48Z</time>
      </trkpt>
      <trkpt lat="48.25386" lon="7.12089">
        <ele>548.36</ele>
        <time>2021-06-23T10:44:51Z</time>
      </trkpt>
      <trkpt lat="48.2541" lon="7.12064">
        <ele>542.12</ele>
        <time>2021-06-23T10:44:55Z</time>
      </trkpt>
      <trkpt lat="48.25434" lon="7.12036">
        <ele>539.08</ele>
        <time>2021-06-23T10:44:59Z</time>
      </trkpt>
      <trkpt lat="48.25474" lon="7.11981">
        <ele>537.97</ele>
        <time>2021-06-23T10:45:03Z</time>
      </trkpt>
      <trkpt lat="48.25484" lon="7.11962">
        <ele>539.33</ele>
        <time>2021-06-23T10:45:07Z</time>
      </trkpt>
      <trkpt lat="48.25519" lon="7.11889">
        <ele>536.99</ele>
        <time>2021-06-23T10:45:11Z</time>
      </trkpt>
      <trkpt lat="48.2554" lon="7.11854">
        <ele>538.21</ele>
        <time>2021-06-23T10:45:15Z</time>
      </trkpt>
      <trkpt lat="48.25562" lon="7.11822">
        <ele>535.91</ele>
        <time>2021-06-23T10:45:19Z</time>
      </trkpt>
      <trkpt lat="48.25625" lon="7.11753">
        <ele>528.72</ele>
        <time>2021-06-23T10:45:23Z</time>
      </trkpt>
      <trkpt lat="48.25651" lon="7.11715">
        <ele>526.45</ele>
        <time>2021-06-23T10:45:27Z</time>
      </trkpt>
      <trkpt lat="48.25677" lon="7.11662">
        <ele>520.95</ele>
        <time>2021-06-23T10:45:30Z</time>
      </trkpt>
      <trkpt lat="48.25698" lon="7.1161">
        <ele>516.31</ele>
        <time>2021-06-23T10:45:34Z</time>
      </trkpt>
      <trkpt lat="48.25746" lon="7.11504">
        <ele>514.05</ele>
        <time>2021-06-23T10:45:38Z</time>
      </trkpt>
      <trkpt lat="48.25774" lon="7.1145">
        <ele>505.69</ele>
        <time>2021-06-23T10:45:42Z</time>
      </trkpt>
      <trkpt lat="48.25785" lon="7.11424">
        <ele>505.74</ele>
        <time>2021-06-23T10:45:46Z</time>
      </trkpt>
      <trkpt lat="48.25812" lon="7.11332">
        <ele>503.35</ele>
        <time>2021-06-23T10:45:50Z</time>
      </trkpt>
      <trkpt lat="48.25819" lon="7.11297">
        <ele>500.88</ele>
        <time>2021-06-23T10:45:54Z</time>
      </trkpt>
      <trkpt lat="48.2582" lon="7.11264">
        <ele>499.66</ele>
        <time>2021-06-23T10:45:58Z</time>
      </trkpt>
      <trkpt lat="48.25819" lon="7.11222">
        <ele>499.05</ele>
        <time>2021-06-23T10:46:02Z</time>
      </trkpt>
      <trkpt lat="48.25804" lon="7.11071">
        <ele>497.8</ele>
        <time>2021-06-23T10:46:06Z</time>
      </trkpt>
      <trkpt lat="48.25801" lon="7.11031">
        <ele>495.95</ele>
        <time>2021-06-23T10:46:09Z</time>
      </trkpt>
      <trkpt lat="48.25802" lon="7.10991">
        <ele>491.74</ele>
        <time>2021-06-23T10:46:13Z</time>
      </trkpt>
      <trkpt lat="48.25822" lon="7.10873">
        <ele>487.14</ele>
        <time>2021-06-23T10:46:17Z</time>
      </trkpt>
      <trkpt lat="48.25823" lon="7.10851">
        <ele>486.59</ele>
        <time>2021-06-23T10:46:21Z</time>
      </trkpt>
      <trkpt lat="48.25822" lon="7.1083">
        <ele>486.32</ele>
        <time>2021-06-23T10:46:25Z</time>
      </trkpt>
      <trkpt lat="48.25812" lon="7.10759">
        <ele>484.73</ele>
        <time>2021-06-23T10:46:29Z</time>
      </trkpt>
      <trkpt lat="48.25798" lon="7.10596">
        <ele>477.01</ele>
        <time>2021-06-23T10:46:33Z</time>
      </trkpt>
      <trkpt lat="48.25791" lon="7.10569">
        <ele>474.97</ele>
        <time>2021-06-23T10:46:37Z</time>
      </trkpt>
      <trkpt lat="48.25777" lon="7.1053">
        <ele>474.16</ele>
        <time>2021-06-23T10:46:41Z</time>
      </trkpt>
      <trkpt lat="48.25765" lon="7.10502">
        <ele>475.9</ele>
        <time>2021-06-23T10:46:45Z</time>
      </trkpt>
      <trkpt lat="48.25743" lon="7.10464">
        <ele>477.5</ele>
        <time>2021-06-23T10:46:48Z</time>
      </trkpt>
      <trkpt lat="48.25722" lon="7.10406">
        <ele>477.46</ele>
        <time>2021-06-23T10:46:52Z</time>
      </trkpt>
      <trkpt lat="48.25496" lon="7.09688">
        <ele>464.16</ele>
        <time>2021-06-23T10:46:56Z</time>
      </trkpt>
      <trkpt lat="48.25484" lon="7.0964">
        <ele>463.96</ele>
        <time>2021-06-23T10:47:00Z</time>
      </trkpt>
      <trkpt lat="48.25479" lon="7.09551">
        <ele>465</ele>
        <time>2021-06-23T10:47:04Z</time>
      </trkpt>
      <trkpt lat="48.2547" lon="7.09014">
        <ele>453.07</ele>
        <time>2021-06-23T10:47:08Z</time>
      </trkpt>
      <trkpt lat="48.25464" lon="7.08835">
        <ele>451.29</ele>
        <time>2021-06-23T10:47:12Z</time>
      </trkpt>
      <trkpt lat="48.25461" lon="7.08795">
        <ele>448.86</ele>
        <time>2021-06-23T10:47:16Z</time>
      </trkpt>
      <trkpt lat="48.25457" lon="7.08761">
        <ele>447.39</ele>
        <time>2021-06-23T10:47:20Z</time>
      </trkpt>
      <trkpt lat="48.25442" lon="7.08688">
        <ele>441.21</ele>
        <time>2021-06-23T10:47:24Z</time>
      </trkpt>
      <trkpt lat="48.25433" lon="7.08652">
        <ele>441.47</ele>
        <time>2021-06-23T10:47:27Z</time>
      </trkpt>
      <trkpt lat="48.25409" lon="7.08562">
        <ele>439.84</ele>
        <time>2021-06-23T10:47:31Z</time>
      </trkpt>
      <trkpt lat="48.25405" lon="7.08539">
        <ele>439</ele>
        <time>2021-06-23T10:47:35Z</time>
      </trkpt>
      <trkpt lat="48.25403" lon="7.08521">
        <ele>438.38</ele>
        <time>2021-06-23T10:47:39Z</time>
      </trkpt>
      <trkpt lat="48.25405" lon="7.08441">
        <ele>438</ele>
        <time>2021-06-23T10:47:43Z</time>
      </trkpt>
      <trkpt lat="48.25401" lon="7.08411">
        <ele>438</ele>
        <time>2021-06-23T10:47:47Z</time>
      </trkpt>
      <trkpt lat="48.2537" lon="7.08216">
        <ele>432</ele>
        <time>2021-06-23T10:47:51Z</time>
      </trkpt>
      <trkpt lat="48.25264" lon="7.07555">
        <ele>422.28</ele>
        <time>2021-06-23T10:47:55Z</time>
      </trkpt>
      <trkpt lat="48.25264" lon="7.07555">
        <ele>422.28</ele>
        <time>2021-06-23T10:47:55Z</time>
      </trkpt>
      <trkpt lat="48.25223" lon="7.07301">
        <ele>422.79</ele>
        <time>2021-06-23T10:48:00Z</time>
      </trkpt>
      <trkpt lat="48.25191" lon="7.07073">
        <ele>427.82</ele>
        <time>2021-06-23T10:48:05Z</time>
      </trkpt>
      <trkpt lat="48.25185" lon="7.07026">
        <ele>429.39</ele>
        <time>2021-06-23T10:48:10Z</time>
      </trkpt>
      <trkpt lat="48.25182" lon="7.06978">
        <ele>427.42</ele>
        <time>2021-06-23T10:48:15Z</time>
      </trkpt>
      <trkpt lat="48.25183" lon="7.06924">
        <ele>425.15</ele>
        <time>2021-06-23T10:48:20Z</time>
      </trkpt>
      <trkpt lat="48.25185" lon="7.06869">
        <ele>425.91</ele>
        <time>2021-06-23T10:48:26Z</time>
      </trkpt>
      <trkpt lat="48.25196" lon="7.06748">
        <ele>423.11</ele>
        <time>2021-06-23T10:48:31Z</time>
      </trkpt>
      <trkpt lat="48.25196" lon="7.06748">
        <ele>423.11</ele>
        <time>2021-06-23T10:48:31Z</time>
      </trkpt>
      <trkpt lat="48.25198" lon="7.06725">
        <ele>420.31</ele>
        <time>2021-06-23T10:48:36Z</time>
      </trkpt>
      <trkpt lat="48.25208" lon="7.06653">
        <ele>415.25</ele>
        <time>2021-06-23T10:48:40Z</time>
      </trkpt>
      <trkpt lat="48.25253" lon="7.06433">
        <ele>407.65</ele>
        <time>2021-06-23T10:48:45Z</time>
      </trkpt>
      <trkpt lat="48.251" lon="7.06292">
        <ele>404.32</ele>
        <time>2021-06-23T10:48:50Z</time>
      </trkpt>
      <trkpt lat="48.25086" lon="7.06285">
        <ele>404.02</ele>
        <time>2021-06-23T10:48:55Z</time>
      </trkpt>
      <trkpt lat="48.25069" lon="7.06284">
        <ele>404.53</ele>
        <time>2021-06-23T10:49:01Z</time>
      </trkpt>
      <trkpt lat="48.25043" lon="7.06294">
        <ele>405.44</ele>
        <time>2021-06-23T10:49:06Z</time>
      </trkpt>
      <trkpt lat="48.24935" lon="7.06346">
        <ele>409.12</ele>
        <time>2021-06-23T10:49:11Z</time>
      </trkpt>
      <trkpt lat="48.24913" lon="7.06357">
        <ele>409.84</ele>
        <time>2021-06-23T10:49:16Z</time>
      </trkpt>
      <trkpt lat="48.24895" lon="7.06372">
        <ele>410.08</ele>
        <time>2021-06-23T10:49:21Z</time>
      </trkpt>
      <trkpt lat="48.2485" lon="7.06418">
        <ele>410.42</ele>
        <time>2021-06-23T10:49:26Z</time>
      </trkpt>
      <trkpt lat="48.24816" lon="7.06441">
        <ele>412.57</ele>
        <time>2021-06-23T10:49:31Z</time>
      </trkpt>
      <trkpt lat="48.24649" lon="7.06545">
        <ele>420.03</ele>
        <time>2021-06-23T10:49:37Z</time>
      </trkpt>
      <trkpt lat="48.24576" lon="7.066">
        <ele>426.73</ele>
        <time>2021-06-23T10:49:42Z</time>
      </trkpt>
      <trkpt lat="48.24559" lon="7.06606">
        <ele>428.39</ele>
        <time>2021-06-23T10:49:47Z</time>
      </trkpt>
      <trkpt lat="48.24547" lon="7.06607">
        <ele>428.73</ele>
        <time>2021-06-23T10:49:52Z</time>
      </trkpt>
      <trkpt lat="48.24469" lon="7.0659">
        <ele>422.38</ele>
        <time>2021-06-23T10:49:57Z</time>
      </trkpt>
      <trkpt lat="48.24451" lon="7.0658">
        <ele>421.1</ele>
        <time>2021-06-23T10:50:02Z</time>
      </trkpt>
      <trkpt lat="48.24436" lon="7.06566">
        <ele>420.57</ele>
        <time>2021-06-23T10:50:07Z</time>
      </trkpt>
      <trkpt lat="48.24413" lon="7.06538">
        <ele>420.52</ele>
        <time>2021-06-23T10:50:12Z</time>
      </trkpt>
      <trkpt lat="48.24391" lon="7.06521">
        <ele>420.92</ele>
        <time>2021-06-23T10:50:18Z</time>
      </trkpt>
      <trkpt lat="48.24373" lon="7.06514">
        <ele>421.28</ele>
        <time>2021-06-23T10:50:23Z</time>
      </trkpt>
      <trkpt lat="48.24358" lon="7.06511">
        <ele>421.47</ele>
        <time>2021-06-23T10:50:28Z</time>
      </trkpt>
      <trkpt lat="48.24346" lon="7.06513">
        <ele>421.77</ele>
        <time>2021-06-23T10:50:33Z</time>
      </trkpt>
      <trkpt lat="48.24334" lon="7.06519">
        <ele>422</ele>
        <time>2021-06-23T10:50:38Z</time>
      </trkpt>
      <trkpt lat="48.24278" lon="7.06554">
        <ele>424.95</ele>
        <time>2021-06-23T10:50:43Z</time>
      </trkpt>
      <trkpt lat="48.24248" lon="7.06569">
        <ele>424.04</ele>
        <time>2021-06-23T10:50:48Z</time>
      </trkpt>
      <trkpt lat="48.24228" lon="7.06576">
        <ele>424.58</ele>
        <time>2021-06-23T10:50:54Z</time>
      </trkpt>
      <trkpt lat="48.24212" lon="7.06577">
        <ele>425.21</ele>
        <time>2021-06-23T10:50:59Z</time>
      </trkpt>
      <trkpt lat="48.24194" lon="7.06575">
        <ele>426.02</ele>
        <time>2021-06-23T10:51:04Z</time>
      </trkpt>
      <trkpt lat="48.24148" lon="7.06558">
        <ele>425.97</ele>
        <time>2021-06-23T10:51:09Z</time>
      </trkpt>
      <trkpt lat="48.24113" lon="7.0654">
        <ele>425.02</ele>
        <time>2021-06-23T10:51:14Z</time>
      </trkpt>
      <trkpt lat="48.24101" lon="7.06528">
        <ele>425.36</ele>
        <time>2021-06-23T10:51:19Z</time>
      </trkpt>
      <trkpt lat="48.23999" lon="7.06393">
        <ele>425.23</ele>
        <time>2021-06-23T10:51:24Z</time>
      </trkpt>
      <trkpt lat="48.23968" lon="7.06357">
        <ele>425.02</ele>
        <time>2021-06-23T10:51:29Z</time>
      </trkpt>
      <trkpt lat="48.23948" lon="7.06336">
        <ele>425.79</ele>
        <time>2021-06-23T10:51:35Z</time>
      </trkpt>
      <trkpt lat="48.23924" lon="7.06319">
        <ele>426.98</ele>
        <time>2021-06-23T10:51:40Z</time>
      </trkpt>
      <trkpt lat="48.23827" lon="7.06263">
        <ele>426.91</ele>
        <time>2021-06-23T10:51:45Z</time>
      </trkpt>
      <trkpt lat="48.23682" lon="7.06163">
        <ele>432.52</ele>
        <time>2021-06-23T10:51:50Z</time>
      </trkpt>
      <trkpt lat="48.23537" lon="7.06092">
        <ele>435</ele>
        <time>2021-06-23T10:51:55Z</time>
      </trkpt>
      <trkpt lat="48.235" lon="7.06078">
        <ele>435.99</ele>
        <time>2021-06-23T10:52:00Z</time>
      </trkpt>
      <trkpt lat="48.2348" lon="7.06077">
        <ele>436.55</ele>
        <time>2021-06-23T10:52:05Z</time>
      </trkpt>
      <trkpt lat="48.23461" lon="7.06079">
        <ele>436.85</ele>
        <time>2021-06-23T10:52:11Z</time>
      </trkpt>
      <trkpt lat="48.23418" lon="7.0609">
        <ele>436.76</ele>
        <time>2021-06-23T10:52:16Z</time>
      </trkpt>
      <trkpt lat="48.23362" lon="7.0611">
        <ele>440.94</ele>
        <time>2021-06-23T10:52:21Z</time>
      </trkpt>
      <trkpt lat="48.23334" lon="7.06125">
        <ele>442.47</ele>
        <time>2021-06-23T10:52:26Z</time>
      </trkpt>
      <trkpt lat="48.23289" lon="7.0616">
        <ele>442.83</ele>
        <time>2021-06-23T10:52:31Z</time>
      </trkpt>
      <trkpt lat="48.23267" lon="7.06173">
        <ele>444.17</ele>
        <time>2021-06-23T10:52:36Z</time>
      </trkpt>
      <trkpt lat="48.23239" lon="7.06177">
        <ele>446.41</ele>
        <time>2021-06-23T10:52:41Z</time>
      </trkpt>
      <trkpt lat="48.23219" lon="7.06176">
        <ele>447</ele>
        <time>2021-06-23T10:52:46Z</time>
      </trkpt>
      <trkpt lat="48.23193" lon="7.06171">
        <ele>447.13</ele>
        <time>2021-06-23T10:52:52Z</time>
      </trkpt>
      <trkpt lat="48.23163" lon="7.06157">
        <ele>449.42</ele>
        <time>2021-06-23T10:52:57Z</time>
      </trkpt>
      <trkpt lat="48.23163" lon="7.06157">
        <ele>449.42</ele>
        <time>2021-06-23T10:52:57Z</time>
      </trkpt>
      <trkpt lat="48.23148" lon="7.06147">
        <ele>450.33</ele>
        <time>2021-06-23T10:53:02Z</time>
      </trkpt>
      <trkpt lat="48.23073" lon="7.06065">
        <ele>452.98</ele>
        <time>2021-06-23T10:53:08Z</time>
      </trkpt>
      <trkpt lat="48.23054" lon="7.06049">
        <ele>454</ele>
        <time>2021-06-23T10:53:13Z</time>
      </trkpt>
      <trkpt lat="48.22991" lon="7.06013">
        <ele>453.64</ele>
        <time>2021-06-23T10:53:18Z</time>
      </trkpt>
      <trkpt lat="48.22974" lon="7.06001">
        <ele>453.93</ele>
        <time>2021-06-23T10:53:24Z</time>
      </trkpt>
      <trkpt lat="48.22953" lon="7.05971">
        <ele>454.7</ele>
        <time>2021-06-23T10:53:29Z</time>
      </trkpt>
      <trkpt lat="48.22823" lon="7.05791">
        <ele>455.58</ele>
        <time>2021-06-23T10:53:34Z</time>
      </trkpt>
      <trkpt lat="48.22808" lon="7.05773">
        <ele>457.08</ele>
        <time>2021-06-23T10:53:40Z</time>
      </trkpt>
      <trkpt lat="48.22694" lon="7.0566">
        <ele>460.77</ele>
        <time>2021-06-23T10:53:45Z</time>
      </trkpt>
      <trkpt lat="48.22571" lon="7.05475">
        <ele>462.18</ele>
        <time>2021-06-23T10:53:50Z</time>
      </trkpt>
      <trkpt lat="48.22552" lon="7.05451">
        <ele>462.68</ele>
        <time>2021-06-23T10:53:56Z</time>
      </trkpt>
      <trkpt lat="48.22527" lon="7.05431">
        <ele>464.53</ele>
        <time>2021-06-23T10:54:01Z</time>
      </trkpt>
      <trkpt lat="48.22454" lon="7.05382">
        <ele>466.59</ele>
        <time>2021-06-23T10:54:07Z</time>
      </trkpt>
      <trkpt lat="48.22421" lon="7.05343">
        <ele>467.68</ele>
        <time>2021-06-23T10:54:12Z</time>
      </trkpt>
      <trkpt lat="48.22339" lon="7.05228">
        <ele>472</ele>
        <time>2021-06-23T10:54:17Z</time>
      </trkpt>
      <trkpt lat="48.2227" lon="7.05104">
        <ele>473.41</ele>
        <time>2021-06-23T10:54:23Z</time>
      </trkpt>
      <trkpt lat="48.22262" lon="7.05093">
        <ele>473.95</ele>
        <time>2021-06-23T10:54:28Z</time>
      </trkpt>
      <trkpt lat="48.22187" lon="7.0503">
        <ele>473.05</ele>
        <time>2021-06-23T10:54:33Z</time>
      </trkpt>
      <trkpt lat="48.22122" lon="7.04981">
        <ele>474.92</ele>
        <time>2021-06-23T10:54:39Z</time>
      </trkpt>
      <trkpt lat="48.22072" lon="7.0495">
        <ele>476.94</ele>
        <time>2021-06-23T10:54:44Z</time>
      </trkpt>
      <trkpt lat="48.22025" lon="7.04912">
        <ele>479.34</ele>
        <time>2021-06-23T10:54:49Z</time>
      </trkpt>
      <trkpt lat="48.22006" lon="7.04901">
        <ele>480.12</ele>
        <time>2021-06-23T10:54:55Z</time>
      </trkpt>
      <trkpt lat="48.21917" lon="7.04878">
        <ele>482.98</ele>
        <time>2021-06-23T10:55:00Z</time>
      </trkpt>
      <trkpt lat="48.21887" lon="7.04863">
        <ele>484.06</ele>
        <time>2021-06-23T10:55:06Z</time>
      </trkpt>
      <trkpt lat="48.21862" lon="7.04848">
        <ele>485.44</ele>
        <time>2021-06-23T10:55:11Z</time>
      </trkpt>
      <trkpt lat="48.21847" lon="7.04836">
        <ele>486</ele>
        <time>2021-06-23T10:55:16Z</time>
      </trkpt>
      <trkpt lat="48.21742" lon="7.04721">
        <ele>491.02</ele>
        <time>2021-06-23T10:55:22Z</time>
      </trkpt>
      <trkpt lat="48.21713" lon="7.04662">
        <ele>492.11</ele>
        <time>2021-06-23T10:55:27Z</time>
      </trkpt>
      <trkpt lat="48.21696" lon="7.04633">
        <ele>492.73</ele>
        <time>2021-06-23T10:55:32Z</time>
      </trkpt>
      <trkpt lat="48.21653" lon="7.04593">
        <ele>495.5</ele>
        <time>2021-06-23T10:55:38Z</time>
      </trkpt>
      <trkpt lat="48.21639" lon="7.04588">
        <ele>495.82</ele>
        <time>2021-06-23T10:55:43Z</time>
      </trkpt>
      <trkpt lat="48.21557" lon="7.04597">
        <ele>503.36</ele>
        <time>2021-06-23T10:55:48Z</time>
      </trkpt>
      <trkpt lat="48.21543" lon="7.04595">
        <ele>504.52</ele>
        <time>2021-06-23T10:55:54Z</time>
      </trkpt>
      <trkpt lat="48.21522" lon="7.04589">
        <ele>505.66</ele>
        <time>2021-06-23T10:55:59Z</time>
      </trkpt>
      <trkpt lat="48.21485" lon="7.04579">
        <ele>507.05</ele>
        <time>2021-06-23T10:56:05Z</time>
      </trkpt>
      <trkpt lat="48.21449" lon="7.04562">
        <ele>509.84</ele>
        <time>2021-06-23T10:56:10Z</time>
      </trkpt>
      <trkpt lat="48.21427" lon="7.04543">
        <ele>511.72</ele>
        <time>2021-06-23T10:56:15Z</time>
      </trkpt>
      <trkpt lat="48.21405" lon="7.04511">
        <ele>515.79</ele>
        <time>2021-06-23T10:56:21Z</time>
      </trkpt>
      <trkpt lat="48.21336" lon="7.04381">
        <ele>513.84</ele>
        <time>2021-06-23T10:56:26Z</time>
      </trkpt>
      <trkpt lat="48.21305" lon="7.04329">
        <ele>518.03</ele>
        <time>2021-06-23T10:56:31Z</time>
      </trkpt>
      <trkpt lat="48.21286" lon="7.04309">
        <ele>519.58</ele>
        <time>2021-06-23T10:56:37Z</time>
      </trkpt>
      <trkpt lat="48.21218" lon="7.04246">
        <ele>523.55</ele>
        <time>2021-06-23T10:56:42Z</time>
      </trkpt>
      <trkpt lat="48.21136" lon="7.04156">
        <ele>531.43</ele>
        <time>2021-06-23T10:56:48Z</time>
      </trkpt>
      <trkpt lat="48.21101" lon="7.04138">
        <ele>533.31</ele>
        <time>2021-06-23T10:56:53Z</time>
      </trkpt>
      <trkpt lat="48.21024" lon="7.04084">
        <ele>538.49</ele>
        <time>2021-06-23T10:56:58Z</time>
      </trkpt>
      <trkpt lat="48.2098" lon="7.04058">
        <ele>537.32</ele>
        <time>2021-06-23T10:57:04Z</time>
      </trkpt>
      <trkpt lat="48.20963" lon="7.0405">
        <ele>536.8</ele>
        <time>2021-06-23T10:57:09Z</time>
      </trkpt>
      <trkpt lat="48.20945" lon="7.04045">
        <ele>537.21</ele>
        <time>2021-06-23T10:57:14Z</time>
      </trkpt>
      <trkpt lat="48.20919" lon="7.04042">
        <ele>540.22</ele>
        <time>2021-06-23T10:57:20Z</time>
      </trkpt>
      <trkpt lat="48.20894" lon="7.04044">
        <ele>543.29</ele>
        <time>2021-06-23T10:57:25Z</time>
      </trkpt>
      <trkpt lat="48.20754" lon="7.04062">
        <ele>547.63</ele>
        <time>2021-06-23T10:57:30Z</time>
      </trkpt>
      <trkpt lat="48.20614" lon="7.04073">
        <ele>563.06</ele>
        <time>2021-06-23T10:57:36Z</time>
      </trkpt>
      <trkpt lat="48.20557" lon="7.04085">
        <ele>562.77</ele>
        <time>2021-06-23T10:57:41Z</time>
      </trkpt>
      <trkpt lat="48.20496" lon="7.04102">
        <ele>569.84</ele>
        <time>2021-06-23T10:57:47Z</time>
      </trkpt>
      <trkpt lat="48.20468" lon="7.04114">
        <ele>568.21</ele>
        <time>2021-06-23T10:57:52Z</time>
      </trkpt>
      <trkpt lat="48.20446" lon="7.04131">
        <ele>569.36</ele>
        <time>2021-06-23T10:57:57Z</time>
      </trkpt>
      <trkpt lat="48.20339" lon="7.04237">
        <ele>572.52</ele>
        <time>2021-06-23T10:58:03Z</time>
      </trkpt>
      <trkpt lat="48.20254" lon="7.04328">
        <ele>576.78</ele>
        <time>2021-06-23T10:58:08Z</time>
      </trkpt>
      <trkpt lat="48.20225" lon="7.04374">
        <ele>582.89</ele>
        <time>2021-06-23T10:58:13Z</time>
      </trkpt>
      <trkpt lat="48.20212" lon="7.04391">
        <ele>584.55</ele>
        <time>2021-06-23T10:58:19Z</time>
      </trkpt>
      <trkpt lat="48.20201" lon="7.04396">
        <ele>584.58</ele>
        <time>2021-06-23T10:58:24Z</time>
      </trkpt>
      <trkpt lat="48.2019" lon="7.04397">
        <ele>583.77</ele>
        <time>2021-06-23T10:58:29Z</time>
      </trkpt>
      <trkpt lat="48.20178" lon="7.04391">
        <ele>582.08</ele>
        <time>2021-06-23T10:58:35Z</time>
      </trkpt>
      <trkpt lat="48.2017" lon="7.04381">
        <ele>581.22</ele>
        <time>2021-06-23T10:58:40Z</time>
      </trkpt>
      <trkpt lat="48.20164" lon="7.04367">
        <ele>581.33</ele>
        <time>2021-06-23T10:58:46Z</time>
      </trkpt>
      <trkpt lat="48.20164" lon="7.04367">
        <ele>581.33</ele>
        <time>2021-06-23T10:58:46Z</time>
      </trkpt>
      <trkpt lat="48.20155" lon="7.04347">
        <ele>581.43</ele>
        <time>2021-06-23T10:58:48Z</time>
      </trkpt>
      <trkpt lat="48.20145" lon="7.04316">
        <ele>582.29</ele>
        <time>2021-06-23T10:58:50Z</time>
      </trkpt>
      <trkpt lat="48.20142" lon="7.04298">
        <ele>583.06</ele>
        <time>2021-06-23T10:58:52Z</time>
      </trkpt>
      <trkpt lat="48.20142" lon="7.0427">
        <ele>583.99</ele>
        <time>2021-06-23T10:58:54Z</time>
      </trkpt>
      <trkpt lat="48.20144" lon="7.04246">
        <ele>584.51</ele>
        <time>2021-06-23T10:58:56Z</time>
      </trkpt>
      <trkpt lat="48.20159" lon="7.0417">
        <ele>584.1</ele>
        <time>2021-06-23T10:58:58Z</time>
      </trkpt>
      <trkpt lat="48.20159" lon="7.04142">
        <ele>584.68</ele>
        <time>2021-06-23T10:59:00Z</time>
      </trkpt>
      <trkpt lat="48.20156" lon="7.0413">
        <ele>585.45</ele>
        <time>2021-06-23T10:59:02Z</time>
      </trkpt>
      <trkpt lat="48.20146" lon="7.04109">
        <ele>587.63</ele>
        <time>2021-06-23T10:59:04Z</time>
      </trkpt>
      <trkpt lat="48.20108" lon="7.04062">
        <ele>592.32</ele>
        <time>2021-06-23T10:59:06Z</time>
      </trkpt>
      <trkpt lat="48.20093" lon="7.04048">
        <ele>595.67</ele>
        <time>2021-06-23T10:59:08Z</time>
      </trkpt>
      <trkpt lat="48.20083" lon="7.04026">
        <ele>598.24</ele>
        <time>2021-06-23T10:59:10Z</time>
      </trkpt>
      <trkpt lat="48.20081" lon="7.04011">
        <ele>600.1</ele>
        <time>2021-06-23T10:59:12Z</time>
      </trkpt>
      <trkpt lat="48.20081" lon="7.03995">
        <ele>601.26</ele>
        <time>2021-06-23T10:59:15Z</time>
      </trkpt>
      <trkpt lat="48.20084" lon="7.03973">
        <ele>601.68</ele>
        <time>2021-06-23T10:59:17Z</time>
      </trkpt>
      <trkpt lat="48.20137" lon="7.0378">
        <ele>609.24</ele>
        <time>2021-06-23T10:59:19Z</time>
      </trkpt>
      <trkpt lat="48.20158" lon="7.03711">
        <ele>614.51</ele>
        <time>2021-06-23T10:59:21Z</time>
      </trkpt>
      <trkpt lat="48.20186" lon="7.03645">
        <ele>614.91</ele>
        <time>2021-06-23T10:59:23Z</time>
      </trkpt>
      <trkpt lat="48.20242" lon="7.03518">
        <ele>626.28</ele>
        <time>2021-06-23T10:59:25Z</time>
      </trkpt>
      <trkpt lat="48.20256" lon="7.03494">
        <ele>625.53</ele>
        <time>2021-06-23T10:59:27Z</time>
      </trkpt>
      <trkpt lat="48.20277" lon="7.03473">
        <ele>623.24</ele>
        <time>2021-06-23T10:59:29Z</time>
      </trkpt>
      <trkpt lat="48.20319" lon="7.03437">
        <ele>621.9</ele>
        <time>2021-06-23T10:59:31Z</time>
      </trkpt>
      <trkpt lat="48.20349" lon="7.03415">
        <ele>627.14</ele>
        <time>2021-06-23T10:59:33Z</time>
      </trkpt>
      <trkpt lat="48.20366" lon="7.03412">
        <ele>626.86</ele>
        <time>2021-06-23T10:59:35Z</time>
      </trkpt>
      <trkpt lat="48.20377" lon="7.03417">
        <ele>625.79</ele>
        <time>2021-06-23T10:59:37Z</time>
      </trkpt>
      <trkpt lat="48.20386" lon="7.03428">
        <ele>624.16</ele>
        <time>2021-06-23T10:59:39Z</time>
      </trkpt>
      <trkpt lat="48.2042" lon="7.03488">
        <ele>622.12</ele>
        <time>2021-06-23T10:59:41Z</time>
      </trkpt>
      <trkpt lat="48.2043" lon="7.035">
        <ele>621.94</ele>
        <time>2021-06-23T10:59:43Z</time>
      </trkpt>
      <trkpt lat="48.20439" lon="7.03504">
        <ele>622.86</ele>
        <time>2021-06-23T10:59:46Z</time>
      </trkpt>
      <trkpt lat="48.20448" lon="7.03504">
        <ele>623.56</ele>
        <time>2021-06-23T10:59:48Z</time>
      </trkpt>
      <trkpt lat="48.20458" lon="7.035">
        <ele>623.52</ele>
        <time>2021-06-23T10:59:50Z</time>
      </trkpt>
      <trkpt lat="48.20466" lon="7.03492">
        <ele>623.99</ele>
        <time>2021-06-23T10:59:52Z</time>
      </trkpt>
      <trkpt lat="48.20474" lon="7.0348">
        <ele>624.98</ele>
        <time>2021-06-23T10:59:54Z</time>
      </trkpt>
      <trkpt lat="48.2048" lon="7.03465">
        <ele>626.23</ele>
        <time>2021-06-23T10:59:56Z</time>
      </trkpt>
      <trkpt lat="48.20485" lon="7.03413">
        <ele>630.4</ele>
        <time>2021-06-23T10:59:58Z</time>
      </trkpt>
      <trkpt lat="48.20484" lon="7.0339">
        <ele>632.18</ele>
        <time>2021-06-23T11:00:00Z</time>
      </trkpt>
      <trkpt lat="48.20482" lon="7.03372">
        <ele>632.16</ele>
        <time>2021-06-23T11:00:02Z</time>
      </trkpt>
      <trkpt lat="48.20478" lon="7.03356">
        <ele>632.01</ele>
        <time>2021-06-23T11:00:04Z</time>
      </trkpt>
      <trkpt lat="48.20467" lon="7.03333">
        <ele>631</ele>
        <time>2021-06-23T11:00:06Z</time>
      </trkpt>
      <trkpt lat="48.20429" lon="7.03272">
        <ele>629.04</ele>
        <time>2021-06-23T11:00:08Z</time>
      </trkpt>
      <trkpt lat="48.20419" lon="7.03253">
        <ele>629.75</ele>
        <time>2021-06-23T11:00:10Z</time>
      </trkpt>
      <trkpt lat="48.20412" lon="7.03227">
        <ele>631.86</ele>
        <time>2021-06-23T11:00:12Z</time>
      </trkpt>
      <trkpt lat="48.20409" lon="7.032">
        <ele>634.34</ele>
        <time>2021-06-23T11:00:14Z</time>
      </trkpt>
      <trkpt lat="48.20407" lon="7.03139">
        <ele>637.44</ele>
        <time>2021-06-23T11:00:17Z</time>
      </trkpt>
      <trkpt lat="48.204" lon="7.02992">
        <ele>647.59</ele>
        <time>2021-06-23T11:00:19Z</time>
      </trkpt>
      <trkpt lat="48.2038" lon="7.02852">
        <ele>656.33</ele>
        <time>2021-06-23T11:00:21Z</time>
      </trkpt>
      <trkpt lat="48.20375" lon="7.02826">
        <ele>655.82</ele>
        <time>2021-06-23T11:00:23Z</time>
      </trkpt>
      <trkpt lat="48.20361" lon="7.02808">
        <ele>655.27</ele>
        <time>2021-06-23T11:00:25Z</time>
      </trkpt>
      <trkpt lat="48.2035" lon="7.02803">
        <ele>655.28</ele>
        <time>2021-06-23T11:00:27Z</time>
      </trkpt>
      <trkpt lat="48.20339" lon="7.02803">
        <ele>656.14</ele>
        <time>2021-06-23T11:00:29Z</time>
      </trkpt>
      <trkpt lat="48.20316" lon="7.02809">
        <ele>657.24</ele>
        <time>2021-06-23T11:00:31Z</time>
      </trkpt>
      <trkpt lat="48.20233" lon="7.02857">
        <ele>660.62</ele>
        <time>2021-06-23T11:00:33Z</time>
      </trkpt>
      <trkpt lat="48.20194" lon="7.02885">
        <ele>666.97</ele>
        <time>2021-06-23T11:00:35Z</time>
      </trkpt>
      <trkpt lat="48.20151" lon="7.0292">
        <ele>670.61</ele>
        <time>2021-06-23T11:00:37Z</time>
      </trkpt>
      <trkpt lat="48.20128" lon="7.02935">
        <ele>670.92</ele>
        <time>2021-06-23T11:00:39Z</time>
      </trkpt>
      <trkpt lat="48.20111" lon="7.02937">
        <ele>669.38</ele>
        <time>2021-06-23T11:00:41Z</time>
      </trkpt>
      <trkpt lat="48.20093" lon="7.02936">
        <ele>669.57</ele>
        <time>2021-06-23T11:00:43Z</time>
      </trkpt>
      <trkpt lat="48.20041" lon="7.02917">
        <ele>679.69</ele>
        <time>2021-06-23T11:00:45Z</time>
      </trkpt>
      <trkpt lat="48.20022" lon="7.02902">
        <ele>684.76</ele>
        <time>2021-06-23T11:00:48Z</time>
      </trkpt>
      <trkpt lat="48.20013" lon="7.02889">
        <ele>686.76</ele>
        <time>2021-06-23T11:00:50Z</time>
      </trkpt>
      <trkpt lat="48.20008" lon="7.0287">
        <ele>688.09</ele>
        <time>2021-06-23T11:00:52Z</time>
      </trkpt>
      <trkpt lat="48.20009" lon="7.02845">
        <ele>688.34</ele>
        <time>2021-06-23T11:00:54Z</time>
      </trkpt>
      <trkpt lat="48.20017" lon="7.0281">
        <ele>687.67</ele>
        <time>2021-06-23T11:00:56Z</time>
      </trkpt>
      <trkpt lat="48.20052" lon="7.02692">
        <ele>680.84</ele>
        <time>2021-06-23T11:00:58Z</time>
      </trkpt>
      <trkpt lat="48.20055" lon="7.02665">
        <ele>677.09</ele>
        <time>2021-06-23T11:01:00Z</time>
      </trkpt>
      <trkpt lat="48.20055" lon="7.02645">
        <ele>674.8</ele>
        <time>2021-06-23T11:01:02Z</time>
      </trkpt>
      <trkpt lat="48.20049" lon="7.02614">
        <ele>671.81</ele>
        <time>2021-06-23T11:01:04Z</time>
      </trkpt>
      <trkpt lat="48.20039" lon="7.02593">
        <ele>672.23</ele>
        <time>2021-06-23T11:01:06Z</time>
      </trkpt>
      <trkpt lat="48.20024" lon="7.02572">
        <ele>674.4</ele>
        <time>2021-06-23T11:01:08Z</time>
      </trkpt>
      <trkpt lat="48.20009" lon="7.02544">
        <ele>674.43</ele>
        <time>2021-06-23T11:01:10Z</time>
      </trkpt>
      <trkpt lat="48.20005" lon="7.02529">
        <ele>673.16</ele>
        <time>2021-06-23T11:01:12Z</time>
      </trkpt>
      <trkpt lat="48.20006" lon="7.02513">
        <ele>672.07</ele>
        <time>2021-06-23T11:01:14Z</time>
      </trkpt>
      <trkpt lat="48.20056" lon="7.02412">
        <ele>676.71</ele>
        <time>2021-06-23T11:01:16Z</time>
      </trkpt>
      <trkpt lat="48.20064" lon="7.02391">
        <ele>677.03</ele>
        <time>2021-06-23T11:01:19Z</time>
      </trkpt>
      <trkpt lat="48.20071" lon="7.02364">
        <ele>678.41</ele>
        <time>2021-06-23T11:01:21Z</time>
      </trkpt>
      <trkpt lat="48.20086" lon="7.02231">
        <ele>687.37</ele>
        <time>2021-06-23T11:01:23Z</time>
      </trkpt>
      <trkpt lat="48.20093" lon="7.02202">
        <ele>689.6</ele>
        <time>2021-06-23T11:01:25Z</time>
      </trkpt>
      <trkpt lat="48.20124" lon="7.02126">
        <ele>693.32</ele>
        <time>2021-06-23T11:01:27Z</time>
      </trkpt>
      <trkpt lat="48.20146" lon="7.02025">
        <ele>688.06</ele>
        <time>2021-06-23T11:01:29Z</time>
      </trkpt>
      <trkpt lat="48.20154" lon="7.01985">
        <ele>684.28</ele>
        <time>2021-06-23T11:01:31Z</time>
      </trkpt>
      <trkpt lat="48.2016" lon="7.0193">
        <ele>682.39</ele>
        <time>2021-06-23T11:01:33Z</time>
      </trkpt>
      <trkpt lat="48.20168" lon="7.01713">
        <ele>693.76</ele>
        <time>2021-06-23T11:01:35Z</time>
      </trkpt>
      <trkpt lat="48.20173" lon="7.01688">
        <ele>693.35</ele>
        <time>2021-06-23T11:01:37Z</time>
      </trkpt>
      <trkpt lat="48.2018" lon="7.01669">
        <ele>693.05</ele>
        <time>2021-06-23T11:01:39Z</time>
      </trkpt>
      <trkpt lat="48.20189" lon="7.01651">
        <ele>692.91</ele>
        <time>2021-06-23T11:01:41Z</time>
      </trkpt>
      <trkpt lat="48.20231" lon="7.01605">
        <ele>686.04</ele>
        <time>2021-06-23T11:01:43Z</time>
      </trkpt>
      <trkpt lat="48.2024" lon="7.01593">
        <ele>684.8</ele>
        <time>2021-06-23T11:01:45Z</time>
      </trkpt>
      <trkpt lat="48.20247" lon="7.01576">
        <ele>684.26</ele>
        <time>2021-06-23T11:01:47Z</time>
      </trkpt>
      <trkpt lat="48.20254" lon="7.01544">
        <ele>683.18</ele>
        <time>2021-06-23T11:01:50Z</time>
      </trkpt>
      <trkpt lat="48.20259" lon="7.01506">
        <ele>681.85</ele>
        <time>2021-06-23T11:01:52Z</time>
      </trkpt>
      <trkpt lat="48.2026" lon="7.01465">
        <ele>682.45</ele>
        <time>2021-06-23T11:01:54Z</time>
      </trkpt>
      <trkpt lat="48.20259" lon="7.01429">
        <ele>683.58</ele>
        <time>2021-06-23T11:01:56Z</time>
      </trkpt>
      <trkpt lat="48.20254" lon="7.01391">
        <ele>685.41</ele>
        <time>2021-06-23T11:01:58Z</time>
      </trkpt>
      <trkpt lat="48.20237" lon="7.01308">
        <ele>689.44</ele>
        <time>2021-06-23T11:02:00Z</time>
      </trkpt>
      <trkpt lat="48.20225" lon="7.01262">
        <ele>690.01</ele>
        <time>2021-06-23T11:02:02Z</time>
      </trkpt>
      <trkpt lat="48.20225" lon="7.01262">
        <ele>690.01</ele>
        <time>2021-06-23T11:02:02Z</time>
      </trkpt>
      <trkpt lat="48.20217" lon="7.01233">
        <ele>690.59</ele>
        <time>2021-06-23T11:02:05Z</time>
      </trkpt>
      <trkpt lat="48.20205" lon="7.0121">
        <ele>690.78</ele>
        <time>2021-06-23T11:02:07Z</time>
      </trkpt>
      <trkpt lat="48.20192" lon="7.01192">
        <ele>691.23</ele>
        <time>2021-06-23T11:02:10Z</time>
      </trkpt>
      <trkpt lat="48.20174" lon="7.01176">
        <ele>693.2</ele>
        <time>2021-06-23T11:02:12Z</time>
      </trkpt>
      <trkpt lat="48.2014" lon="7.01165">
        <ele>693.03</ele>
        <time>2021-06-23T11:02:15Z</time>
      </trkpt>
      <trkpt lat="48.20108" lon="7.0117">
        <ele>692</ele>
        <time>2021-06-23T11:02:17Z</time>
      </trkpt>
      <trkpt lat="48.20013" lon="7.01223">
        <ele>689.07</ele>
        <time>2021-06-23T11:02:20Z</time>
      </trkpt>
      <trkpt lat="48.19951" lon="7.01264">
        <ele>681.35</ele>
        <time>2021-06-23T11:02:23Z</time>
      </trkpt>
      <trkpt lat="48.19934" lon="7.01283">
        <ele>680.48</ele>
        <time>2021-06-23T11:02:25Z</time>
      </trkpt>
      <trkpt lat="48.19876" lon="7.01395">
        <ele>684.97</ele>
        <time>2021-06-23T11:02:28Z</time>
      </trkpt>
      <trkpt lat="48.19762" lon="7.01574">
        <ele>671.73</ele>
        <time>2021-06-23T11:02:30Z</time>
      </trkpt>
      <trkpt lat="48.19744" lon="7.01594">
        <ele>670.29</ele>
        <time>2021-06-23T11:02:33Z</time>
      </trkpt>
      <trkpt lat="48.19732" lon="7.01601">
        <ele>669.12</ele>
        <time>2021-06-23T11:02:35Z</time>
      </trkpt>
      <trkpt lat="48.19719" lon="7.01605">
        <ele>667.56</ele>
        <time>2021-06-23T11:02:38Z</time>
      </trkpt>
      <trkpt lat="48.19684" lon="7.01606">
        <ele>665.2</ele>
        <time>2021-06-23T11:02:41Z</time>
      </trkpt>
      <trkpt lat="48.19621" lon="7.01605">
        <ele>661.85</ele>
        <time>2021-06-23T11:02:43Z</time>
      </trkpt>
      <trkpt lat="48.1957" lon="7.0161">
        <ele>660.11</ele>
        <time>2021-06-23T11:02:46Z</time>
      </trkpt>
      <trkpt lat="48.19545" lon="7.0162">
        <ele>659.43</ele>
        <time>2021-06-23T11:02:48Z</time>
      </trkpt>
      <trkpt lat="48.19436" lon="7.01683">
        <ele>654.41</ele>
        <time>2021-06-23T11:02:51Z</time>
      </trkpt>
      <trkpt lat="48.19214" lon="7.01769">
        <ele>635.2</ele>
        <time>2021-06-23T11:02:54Z</time>
      </trkpt>
      <trkpt lat="48.19197" lon="7.01772">
        <ele>634.56</ele>
        <time>2021-06-23T11:02:56Z</time>
      </trkpt>
      <trkpt lat="48.19169" lon="7.01767">
        <ele>632.73</ele>
        <time>2021-06-23T11:02:59Z</time>
      </trkpt>
      <trkpt lat="48.19149" lon="7.0175">
        <ele>632</ele>
        <time>2021-06-23T11:03:01Z</time>
      </trkpt>
      <trkpt lat="48.19138" lon="7.01724">
        <ele>630.18</ele>
        <time>2021-06-23T11:03:04Z</time>
      </trkpt>
      <trkpt lat="48.19133" lon="7.0169">
        <ele>628.34</ele>
        <time>2021-06-23T11:03:06Z</time>
      </trkpt>
      <trkpt lat="48.1913" lon="7.01532">
        <ele>621.55</ele>
        <time>2021-06-23T11:03:09Z</time>
      </trkpt>
      <trkpt lat="48.19127" lon="7.01512">
        <ele>620.17</ele>
        <time>2021-06-23T11:03:12Z</time>
      </trkpt>
      <trkpt lat="48.19122" lon="7.01489">
        <ele>619.29</ele>
        <time>2021-06-23T11:03:14Z</time>
      </trkpt>
      <trkpt lat="48.19113" lon="7.01463">
        <ele>619.05</ele>
        <time>2021-06-23T11:03:17Z</time>
      </trkpt>
      <trkpt lat="48.19073" lon="7.01383">
        <ele>612.92</ele>
        <time>2021-06-23T11:03:19Z</time>
      </trkpt>
      <trkpt lat="48.19063" lon="7.01367">
        <ele>611.53</ele>
        <time>2021-06-23T11:03:22Z</time>
      </trkpt>
      <trkpt lat="48.19046" lon="7.01351">
        <ele>611.45</ele>
        <time>2021-06-23T11:03:25Z</time>
      </trkpt>
      <trkpt lat="48.19028" lon="7.01339">
        <ele>613.18</ele>
        <time>2021-06-23T11:03:27Z</time>
      </trkpt>
      <trkpt lat="48.19008" lon="7.01329">
        <ele>612.58</ele>
        <time>2021-06-23T11:03:30Z</time>
      </trkpt>
      <trkpt lat="48.18994" lon="7.01326">
        <ele>611.8</ele>
        <time>2021-06-23T11:03:32Z</time>
      </trkpt>
      <trkpt lat="48.18984" lon="7.01326">
        <ele>611.21</ele>
        <time>2021-06-23T11:03:35Z</time>
      </trkpt>
      <trkpt lat="48.18964" lon="7.01334">
        <ele>610.48</ele>
        <time>2021-06-23T11:03:37Z</time>
      </trkpt>
      <trkpt lat="48.18869" lon="7.01418">
        <ele>601.91</ele>
        <time>2021-06-23T11:03:40Z</time>
      </trkpt>
      <trkpt lat="48.18851" lon="7.01443">
        <ele>600.48</ele>
        <time>2021-06-23T11:03:43Z</time>
      </trkpt>
      <trkpt lat="48.18814" lon="7.01508">
        <ele>600.62</ele>
        <time>2021-06-23T11:03:45Z</time>
      </trkpt>
      <trkpt lat="48.18787" lon="7.0156">
        <ele>596.69</ele>
        <time>2021-06-23T11:03:48Z</time>
      </trkpt>
      <trkpt lat="48.18763" lon="7.01616">
        <ele>596.64</ele>
        <time>2021-06-23T11:03:50Z</time>
      </trkpt>
      <trkpt lat="48.18739" lon="7.0168">
        <ele>596.46</ele>
        <time>2021-06-23T11:03:53Z</time>
      </trkpt>
      <trkpt lat="48.18733" lon="7.01709">
        <ele>595.29</ele>
        <time>2021-06-23T11:03:55Z</time>
      </trkpt>
      <trkpt lat="48.18731" lon="7.01733">
        <ele>593.59</ele>
        <time>2021-06-23T11:03:58Z</time>
      </trkpt>
      <trkpt lat="48.18733" lon="7.01768">
        <ele>590.44</ele>
        <time>2021-06-23T11:04:01Z</time>
      </trkpt>
      <trkpt lat="48.18741" lon="7.01806">
        <ele>588.39</ele>
        <time>2021-06-23T11:04:03Z</time>
      </trkpt>
      <trkpt lat="48.1875" lon="7.01827">
        <ele>587.69</ele>
        <time>2021-06-23T11:04:06Z</time>
      </trkpt>
      <trkpt lat="48.1876" lon="7.01842">
        <ele>587.77</ele>
        <time>2021-06-23T11:04:08Z</time>
      </trkpt>
      <trkpt lat="48.18777" lon="7.01859">
        <ele>588.18</ele>
        <time>2021-06-23T11:04:11Z</time>
      </trkpt>
      <trkpt lat="48.18834" lon="7.01878">
        <ele>590.45</ele>
        <time>2021-06-23T11:04:14Z</time>
      </trkpt>
      <trkpt lat="48.1885" lon="7.01887">
        <ele>588.76</ele>
        <time>2021-06-23T11:04:16Z</time>
      </trkpt>
      <trkpt lat="48.18855" lon="7.01896">
        <ele>587.1</ele>
        <time>2021-06-23T11:04:19Z</time>
      </trkpt>
      <trkpt lat="48.18856" lon="7.01909">
        <ele>584.48</ele>
        <time>2021-06-23T11:04:21Z</time>
      </trkpt>
      <trkpt lat="48.18853" lon="7.01916">
        <ele>582.57</ele>
        <time>2021-06-23T11:04:24Z</time>
      </trkpt>
      <trkpt lat="48.18845" lon="7.0192">
        <ele>580.92</ele>
        <time>2021-06-23T11:04:26Z</time>
      </trkpt>
      <trkpt lat="48.18836" lon="7.01918">
        <ele>579.42</ele>
        <time>2021-06-23T11:04:29Z</time>
      </trkpt>
      <trkpt lat="48.18822" lon="7.01903">
        <ele>581.69</ele>
        <time>2021-06-23T11:04:32Z</time>
      </trkpt>
      <trkpt lat="48.18809" lon="7.01893">
        <ele>583.79</ele>
        <time>2021-06-23T11:04:34Z</time>
      </trkpt>
      <trkpt lat="48.18789" lon="7.01887">
        <ele>582.19</ele>
        <time>2021-06-23T11:04:37Z</time>
      </trkpt>
      <trkpt lat="48.18698" lon="7.01873">
        <ele>570.75</ele>
        <time>2021-06-23T11:04:39Z</time>
      </trkpt>
      <trkpt lat="48.18682" lon="7.01869">
        <ele>569.49</ele>
        <time>2021-06-23T11:04:42Z</time>
      </trkpt>
      <trkpt lat="48.18666" lon="7.01861">
        <ele>569</ele>
        <time>2021-06-23T11:04:44Z</time>
      </trkpt>
      <trkpt lat="48.18652" lon="7.01843">
        <ele>568.22</ele>
        <time>2021-06-23T11:04:47Z</time>
      </trkpt>
      <trkpt lat="48.18652" lon="7.01843">
        <ele>568.22</ele>
        <time>2021-06-23T11:04:47Z</time>
      </trkpt>
      <trkpt lat="48.18625" lon="7.01811">
        <ele>567.43</ele>
        <time>2021-06-23T11:04:52Z</time>
      </trkpt>
      <trkpt lat="48.18561" lon="7.01722">
        <ele>562.77</ele>
        <time>2021-06-23T11:04:57Z</time>
      </trkpt>
      <trkpt lat="48.18532" lon="7.01679">
        <ele>560.86</ele>
        <time>2021-06-23T11:05:02Z</time>
      </trkpt>
      <trkpt lat="48.18508" lon="7.01637">
        <ele>556.79</ele>
        <time>2021-06-23T11:05:07Z</time>
      </trkpt>
      <trkpt lat="48.18503" lon="7.01624">
        <ele>555.98</ele>
        <time>2021-06-23T11:05:12Z</time>
      </trkpt>
      <trkpt lat="48.18498" lon="7.01606">
        <ele>555.51</ele>
        <time>2021-06-23T11:05:17Z</time>
      </trkpt>
      <trkpt lat="48.18496" lon="7.01584">
        <ele>554.73</ele>
        <time>2021-06-23T11:05:22Z</time>
      </trkpt>
      <trkpt lat="48.18498" lon="7.01458">
        <ele>552.65</ele>
        <time>2021-06-23T11:05:27Z</time>
      </trkpt>
      <trkpt lat="48.18499" lon="7.01353">
        <ele>546.55</ele>
        <time>2021-06-23T11:05:32Z</time>
      </trkpt>
      <trkpt lat="48.18503" lon="7.01324">
        <ele>543.03</ele>
        <time>2021-06-23T11:05:37Z</time>
      </trkpt>
      <trkpt lat="48.18509" lon="7.01309">
        <ele>541.51</ele>
        <time>2021-06-23T11:05:42Z</time>
      </trkpt>
      <trkpt lat="48.18526" lon="7.01283">
        <ele>541.38</ele>
        <time>2021-06-23T11:05:47Z</time>
      </trkpt>
      <trkpt lat="48.18563" lon="7.01247">
        <ele>541.74</ele>
        <time>2021-06-23T11:05:52Z</time>
      </trkpt>
      <trkpt lat="48.18608" lon="7.01207">
        <ele>538.45</ele>
        <time>2021-06-23T11:05:57Z</time>
      </trkpt>
      <trkpt lat="48.18643" lon="7.0117">
        <ele>537.71</ele>
        <time>2021-06-23T11:06:02Z</time>
      </trkpt>
      <trkpt lat="48.18656" lon="7.01145">
        <ele>536.82</ele>
        <time>2021-06-23T11:06:07Z</time>
      </trkpt>
      <trkpt lat="48.18664" lon="7.01124">
        <ele>536.17</ele>
        <time>2021-06-23T11:06:12Z</time>
      </trkpt>
      <trkpt lat="48.18781" lon="7.00612">
        <ele>514.65</ele>
        <time>2021-06-23T11:06:17Z</time>
      </trkpt>
      <trkpt lat="48.18793" lon="7.00572">
        <ele>512.81</ele>
        <time>2021-06-23T11:06:22Z</time>
      </trkpt>
      <trkpt lat="48.18814" lon="7.00521">
        <ele>512.17</ele>
        <time>2021-06-23T11:06:27Z</time>
      </trkpt>
      <trkpt lat="48.18817" lon="7.00508">
        <ele>512.04</ele>
        <time>2021-06-23T11:06:32Z</time>
      </trkpt>
      <trkpt lat="48.18817" lon="7.0049">
        <ele>511.39</ele>
        <time>2021-06-23T11:06:37Z</time>
      </trkpt>
      <trkpt lat="48.18809" lon="7.0047">
        <ele>509.52</ele>
        <time>2021-06-23T11:06:42Z</time>
      </trkpt>
      <trkpt lat="48.18753" lon="7.00393">
        <ele>504.13</ele>
        <time>2021-06-23T11:06:47Z</time>
      </trkpt>
      <trkpt lat="48.187" lon="7.00306">
        <ele>502.02</ele>
        <time>2021-06-23T11:06:52Z</time>
      </trkpt>
      <trkpt lat="48.18673" lon="7.00271">
        <ele>501.95</ele>
        <time>2021-06-23T11:06:57Z</time>
      </trkpt>
      <trkpt lat="48.1863" lon="7.00234">
        <ele>501.33</ele>
        <time>2021-06-23T11:07:02Z</time>
      </trkpt>
      <trkpt lat="48.1863" lon="7.00234">
        <ele>501.33</ele>
        <time>2021-06-23T11:07:02Z</time>
      </trkpt>
      <trkpt lat="48.18602" lon="7.00209">
        <ele>500.71</ele>
        <time>2021-06-23T11:07:08Z</time>
      </trkpt>
      <trkpt lat="48.18592" lon="7.00204">
        <ele>500.58</ele>
        <time>2021-06-23T11:07:14Z</time>
      </trkpt>
      <trkpt lat="48.1849" lon="7.00196">
        <ele>502.03</ele>
        <time>2021-06-23T11:07:19Z</time>
      </trkpt>
      <trkpt lat="48.18431" lon="7.00195">
        <ele>500.98</ele>
        <time>2021-06-23T11:07:25Z</time>
      </trkpt>
      <trkpt lat="48.1842" lon="7.00191">
        <ele>501</ele>
        <time>2021-06-23T11:07:31Z</time>
      </trkpt>
      <trkpt lat="48.18415" lon="7.00215">
        <ele>500.26</ele>
        <time>2021-06-23T11:07:39Z</time>
      </trkpt>
      <trkpt lat="48.18404" lon="7.0024">
        <ele>500</ele>
        <time>2021-06-23T11:07:48Z</time>
      </trkpt>
      <trkpt lat="48.18386" lon="7.00264">
        <ele>500.11</ele>
        <time>2021-06-23T11:07:57Z</time>
      </trkpt>
      <trkpt lat="48.18248" lon="7.00383">
        <ele>507.05</ele>
        <time>2021-06-23T11:08:05Z</time>
      </trkpt>
      <trkpt lat="48.18121" lon="7.00506">
        <ele>509.64</ele>
        <time>2021-06-23T11:08:14Z</time>
      </trkpt>
      <trkpt lat="48.18102" lon="7.00531">
        <ele>510.29</ele>
        <time>2021-06-23T11:08:22Z</time>
      </trkpt>
      <trkpt lat="48.17997" lon="7.00698">
        <ele>515.25</ele>
        <time>2021-06-23T11:08:31Z</time>
      </trkpt>
      <trkpt lat="48.17961" lon="7.0074">
        <ele>516.79</ele>
        <time>2021-06-23T11:08:40Z</time>
      </trkpt>
      <trkpt lat="48.17718" lon="7.00938">
        <ele>522.64</ele>
        <time>2021-06-23T11:08:48Z</time>
      </trkpt>
      <trkpt lat="48.1769" lon="7.00971">
        <ele>523.3</ele>
        <time>2021-06-23T11:08:57Z</time>
      </trkpt>
      <trkpt lat="48.17589" lon="7.01117">
        <ele>530.46</ele>
        <time>2021-06-23T11:09:05Z</time>
      </trkpt>
      <trkpt lat="48.1756" lon="7.01145">
        <ele>531.91</ele>
        <time>2021-06-23T11:09:14Z</time>
      </trkpt>
      <trkpt lat="48.17483" lon="7.01185">
        <ele>530.83</ele>
        <time>2021-06-23T11:09:23Z</time>
      </trkpt>
      <trkpt lat="48.17461" lon="7.01201">
        <ele>530.15</ele>
        <time>2021-06-23T11:09:31Z</time>
      </trkpt>
      <trkpt lat="48.17332" lon="7.01311">
        <ele>528.87</ele>
        <time>2021-06-23T11:09:40Z</time>
      </trkpt>
      <trkpt lat="48.17319" lon="7.01322">
        <ele>528.91</ele>
        <time>2021-06-23T11:09:48Z</time>
      </trkpt>
      <trkpt lat="48.17312" lon="7.01332">
        <ele>528.83</ele>
        <time>2021-06-23T11:09:57Z</time>
      </trkpt>
      <trkpt lat="48.17295" lon="7.01361">
        <ele>529.79</ele>
        <time>2021-06-23T11:10:06Z</time>
      </trkpt>
      <trkpt lat="48.17201" lon="7.0159">
        <ele>534.76</ele>
        <time>2021-06-23T11:10:14Z</time>
      </trkpt>
      <trkpt lat="48.17175" lon="7.01681">
        <ele>537.54</ele>
        <time>2021-06-23T11:10:23Z</time>
      </trkpt>
      <trkpt lat="48.17165" lon="7.01703">
        <ele>538.05</ele>
        <time>2021-06-23T11:10:31Z</time>
      </trkpt>
      <trkpt lat="48.17112" lon="7.01793">
        <ele>538.97</ele>
        <time>2021-06-23T11:10:40Z</time>
      </trkpt>
      <trkpt lat="48.17105" lon="7.0181">
        <ele>539.21</ele>
        <time>2021-06-23T11:10:49Z</time>
      </trkpt>
      <trkpt lat="48.17097" lon="7.01838">
        <ele>539.58</ele>
        <time>2021-06-23T11:10:57Z</time>
      </trkpt>
      <trkpt lat="48.17075" lon="7.01933">
        <ele>540.4</ele>
        <time>2021-06-23T11:11:06Z</time>
      </trkpt>
      <trkpt lat="48.17065" lon="7.01964">
        <ele>541.37</ele>
        <time>2021-06-23T11:11:14Z</time>
      </trkpt>
      <trkpt lat="48.17058" lon="7.01977">
        <ele>542.08</ele>
        <time>2021-06-23T11:11:23Z</time>
      </trkpt>
      <trkpt lat="48.1702" lon="7.02036">
        <ele>546.77</ele>
        <time>2021-06-23T11:11:32Z</time>
      </trkpt>
      <trkpt lat="48.16999" lon="7.02083">
        <ele>549.29</ele>
        <time>2021-06-23T11:11:40Z</time>
      </trkpt>
      <trkpt lat="48.16959" lon="7.02212">
        <ele>556.47</ele>
        <time>2021-06-23T11:11:49Z</time>
      </trkpt>
      <trkpt lat="48.16927" lon="7.02325">
        <ele>558.49</ele>
        <time>2021-06-23T11:11:57Z</time>
      </trkpt>
      <trkpt lat="48.16893" lon="7.02438">
        <ele>559.16</ele>
        <time>2021-06-23T11:12:06Z</time>
      </trkpt>
      <trkpt lat="48.16893" lon="7.02438">
        <ele>559.16</ele>
        <time>2021-06-23T11:12:06Z</time>
      </trkpt>
      <trkpt lat="48.16882" lon="7.02475">
        <ele>559.84</ele>
        <time>2021-06-23T11:12:09Z</time>
      </trkpt>
      <trkpt lat="48.16835" lon="7.02656">
        <ele>567.15</ele>
        <time>2021-06-23T11:12:11Z</time>
      </trkpt>
      <trkpt lat="48.16799" lon="7.02793">
        <ele>570.22</ele>
        <time>2021-06-23T11:12:14Z</time>
      </trkpt>
      <trkpt lat="48.16794" lon="7.02821">
        <ele>570.22</ele>
        <time>2021-06-23T11:12:16Z</time>
      </trkpt>
      <trkpt lat="48.16784" lon="7.02947">
        <ele>575.11</ele>
        <time>2021-06-23T11:12:19Z</time>
      </trkpt>
      <trkpt lat="48.16776" lon="7.03064">
        <ele>581.65</ele>
        <time>2021-06-23T11:12:21Z</time>
      </trkpt>
      <trkpt lat="48.16776" lon="7.03095">
        <ele>584.57</ele>
        <time>2021-06-23T11:12:23Z</time>
      </trkpt>
      <trkpt lat="48.16779" lon="7.03116">
        <ele>584.98</ele>
        <time>2021-06-23T11:12:26Z</time>
      </trkpt>
      <trkpt lat="48.16784" lon="7.03134">
        <ele>584.78</ele>
        <time>2021-06-23T11:12:28Z</time>
      </trkpt>
      <trkpt lat="48.16795" lon="7.03157">
        <ele>584.58</ele>
        <time>2021-06-23T11:12:31Z</time>
      </trkpt>
      <trkpt lat="48.16804" lon="7.03173">
        <ele>583.83</ele>
        <time>2021-06-23T11:12:33Z</time>
      </trkpt>
      <trkpt lat="48.16818" lon="7.03187">
        <ele>584.14</ele>
        <time>2021-06-23T11:12:36Z</time>
      </trkpt>
      <trkpt lat="48.16834" lon="7.03195">
        <ele>584.14</ele>
        <time>2021-06-23T11:12:38Z</time>
      </trkpt>
      <trkpt lat="48.16844" lon="7.03197">
        <ele>584.91</ele>
        <time>2021-06-23T11:12:41Z</time>
      </trkpt>
      <trkpt lat="48.16844" lon="7.03197">
        <ele>584.91</ele>
        <time>2021-06-23T11:12:41Z</time>
      </trkpt>
      <trkpt lat="48.16851" lon="7.03199">
        <ele>585.69</ele>
        <time>2021-06-23T11:12:45Z</time>
      </trkpt>
      <trkpt lat="48.16875" lon="7.03193">
        <ele>587.77</ele>
        <time>2021-06-23T11:12:48Z</time>
      </trkpt>
      <trkpt lat="48.16897" lon="7.03171">
        <ele>590.48</ele>
        <time>2021-06-23T11:12:52Z</time>
      </trkpt>
      <trkpt lat="48.16934" lon="7.03112">
        <ele>591.6</ele>
        <time>2021-06-23T11:12:56Z</time>
      </trkpt>
      <trkpt lat="48.17015" lon="7.02969">
        <ele>596.11</ele>
        <time>2021-06-23T11:13:00Z</time>
      </trkpt>
      <trkpt lat="48.17112" lon="7.02811">
        <ele>605.11</ele>
        <time>2021-06-23T11:13:03Z</time>
      </trkpt>
      <trkpt lat="48.17212" lon="7.02673">
        <ele>616.08</ele>
        <time>2021-06-23T11:13:07Z</time>
      </trkpt>
      <trkpt lat="48.17254" lon="7.02612">
        <ele>618.11</ele>
        <time>2021-06-23T11:13:11Z</time>
      </trkpt>
      <trkpt lat="48.1735" lon="7.02479">
        <ele>630.64</ele>
        <time>2021-06-23T11:13:15Z</time>
      </trkpt>
      <trkpt lat="48.17382" lon="7.02448">
        <ele>629.1</ele>
        <time>2021-06-23T11:13:18Z</time>
      </trkpt>
      <trkpt lat="48.17425" lon="7.02424">
        <ele>629.28</ele>
        <time>2021-06-23T11:13:22Z</time>
      </trkpt>
      <trkpt lat="48.1746" lon="7.02412">
        <ele>629.77</ele>
        <time>2021-06-23T11:13:26Z</time>
      </trkpt>
      <trkpt lat="48.17528" lon="7.02394">
        <ele>634.75</ele>
        <time>2021-06-23T11:13:30Z</time>
      </trkpt>
      <trkpt lat="48.17552" lon="7.02392">
        <ele>637</ele>
        <time>2021-06-23T11:13:34Z</time>
      </trkpt>
      <trkpt lat="48.1758" lon="7.02396">
        <ele>637.34</ele>
        <time>2021-06-23T11:13:37Z</time>
      </trkpt>
      <trkpt lat="48.17611" lon="7.02413">
        <ele>640.14</ele>
        <time>2021-06-23T11:13:41Z</time>
      </trkpt>
      <trkpt lat="48.17656" lon="7.02442">
        <ele>645.1</ele>
        <time>2021-06-23T11:13:45Z</time>
      </trkpt>
      <trkpt lat="48.17687" lon="7.02467">
        <ele>646.61</ele>
        <time>2021-06-23T11:13:49Z</time>
      </trkpt>
      <trkpt lat="48.17707" lon="7.02479">
        <ele>647.93</ele>
        <time>2021-06-23T11:13:52Z</time>
      </trkpt>
      <trkpt lat="48.17733" lon="7.02486">
        <ele>650.32</ele>
        <time>2021-06-23T11:13:56Z</time>
      </trkpt>
      <trkpt lat="48.17757" lon="7.02488">
        <ele>652.64</ele>
        <time>2021-06-23T11:14:00Z</time>
      </trkpt>
      <trkpt lat="48.17783" lon="7.02487">
        <ele>652.64</ele>
        <time>2021-06-23T11:14:04Z</time>
      </trkpt>
      <trkpt lat="48.17827" lon="7.02472">
        <ele>652.8</ele>
        <time>2021-06-23T11:14:07Z</time>
      </trkpt>
      <trkpt lat="48.17919" lon="7.0241">
        <ele>656.53</ele>
        <time>2021-06-23T11:14:11Z</time>
      </trkpt>
      <trkpt lat="48.17933" lon="7.02397">
        <ele>657.78</ele>
        <time>2021-06-23T11:14:15Z</time>
      </trkpt>
      <trkpt lat="48.17962" lon="7.0235">
        <ele>660.53</ele>
        <time>2021-06-23T11:14:19Z</time>
      </trkpt>
      <trkpt lat="48.17972" lon="7.02339">
        <ele>661.42</ele>
        <time>2021-06-23T11:14:22Z</time>
      </trkpt>
      <trkpt lat="48.17984" lon="7.02335">
        <ele>661.11</ele>
        <time>2021-06-23T11:14:26Z</time>
      </trkpt>
      <trkpt lat="48.17995" lon="7.02336">
        <ele>661.2</ele>
        <time>2021-06-23T11:14:30Z</time>
      </trkpt>
      <trkpt lat="48.18007" lon="7.02347">
        <ele>661.17</ele>
        <time>2021-06-23T11:14:34Z</time>
      </trkpt>
      <trkpt lat="48.18007" lon="7.02347">
        <ele>661.17</ele>
        <time>2021-06-23T11:14:34Z</time>
      </trkpt>
      <trkpt lat="48.18013" lon="7.02359">
        <ele>661.47</ele>
        <time>2021-06-23T11:14:37Z</time>
      </trkpt>
      <trkpt lat="48.18015" lon="7.0237">
        <ele>662.53</ele>
        <time>2021-06-23T11:14:39Z</time>
      </trkpt>
      <trkpt lat="48.18015" lon="7.02386">
        <ele>664.59</ele>
        <time>2021-06-23T11:14:42Z</time>
      </trkpt>
      <trkpt lat="48.18013" lon="7.02397">
        <ele>665.95</ele>
        <time>2021-06-23T11:14:45Z</time>
      </trkpt>
      <trkpt lat="48.18008" lon="7.02408">
        <ele>667.16</ele>
        <time>2021-06-23T11:14:48Z</time>
      </trkpt>
      <trkpt lat="48.18002" lon="7.02417">
        <ele>667.98</ele>
        <time>2021-06-23T11:14:50Z</time>
      </trkpt>
      <trkpt lat="48.17953" lon="7.02442">
        <ele>668.8</ele>
        <time>2021-06-23T11:14:53Z</time>
      </trkpt>
      <trkpt lat="48.17937" lon="7.02455">
        <ele>669.04</ele>
        <time>2021-06-23T11:14:56Z</time>
      </trkpt>
      <trkpt lat="48.1789" lon="7.02518">
        <ele>677.74</ele>
        <time>2021-06-23T11:14:59Z</time>
      </trkpt>
      <trkpt lat="48.17836" lon="7.026">
        <ele>686.48</ele>
        <time>2021-06-23T11:15:02Z</time>
      </trkpt>
      <trkpt lat="48.17815" lon="7.02619">
        <ele>688.62</ele>
        <time>2021-06-23T11:15:04Z</time>
      </trkpt>
      <trkpt lat="48.17788" lon="7.02638">
        <ele>687.61</ele>
        <time>2021-06-23T11:15:07Z</time>
      </trkpt>
      <trkpt lat="48.17679" lon="7.02682">
        <ele>688.82</ele>
        <time>2021-06-23T11:15:10Z</time>
      </trkpt>
      <trkpt lat="48.17653" lon="7.0269">
        <ele>690.6</ele>
        <time>2021-06-23T11:15:13Z</time>
      </trkpt>
      <trkpt lat="48.17627" lon="7.02695">
        <ele>693.34</ele>
        <time>2021-06-23T11:15:16Z</time>
      </trkpt>
      <trkpt lat="48.17605" lon="7.02695">
        <ele>695.79</ele>
        <time>2021-06-23T11:15:18Z</time>
      </trkpt>
      <trkpt lat="48.17559" lon="7.02691">
        <ele>698.06</ele>
        <time>2021-06-23T11:15:21Z</time>
      </trkpt>
      <trkpt lat="48.17541" lon="7.02694">
        <ele>699.44</ele>
        <time>2021-06-23T11:15:24Z</time>
      </trkpt>
      <trkpt lat="48.17526" lon="7.02701">
        <ele>701.04</ele>
        <time>2021-06-23T11:15:27Z</time>
      </trkpt>
      <trkpt lat="48.17509" lon="7.02712">
        <ele>700.97</ele>
        <time>2021-06-23T11:15:30Z</time>
      </trkpt>
      <trkpt lat="48.17487" lon="7.02736">
        <ele>702.8</ele>
        <time>2021-06-23T11:15:32Z</time>
      </trkpt>
      <trkpt lat="48.17465" lon="7.02773">
        <ele>706.29</ele>
        <time>2021-06-23T11:15:35Z</time>
      </trkpt>
      <trkpt lat="48.17349" lon="7.02978">
        <ele>711.17</ele>
        <time>2021-06-23T11:15:38Z</time>
      </trkpt>
      <trkpt lat="48.1733" lon="7.03015">
        <ele>714.92</ele>
        <time>2021-06-23T11:15:41Z</time>
      </trkpt>
      <trkpt lat="48.17319" lon="7.0304">
        <ele>716.85</ele>
        <time>2021-06-23T11:15:44Z</time>
      </trkpt>
      <trkpt lat="48.17304" lon="7.031">
        <ele>720.95</ele>
        <time>2021-06-23T11:15:46Z</time>
      </trkpt>
      <trkpt lat="48.173" lon="7.03136">
        <ele>723.37</ele>
        <time>2021-06-23T11:15:49Z</time>
      </trkpt>
      <trkpt lat="48.17303" lon="7.03316">
        <ele>730.45</ele>
        <time>2021-06-23T11:15:52Z</time>
      </trkpt>
      <trkpt lat="48.17306" lon="7.03349">
        <ele>731.2</ele>
        <time>2021-06-23T11:15:55Z</time>
      </trkpt>
      <trkpt lat="48.17319" lon="7.03401">
        <ele>732.22</ele>
        <time>2021-06-23T11:15:58Z</time>
      </trkpt>
      <trkpt lat="48.17329" lon="7.03425">
        <ele>731.97</ele>
        <time>2021-06-23T11:16:00Z</time>
      </trkpt>
      <trkpt lat="48.17347" lon="7.03457">
        <ele>735.65</ele>
        <time>2021-06-23T11:16:03Z</time>
      </trkpt>
      <trkpt lat="48.17366" lon="7.0348">
        <ele>738.56</ele>
        <time>2021-06-23T11:16:06Z</time>
      </trkpt>
      <trkpt lat="48.17424" lon="7.03533">
        <ele>739.33</ele>
        <time>2021-06-23T11:16:09Z</time>
      </trkpt>
      <trkpt lat="48.17448" lon="7.03559">
        <ele>739.92</ele>
        <time>2021-06-23T11:16:12Z</time>
      </trkpt>
      <trkpt lat="48.17466" lon="7.03585">
        <ele>741.69</ele>
        <time>2021-06-23T11:16:14Z</time>
      </trkpt>
      <trkpt lat="48.17478" lon="7.03611">
        <ele>743.25</ele>
        <time>2021-06-23T11:16:17Z</time>
      </trkpt>
      <trkpt lat="48.17489" lon="7.03641">
        <ele>745.39</ele>
        <time>2021-06-23T11:16:20Z</time>
      </trkpt>
      <trkpt lat="48.17496" lon="7.03671">
        <ele>747.05</ele>
        <time>2021-06-23T11:16:23Z</time>
      </trkpt>
      <trkpt lat="48.17504" lon="7.03724">
        <ele>748.86</ele>
        <time>2021-06-23T11:16:26Z</time>
      </trkpt>
      <trkpt lat="48.1751" lon="7.03782">
        <ele>748.77</ele>
        <time>2021-06-23T11:16:28Z</time>
      </trkpt>
      <trkpt lat="48.17509" lon="7.03821">
        <ele>748.97</ele>
        <time>2021-06-23T11:16:31Z</time>
      </trkpt>
      <trkpt lat="48.17501" lon="7.03897">
        <ele>752.16</ele>
        <time>2021-06-23T11:16:34Z</time>
      </trkpt>
      <trkpt lat="48.17495" lon="7.03915">
        <ele>752.47</ele>
        <time>2021-06-23T11:16:37Z</time>
      </trkpt>
      <trkpt lat="48.17487" lon="7.03931">
        <ele>753.95</ele>
        <time>2021-06-23T11:16:39Z</time>
      </trkpt>
      <trkpt lat="48.17473" lon="7.03955">
        <ele>754.24</ele>
        <time>2021-06-23T11:16:42Z</time>
      </trkpt>
      <trkpt lat="48.17448" lon="7.03974">
        <ele>759.99</ele>
        <time>2021-06-23T11:16:45Z</time>
      </trkpt>
      <trkpt lat="48.17436" lon="7.03978">
        <ele>762.66</ele>
        <time>2021-06-23T11:16:48Z</time>
      </trkpt>
      <trkpt lat="48.17423" lon="7.0398">
        <ele>765.01</ele>
        <time>2021-06-23T11:16:51Z</time>
      </trkpt>
      <trkpt lat="48.17363" lon="7.03977">
        <ele>774.85</ele>
        <time>2021-06-23T11:16:53Z</time>
      </trkpt>
      <trkpt lat="48.17341" lon="7.03978">
        <ele>777.72</ele>
        <time>2021-06-23T11:16:56Z</time>
      </trkpt>
      <trkpt lat="48.17313" lon="7.03982">
        <ele>781.51</ele>
        <time>2021-06-23T11:16:59Z</time>
      </trkpt>
      <trkpt lat="48.1725" lon="7.04003">
        <ele>785.84</ele>
        <time>2021-06-23T11:17:02Z</time>
      </trkpt>
      <trkpt lat="48.17216" lon="7.04017">
        <ele>786.39</ele>
        <time>2021-06-23T11:17:05Z</time>
      </trkpt>
      <trkpt lat="48.17197" lon="7.04028">
        <ele>785.57</ele>
        <time>2021-06-23T11:17:07Z</time>
      </trkpt>
      <trkpt lat="48.17183" lon="7.04039">
        <ele>784.68</ele>
        <time>2021-06-23T11:17:10Z</time>
      </trkpt>
      <trkpt lat="48.17146" lon="7.0408">
        <ele>783.17</ele>
        <time>2021-06-23T11:17:13Z</time>
      </trkpt>
      <trkpt lat="48.17104" lon="7.04142">
        <ele>787.51</ele>
        <time>2021-06-23T11:17:16Z</time>
      </trkpt>
      <trkpt lat="48.17095" lon="7.04163">
        <ele>787.16</ele>
        <time>2021-06-23T11:17:19Z</time>
      </trkpt>
      <trkpt lat="48.17077" lon="7.0421">
        <ele>787.04</ele>
        <time>2021-06-23T11:17:21Z</time>
      </trkpt>
      <trkpt lat="48.17051" lon="7.04322">
        <ele>791.5</ele>
        <time>2021-06-23T11:17:24Z</time>
      </trkpt>
      <trkpt lat="48.17008" lon="7.04563">
        <ele>807.36</ele>
        <time>2021-06-23T11:17:27Z</time>
      </trkpt>
      <trkpt lat="48.16998" lon="7.04603">
        <ele>808.22</ele>
        <time>2021-06-23T11:17:30Z</time>
      </trkpt>
      <trkpt lat="48.16962" lon="7.0471">
        <ele>810.04</ele>
        <time>2021-06-23T11:17:33Z</time>
      </trkpt>
      <trkpt lat="48.16877" lon="7.04902">
        <ele>823.38</ele>
        <time>2021-06-23T11:17:35Z</time>
      </trkpt>
      <trkpt lat="48.1683" lon="7.04996">
        <ele>824.73</ele>
        <time>2021-06-23T11:17:38Z</time>
      </trkpt>
      <trkpt lat="48.1682" lon="7.05021">
        <ele>823.39</ele>
        <time>2021-06-23T11:17:41Z</time>
      </trkpt>
      <trkpt lat="48.16814" lon="7.05043">
        <ele>822.51</ele>
        <time>2021-06-23T11:17:44Z</time>
      </trkpt>
      <trkpt lat="48.16812" lon="7.05063">
        <ele>823.16</ele>
        <time>2021-06-23T11:17:47Z</time>
      </trkpt>
      <trkpt lat="48.16812" lon="7.05083">
        <ele>824.16</ele>
        <time>2021-06-23T11:17:49Z</time>
      </trkpt>
      <trkpt lat="48.16817" lon="7.05105">
        <ele>826.31</ele>
        <time>2021-06-23T11:17:52Z</time>
      </trkpt>
      <trkpt lat="48.16829" lon="7.05135">
        <ele>829.88</ele>
        <time>2021-06-23T11:17:55Z</time>
      </trkpt>
      <trkpt lat="48.16849" lon="7.05174">
        <ele>835.91</ele>
        <time>2021-06-23T11:17:58Z</time>
      </trkpt>
      <trkpt lat="48.1689" lon="7.05239">
        <ele>839.24</ele>
        <time>2021-06-23T11:18:01Z</time>
      </trkpt>
      <trkpt lat="48.16981" lon="7.05398">
        <ele>845.68</ele>
        <time>2021-06-23T11:18:03Z</time>
      </trkpt>
      <trkpt lat="48.17" lon="7.05421">
        <ele>848.51</ele>
        <time>2021-06-23T11:18:06Z</time>
      </trkpt>
      <trkpt lat="48.1705" lon="7.05473">
        <ele>855.65</ele>
        <time>2021-06-23T11:18:09Z</time>
      </trkpt>
      <trkpt lat="48.17069" lon="7.05497">
        <ele>856.53</ele>
        <time>2021-06-23T11:18:12Z</time>
      </trkpt>
      <trkpt lat="48.17085" lon="7.05523">
        <ele>856.26</ele>
        <time>2021-06-23T11:18:15Z</time>
      </trkpt>
      <trkpt lat="48.17097" lon="7.05554">
        <ele>855.96</ele>
        <time>2021-06-23T11:18:17Z</time>
      </trkpt>
      <trkpt lat="48.17105" lon="7.05584">
        <ele>856.53</ele>
        <time>2021-06-23T11:18:20Z</time>
      </trkpt>
      <trkpt lat="48.17113" lon="7.05619">
        <ele>859.73</ele>
        <time>2021-06-23T11:18:23Z</time>
      </trkpt>
      <trkpt lat="48.17115" lon="7.05652">
        <ele>860.05</ele>
        <time>2021-06-23T11:18:26Z</time>
      </trkpt>
      <trkpt lat="48.17115" lon="7.05678">
        <ele>859.46</ele>
        <time>2021-06-23T11:18:28Z</time>
      </trkpt>
      <trkpt lat="48.17111" lon="7.05707">
        <ele>857.81</ele>
        <time>2021-06-23T11:18:31Z</time>
      </trkpt>
      <trkpt lat="48.17102" lon="7.05738">
        <ele>858.95</ele>
        <time>2021-06-23T11:18:34Z</time>
      </trkpt>
      <trkpt lat="48.17088" lon="7.05766">
        <ele>860.32</ele>
        <time>2021-06-23T11:18:37Z</time>
      </trkpt>
      <trkpt lat="48.17049" lon="7.05827">
        <ele>864.79</ele>
        <time>2021-06-23T11:18:40Z</time>
      </trkpt>
      <trkpt lat="48.17023" lon="7.05857">
        <ele>870.05</ele>
        <time>2021-06-23T11:18:42Z</time>
      </trkpt>
      <trkpt lat="48.1696" lon="7.05893">
        <ele>869.67</ele>
        <time>2021-06-23T11:18:45Z</time>
      </trkpt>
      <trkpt lat="48.16864" lon="7.05972">
        <ele>874.55</ele>
        <time>2021-06-23T11:18:48Z</time>
      </trkpt>
      <trkpt lat="48.16814" lon="7.06008">
        <ele>870.61</ele>
        <time>2021-06-23T11:18:51Z</time>
      </trkpt>
      <trkpt lat="48.1679" lon="7.06033">
        <ele>872.59</ele>
        <time>2021-06-23T11:18:54Z</time>
      </trkpt>
      <trkpt lat="48.16772" lon="7.06055">
        <ele>875.52</ele>
        <time>2021-06-23T11:18:56Z</time>
      </trkpt>
      <trkpt lat="48.16757" lon="7.06081">
        <ele>878.51</ele>
        <time>2021-06-23T11:18:59Z</time>
      </trkpt>
      <trkpt lat="48.16747" lon="7.06108">
        <ele>880.68</ele>
        <time>2021-06-23T11:19:02Z</time>
      </trkpt>
      <trkpt lat="48.16735" lon="7.06149">
        <ele>884.44</ele>
        <time>2021-06-23T11:19:05Z</time>
      </trkpt>
      <trkpt lat="48.16728" lon="7.06205">
        <ele>886.24</ele>
        <time>2021-06-23T11:19:08Z</time>
      </trkpt>
      <trkpt lat="48.16724" lon="7.06363">
        <ele>895.55</ele>
        <time>2021-06-23T11:19:10Z</time>
      </trkpt>
      <trkpt lat="48.16717" lon="7.06513">
        <ele>902.91</ele>
        <time>2021-06-23T11:19:13Z</time>
      </trkpt>
      <trkpt lat="48.16715" lon="7.06602">
        <ele>903.92</ele>
        <time>2021-06-23T11:19:16Z</time>
      </trkpt>
      <trkpt lat="48.16721" lon="7.0674">
        <ele>911.2</ele>
        <time>2021-06-23T11:19:19Z</time>
      </trkpt>
      <trkpt lat="48.16721" lon="7.06786">
        <ele>913.78</ele>
        <time>2021-06-23T11:19:22Z</time>
      </trkpt>
      <trkpt lat="48.16717" lon="7.06826">
        <ele>915.45</ele>
        <time>2021-06-23T11:19:24Z</time>
      </trkpt>
      <trkpt lat="48.16682" lon="7.06973">
        <ele>916.93</ele>
        <time>2021-06-23T11:19:27Z</time>
      </trkpt>
      <trkpt lat="48.16675" lon="7.07015">
        <ele>916.03</ele>
        <time>2021-06-23T11:19:30Z</time>
      </trkpt>
      <trkpt lat="48.16674" lon="7.07052">
        <ele>918.34</ele>
        <time>2021-06-23T11:19:33Z</time>
      </trkpt>
      <trkpt lat="48.16682" lon="7.07193">
        <ele>925.52</ele>
        <time>2021-06-23T11:19:36Z</time>
      </trkpt>
      <trkpt lat="48.1668" lon="7.07251">
        <ele>928.42</ele>
        <time>2021-06-23T11:19:38Z</time>
      </trkpt>
      <trkpt lat="48.16676" lon="7.07308">
        <ele>929.66</ele>
        <time>2021-06-23T11:19:41Z</time>
      </trkpt>
      <trkpt lat="48.16634" lon="7.07534">
        <ele>937.38</ele>
        <time>2021-06-23T11:19:44Z</time>
      </trkpt>
      <trkpt lat="48.16625" lon="7.07566">
        <ele>936.89</ele>
        <time>2021-06-23T11:19:47Z</time>
      </trkpt>
      <trkpt lat="48.16615" lon="7.07593">
        <ele>937.7</ele>
        <time>2021-06-23T11:19:50Z</time>
      </trkpt>
      <trkpt lat="48.16586" lon="7.07659">
        <ele>942.32</ele>
        <time>2021-06-23T11:19:52Z</time>
      </trkpt>
      <trkpt lat="48.16576" lon="7.07685">
        <ele>942.93</ele>
        <time>2021-06-23T11:19:55Z</time>
      </trkpt>
      <trkpt lat="48.16516" lon="7.07895">
        <ele>947.67</ele>
        <time>2021-06-23T11:19:58Z</time>
      </trkpt>
      <trkpt lat="48.16508" lon="7.07918">
        <ele>948.06</ele>
        <time>2021-06-23T11:20:01Z</time>
      </trkpt>
      <trkpt lat="48.16491" lon="7.07955">
        <ele>949.61</ele>
        <time>2021-06-23T11:20:04Z</time>
      </trkpt>
      <trkpt lat="48.16484" lon="7.07944">
        <ele>948.96</ele>
        <time>2021-06-23T11:20:04Z</time>
      </trkpt>
      <trkpt lat="48.16484" lon="7.07944">
        <ele>948.96</ele>
        <time>2021-06-23T11:20:04Z</time>
      </trkpt>
      <trkpt lat="48.16473" lon="7.07925">
        <ele>948.3</ele>
        <time>2021-06-23T11:20:07Z</time>
      </trkpt>
      <trkpt lat="48.16462" lon="7.07913">
        <ele>949.8</ele>
        <time>2021-06-23T11:20:10Z</time>
      </trkpt>
      <trkpt lat="48.1641" lon="7.07893">
        <ele>958.83</ele>
        <time>2021-06-23T11:20:13Z</time>
      </trkpt>
      <trkpt lat="48.16381" lon="7.07874">
        <ele>963.13</ele>
        <time>2021-06-23T11:20:16Z</time>
      </trkpt>
      <trkpt lat="48.16306" lon="7.07794">
        <ele>970.68</ele>
        <time>2021-06-23T11:20:19Z</time>
      </trkpt>
      <trkpt lat="48.16272" lon="7.07765">
        <ele>973.08</ele>
        <time>2021-06-23T11:20:22Z</time>
      </trkpt>
      <trkpt lat="48.16248" lon="7.07748">
        <ele>975.1</ele>
        <time>2021-06-23T11:20:25Z</time>
      </trkpt>
      <trkpt lat="48.16222" lon="7.07745">
        <ele>973.52</ele>
        <time>2021-06-23T11:20:28Z</time>
      </trkpt>
      <trkpt lat="48.16178" lon="7.07744">
        <ele>970.57</ele>
        <time>2021-06-23T11:20:31Z</time>
      </trkpt>
      <trkpt lat="48.16136" lon="7.07736">
        <ele>968.35</ele>
        <time>2021-06-23T11:20:34Z</time>
      </trkpt>
      <trkpt lat="48.16079" lon="7.07705">
        <ele>967.28</ele>
        <time>2021-06-23T11:20:37Z</time>
      </trkpt>
      <trkpt lat="48.15985" lon="7.07618">
        <ele>966.05</ele>
        <time>2021-06-23T11:20:40Z</time>
      </trkpt>
      <trkpt lat="48.15939" lon="7.07556">
        <ele>969.56</ele>
        <time>2021-06-23T11:20:43Z</time>
      </trkpt>
      <trkpt lat="48.15926" lon="7.07534">
        <ele>970.17</ele>
        <time>2021-06-23T11:20:45Z</time>
      </trkpt>
      <trkpt lat="48.15894" lon="7.07469">
        <ele>974.32</ele>
        <time>2021-06-23T11:20:48Z</time>
      </trkpt>
      <trkpt lat="48.15876" lon="7.07447">
        <ele>976.73</ele>
        <time>2021-06-23T11:20:51Z</time>
      </trkpt>
      <trkpt lat="48.15773" lon="7.07357">
        <ele>981.01</ele>
        <time>2021-06-23T11:20:54Z</time>
      </trkpt>
      <trkpt lat="48.15755" lon="7.07345">
        <ele>981.27</ele>
        <time>2021-06-23T11:20:57Z</time>
      </trkpt>
      <trkpt lat="48.15741" lon="7.07339">
        <ele>982.96</ele>
        <time>2021-06-23T11:21:00Z</time>
      </trkpt>
      <trkpt lat="48.15613" lon="7.07328">
        <ele>988.35</ele>
        <time>2021-06-23T11:21:03Z</time>
      </trkpt>
      <trkpt lat="48.15599" lon="7.07323">
        <ele>988.85</ele>
        <time>2021-06-23T11:21:06Z</time>
      </trkpt>
      <trkpt lat="48.15584" lon="7.07314">
        <ele>989.78</ele>
        <time>2021-06-23T11:21:09Z</time>
      </trkpt>
      <trkpt lat="48.1555" lon="7.07289">
        <ele>988.86</ele>
        <time>2021-06-23T11:21:12Z</time>
      </trkpt>
      <trkpt lat="48.15501" lon="7.07246">
        <ele>987.3</ele>
        <time>2021-06-23T11:21:15Z</time>
      </trkpt>
      <trkpt lat="48.15429" lon="7.07166">
        <ele>991.78</ele>
        <time>2021-06-23T11:21:18Z</time>
      </trkpt>
      <trkpt lat="48.154" lon="7.07136">
        <ele>988.44</ele>
        <time>2021-06-23T11:21:21Z</time>
      </trkpt>
      <trkpt lat="48.15286" lon="7.07081">
        <ele>977.77</ele>
        <time>2021-06-23T11:21:24Z</time>
      </trkpt>
      <trkpt lat="48.15259" lon="7.07065">
        <ele>981.93</ele>
        <time>2021-06-23T11:21:27Z</time>
      </trkpt>
      <trkpt lat="48.1521" lon="7.07018">
        <ele>989.86</ele>
        <time>2021-06-23T11:21:30Z</time>
      </trkpt>
      <trkpt lat="48.15088" lon="7.0697">
        <ele>982.27</ele>
        <time>2021-06-23T11:21:33Z</time>
      </trkpt>
      <trkpt lat="48.15038" lon="7.06932">
        <ele>982.98</ele>
        <time>2021-06-23T11:21:36Z</time>
      </trkpt>
      <trkpt lat="48.14917" lon="7.06791">
        <ele>994.5</ele>
        <time>2021-06-23T11:21:38Z</time>
      </trkpt>
      <trkpt lat="48.14861" lon="7.06739">
        <ele>996.4</ele>
        <time>2021-06-23T11:21:41Z</time>
      </trkpt>
      <trkpt lat="48.14818" lon="7.0672">
        <ele>1001.78</ele>
        <time>2021-06-23T11:21:44Z</time>
      </trkpt>
      <trkpt lat="48.1478" lon="7.06714">
        <ele>1006.31</ele>
        <time>2021-06-23T11:21:47Z</time>
      </trkpt>
      <trkpt lat="48.14741" lon="7.06721">
        <ele>1009.09</ele>
        <time>2021-06-23T11:21:50Z</time>
      </trkpt>
      <trkpt lat="48.14693" lon="7.06742">
        <ele>1014.42</ele>
        <time>2021-06-23T11:21:53Z</time>
      </trkpt>
      <trkpt lat="48.14666" lon="7.06749">
        <ele>1017.12</ele>
        <time>2021-06-23T11:21:56Z</time>
      </trkpt>
      <trkpt lat="48.14639" lon="7.06755">
        <ele>1018.32</ele>
        <time>2021-06-23T11:21:59Z</time>
      </trkpt>
      <trkpt lat="48.14618" lon="7.06756">
        <ele>1020.39</ele>
        <time>2021-06-23T11:22:02Z</time>
      </trkpt>
      <trkpt lat="48.14598" lon="7.06754">
        <ele>1021.45</ele>
        <time>2021-06-23T11:22:05Z</time>
      </trkpt>
      <trkpt lat="48.14564" lon="7.06744">
        <ele>1022.34</ele>
        <time>2021-06-23T11:22:08Z</time>
      </trkpt>
      <trkpt lat="48.14437" lon="7.06699">
        <ele>1025.55</ele>
        <time>2021-06-23T11:22:11Z</time>
      </trkpt>
      <trkpt lat="48.14398" lon="7.06678">
        <ele>1027.25</ele>
        <time>2021-06-23T11:22:14Z</time>
      </trkpt>
      <trkpt lat="48.14388" lon="7.0667">
        <ele>1028.63</ele>
        <time>2021-06-23T11:22:17Z</time>
      </trkpt>
      <trkpt lat="48.14369" lon="7.06648">
        <ele>1029.61</ele>
        <time>2021-06-23T11:22:20Z</time>
      </trkpt>
      <trkpt lat="48.14306" lon="7.06535">
        <ele>1031.06</ele>
        <time>2021-06-23T11:22:23Z</time>
      </trkpt>
      <trkpt lat="48.14293" lon="7.06516">
        <ele>1030.14</ele>
        <time>2021-06-23T11:22:26Z</time>
      </trkpt>
      <trkpt lat="48.14194" lon="7.06415">
        <ele>1018.08</ele>
        <time>2021-06-23T11:22:29Z</time>
      </trkpt>
      <trkpt lat="48.14145" lon="7.06362">
        <ele>1011.25</ele>
        <time>2021-06-23T11:22:32Z</time>
      </trkpt>
      <trkpt lat="48.14109" lon="7.06313">
        <ele>1013.41</ele>
        <time>2021-06-23T11:22:34Z</time>
      </trkpt>
      <trkpt lat="48.1409" lon="7.0628">
        <ele>1015.25</ele>
        <time>2021-06-23T11:22:37Z</time>
      </trkpt>
      <trkpt lat="48.14074" lon="7.06258">
        <ele>1016.53</ele>
        <time>2021-06-23T11:22:40Z</time>
      </trkpt>
      <trkpt lat="48.14055" lon="7.06235">
        <ele>1017.07</ele>
        <time>2021-06-23T11:22:43Z</time>
      </trkpt>
      <trkpt lat="48.14044" lon="7.06224">
        <ele>1017.84</ele>
        <time>2021-06-23T11:22:46Z</time>
      </trkpt>
      <trkpt lat="48.14028" lon="7.0622">
        <ele>1018.08</ele>
        <time>2021-06-23T11:22:49Z</time>
      </trkpt>
      <trkpt lat="48.14018" lon="7.06222">
        <ele>1018.69</ele>
        <time>2021-06-23T11:22:52Z</time>
      </trkpt>
      <trkpt lat="48.14" lon="7.06233">
        <ele>1018.83</ele>
        <time>2021-06-23T11:22:55Z</time>
      </trkpt>
      <trkpt lat="48.13989" lon="7.06244">
        <ele>1018.45</ele>
        <time>2021-06-23T11:22:58Z</time>
      </trkpt>
      <trkpt lat="48.1398" lon="7.06259">
        <ele>1017.12</ele>
        <time>2021-06-23T11:23:01Z</time>
      </trkpt>
      <trkpt lat="48.13962" lon="7.06303">
        <ele>1012.2</ele>
        <time>2021-06-23T11:23:04Z</time>
      </trkpt>
      <trkpt lat="48.13952" lon="7.06314">
        <ele>1010.97</ele>
        <time>2021-06-23T11:23:07Z</time>
      </trkpt>
      <trkpt lat="48.13945" lon="7.06318">
        <ele>1010.84</ele>
        <time>2021-06-23T11:23:10Z</time>
      </trkpt>
      <trkpt lat="48.13929" lon="7.0632">
        <ele>1010.45</ele>
        <time>2021-06-23T11:23:13Z</time>
      </trkpt>
      <trkpt lat="48.13913" lon="7.06318">
        <ele>1010.38</ele>
        <time>2021-06-23T11:23:16Z</time>
      </trkpt>
      <trkpt lat="48.13857" lon="7.06306">
        <ele>1003.96</ele>
        <time>2021-06-23T11:23:19Z</time>
      </trkpt>
      <trkpt lat="48.13826" lon="7.06297">
        <ele>1000.27</ele>
        <time>2021-06-23T11:23:22Z</time>
      </trkpt>
      <trkpt lat="48.1381" lon="7.0629">
        <ele>998.73</ele>
        <time>2021-06-23T11:23:25Z</time>
      </trkpt>
      <trkpt lat="48.138" lon="7.06282">
        <ele>997.81</ele>
        <time>2021-06-23T11:23:27Z</time>
      </trkpt>
      <trkpt lat="48.13789" lon="7.06269">
        <ele>996.96</ele>
        <time>2021-06-23T11:23:30Z</time>
      </trkpt>
      <trkpt lat="48.13731" lon="7.06167">
        <ele>991.67</ele>
        <time>2021-06-23T11:23:33Z</time>
      </trkpt>
      <trkpt lat="48.13713" lon="7.0614">
        <ele>989.83</ele>
        <time>2021-06-23T11:23:36Z</time>
      </trkpt>
      <trkpt lat="48.13703" lon="7.06131">
        <ele>988.71</ele>
        <time>2021-06-23T11:23:39Z</time>
      </trkpt>
      <trkpt lat="48.13688" lon="7.06123">
        <ele>986.73</ele>
        <time>2021-06-23T11:23:42Z</time>
      </trkpt>
      <trkpt lat="48.13663" lon="7.06116">
        <ele>983.34</ele>
        <time>2021-06-23T11:23:45Z</time>
      </trkpt>
      <trkpt lat="48.13648" lon="7.06118">
        <ele>981.57</ele>
        <time>2021-06-23T11:23:48Z</time>
      </trkpt>
      <trkpt lat="48.13632" lon="7.06131">
        <ele>981.59</ele>
        <time>2021-06-23T11:23:51Z</time>
      </trkpt>
      <trkpt lat="48.13629" lon="7.06146">
        <ele>983.92</ele>
        <time>2021-06-23T11:23:54Z</time>
      </trkpt>
      <trkpt lat="48.1363" lon="7.06157">
        <ele>985.61</ele>
        <time>2021-06-23T11:23:57Z</time>
      </trkpt>
      <trkpt lat="48.13635" lon="7.06174">
        <ele>986.56</ele>
        <time>2021-06-23T11:24:00Z</time>
      </trkpt>
      <trkpt lat="48.13635" lon="7.06174">
        <ele>986.56</ele>
        <time>2021-06-23T11:24:00Z</time>
      </trkpt>
      <trkpt lat="48.1365" lon="7.06226">
        <ele>988.22</ele>
        <time>2021-06-23T11:24:03Z</time>
      </trkpt>
      <trkpt lat="48.13655" lon="7.06259">
        <ele>989.06</ele>
        <time>2021-06-23T11:24:05Z</time>
      </trkpt>
      <trkpt lat="48.13656" lon="7.06275">
        <ele>989.52</ele>
        <time>2021-06-23T11:24:08Z</time>
      </trkpt>
      <trkpt lat="48.1365" lon="7.06332">
        <ele>994.63</ele>
        <time>2021-06-23T11:24:10Z</time>
      </trkpt>
      <trkpt lat="48.13651" lon="7.06351">
        <ele>996.2</ele>
        <time>2021-06-23T11:24:13Z</time>
      </trkpt>
      <trkpt lat="48.13667" lon="7.06483">
        <ele>1010.48</ele>
        <time>2021-06-23T11:24:16Z</time>
      </trkpt>
      <trkpt lat="48.13668" lon="7.06571">
        <ele>1015.74</ele>
        <time>2021-06-23T11:24:18Z</time>
      </trkpt>
      <trkpt lat="48.13671" lon="7.06607">
        <ele>1015.95</ele>
        <time>2021-06-23T11:24:21Z</time>
      </trkpt>
      <trkpt lat="48.1368" lon="7.06663">
        <ele>1010.58</ele>
        <time>2021-06-23T11:24:23Z</time>
      </trkpt>
      <trkpt lat="48.13679" lon="7.06676">
        <ele>1009.63</ele>
        <time>2021-06-23T11:24:26Z</time>
      </trkpt>
      <trkpt lat="48.13677" lon="7.06684">
        <ele>1009.61</ele>
        <time>2021-06-23T11:24:29Z</time>
      </trkpt>
      <trkpt lat="48.13673" lon="7.06688">
        <ele>1010.44</ele>
        <time>2021-06-23T11:24:31Z</time>
      </trkpt>
      <trkpt lat="48.13666" lon="7.0669">
        <ele>1012.92</ele>
        <time>2021-06-23T11:24:34Z</time>
      </trkpt>
      <trkpt lat="48.13662" lon="7.06688">
        <ele>1014.7</ele>
        <time>2021-06-23T11:24:37Z</time>
      </trkpt>
      <trkpt lat="48.13659" lon="7.06682">
        <ele>1016.17</ele>
        <time>2021-06-23T11:24:39Z</time>
      </trkpt>
      <trkpt lat="48.13657" lon="7.06661">
        <ele>1018.84</ele>
        <time>2021-06-23T11:24:42Z</time>
      </trkpt>
      <trkpt lat="48.13655" lon="7.066">
        <ele>1020.88</ele>
        <time>2021-06-23T11:24:44Z</time>
      </trkpt>
      <trkpt lat="48.13653" lon="7.06583">
        <ele>1020.92</ele>
        <time>2021-06-23T11:24:47Z</time>
      </trkpt>
      <trkpt lat="48.13647" lon="7.06562">
        <ele>1022.1</ele>
        <time>2021-06-23T11:24:50Z</time>
      </trkpt>
      <trkpt lat="48.1364" lon="7.06544">
        <ele>1023.74</ele>
        <time>2021-06-23T11:24:52Z</time>
      </trkpt>
      <trkpt lat="48.13573" lon="7.06461">
        <ele>1029.11</ele>
        <time>2021-06-23T11:24:55Z</time>
      </trkpt>
      <trkpt lat="48.13561" lon="7.06437">
        <ele>1029.51</ele>
        <time>2021-06-23T11:24:58Z</time>
      </trkpt>
      <trkpt lat="48.13543" lon="7.06385">
        <ele>1027.93</ele>
        <time>2021-06-23T11:25:00Z</time>
      </trkpt>
      <trkpt lat="48.13539" lon="7.06379">
        <ele>1027.94</ele>
        <time>2021-06-23T11:25:03Z</time>
      </trkpt>
      <trkpt lat="48.13534" lon="7.06374">
        <ele>1028.7</ele>
        <time>2021-06-23T11:25:05Z</time>
      </trkpt>
      <trkpt lat="48.1353" lon="7.06375">
        <ele>1029.92</ele>
        <time>2021-06-23T11:25:08Z</time>
      </trkpt>
      <trkpt lat="48.13525" lon="7.06376">
        <ele>1031.27</ele>
        <time>2021-06-23T11:25:11Z</time>
      </trkpt>
      <trkpt lat="48.13522" lon="7.0638">
        <ele>1032.67</ele>
        <time>2021-06-23T11:25:13Z</time>
      </trkpt>
      <trkpt lat="48.13521" lon="7.06397">
        <ele>1035.53</ele>
        <time>2021-06-23T11:25:16Z</time>
      </trkpt>
      <trkpt lat="48.13524" lon="7.0641">
        <ele>1036.49</ele>
        <time>2021-06-23T11:25:18Z</time>
      </trkpt>
      <trkpt lat="48.13547" lon="7.06459">
        <ele>1034.39</ele>
        <time>2021-06-23T11:25:21Z</time>
      </trkpt>
      <trkpt lat="48.13551" lon="7.06476">
        <ele>1034.76</ele>
        <time>2021-06-23T11:25:24Z</time>
      </trkpt>
      <trkpt lat="48.13555" lon="7.06522">
        <ele>1038.6</ele>
        <time>2021-06-23T11:25:26Z</time>
      </trkpt>
      <trkpt lat="48.13555" lon="7.06547">
        <ele>1041.14</ele>
        <time>2021-06-23T11:25:29Z</time>
      </trkpt>
      <trkpt lat="48.13554" lon="7.06565">
        <ele>1043.18</ele>
        <time>2021-06-23T11:25:32Z</time>
      </trkpt>
      <trkpt lat="48.1355" lon="7.06586">
        <ele>1045.26</ele>
        <time>2021-06-23T11:25:34Z</time>
      </trkpt>
      <trkpt lat="48.13511" lon="7.06703">
        <ele>1049.13</ele>
        <time>2021-06-23T11:25:37Z</time>
      </trkpt>
      <trkpt lat="48.13504" lon="7.06719">
        <ele>1049.94</ele>
        <time>2021-06-23T11:25:39Z</time>
      </trkpt>
      <trkpt lat="48.13497" lon="7.06732">
        <ele>1050.41</ele>
        <time>2021-06-23T11:25:42Z</time>
      </trkpt>
      <trkpt lat="48.13439" lon="7.06795">
        <ele>1056.54</ele>
        <time>2021-06-23T11:25:45Z</time>
      </trkpt>
      <trkpt lat="48.13424" lon="7.06815">
        <ele>1058.56</ele>
        <time>2021-06-23T11:25:47Z</time>
      </trkpt>
      <trkpt lat="48.13402" lon="7.06849">
        <ele>1060.5</ele>
        <time>2021-06-23T11:25:50Z</time>
      </trkpt>
      <trkpt lat="48.13391" lon="7.06885">
        <ele>1062.39</ele>
        <time>2021-06-23T11:25:52Z</time>
      </trkpt>
      <trkpt lat="48.13365" lon="7.07058">
        <ele>1067.47</ele>
        <time>2021-06-23T11:25:55Z</time>
      </trkpt>
      <trkpt lat="48.13357" lon="7.07128">
        <ele>1070.65</ele>
        <time>2021-06-23T11:25:58Z</time>
      </trkpt>
      <trkpt lat="48.13354" lon="7.0717">
        <ele>1072.87</ele>
        <time>2021-06-23T11:26:00Z</time>
      </trkpt>
      <trkpt lat="48.13357" lon="7.07373">
        <ele>1082.56</ele>
        <time>2021-06-23T11:26:03Z</time>
      </trkpt>
      <trkpt lat="48.13348" lon="7.07453">
        <ele>1094.29</ele>
        <time>2021-06-23T11:26:06Z</time>
      </trkpt>
      <trkpt lat="48.13352" lon="7.07473">
        <ele>1096.8</ele>
        <time>2021-06-23T11:26:08Z</time>
      </trkpt>
      <trkpt lat="48.13384" lon="7.07518">
        <ele>1095.1</ele>
        <time>2021-06-23T11:26:11Z</time>
      </trkpt>
      <trkpt lat="48.13434" lon="7.07627">
        <ele>1100.5</ele>
        <time>2021-06-23T11:26:13Z</time>
      </trkpt>
      <trkpt lat="48.13471" lon="7.07676">
        <ele>1104.69</ele>
        <time>2021-06-23T11:26:16Z</time>
      </trkpt>
      <trkpt lat="48.1356" lon="7.07768">
        <ele>1110.04</ele>
        <time>2021-06-23T11:26:19Z</time>
      </trkpt>
      <trkpt lat="48.13571" lon="7.07783">
        <ele>1110.86</ele>
        <time>2021-06-23T11:26:21Z</time>
      </trkpt>
      <trkpt lat="48.13597" lon="7.07826">
        <ele>1115.56</ele>
        <time>2021-06-23T11:26:24Z</time>
      </trkpt>
      <trkpt lat="48.13614" lon="7.07861">
        <ele>1118.27</ele>
        <time>2021-06-23T11:26:26Z</time>
      </trkpt>
      <trkpt lat="48.13657" lon="7.07995">
        <ele>1124.24</ele>
        <time>2021-06-23T11:26:29Z</time>
      </trkpt>
      <trkpt lat="48.13689" lon="7.08084">
        <ele>1127.56</ele>
        <time>2021-06-23T11:26:32Z</time>
      </trkpt>
      <trkpt lat="48.13699" lon="7.08118">
        <ele>1128.88</ele>
        <time>2021-06-23T11:26:34Z</time>
      </trkpt>
      <trkpt lat="48.13708" lon="7.0816">
        <ele>1131.66</ele>
        <time>2021-06-23T11:26:37Z</time>
      </trkpt>
      <trkpt lat="48.13713" lon="7.08288">
        <ele>1136.32</ele>
        <time>2021-06-23T11:26:40Z</time>
      </trkpt>
      <trkpt lat="48.13722" lon="7.08419">
        <ele>1137.01</ele>
        <time>2021-06-23T11:26:42Z</time>
      </trkpt>
      <trkpt lat="48.13723" lon="7.08533">
        <ele>1140.59</ele>
        <time>2021-06-23T11:26:45Z</time>
      </trkpt>
      <trkpt lat="48.13721" lon="7.08554">
        <ele>1140.35</ele>
        <time>2021-06-23T11:26:47Z</time>
      </trkpt>
      <trkpt lat="48.13706" lon="7.08626">
        <ele>1140.48</ele>
        <time>2021-06-23T11:26:50Z</time>
      </trkpt>
      <trkpt lat="48.13685" lon="7.08693">
        <ele>1143.79</ele>
        <time>2021-06-23T11:26:53Z</time>
      </trkpt>
      <trkpt lat="48.13675" lon="7.08733">
        <ele>1146.03</ele>
        <time>2021-06-23T11:26:55Z</time>
      </trkpt>
      <trkpt lat="48.13654" lon="7.08845">
        <ele>1147</ele>
        <time>2021-06-23T11:26:58Z</time>
      </trkpt>
      <trkpt lat="48.13648" lon="7.08852">
        <ele>1147</ele>
        <time>2021-06-23T11:26:59Z</time>
      </trkpt>
      <trkpt lat="48.13628" lon="7.08856">
        <ele>1147</ele>
        <time>2021-06-23T11:27:01Z</time>
      </trkpt>
      <trkpt lat="48.13617" lon="7.08863">
        <ele>1146.96</ele>
        <time>2021-06-23T11:27:02Z</time>
      </trkpt>
      <trkpt lat="48.13586" lon="7.08895">
        <ele>1144.21</ele>
        <time>2021-06-23T11:27:03Z</time>
      </trkpt>
      <trkpt lat="48.13563" lon="7.0893">
        <ele>1140.48</ele>
        <time>2021-06-23T11:27:05Z</time>
      </trkpt>
      <trkpt lat="48.13549" lon="7.08962">
        <ele>1137.35</ele>
        <time>2021-06-23T11:27:06Z</time>
      </trkpt>
      <trkpt lat="48.13535" lon="7.09003">
        <ele>1133.67</ele>
        <time>2021-06-23T11:27:08Z</time>
      </trkpt>
      <trkpt lat="48.13508" lon="7.0913">
        <ele>1127.36</ele>
        <time>2021-06-23T11:27:09Z</time>
      </trkpt>
      <trkpt lat="48.13496" lon="7.09175">
        <ele>1124.53</ele>
        <time>2021-06-23T11:27:10Z</time>
      </trkpt>
      <trkpt lat="48.13488" lon="7.09194">
        <ele>1121.61</ele>
        <time>2021-06-23T11:27:12Z</time>
      </trkpt>
      <trkpt lat="48.13488" lon="7.09194">
        <ele>1121.61</ele>
        <time>2021-06-23T11:27:12Z</time>
      </trkpt>
      <trkpt lat="48.13472" lon="7.09222">
        <ele>1120.02</ele>
        <time>2021-06-23T11:27:14Z</time>
      </trkpt>
      <trkpt lat="48.13447" lon="7.09254">
        <ele>1117.55</ele>
        <time>2021-06-23T11:27:15Z</time>
      </trkpt>
      <trkpt lat="48.13431" lon="7.09271">
        <ele>1116.29</ele>
        <time>2021-06-23T11:27:17Z</time>
      </trkpt>
      <trkpt lat="48.13421" lon="7.09279">
        <ele>1115.54</ele>
        <time>2021-06-23T11:27:19Z</time>
      </trkpt>
      <trkpt lat="48.13407" lon="7.09286">
        <ele>1113.57</ele>
        <time>2021-06-23T11:27:20Z</time>
      </trkpt>
      <trkpt lat="48.13383" lon="7.09288">
        <ele>1110</ele>
        <time>2021-06-23T11:27:22Z</time>
      </trkpt>
      <trkpt lat="48.1337" lon="7.09284">
        <ele>1108.21</ele>
        <time>2021-06-23T11:27:24Z</time>
      </trkpt>
      <trkpt lat="48.13343" lon="7.09263">
        <ele>1106.12</ele>
        <time>2021-06-23T11:27:26Z</time>
      </trkpt>
      <trkpt lat="48.13323" lon="7.09241">
        <ele>1104.46</ele>
        <time>2021-06-23T11:27:27Z</time>
      </trkpt>
      <trkpt lat="48.13315" lon="7.09235">
        <ele>1103.76</ele>
        <time>2021-06-23T11:27:29Z</time>
      </trkpt>
      <trkpt lat="48.13291" lon="7.09227">
        <ele>1102.94</ele>
        <time>2021-06-23T11:27:31Z</time>
      </trkpt>
      <trkpt lat="48.13221" lon="7.09219">
        <ele>1103.57</ele>
        <time>2021-06-23T11:27:32Z</time>
      </trkpt>
      <trkpt lat="48.13022" lon="7.09179">
        <ele>1099.02</ele>
        <time>2021-06-23T11:27:34Z</time>
      </trkpt>
      <trkpt lat="48.12994" lon="7.09176">
        <ele>1097.6</ele>
        <time>2021-06-23T11:27:36Z</time>
      </trkpt>
      <trkpt lat="48.12968" lon="7.09178">
        <ele>1096.82</ele>
        <time>2021-06-23T11:27:37Z</time>
      </trkpt>
      <trkpt lat="48.12948" lon="7.09182">
        <ele>1095.66</ele>
        <time>2021-06-23T11:27:39Z</time>
      </trkpt>
      <trkpt lat="48.1293" lon="7.09191">
        <ele>1094.87</ele>
        <time>2021-06-23T11:27:41Z</time>
      </trkpt>
      <trkpt lat="48.12903" lon="7.09213">
        <ele>1091.46</ele>
        <time>2021-06-23T11:27:43Z</time>
      </trkpt>
      <trkpt lat="48.1286" lon="7.09256">
        <ele>1086.34</ele>
        <time>2021-06-23T11:27:44Z</time>
      </trkpt>
      <trkpt lat="48.12775" lon="7.09361">
        <ele>1082.84</ele>
        <time>2021-06-23T11:27:46Z</time>
      </trkpt>
      <trkpt lat="48.12712" lon="7.09424">
        <ele>1076.43</ele>
        <time>2021-06-23T11:27:48Z</time>
      </trkpt>
      <trkpt lat="48.12687" lon="7.09444">
        <ele>1073.6</ele>
        <time>2021-06-23T11:27:49Z</time>
      </trkpt>
      <trkpt lat="48.12631" lon="7.09495">
        <ele>1070.38</ele>
        <time>2021-06-23T11:27:51Z</time>
      </trkpt>
      <trkpt lat="48.12608" lon="7.09523">
        <ele>1069.9</ele>
        <time>2021-06-23T11:27:53Z</time>
      </trkpt>
      <trkpt lat="48.12538" lon="7.09623">
        <ele>1056.52</ele>
        <time>2021-06-23T11:27:55Z</time>
      </trkpt>
      <trkpt lat="48.12513" lon="7.09665">
        <ele>1056.44</ele>
        <time>2021-06-23T11:27:56Z</time>
      </trkpt>
      <trkpt lat="48.12493" lon="7.09715">
        <ele>1061.91</ele>
        <time>2021-06-23T11:27:58Z</time>
      </trkpt>
      <trkpt lat="48.12485" lon="7.09729">
        <ele>1063.81</ele>
        <time>2021-06-23T11:28:00Z</time>
      </trkpt>
      <trkpt lat="48.1247" lon="7.09752">
        <ele>1063.28</ele>
        <time>2021-06-23T11:28:01Z</time>
      </trkpt>
      <trkpt lat="48.12451" lon="7.0977">
        <ele>1054.92</ele>
        <time>2021-06-23T11:28:03Z</time>
      </trkpt>
      <trkpt lat="48.12391" lon="7.09815">
        <ele>1043.16</ele>
        <time>2021-06-23T11:28:05Z</time>
      </trkpt>
      <trkpt lat="48.12382" lon="7.09825">
        <ele>1042.55</ele>
        <time>2021-06-23T11:28:06Z</time>
      </trkpt>
      <trkpt lat="48.12377" lon="7.09838">
        <ele>1041.4</ele>
        <time>2021-06-23T11:28:08Z</time>
      </trkpt>
      <trkpt lat="48.1237" lon="7.09862">
        <ele>1038.84</ele>
        <time>2021-06-23T11:28:10Z</time>
      </trkpt>
      <trkpt lat="48.12357" lon="7.09932">
        <ele>1027.17</ele>
        <time>2021-06-23T11:28:12Z</time>
      </trkpt>
      <trkpt lat="48.12345" lon="7.0997">
        <ele>1025.36</ele>
        <time>2021-06-23T11:28:13Z</time>
      </trkpt>
      <trkpt lat="48.12339" lon="7.09982">
        <ele>1026.07</ele>
        <time>2021-06-23T11:28:15Z</time>
      </trkpt>
      <trkpt lat="48.12325" lon="7.0999">
        <ele>1027.11</ele>
        <time>2021-06-23T11:28:17Z</time>
      </trkpt>
      <trkpt lat="48.12306" lon="7.09991">
        <ele>1027.32</ele>
        <time>2021-06-23T11:28:18Z</time>
      </trkpt>
      <trkpt lat="48.12285" lon="7.0998">
        <ele>1026.52</ele>
        <time>2021-06-23T11:28:20Z</time>
      </trkpt>
      <trkpt lat="48.12238" lon="7.09941">
        <ele>1025.01</ele>
        <time>2021-06-23T11:28:22Z</time>
      </trkpt>
      <trkpt lat="48.1222" lon="7.09936">
        <ele>1022.24</ele>
        <time>2021-06-23T11:28:24Z</time>
      </trkpt>
      <trkpt lat="48.12203" lon="7.09939">
        <ele>1021.67</ele>
        <time>2021-06-23T11:28:25Z</time>
      </trkpt>
      <trkpt lat="48.12189" lon="7.09947">
        <ele>1021.73</ele>
        <time>2021-06-23T11:28:27Z</time>
      </trkpt>
      <trkpt lat="48.12176" lon="7.0997">
        <ele>1021.87</ele>
        <time>2021-06-23T11:28:29Z</time>
      </trkpt>
      <trkpt lat="48.12168" lon="7.09993">
        <ele>1021.95</ele>
        <time>2021-06-23T11:28:30Z</time>
      </trkpt>
      <trkpt lat="48.12166" lon="7.1006">
        <ele>1020.41</ele>
        <time>2021-06-23T11:28:32Z</time>
      </trkpt>
      <trkpt lat="48.12175" lon="7.10132">
        <ele>1016.43</ele>
        <time>2021-06-23T11:28:34Z</time>
      </trkpt>
      <trkpt lat="48.12184" lon="7.10167">
        <ele>1014.53</ele>
        <time>2021-06-23T11:28:35Z</time>
      </trkpt>
      <trkpt lat="48.12195" lon="7.102">
        <ele>1014.42</ele>
        <time>2021-06-23T11:28:37Z</time>
      </trkpt>
      <trkpt lat="48.12225" lon="7.10252">
        <ele>1015.82</ele>
        <time>2021-06-23T11:28:39Z</time>
      </trkpt>
      <trkpt lat="48.12262" lon="7.1031">
        <ele>1013.65</ele>
        <time>2021-06-23T11:28:41Z</time>
      </trkpt>
      <trkpt lat="48.12291" lon="7.10371">
        <ele>1009.17</ele>
        <time>2021-06-23T11:28:42Z</time>
      </trkpt>
      <trkpt lat="48.12304" lon="7.10426">
        <ele>1002.92</ele>
        <time>2021-06-23T11:28:44Z</time>
      </trkpt>
      <trkpt lat="48.12298" lon="7.10478">
        <ele>999.39</ele>
        <time>2021-06-23T11:28:46Z</time>
      </trkpt>
      <trkpt lat="48.12281" lon="7.10527">
        <ele>999.62</ele>
        <time>2021-06-23T11:28:47Z</time>
      </trkpt>
      <trkpt lat="48.12248" lon="7.10604">
        <ele>1000.14</ele>
        <time>2021-06-23T11:28:49Z</time>
      </trkpt>
      <trkpt lat="48.12205" lon="7.10689">
        <ele>1005.08</ele>
        <time>2021-06-23T11:28:51Z</time>
      </trkpt>
      <trkpt lat="48.12202" lon="7.10687">
        <ele>1005.82</ele>
        <time>2021-06-23T11:28:54Z</time>
      </trkpt>
      <trkpt lat="48.12196" lon="7.10689">
        <ele>1006.48</ele>
        <time>2021-06-23T11:28:56Z</time>
      </trkpt>
      <trkpt lat="48.12159" lon="7.10758">
        <ele>1006.72</ele>
        <time>2021-06-23T11:28:59Z</time>
      </trkpt>
      <trkpt lat="48.12129" lon="7.10798">
        <ele>1006.27</ele>
        <time>2021-06-23T11:29:02Z</time>
      </trkpt>
      <trkpt lat="48.12114" lon="7.10807">
        <ele>1006.7</ele>
        <time>2021-06-23T11:29:05Z</time>
      </trkpt>
      <trkpt lat="48.12096" lon="7.10808">
        <ele>1007.99</ele>
        <time>2021-06-23T11:29:07Z</time>
      </trkpt>
      <trkpt lat="48.12096" lon="7.10808">
        <ele>1007.99</ele>
        <time>2021-06-23T11:29:07Z</time>
      </trkpt>
      <trkpt lat="48.12092" lon="7.10807">
        <ele>1008.26</ele>
        <time>2021-06-23T11:29:09Z</time>
      </trkpt>
      <trkpt lat="48.12061" lon="7.10787">
        <ele>1009.38</ele>
        <time>2021-06-23T11:29:11Z</time>
      </trkpt>
      <trkpt lat="48.12049" lon="7.10789">
        <ele>1008.69</ele>
        <time>2021-06-23T11:29:13Z</time>
      </trkpt>
      <trkpt lat="48.12014" lon="7.1076">
        <ele>1011.99</ele>
        <time>2021-06-23T11:29:16Z</time>
      </trkpt>
      <trkpt lat="48.11989" lon="7.10731">
        <ele>1015.83</ele>
        <time>2021-06-23T11:29:19Z</time>
      </trkpt>
      <trkpt lat="48.11969" lon="7.10715">
        <ele>1015.09</ele>
        <time>2021-06-23T11:29:22Z</time>
      </trkpt>
      <trkpt lat="48.11946" lon="7.10701">
        <ele>1012.36</ele>
        <time>2021-06-23T11:29:25Z</time>
      </trkpt>
      <trkpt lat="48.11907" lon="7.10683">
        <ele>1006.29</ele>
        <time>2021-06-23T11:29:28Z</time>
      </trkpt>
      <trkpt lat="48.11889" lon="7.10672">
        <ele>1005.68</ele>
        <time>2021-06-23T11:29:31Z</time>
      </trkpt>
      <trkpt lat="48.11843" lon="7.10627">
        <ele>1002.85</ele>
        <time>2021-06-23T11:29:33Z</time>
      </trkpt>
      <trkpt lat="48.11781" lon="7.10571">
        <ele>992.18</ele>
        <time>2021-06-23T11:29:36Z</time>
      </trkpt>
      <trkpt lat="48.1161" lon="7.10396">
        <ele>975.11</ele>
        <time>2021-06-23T11:29:39Z</time>
      </trkpt>
      <trkpt lat="48.11586" lon="7.10375">
        <ele>972.95</ele>
        <time>2021-06-23T11:29:42Z</time>
      </trkpt>
      <trkpt lat="48.11539" lon="7.10346">
        <ele>974.74</ele>
        <time>2021-06-23T11:29:45Z</time>
      </trkpt>
      <trkpt lat="48.11516" lon="7.10336">
        <ele>977.8</ele>
        <time>2021-06-23T11:29:48Z</time>
      </trkpt>
      <trkpt lat="48.11501" lon="7.10335">
        <ele>978.32</ele>
        <time>2021-06-23T11:29:51Z</time>
      </trkpt>
      <trkpt lat="48.1147" lon="7.10344">
        <ele>971.24</ele>
        <time>2021-06-23T11:29:54Z</time>
      </trkpt>
      <trkpt lat="48.11457" lon="7.10346">
        <ele>968.93</ele>
        <time>2021-06-23T11:29:57Z</time>
      </trkpt>
      <trkpt lat="48.11444" lon="7.10343">
        <ele>968.35</ele>
        <time>2021-06-23T11:30:00Z</time>
      </trkpt>
      <trkpt lat="48.11431" lon="7.10338">
        <ele>969.8</ele>
        <time>2021-06-23T11:30:03Z</time>
      </trkpt>
      <trkpt lat="48.11416" lon="7.10327">
        <ele>971.81</ele>
        <time>2021-06-23T11:30:05Z</time>
      </trkpt>
      <trkpt lat="48.11374" lon="7.10288">
        <ele>970.94</ele>
        <time>2021-06-23T11:30:08Z</time>
      </trkpt>
      <trkpt lat="48.11355" lon="7.10266">
        <ele>969.47</ele>
        <time>2021-06-23T11:30:11Z</time>
      </trkpt>
      <trkpt lat="48.11338" lon="7.1024">
        <ele>969.18</ele>
        <time>2021-06-23T11:30:14Z</time>
      </trkpt>
      <trkpt lat="48.11318" lon="7.10202">
        <ele>969.62</ele>
        <time>2021-06-23T11:30:17Z</time>
      </trkpt>
      <trkpt lat="48.11303" lon="7.10165">
        <ele>968.29</ele>
        <time>2021-06-23T11:30:20Z</time>
      </trkpt>
      <trkpt lat="48.11276" lon="7.10064">
        <ele>964.26</ele>
        <time>2021-06-23T11:30:23Z</time>
      </trkpt>
      <trkpt lat="48.1127" lon="7.10032">
        <ele>958.28</ele>
        <time>2021-06-23T11:30:26Z</time>
      </trkpt>
      <trkpt lat="48.11269" lon="7.10008">
        <ele>955.03</ele>
        <time>2021-06-23T11:30:29Z</time>
      </trkpt>
      <trkpt lat="48.11271" lon="7.09993">
        <ele>953.27</ele>
        <time>2021-06-23T11:30:32Z</time>
      </trkpt>
      <trkpt lat="48.11247" lon="7.09996">
        <ele>951.55</ele>
        <time>2021-06-23T11:30:34Z</time>
      </trkpt>
      <trkpt lat="48.11237" lon="7.09997">
        <ele>951.97</ele>
        <time>2021-06-23T11:30:35Z</time>
      </trkpt>
      <trkpt lat="48.11226" lon="7.10001">
        <ele>953.15</ele>
        <time>2021-06-23T11:30:37Z</time>
      </trkpt>
      <trkpt lat="48.11222" lon="7.10006">
        <ele>954.35</ele>
        <time>2021-06-23T11:30:39Z</time>
      </trkpt>
      <trkpt lat="48.11216" lon="7.09992">
        <ele>955.34</ele>
        <time>2021-06-23T11:30:51Z</time>
      </trkpt>
      <trkpt lat="48.11189" lon="7.09957">
        <ele>959.59</ele>
        <time>2021-06-23T11:31:02Z</time>
      </trkpt>
      <trkpt lat="48.11171" lon="7.09922">
        <ele>960.85</ele>
        <time>2021-06-23T11:31:14Z</time>
      </trkpt>
      <trkpt lat="48.11149" lon="7.09866">
        <ele>962.16</ele>
        <time>2021-06-23T11:31:25Z</time>
      </trkpt>
      <trkpt lat="48.11132" lon="7.09826">
        <ele>963.1</ele>
        <time>2021-06-23T11:31:37Z</time>
      </trkpt>
      <trkpt lat="48.11087" lon="7.097">
        <ele>978.46</ele>
        <time>2021-06-23T11:31:49Z</time>
      </trkpt>
      <trkpt lat="48.11078" lon="7.09662">
        <ele>981.65</ele>
        <time>2021-06-23T11:32:00Z</time>
      </trkpt>
      <trkpt lat="48.11075" lon="7.09626">
        <ele>983.53</ele>
        <time>2021-06-23T11:32:12Z</time>
      </trkpt>
      <trkpt lat="48.11079" lon="7.09568">
        <ele>984.16</ele>
        <time>2021-06-23T11:32:23Z</time>
      </trkpt>
      <trkpt lat="48.11079" lon="7.09568">
        <ele>984.16</ele>
        <time>2021-06-23T11:32:23Z</time>
      </trkpt>
      <trkpt lat="48.11075" lon="7.09626">
        <ele>983.53</ele>
        <time>2021-06-23T11:32:35Z</time>
      </trkpt>
      <trkpt lat="48.11078" lon="7.09662">
        <ele>981.65</ele>
        <time>2021-06-23T11:32:46Z</time>
      </trkpt>
      <trkpt lat="48.11087" lon="7.097">
        <ele>978.46</ele>
        <time>2021-06-23T11:32:58Z</time>
      </trkpt>
      <trkpt lat="48.11132" lon="7.09826">
        <ele>963.1</ele>
        <time>2021-06-23T11:33:09Z</time>
      </trkpt>
      <trkpt lat="48.11149" lon="7.09866">
        <ele>962.16</ele>
        <time>2021-06-23T11:33:21Z</time>
      </trkpt>
      <trkpt lat="48.11171" lon="7.09922">
        <ele>960.85</ele>
        <time>2021-06-23T11:33:32Z</time>
      </trkpt>
      <trkpt lat="48.11189" lon="7.09957">
        <ele>959.59</ele>
        <time>2021-06-23T11:33:44Z</time>
      </trkpt>
      <trkpt lat="48.11216" lon="7.09992">
        <ele>955.34</ele>
        <time>2021-06-23T11:33:56Z</time>
      </trkpt>
      <trkpt lat="48.11222" lon="7.10006">
        <ele>954.35</ele>
        <time>2021-06-23T11:34:07Z</time>
      </trkpt>
      <trkpt lat="48.11226" lon="7.10001">
        <ele>953.15</ele>
        <time>2021-06-23T11:34:08Z</time>
      </trkpt>
      <trkpt lat="48.11237" lon="7.09997">
        <ele>951.97</ele>
        <time>2021-06-23T11:34:09Z</time>
      </trkpt>
      <trkpt lat="48.11247" lon="7.09996">
        <ele>951.55</ele>
        <time>2021-06-23T11:34:10Z</time>
      </trkpt>
      <trkpt lat="48.11263" lon="7.10021">
        <ele>955.5</ele>
        <time>2021-06-23T11:34:13Z</time>
      </trkpt>
      <trkpt lat="48.1127" lon="7.10032">
        <ele>958.28</ele>
        <time>2021-06-23T11:34:16Z</time>
      </trkpt>
      <trkpt lat="48.11276" lon="7.10064">
        <ele>964.26</ele>
        <time>2021-06-23T11:34:19Z</time>
      </trkpt>
      <trkpt lat="48.11303" lon="7.10165">
        <ele>968.29</ele>
        <time>2021-06-23T11:34:21Z</time>
      </trkpt>
      <trkpt lat="48.11318" lon="7.10202">
        <ele>969.62</ele>
        <time>2021-06-23T11:34:24Z</time>
      </trkpt>
      <trkpt lat="48.11338" lon="7.1024">
        <ele>969.18</ele>
        <time>2021-06-23T11:34:27Z</time>
      </trkpt>
      <trkpt lat="48.11355" lon="7.10266">
        <ele>969.47</ele>
        <time>2021-06-23T11:34:30Z</time>
      </trkpt>
      <trkpt lat="48.11374" lon="7.10288">
        <ele>970.94</ele>
        <time>2021-06-23T11:34:33Z</time>
      </trkpt>
      <trkpt lat="48.11416" lon="7.10327">
        <ele>971.81</ele>
        <time>2021-06-23T11:34:35Z</time>
      </trkpt>
      <trkpt lat="48.11431" lon="7.10338">
        <ele>969.8</ele>
        <time>2021-06-23T11:34:38Z</time>
      </trkpt>
      <trkpt lat="48.11444" lon="7.10343">
        <ele>968.35</ele>
        <time>2021-06-23T11:34:41Z</time>
      </trkpt>
      <trkpt lat="48.11457" lon="7.10346">
        <ele>968.93</ele>
        <time>2021-06-23T11:34:44Z</time>
      </trkpt>
      <trkpt lat="48.1147" lon="7.10344">
        <ele>971.24</ele>
        <time>2021-06-23T11:34:47Z</time>
      </trkpt>
      <trkpt lat="48.11501" lon="7.10335">
        <ele>978.32</ele>
        <time>2021-06-23T11:34:50Z</time>
      </trkpt>
      <trkpt lat="48.11516" lon="7.10336">
        <ele>977.8</ele>
        <time>2021-06-23T11:34:52Z</time>
      </trkpt>
      <trkpt lat="48.11539" lon="7.10346">
        <ele>974.74</ele>
        <time>2021-06-23T11:34:55Z</time>
      </trkpt>
      <trkpt lat="48.11586" lon="7.10375">
        <ele>972.95</ele>
        <time>2021-06-23T11:34:58Z</time>
      </trkpt>
      <trkpt lat="48.1161" lon="7.10396">
        <ele>975.11</ele>
        <time>2021-06-23T11:35:01Z</time>
      </trkpt>
      <trkpt lat="48.11781" lon="7.10571">
        <ele>992.18</ele>
        <time>2021-06-23T11:35:04Z</time>
      </trkpt>
      <trkpt lat="48.11843" lon="7.10627">
        <ele>1002.85</ele>
        <time>2021-06-23T11:35:06Z</time>
      </trkpt>
      <trkpt lat="48.11889" lon="7.10672">
        <ele>1005.68</ele>
        <time>2021-06-23T11:35:09Z</time>
      </trkpt>
      <trkpt lat="48.11907" lon="7.10683">
        <ele>1006.29</ele>
        <time>2021-06-23T11:35:12Z</time>
      </trkpt>
      <trkpt lat="48.11946" lon="7.10701">
        <ele>1012.36</ele>
        <time>2021-06-23T11:35:15Z</time>
      </trkpt>
      <trkpt lat="48.11969" lon="7.10715">
        <ele>1015.09</ele>
        <time>2021-06-23T11:35:18Z</time>
      </trkpt>
      <trkpt lat="48.11989" lon="7.10731">
        <ele>1015.83</ele>
        <time>2021-06-23T11:35:21Z</time>
      </trkpt>
      <trkpt lat="48.12014" lon="7.1076">
        <ele>1011.99</ele>
        <time>2021-06-23T11:35:23Z</time>
      </trkpt>
      <trkpt lat="48.12049" lon="7.10789">
        <ele>1008.69</ele>
        <time>2021-06-23T11:35:26Z</time>
      </trkpt>
      <trkpt lat="48.12064" lon="7.10807">
        <ele>1008.19</ele>
        <time>2021-06-23T11:35:29Z</time>
      </trkpt>
      <trkpt lat="48.12071" lon="7.10824">
        <ele>1006.57</ele>
        <time>2021-06-23T11:35:32Z</time>
      </trkpt>
      <trkpt lat="48.12086" lon="7.10905">
        <ele>999.99</ele>
        <time>2021-06-23T11:35:35Z</time>
      </trkpt>
      <trkpt lat="48.12091" lon="7.10921">
        <ele>999.53</ele>
        <time>2021-06-23T11:35:37Z</time>
      </trkpt>
      <trkpt lat="48.12114" lon="7.10967">
        <ele>997.29</ele>
        <time>2021-06-23T11:35:40Z</time>
      </trkpt>
      <trkpt lat="48.12119" lon="7.1098">
        <ele>995.39</ele>
        <time>2021-06-23T11:35:43Z</time>
      </trkpt>
      <trkpt lat="48.12137" lon="7.11049">
        <ele>990.73</ele>
        <time>2021-06-23T11:35:46Z</time>
      </trkpt>
      <trkpt lat="48.1211" lon="7.11102">
        <ele>988.47</ele>
        <time>2021-06-23T11:35:47Z</time>
      </trkpt>
      <trkpt lat="48.12099" lon="7.11114">
        <ele>986.67</ele>
        <time>2021-06-23T11:35:49Z</time>
      </trkpt>
      <trkpt lat="48.1205" lon="7.11139">
        <ele>975.22</ele>
        <time>2021-06-23T11:35:51Z</time>
      </trkpt>
      <trkpt lat="48.12033" lon="7.11154">
        <ele>971.94</ele>
        <time>2021-06-23T11:35:52Z</time>
      </trkpt>
      <trkpt lat="48.11975" lon="7.11225">
        <ele>963.04</ele>
        <time>2021-06-23T11:35:54Z</time>
      </trkpt>
      <trkpt lat="48.11967" lon="7.11238">
        <ele>962.72</ele>
        <time>2021-06-23T11:35:55Z</time>
      </trkpt>
      <trkpt lat="48.11962" lon="7.11253">
        <ele>963.03</ele>
        <time>2021-06-23T11:35:57Z</time>
      </trkpt>
      <trkpt lat="48.1196" lon="7.11264">
        <ele>963.17</ele>
        <time>2021-06-23T11:35:58Z</time>
      </trkpt>
      <trkpt lat="48.11959" lon="7.11276">
        <ele>963.66</ele>
        <time>2021-06-23T11:36:00Z</time>
      </trkpt>
      <trkpt lat="48.11961" lon="7.11287">
        <ele>963.3</ele>
        <time>2021-06-23T11:36:01Z</time>
      </trkpt>
      <trkpt lat="48.11968" lon="7.11305">
        <ele>963.06</ele>
        <time>2021-06-23T11:36:03Z</time>
      </trkpt>
      <trkpt lat="48.11985" lon="7.11322">
        <ele>964.17</ele>
        <time>2021-06-23T11:36:04Z</time>
      </trkpt>
      <trkpt lat="48.11998" lon="7.11331">
        <ele>965.22</ele>
        <time>2021-06-23T11:36:06Z</time>
      </trkpt>
      <trkpt lat="48.12087" lon="7.11367">
        <ele>967.23</ele>
        <time>2021-06-23T11:36:07Z</time>
      </trkpt>
      <trkpt lat="48.12109" lon="7.11379">
        <ele>967.31</ele>
        <time>2021-06-23T11:36:09Z</time>
      </trkpt>
      <trkpt lat="48.1224" lon="7.11487">
        <ele>950.48</ele>
        <time>2021-06-23T11:36:11Z</time>
      </trkpt>
      <trkpt lat="48.12256" lon="7.11508">
        <ele>948.05</ele>
        <time>2021-06-23T11:36:12Z</time>
      </trkpt>
      <trkpt lat="48.12265" lon="7.11532">
        <ele>946.49</ele>
        <time>2021-06-23T11:36:14Z</time>
      </trkpt>
      <trkpt lat="48.12287" lon="7.11623">
        <ele>942.03</ele>
        <time>2021-06-23T11:36:15Z</time>
      </trkpt>
      <trkpt lat="48.12294" lon="7.11647">
        <ele>938.84</ele>
        <time>2021-06-23T11:36:17Z</time>
      </trkpt>
      <trkpt lat="48.12322" lon="7.117">
        <ele>926.46</ele>
        <time>2021-06-23T11:36:18Z</time>
      </trkpt>
      <trkpt lat="48.12333" lon="7.11715">
        <ele>924.29</ele>
        <time>2021-06-23T11:36:20Z</time>
      </trkpt>
      <trkpt lat="48.12348" lon="7.11728">
        <ele>922.04</ele>
        <time>2021-06-23T11:36:21Z</time>
      </trkpt>
      <trkpt lat="48.12382" lon="7.1175">
        <ele>921.57</ele>
        <time>2021-06-23T11:36:23Z</time>
      </trkpt>
      <trkpt lat="48.12426" lon="7.11776">
        <ele>922.78</ele>
        <time>2021-06-23T11:36:24Z</time>
      </trkpt>
      <trkpt lat="48.1246" lon="7.1179">
        <ele>919.32</ele>
        <time>2021-06-23T11:36:26Z</time>
      </trkpt>
      <trkpt lat="48.1253" lon="7.11814">
        <ele>910.29</ele>
        <time>2021-06-23T11:36:27Z</time>
      </trkpt>
      <trkpt lat="48.12557" lon="7.11827">
        <ele>904.58</ele>
        <time>2021-06-23T11:36:29Z</time>
      </trkpt>
      <trkpt lat="48.12574" lon="7.11845">
        <ele>901.74</ele>
        <time>2021-06-23T11:36:30Z</time>
      </trkpt>
      <trkpt lat="48.12597" lon="7.11887">
        <ele>898.78</ele>
        <time>2021-06-23T11:36:32Z</time>
      </trkpt>
      <trkpt lat="48.12604" lon="7.11916">
        <ele>900.35</ele>
        <time>2021-06-23T11:36:34Z</time>
      </trkpt>
      <trkpt lat="48.12607" lon="7.11947">
        <ele>899.29</ele>
        <time>2021-06-23T11:36:35Z</time>
      </trkpt>
      <trkpt lat="48.12606" lon="7.11978">
        <ele>897.56</ele>
        <time>2021-06-23T11:36:37Z</time>
      </trkpt>
      <trkpt lat="48.12597" lon="7.12013">
        <ele>896.06</ele>
        <time>2021-06-23T11:36:38Z</time>
      </trkpt>
      <trkpt lat="48.12597" lon="7.12013">
        <ele>896.06</ele>
        <time>2021-06-23T11:36:38Z</time>
      </trkpt>
      <trkpt lat="48.12586" lon="7.1204">
        <ele>896.23</ele>
        <time>2021-06-23T11:36:40Z</time>
      </trkpt>
      <trkpt lat="48.12553" lon="7.12096">
        <ele>891.32</ele>
        <time>2021-06-23T11:36:42Z</time>
      </trkpt>
      <trkpt lat="48.12539" lon="7.12115">
        <ele>887.31</ele>
        <time>2021-06-23T11:36:44Z</time>
      </trkpt>
      <trkpt lat="48.1252" lon="7.12129">
        <ele>885.31</ele>
        <time>2021-06-23T11:36:46Z</time>
      </trkpt>
      <trkpt lat="48.12505" lon="7.12134">
        <ele>884.57</ele>
        <time>2021-06-23T11:36:48Z</time>
      </trkpt>
      <trkpt lat="48.12481" lon="7.12136">
        <ele>883.07</ele>
        <time>2021-06-23T11:36:50Z</time>
      </trkpt>
      <trkpt lat="48.12468" lon="7.12132">
        <ele>882.86</ele>
        <time>2021-06-23T11:36:52Z</time>
      </trkpt>
      <trkpt lat="48.12457" lon="7.12126">
        <ele>883.32</ele>
        <time>2021-06-23T11:36:54Z</time>
      </trkpt>
      <trkpt lat="48.12427" lon="7.12104">
        <ele>883.55</ele>
        <time>2021-06-23T11:36:56Z</time>
      </trkpt>
      <trkpt lat="48.12383" lon="7.12065">
        <ele>884.68</ele>
        <time>2021-06-23T11:36:58Z</time>
      </trkpt>
      <trkpt lat="48.12353" lon="7.12019">
        <ele>881.76</ele>
        <time>2021-06-23T11:37:00Z</time>
      </trkpt>
      <trkpt lat="48.12327" lon="7.11974">
        <ele>878.69</ele>
        <time>2021-06-23T11:37:02Z</time>
      </trkpt>
      <trkpt lat="48.12281" lon="7.11879">
        <ele>868.35</ele>
        <time>2021-06-23T11:37:04Z</time>
      </trkpt>
      <trkpt lat="48.12269" lon="7.11863">
        <ele>868.47</ele>
        <time>2021-06-23T11:37:06Z</time>
      </trkpt>
      <trkpt lat="48.1225" lon="7.11849">
        <ele>867.3</ele>
        <time>2021-06-23T11:37:08Z</time>
      </trkpt>
      <trkpt lat="48.12192" lon="7.1182">
        <ele>860.66</ele>
        <time>2021-06-23T11:37:10Z</time>
      </trkpt>
      <trkpt lat="48.12157" lon="7.11807">
        <ele>857.49</ele>
        <time>2021-06-23T11:37:12Z</time>
      </trkpt>
      <trkpt lat="48.12129" lon="7.11788">
        <ele>855.69</ele>
        <time>2021-06-23T11:37:14Z</time>
      </trkpt>
      <trkpt lat="48.12051" lon="7.11722">
        <ele>851.38</ele>
        <time>2021-06-23T11:37:16Z</time>
      </trkpt>
      <trkpt lat="48.11993" lon="7.11677">
        <ele>853.52</ele>
        <time>2021-06-23T11:37:18Z</time>
      </trkpt>
      <trkpt lat="48.11979" lon="7.11669">
        <ele>852.91</ele>
        <time>2021-06-23T11:37:20Z</time>
      </trkpt>
      <trkpt lat="48.11917" lon="7.11651">
        <ele>847.1</ele>
        <time>2021-06-23T11:37:22Z</time>
      </trkpt>
      <trkpt lat="48.11841" lon="7.11648">
        <ele>834.36</ele>
        <time>2021-06-23T11:37:24Z</time>
      </trkpt>
      <trkpt lat="48.11783" lon="7.11629">
        <ele>830.97</ele>
        <time>2021-06-23T11:37:26Z</time>
      </trkpt>
      <trkpt lat="48.11748" lon="7.11614">
        <ele>827.14</ele>
        <time>2021-06-23T11:37:28Z</time>
      </trkpt>
      <trkpt lat="48.11711" lon="7.11587">
        <ele>823.79</ele>
        <time>2021-06-23T11:37:30Z</time>
      </trkpt>
      <trkpt lat="48.11684" lon="7.1156">
        <ele>821.52</ele>
        <time>2021-06-23T11:37:32Z</time>
      </trkpt>
      <trkpt lat="48.11648" lon="7.11511">
        <ele>818.42</ele>
        <time>2021-06-23T11:37:34Z</time>
      </trkpt>
      <trkpt lat="48.11583" lon="7.11397">
        <ele>813.07</ele>
        <time>2021-06-23T11:37:36Z</time>
      </trkpt>
      <trkpt lat="48.11527" lon="7.11263">
        <ele>802.39</ele>
        <time>2021-06-23T11:37:38Z</time>
      </trkpt>
      <trkpt lat="48.11516" lon="7.11244">
        <ele>799.89</ele>
        <time>2021-06-23T11:37:40Z</time>
      </trkpt>
      <trkpt lat="48.11507" lon="7.11234">
        <ele>798.24</ele>
        <time>2021-06-23T11:37:42Z</time>
      </trkpt>
      <trkpt lat="48.11494" lon="7.11224">
        <ele>796.95</ele>
        <time>2021-06-23T11:37:44Z</time>
      </trkpt>
      <trkpt lat="48.11472" lon="7.11213">
        <ele>796.74</ele>
        <time>2021-06-23T11:37:46Z</time>
      </trkpt>
      <trkpt lat="48.11368" lon="7.11165">
        <ele>794.2</ele>
        <time>2021-06-23T11:37:48Z</time>
      </trkpt>
      <trkpt lat="48.11339" lon="7.11156">
        <ele>789.74</ele>
        <time>2021-06-23T11:37:50Z</time>
      </trkpt>
      <trkpt lat="48.11326" lon="7.11157">
        <ele>787.81</ele>
        <time>2021-06-23T11:37:51Z</time>
      </trkpt>
      <trkpt lat="48.11307" lon="7.11165">
        <ele>786.59</ele>
        <time>2021-06-23T11:37:53Z</time>
      </trkpt>
      <trkpt lat="48.11307" lon="7.11165">
        <ele>786.59</ele>
        <time>2021-06-23T11:37:53Z</time>
      </trkpt>
      <trkpt lat="48.11299" lon="7.11169">
        <ele>785.37</ele>
        <time>2021-06-23T11:37:57Z</time>
      </trkpt>
      <trkpt lat="48.11287" lon="7.11178">
        <ele>785.39</ele>
        <time>2021-06-23T11:38:00Z</time>
      </trkpt>
      <trkpt lat="48.11275" lon="7.11192">
        <ele>784.49</ele>
        <time>2021-06-23T11:38:04Z</time>
      </trkpt>
      <trkpt lat="48.11221" lon="7.11308">
        <ele>776.99</ele>
        <time>2021-06-23T11:38:07Z</time>
      </trkpt>
      <trkpt lat="48.11197" lon="7.11342">
        <ele>776.93</ele>
        <time>2021-06-23T11:38:11Z</time>
      </trkpt>
      <trkpt lat="48.11182" lon="7.11357">
        <ele>775.38</ele>
        <time>2021-06-23T11:38:14Z</time>
      </trkpt>
      <trkpt lat="48.11165" lon="7.11367">
        <ele>774.15</ele>
        <time>2021-06-23T11:38:18Z</time>
      </trkpt>
      <trkpt lat="48.11101" lon="7.11395">
        <ele>767.09</ele>
        <time>2021-06-23T11:38:21Z</time>
      </trkpt>
      <trkpt lat="48.11089" lon="7.11377">
        <ele>766.74</ele>
        <time>2021-06-23T11:38:23Z</time>
      </trkpt>
      <trkpt lat="48.11075" lon="7.11373">
        <ele>766.91</ele>
        <time>2021-06-23T11:38:25Z</time>
      </trkpt>
      <trkpt lat="48.11066" lon="7.11372">
        <ele>767.27</ele>
        <time>2021-06-23T11:38:27Z</time>
      </trkpt>
      <trkpt lat="48.11023" lon="7.11386">
        <ele>767.19</ele>
        <time>2021-06-23T11:38:30Z</time>
      </trkpt>
      <trkpt lat="48.11008" lon="7.11388">
        <ele>767.05</ele>
        <time>2021-06-23T11:38:32Z</time>
      </trkpt>
      <trkpt lat="48.1098" lon="7.11381">
        <ele>767.07</ele>
        <time>2021-06-23T11:38:34Z</time>
      </trkpt>
      <trkpt lat="48.10942" lon="7.11357">
        <ele>768.37</ele>
        <time>2021-06-23T11:38:36Z</time>
      </trkpt>
      <trkpt lat="48.10932" lon="7.11353">
        <ele>769.18</ele>
        <time>2021-06-23T11:38:38Z</time>
      </trkpt>
      <trkpt lat="48.10924" lon="7.11353">
        <ele>769.78</ele>
        <time>2021-06-23T11:38:40Z</time>
      </trkpt>
      <trkpt lat="48.10915" lon="7.11359">
        <ele>770.27</ele>
        <time>2021-06-23T11:38:42Z</time>
      </trkpt>
      <trkpt lat="48.10908" lon="7.11375">
        <ele>770.47</ele>
        <time>2021-06-23T11:38:45Z</time>
      </trkpt>
      <trkpt lat="48.10905" lon="7.1142">
        <ele>770.81</ele>
        <time>2021-06-23T11:38:47Z</time>
      </trkpt>
      <trkpt lat="48.109" lon="7.11655">
        <ele>773.14</ele>
        <time>2021-06-23T11:38:49Z</time>
      </trkpt>
      <trkpt lat="48.10905" lon="7.11757">
        <ele>770.47</ele>
        <time>2021-06-23T11:38:51Z</time>
      </trkpt>
      <trkpt lat="48.10901" lon="7.11782">
        <ele>769.95</ele>
        <time>2021-06-23T11:38:53Z</time>
      </trkpt>
      <trkpt lat="48.1089" lon="7.11806">
        <ele>768.89</ele>
        <time>2021-06-23T11:38:55Z</time>
      </trkpt>
      <trkpt lat="48.10882" lon="7.11811">
        <ele>768.31</ele>
        <time>2021-06-23T11:38:57Z</time>
      </trkpt>
      <trkpt lat="48.10872" lon="7.11812">
        <ele>768.19</ele>
        <time>2021-06-23T11:38:59Z</time>
      </trkpt>
      <trkpt lat="48.10834" lon="7.11803">
        <ele>771.37</ele>
        <time>2021-06-23T11:39:02Z</time>
      </trkpt>
      <trkpt lat="48.10817" lon="7.11807">
        <ele>772.33</ele>
        <time>2021-06-23T11:39:04Z</time>
      </trkpt>
      <trkpt lat="48.10777" lon="7.1183">
        <ele>772.03</ele>
        <time>2021-06-23T11:39:06Z</time>
      </trkpt>
      <trkpt lat="48.10717" lon="7.11856">
        <ele>770.93</ele>
        <time>2021-06-23T11:39:08Z</time>
      </trkpt>
      <trkpt lat="48.10706" lon="7.11867">
        <ele>769.66</ele>
        <time>2021-06-23T11:39:10Z</time>
      </trkpt>
      <trkpt lat="48.10691" lon="7.11891">
        <ele>767.78</ele>
        <time>2021-06-23T11:39:12Z</time>
      </trkpt>
      <trkpt lat="48.10684" lon="7.11906">
        <ele>768.39</ele>
        <time>2021-06-23T11:39:14Z</time>
      </trkpt>
      <trkpt lat="48.10679" lon="7.11924">
        <ele>768.53</ele>
        <time>2021-06-23T11:39:17Z</time>
      </trkpt>
      <trkpt lat="48.10673" lon="7.11966">
        <ele>768.09</ele>
        <time>2021-06-23T11:39:19Z</time>
      </trkpt>
      <trkpt lat="48.1067" lon="7.11973">
        <ele>768.23</ele>
        <time>2021-06-23T11:39:21Z</time>
      </trkpt>
      <trkpt lat="48.10666" lon="7.11975">
        <ele>768.75</ele>
        <time>2021-06-23T11:39:23Z</time>
      </trkpt>
      <trkpt lat="48.106" lon="7.11986">
        <ele>771.73</ele>
        <time>2021-06-23T11:39:25Z</time>
      </trkpt>
      <trkpt lat="48.10587" lon="7.11992">
        <ele>771.97</ele>
        <time>2021-06-23T11:39:27Z</time>
      </trkpt>
      <trkpt lat="48.10582" lon="7.11999">
        <ele>771.37</ele>
        <time>2021-06-23T11:39:29Z</time>
      </trkpt>
      <trkpt lat="48.10579" lon="7.12009">
        <ele>770.73</ele>
        <time>2021-06-23T11:39:31Z</time>
      </trkpt>
      <trkpt lat="48.10578" lon="7.1202">
        <ele>769.55</ele>
        <time>2021-06-23T11:39:34Z</time>
      </trkpt>
      <trkpt lat="48.10587" lon="7.12224">
        <ele>780.27</ele>
        <time>2021-06-23T11:39:36Z</time>
      </trkpt>
      <trkpt lat="48.10585" lon="7.12238">
        <ele>781.28</ele>
        <time>2021-06-23T11:39:38Z</time>
      </trkpt>
      <trkpt lat="48.10582" lon="7.12252">
        <ele>781.89</ele>
        <time>2021-06-23T11:39:40Z</time>
      </trkpt>
      <trkpt lat="48.10577" lon="7.12261">
        <ele>781.51</ele>
        <time>2021-06-23T11:39:42Z</time>
      </trkpt>
      <trkpt lat="48.10489" lon="7.1234">
        <ele>781.06</ele>
        <time>2021-06-23T11:39:44Z</time>
      </trkpt>
      <trkpt lat="48.10443" lon="7.12375">
        <ele>784.66</ele>
        <time>2021-06-23T11:39:46Z</time>
      </trkpt>
      <trkpt lat="48.10426" lon="7.12382">
        <ele>787.65</ele>
        <time>2021-06-23T11:39:48Z</time>
      </trkpt>
      <trkpt lat="48.10366" lon="7.12392">
        <ele>791.6</ele>
        <time>2021-06-23T11:39:49Z</time>
      </trkpt>
      <trkpt lat="48.10344" lon="7.12404">
        <ele>790.65</ele>
        <time>2021-06-23T11:39:51Z</time>
      </trkpt>
      <trkpt lat="48.103" lon="7.12448">
        <ele>790.33</ele>
        <time>2021-06-23T11:39:53Z</time>
      </trkpt>
      <trkpt lat="48.10258" lon="7.12499">
        <ele>794.81</ele>
        <time>2021-06-23T11:39:55Z</time>
      </trkpt>
      <trkpt lat="48.10247" lon="7.12518">
        <ele>796.06</ele>
        <time>2021-06-23T11:39:56Z</time>
      </trkpt>
      <trkpt lat="48.10231" lon="7.12552">
        <ele>798.76</ele>
        <time>2021-06-23T11:39:58Z</time>
      </trkpt>
      <trkpt lat="48.10211" lon="7.12603">
        <ele>805.83</ele>
        <time>2021-06-23T11:40:00Z</time>
      </trkpt>
      <trkpt lat="48.10196" lon="7.12677">
        <ele>805.8</ele>
        <time>2021-06-23T11:40:02Z</time>
      </trkpt>
      <trkpt lat="48.10176" lon="7.12758">
        <ele>810.84</ele>
        <time>2021-06-23T11:40:04Z</time>
      </trkpt>
      <trkpt lat="48.10134" lon="7.12888">
        <ele>817.23</ele>
        <time>2021-06-23T11:40:05Z</time>
      </trkpt>
      <trkpt lat="48.10122" lon="7.12909">
        <ele>816.07</ele>
        <time>2021-06-23T11:40:07Z</time>
      </trkpt>
      <trkpt lat="48.10104" lon="7.12926">
        <ele>815.98</ele>
        <time>2021-06-23T11:40:09Z</time>
      </trkpt>
      <trkpt lat="48.10075" lon="7.12939">
        <ele>818.17</ele>
        <time>2021-06-23T11:40:11Z</time>
      </trkpt>
      <trkpt lat="48.10036" lon="7.12945">
        <ele>822.77</ele>
        <time>2021-06-23T11:40:12Z</time>
      </trkpt>
      <trkpt lat="48.10025" lon="7.1295">
        <ele>822.41</ele>
        <time>2021-06-23T11:40:14Z</time>
      </trkpt>
      <trkpt lat="48.10009" lon="7.12966">
        <ele>819.62</ele>
        <time>2021-06-23T11:40:16Z</time>
      </trkpt>
      <trkpt lat="48.09993" lon="7.12973">
        <ele>819.53</ele>
        <time>2021-06-23T11:40:18Z</time>
      </trkpt>
      <trkpt lat="48.09982" lon="7.12974">
        <ele>820.54</ele>
        <time>2021-06-23T11:40:20Z</time>
      </trkpt>
      <trkpt lat="48.09952" lon="7.12966">
        <ele>821.27</ele>
        <time>2021-06-23T11:40:21Z</time>
      </trkpt>
      <trkpt lat="48.09952" lon="7.12966">
        <ele>821.27</ele>
        <time>2021-06-23T11:40:21Z</time>
      </trkpt>
      <trkpt lat="48.0994" lon="7.12963">
        <ele>821.99</ele>
        <time>2021-06-23T11:40:23Z</time>
      </trkpt>
      <trkpt lat="48.09924" lon="7.12954">
        <ele>821.23</ele>
        <time>2021-06-23T11:40:25Z</time>
      </trkpt>
      <trkpt lat="48.09904" lon="7.12937">
        <ele>820.62</ele>
        <time>2021-06-23T11:40:27Z</time>
      </trkpt>
      <trkpt lat="48.09889" lon="7.12915">
        <ele>821.21</ele>
        <time>2021-06-23T11:40:29Z</time>
      </trkpt>
      <trkpt lat="48.09844" lon="7.12814">
        <ele>826.14</ele>
        <time>2021-06-23T11:40:31Z</time>
      </trkpt>
      <trkpt lat="48.09813" lon="7.12708">
        <ele>830.41</ele>
        <time>2021-06-23T11:40:33Z</time>
      </trkpt>
      <trkpt lat="48.09781" lon="7.12646">
        <ele>833.71</ele>
        <time>2021-06-23T11:40:35Z</time>
      </trkpt>
      <trkpt lat="48.09707" lon="7.12463">
        <ele>837.71</ele>
        <time>2021-06-23T11:40:37Z</time>
      </trkpt>
      <trkpt lat="48.09673" lon="7.12399">
        <ele>837.26</ele>
        <time>2021-06-23T11:40:38Z</time>
      </trkpt>
      <trkpt lat="48.09663" lon="7.12371">
        <ele>837.84</ele>
        <time>2021-06-23T11:40:40Z</time>
      </trkpt>
      <trkpt lat="48.09654" lon="7.12337">
        <ele>837.96</ele>
        <time>2021-06-23T11:40:42Z</time>
      </trkpt>
      <trkpt lat="48.0963" lon="7.12242">
        <ele>835.09</ele>
        <time>2021-06-23T11:40:44Z</time>
      </trkpt>
      <trkpt lat="48.0955" lon="7.11851">
        <ele>840.29</ele>
        <time>2021-06-23T11:40:46Z</time>
      </trkpt>
      <trkpt lat="48.09544" lon="7.11831">
        <ele>841.91</ele>
        <time>2021-06-23T11:40:48Z</time>
      </trkpt>
      <trkpt lat="48.09536" lon="7.11817">
        <ele>844.68</ele>
        <time>2021-06-23T11:40:50Z</time>
      </trkpt>
      <trkpt lat="48.09524" lon="7.11809">
        <ele>848.11</ele>
        <time>2021-06-23T11:40:52Z</time>
      </trkpt>
      <trkpt lat="48.09515" lon="7.11807">
        <ele>851.41</ele>
        <time>2021-06-23T11:40:54Z</time>
      </trkpt>
      <trkpt lat="48.09507" lon="7.11809">
        <ele>853.18</ele>
        <time>2021-06-23T11:40:55Z</time>
      </trkpt>
      <trkpt lat="48.09491" lon="7.11818">
        <ele>856.48</ele>
        <time>2021-06-23T11:40:57Z</time>
      </trkpt>
      <trkpt lat="48.09457" lon="7.11853">
        <ele>862.95</ele>
        <time>2021-06-23T11:40:59Z</time>
      </trkpt>
      <trkpt lat="48.09445" lon="7.11867">
        <ele>865.66</ele>
        <time>2021-06-23T11:41:01Z</time>
      </trkpt>
      <trkpt lat="48.09438" lon="7.11881">
        <ele>865.71</ele>
        <time>2021-06-23T11:41:03Z</time>
      </trkpt>
      <trkpt lat="48.09411" lon="7.11952">
        <ele>864.72</ele>
        <time>2021-06-23T11:41:05Z</time>
      </trkpt>
      <trkpt lat="48.09404" lon="7.11976">
        <ele>863.17</ele>
        <time>2021-06-23T11:41:07Z</time>
      </trkpt>
      <trkpt lat="48.09399" lon="7.12006">
        <ele>860.87</ele>
        <time>2021-06-23T11:41:09Z</time>
      </trkpt>
      <trkpt lat="48.09395" lon="7.12052">
        <ele>858.36</ele>
        <time>2021-06-23T11:41:11Z</time>
      </trkpt>
      <trkpt lat="48.09386" lon="7.12095">
        <ele>858.97</ele>
        <time>2021-06-23T11:41:12Z</time>
      </trkpt>
      <trkpt lat="48.09371" lon="7.12139">
        <ele>863.19</ele>
        <time>2021-06-23T11:41:14Z</time>
      </trkpt>
      <trkpt lat="48.09343" lon="7.12211">
        <ele>863.98</ele>
        <time>2021-06-23T11:41:16Z</time>
      </trkpt>
      <trkpt lat="48.09329" lon="7.12237">
        <ele>864.91</ele>
        <time>2021-06-23T11:41:18Z</time>
      </trkpt>
      <trkpt lat="48.09317" lon="7.12252">
        <ele>866.17</ele>
        <time>2021-06-23T11:41:20Z</time>
      </trkpt>
      <trkpt lat="48.09294" lon="7.12275">
        <ele>866.65</ele>
        <time>2021-06-23T11:41:22Z</time>
      </trkpt>
      <trkpt lat="48.09245" lon="7.12301">
        <ele>865.52</ele>
        <time>2021-06-23T11:41:24Z</time>
      </trkpt>
      <trkpt lat="48.0923" lon="7.12301">
        <ele>865.05</ele>
        <time>2021-06-23T11:41:26Z</time>
      </trkpt>
      <trkpt lat="48.09217" lon="7.12295">
        <ele>865.38</ele>
        <time>2021-06-23T11:41:28Z</time>
      </trkpt>
      <trkpt lat="48.09201" lon="7.12276">
        <ele>866.89</ele>
        <time>2021-06-23T11:41:29Z</time>
      </trkpt>
      <trkpt lat="48.09187" lon="7.12248">
        <ele>867.55</ele>
        <time>2021-06-23T11:41:31Z</time>
      </trkpt>
      <trkpt lat="48.09177" lon="7.12213">
        <ele>867.52</ele>
        <time>2021-06-23T11:41:33Z</time>
      </trkpt>
      <trkpt lat="48.09163" lon="7.12145">
        <ele>868.24</ele>
        <time>2021-06-23T11:41:35Z</time>
      </trkpt>
      <trkpt lat="48.09146" lon="7.12025">
        <ele>871.91</ele>
        <time>2021-06-23T11:41:37Z</time>
      </trkpt>
      <trkpt lat="48.09127" lon="7.11866">
        <ele>885.32</ele>
        <time>2021-06-23T11:41:39Z</time>
      </trkpt>
      <trkpt lat="48.09124" lon="7.1185">
        <ele>888.09</ele>
        <time>2021-06-23T11:41:41Z</time>
      </trkpt>
      <trkpt lat="48.09119" lon="7.11842">
        <ele>889.45</ele>
        <time>2021-06-23T11:41:43Z</time>
      </trkpt>
      <trkpt lat="48.09109" lon="7.11837">
        <ele>890.08</ele>
        <time>2021-06-23T11:41:45Z</time>
      </trkpt>
      <trkpt lat="48.09058" lon="7.11836">
        <ele>886.65</ele>
        <time>2021-06-23T11:41:46Z</time>
      </trkpt>
      <trkpt lat="48.09007" lon="7.11821">
        <ele>885.99</ele>
        <time>2021-06-23T11:41:48Z</time>
      </trkpt>
      <trkpt lat="48.08928" lon="7.11771">
        <ele>890.3</ele>
        <time>2021-06-23T11:41:50Z</time>
      </trkpt>
      <trkpt lat="48.0883" lon="7.11707">
        <ele>887.09</ele>
        <time>2021-06-23T11:41:52Z</time>
      </trkpt>
      <trkpt lat="48.08819" lon="7.11696">
        <ele>887.45</ele>
        <time>2021-06-23T11:41:54Z</time>
      </trkpt>
      <trkpt lat="48.08808" lon="7.11671">
        <ele>887.22</ele>
        <time>2021-06-23T11:41:56Z</time>
      </trkpt>
      <trkpt lat="48.08798" lon="7.11638">
        <ele>887.29</ele>
        <time>2021-06-23T11:41:58Z</time>
      </trkpt>
      <trkpt lat="48.08798" lon="7.11638">
        <ele>887.29</ele>
        <time>2021-06-23T11:41:58Z</time>
      </trkpt>
      <trkpt lat="48.08792" lon="7.11619">
        <ele>887.37</ele>
        <time>2021-06-23T11:41:58Z</time>
      </trkpt>
      <trkpt lat="48.08772" lon="7.11634">
        <ele>886.13</ele>
        <time>2021-06-23T11:42:01Z</time>
      </trkpt>
      <trkpt lat="48.08749" lon="7.11655">
        <ele>888.26</ele>
        <time>2021-06-23T11:42:03Z</time>
      </trkpt>
      <trkpt lat="48.08713" lon="7.117">
        <ele>892.97</ele>
        <time>2021-06-23T11:42:06Z</time>
      </trkpt>
      <trkpt lat="48.08698" lon="7.11726">
        <ele>895.12</ele>
        <time>2021-06-23T11:42:08Z</time>
      </trkpt>
      <trkpt lat="48.08634" lon="7.11856">
        <ele>902.82</ele>
        <time>2021-06-23T11:42:11Z</time>
      </trkpt>
      <trkpt lat="48.08627" lon="7.11878">
        <ele>903.44</ele>
        <time>2021-06-23T11:42:13Z</time>
      </trkpt>
      <trkpt lat="48.08623" lon="7.11902">
        <ele>904.21</ele>
        <time>2021-06-23T11:42:16Z</time>
      </trkpt>
      <trkpt lat="48.08622" lon="7.1192">
        <ele>904.99</ele>
        <time>2021-06-23T11:42:19Z</time>
      </trkpt>
      <trkpt lat="48.08635" lon="7.12045">
        <ele>909.45</ele>
        <time>2021-06-23T11:42:21Z</time>
      </trkpt>
      <trkpt lat="48.08629" lon="7.12111">
        <ele>911.39</ele>
        <time>2021-06-23T11:42:24Z</time>
      </trkpt>
      <trkpt lat="48.08633" lon="7.122">
        <ele>915.37</ele>
        <time>2021-06-23T11:42:26Z</time>
      </trkpt>
      <trkpt lat="48.08629" lon="7.12266">
        <ele>916.4</ele>
        <time>2021-06-23T11:42:29Z</time>
      </trkpt>
      <trkpt lat="48.08626" lon="7.12292">
        <ele>918.09</ele>
        <time>2021-06-23T11:42:31Z</time>
      </trkpt>
      <trkpt lat="48.08616" lon="7.12337">
        <ele>921.98</ele>
        <time>2021-06-23T11:42:34Z</time>
      </trkpt>
      <trkpt lat="48.0861" lon="7.12409">
        <ele>923.6</ele>
        <time>2021-06-23T11:42:36Z</time>
      </trkpt>
      <trkpt lat="48.08595" lon="7.12457">
        <ele>925.41</ele>
        <time>2021-06-23T11:42:39Z</time>
      </trkpt>
      <trkpt lat="48.08586" lon="7.1248">
        <ele>927.17</ele>
        <time>2021-06-23T11:42:41Z</time>
      </trkpt>
      <trkpt lat="48.08576" lon="7.12499">
        <ele>928.08</ele>
        <time>2021-06-23T11:42:44Z</time>
      </trkpt>
      <trkpt lat="48.08557" lon="7.12525">
        <ele>929.12</ele>
        <time>2021-06-23T11:42:46Z</time>
      </trkpt>
      <trkpt lat="48.08532" lon="7.12545">
        <ele>930.7</ele>
        <time>2021-06-23T11:42:49Z</time>
      </trkpt>
      <trkpt lat="48.08425" lon="7.12594">
        <ele>933.27</ele>
        <time>2021-06-23T11:42:51Z</time>
      </trkpt>
      <trkpt lat="48.08361" lon="7.12609">
        <ele>934.24</ele>
        <time>2021-06-23T11:42:54Z</time>
      </trkpt>
      <trkpt lat="48.08351" lon="7.12608">
        <ele>933.92</ele>
        <time>2021-06-23T11:42:56Z</time>
      </trkpt>
      <trkpt lat="48.08333" lon="7.12602">
        <ele>934</ele>
        <time>2021-06-23T11:42:59Z</time>
      </trkpt>
      <trkpt lat="48.08295" lon="7.12573">
        <ele>937.8</ele>
        <time>2021-06-23T11:43:01Z</time>
      </trkpt>
      <trkpt lat="48.08281" lon="7.12565">
        <ele>938.71</ele>
        <time>2021-06-23T11:43:04Z</time>
      </trkpt>
      <trkpt lat="48.08267" lon="7.12562">
        <ele>937.37</ele>
        <time>2021-06-23T11:43:06Z</time>
      </trkpt>
      <trkpt lat="48.08246" lon="7.12567">
        <ele>933.64</ele>
        <time>2021-06-23T11:43:09Z</time>
      </trkpt>
      <trkpt lat="48.08213" lon="7.12594">
        <ele>927.54</ele>
        <time>2021-06-23T11:43:11Z</time>
      </trkpt>
      <trkpt lat="48.082" lon="7.12602">
        <ele>926.9</ele>
        <time>2021-06-23T11:43:14Z</time>
      </trkpt>
      <trkpt lat="48.08191" lon="7.12603">
        <ele>926.98</ele>
        <time>2021-06-23T11:43:16Z</time>
      </trkpt>
      <trkpt lat="48.08097" lon="7.12591">
        <ele>932.74</ele>
        <time>2021-06-23T11:43:19Z</time>
      </trkpt>
      <trkpt lat="48.0808" lon="7.1259">
        <ele>933.29</ele>
        <time>2021-06-23T11:43:21Z</time>
      </trkpt>
      <trkpt lat="48.08068" lon="7.12594">
        <ele>934.36</ele>
        <time>2021-06-23T11:43:24Z</time>
      </trkpt>
      <trkpt lat="48.08062" lon="7.126">
        <ele>935.03</ele>
        <time>2021-06-23T11:43:27Z</time>
      </trkpt>
      <trkpt lat="48.08057" lon="7.12609">
        <ele>935.83</ele>
        <time>2021-06-23T11:43:29Z</time>
      </trkpt>
      <trkpt lat="48.08052" lon="7.12627">
        <ele>936.39</ele>
        <time>2021-06-23T11:43:32Z</time>
      </trkpt>
      <trkpt lat="48.08052" lon="7.1265">
        <ele>936.13</ele>
        <time>2021-06-23T11:43:34Z</time>
      </trkpt>
      <trkpt lat="48.08059" lon="7.127">
        <ele>935.45</ele>
        <time>2021-06-23T11:43:37Z</time>
      </trkpt>
      <trkpt lat="48.0806" lon="7.12739">
        <ele>936.41</ele>
        <time>2021-06-23T11:43:39Z</time>
      </trkpt>
      <trkpt lat="48.08053" lon="7.12811">
        <ele>939.18</ele>
        <time>2021-06-23T11:43:42Z</time>
      </trkpt>
      <trkpt lat="48.08048" lon="7.12841">
        <ele>938.82</ele>
        <time>2021-06-23T11:43:44Z</time>
      </trkpt>
      <trkpt lat="48.0804" lon="7.12864">
        <ele>939.47</ele>
        <time>2021-06-23T11:43:47Z</time>
      </trkpt>
      <trkpt lat="48.08024" lon="7.12891">
        <ele>941.76</ele>
        <time>2021-06-23T11:43:49Z</time>
      </trkpt>
      <trkpt lat="48.07992" lon="7.12939">
        <ele>943.05</ele>
        <time>2021-06-23T11:43:52Z</time>
      </trkpt>
      <trkpt lat="48.07982" lon="7.12968">
        <ele>942.78</ele>
        <time>2021-06-23T11:43:54Z</time>
      </trkpt>
      <trkpt lat="48.07977" lon="7.13023">
        <ele>943.11</ele>
        <time>2021-06-23T11:43:57Z</time>
      </trkpt>
      <trkpt lat="48.0797" lon="7.1307">
        <ele>944.85</ele>
        <time>2021-06-23T11:43:59Z</time>
      </trkpt>
      <trkpt lat="48.07964" lon="7.13092">
        <ele>945.6</ele>
        <time>2021-06-23T11:44:02Z</time>
      </trkpt>
      <trkpt lat="48.07941" lon="7.13158">
        <ele>950.75</ele>
        <time>2021-06-23T11:44:04Z</time>
      </trkpt>
      <trkpt lat="48.07939" lon="7.13185">
        <ele>952.79</ele>
        <time>2021-06-23T11:44:07Z</time>
      </trkpt>
      <trkpt lat="48.07942" lon="7.13215">
        <ele>954.56</ele>
        <time>2021-06-23T11:44:09Z</time>
      </trkpt>
      <trkpt lat="48.07948" lon="7.1323">
        <ele>955.74</ele>
        <time>2021-06-23T11:44:12Z</time>
      </trkpt>
      <trkpt lat="48.08035" lon="7.1339">
        <ele>968.12</ele>
        <time>2021-06-23T11:44:14Z</time>
      </trkpt>
      <trkpt lat="48.08074" lon="7.1344">
        <ele>969.89</ele>
        <time>2021-06-23T11:44:17Z</time>
      </trkpt>
      <trkpt lat="48.08091" lon="7.13467">
        <ele>970.06</ele>
        <time>2021-06-23T11:44:19Z</time>
      </trkpt>
      <trkpt lat="48.08179" lon="7.13647">
        <ele>977.46</ele>
        <time>2021-06-23T11:44:22Z</time>
      </trkpt>
      <trkpt lat="48.08202" lon="7.13714">
        <ele>985.67</ele>
        <time>2021-06-23T11:44:24Z</time>
      </trkpt>
      <trkpt lat="48.08214" lon="7.13738">
        <ele>985.79</ele>
        <time>2021-06-23T11:44:27Z</time>
      </trkpt>
      <trkpt lat="48.08226" lon="7.13761">
        <ele>984.78</ele>
        <time>2021-06-23T11:44:29Z</time>
      </trkpt>
      <trkpt lat="48.08322" lon="7.13912">
        <ele>984.39</ele>
        <time>2021-06-23T11:44:32Z</time>
      </trkpt>
      <trkpt lat="48.08336" lon="7.13936">
        <ele>984.21</ele>
        <time>2021-06-23T11:44:35Z</time>
      </trkpt>
      <trkpt lat="48.08341" lon="7.13949">
        <ele>984.1</ele>
        <time>2021-06-23T11:44:37Z</time>
      </trkpt>
      <trkpt lat="48.08343" lon="7.13966">
        <ele>983.79</ele>
        <time>2021-06-23T11:44:40Z</time>
      </trkpt>
      <trkpt lat="48.08341" lon="7.13979">
        <ele>984.14</ele>
        <time>2021-06-23T11:44:42Z</time>
      </trkpt>
      <trkpt lat="48.08335" lon="7.13992">
        <ele>985.04</ele>
        <time>2021-06-23T11:44:45Z</time>
      </trkpt>
      <trkpt lat="48.08323" lon="7.14002">
        <ele>987.55</ele>
        <time>2021-06-23T11:44:47Z</time>
      </trkpt>
      <trkpt lat="48.08306" lon="7.14002">
        <ele>991.53</ele>
        <time>2021-06-23T11:44:50Z</time>
      </trkpt>
      <trkpt lat="48.08261" lon="7.1399">
        <ele>995.44</ele>
        <time>2021-06-23T11:44:52Z</time>
      </trkpt>
      <trkpt lat="48.08234" lon="7.13987">
        <ele>997.77</ele>
        <time>2021-06-23T11:44:55Z</time>
      </trkpt>
      <trkpt lat="48.08222" lon="7.13988">
        <ele>998.21</ele>
        <time>2021-06-23T11:44:57Z</time>
      </trkpt>
      <trkpt lat="48.08171" lon="7.14001">
        <ele>997.53</ele>
        <time>2021-06-23T11:45:00Z</time>
      </trkpt>
      <trkpt lat="48.08157" lon="7.14008">
        <ele>997.88</ele>
        <time>2021-06-23T11:45:02Z</time>
      </trkpt>
      <trkpt lat="48.08138" lon="7.14022">
        <ele>998.1</ele>
        <time>2021-06-23T11:45:05Z</time>
      </trkpt>
      <trkpt lat="48.08117" lon="7.14043">
        <ele>997.67</ele>
        <time>2021-06-23T11:45:07Z</time>
      </trkpt>
      <trkpt lat="48.08101" lon="7.14064">
        <ele>996.4</ele>
        <time>2021-06-23T11:45:10Z</time>
      </trkpt>
      <trkpt lat="48.08089" lon="7.14084">
        <ele>995.2</ele>
        <time>2021-06-23T11:45:12Z</time>
      </trkpt>
      <trkpt lat="48.08081" lon="7.14107">
        <ele>993.67</ele>
        <time>2021-06-23T11:45:15Z</time>
      </trkpt>
      <trkpt lat="48.08073" lon="7.14136">
        <ele>994.17</ele>
        <time>2021-06-23T11:45:17Z</time>
      </trkpt>
      <trkpt lat="48.08057" lon="7.1422">
        <ele>990.21</ele>
        <time>2021-06-23T11:45:20Z</time>
      </trkpt>
      <trkpt lat="48.08052" lon="7.14235">
        <ele>989.13</ele>
        <time>2021-06-23T11:45:22Z</time>
      </trkpt>
      <trkpt lat="48.08046" lon="7.14248">
        <ele>988.31</ele>
        <time>2021-06-23T11:45:25Z</time>
      </trkpt>
      <trkpt lat="48.08028" lon="7.14268">
        <ele>987.31</ele>
        <time>2021-06-23T11:45:27Z</time>
      </trkpt>
      <trkpt lat="48.08016" lon="7.14276">
        <ele>987.1</ele>
        <time>2021-06-23T11:45:30Z</time>
      </trkpt>
      <trkpt lat="48.07953" lon="7.14303">
        <ele>986.84</ele>
        <time>2021-06-23T11:45:32Z</time>
      </trkpt>
      <trkpt lat="48.0794" lon="7.14316">
        <ele>984.92</ele>
        <time>2021-06-23T11:45:35Z</time>
      </trkpt>
      <trkpt lat="48.07929" lon="7.14336">
        <ele>982.88</ele>
        <time>2021-06-23T11:45:37Z</time>
      </trkpt>
      <trkpt lat="48.07929" lon="7.14336">
        <ele>982.88</ele>
        <time>2021-06-23T11:45:37Z</time>
      </trkpt>
      <trkpt lat="48.07923" lon="7.14353">
        <ele>979.05</ele>
        <time>2021-06-23T11:45:39Z</time>
      </trkpt>
      <trkpt lat="48.07912" lon="7.14356">
        <ele>978.63</ele>
        <time>2021-06-23T11:45:41Z</time>
      </trkpt>
      <trkpt lat="48.07904" lon="7.14353">
        <ele>979.1</ele>
        <time>2021-06-23T11:45:43Z</time>
      </trkpt>
      <trkpt lat="48.07898" lon="7.14346">
        <ele>979.6</ele>
        <time>2021-06-23T11:45:45Z</time>
      </trkpt>
      <trkpt lat="48.07893" lon="7.14335">
        <ele>980.05</ele>
        <time>2021-06-23T11:45:47Z</time>
      </trkpt>
      <trkpt lat="48.07879" lon="7.14298">
        <ele>981.93</ele>
        <time>2021-06-23T11:45:50Z</time>
      </trkpt>
      <trkpt lat="48.07848" lon="7.14176">
        <ele>977.89</ele>
        <time>2021-06-23T11:45:52Z</time>
      </trkpt>
      <trkpt lat="48.07835" lon="7.14136">
        <ele>979.22</ele>
        <time>2021-06-23T11:45:54Z</time>
      </trkpt>
      <trkpt lat="48.07828" lon="7.14119">
        <ele>979.68</ele>
        <time>2021-06-23T11:45:56Z</time>
      </trkpt>
      <trkpt lat="48.07817" lon="7.141">
        <ele>978.85</ele>
        <time>2021-06-23T11:45:58Z</time>
      </trkpt>
      <trkpt lat="48.07806" lon="7.14086">
        <ele>976.93</ele>
        <time>2021-06-23T11:46:01Z</time>
      </trkpt>
      <trkpt lat="48.07739" lon="7.14019">
        <ele>966.81</ele>
        <time>2021-06-23T11:46:03Z</time>
      </trkpt>
      <trkpt lat="48.07731" lon="7.14008">
        <ele>965.83</ele>
        <time>2021-06-23T11:46:05Z</time>
      </trkpt>
      <trkpt lat="48.07724" lon="7.13993">
        <ele>965.7</ele>
        <time>2021-06-23T11:46:07Z</time>
      </trkpt>
      <trkpt lat="48.07713" lon="7.1396">
        <ele>965.86</ele>
        <time>2021-06-23T11:46:09Z</time>
      </trkpt>
      <trkpt lat="48.0771" lon="7.13941">
        <ele>965.6</ele>
        <time>2021-06-23T11:46:12Z</time>
      </trkpt>
      <trkpt lat="48.07709" lon="7.13921">
        <ele>964.47</ele>
        <time>2021-06-23T11:46:14Z</time>
      </trkpt>
      <trkpt lat="48.07722" lon="7.13811">
        <ele>958.42</ele>
        <time>2021-06-23T11:46:16Z</time>
      </trkpt>
      <trkpt lat="48.07724" lon="7.13776">
        <ele>957.59</ele>
        <time>2021-06-23T11:46:18Z</time>
      </trkpt>
      <trkpt lat="48.07721" lon="7.13759">
        <ele>957.26</ele>
        <time>2021-06-23T11:46:21Z</time>
      </trkpt>
      <trkpt lat="48.07713" lon="7.13724">
        <ele>954.46</ele>
        <time>2021-06-23T11:46:23Z</time>
      </trkpt>
      <trkpt lat="48.0769" lon="7.1365">
        <ele>949.55</ele>
        <time>2021-06-23T11:46:25Z</time>
      </trkpt>
      <trkpt lat="48.07681" lon="7.13626">
        <ele>950.07</ele>
        <time>2021-06-23T11:46:27Z</time>
      </trkpt>
      <trkpt lat="48.07668" lon="7.13602">
        <ele>949.97</ele>
        <time>2021-06-23T11:46:29Z</time>
      </trkpt>
      <trkpt lat="48.07617" lon="7.13532">
        <ele>946.72</ele>
        <time>2021-06-23T11:46:32Z</time>
      </trkpt>
      <trkpt lat="48.0758" lon="7.13489">
        <ele>947.96</ele>
        <time>2021-06-23T11:46:34Z</time>
      </trkpt>
      <trkpt lat="48.07569" lon="7.13481">
        <ele>949.05</ele>
        <time>2021-06-23T11:46:36Z</time>
      </trkpt>
      <trkpt lat="48.07558" lon="7.13476">
        <ele>949.57</ele>
        <time>2021-06-23T11:46:38Z</time>
      </trkpt>
      <trkpt lat="48.07535" lon="7.13476">
        <ele>945.32</ele>
        <time>2021-06-23T11:46:40Z</time>
      </trkpt>
      <trkpt lat="48.07523" lon="7.13479">
        <ele>942.46</ele>
        <time>2021-06-23T11:46:43Z</time>
      </trkpt>
      <trkpt lat="48.07512" lon="7.13485">
        <ele>939.77</ele>
        <time>2021-06-23T11:46:45Z</time>
      </trkpt>
      <trkpt lat="48.07475" lon="7.13513">
        <ele>926.9</ele>
        <time>2021-06-23T11:46:47Z</time>
      </trkpt>
      <trkpt lat="48.07466" lon="7.13516">
        <ele>924.82</ele>
        <time>2021-06-23T11:46:49Z</time>
      </trkpt>
      <trkpt lat="48.07457" lon="7.13515">
        <ele>923.38</ele>
        <time>2021-06-23T11:46:51Z</time>
      </trkpt>
      <trkpt lat="48.07449" lon="7.1351">
        <ele>923.42</ele>
        <time>2021-06-23T11:46:54Z</time>
      </trkpt>
      <trkpt lat="48.07438" lon="7.13491">
        <ele>924.48</ele>
        <time>2021-06-23T11:46:56Z</time>
      </trkpt>
      <trkpt lat="48.07409" lon="7.13402">
        <ele>930.9</ele>
        <time>2021-06-23T11:46:58Z</time>
      </trkpt>
      <trkpt lat="48.07398" lon="7.13377">
        <ele>931.79</ele>
        <time>2021-06-23T11:47:00Z</time>
      </trkpt>
      <trkpt lat="48.07375" lon="7.13333">
        <ele>933.47</ele>
        <time>2021-06-23T11:47:02Z</time>
      </trkpt>
      <trkpt lat="48.07354" lon="7.13305">
        <ele>931.34</ele>
        <time>2021-06-23T11:47:05Z</time>
      </trkpt>
      <trkpt lat="48.07327" lon="7.1328">
        <ele>925.96</ele>
        <time>2021-06-23T11:47:07Z</time>
      </trkpt>
      <trkpt lat="48.0727" lon="7.13247">
        <ele>921.47</ele>
        <time>2021-06-23T11:47:09Z</time>
      </trkpt>
      <trkpt lat="48.07257" lon="7.13243">
        <ele>920.25</ele>
        <time>2021-06-23T11:47:11Z</time>
      </trkpt>
      <trkpt lat="48.07227" lon="7.13239">
        <ele>917.56</ele>
        <time>2021-06-23T11:47:13Z</time>
      </trkpt>
      <trkpt lat="48.07159" lon="7.13243">
        <ele>911.56</ele>
        <time>2021-06-23T11:47:16Z</time>
      </trkpt>
      <trkpt lat="48.07071" lon="7.13255">
        <ele>900.86</ele>
        <time>2021-06-23T11:47:18Z</time>
      </trkpt>
      <trkpt lat="48.06946" lon="7.13279">
        <ele>883.71</ele>
        <time>2021-06-23T11:47:20Z</time>
      </trkpt>
      <trkpt lat="48.06889" lon="7.13283">
        <ele>877.83</ele>
        <time>2021-06-23T11:47:22Z</time>
      </trkpt>
      <trkpt lat="48.06877" lon="7.13286">
        <ele>876.28</ele>
        <time>2021-06-23T11:47:25Z</time>
      </trkpt>
      <trkpt lat="48.06853" lon="7.13298">
        <ele>871.71</ele>
        <time>2021-06-23T11:47:27Z</time>
      </trkpt>
      <trkpt lat="48.06811" lon="7.13329">
        <ele>863.32</ele>
        <time>2021-06-23T11:47:29Z</time>
      </trkpt>
      <trkpt lat="48.06788" lon="7.13342">
        <ele>860.46</ele>
        <time>2021-06-23T11:47:31Z</time>
      </trkpt>
      <trkpt lat="48.06782" lon="7.13343">
        <ele>860.05</ele>
        <time>2021-06-23T11:47:33Z</time>
      </trkpt>
      <trkpt lat="48.06756" lon="7.13342">
        <ele>857.46</ele>
        <time>2021-06-23T11:47:36Z</time>
      </trkpt>
      <trkpt lat="48.06741" lon="7.13333">
        <ele>855.23</ele>
        <time>2021-06-23T11:47:38Z</time>
      </trkpt>
      <trkpt lat="48.06734" lon="7.13324">
        <ele>854.47</ele>
        <time>2021-06-23T11:47:40Z</time>
      </trkpt>
      <trkpt lat="48.06727" lon="7.13312">
        <ele>853.84</ele>
        <time>2021-06-23T11:47:42Z</time>
      </trkpt>
      <trkpt lat="48.0672" lon="7.13295">
        <ele>853.58</ele>
        <time>2021-06-23T11:47:44Z</time>
      </trkpt>
      <trkpt lat="48.06713" lon="7.13265">
        <ele>852.68</ele>
        <time>2021-06-23T11:47:47Z</time>
      </trkpt>
      <trkpt lat="48.06702" lon="7.13008">
        <ele>840.39</ele>
        <time>2021-06-23T11:47:49Z</time>
      </trkpt>
      <trkpt lat="48.06703" lon="7.12984">
        <ele>838.49</ele>
        <time>2021-06-23T11:47:51Z</time>
      </trkpt>
      <trkpt lat="48.06706" lon="7.12954">
        <ele>836.32</ele>
        <time>2021-06-23T11:47:53Z</time>
      </trkpt>
      <trkpt lat="48.06718" lon="7.12894">
        <ele>833.27</ele>
        <time>2021-06-23T11:47:55Z</time>
      </trkpt>
      <trkpt lat="48.06742" lon="7.12797">
        <ele>827.19</ele>
        <time>2021-06-23T11:47:58Z</time>
      </trkpt>
      <trkpt lat="48.06747" lon="7.12752">
        <ele>824.3</ele>
        <time>2021-06-23T11:48:00Z</time>
      </trkpt>
      <trkpt lat="48.06747" lon="7.12734">
        <ele>823.65</ele>
        <time>2021-06-23T11:48:02Z</time>
      </trkpt>
      <trkpt lat="48.06745" lon="7.12708">
        <ele>822.75</ele>
        <time>2021-06-23T11:48:04Z</time>
      </trkpt>
      <trkpt lat="48.06741" lon="7.1268">
        <ele>821.07</ele>
        <time>2021-06-23T11:48:06Z</time>
      </trkpt>
      <trkpt lat="48.06686" lon="7.12485">
        <ele>811.72</ele>
        <time>2021-06-23T11:48:09Z</time>
      </trkpt>
      <trkpt lat="48.06675" lon="7.12461">
        <ele>810.05</ele>
        <time>2021-06-23T11:48:11Z</time>
      </trkpt>
      <trkpt lat="48.06668" lon="7.12449">
        <ele>808.68</ele>
        <time>2021-06-23T11:48:13Z</time>
      </trkpt>
      <trkpt lat="48.06658" lon="7.12438">
        <ele>807.03</ele>
        <time>2021-06-23T11:48:15Z</time>
      </trkpt>
      <trkpt lat="48.0665" lon="7.12433">
        <ele>806.14</ele>
        <time>2021-06-23T11:48:17Z</time>
      </trkpt>
      <trkpt lat="48.06631" lon="7.12426">
        <ele>804.44</ele>
        <time>2021-06-23T11:48:20Z</time>
      </trkpt>
      <trkpt lat="48.06613" lon="7.12429">
        <ele>803.93</ele>
        <time>2021-06-23T11:48:22Z</time>
      </trkpt>
      <trkpt lat="48.06595" lon="7.12438">
        <ele>802.35</ele>
        <time>2021-06-23T11:48:24Z</time>
      </trkpt>
      <trkpt lat="48.06577" lon="7.12463">
        <ele>799.57</ele>
        <time>2021-06-23T11:48:26Z</time>
      </trkpt>
      <trkpt lat="48.06571" lon="7.12477">
        <ele>797.51</ele>
        <time>2021-06-23T11:48:29Z</time>
      </trkpt>
      <trkpt lat="48.06567" lon="7.1249">
        <ele>795.62</ele>
        <time>2021-06-23T11:48:31Z</time>
      </trkpt>
      <trkpt lat="48.06564" lon="7.12515">
        <ele>793.89</ele>
        <time>2021-06-23T11:48:33Z</time>
      </trkpt>
      <trkpt lat="48.06565" lon="7.12531">
        <ele>793.63</ele>
        <time>2021-06-23T11:48:35Z</time>
      </trkpt>
      <trkpt lat="48.06573" lon="7.12568">
        <ele>794.21</ele>
        <time>2021-06-23T11:48:37Z</time>
      </trkpt>
      <trkpt lat="48.06589" lon="7.12619">
        <ele>793.56</ele>
        <time>2021-06-23T11:48:40Z</time>
      </trkpt>
      <trkpt lat="48.0661" lon="7.12673">
        <ele>794.67</ele>
        <time>2021-06-23T11:48:42Z</time>
      </trkpt>
      <trkpt lat="48.06654" lon="7.12751">
        <ele>797.35</ele>
        <time>2021-06-23T11:48:44Z</time>
      </trkpt>
      <trkpt lat="48.06655" lon="7.1276">
        <ele>797.58</ele>
        <time>2021-06-23T11:48:46Z</time>
      </trkpt>
      <trkpt lat="48.06654" lon="7.12771">
        <ele>796.99</ele>
        <time>2021-06-23T11:48:48Z</time>
      </trkpt>
      <trkpt lat="48.06638" lon="7.12826">
        <ele>793.31</ele>
        <time>2021-06-23T11:48:51Z</time>
      </trkpt>
      <trkpt lat="48.06634" lon="7.12835">
        <ele>792.49</ele>
        <time>2021-06-23T11:48:53Z</time>
      </trkpt>
      <trkpt lat="48.06571" lon="7.12906">
        <ele>782.43</ele>
        <time>2021-06-23T11:48:55Z</time>
      </trkpt>
      <trkpt lat="48.0655" lon="7.12932">
        <ele>779.89</ele>
        <time>2021-06-23T11:48:57Z</time>
      </trkpt>
      <trkpt lat="48.06539" lon="7.1295">
        <ele>779.51</ele>
        <time>2021-06-23T11:48:59Z</time>
      </trkpt>
      <trkpt lat="48.06533" lon="7.12964">
        <ele>779.81</ele>
        <time>2021-06-23T11:49:02Z</time>
      </trkpt>
      <trkpt lat="48.06523" lon="7.12994">
        <ele>781.45</ele>
        <time>2021-06-23T11:49:04Z</time>
      </trkpt>
      <trkpt lat="48.06491" lon="7.13168">
        <ele>771.61</ele>
        <time>2021-06-23T11:49:06Z</time>
      </trkpt>
      <trkpt lat="48.06488" lon="7.13197">
        <ele>769.86</ele>
        <time>2021-06-23T11:49:08Z</time>
      </trkpt>
      <trkpt lat="48.0649" lon="7.13226">
        <ele>767.56</ele>
        <time>2021-06-23T11:49:10Z</time>
      </trkpt>
      <trkpt lat="48.06497" lon="7.13258">
        <ele>767.68</ele>
        <time>2021-06-23T11:49:13Z</time>
      </trkpt>
      <trkpt lat="48.06517" lon="7.13308">
        <ele>769.54</ele>
        <time>2021-06-23T11:49:15Z</time>
      </trkpt>
      <trkpt lat="48.06521" lon="7.13323">
        <ele>768.19</ele>
        <time>2021-06-23T11:49:17Z</time>
      </trkpt>
      <trkpt lat="48.06528" lon="7.13399">
        <ele>757.93</ele>
        <time>2021-06-23T11:49:19Z</time>
      </trkpt>
      <trkpt lat="48.06528" lon="7.13423">
        <ele>756.62</ele>
        <time>2021-06-23T11:49:21Z</time>
      </trkpt>
      <trkpt lat="48.06525" lon="7.13457">
        <ele>757.29</ele>
        <time>2021-06-23T11:49:24Z</time>
      </trkpt>
      <trkpt lat="48.06518" lon="7.13479">
        <ele>755.45</ele>
        <time>2021-06-23T11:49:26Z</time>
      </trkpt>
      <trkpt lat="48.06486" lon="7.13558">
        <ele>748.71</ele>
        <time>2021-06-23T11:49:28Z</time>
      </trkpt>
      <trkpt lat="48.06476" lon="7.13623">
        <ele>747.52</ele>
        <time>2021-06-23T11:49:30Z</time>
      </trkpt>
      <trkpt lat="48.0647" lon="7.13648">
        <ele>746.9</ele>
        <time>2021-06-23T11:49:33Z</time>
      </trkpt>
      <trkpt lat="48.06463" lon="7.13663">
        <ele>745.88</ele>
        <time>2021-06-23T11:49:35Z</time>
      </trkpt>
      <trkpt lat="48.06454" lon="7.13676">
        <ele>744.49</ele>
        <time>2021-06-23T11:49:37Z</time>
      </trkpt>
      <trkpt lat="48.06441" lon="7.1369">
        <ele>743.05</ele>
        <time>2021-06-23T11:49:39Z</time>
      </trkpt>
      <trkpt lat="48.06427" lon="7.13703">
        <ele>741.92</ele>
        <time>2021-06-23T11:49:41Z</time>
      </trkpt>
      <trkpt lat="48.06395" lon="7.13722">
        <ele>739.33</ele>
        <time>2021-06-23T11:49:44Z</time>
      </trkpt>
      <trkpt lat="48.06368" lon="7.13736">
        <ele>739.11</ele>
        <time>2021-06-23T11:49:46Z</time>
      </trkpt>
      <trkpt lat="48.06357" lon="7.13739">
        <ele>738.37</ele>
        <time>2021-06-23T11:49:48Z</time>
      </trkpt>
      <trkpt lat="48.06313" lon="7.13744">
        <ele>735.63</ele>
        <time>2021-06-23T11:49:50Z</time>
      </trkpt>
      <trkpt lat="48.06271" lon="7.13754">
        <ele>733.07</ele>
        <time>2021-06-23T11:49:52Z</time>
      </trkpt>
      <trkpt lat="48.06231" lon="7.13768">
        <ele>729.53</ele>
        <time>2021-06-23T11:49:55Z</time>
      </trkpt>
      <trkpt lat="48.06208" lon="7.13779">
        <ele>727.06</ele>
        <time>2021-06-23T11:49:57Z</time>
      </trkpt>
      <trkpt lat="48.06178" lon="7.13803">
        <ele>725.99</ele>
        <time>2021-06-23T11:49:59Z</time>
      </trkpt>
      <trkpt lat="48.06164" lon="7.13819">
        <ele>725.24</ele>
        <time>2021-06-23T11:50:01Z</time>
      </trkpt>
      <trkpt lat="48.06151" lon="7.13837">
        <ele>722.66</ele>
        <time>2021-06-23T11:50:03Z</time>
      </trkpt>
      <trkpt lat="48.06143" lon="7.13859">
        <ele>721.2</ele>
        <time>2021-06-23T11:50:06Z</time>
      </trkpt>
      <trkpt lat="48.06142" lon="7.13885">
        <ele>722.69</ele>
        <time>2021-06-23T11:50:08Z</time>
      </trkpt>
      <trkpt lat="48.06151" lon="7.13935">
        <ele>726.35</ele>
        <time>2021-06-23T11:50:10Z</time>
      </trkpt>
      <trkpt lat="48.06149" lon="7.13944">
        <ele>725.41</ele>
        <time>2021-06-23T11:50:12Z</time>
      </trkpt>
      <trkpt lat="48.06147" lon="7.13947">
        <ele>724.21</ele>
        <time>2021-06-23T11:50:14Z</time>
      </trkpt>
      <trkpt lat="48.06143" lon="7.13948">
        <ele>722.45</ele>
        <time>2021-06-23T11:50:17Z</time>
      </trkpt>
      <trkpt lat="48.06138" lon="7.13945">
        <ele>720.64</ele>
        <time>2021-06-23T11:50:19Z</time>
      </trkpt>
      <trkpt lat="48.06137" lon="7.13942">
        <ele>720.11</ele>
        <time>2021-06-23T11:50:21Z</time>
      </trkpt>
      <trkpt lat="48.06133" lon="7.13893">
        <ele>719.01</ele>
        <time>2021-06-23T11:50:23Z</time>
      </trkpt>
      <trkpt lat="48.06093" lon="7.1375">
        <ele>708.38</ele>
        <time>2021-06-23T11:50:26Z</time>
      </trkpt>
      <trkpt lat="48.06069" lon="7.13682">
        <ele>704.38</ele>
        <time>2021-06-23T11:50:28Z</time>
      </trkpt>
      <trkpt lat="48.06058" lon="7.13664">
        <ele>701.6</ele>
        <time>2021-06-23T11:50:30Z</time>
      </trkpt>
      <trkpt lat="48.06046" lon="7.13654">
        <ele>699.08</ele>
        <time>2021-06-23T11:50:32Z</time>
      </trkpt>
      <trkpt lat="48.06018" lon="7.13643">
        <ele>695.4</ele>
        <time>2021-06-23T11:50:34Z</time>
      </trkpt>
      <trkpt lat="48.0601" lon="7.13632">
        <ele>694.58</ele>
        <time>2021-06-23T11:50:37Z</time>
      </trkpt>
      <trkpt lat="48.06003" lon="7.13613">
        <ele>694.41</ele>
        <time>2021-06-23T11:50:39Z</time>
      </trkpt>
      <trkpt lat="48.06002" lon="7.13595">
        <ele>695.38</ele>
        <time>2021-06-23T11:50:41Z</time>
      </trkpt>
      <trkpt lat="48.06005" lon="7.13581">
        <ele>696.12</ele>
        <time>2021-06-23T11:50:43Z</time>
      </trkpt>
      <trkpt lat="48.06011" lon="7.13572">
        <ele>695.56</ele>
        <time>2021-06-23T11:50:45Z</time>
      </trkpt>
      <trkpt lat="48.06034" lon="7.1356">
        <ele>694.75</ele>
        <time>2021-06-23T11:50:48Z</time>
      </trkpt>
      <trkpt lat="48.0604" lon="7.13554">
        <ele>693.43</ele>
        <time>2021-06-23T11:50:50Z</time>
      </trkpt>
      <trkpt lat="48.06043" lon="7.13543">
        <ele>690.52</ele>
        <time>2021-06-23T11:50:52Z</time>
      </trkpt>
      <trkpt lat="48.06041" lon="7.13531">
        <ele>688.31</ele>
        <time>2021-06-23T11:50:54Z</time>
      </trkpt>
      <trkpt lat="48.06035" lon="7.1352">
        <ele>686.08</ele>
        <time>2021-06-23T11:50:56Z</time>
      </trkpt>
      <trkpt lat="48.06029" lon="7.13515">
        <ele>685.07</ele>
        <time>2021-06-23T11:50:59Z</time>
      </trkpt>
      <trkpt lat="48.06017" lon="7.13509">
        <ele>684</ele>
        <time>2021-06-23T11:51:01Z</time>
      </trkpt>
      <trkpt lat="48.05992" lon="7.13504">
        <ele>683.98</ele>
        <time>2021-06-23T11:51:03Z</time>
      </trkpt>
      <trkpt lat="48.05976" lon="7.13507">
        <ele>684.26</ele>
        <time>2021-06-23T11:51:05Z</time>
      </trkpt>
      <trkpt lat="48.05968" lon="7.13513">
        <ele>683.44</ele>
        <time>2021-06-23T11:51:07Z</time>
      </trkpt>
      <trkpt lat="48.05963" lon="7.13521">
        <ele>682.45</ele>
        <time>2021-06-23T11:51:10Z</time>
      </trkpt>
      <trkpt lat="48.05959" lon="7.13535">
        <ele>681.45</ele>
        <time>2021-06-23T11:51:12Z</time>
      </trkpt>
      <trkpt lat="48.05958" lon="7.1355">
        <ele>681.12</ele>
        <time>2021-06-23T11:51:14Z</time>
      </trkpt>
      <trkpt lat="48.05968" lon="7.13606">
        <ele>678.98</ele>
        <time>2021-06-23T11:51:16Z</time>
      </trkpt>
      <trkpt lat="48.05974" lon="7.13627">
        <ele>679.48</ele>
        <time>2021-06-23T11:51:18Z</time>
      </trkpt>
      <trkpt lat="48.06007" lon="7.13712">
        <ele>679.84</ele>
        <time>2021-06-23T11:51:21Z</time>
      </trkpt>
      <trkpt lat="48.06011" lon="7.13732">
        <ele>679.16</ele>
        <time>2021-06-23T11:51:23Z</time>
      </trkpt>
      <trkpt lat="48.06013" lon="7.13773">
        <ele>677.22</ele>
        <time>2021-06-23T11:51:25Z</time>
      </trkpt>
      <trkpt lat="48.06011" lon="7.13785">
        <ele>676</ele>
        <time>2021-06-23T11:51:27Z</time>
      </trkpt>
      <trkpt lat="48.06006" lon="7.13794">
        <ele>673.15</ele>
        <time>2021-06-23T11:51:30Z</time>
      </trkpt>
      <trkpt lat="48.05998" lon="7.13794">
        <ele>670.04</ele>
        <time>2021-06-23T11:51:32Z</time>
      </trkpt>
      <trkpt lat="48.05992" lon="7.13787">
        <ele>668.87</ele>
        <time>2021-06-23T11:51:34Z</time>
      </trkpt>
      <trkpt lat="48.0599" lon="7.1377">
        <ele>669.18</ele>
        <time>2021-06-23T11:51:36Z</time>
      </trkpt>
      <trkpt lat="48.0599" lon="7.13734">
        <ele>672.03</ele>
        <time>2021-06-23T11:51:38Z</time>
      </trkpt>
      <trkpt lat="48.05986" lon="7.13721">
        <ele>672.2</ele>
        <time>2021-06-23T11:51:40Z</time>
      </trkpt>
      <trkpt lat="48.05934" lon="7.13607">
        <ele>663.94</ele>
        <time>2021-06-23T11:51:43Z</time>
      </trkpt>
      <trkpt lat="48.05925" lon="7.1359">
        <ele>662.93</ele>
        <time>2021-06-23T11:51:45Z</time>
      </trkpt>
      <trkpt lat="48.05896" lon="7.13555">
        <ele>658.61</ele>
        <time>2021-06-23T11:51:47Z</time>
      </trkpt>
      <trkpt lat="48.05881" lon="7.13532">
        <ele>656.86</ele>
        <time>2021-06-23T11:51:49Z</time>
      </trkpt>
      <trkpt lat="48.05868" lon="7.13507">
        <ele>655.46</ele>
        <time>2021-06-23T11:51:51Z</time>
      </trkpt>
      <trkpt lat="48.05865" lon="7.13482">
        <ele>655.9</ele>
        <time>2021-06-23T11:51:53Z</time>
      </trkpt>
      <trkpt lat="48.05867" lon="7.13394">
        <ele>652.48</ele>
        <time>2021-06-23T11:51:56Z</time>
      </trkpt>
      <trkpt lat="48.05871" lon="7.13375">
        <ele>650.6</ele>
        <time>2021-06-23T11:51:58Z</time>
      </trkpt>
      <trkpt lat="48.05875" lon="7.13365">
        <ele>649.74</ele>
        <time>2021-06-23T11:52:00Z</time>
      </trkpt>
      <trkpt lat="48.05886" lon="7.13353">
        <ele>648.5</ele>
        <time>2021-06-23T11:52:02Z</time>
      </trkpt>
      <trkpt lat="48.05899" lon="7.13347">
        <ele>646.48</ele>
        <time>2021-06-23T11:52:04Z</time>
      </trkpt>
      <trkpt lat="48.05937" lon="7.13341">
        <ele>640.87</ele>
        <time>2021-06-23T11:52:06Z</time>
      </trkpt>
      <trkpt lat="48.0597" lon="7.13345">
        <ele>639.82</ele>
        <time>2021-06-23T11:52:08Z</time>
      </trkpt>
      <trkpt lat="48.06018" lon="7.13359">
        <ele>638.16</ele>
        <time>2021-06-23T11:52:11Z</time>
      </trkpt>
      <trkpt lat="48.06101" lon="7.13389">
        <ele>640.15</ele>
        <time>2021-06-23T11:52:13Z</time>
      </trkpt>
      <trkpt lat="48.06106" lon="7.13386">
        <ele>638.92</ele>
        <time>2021-06-23T11:52:15Z</time>
      </trkpt>
      <trkpt lat="48.06108" lon="7.1338">
        <ele>637.26</ele>
        <time>2021-06-23T11:52:17Z</time>
      </trkpt>
      <trkpt lat="48.06108" lon="7.13373">
        <ele>635.73</ele>
        <time>2021-06-23T11:52:19Z</time>
      </trkpt>
      <trkpt lat="48.06103" lon="7.13367">
        <ele>634.4</ele>
        <time>2021-06-23T11:52:21Z</time>
      </trkpt>
      <trkpt lat="48.06073" lon="7.13358">
        <ele>632.85</ele>
        <time>2021-06-23T11:52:24Z</time>
      </trkpt>
      <trkpt lat="48.05975" lon="7.13294">
        <ele>623</ele>
        <time>2021-06-23T11:52:26Z</time>
      </trkpt>
      <trkpt lat="48.05924" lon="7.13265">
        <ele>614.39</ele>
        <time>2021-06-23T11:52:28Z</time>
      </trkpt>
      <trkpt lat="48.05809" lon="7.13217">
        <ele>602.99</ele>
        <time>2021-06-23T11:52:30Z</time>
      </trkpt>
      <trkpt lat="48.0579" lon="7.13207">
        <ele>600.83</ele>
        <time>2021-06-23T11:52:32Z</time>
      </trkpt>
      <trkpt lat="48.0569" lon="7.13146">
        <ele>589.7</ele>
        <time>2021-06-23T11:52:34Z</time>
      </trkpt>
      <trkpt lat="48.05679" lon="7.13141">
        <ele>589.11</ele>
        <time>2021-06-23T11:52:37Z</time>
      </trkpt>
      <trkpt lat="48.0567" lon="7.1314">
        <ele>589.18</ele>
        <time>2021-06-23T11:52:39Z</time>
      </trkpt>
      <trkpt lat="48.0557" lon="7.13151">
        <ele>584.59</ele>
        <time>2021-06-23T11:52:41Z</time>
      </trkpt>
      <trkpt lat="48.05557" lon="7.13154">
        <ele>583.22</ele>
        <time>2021-06-23T11:52:43Z</time>
      </trkpt>
      <trkpt lat="48.05546" lon="7.1316">
        <ele>582.51</ele>
        <time>2021-06-23T11:52:45Z</time>
      </trkpt>
      <trkpt lat="48.05536" lon="7.13177">
        <ele>582.2</ele>
        <time>2021-06-23T11:52:47Z</time>
      </trkpt>
      <trkpt lat="48.05533" lon="7.13198">
        <ele>582.51</ele>
        <time>2021-06-23T11:52:50Z</time>
      </trkpt>
      <trkpt lat="48.05534" lon="7.13212">
        <ele>582.7</ele>
        <time>2021-06-23T11:52:52Z</time>
      </trkpt>
      <trkpt lat="48.05543" lon="7.13237">
        <ele>583.63</ele>
        <time>2021-06-23T11:52:54Z</time>
      </trkpt>
      <trkpt lat="48.05542" lon="7.13249">
        <ele>583.62</ele>
        <time>2021-06-23T11:52:56Z</time>
      </trkpt>
      <trkpt lat="48.05541" lon="7.13254">
        <ele>583.16</ele>
        <time>2021-06-23T11:52:58Z</time>
      </trkpt>
      <trkpt lat="48.05536" lon="7.13258">
        <ele>582.18</ele>
        <time>2021-06-23T11:53:00Z</time>
      </trkpt>
      <trkpt lat="48.05528" lon="7.13256">
        <ele>580.86</ele>
        <time>2021-06-23T11:53:03Z</time>
      </trkpt>
      <trkpt lat="48.05523" lon="7.13249">
        <ele>579.75</ele>
        <time>2021-06-23T11:53:05Z</time>
      </trkpt>
      <trkpt lat="48.05498" lon="7.1319">
        <ele>575.29</ele>
        <time>2021-06-23T11:53:07Z</time>
      </trkpt>
      <trkpt lat="48.05492" lon="7.13169">
        <ele>574</ele>
        <time>2021-06-23T11:53:09Z</time>
      </trkpt>
      <trkpt lat="48.0549" lon="7.13143">
        <ele>572.89</ele>
        <time>2021-06-23T11:53:11Z</time>
      </trkpt>
      <trkpt lat="48.05492" lon="7.13117">
        <ele>571.98</ele>
        <time>2021-06-23T11:53:13Z</time>
      </trkpt>
      <trkpt lat="48.05502" lon="7.13089">
        <ele>571.52</ele>
        <time>2021-06-23T11:53:16Z</time>
      </trkpt>
      <trkpt lat="48.05508" lon="7.13077">
        <ele>570.62</ele>
        <time>2021-06-23T11:53:18Z</time>
      </trkpt>
      <trkpt lat="48.05519" lon="7.13063">
        <ele>569.33</ele>
        <time>2021-06-23T11:53:20Z</time>
      </trkpt>
      <trkpt lat="48.05529" lon="7.13053">
        <ele>568.43</ele>
        <time>2021-06-23T11:53:22Z</time>
      </trkpt>
      <trkpt lat="48.05536" lon="7.1305">
        <ele>567.07</ele>
        <time>2021-06-23T11:53:24Z</time>
      </trkpt>
      <trkpt lat="48.05559" lon="7.13045">
        <ele>564.09</ele>
        <time>2021-06-23T11:53:26Z</time>
      </trkpt>
      <trkpt lat="48.05735" lon="7.13028">
        <ele>553.13</ele>
        <time>2021-06-23T11:53:28Z</time>
      </trkpt>
      <trkpt lat="48.05756" lon="7.13033">
        <ele>553.14</ele>
        <time>2021-06-23T11:53:31Z</time>
      </trkpt>
      <trkpt lat="48.05787" lon="7.13044">
        <ele>554.43</ele>
        <time>2021-06-23T11:53:33Z</time>
      </trkpt>
      <trkpt lat="48.05796" lon="7.13044">
        <ele>554.59</ele>
        <time>2021-06-23T11:53:35Z</time>
      </trkpt>
      <trkpt lat="48.05801" lon="7.13041">
        <ele>554.34</ele>
        <time>2021-06-23T11:53:37Z</time>
      </trkpt>
      <trkpt lat="48.05804" lon="7.13033">
        <ele>553.51</ele>
        <time>2021-06-23T11:53:39Z</time>
      </trkpt>
      <trkpt lat="48.05804" lon="7.13025">
        <ele>552.82</ele>
        <time>2021-06-23T11:53:41Z</time>
      </trkpt>
      <trkpt lat="48.058" lon="7.13017">
        <ele>552.3</ele>
        <time>2021-06-23T11:53:44Z</time>
      </trkpt>
      <trkpt lat="48.05786" lon="7.13011">
        <ele>550.86</ele>
        <time>2021-06-23T11:53:46Z</time>
      </trkpt>
      <trkpt lat="48.05691" lon="7.12991">
        <ele>542.72</ele>
        <time>2021-06-23T11:53:48Z</time>
      </trkpt>
      <trkpt lat="48.05665" lon="7.12981">
        <ele>539.56</ele>
        <time>2021-06-23T11:53:50Z</time>
      </trkpt>
      <trkpt lat="48.05617" lon="7.12956">
        <ele>534.19</ele>
        <time>2021-06-23T11:53:52Z</time>
      </trkpt>
      <trkpt lat="48.05595" lon="7.12941">
        <ele>530.66</ele>
        <time>2021-06-23T11:53:54Z</time>
      </trkpt>
      <trkpt lat="48.05576" lon="7.12924">
        <ele>528.01</ele>
        <time>2021-06-23T11:53:57Z</time>
      </trkpt>
      <trkpt lat="48.05524" lon="7.12861">
        <ele>522.72</ele>
        <time>2021-06-23T11:53:59Z</time>
      </trkpt>
      <trkpt lat="48.05498" lon="7.12835">
        <ele>518.62</ele>
        <time>2021-06-23T11:54:01Z</time>
      </trkpt>
      <trkpt lat="48.05476" lon="7.12817">
        <ele>515.44</ele>
        <time>2021-06-23T11:54:03Z</time>
      </trkpt>
      <trkpt lat="48.0545" lon="7.12806">
        <ele>512.99</ele>
        <time>2021-06-23T11:54:05Z</time>
      </trkpt>
      <trkpt lat="48.05413" lon="7.12797">
        <ele>512.64</ele>
        <time>2021-06-23T11:54:07Z</time>
      </trkpt>
      <trkpt lat="48.05376" lon="7.12778">
        <ele>509.87</ele>
        <time>2021-06-23T11:54:10Z</time>
      </trkpt>
      <trkpt lat="48.0534" lon="7.12749">
        <ele>509.83</ele>
        <time>2021-06-23T11:54:12Z</time>
      </trkpt>
      <trkpt lat="48.05336" lon="7.12742">
        <ele>509.36</ele>
        <time>2021-06-23T11:54:14Z</time>
      </trkpt>
      <trkpt lat="48.05336" lon="7.12732">
        <ele>507.37</ele>
        <time>2021-06-23T11:54:16Z</time>
      </trkpt>
      <trkpt lat="48.0534" lon="7.12724">
        <ele>504.62</ele>
        <time>2021-06-23T11:54:18Z</time>
      </trkpt>
      <trkpt lat="48.05348" lon="7.12724">
        <ele>502.61</ele>
        <time>2021-06-23T11:54:20Z</time>
      </trkpt>
      <trkpt lat="48.05376" lon="7.12751">
        <ele>502.64</ele>
        <time>2021-06-23T11:54:23Z</time>
      </trkpt>
      <trkpt lat="48.05393" lon="7.12757">
        <ele>502.48</ele>
        <time>2021-06-23T11:54:25Z</time>
      </trkpt>
      <trkpt lat="48.05398" lon="7.12757">
        <ele>502.13</ele>
        <time>2021-06-23T11:54:27Z</time>
      </trkpt>
      <trkpt lat="48.05455" lon="7.12735">
        <ele>495.53</ele>
        <time>2021-06-23T11:54:29Z</time>
      </trkpt>
      <trkpt lat="48.05471" lon="7.12733">
        <ele>495.55</ele>
        <time>2021-06-23T11:54:31Z</time>
      </trkpt>
      <trkpt lat="48.0549" lon="7.12734">
        <ele>498.13</ele>
        <time>2021-06-23T11:54:33Z</time>
      </trkpt>
      <trkpt lat="48.05494" lon="7.12732">
        <ele>498.46</ele>
        <time>2021-06-23T11:54:36Z</time>
      </trkpt>
      <trkpt lat="48.05496" lon="7.12726">
        <ele>498.45</ele>
        <time>2021-06-23T11:54:38Z</time>
      </trkpt>
      <trkpt lat="48.05495" lon="7.12717">
        <ele>497.82</ele>
        <time>2021-06-23T11:54:40Z</time>
      </trkpt>
      <trkpt lat="48.05489" lon="7.12703">
        <ele>495.76</ele>
        <time>2021-06-23T11:54:42Z</time>
      </trkpt>
      <trkpt lat="48.05464" lon="7.12666">
        <ele>490.12</ele>
        <time>2021-06-23T11:54:44Z</time>
      </trkpt>
      <trkpt lat="48.05452" lon="7.1264">
        <ele>490.45</ele>
        <time>2021-06-23T11:54:46Z</time>
      </trkpt>
      <trkpt lat="48.05447" lon="7.12618">
        <ele>490.96</ele>
        <time>2021-06-23T11:54:48Z</time>
      </trkpt>
      <trkpt lat="48.05442" lon="7.12564">
        <ele>487.88</ele>
        <time>2021-06-23T11:54:51Z</time>
      </trkpt>
      <trkpt lat="48.05441" lon="7.12529">
        <ele>488.23</ele>
        <time>2021-06-23T11:54:53Z</time>
      </trkpt>
      <trkpt lat="48.05437" lon="7.12518">
        <ele>488.17</ele>
        <time>2021-06-23T11:54:55Z</time>
      </trkpt>
      <trkpt lat="48.05424" lon="7.12496">
        <ele>486.84</ele>
        <time>2021-06-23T11:54:57Z</time>
      </trkpt>
      <trkpt lat="48.05406" lon="7.1247">
        <ele>485.53</ele>
        <time>2021-06-23T11:54:59Z</time>
      </trkpt>
      <trkpt lat="48.05379" lon="7.1244">
        <ele>481.24</ele>
        <time>2021-06-23T11:55:01Z</time>
      </trkpt>
      <trkpt lat="48.05377" lon="7.12434">
        <ele>479.99</ele>
        <time>2021-06-23T11:55:04Z</time>
      </trkpt>
      <trkpt lat="48.05375" lon="7.12424">
        <ele>478.74</ele>
        <time>2021-06-23T11:55:06Z</time>
      </trkpt>
      <trkpt lat="48.05377" lon="7.12406">
        <ele>477.49</ele>
        <time>2021-06-23T11:55:08Z</time>
      </trkpt>
      <trkpt lat="48.05391" lon="7.12332">
        <ele>474.25</ele>
        <time>2021-06-23T11:55:10Z</time>
      </trkpt>
      <trkpt lat="48.05394" lon="7.12326">
        <ele>474</ele>
        <time>2021-06-23T11:55:12Z</time>
      </trkpt>
      <trkpt lat="48.05412" lon="7.12302">
        <ele>473.08</ele>
        <time>2021-06-23T11:55:14Z</time>
      </trkpt>
      <trkpt lat="48.05413" lon="7.12291">
        <ele>472.03</ele>
        <time>2021-06-23T11:55:17Z</time>
      </trkpt>
      <trkpt lat="48.05411" lon="7.12284">
        <ele>471.02</ele>
        <time>2021-06-23T11:55:19Z</time>
      </trkpt>
      <trkpt lat="48.05407" lon="7.12278">
        <ele>469.98</ele>
        <time>2021-06-23T11:55:21Z</time>
      </trkpt>
      <trkpt lat="48.05403" lon="7.12276">
        <ele>469.21</ele>
        <time>2021-06-23T11:55:23Z</time>
      </trkpt>
      <trkpt lat="48.05397" lon="7.12277">
        <ele>468.68</ele>
        <time>2021-06-23T11:55:25Z</time>
      </trkpt>
      <trkpt lat="48.05372" lon="7.12299">
        <ele>468.06</ele>
        <time>2021-06-23T11:55:27Z</time>
      </trkpt>
      <trkpt lat="48.05311" lon="7.12372">
        <ele>462.64</ele>
        <time>2021-06-23T11:55:30Z</time>
      </trkpt>
      <trkpt lat="48.05301" lon="7.12386">
        <ele>461.54</ele>
        <time>2021-06-23T11:55:32Z</time>
      </trkpt>
      <trkpt lat="48.05286" lon="7.12417">
        <ele>460.88</ele>
        <time>2021-06-23T11:55:34Z</time>
      </trkpt>
      <trkpt lat="48.05278" lon="7.12424">
        <ele>460.27</ele>
        <time>2021-06-23T11:55:36Z</time>
      </trkpt>
      <trkpt lat="48.05264" lon="7.12425">
        <ele>461.3</ele>
        <time>2021-06-23T11:55:38Z</time>
      </trkpt>
      <trkpt lat="48.05256" lon="7.1242">
        <ele>461.17</ele>
        <time>2021-06-23T11:55:40Z</time>
      </trkpt>
      <trkpt lat="48.05251" lon="7.12413">
        <ele>460.67</ele>
        <time>2021-06-23T11:55:43Z</time>
      </trkpt>
      <trkpt lat="48.05236" lon="7.12378">
        <ele>458.42</ele>
        <time>2021-06-23T11:55:45Z</time>
      </trkpt>
      <trkpt lat="48.05217" lon="7.12347">
        <ele>452.53</ele>
        <time>2021-06-23T11:55:47Z</time>
      </trkpt>
      <trkpt lat="48.05201" lon="7.12329">
        <ele>446.24</ele>
        <time>2021-06-23T11:55:49Z</time>
      </trkpt>
      <trkpt lat="48.05165" lon="7.12296">
        <ele>441.96</ele>
        <time>2021-06-23T11:55:51Z</time>
      </trkpt>
      <trkpt lat="48.05109" lon="7.12209">
        <ele>440.8</ele>
        <time>2021-06-23T11:55:53Z</time>
      </trkpt>
      <trkpt lat="48.05049" lon="7.121">
        <ele>432.17</ele>
        <time>2021-06-23T11:55:56Z</time>
      </trkpt>
      <trkpt lat="48.05028" lon="7.1207">
        <ele>429.09</ele>
        <time>2021-06-23T11:55:58Z</time>
      </trkpt>
      <trkpt lat="48.05007" lon="7.12045">
        <ele>427.96</ele>
        <time>2021-06-23T11:56:00Z</time>
      </trkpt>
      <trkpt lat="48.04977" lon="7.12018">
        <ele>425.51</ele>
        <time>2021-06-23T11:56:02Z</time>
      </trkpt>
      <trkpt lat="48.0491" lon="7.11978">
        <ele>419.44</ele>
        <time>2021-06-23T11:56:04Z</time>
      </trkpt>
      <trkpt lat="48.04834" lon="7.11938">
        <ele>409.3</ele>
        <time>2021-06-23T11:56:06Z</time>
      </trkpt>
      <trkpt lat="48.04815" lon="7.11925">
        <ele>410.37</ele>
        <time>2021-06-23T11:56:08Z</time>
      </trkpt>
      <trkpt lat="48.04799" lon="7.11901">
        <ele>411.46</ele>
        <time>2021-06-23T11:56:11Z</time>
      </trkpt>
      <trkpt lat="48.04799" lon="7.11901">
        <ele>411.46</ele>
        <time>2021-06-23T11:56:11Z</time>
      </trkpt>
      <trkpt lat="48.0479" lon="7.11888">
        <ele>412.56</ele>
        <time>2021-06-23T11:56:12Z</time>
      </trkpt>
      <trkpt lat="48.04732" lon="7.12066">
        <ele>410.36</ele>
        <time>2021-06-23T11:56:18Z</time>
      </trkpt>
      <trkpt lat="48.04722" lon="7.12092">
        <ele>409.65</ele>
        <time>2021-06-23T11:56:23Z</time>
      </trkpt>
      <trkpt lat="48.04675" lon="7.12172">
        <ele>408.39</ele>
        <time>2021-06-23T11:56:29Z</time>
      </trkpt>
      <trkpt lat="48.04544" lon="7.12388">
        <ele>406.16</ele>
        <time>2021-06-23T11:56:34Z</time>
      </trkpt>
      <trkpt lat="48.0452" lon="7.12429">
        <ele>405.41</ele>
        <time>2021-06-23T11:56:40Z</time>
      </trkpt>
      <trkpt lat="48.04498" lon="7.12497">
        <ele>403.19</ele>
        <time>2021-06-23T11:56:45Z</time>
      </trkpt>
      <trkpt lat="48.04482" lon="7.12537">
        <ele>402.83</ele>
        <time>2021-06-23T11:56:51Z</time>
      </trkpt>
      <trkpt lat="48.04451" lon="7.12614">
        <ele>399.88</ele>
        <time>2021-06-23T11:56:56Z</time>
      </trkpt>
      <trkpt lat="48.04434" lon="7.12651">
        <ele>399.22</ele>
        <time>2021-06-23T11:57:02Z</time>
      </trkpt>
      <trkpt lat="48.0441" lon="7.1269">
        <ele>399.04</ele>
        <time>2021-06-23T11:57:08Z</time>
      </trkpt>
      <trkpt lat="48.04305" lon="7.1284">
        <ele>394.76</ele>
        <time>2021-06-23T11:57:13Z</time>
      </trkpt>
      <trkpt lat="48.04294" lon="7.12859">
        <ele>394.49</ele>
        <time>2021-06-23T11:57:19Z</time>
      </trkpt>
      <trkpt lat="48.04284" lon="7.12881">
        <ele>394.78</ele>
        <time>2021-06-23T11:57:24Z</time>
      </trkpt>
      <trkpt lat="48.04221" lon="7.13068">
        <ele>390.58</ele>
        <time>2021-06-23T11:57:30Z</time>
      </trkpt>
      <trkpt lat="48.04177" lon="7.1319">
        <ele>390.41</ele>
        <time>2021-06-23T11:57:35Z</time>
      </trkpt>
      <trkpt lat="48.04164" lon="7.13217">
        <ele>390.2</ele>
        <time>2021-06-23T11:57:41Z</time>
      </trkpt>
      <trkpt lat="48.04158" lon="7.13225">
        <ele>389.89</ele>
        <time>2021-06-23T11:57:47Z</time>
      </trkpt>
      <trkpt lat="48.04146" lon="7.1324">
        <ele>389.38</ele>
        <time>2021-06-23T11:57:52Z</time>
      </trkpt>
      <trkpt lat="48.0412" lon="7.1325">
        <ele>387.62</ele>
        <time>2021-06-23T11:57:58Z</time>
      </trkpt>
      <trkpt lat="48.04103" lon="7.13243">
        <ele>387.34</ele>
        <time>2021-06-23T11:58:07Z</time>
      </trkpt>
      <trkpt lat="48.04093" lon="7.13243">
        <ele>387.18</ele>
        <time>2021-06-23T11:58:16Z</time>
      </trkpt>
      <trkpt lat="48.03984" lon="7.13254">
        <ele>384.56</ele>
        <time>2021-06-23T11:58:24Z</time>
      </trkpt>
      <trkpt lat="48.03678" lon="7.1328">
        <ele>382.64</ele>
        <time>2021-06-23T11:58:33Z</time>
      </trkpt>
      <trkpt lat="48.03666" lon="7.13278">
        <ele>381.93</ele>
        <time>2021-06-23T11:58:42Z</time>
      </trkpt>
      <trkpt lat="48.03627" lon="7.13263">
        <ele>381.02</ele>
        <time>2021-06-23T11:58:51Z</time>
      </trkpt>
      <trkpt lat="48.03618" lon="7.13262">
        <ele>381.03</ele>
        <time>2021-06-23T11:59:00Z</time>
      </trkpt>
      <trkpt lat="48.03589" lon="7.13263">
        <ele>381.78</ele>
        <time>2021-06-23T11:59:09Z</time>
      </trkpt>
      <trkpt lat="48.03569" lon="7.13271">
        <ele>383.88</ele>
        <time>2021-06-23T11:59:18Z</time>
      </trkpt>
      <trkpt lat="48.03561" lon="7.13276">
        <ele>385.19</ele>
        <time>2021-06-23T11:59:24Z</time>
      </trkpt>
      <trkpt lat="48.03556" lon="7.13277">
        <ele>385.77</ele>
        <time>2021-06-23T11:59:31Z</time>
      </trkpt>
      <trkpt lat="48.03546" lon="7.13272">
        <ele>386.71</ele>
        <time>2021-06-23T11:59:38Z</time>
      </trkpt>
      <trkpt lat="48.0353" lon="7.13258">
        <ele>388.26</ele>
        <time>2021-06-23T11:59:44Z</time>
      </trkpt>
      <trkpt lat="48.03511" lon="7.13206">
        <ele>391.29</ele>
        <time>2021-06-23T11:59:51Z</time>
      </trkpt>
      <trkpt lat="48.03498" lon="7.1315">
        <ele>392.51</ele>
        <time>2021-06-23T11:59:57Z</time>
      </trkpt>
      <trkpt lat="48.03487" lon="7.1313">
        <ele>395.02</ele>
        <time>2021-06-23T12:00:04Z</time>
      </trkpt>
      <trkpt lat="48.03465" lon="7.13099">
        <ele>398.92</ele>
        <time>2021-06-23T12:00:10Z</time>
      </trkpt>
      <trkpt lat="48.03447" lon="7.13068">
        <ele>400.2</ele>
        <time>2021-06-23T12:00:17Z</time>
      </trkpt>
      <trkpt lat="48.03359" lon="7.12872">
        <ele>400.78</ele>
        <time>2021-06-23T12:00:24Z</time>
      </trkpt>
      <trkpt lat="48.03336" lon="7.12829">
        <ele>402.26</ele>
        <time>2021-06-23T12:00:30Z</time>
      </trkpt>
      <trkpt lat="48.03344" lon="7.12795">
        <ele>398.28</ele>
        <time>2021-06-23T12:00:36Z</time>
      </trkpt>
      <trkpt lat="48.03348" lon="7.12788">
        <ele>396.99</ele>
        <time>2021-06-23T12:00:41Z</time>
      </trkpt>
      <trkpt lat="48.03348" lon="7.12778">
        <ele>396.27</ele>
        <time>2021-06-23T12:00:46Z</time>
      </trkpt>
      <trkpt lat="48.03342" lon="7.1273">
        <ele>396.15</ele>
        <time>2021-06-23T12:00:52Z</time>
      </trkpt>
      <trkpt lat="48.03342" lon="7.1273">
        <ele>396.15</ele>
        <time>2021-06-23T12:00:52Z</time>
      </trkpt>
      <trkpt lat="48.03341" lon="7.12717">
        <ele>396.03</ele>
        <time>2021-06-23T12:01:05Z</time>
      </trkpt>
      <trkpt lat="48.03253" lon="7.12354">
        <ele>398.93</ele>
        <time>2021-06-23T12:01:19Z</time>
      </trkpt>
      <trkpt lat="48.03245" lon="7.12295">
        <ele>399.72</ele>
        <time>2021-06-23T12:01:33Z</time>
      </trkpt>
      <trkpt lat="48.03233" lon="7.12184">
        <ele>399.44</ele>
        <time>2021-06-23T12:01:46Z</time>
      </trkpt>
      <trkpt lat="48.03226" lon="7.12105">
        <ele>400.7</ele>
        <time>2021-06-23T12:02:00Z</time>
      </trkpt>
      <trkpt lat="48.03226" lon="7.12073">
        <ele>401.1</ele>
        <time>2021-06-23T12:02:13Z</time>
      </trkpt>
      <trkpt lat="48.03234" lon="7.1201">
        <ele>398.17</ele>
        <time>2021-06-23T12:02:27Z</time>
      </trkpt>
      <trkpt lat="48.03237" lon="7.12">
        <ele>397.91</ele>
        <time>2021-06-23T12:02:41Z</time>
      </trkpt>
      <trkpt lat="48.03253" lon="7.11983">
        <ele>397.54</ele>
        <time>2021-06-23T12:02:54Z</time>
      </trkpt>
      <trkpt lat="48.03258" lon="7.11972">
        <ele>397.73</ele>
        <time>2021-06-23T12:03:08Z</time>
      </trkpt>
      <trkpt lat="48.03262" lon="7.1194">
        <ele>398</ele>
        <time>2021-06-23T12:03:21Z</time>
      </trkpt>
      <trkpt lat="48.03239" lon="7.11922">
        <ele>399.21</ele>
        <time>2021-06-23T12:03:26Z</time>
      </trkpt>
      <trkpt lat="48.03229" lon="7.11905">
        <ele>400.32</ele>
        <time>2021-06-23T12:03:31Z</time>
      </trkpt>
      <trkpt lat="48.0322" lon="7.11894">
        <ele>401.3</ele>
        <time>2021-06-23T12:03:36Z</time>
      </trkpt>
      <trkpt lat="48.03203" lon="7.1188">
        <ele>403.79</ele>
        <time>2021-06-23T12:03:40Z</time>
      </trkpt>
      <trkpt lat="48.03152" lon="7.11856">
        <ele>412.5</ele>
        <time>2021-06-23T12:03:45Z</time>
      </trkpt>
      <trkpt lat="48.03098" lon="7.11874">
        <ele>418.65</ele>
        <time>2021-06-23T12:03:50Z</time>
      </trkpt>
      <trkpt lat="48.03087" lon="7.11885">
        <ele>419.7</ele>
        <time>2021-06-23T12:03:55Z</time>
      </trkpt>
      <trkpt lat="48.03074" lon="7.11902">
        <ele>420.48</ele>
        <time>2021-06-23T12:03:59Z</time>
      </trkpt>
      <trkpt lat="48.03054" lon="7.11936">
        <ele>422.19</ele>
        <time>2021-06-23T12:04:04Z</time>
      </trkpt>
      <trkpt lat="48.03038" lon="7.11968">
        <ele>425.96</ele>
        <time>2021-06-23T12:04:09Z</time>
      </trkpt>
      <trkpt lat="48.03027" lon="7.11985">
        <ele>430.01</ele>
        <time>2021-06-23T12:04:14Z</time>
      </trkpt>
      <trkpt lat="48.0302" lon="7.11992">
        <ele>432.16</ele>
        <time>2021-06-23T12:04:18Z</time>
      </trkpt>
      <trkpt lat="48.03006" lon="7.11997">
        <ele>435.25</ele>
        <time>2021-06-23T12:04:23Z</time>
      </trkpt>
      <trkpt lat="48.02961" lon="7.12002">
        <ele>440.05</ele>
        <time>2021-06-23T12:04:28Z</time>
      </trkpt>
      <trkpt lat="48.02929" lon="7.12013">
        <ele>442.75</ele>
        <time>2021-06-23T12:04:32Z</time>
      </trkpt>
      <trkpt lat="48.02893" lon="7.12042">
        <ele>449.14</ele>
        <time>2021-06-23T12:04:37Z</time>
      </trkpt>
      <trkpt lat="48.0289" lon="7.12052">
        <ele>450.47</ele>
        <time>2021-06-23T12:04:42Z</time>
      </trkpt>
      <trkpt lat="48.02893" lon="7.1206">
        <ele>452.53</ele>
        <time>2021-06-23T12:04:46Z</time>
      </trkpt>
      <trkpt lat="48.02897" lon="7.12061">
        <ele>453.12</ele>
        <time>2021-06-23T12:04:50Z</time>
      </trkpt>
      <trkpt lat="48.02932" lon="7.12047">
        <ele>451.08</ele>
        <time>2021-06-23T12:04:54Z</time>
      </trkpt>
      <trkpt lat="48.02943" lon="7.12047">
        <ele>451.47</ele>
        <time>2021-06-23T12:04:58Z</time>
      </trkpt>
      <trkpt lat="48.02959" lon="7.12053">
        <ele>452.22</ele>
        <time>2021-06-23T12:05:02Z</time>
      </trkpt>
      <trkpt lat="48.02976" lon="7.12066">
        <ele>454.3</ele>
        <time>2021-06-23T12:05:06Z</time>
      </trkpt>
      <trkpt lat="48.03024" lon="7.12123">
        <ele>457.1</ele>
        <time>2021-06-23T12:05:10Z</time>
      </trkpt>
      <trkpt lat="48.03037" lon="7.12143">
        <ele>455.9</ele>
        <time>2021-06-23T12:05:14Z</time>
      </trkpt>
      <trkpt lat="48.03053" lon="7.12192">
        <ele>459.2</ele>
        <time>2021-06-23T12:05:17Z</time>
      </trkpt>
      <trkpt lat="48.03057" lon="7.12212">
        <ele>462.46</ele>
        <time>2021-06-23T12:05:21Z</time>
      </trkpt>
      <trkpt lat="48.03058" lon="7.12251">
        <ele>470.93</ele>
        <time>2021-06-23T12:05:24Z</time>
      </trkpt>
      <trkpt lat="48.03063" lon="7.12276">
        <ele>474.04</ele>
        <time>2021-06-23T12:05:27Z</time>
      </trkpt>
      <trkpt lat="48.03073" lon="7.12314">
        <ele>472.49</ele>
        <time>2021-06-23T12:05:30Z</time>
      </trkpt>
      <trkpt lat="48.03076" lon="7.12336">
        <ele>472.94</ele>
        <time>2021-06-23T12:05:34Z</time>
      </trkpt>
      <trkpt lat="48.03067" lon="7.12422">
        <ele>487.96</ele>
        <time>2021-06-23T12:05:37Z</time>
      </trkpt>
      <trkpt lat="48.03056" lon="7.1248">
        <ele>498.75</ele>
        <time>2021-06-23T12:05:40Z</time>
      </trkpt>
      <trkpt lat="48.03053" lon="7.12536">
        <ele>507.17</ele>
        <time>2021-06-23T12:05:43Z</time>
      </trkpt>
      <trkpt lat="48.03055" lon="7.12585">
        <ele>506.14</ele>
        <time>2021-06-23T12:05:47Z</time>
      </trkpt>
      <trkpt lat="48.03052" lon="7.12618">
        <ele>507.62</ele>
        <time>2021-06-23T12:05:50Z</time>
      </trkpt>
      <trkpt lat="48.03046" lon="7.12641">
        <ele>510.68</ele>
        <time>2021-06-23T12:05:53Z</time>
      </trkpt>
      <trkpt lat="48.0303" lon="7.12681">
        <ele>517.84</ele>
        <time>2021-06-23T12:05:56Z</time>
      </trkpt>
      <trkpt lat="48.02997" lon="7.12751">
        <ele>520.8</ele>
        <time>2021-06-23T12:06:00Z</time>
      </trkpt>
      <trkpt lat="48.0299" lon="7.12761">
        <ele>520.76</ele>
        <time>2021-06-23T12:06:03Z</time>
      </trkpt>
      <trkpt lat="48.0298" lon="7.12766">
        <ele>522.97</ele>
        <time>2021-06-23T12:06:06Z</time>
      </trkpt>
      <trkpt lat="48.02976" lon="7.12764">
        <ele>524.69</ele>
        <time>2021-06-23T12:06:09Z</time>
      </trkpt>
      <trkpt lat="48.02973" lon="7.1276">
        <ele>526.65</ele>
        <time>2021-06-23T12:06:13Z</time>
      </trkpt>
      <trkpt lat="48.02972" lon="7.12754">
        <ele>528.46</ele>
        <time>2021-06-23T12:06:16Z</time>
      </trkpt>
      <trkpt lat="48.02985" lon="7.12706">
        <ele>529.84</ele>
        <time>2021-06-23T12:06:19Z</time>
      </trkpt>
      <trkpt lat="48.02995" lon="7.12656">
        <ele>531.54</ele>
        <time>2021-06-23T12:06:22Z</time>
      </trkpt>
      <trkpt lat="48.02997" lon="7.12629">
        <ele>531.93</ele>
        <time>2021-06-23T12:06:26Z</time>
      </trkpt>
      <trkpt lat="48.02997" lon="7.12595">
        <ele>534.04</ele>
        <time>2021-06-23T12:06:29Z</time>
      </trkpt>
      <trkpt lat="48.02984" lon="7.12531">
        <ele>540.45</ele>
        <time>2021-06-23T12:06:32Z</time>
      </trkpt>
      <trkpt lat="48.02976" lon="7.12449">
        <ele>535.7</ele>
        <time>2021-06-23T12:06:35Z</time>
      </trkpt>
      <trkpt lat="48.02962" lon="7.12408">
        <ele>537.85</ele>
        <time>2021-06-23T12:06:38Z</time>
      </trkpt>
      <trkpt lat="48.02955" lon="7.12398">
        <ele>538.66</ele>
        <time>2021-06-23T12:06:42Z</time>
      </trkpt>
      <trkpt lat="48.0295" lon="7.12394">
        <ele>539.23</ele>
        <time>2021-06-23T12:06:45Z</time>
      </trkpt>
      <trkpt lat="48.02947" lon="7.12394">
        <ele>540.07</ele>
        <time>2021-06-23T12:06:48Z</time>
      </trkpt>
      <trkpt lat="48.02941" lon="7.12395">
        <ele>540.78</ele>
        <time>2021-06-23T12:06:51Z</time>
      </trkpt>
      <trkpt lat="48.02939" lon="7.12399">
        <ele>541.3</ele>
        <time>2021-06-23T12:06:55Z</time>
      </trkpt>
      <trkpt lat="48.02938" lon="7.12405">
        <ele>542.17</ele>
        <time>2021-06-23T12:06:58Z</time>
      </trkpt>
      <trkpt lat="48.0294" lon="7.12415">
        <ele>543.28</ele>
        <time>2021-06-23T12:07:01Z</time>
      </trkpt>
      <trkpt lat="48.02952" lon="7.1244">
        <ele>543.07</ele>
        <time>2021-06-23T12:07:04Z</time>
      </trkpt>
      <trkpt lat="48.02959" lon="7.12472">
        <ele>542.93</ele>
        <time>2021-06-23T12:07:08Z</time>
      </trkpt>
      <trkpt lat="48.02958" lon="7.12496">
        <ele>544.45</ele>
        <time>2021-06-23T12:07:11Z</time>
      </trkpt>
      <trkpt lat="48.02949" lon="7.12542">
        <ele>552.49</ele>
        <time>2021-06-23T12:07:14Z</time>
      </trkpt>
      <trkpt lat="48.02937" lon="7.12585">
        <ele>556.72</ele>
        <time>2021-06-23T12:07:17Z</time>
      </trkpt>
      <trkpt lat="48.02905" lon="7.12666">
        <ele>560.69</ele>
        <time>2021-06-23T12:07:21Z</time>
      </trkpt>
      <trkpt lat="48.02894" lon="7.12685">
        <ele>560.87</ele>
        <time>2021-06-23T12:07:24Z</time>
      </trkpt>
      <trkpt lat="48.02886" lon="7.12693">
        <ele>561.3</ele>
        <time>2021-06-23T12:07:27Z</time>
      </trkpt>
      <trkpt lat="48.02878" lon="7.12698">
        <ele>561.38</ele>
        <time>2021-06-23T12:07:30Z</time>
      </trkpt>
      <trkpt lat="48.02853" lon="7.12703">
        <ele>562.66</ele>
        <time>2021-06-23T12:07:34Z</time>
      </trkpt>
      <trkpt lat="48.02819" lon="7.12703">
        <ele>564.26</ele>
        <time>2021-06-23T12:07:37Z</time>
      </trkpt>
      <trkpt lat="48.02785" lon="7.12695">
        <ele>567.04</ele>
        <time>2021-06-23T12:07:40Z</time>
      </trkpt>
      <trkpt lat="48.02764" lon="7.12695">
        <ele>569.11</ele>
        <time>2021-06-23T12:07:43Z</time>
      </trkpt>
      <trkpt lat="48.02729" lon="7.12701">
        <ele>573.63</ele>
        <time>2021-06-23T12:07:47Z</time>
      </trkpt>
      <trkpt lat="48.02654" lon="7.1271">
        <ele>580.31</ele>
        <time>2021-06-23T12:07:50Z</time>
      </trkpt>
      <trkpt lat="48.02633" lon="7.12717">
        <ele>581.84</ele>
        <time>2021-06-23T12:07:53Z</time>
      </trkpt>
      <trkpt lat="48.02607" lon="7.12732">
        <ele>583.56</ele>
        <time>2021-06-23T12:07:56Z</time>
      </trkpt>
      <trkpt lat="48.02588" lon="7.12747">
        <ele>584.37</ele>
        <time>2021-06-23T12:08:00Z</time>
      </trkpt>
      <trkpt lat="48.02576" lon="7.12763">
        <ele>585.91</ele>
        <time>2021-06-23T12:08:03Z</time>
      </trkpt>
      <trkpt lat="48.02544" lon="7.1282">
        <ele>597.7</ele>
        <time>2021-06-23T12:08:06Z</time>
      </trkpt>
      <trkpt lat="48.02526" lon="7.12835">
        <ele>600.62</ele>
        <time>2021-06-23T12:08:09Z</time>
      </trkpt>
      <trkpt lat="48.02503" lon="7.12837">
        <ele>602.18</ele>
        <time>2021-06-23T12:08:13Z</time>
      </trkpt>
      <trkpt lat="48.02469" lon="7.1283">
        <ele>604.3</ele>
        <time>2021-06-23T12:08:16Z</time>
      </trkpt>
      <trkpt lat="48.02424" lon="7.12829">
        <ele>607.61</ele>
        <time>2021-06-23T12:08:19Z</time>
      </trkpt>
      <trkpt lat="48.0239" lon="7.12834">
        <ele>612.99</ele>
        <time>2021-06-23T12:08:22Z</time>
      </trkpt>
      <trkpt lat="48.02369" lon="7.12834">
        <ele>615.46</ele>
        <time>2021-06-23T12:08:26Z</time>
      </trkpt>
      <trkpt lat="48.02299" lon="7.12815">
        <ele>620.04</ele>
        <time>2021-06-23T12:08:29Z</time>
      </trkpt>
      <trkpt lat="48.02292" lon="7.12815">
        <ele>621.58</ele>
        <time>2021-06-23T12:08:32Z</time>
      </trkpt>
      <trkpt lat="48.02287" lon="7.12821">
        <ele>625.03</ele>
        <time>2021-06-23T12:08:35Z</time>
      </trkpt>
      <trkpt lat="48.02288" lon="7.12827">
        <ele>627.18</ele>
        <time>2021-06-23T12:08:39Z</time>
      </trkpt>
      <trkpt lat="48.02292" lon="7.12833">
        <ele>628.95</ele>
        <time>2021-06-23T12:08:42Z</time>
      </trkpt>
      <trkpt lat="48.02306" lon="7.12847">
        <ele>630.62</ele>
        <time>2021-06-23T12:08:45Z</time>
      </trkpt>
      <trkpt lat="48.02405" lon="7.12927">
        <ele>640.02</ele>
        <time>2021-06-23T12:08:48Z</time>
      </trkpt>
      <trkpt lat="48.02537" lon="7.13015">
        <ele>652.31</ele>
        <time>2021-06-23T12:08:52Z</time>
      </trkpt>
      <trkpt lat="48.02557" lon="7.13033">
        <ele>655.21</ele>
        <time>2021-06-23T12:08:55Z</time>
      </trkpt>
      <trkpt lat="48.0259" lon="7.13037">
        <ele>654.03</ele>
        <time>2021-06-23T12:08:58Z</time>
      </trkpt>
      <trkpt lat="48.02603" lon="7.13041">
        <ele>653.63</ele>
        <time>2021-06-23T12:09:01Z</time>
      </trkpt>
      <trkpt lat="48.02622" lon="7.13057">
        <ele>652.82</ele>
        <time>2021-06-23T12:09:05Z</time>
      </trkpt>
      <trkpt lat="48.02634" lon="7.13076">
        <ele>653.21</ele>
        <time>2021-06-23T12:09:08Z</time>
      </trkpt>
      <trkpt lat="48.02649" lon="7.13122">
        <ele>658.9</ele>
        <time>2021-06-23T12:09:11Z</time>
      </trkpt>
      <trkpt lat="48.0267" lon="7.13213">
        <ele>665.32</ele>
        <time>2021-06-23T12:09:14Z</time>
      </trkpt>
      <trkpt lat="48.02679" lon="7.13263">
        <ele>665.46</ele>
        <time>2021-06-23T12:09:18Z</time>
      </trkpt>
      <trkpt lat="48.02681" lon="7.13298">
        <ele>665.58</ele>
        <time>2021-06-23T12:09:21Z</time>
      </trkpt>
      <trkpt lat="48.02675" lon="7.13347">
        <ele>670.07</ele>
        <time>2021-06-23T12:09:24Z</time>
      </trkpt>
      <trkpt lat="48.02672" lon="7.13354">
        <ele>671.85</ele>
        <time>2021-06-23T12:09:27Z</time>
      </trkpt>
      <trkpt lat="48.02665" lon="7.13358">
        <ele>674.7</ele>
        <time>2021-06-23T12:09:31Z</time>
      </trkpt>
      <trkpt lat="48.02659" lon="7.13355">
        <ele>676.82</ele>
        <time>2021-06-23T12:09:34Z</time>
      </trkpt>
      <trkpt lat="48.02657" lon="7.1335">
        <ele>677.7</ele>
        <time>2021-06-23T12:09:38Z</time>
      </trkpt>
      <trkpt lat="48.02656" lon="7.13335">
        <ele>678.55</ele>
        <time>2021-06-23T12:09:43Z</time>
      </trkpt>
      <trkpt lat="48.02656" lon="7.13287">
        <ele>675.98</ele>
        <time>2021-06-23T12:09:47Z</time>
      </trkpt>
      <trkpt lat="48.02652" lon="7.13268">
        <ele>676.84</ele>
        <time>2021-06-23T12:09:51Z</time>
      </trkpt>
      <trkpt lat="48.02647" lon="7.13256">
        <ele>679.03</ele>
        <time>2021-06-23T12:09:55Z</time>
      </trkpt>
      <trkpt lat="48.02628" lon="7.13227">
        <ele>684.5</ele>
        <time>2021-06-23T12:10:00Z</time>
      </trkpt>
      <trkpt lat="48.02571" lon="7.13173">
        <ele>688.21</ele>
        <time>2021-06-23T12:10:04Z</time>
      </trkpt>
      <trkpt lat="48.02563" lon="7.13167">
        <ele>688.77</ele>
        <time>2021-06-23T12:10:08Z</time>
      </trkpt>
      <trkpt lat="48.02481" lon="7.13162">
        <ele>698.84</ele>
        <time>2021-06-23T12:10:13Z</time>
      </trkpt>
      <trkpt lat="48.02434" lon="7.13163">
        <ele>702.77</ele>
        <time>2021-06-23T12:10:17Z</time>
      </trkpt>
      <trkpt lat="48.02364" lon="7.13171">
        <ele>712.9</ele>
        <time>2021-06-23T12:10:21Z</time>
      </trkpt>
      <trkpt lat="48.02323" lon="7.13164">
        <ele>719.51</ele>
        <time>2021-06-23T12:10:26Z</time>
      </trkpt>
      <trkpt lat="48.02309" lon="7.13158">
        <ele>721.61</ele>
        <time>2021-06-23T12:10:30Z</time>
      </trkpt>
      <trkpt lat="48.02259" lon="7.13113">
        <ele>723.42</ele>
        <time>2021-06-23T12:10:34Z</time>
      </trkpt>
      <trkpt lat="48.02218" lon="7.13087">
        <ele>725.46</ele>
        <time>2021-06-23T12:10:38Z</time>
      </trkpt>
      <trkpt lat="48.022" lon="7.13083">
        <ele>726.38</ele>
        <time>2021-06-23T12:10:43Z</time>
      </trkpt>
      <trkpt lat="48.02187" lon="7.13083">
        <ele>726.53</ele>
        <time>2021-06-23T12:10:47Z</time>
      </trkpt>
      <trkpt lat="48.02153" lon="7.1309">
        <ele>729.12</ele>
        <time>2021-06-23T12:10:51Z</time>
      </trkpt>
      <trkpt lat="48.0212" lon="7.13102">
        <ele>734.05</ele>
        <time>2021-06-23T12:10:56Z</time>
      </trkpt>
      <trkpt lat="48.0209" lon="7.13119">
        <ele>738.36</ele>
        <time>2021-06-23T12:11:00Z</time>
      </trkpt>
      <trkpt lat="48.02047" lon="7.13148">
        <ele>745.48</ele>
        <time>2021-06-23T12:11:04Z</time>
      </trkpt>
      <trkpt lat="48.02033" lon="7.13154">
        <ele>747.1</ele>
        <time>2021-06-23T12:11:09Z</time>
      </trkpt>
      <trkpt lat="48.02016" lon="7.13155">
        <ele>748.39</ele>
        <time>2021-06-23T12:11:13Z</time>
      </trkpt>
      <trkpt lat="48.01938" lon="7.13147">
        <ele>754.01</ele>
        <time>2021-06-23T12:11:17Z</time>
      </trkpt>
      <trkpt lat="48.01917" lon="7.13152">
        <ele>757.33</ele>
        <time>2021-06-23T12:11:21Z</time>
      </trkpt>
      <trkpt lat="48.01862" lon="7.13181">
        <ele>767.09</ele>
        <time>2021-06-23T12:11:26Z</time>
      </trkpt>
      <trkpt lat="48.0183" lon="7.1319">
        <ele>769.17</ele>
        <time>2021-06-23T12:11:30Z</time>
      </trkpt>
      <trkpt lat="48.01812" lon="7.1319">
        <ele>770.49</ele>
        <time>2021-06-23T12:11:34Z</time>
      </trkpt>
      <trkpt lat="48.01753" lon="7.13178">
        <ele>777.91</ele>
        <time>2021-06-23T12:11:39Z</time>
      </trkpt>
      <trkpt lat="48.01653" lon="7.13169">
        <ele>787.21</ele>
        <time>2021-06-23T12:11:43Z</time>
      </trkpt>
      <trkpt lat="48.01633" lon="7.13171">
        <ele>787.78</ele>
        <time>2021-06-23T12:11:47Z</time>
      </trkpt>
      <trkpt lat="48.01616" lon="7.13178">
        <ele>789.08</ele>
        <time>2021-06-23T12:11:52Z</time>
      </trkpt>
      <trkpt lat="48.01569" lon="7.13216">
        <ele>799.23</ele>
        <time>2021-06-23T12:11:56Z</time>
      </trkpt>
      <trkpt lat="48.01551" lon="7.13222">
        <ele>801.25</ele>
        <time>2021-06-23T12:12:00Z</time>
      </trkpt>
      <trkpt lat="48.0151" lon="7.13229">
        <ele>803.59</ele>
        <time>2021-06-23T12:12:04Z</time>
      </trkpt>
      <trkpt lat="48.01463" lon="7.13253">
        <ele>806.94</ele>
        <time>2021-06-23T12:12:09Z</time>
      </trkpt>
      <trkpt lat="48.01433" lon="7.13275">
        <ele>809.59</ele>
        <time>2021-06-23T12:12:13Z</time>
      </trkpt>
      <trkpt lat="48.01417" lon="7.13295">
        <ele>812.33</ele>
        <time>2021-06-23T12:12:17Z</time>
      </trkpt>
      <trkpt lat="48.01396" lon="7.13342">
        <ele>814.58</ele>
        <time>2021-06-23T12:12:22Z</time>
      </trkpt>
      <trkpt lat="48.01313" lon="7.13474">
        <ele>825.08</ele>
        <time>2021-06-23T12:12:26Z</time>
      </trkpt>
      <trkpt lat="48.01279" lon="7.13513">
        <ele>827.68</ele>
        <time>2021-06-23T12:12:30Z</time>
      </trkpt>
      <trkpt lat="48.01236" lon="7.13557">
        <ele>830.33</ele>
        <time>2021-06-23T12:12:35Z</time>
      </trkpt>
      <trkpt lat="48.01208" lon="7.13594">
        <ele>833.97</ele>
        <time>2021-06-23T12:12:39Z</time>
      </trkpt>
      <trkpt lat="48.01196" lon="7.136">
        <ele>834.73</ele>
        <time>2021-06-23T12:12:43Z</time>
      </trkpt>
      <trkpt lat="48.01168" lon="7.13605">
        <ele>836.77</ele>
        <time>2021-06-23T12:12:47Z</time>
      </trkpt>
      <trkpt lat="48.01152" lon="7.13603">
        <ele>837.41</ele>
        <time>2021-06-23T12:12:52Z</time>
      </trkpt>
      <trkpt lat="48.01152" lon="7.13603">
        <ele>837.41</ele>
        <time>2021-06-23T12:12:52Z</time>
      </trkpt>
      <trkpt lat="48.01047" lon="7.13582">
        <ele>862.29</ele>
        <time>2021-06-23T12:12:56Z</time>
      </trkpt>
      <trkpt lat="48.01031" lon="7.13575">
        <ele>864.73</ele>
        <time>2021-06-23T12:13:01Z</time>
      </trkpt>
      <trkpt lat="48.01015" lon="7.13563">
        <ele>866.58</ele>
        <time>2021-06-23T12:13:05Z</time>
      </trkpt>
      <trkpt lat="48.01001" lon="7.13548">
        <ele>867.25</ele>
        <time>2021-06-23T12:13:09Z</time>
      </trkpt>
      <trkpt lat="48.0099" lon="7.13531">
        <ele>868.23</ele>
        <time>2021-06-23T12:13:14Z</time>
      </trkpt>
      <trkpt lat="48.00973" lon="7.13486">
        <ele>868.89</ele>
        <time>2021-06-23T12:13:18Z</time>
      </trkpt>
      <trkpt lat="48.00916" lon="7.13377">
        <ele>874.7</ele>
        <time>2021-06-23T12:13:23Z</time>
      </trkpt>
      <trkpt lat="48.00906" lon="7.13362">
        <ele>875.61</ele>
        <time>2021-06-23T12:13:27Z</time>
      </trkpt>
      <trkpt lat="48.00894" lon="7.13348">
        <ele>876.88</ele>
        <time>2021-06-23T12:13:31Z</time>
      </trkpt>
      <trkpt lat="48.00867" lon="7.13327">
        <ele>878.13</ele>
        <time>2021-06-23T12:13:36Z</time>
      </trkpt>
      <trkpt lat="48.00837" lon="7.13327">
        <ele>880.73</ele>
        <time>2021-06-23T12:13:40Z</time>
      </trkpt>
      <trkpt lat="48.00817" lon="7.13322">
        <ele>882.64</ele>
        <time>2021-06-23T12:13:44Z</time>
      </trkpt>
      <trkpt lat="48.00801" lon="7.13315">
        <ele>884.14</ele>
        <time>2021-06-23T12:13:49Z</time>
      </trkpt>
      <trkpt lat="48.0077" lon="7.13294">
        <ele>884.47</ele>
        <time>2021-06-23T12:13:53Z</time>
      </trkpt>
      <trkpt lat="48.00746" lon="7.13293">
        <ele>883.8</ele>
        <time>2021-06-23T12:13:58Z</time>
      </trkpt>
      <trkpt lat="48.00714" lon="7.13315">
        <ele>885.39</ele>
        <time>2021-06-23T12:14:02Z</time>
      </trkpt>
      <trkpt lat="48.00651" lon="7.13386">
        <ele>891.95</ele>
        <time>2021-06-23T12:14:06Z</time>
      </trkpt>
      <trkpt lat="48.006" lon="7.13452">
        <ele>893.9</ele>
        <time>2021-06-23T12:14:11Z</time>
      </trkpt>
      <trkpt lat="48.00578" lon="7.13474">
        <ele>891.96</ele>
        <time>2021-06-23T12:14:15Z</time>
      </trkpt>
      <trkpt lat="48.00563" lon="7.13482">
        <ele>889.09</ele>
        <time>2021-06-23T12:14:20Z</time>
      </trkpt>
      <trkpt lat="48.00536" lon="7.13486">
        <ele>886.8</ele>
        <time>2021-06-23T12:14:24Z</time>
      </trkpt>
      <trkpt lat="48.0052" lon="7.13485">
        <ele>887.57</ele>
        <time>2021-06-23T12:14:28Z</time>
      </trkpt>
      <trkpt lat="48.00489" lon="7.13476">
        <ele>891.23</ele>
        <time>2021-06-23T12:14:33Z</time>
      </trkpt>
      <trkpt lat="48.00449" lon="7.13456">
        <ele>893.35</ele>
        <time>2021-06-23T12:14:37Z</time>
      </trkpt>
      <trkpt lat="48.00425" lon="7.13439">
        <ele>893.34</ele>
        <time>2021-06-23T12:14:42Z</time>
      </trkpt>
      <trkpt lat="48.00416" lon="7.13436">
        <ele>893.45</ele>
        <time>2021-06-23T12:14:46Z</time>
      </trkpt>
      <trkpt lat="48.00406" lon="7.13438">
        <ele>893.95</ele>
        <time>2021-06-23T12:14:50Z</time>
      </trkpt>
      <trkpt lat="48.0037" lon="7.13419">
        <ele>894.54</ele>
        <time>2021-06-23T12:14:55Z</time>
      </trkpt>
      <trkpt lat="48.00338" lon="7.13396">
        <ele>896.91</ele>
        <time>2021-06-23T12:14:59Z</time>
      </trkpt>
      <trkpt lat="48.00322" lon="7.13381">
        <ele>898.56</ele>
        <time>2021-06-23T12:15:04Z</time>
      </trkpt>
      <trkpt lat="48.00288" lon="7.13344">
        <ele>901.43</ele>
        <time>2021-06-23T12:15:08Z</time>
      </trkpt>
      <trkpt lat="48.00271" lon="7.1333">
        <ele>905.39</ele>
        <time>2021-06-23T12:15:12Z</time>
      </trkpt>
      <trkpt lat="48.00226" lon="7.13306">
        <ele>917.13</ele>
        <time>2021-06-23T12:15:17Z</time>
      </trkpt>
      <trkpt lat="48.00172" lon="7.13263">
        <ele>919.88</ele>
        <time>2021-06-23T12:15:21Z</time>
      </trkpt>
      <trkpt lat="48.00115" lon="7.13209">
        <ele>922.93</ele>
        <time>2021-06-23T12:15:25Z</time>
      </trkpt>
      <trkpt lat="48.00009" lon="7.13103">
        <ele>934.97</ele>
        <time>2021-06-23T12:15:30Z</time>
      </trkpt>
      <trkpt lat="47.99983" lon="7.1308">
        <ele>937.9</ele>
        <time>2021-06-23T12:15:34Z</time>
      </trkpt>
      <trkpt lat="47.99948" lon="7.13054">
        <ele>941.15</ele>
        <time>2021-06-23T12:15:39Z</time>
      </trkpt>
      <trkpt lat="47.9991" lon="7.13031">
        <ele>945.86</ele>
        <time>2021-06-23T12:15:43Z</time>
      </trkpt>
      <trkpt lat="47.99842" lon="7.12974">
        <ele>950.47</ele>
        <time>2021-06-23T12:15:47Z</time>
      </trkpt>
      <trkpt lat="47.99797" lon="7.12944">
        <ele>954.8</ele>
        <time>2021-06-23T12:15:51Z</time>
      </trkpt>
      <trkpt lat="47.99779" lon="7.12935">
        <ele>955.53</ele>
        <time>2021-06-23T12:15:54Z</time>
      </trkpt>
      <trkpt lat="47.99758" lon="7.12931">
        <ele>955.78</ele>
        <time>2021-06-23T12:15:58Z</time>
      </trkpt>
      <trkpt lat="47.99741" lon="7.12933">
        <ele>956.71</ele>
        <time>2021-06-23T12:16:02Z</time>
      </trkpt>
      <trkpt lat="47.99729" lon="7.12939">
        <ele>958.35</ele>
        <time>2021-06-23T12:16:06Z</time>
      </trkpt>
      <trkpt lat="47.99688" lon="7.12965">
        <ele>966.48</ele>
        <time>2021-06-23T12:16:10Z</time>
      </trkpt>
      <trkpt lat="47.99673" lon="7.12971">
        <ele>968.45</ele>
        <time>2021-06-23T12:16:14Z</time>
      </trkpt>
      <trkpt lat="47.99644" lon="7.12977">
        <ele>973.15</ele>
        <time>2021-06-23T12:16:18Z</time>
      </trkpt>
      <trkpt lat="47.99632" lon="7.12977">
        <ele>974.99</ele>
        <time>2021-06-23T12:16:22Z</time>
      </trkpt>
      <trkpt lat="47.99618" lon="7.12976">
        <ele>976.73</ele>
        <time>2021-06-23T12:16:26Z</time>
      </trkpt>
      <trkpt lat="47.99566" lon="7.12964">
        <ele>978.38</ele>
        <time>2021-06-23T12:16:30Z</time>
      </trkpt>
      <trkpt lat="47.99514" lon="7.1296">
        <ele>984.61</ele>
        <time>2021-06-23T12:16:34Z</time>
      </trkpt>
      <trkpt lat="47.99459" lon="7.1295">
        <ele>993.16</ele>
        <time>2021-06-23T12:16:38Z</time>
      </trkpt>
      <trkpt lat="47.99421" lon="7.12934">
        <ele>995.06</ele>
        <time>2021-06-23T12:16:42Z</time>
      </trkpt>
      <trkpt lat="47.99403" lon="7.12924">
        <ele>995.39</ele>
        <time>2021-06-23T12:16:46Z</time>
      </trkpt>
      <trkpt lat="47.99384" lon="7.12917">
        <ele>996.59</ele>
        <time>2021-06-23T12:16:50Z</time>
      </trkpt>
      <trkpt lat="47.99349" lon="7.12914">
        <ele>999.32</ele>
        <time>2021-06-23T12:16:54Z</time>
      </trkpt>
      <trkpt lat="47.99306" lon="7.12921">
        <ele>1001.69</ele>
        <time>2021-06-23T12:16:58Z</time>
      </trkpt>
      <trkpt lat="47.99282" lon="7.1293">
        <ele>1003.38</ele>
        <time>2021-06-23T12:17:03Z</time>
      </trkpt>
      <trkpt lat="47.99266" lon="7.12939">
        <ele>1004.6</ele>
        <time>2021-06-23T12:17:07Z</time>
      </trkpt>
      <trkpt lat="47.99259" lon="7.12947">
        <ele>1005.71</ele>
        <time>2021-06-23T12:17:11Z</time>
      </trkpt>
      <trkpt lat="47.99255" lon="7.12954">
        <ele>1006.61</ele>
        <time>2021-06-23T12:17:15Z</time>
      </trkpt>
      <trkpt lat="47.99245" lon="7.13033">
        <ele>1012.81</ele>
        <time>2021-06-23T12:17:19Z</time>
      </trkpt>
      <trkpt lat="47.99243" lon="7.13044">
        <ele>1012.4</ele>
        <time>2021-06-23T12:17:23Z</time>
      </trkpt>
      <trkpt lat="47.99239" lon="7.1305">
        <ele>1012.22</ele>
        <time>2021-06-23T12:17:27Z</time>
      </trkpt>
      <trkpt lat="47.99234" lon="7.13051">
        <ele>1012.16</ele>
        <time>2021-06-23T12:17:31Z</time>
      </trkpt>
      <trkpt lat="47.99224" lon="7.13046">
        <ele>1012.35</ele>
        <time>2021-06-23T12:17:35Z</time>
      </trkpt>
      <trkpt lat="47.99207" lon="7.1302">
        <ele>1013.81</ele>
        <time>2021-06-23T12:17:39Z</time>
      </trkpt>
      <trkpt lat="47.99149" lon="7.12961">
        <ele>1013.79</ele>
        <time>2021-06-23T12:17:43Z</time>
      </trkpt>
      <trkpt lat="47.99117" lon="7.12921">
        <ele>1020.08</ele>
        <time>2021-06-23T12:17:47Z</time>
      </trkpt>
      <trkpt lat="47.9908" lon="7.12879">
        <ele>1027.07</ele>
        <time>2021-06-23T12:17:51Z</time>
      </trkpt>
      <trkpt lat="47.99015" lon="7.12814">
        <ele>1038.69</ele>
        <time>2021-06-23T12:17:55Z</time>
      </trkpt>
      <trkpt lat="47.9899" lon="7.12796">
        <ele>1044.2</ele>
        <time>2021-06-23T12:17:59Z</time>
      </trkpt>
      <trkpt lat="47.9895" lon="7.12758">
        <ele>1045.76</ele>
        <time>2021-06-23T12:18:03Z</time>
      </trkpt>
      <trkpt lat="47.9889" lon="7.12694">
        <ele>1049.84</ele>
        <time>2021-06-23T12:18:07Z</time>
      </trkpt>
      <trkpt lat="47.98866" lon="7.12678">
        <ele>1054.84</ele>
        <time>2021-06-23T12:18:11Z</time>
      </trkpt>
      <trkpt lat="47.9886" lon="7.12665">
        <ele>1054.99</ele>
        <time>2021-06-23T12:18:15Z</time>
      </trkpt>
      <trkpt lat="47.98859" lon="7.12655">
        <ele>1054.29</ele>
        <time>2021-06-23T12:18:20Z</time>
      </trkpt>
      <trkpt lat="47.98861" lon="7.12643">
        <ele>1053.3</ele>
        <time>2021-06-23T12:18:24Z</time>
      </trkpt>
      <trkpt lat="47.98875" lon="7.1259">
        <ele>1052.79</ele>
        <time>2021-06-23T12:18:28Z</time>
      </trkpt>
      <trkpt lat="47.9889" lon="7.12494">
        <ele>1067.87</ele>
        <time>2021-06-23T12:18:32Z</time>
      </trkpt>
      <trkpt lat="47.98902" lon="7.12466">
        <ele>1070.11</ele>
        <time>2021-06-23T12:18:36Z</time>
      </trkpt>
      <trkpt lat="47.98938" lon="7.12398">
        <ele>1071.6</ele>
        <time>2021-06-23T12:18:40Z</time>
      </trkpt>
      <trkpt lat="47.9895" lon="7.12371">
        <ele>1073.63</ele>
        <time>2021-06-23T12:18:44Z</time>
      </trkpt>
      <trkpt lat="47.98972" lon="7.12344">
        <ele>1075.85</ele>
        <time>2021-06-23T12:18:48Z</time>
      </trkpt>
      <trkpt lat="47.99006" lon="7.12323">
        <ele>1084.14</ele>
        <time>2021-06-23T12:18:52Z</time>
      </trkpt>
      <trkpt lat="47.99097" lon="7.12333">
        <ele>1092.03</ele>
        <time>2021-06-23T12:18:56Z</time>
      </trkpt>
      <trkpt lat="47.99116" lon="7.12331">
        <ele>1092.5</ele>
        <time>2021-06-23T12:19:00Z</time>
      </trkpt>
      <trkpt lat="47.99149" lon="7.12307">
        <ele>1096.95</ele>
        <time>2021-06-23T12:19:04Z</time>
      </trkpt>
      <trkpt lat="47.99202" lon="7.12257">
        <ele>1103.4</ele>
        <time>2021-06-23T12:19:08Z</time>
      </trkpt>
      <trkpt lat="47.99204" lon="7.12249">
        <ele>1104.41</ele>
        <time>2021-06-23T12:19:12Z</time>
      </trkpt>
      <trkpt lat="47.99203" lon="7.1224">
        <ele>1104.94</ele>
        <time>2021-06-23T12:19:16Z</time>
      </trkpt>
      <trkpt lat="47.99193" lon="7.12226">
        <ele>1106.86</ele>
        <time>2021-06-23T12:19:20Z</time>
      </trkpt>
      <trkpt lat="47.99177" lon="7.12212">
        <ele>1107.81</ele>
        <time>2021-06-23T12:19:24Z</time>
      </trkpt>
      <trkpt lat="47.99111" lon="7.12184">
        <ele>1112</ele>
        <time>2021-06-23T12:19:28Z</time>
      </trkpt>
      <trkpt lat="47.9903" lon="7.12126">
        <ele>1119.56</ele>
        <time>2021-06-23T12:19:32Z</time>
      </trkpt>
      <trkpt lat="47.99006" lon="7.12115">
        <ele>1121.3</ele>
        <time>2021-06-23T12:19:37Z</time>
      </trkpt>
      <trkpt lat="47.9897" lon="7.12109">
        <ele>1122.39</ele>
        <time>2021-06-23T12:19:41Z</time>
      </trkpt>
      <trkpt lat="47.98944" lon="7.12101">
        <ele>1124.53</ele>
        <time>2021-06-23T12:19:45Z</time>
      </trkpt>
      <trkpt lat="47.98909" lon="7.12075">
        <ele>1129.25</ele>
        <time>2021-06-23T12:19:49Z</time>
      </trkpt>
      <trkpt lat="47.98882" lon="7.12061">
        <ele>1131.21</ele>
        <time>2021-06-23T12:19:53Z</time>
      </trkpt>
      <trkpt lat="47.9883" lon="7.12042">
        <ele>1137.75</ele>
        <time>2021-06-23T12:19:57Z</time>
      </trkpt>
      <trkpt lat="47.98808" lon="7.12039">
        <ele>1139.8</ele>
        <time>2021-06-23T12:20:01Z</time>
      </trkpt>
      <trkpt lat="47.98736" lon="7.12061">
        <ele>1140.16</ele>
        <time>2021-06-23T12:20:05Z</time>
      </trkpt>
      <trkpt lat="47.98669" lon="7.12074">
        <ele>1145.3</ele>
        <time>2021-06-23T12:20:09Z</time>
      </trkpt>
      <trkpt lat="47.98536" lon="7.12095">
        <ele>1159.33</ele>
        <time>2021-06-23T12:20:13Z</time>
      </trkpt>
      <trkpt lat="47.98518" lon="7.121">
        <ele>1161.54</ele>
        <time>2021-06-23T12:20:17Z</time>
      </trkpt>
      <trkpt lat="47.98511" lon="7.12097">
        <ele>1162.28</ele>
        <time>2021-06-23T12:20:21Z</time>
      </trkpt>
      <trkpt lat="47.98505" lon="7.12083">
        <ele>1162.61</ele>
        <time>2021-06-23T12:20:24Z</time>
      </trkpt>
      <trkpt lat="47.98502" lon="7.12064">
        <ele>1160.83</ele>
        <time>2021-06-23T12:20:27Z</time>
      </trkpt>
      <trkpt lat="47.98499" lon="7.12054">
        <ele>1159.97</ele>
        <time>2021-06-23T12:20:30Z</time>
      </trkpt>
      <trkpt lat="47.98484" lon="7.12038">
        <ele>1159.54</ele>
        <time>2021-06-23T12:20:32Z</time>
      </trkpt>
      <trkpt lat="47.98473" lon="7.12032">
        <ele>1159.45</ele>
        <time>2021-06-23T12:20:35Z</time>
      </trkpt>
      <trkpt lat="47.98442" lon="7.12026">
        <ele>1157.4</ele>
        <time>2021-06-23T12:20:38Z</time>
      </trkpt>
      <trkpt lat="47.98423" lon="7.12027">
        <ele>1156.18</ele>
        <time>2021-06-23T12:20:41Z</time>
      </trkpt>
      <trkpt lat="47.98389" lon="7.12031">
        <ele>1153.63</ele>
        <time>2021-06-23T12:20:44Z</time>
      </trkpt>
      <trkpt lat="47.98342" lon="7.12042">
        <ele>1157.32</ele>
        <time>2021-06-23T12:20:47Z</time>
      </trkpt>
      <trkpt lat="47.98323" lon="7.12042">
        <ele>1157.25</ele>
        <time>2021-06-23T12:20:50Z</time>
      </trkpt>
      <trkpt lat="47.98289" lon="7.12034">
        <ele>1153.92</ele>
        <time>2021-06-23T12:20:52Z</time>
      </trkpt>
      <trkpt lat="47.98266" lon="7.12024">
        <ele>1151.01</ele>
        <time>2021-06-23T12:20:55Z</time>
      </trkpt>
      <trkpt lat="47.9823" lon="7.12004">
        <ele>1145.7</ele>
        <time>2021-06-23T12:20:58Z</time>
      </trkpt>
      <trkpt lat="47.98203" lon="7.11997">
        <ele>1144.89</ele>
        <time>2021-06-23T12:21:01Z</time>
      </trkpt>
      <trkpt lat="47.98168" lon="7.11991">
        <ele>1142.75</ele>
        <time>2021-06-23T12:21:04Z</time>
      </trkpt>
      <trkpt lat="47.98147" lon="7.1199">
        <ele>1141.52</ele>
        <time>2021-06-23T12:21:07Z</time>
      </trkpt>
      <trkpt lat="47.98117" lon="7.11975">
        <ele>1139.89</ele>
        <time>2021-06-23T12:21:09Z</time>
      </trkpt>
      <trkpt lat="47.98107" lon="7.11966">
        <ele>1141.06</ele>
        <time>2021-06-23T12:21:11Z</time>
      </trkpt>
      <trkpt lat="47.98097" lon="7.11951">
        <ele>1142.93</ele>
        <time>2021-06-23T12:21:14Z</time>
      </trkpt>
      <trkpt lat="47.98084" lon="7.11923">
        <ele>1141.29</ele>
        <time>2021-06-23T12:21:16Z</time>
      </trkpt>
      <trkpt lat="47.98084" lon="7.11923">
        <ele>1141.29</ele>
        <time>2021-06-23T12:21:16Z</time>
      </trkpt>
      <trkpt lat="47.98054" lon="7.11856">
        <ele>1139.65</ele>
        <time>2021-06-23T12:21:22Z</time>
      </trkpt>
      <trkpt lat="47.98043" lon="7.1184">
        <ele>1139.96</ele>
        <time>2021-06-23T12:21:26Z</time>
      </trkpt>
      <trkpt lat="47.98015" lon="7.11812">
        <ele>1141.63</ele>
        <time>2021-06-23T12:21:29Z</time>
      </trkpt>
      <trkpt lat="47.9801" lon="7.11802">
        <ele>1141.57</ele>
        <time>2021-06-23T12:21:33Z</time>
      </trkpt>
      <trkpt lat="47.98009" lon="7.1179">
        <ele>1140.1</ele>
        <time>2021-06-23T12:21:37Z</time>
      </trkpt>
      <trkpt lat="47.98012" lon="7.11774">
        <ele>1136.77</ele>
        <time>2021-06-23T12:21:41Z</time>
      </trkpt>
      <trkpt lat="47.98026" lon="7.11739">
        <ele>1130.39</ele>
        <time>2021-06-23T12:21:44Z</time>
      </trkpt>
      <trkpt lat="47.9803" lon="7.1172">
        <ele>1129.05</ele>
        <time>2021-06-23T12:21:48Z</time>
      </trkpt>
      <trkpt lat="47.98032" lon="7.11686">
        <ele>1126.73</ele>
        <time>2021-06-23T12:21:52Z</time>
      </trkpt>
      <trkpt lat="47.98031" lon="7.11615">
        <ele>1122.89</ele>
        <time>2021-06-23T12:21:56Z</time>
      </trkpt>
      <trkpt lat="47.98033" lon="7.11564">
        <ele>1123.81</ele>
        <time>2021-06-23T12:21:59Z</time>
      </trkpt>
      <trkpt lat="47.98039" lon="7.11484">
        <ele>1121.22</ele>
        <time>2021-06-23T12:22:03Z</time>
      </trkpt>
      <trkpt lat="47.98039" lon="7.11411">
        <ele>1114.82</ele>
        <time>2021-06-23T12:22:07Z</time>
      </trkpt>
      <trkpt lat="47.98032" lon="7.11328">
        <ele>1110.85</ele>
        <time>2021-06-23T12:22:10Z</time>
      </trkpt>
      <trkpt lat="47.98022" lon="7.11247">
        <ele>1108.71</ele>
        <time>2021-06-23T12:22:14Z</time>
      </trkpt>
      <trkpt lat="47.98016" lon="7.11166">
        <ele>1102.15</ele>
        <time>2021-06-23T12:22:18Z</time>
      </trkpt>
      <trkpt lat="47.98017" lon="7.11126">
        <ele>1100.52</ele>
        <time>2021-06-23T12:22:22Z</time>
      </trkpt>
      <trkpt lat="47.9802" lon="7.1108">
        <ele>1096.07</ele>
        <time>2021-06-23T12:22:25Z</time>
      </trkpt>
      <trkpt lat="47.98023" lon="7.11038">
        <ele>1093.64</ele>
        <time>2021-06-23T12:22:30Z</time>
      </trkpt>
      <trkpt lat="47.98032" lon="7.10961">
        <ele>1091.16</ele>
        <time>2021-06-23T12:22:35Z</time>
      </trkpt>
      <trkpt lat="47.98035" lon="7.10929">
        <ele>1089.75</ele>
        <time>2021-06-23T12:22:39Z</time>
      </trkpt>
      <trkpt lat="47.98035" lon="7.10854">
        <ele>1087.93</ele>
        <time>2021-06-23T12:22:44Z</time>
      </trkpt>
      <trkpt lat="47.9803" lon="7.10761">
        <ele>1085.07</ele>
        <time>2021-06-23T12:22:48Z</time>
      </trkpt>
      <trkpt lat="47.98025" lon="7.10618">
        <ele>1071.53</ele>
        <time>2021-06-23T12:22:53Z</time>
      </trkpt>
      <trkpt lat="47.97998" lon="7.10462">
        <ele>1065.1</ele>
        <time>2021-06-23T12:22:57Z</time>
      </trkpt>
      <trkpt lat="47.97981" lon="7.10349">
        <ele>1060.05</ele>
        <time>2021-06-23T12:23:02Z</time>
      </trkpt>
      <trkpt lat="47.97981" lon="7.10309">
        <ele>1051.97</ele>
        <time>2021-06-23T12:23:07Z</time>
      </trkpt>
      <trkpt lat="47.97986" lon="7.10256">
        <ele>1047.76</ele>
        <time>2021-06-23T12:23:11Z</time>
      </trkpt>
      <trkpt lat="47.97986" lon="7.10217">
        <ele>1045.57</ele>
        <time>2021-06-23T12:23:16Z</time>
      </trkpt>
      <trkpt lat="47.97985" lon="7.10184">
        <ele>1043.4</ele>
        <time>2021-06-23T12:23:20Z</time>
      </trkpt>
      <trkpt lat="47.97963" lon="7.10066">
        <ele>1035.89</ele>
        <time>2021-06-23T12:23:25Z</time>
      </trkpt>
      <trkpt lat="47.97958" lon="7.10048">
        <ele>1034.32</ele>
        <time>2021-06-23T12:23:29Z</time>
      </trkpt>
      <trkpt lat="47.97949" lon="7.10022">
        <ele>1030.85</ele>
        <time>2021-06-23T12:23:34Z</time>
      </trkpt>
      <trkpt lat="47.9794" lon="7.10003">
        <ele>1029.11</ele>
        <time>2021-06-23T12:23:39Z</time>
      </trkpt>
      <trkpt lat="47.97926" lon="7.09985">
        <ele>1027.6</ele>
        <time>2021-06-23T12:23:43Z</time>
      </trkpt>
      <trkpt lat="47.97901" lon="7.09969">
        <ele>1026.23</ele>
        <time>2021-06-23T12:23:48Z</time>
      </trkpt>
      <trkpt lat="47.97878" lon="7.09961">
        <ele>1025.38</ele>
        <time>2021-06-23T12:23:52Z</time>
      </trkpt>
      <trkpt lat="47.97831" lon="7.0995">
        <ele>1025.34</ele>
        <time>2021-06-23T12:23:57Z</time>
      </trkpt>
      <trkpt lat="47.97744" lon="7.09906">
        <ele>1017.43</ele>
        <time>2021-06-23T12:24:02Z</time>
      </trkpt>
      <trkpt lat="47.97687" lon="7.09869">
        <ele>1014.46</ele>
        <time>2021-06-23T12:24:06Z</time>
      </trkpt>
      <trkpt lat="47.97664" lon="7.09851">
        <ele>1011.27</ele>
        <time>2021-06-23T12:24:11Z</time>
      </trkpt>
      <trkpt lat="47.97566" lon="7.09746">
        <ele>1005.39</ele>
        <time>2021-06-23T12:24:15Z</time>
      </trkpt>
      <trkpt lat="47.9755" lon="7.09731">
        <ele>1006.76</ele>
        <time>2021-06-23T12:24:20Z</time>
      </trkpt>
      <trkpt lat="47.97545" lon="7.09723">
        <ele>1006.68</ele>
        <time>2021-06-23T12:24:24Z</time>
      </trkpt>
      <trkpt lat="47.97544" lon="7.09717">
        <ele>1006.08</ele>
        <time>2021-06-23T12:24:29Z</time>
      </trkpt>
      <trkpt lat="47.97547" lon="7.09712">
        <ele>1005.17</ele>
        <time>2021-06-23T12:24:34Z</time>
      </trkpt>
      <trkpt lat="47.97553" lon="7.09708">
        <ele>1003.93</ele>
        <time>2021-06-23T12:24:38Z</time>
      </trkpt>
      <trkpt lat="47.97558" lon="7.0971">
        <ele>1003.13</ele>
        <time>2021-06-23T12:24:43Z</time>
      </trkpt>
      <trkpt lat="47.97571" lon="7.09721">
        <ele>1001.56</ele>
        <time>2021-06-23T12:24:47Z</time>
      </trkpt>
      <trkpt lat="47.97602" lon="7.09741">
        <ele>997.56</ele>
        <time>2021-06-23T12:24:52Z</time>
      </trkpt>
      <trkpt lat="47.97724" lon="7.09763">
        <ele>986.49</ele>
        <time>2021-06-23T12:24:56Z</time>
      </trkpt>
      <trkpt lat="47.9778" lon="7.09765">
        <ele>980.1</ele>
        <time>2021-06-23T12:25:01Z</time>
      </trkpt>
      <trkpt lat="47.97825" lon="7.09781">
        <ele>978.73</ele>
        <time>2021-06-23T12:25:06Z</time>
      </trkpt>
      <trkpt lat="47.97832" lon="7.09777">
        <ele>976.91</ele>
        <time>2021-06-23T12:25:10Z</time>
      </trkpt>
      <trkpt lat="47.97835" lon="7.0977">
        <ele>975.08</ele>
        <time>2021-06-23T12:25:15Z</time>
      </trkpt>
      <trkpt lat="47.97835" lon="7.09764">
        <ele>973.91</ele>
        <time>2021-06-23T12:25:19Z</time>
      </trkpt>
      <trkpt lat="47.97833" lon="7.09759">
        <ele>973.08</ele>
        <time>2021-06-23T12:25:24Z</time>
      </trkpt>
      <trkpt lat="47.97824" lon="7.09751">
        <ele>972.37</ele>
        <time>2021-06-23T12:25:29Z</time>
      </trkpt>
      <trkpt lat="47.97767" lon="7.09728">
        <ele>973.01</ele>
        <time>2021-06-23T12:25:33Z</time>
      </trkpt>
      <trkpt lat="47.97685" lon="7.0968">
        <ele>976.45</ele>
        <time>2021-06-23T12:25:38Z</time>
      </trkpt>
      <trkpt lat="47.97638" lon="7.09642">
        <ele>970.16</ele>
        <time>2021-06-23T12:25:42Z</time>
      </trkpt>
      <trkpt lat="47.97583" lon="7.09586">
        <ele>962.41</ele>
        <time>2021-06-23T12:25:47Z</time>
      </trkpt>
      <trkpt lat="47.97557" lon="7.0955">
        <ele>958.27</ele>
        <time>2021-06-23T12:25:51Z</time>
      </trkpt>
      <trkpt lat="47.97545" lon="7.0954">
        <ele>957.21</ele>
        <time>2021-06-23T12:25:56Z</time>
      </trkpt>
      <trkpt lat="47.97514" lon="7.09527">
        <ele>958.93</ele>
        <time>2021-06-23T12:26:01Z</time>
      </trkpt>
      <trkpt lat="47.97481" lon="7.09506">
        <ele>959.55</ele>
        <time>2021-06-23T12:26:05Z</time>
      </trkpt>
      <trkpt lat="47.97453" lon="7.09483">
        <ele>959.96</ele>
        <time>2021-06-23T12:26:10Z</time>
      </trkpt>
      <trkpt lat="47.97435" lon="7.09459">
        <ele>958.98</ele>
        <time>2021-06-23T12:26:14Z</time>
      </trkpt>
      <trkpt lat="47.97417" lon="7.09425">
        <ele>958.1</ele>
        <time>2021-06-23T12:26:19Z</time>
      </trkpt>
      <trkpt lat="47.97404" lon="7.09392">
        <ele>954.58</ele>
        <time>2021-06-23T12:26:23Z</time>
      </trkpt>
      <trkpt lat="47.97381" lon="7.09322">
        <ele>947.16</ele>
        <time>2021-06-23T12:26:28Z</time>
      </trkpt>
      <trkpt lat="47.97364" lon="7.09261">
        <ele>942.31</ele>
        <time>2021-06-23T12:26:33Z</time>
      </trkpt>
      <trkpt lat="47.97353" lon="7.092">
        <ele>946.91</ele>
        <time>2021-06-23T12:26:37Z</time>
      </trkpt>
      <trkpt lat="47.9733" lon="7.09054">
        <ele>954</ele>
        <time>2021-06-23T12:26:42Z</time>
      </trkpt>
      <trkpt lat="47.97327" lon="7.09009">
        <ele>952.4</ele>
        <time>2021-06-23T12:26:46Z</time>
      </trkpt>
      <trkpt lat="47.97327" lon="7.08953">
        <ele>948.38</ele>
        <time>2021-06-23T12:26:51Z</time>
      </trkpt>
      <trkpt lat="47.97335" lon="7.0891">
        <ele>945.47</ele>
        <time>2021-06-23T12:26:55Z</time>
      </trkpt>
      <trkpt lat="47.97335" lon="7.0891">
        <ele>945.47</ele>
        <time>2021-06-23T12:26:55Z</time>
      </trkpt>
      <trkpt lat="47.97337" lon="7.08905">
        <ele>945.07</ele>
        <time>2021-06-23T12:27:00Z</time>
      </trkpt>
      <trkpt lat="47.97346" lon="7.08889">
        <ele>943.31</ele>
        <time>2021-06-23T12:27:04Z</time>
      </trkpt>
      <trkpt lat="47.97356" lon="7.08885">
        <ele>941.11</ele>
        <time>2021-06-23T12:27:08Z</time>
      </trkpt>
      <trkpt lat="47.97432" lon="7.08893">
        <ele>932.82</ele>
        <time>2021-06-23T12:27:12Z</time>
      </trkpt>
      <trkpt lat="47.97506" lon="7.08908">
        <ele>921.41</ele>
        <time>2021-06-23T12:27:16Z</time>
      </trkpt>
      <trkpt lat="47.97537" lon="7.08893">
        <ele>924.17</ele>
        <time>2021-06-23T12:27:20Z</time>
      </trkpt>
      <trkpt lat="47.97551" lon="7.08881">
        <ele>924.81</ele>
        <time>2021-06-23T12:27:24Z</time>
      </trkpt>
      <trkpt lat="47.97565" lon="7.08849">
        <ele>922.8</ele>
        <time>2021-06-23T12:27:28Z</time>
      </trkpt>
      <trkpt lat="47.97579" lon="7.08811">
        <ele>912.65</ele>
        <time>2021-06-23T12:27:32Z</time>
      </trkpt>
      <trkpt lat="47.97591" lon="7.0877">
        <ele>905.87</ele>
        <time>2021-06-23T12:27:36Z</time>
      </trkpt>
      <trkpt lat="47.97594" lon="7.08725">
        <ele>911.82</ele>
        <time>2021-06-23T12:27:40Z</time>
      </trkpt>
      <trkpt lat="47.97599" lon="7.08712">
        <ele>912.19</ele>
        <time>2021-06-23T12:27:44Z</time>
      </trkpt>
      <trkpt lat="47.97625" lon="7.0868">
        <ele>913.38</ele>
        <time>2021-06-23T12:27:48Z</time>
      </trkpt>
      <trkpt lat="47.97667" lon="7.08635">
        <ele>918.03</ele>
        <time>2021-06-23T12:27:52Z</time>
      </trkpt>
      <trkpt lat="47.97712" lon="7.08608">
        <ele>914.33</ele>
        <time>2021-06-23T12:27:56Z</time>
      </trkpt>
      <trkpt lat="47.9779" lon="7.08583">
        <ele>905.57</ele>
        <time>2021-06-23T12:28:00Z</time>
      </trkpt>
      <trkpt lat="47.9782" lon="7.08579">
        <ele>900.71</ele>
        <time>2021-06-23T12:28:04Z</time>
      </trkpt>
      <trkpt lat="47.97895" lon="7.0859">
        <ele>897.7</ele>
        <time>2021-06-23T12:28:08Z</time>
      </trkpt>
      <trkpt lat="47.97913" lon="7.08584">
        <ele>897.2</ele>
        <time>2021-06-23T12:28:13Z</time>
      </trkpt>
      <trkpt lat="47.97929" lon="7.08565">
        <ele>896.3</ele>
        <time>2021-06-23T12:28:17Z</time>
      </trkpt>
      <trkpt lat="47.97941" lon="7.08542">
        <ele>894.85</ele>
        <time>2021-06-23T12:28:21Z</time>
      </trkpt>
      <trkpt lat="47.97952" lon="7.08508">
        <ele>891.18</ele>
        <time>2021-06-23T12:28:25Z</time>
      </trkpt>
      <trkpt lat="47.97989" lon="7.08307">
        <ele>880.61</ele>
        <time>2021-06-23T12:28:29Z</time>
      </trkpt>
      <trkpt lat="47.98021" lon="7.08199">
        <ele>872.3</ele>
        <time>2021-06-23T12:28:33Z</time>
      </trkpt>
      <trkpt lat="47.98067" lon="7.0799">
        <ele>861.57</ele>
        <time>2021-06-23T12:28:37Z</time>
      </trkpt>
      <trkpt lat="47.98071" lon="7.07963">
        <ele>858.86</ele>
        <time>2021-06-23T12:28:41Z</time>
      </trkpt>
      <trkpt lat="47.9807" lon="7.07935">
        <ele>856.73</ele>
        <time>2021-06-23T12:28:45Z</time>
      </trkpt>
      <trkpt lat="47.98067" lon="7.07909">
        <ele>856.26</ele>
        <time>2021-06-23T12:28:49Z</time>
      </trkpt>
      <trkpt lat="47.9806" lon="7.07885">
        <ele>856.95</ele>
        <time>2021-06-23T12:28:53Z</time>
      </trkpt>
      <trkpt lat="47.98043" lon="7.07837">
        <ele>862.54</ele>
        <time>2021-06-23T12:28:57Z</time>
      </trkpt>
      <trkpt lat="47.98043" lon="7.07831">
        <ele>862.85</ele>
        <time>2021-06-23T12:29:01Z</time>
      </trkpt>
      <trkpt lat="47.98045" lon="7.07826">
        <ele>862.68</ele>
        <time>2021-06-23T12:29:05Z</time>
      </trkpt>
      <trkpt lat="47.9805" lon="7.07825">
        <ele>861.1</ele>
        <time>2021-06-23T12:29:09Z</time>
      </trkpt>
      <trkpt lat="47.98056" lon="7.07827">
        <ele>859.44</ele>
        <time>2021-06-23T12:29:13Z</time>
      </trkpt>
      <trkpt lat="47.98072" lon="7.07854">
        <ele>854.91</ele>
        <time>2021-06-23T12:29:17Z</time>
      </trkpt>
      <trkpt lat="47.98111" lon="7.079">
        <ele>849.04</ele>
        <time>2021-06-23T12:29:21Z</time>
      </trkpt>
      <trkpt lat="47.98119" lon="7.07917">
        <ele>847.54</ele>
        <time>2021-06-23T12:29:25Z</time>
      </trkpt>
      <trkpt lat="47.98144" lon="7.08046">
        <ele>846.58</ele>
        <time>2021-06-23T12:29:30Z</time>
      </trkpt>
      <trkpt lat="47.98147" lon="7.08075">
        <ele>845.73</ele>
        <time>2021-06-23T12:29:34Z</time>
      </trkpt>
      <trkpt lat="47.98151" lon="7.08089">
        <ele>844.51</ele>
        <time>2021-06-23T12:29:38Z</time>
      </trkpt>
      <trkpt lat="47.98156" lon="7.08098">
        <ele>843.09</ele>
        <time>2021-06-23T12:29:42Z</time>
      </trkpt>
      <trkpt lat="47.98162" lon="7.08098">
        <ele>841.58</ele>
        <time>2021-06-23T12:29:46Z</time>
      </trkpt>
      <trkpt lat="47.98166" lon="7.08092">
        <ele>840.38</ele>
        <time>2021-06-23T12:29:51Z</time>
      </trkpt>
      <trkpt lat="47.98166" lon="7.08076">
        <ele>839.85</ele>
        <time>2021-06-23T12:29:56Z</time>
      </trkpt>
      <trkpt lat="47.98158" lon="7.07978">
        <ele>838.76</ele>
        <time>2021-06-23T12:30:01Z</time>
      </trkpt>
      <trkpt lat="47.98149" lon="7.07816">
        <ele>836.38</ele>
        <time>2021-06-23T12:30:06Z</time>
      </trkpt>
      <trkpt lat="47.98143" lon="7.07785">
        <ele>835.4</ele>
        <time>2021-06-23T12:30:11Z</time>
      </trkpt>
      <trkpt lat="47.98136" lon="7.07756">
        <ele>834.87</ele>
        <time>2021-06-23T12:30:17Z</time>
      </trkpt>
      <trkpt lat="47.98128" lon="7.0774">
        <ele>835.78</ele>
        <time>2021-06-23T12:30:22Z</time>
      </trkpt>
      <trkpt lat="47.9812" lon="7.07726">
        <ele>836.39</ele>
        <time>2021-06-23T12:30:27Z</time>
      </trkpt>
      <trkpt lat="47.98076" lon="7.07669">
        <ele>834.77</ele>
        <time>2021-06-23T12:30:32Z</time>
      </trkpt>
      <trkpt lat="47.98063" lon="7.07643">
        <ele>835.02</ele>
        <time>2021-06-23T12:30:37Z</time>
      </trkpt>
      <trkpt lat="47.98058" lon="7.07617">
        <ele>834.39</ele>
        <time>2021-06-23T12:30:42Z</time>
      </trkpt>
      <trkpt lat="47.98057" lon="7.07585">
        <ele>831.66</ele>
        <time>2021-06-23T12:30:47Z</time>
      </trkpt>
      <trkpt lat="47.98061" lon="7.07522">
        <ele>823.11</ele>
        <time>2021-06-23T12:30:52Z</time>
      </trkpt>
      <trkpt lat="47.98041" lon="7.0741">
        <ele>817.72</ele>
        <time>2021-06-23T12:30:58Z</time>
      </trkpt>
      <trkpt lat="47.98031" lon="7.0738">
        <ele>816.05</ele>
        <time>2021-06-23T12:31:03Z</time>
      </trkpt>
      <trkpt lat="47.98033" lon="7.07369">
        <ele>813.39</ele>
        <time>2021-06-23T12:31:08Z</time>
      </trkpt>
      <trkpt lat="47.98039" lon="7.07362">
        <ele>811.22</ele>
        <time>2021-06-23T12:31:13Z</time>
      </trkpt>
      <trkpt lat="47.9805" lon="7.07365">
        <ele>809.36</ele>
        <time>2021-06-23T12:31:18Z</time>
      </trkpt>
      <trkpt lat="47.98062" lon="7.07378">
        <ele>807.62</ele>
        <time>2021-06-23T12:31:23Z</time>
      </trkpt>
      <trkpt lat="47.98068" lon="7.07404">
        <ele>807.92</ele>
        <time>2021-06-23T12:31:28Z</time>
      </trkpt>
      <trkpt lat="47.98073" lon="7.07449">
        <ele>809.78</ele>
        <time>2021-06-23T12:31:34Z</time>
      </trkpt>
      <trkpt lat="47.98103" lon="7.07542">
        <ele>808.68</ele>
        <time>2021-06-23T12:31:39Z</time>
      </trkpt>
      <trkpt lat="47.9811" lon="7.0756">
        <ele>808.59</ele>
        <time>2021-06-23T12:31:44Z</time>
      </trkpt>
      <trkpt lat="47.98124" lon="7.07575">
        <ele>806.77</ele>
        <time>2021-06-23T12:31:49Z</time>
      </trkpt>
      <trkpt lat="47.98137" lon="7.0758">
        <ele>804.73</ele>
        <time>2021-06-23T12:31:54Z</time>
      </trkpt>
      <trkpt lat="47.98152" lon="7.07577">
        <ele>803.02</ele>
        <time>2021-06-23T12:31:59Z</time>
      </trkpt>
      <trkpt lat="47.98175" lon="7.0756">
        <ele>799.78</ele>
        <time>2021-06-23T12:32:04Z</time>
      </trkpt>
      <trkpt lat="47.98188" lon="7.07545">
        <ele>796.79</ele>
        <time>2021-06-23T12:32:09Z</time>
      </trkpt>
      <trkpt lat="47.98216" lon="7.07483">
        <ele>786.41</ele>
        <time>2021-06-23T12:32:15Z</time>
      </trkpt>
      <trkpt lat="47.98227" lon="7.07468">
        <ele>784.32</ele>
        <time>2021-06-23T12:32:20Z</time>
      </trkpt>
      <trkpt lat="47.9824" lon="7.07456">
        <ele>782.53</ele>
        <time>2021-06-23T12:32:25Z</time>
      </trkpt>
      <trkpt lat="47.98295" lon="7.07419">
        <ele>777.72</ele>
        <time>2021-06-23T12:32:30Z</time>
      </trkpt>
      <trkpt lat="47.98312" lon="7.0741">
        <ele>775.31</ele>
        <time>2021-06-23T12:32:35Z</time>
      </trkpt>
      <trkpt lat="47.98331" lon="7.07405">
        <ele>774.47</ele>
        <time>2021-06-23T12:32:40Z</time>
      </trkpt>
      <trkpt lat="47.98348" lon="7.07405">
        <ele>771.92</ele>
        <time>2021-06-23T12:32:45Z</time>
      </trkpt>
      <trkpt lat="47.98367" lon="7.07413">
        <ele>770.91</ele>
        <time>2021-06-23T12:32:51Z</time>
      </trkpt>
      <trkpt lat="47.98425" lon="7.07458">
        <ele>774.03</ele>
        <time>2021-06-23T12:32:56Z</time>
      </trkpt>
      <trkpt lat="47.98447" lon="7.07469">
        <ele>774.65</ele>
        <time>2021-06-23T12:33:01Z</time>
      </trkpt>
      <trkpt lat="47.98511" lon="7.07484">
        <ele>764.99</ele>
        <time>2021-06-23T12:33:06Z</time>
      </trkpt>
      <trkpt lat="47.98541" lon="7.07501">
        <ele>761.71</ele>
        <time>2021-06-23T12:33:11Z</time>
      </trkpt>
      <trkpt lat="47.98585" lon="7.07546">
        <ele>757.73</ele>
        <time>2021-06-23T12:33:16Z</time>
      </trkpt>
      <trkpt lat="47.98635" lon="7.07583">
        <ele>752.44</ele>
        <time>2021-06-23T12:33:21Z</time>
      </trkpt>
      <trkpt lat="47.98724" lon="7.07639">
        <ele>745.44</ele>
        <time>2021-06-23T12:33:26Z</time>
      </trkpt>
      <trkpt lat="47.98769" lon="7.07671">
        <ele>737.27</ele>
        <time>2021-06-23T12:33:32Z</time>
      </trkpt>
      <trkpt lat="47.98818" lon="7.07724">
        <ele>733.48</ele>
        <time>2021-06-23T12:33:37Z</time>
      </trkpt>
      <trkpt lat="47.98842" lon="7.07738">
        <ele>733.74</ele>
        <time>2021-06-23T12:33:42Z</time>
      </trkpt>
      <trkpt lat="47.9893" lon="7.07772">
        <ele>728.04</ele>
        <time>2021-06-23T12:33:47Z</time>
      </trkpt>
      <trkpt lat="47.9904" lon="7.07791">
        <ele>718.28</ele>
        <time>2021-06-23T12:33:52Z</time>
      </trkpt>
      <trkpt lat="47.99064" lon="7.07793">
        <ele>713.62</ele>
        <time>2021-06-23T12:33:57Z</time>
      </trkpt>
      <trkpt lat="47.99089" lon="7.07792">
        <ele>710.67</ele>
        <time>2021-06-23T12:34:02Z</time>
      </trkpt>
      <trkpt lat="47.99113" lon="7.07784">
        <ele>709.69</ele>
        <time>2021-06-23T12:34:08Z</time>
      </trkpt>
      <trkpt lat="47.99154" lon="7.07765">
        <ele>707.6</ele>
        <time>2021-06-23T12:34:13Z</time>
      </trkpt>
      <trkpt lat="47.99186" lon="7.07741">
        <ele>706.53</ele>
        <time>2021-06-23T12:34:18Z</time>
      </trkpt>
      <trkpt lat="47.9924" lon="7.0769">
        <ele>699.05</ele>
        <time>2021-06-23T12:34:23Z</time>
      </trkpt>
      <trkpt lat="47.99246" lon="7.07679">
        <ele>697.66</ele>
        <time>2021-06-23T12:34:28Z</time>
      </trkpt>
      <trkpt lat="47.99248" lon="7.07668">
        <ele>697.37</ele>
        <time>2021-06-23T12:34:33Z</time>
      </trkpt>
      <trkpt lat="47.99245" lon="7.07655">
        <ele>697.86</ele>
        <time>2021-06-23T12:34:38Z</time>
      </trkpt>
      <trkpt lat="47.99236" lon="7.07646">
        <ele>698.27</ele>
        <time>2021-06-23T12:34:43Z</time>
      </trkpt>
      <trkpt lat="47.99193" lon="7.07638">
        <ele>698.37</ele>
        <time>2021-06-23T12:34:49Z</time>
      </trkpt>
      <trkpt lat="47.99175" lon="7.07638">
        <ele>695.19</ele>
        <time>2021-06-23T12:34:54Z</time>
      </trkpt>
      <trkpt lat="47.99099" lon="7.07657">
        <ele>691.02</ele>
        <time>2021-06-23T12:34:59Z</time>
      </trkpt>
      <trkpt lat="47.99065" lon="7.07656">
        <ele>693.11</ele>
        <time>2021-06-23T12:35:04Z</time>
      </trkpt>
      <trkpt lat="47.99" lon="7.07633">
        <ele>691.8</ele>
        <time>2021-06-23T12:35:09Z</time>
      </trkpt>
      <trkpt lat="47.98967" lon="7.07613">
        <ele>687.99</ele>
        <time>2021-06-23T12:35:14Z</time>
      </trkpt>
      <trkpt lat="47.98913" lon="7.07568">
        <ele>681.74</ele>
        <time>2021-06-23T12:35:19Z</time>
      </trkpt>
      <trkpt lat="47.9876" lon="7.07421">
        <ele>674.16</ele>
        <time>2021-06-23T12:35:25Z</time>
      </trkpt>
      <trkpt lat="47.98561" lon="7.07262">
        <ele>669.73</ele>
        <time>2021-06-23T12:35:30Z</time>
      </trkpt>
      <trkpt lat="47.98399" lon="7.07151">
        <ele>654.51</ele>
        <time>2021-06-23T12:35:35Z</time>
      </trkpt>
      <trkpt lat="47.9833" lon="7.07081">
        <ele>652.99</ele>
        <time>2021-06-23T12:35:40Z</time>
      </trkpt>
      <trkpt lat="47.98263" lon="7.07025">
        <ele>647.01</ele>
        <time>2021-06-23T12:35:45Z</time>
      </trkpt>
      <trkpt lat="47.9822" lon="7.06984">
        <ele>641.55</ele>
        <time>2021-06-23T12:35:50Z</time>
      </trkpt>
      <trkpt lat="47.98165" lon="7.06913">
        <ele>636.63</ele>
        <time>2021-06-23T12:35:55Z</time>
      </trkpt>
      <trkpt lat="47.98126" lon="7.06858">
        <ele>631.93</ele>
        <time>2021-06-23T12:36:00Z</time>
      </trkpt>
      <trkpt lat="47.9812" lon="7.06841">
        <ele>629.51</ele>
        <time>2021-06-23T12:36:06Z</time>
      </trkpt>
      <trkpt lat="47.98119" lon="7.06831">
        <ele>626.98</ele>
        <time>2021-06-23T12:36:11Z</time>
      </trkpt>
      <trkpt lat="47.98121" lon="7.06819">
        <ele>623.77</ele>
        <time>2021-06-23T12:36:16Z</time>
      </trkpt>
      <trkpt lat="47.98131" lon="7.06797">
        <ele>618.22</ele>
        <time>2021-06-23T12:36:21Z</time>
      </trkpt>
      <trkpt lat="47.98148" lon="7.06775">
        <ele>615.2</ele>
        <time>2021-06-23T12:36:26Z</time>
      </trkpt>
      <trkpt lat="47.98162" lon="7.06763">
        <ele>614.17</ele>
        <time>2021-06-23T12:36:31Z</time>
      </trkpt>
      <trkpt lat="47.98284" lon="7.06746">
        <ele>615.05</ele>
        <time>2021-06-23T12:36:36Z</time>
      </trkpt>
      <trkpt lat="47.98302" lon="7.06747">
        <ele>615.63</ele>
        <time>2021-06-23T12:36:42Z</time>
      </trkpt>
      <trkpt lat="47.98332" lon="7.06753">
        <ele>616.34</ele>
        <time>2021-06-23T12:36:47Z</time>
      </trkpt>
      <trkpt lat="47.98391" lon="7.0679">
        <ele>614.55</ele>
        <time>2021-06-23T12:36:52Z</time>
      </trkpt>
      <trkpt lat="47.9858" lon="7.06896">
        <ele>599.84</ele>
        <time>2021-06-23T12:36:57Z</time>
      </trkpt>
      <trkpt lat="47.98657" lon="7.06926">
        <ele>599.66</ele>
        <time>2021-06-23T12:37:02Z</time>
      </trkpt>
      <trkpt lat="47.98716" lon="7.06945">
        <ele>600.46</ele>
        <time>2021-06-23T12:37:07Z</time>
      </trkpt>
      <trkpt lat="47.98752" lon="7.06951">
        <ele>599.12</ele>
        <time>2021-06-23T12:37:12Z</time>
      </trkpt>
      <trkpt lat="47.98808" lon="7.06935">
        <ele>595.26</ele>
        <time>2021-06-23T12:37:17Z</time>
      </trkpt>
      <trkpt lat="47.9884" lon="7.06932">
        <ele>593.96</ele>
        <time>2021-06-23T12:37:23Z</time>
      </trkpt>
      <trkpt lat="47.98879" lon="7.0692">
        <ele>592.25</ele>
        <time>2021-06-23T12:37:28Z</time>
      </trkpt>
      <trkpt lat="47.98899" lon="7.06917">
        <ele>591.99</ele>
        <time>2021-06-23T12:37:33Z</time>
      </trkpt>
      <trkpt lat="47.98904" lon="7.06913">
        <ele>592.2</ele>
        <time>2021-06-23T12:37:38Z</time>
      </trkpt>
      <trkpt lat="47.98876" lon="7.06906">
        <ele>593.24</ele>
        <time>2021-06-23T12:37:40Z</time>
      </trkpt>
      <trkpt lat="47.98859" lon="7.06892">
        <ele>594.91</ele>
        <time>2021-06-23T12:37:42Z</time>
      </trkpt>
      <trkpt lat="47.9885" lon="7.06877">
        <ele>596.97</ele>
        <time>2021-06-23T12:37:43Z</time>
      </trkpt>
      <trkpt lat="47.98843" lon="7.06857">
        <ele>599.03</ele>
        <time>2021-06-23T12:37:45Z</time>
      </trkpt>
      <trkpt lat="47.9884" lon="7.06842">
        <ele>600.6</ele>
        <time>2021-06-23T12:37:47Z</time>
      </trkpt>
      <trkpt lat="47.98842" lon="7.06813">
        <ele>604.1</ele>
        <time>2021-06-23T12:37:49Z</time>
      </trkpt>
      <trkpt lat="47.98847" lon="7.06794">
        <ele>606.74</ele>
        <time>2021-06-23T12:37:51Z</time>
      </trkpt>
      <trkpt lat="47.98855" lon="7.06776">
        <ele>609.21</ele>
        <time>2021-06-23T12:37:52Z</time>
      </trkpt>
      <trkpt lat="47.98871" lon="7.06758">
        <ele>611.52</ele>
        <time>2021-06-23T12:37:54Z</time>
      </trkpt>
      <trkpt lat="47.98976" lon="7.06672">
        <ele>619.95</ele>
        <time>2021-06-23T12:37:56Z</time>
      </trkpt>
      <trkpt lat="47.98996" lon="7.06659">
        <ele>621.23</ele>
        <time>2021-06-23T12:37:58Z</time>
      </trkpt>
      <trkpt lat="47.99014" lon="7.06654">
        <ele>623.3</ele>
        <time>2021-06-23T12:38:00Z</time>
      </trkpt>
      <trkpt lat="47.99049" lon="7.06661">
        <ele>626.42</ele>
        <time>2021-06-23T12:38:01Z</time>
      </trkpt>
      <trkpt lat="47.991" lon="7.0668">
        <ele>626.86</ele>
        <time>2021-06-23T12:38:03Z</time>
      </trkpt>
      <trkpt lat="47.99117" lon="7.06683">
        <ele>628.16</ele>
        <time>2021-06-23T12:38:05Z</time>
      </trkpt>
      <trkpt lat="47.99135" lon="7.06681">
        <ele>630.93</ele>
        <time>2021-06-23T12:38:07Z</time>
      </trkpt>
      <trkpt lat="47.99175" lon="7.06665">
        <ele>640.51</ele>
        <time>2021-06-23T12:38:09Z</time>
      </trkpt>
      <trkpt lat="47.99198" lon="7.06662">
        <ele>646.76</ele>
        <time>2021-06-23T12:38:10Z</time>
      </trkpt>
      <trkpt lat="47.99237" lon="7.0667">
        <ele>650.45</ele>
        <time>2021-06-23T12:38:12Z</time>
      </trkpt>
      <trkpt lat="47.99295" lon="7.06688">
        <ele>658.65</ele>
        <time>2021-06-23T12:38:14Z</time>
      </trkpt>
      <trkpt lat="47.9934" lon="7.06694">
        <ele>662.4</ele>
        <time>2021-06-23T12:38:16Z</time>
      </trkpt>
      <trkpt lat="47.9937" lon="7.0669">
        <ele>661.36</ele>
        <time>2021-06-23T12:38:18Z</time>
      </trkpt>
      <trkpt lat="47.99401" lon="7.06674">
        <ele>665.13</ele>
        <time>2021-06-23T12:38:19Z</time>
      </trkpt>
      <trkpt lat="47.99422" lon="7.06651">
        <ele>671.06</ele>
        <time>2021-06-23T12:38:21Z</time>
      </trkpt>
      <trkpt lat="47.99437" lon="7.06629">
        <ele>672.58</ele>
        <time>2021-06-23T12:38:23Z</time>
      </trkpt>
      <trkpt lat="47.99452" lon="7.06594">
        <ele>674.2</ele>
        <time>2021-06-23T12:38:25Z</time>
      </trkpt>
      <trkpt lat="47.99465" lon="7.06553">
        <ele>676.77</ele>
        <time>2021-06-23T12:38:27Z</time>
      </trkpt>
      <trkpt lat="47.99489" lon="7.06439">
        <ele>687.97</ele>
        <time>2021-06-23T12:38:28Z</time>
      </trkpt>
      <trkpt lat="47.99493" lon="7.06431">
        <ele>687.29</ele>
        <time>2021-06-23T12:38:30Z</time>
      </trkpt>
      <trkpt lat="47.99506" lon="7.06428">
        <ele>684.65</ele>
        <time>2021-06-23T12:38:32Z</time>
      </trkpt>
      <trkpt lat="47.99513" lon="7.06432">
        <ele>683.08</ele>
        <time>2021-06-23T12:38:34Z</time>
      </trkpt>
      <trkpt lat="47.99519" lon="7.0644">
        <ele>680.62</ele>
        <time>2021-06-23T12:38:36Z</time>
      </trkpt>
      <trkpt lat="47.99547" lon="7.06497">
        <ele>671.61</ele>
        <time>2021-06-23T12:38:37Z</time>
      </trkpt>
      <trkpt lat="47.99563" lon="7.06526">
        <ele>668.99</ele>
        <time>2021-06-23T12:38:39Z</time>
      </trkpt>
      <trkpt lat="47.99568" lon="7.0653">
        <ele>669.31</ele>
        <time>2021-06-23T12:38:41Z</time>
      </trkpt>
      <trkpt lat="47.99573" lon="7.06531">
        <ele>670.24</ele>
        <time>2021-06-23T12:38:43Z</time>
      </trkpt>
      <trkpt lat="47.99578" lon="7.06529">
        <ele>671.65</ele>
        <time>2021-06-23T12:38:45Z</time>
      </trkpt>
      <trkpt lat="47.99583" lon="7.06511">
        <ele>675.85</ele>
        <time>2021-06-23T12:38:46Z</time>
      </trkpt>
      <trkpt lat="47.99576" lon="7.06488">
        <ele>678.57</ele>
        <time>2021-06-23T12:38:48Z</time>
      </trkpt>
      <trkpt lat="47.99555" lon="7.0645">
        <ele>683.56</ele>
        <time>2021-06-23T12:38:50Z</time>
      </trkpt>
      <trkpt lat="47.99513" lon="7.06358">
        <ele>699.49</ele>
        <time>2021-06-23T12:38:52Z</time>
      </trkpt>
      <trkpt lat="47.99502" lon="7.06338">
        <ele>702.15</ele>
        <time>2021-06-23T12:38:54Z</time>
      </trkpt>
      <trkpt lat="47.99502" lon="7.06338">
        <ele>702.15</ele>
        <time>2021-06-23T12:38:54Z</time>
      </trkpt>
      <trkpt lat="47.995" lon="7.06334">
        <ele>704.81</ele>
        <time>2021-06-23T12:38:56Z</time>
      </trkpt>
      <trkpt lat="47.9949" lon="7.0633">
        <ele>707.85</ele>
        <time>2021-06-23T12:38:58Z</time>
      </trkpt>
      <trkpt lat="47.99481" lon="7.06332">
        <ele>709.37</ele>
        <time>2021-06-23T12:39:00Z</time>
      </trkpt>
      <trkpt lat="47.99476" lon="7.06336">
        <ele>709.56</ele>
        <time>2021-06-23T12:39:02Z</time>
      </trkpt>
      <trkpt lat="47.99408" lon="7.06491">
        <ele>715.59</ele>
        <time>2021-06-23T12:39:04Z</time>
      </trkpt>
      <trkpt lat="47.99391" lon="7.06516">
        <ele>715.41</ele>
        <time>2021-06-23T12:39:06Z</time>
      </trkpt>
      <trkpt lat="47.99379" lon="7.06525">
        <ele>713.73</ele>
        <time>2021-06-23T12:39:08Z</time>
      </trkpt>
      <trkpt lat="47.99363" lon="7.06527">
        <ele>714.03</ele>
        <time>2021-06-23T12:39:10Z</time>
      </trkpt>
      <trkpt lat="47.99346" lon="7.06522">
        <ele>716.19</ele>
        <time>2021-06-23T12:39:13Z</time>
      </trkpt>
      <trkpt lat="47.99289" lon="7.06492">
        <ele>724.84</ele>
        <time>2021-06-23T12:39:15Z</time>
      </trkpt>
      <trkpt lat="47.99248" lon="7.06458">
        <ele>729.69</ele>
        <time>2021-06-23T12:39:17Z</time>
      </trkpt>
      <trkpt lat="47.99214" lon="7.06419">
        <ele>732.73</ele>
        <time>2021-06-23T12:39:19Z</time>
      </trkpt>
      <trkpt lat="47.9919" lon="7.06371">
        <ele>740.83</ele>
        <time>2021-06-23T12:39:21Z</time>
      </trkpt>
      <trkpt lat="47.99167" lon="7.06315">
        <ele>744.64</ele>
        <time>2021-06-23T12:39:23Z</time>
      </trkpt>
      <trkpt lat="47.99142" lon="7.06218">
        <ele>752.77</ele>
        <time>2021-06-23T12:39:25Z</time>
      </trkpt>
      <trkpt lat="47.99107" lon="7.06096">
        <ele>757.54</ele>
        <time>2021-06-23T12:39:27Z</time>
      </trkpt>
      <trkpt lat="47.99071" lon="7.05949">
        <ele>770.22</ele>
        <time>2021-06-23T12:39:30Z</time>
      </trkpt>
      <trkpt lat="47.99054" lon="7.0589">
        <ele>778.12</ele>
        <time>2021-06-23T12:39:32Z</time>
      </trkpt>
      <trkpt lat="47.99033" lon="7.05836">
        <ele>786.72</ele>
        <time>2021-06-23T12:39:34Z</time>
      </trkpt>
      <trkpt lat="47.99005" lon="7.05782">
        <ele>797.21</ele>
        <time>2021-06-23T12:39:36Z</time>
      </trkpt>
      <trkpt lat="47.98986" lon="7.05767">
        <ele>798.77</ele>
        <time>2021-06-23T12:39:38Z</time>
      </trkpt>
      <trkpt lat="47.98973" lon="7.05769">
        <ele>798.32</ele>
        <time>2021-06-23T12:39:40Z</time>
      </trkpt>
      <trkpt lat="47.98958" lon="7.0578">
        <ele>799.26</ele>
        <time>2021-06-23T12:39:42Z</time>
      </trkpt>
      <trkpt lat="47.98916" lon="7.05825">
        <ele>799.08</ele>
        <time>2021-06-23T12:39:44Z</time>
      </trkpt>
      <trkpt lat="47.98866" lon="7.05853">
        <ele>806.06</ele>
        <time>2021-06-23T12:39:46Z</time>
      </trkpt>
      <trkpt lat="47.98805" lon="7.059">
        <ele>816.83</ele>
        <time>2021-06-23T12:39:49Z</time>
      </trkpt>
      <trkpt lat="47.98711" lon="7.06001">
        <ele>818.09</ele>
        <time>2021-06-23T12:39:51Z</time>
      </trkpt>
      <trkpt lat="47.98694" lon="7.06006">
        <ele>819.2</ele>
        <time>2021-06-23T12:39:53Z</time>
      </trkpt>
      <trkpt lat="47.98666" lon="7.05992">
        <ele>822.59</ele>
        <time>2021-06-23T12:39:55Z</time>
      </trkpt>
      <trkpt lat="47.9864" lon="7.0597">
        <ele>825.78</ele>
        <time>2021-06-23T12:39:57Z</time>
      </trkpt>
      <trkpt lat="47.98614" lon="7.05944">
        <ele>827.21</ele>
        <time>2021-06-23T12:39:59Z</time>
      </trkpt>
      <trkpt lat="47.98561" lon="7.05861">
        <ele>834.79</ele>
        <time>2021-06-23T12:40:01Z</time>
      </trkpt>
      <trkpt lat="47.98446" lon="7.05748">
        <ele>851.74</ele>
        <time>2021-06-23T12:40:03Z</time>
      </trkpt>
      <trkpt lat="47.98428" lon="7.05736">
        <ele>850.76</ele>
        <time>2021-06-23T12:40:05Z</time>
      </trkpt>
      <trkpt lat="47.98424" lon="7.05726">
        <ele>852.72</ele>
        <time>2021-06-23T12:40:08Z</time>
      </trkpt>
      <trkpt lat="47.98424" lon="7.05711">
        <ele>857.19</ele>
        <time>2021-06-23T12:40:10Z</time>
      </trkpt>
      <trkpt lat="47.9843" lon="7.05704">
        <ele>860.89</ele>
        <time>2021-06-23T12:40:12Z</time>
      </trkpt>
      <trkpt lat="47.98441" lon="7.05707">
        <ele>862.4</ele>
        <time>2021-06-23T12:40:14Z</time>
      </trkpt>
      <trkpt lat="47.98468" lon="7.05728">
        <ele>861.61</ele>
        <time>2021-06-23T12:40:16Z</time>
      </trkpt>
      <trkpt lat="47.98561" lon="7.05777">
        <ele>863.36</ele>
        <time>2021-06-23T12:40:18Z</time>
      </trkpt>
      <trkpt lat="47.98609" lon="7.05794">
        <ele>863.07</ele>
        <time>2021-06-23T12:40:20Z</time>
      </trkpt>
      <trkpt lat="47.98638" lon="7.05797">
        <ele>864.56</ele>
        <time>2021-06-23T12:40:22Z</time>
      </trkpt>
      <trkpt lat="47.98658" lon="7.05794">
        <ele>865.55</ele>
        <time>2021-06-23T12:40:25Z</time>
      </trkpt>
      <trkpt lat="47.98673" lon="7.05784">
        <ele>867.24</ele>
        <time>2021-06-23T12:40:27Z</time>
      </trkpt>
      <trkpt lat="47.98685" lon="7.05763">
        <ele>870.98</ele>
        <time>2021-06-23T12:40:29Z</time>
      </trkpt>
      <trkpt lat="47.98719" lon="7.05685">
        <ele>878.8</ele>
        <time>2021-06-23T12:40:31Z</time>
      </trkpt>
      <trkpt lat="47.98747" lon="7.05628">
        <ele>879.17</ele>
        <time>2021-06-23T12:40:33Z</time>
      </trkpt>
      <trkpt lat="47.98774" lon="7.05584">
        <ele>878</ele>
        <time>2021-06-23T12:40:35Z</time>
      </trkpt>
      <trkpt lat="47.98786" lon="7.05557">
        <ele>878.48</ele>
        <time>2021-06-23T12:40:37Z</time>
      </trkpt>
      <trkpt lat="47.98787" lon="7.05546">
        <ele>879.24</ele>
        <time>2021-06-23T12:40:39Z</time>
      </trkpt>
      <trkpt lat="47.98785" lon="7.05535">
        <ele>881.12</ele>
        <time>2021-06-23T12:40:41Z</time>
      </trkpt>
      <trkpt lat="47.98776" lon="7.05532">
        <ele>884.1</ele>
        <time>2021-06-23T12:40:44Z</time>
      </trkpt>
      <trkpt lat="47.98766" lon="7.05535">
        <ele>887.49</ele>
        <time>2021-06-23T12:40:46Z</time>
      </trkpt>
      <trkpt lat="47.98735" lon="7.05583">
        <ele>888.84</ele>
        <time>2021-06-23T12:40:48Z</time>
      </trkpt>
      <trkpt lat="47.98689" lon="7.05625">
        <ele>895.61</ele>
        <time>2021-06-23T12:40:50Z</time>
      </trkpt>
      <trkpt lat="47.98635" lon="7.05647">
        <ele>900.51</ele>
        <time>2021-06-23T12:40:52Z</time>
      </trkpt>
      <trkpt lat="47.98587" lon="7.05626">
        <ele>904.23</ele>
        <time>2021-06-23T12:40:54Z</time>
      </trkpt>
      <trkpt lat="47.9852" lon="7.05565">
        <ele>914.79</ele>
        <time>2021-06-23T12:40:56Z</time>
      </trkpt>
      <trkpt lat="47.98461" lon="7.05496">
        <ele>920.18</ele>
        <time>2021-06-23T12:40:58Z</time>
      </trkpt>
      <trkpt lat="47.98422" lon="7.05469">
        <ele>927.07</ele>
        <time>2021-06-23T12:41:00Z</time>
      </trkpt>
      <trkpt lat="47.98333" lon="7.05469">
        <ele>932.77</ele>
        <time>2021-06-23T12:41:03Z</time>
      </trkpt>
      <trkpt lat="47.98303" lon="7.05461">
        <ele>939.6</ele>
        <time>2021-06-23T12:41:05Z</time>
      </trkpt>
      <trkpt lat="47.98184" lon="7.05395">
        <ele>947.33</ele>
        <time>2021-06-23T12:41:07Z</time>
      </trkpt>
      <trkpt lat="47.98134" lon="7.05335">
        <ele>957.82</ele>
        <time>2021-06-23T12:41:09Z</time>
      </trkpt>
      <trkpt lat="47.98119" lon="7.05323">
        <ele>961.34</ele>
        <time>2021-06-23T12:41:11Z</time>
      </trkpt>
      <trkpt lat="47.98106" lon="7.05318">
        <ele>962.69</ele>
        <time>2021-06-23T12:41:13Z</time>
      </trkpt>
      <trkpt lat="47.98052" lon="7.05327">
        <ele>964.14</ele>
        <time>2021-06-23T12:41:15Z</time>
      </trkpt>
      <trkpt lat="47.98001" lon="7.05345">
        <ele>979.05</ele>
        <time>2021-06-23T12:41:17Z</time>
      </trkpt>
      <trkpt lat="47.97981" lon="7.05364">
        <ele>984.68</ele>
        <time>2021-06-23T12:41:20Z</time>
      </trkpt>
      <trkpt lat="47.97908" lon="7.05508">
        <ele>991.73</ele>
        <time>2021-06-23T12:41:22Z</time>
      </trkpt>
      <trkpt lat="47.97867" lon="7.05554">
        <ele>991.87</ele>
        <time>2021-06-23T12:41:24Z</time>
      </trkpt>
      <trkpt lat="47.9785" lon="7.05557">
        <ele>992.05</ele>
        <time>2021-06-23T12:41:26Z</time>
      </trkpt>
      <trkpt lat="47.97846" lon="7.0555">
        <ele>994.53</ele>
        <time>2021-06-23T12:41:28Z</time>
      </trkpt>
      <trkpt lat="47.97845" lon="7.05541">
        <ele>997.51</ele>
        <time>2021-06-23T12:41:30Z</time>
      </trkpt>
      <trkpt lat="47.97849" lon="7.0553">
        <ele>1000.53</ele>
        <time>2021-06-23T12:41:32Z</time>
      </trkpt>
      <trkpt lat="47.97868" lon="7.05515">
        <ele>1002.7</ele>
        <time>2021-06-23T12:41:34Z</time>
      </trkpt>
      <trkpt lat="47.97891" lon="7.0548">
        <ele>1007.22</ele>
        <time>2021-06-23T12:41:36Z</time>
      </trkpt>
      <trkpt lat="47.97914" lon="7.05422">
        <ele>1010.56</ele>
        <time>2021-06-23T12:41:39Z</time>
      </trkpt>
      <trkpt lat="47.97952" lon="7.05274">
        <ele>1018.23</ele>
        <time>2021-06-23T12:41:41Z</time>
      </trkpt>
      <trkpt lat="47.9799" lon="7.05182">
        <ele>1020.97</ele>
        <time>2021-06-23T12:41:43Z</time>
      </trkpt>
      <trkpt lat="47.98014" lon="7.0514">
        <ele>1019.91</ele>
        <time>2021-06-23T12:41:45Z</time>
      </trkpt>
      <trkpt lat="47.98032" lon="7.05118">
        <ele>1019.6</ele>
        <time>2021-06-23T12:41:47Z</time>
      </trkpt>
      <trkpt lat="47.98056" lon="7.05099">
        <ele>1020.24</ele>
        <time>2021-06-23T12:41:49Z</time>
      </trkpt>
      <trkpt lat="47.9808" lon="7.05089">
        <ele>1021.18</ele>
        <time>2021-06-23T12:41:51Z</time>
      </trkpt>
      <trkpt lat="47.98133" lon="7.05087">
        <ele>1024.13</ele>
        <time>2021-06-23T12:41:53Z</time>
      </trkpt>
      <trkpt lat="47.98139" lon="7.05084">
        <ele>1024.88</ele>
        <time>2021-06-23T12:41:56Z</time>
      </trkpt>
      <trkpt lat="47.98147" lon="7.05073">
        <ele>1026.34</ele>
        <time>2021-06-23T12:41:58Z</time>
      </trkpt>
      <trkpt lat="47.98147" lon="7.05064">
        <ele>1027.69</ele>
        <time>2021-06-23T12:42:00Z</time>
      </trkpt>
      <trkpt lat="47.98143" lon="7.05055">
        <ele>1029.18</ele>
        <time>2021-06-23T12:42:02Z</time>
      </trkpt>
      <trkpt lat="47.98135" lon="7.05051">
        <ele>1030.06</ele>
        <time>2021-06-23T12:42:04Z</time>
      </trkpt>
      <trkpt lat="47.98109" lon="7.05062">
        <ele>1027.75</ele>
        <time>2021-06-23T12:42:06Z</time>
      </trkpt>
      <trkpt lat="47.98043" lon="7.0507">
        <ele>1026.64</ele>
        <time>2021-06-23T12:42:08Z</time>
      </trkpt>
      <trkpt lat="47.97986" lon="7.05101">
        <ele>1030.22</ele>
        <time>2021-06-23T12:42:10Z</time>
      </trkpt>
      <trkpt lat="47.97964" lon="7.0512">
        <ele>1035.66</ele>
        <time>2021-06-23T12:42:12Z</time>
      </trkpt>
      <trkpt lat="47.97914" lon="7.05245">
        <ele>1037.35</ele>
        <time>2021-06-23T12:42:15Z</time>
      </trkpt>
      <trkpt lat="47.97882" lon="7.05293">
        <ele>1042.5</ele>
        <time>2021-06-23T12:42:17Z</time>
      </trkpt>
      <trkpt lat="47.97856" lon="7.05318">
        <ele>1044.58</ele>
        <time>2021-06-23T12:42:19Z</time>
      </trkpt>
      <trkpt lat="47.97826" lon="7.05325">
        <ele>1048.92</ele>
        <time>2021-06-23T12:42:21Z</time>
      </trkpt>
      <trkpt lat="47.97788" lon="7.05312">
        <ele>1057.41</ele>
        <time>2021-06-23T12:42:23Z</time>
      </trkpt>
      <trkpt lat="47.97753" lon="7.05286">
        <ele>1061.21</ele>
        <time>2021-06-23T12:42:25Z</time>
      </trkpt>
      <trkpt lat="47.97705" lon="7.05225">
        <ele>1066.55</ele>
        <time>2021-06-23T12:42:27Z</time>
      </trkpt>
      <trkpt lat="47.97658" lon="7.05137">
        <ele>1072.35</ele>
        <time>2021-06-23T12:42:29Z</time>
      </trkpt>
      <trkpt lat="47.97639" lon="7.05062">
        <ele>1076.27</ele>
        <time>2021-06-23T12:42:31Z</time>
      </trkpt>
      <trkpt lat="47.97625" lon="7.04961">
        <ele>1085.63</ele>
        <time>2021-06-23T12:42:34Z</time>
      </trkpt>
      <trkpt lat="47.97609" lon="7.04876">
        <ele>1100.33</ele>
        <time>2021-06-23T12:42:36Z</time>
      </trkpt>
      <trkpt lat="47.9757" lon="7.048">
        <ele>1105.86</ele>
        <time>2021-06-23T12:42:38Z</time>
      </trkpt>
      <trkpt lat="47.97508" lon="7.04725">
        <ele>1109.96</ele>
        <time>2021-06-23T12:42:40Z</time>
      </trkpt>
      <trkpt lat="47.97428" lon="7.04667">
        <ele>1118.52</ele>
        <time>2021-06-23T12:42:42Z</time>
      </trkpt>
      <trkpt lat="47.97356" lon="7.04642">
        <ele>1128.47</ele>
        <time>2021-06-23T12:42:44Z</time>
      </trkpt>
      <trkpt lat="47.97305" lon="7.0461">
        <ele>1140.26</ele>
        <time>2021-06-23T12:42:46Z</time>
      </trkpt>
      <trkpt lat="47.97183" lon="7.04548">
        <ele>1151.55</ele>
        <time>2021-06-23T12:42:48Z</time>
      </trkpt>
      <trkpt lat="47.97089" lon="7.04483">
        <ele>1163.46</ele>
        <time>2021-06-23T12:42:51Z</time>
      </trkpt>
      <trkpt lat="47.97024" lon="7.04464">
        <ele>1170.71</ele>
        <time>2021-06-23T12:42:53Z</time>
      </trkpt>
      <trkpt lat="47.96994" lon="7.04445">
        <ele>1174.93</ele>
        <time>2021-06-23T12:42:55Z</time>
      </trkpt>
      <trkpt lat="47.96956" lon="7.04403">
        <ele>1178.95</ele>
        <time>2021-06-23T12:42:57Z</time>
      </trkpt>
      <trkpt lat="47.96944" lon="7.04388">
        <ele>1180.17</ele>
        <time>2021-06-23T12:42:59Z</time>
      </trkpt>
      <trkpt lat="47.96938" lon="7.0437">
        <ele>1182.92</ele>
        <time>2021-06-23T12:43:01Z</time>
      </trkpt>
      <trkpt lat="47.96936" lon="7.04352">
        <ele>1185.98</ele>
        <time>2021-06-23T12:43:03Z</time>
      </trkpt>
      <trkpt lat="47.96938" lon="7.04335">
        <ele>1188.3</ele>
        <time>2021-06-23T12:43:05Z</time>
      </trkpt>
      <trkpt lat="47.96959" lon="7.04244">
        <ele>1193.71</ele>
        <time>2021-06-23T12:43:07Z</time>
      </trkpt>
      <trkpt lat="47.96962" lon="7.04228">
        <ele>1192.92</ele>
        <time>2021-06-23T12:43:10Z</time>
      </trkpt>
      <trkpt lat="47.96961" lon="7.04215">
        <ele>1191.68</ele>
        <time>2021-06-23T12:43:12Z</time>
      </trkpt>
      <trkpt lat="47.96958" lon="7.04202">
        <ele>1189.89</ele>
        <time>2021-06-23T12:43:14Z</time>
      </trkpt>
      <trkpt lat="47.96945" lon="7.04173">
        <ele>1185.74</ele>
        <time>2021-06-23T12:43:16Z</time>
      </trkpt>
      <trkpt lat="47.96921" lon="7.04133">
        <ele>1183.59</ele>
        <time>2021-06-23T12:43:18Z</time>
      </trkpt>
      <trkpt lat="47.96883" lon="7.04079">
        <ele>1182.57</ele>
        <time>2021-06-23T12:43:20Z</time>
      </trkpt>
      <trkpt lat="47.96845" lon="7.0403">
        <ele>1176.82</ele>
        <time>2021-06-23T12:43:22Z</time>
      </trkpt>
      <trkpt lat="47.96825" lon="7.03978">
        <ele>1175.33</ele>
        <time>2021-06-23T12:43:24Z</time>
      </trkpt>
      <trkpt lat="47.9681" lon="7.0391">
        <ele>1176.84</ele>
        <time>2021-06-23T12:43:26Z</time>
      </trkpt>
      <trkpt lat="47.96804" lon="7.03874">
        <ele>1177.27</ele>
        <time>2021-06-23T12:43:29Z</time>
      </trkpt>
      <trkpt lat="47.96802" lon="7.03837">
        <ele>1178.37</ele>
        <time>2021-06-23T12:43:31Z</time>
      </trkpt>
      <trkpt lat="47.96811" lon="7.0374">
        <ele>1175.23</ele>
        <time>2021-06-23T12:43:33Z</time>
      </trkpt>
      <trkpt lat="47.96811" lon="7.03667">
        <ele>1170.47</ele>
        <time>2021-06-23T12:43:35Z</time>
      </trkpt>
      <trkpt lat="47.96807" lon="7.03627">
        <ele>1170.35</ele>
        <time>2021-06-23T12:43:37Z</time>
      </trkpt>
      <trkpt lat="47.968" lon="7.03588">
        <ele>1172.26</ele>
        <time>2021-06-23T12:43:39Z</time>
      </trkpt>
      <trkpt lat="47.96778" lon="7.03502">
        <ele>1177.97</ele>
        <time>2021-06-23T12:43:41Z</time>
      </trkpt>
      <trkpt lat="47.96763" lon="7.03454">
        <ele>1178.67</ele>
        <time>2021-06-23T12:43:43Z</time>
      </trkpt>
      <trkpt lat="47.9674" lon="7.0341">
        <ele>1182.9</ele>
        <time>2021-06-23T12:43:46Z</time>
      </trkpt>
      <trkpt lat="47.96716" lon="7.03389">
        <ele>1187.46</ele>
        <time>2021-06-23T12:43:48Z</time>
      </trkpt>
      <trkpt lat="47.9669" lon="7.03379">
        <ele>1188.9</ele>
        <time>2021-06-23T12:43:50Z</time>
      </trkpt>
      <trkpt lat="47.96653" lon="7.03377">
        <ele>1191.98</ele>
        <time>2021-06-23T12:43:52Z</time>
      </trkpt>
      <trkpt lat="47.96603" lon="7.03389">
        <ele>1197.03</ele>
        <time>2021-06-23T12:43:54Z</time>
      </trkpt>
      <trkpt lat="47.96542" lon="7.03414">
        <ele>1201.78</ele>
        <time>2021-06-23T12:43:56Z</time>
      </trkpt>
      <trkpt lat="47.96468" lon="7.03457">
        <ele>1211.41</ele>
        <time>2021-06-23T12:43:58Z</time>
      </trkpt>
      <trkpt lat="47.96438" lon="7.0349">
        <ele>1217.31</ele>
        <time>2021-06-23T12:44:00Z</time>
      </trkpt>
      <trkpt lat="47.96366" lon="7.03585">
        <ele>1228.89</ele>
        <time>2021-06-23T12:44:02Z</time>
      </trkpt>
      <trkpt lat="47.96348" lon="7.03614">
        <ele>1227.8</ele>
        <time>2021-06-23T12:44:05Z</time>
      </trkpt>
      <trkpt lat="47.96337" lon="7.0364">
        <ele>1227.78</ele>
        <time>2021-06-23T12:44:07Z</time>
      </trkpt>
      <trkpt lat="47.96323" lon="7.03692">
        <ele>1232.29</ele>
        <time>2021-06-23T12:44:09Z</time>
      </trkpt>
      <trkpt lat="47.96313" lon="7.03709">
        <ele>1234.38</ele>
        <time>2021-06-23T12:44:11Z</time>
      </trkpt>
      <trkpt lat="47.96301" lon="7.0372">
        <ele>1235.75</ele>
        <time>2021-06-23T12:44:13Z</time>
      </trkpt>
      <trkpt lat="47.96289" lon="7.03722">
        <ele>1236.62</ele>
        <time>2021-06-23T12:44:15Z</time>
      </trkpt>
      <trkpt lat="47.96242" lon="7.03718">
        <ele>1237.39</ele>
        <time>2021-06-23T12:44:17Z</time>
      </trkpt>
      <trkpt lat="47.9622" lon="7.03719">
        <ele>1239.77</ele>
        <time>2021-06-23T12:44:19Z</time>
      </trkpt>
      <trkpt lat="47.9617" lon="7.03728">
        <ele>1241.62</ele>
        <time>2021-06-23T12:44:22Z</time>
      </trkpt>
      <trkpt lat="47.96122" lon="7.03741">
        <ele>1242.59</ele>
        <time>2021-06-23T12:44:24Z</time>
      </trkpt>
      <trkpt lat="47.96075" lon="7.03746">
        <ele>1244.49</ele>
        <time>2021-06-23T12:44:26Z</time>
      </trkpt>
      <trkpt lat="47.96037" lon="7.03742">
        <ele>1246.17</ele>
        <time>2021-06-23T12:44:28Z</time>
      </trkpt>
      <trkpt lat="47.95876" lon="7.03699">
        <ele>1245.06</ele>
        <time>2021-06-23T12:44:30Z</time>
      </trkpt>
      <trkpt lat="47.95796" lon="7.03652">
        <ele>1246.04</ele>
        <time>2021-06-23T12:44:32Z</time>
      </trkpt>
      <trkpt lat="47.95721" lon="7.03594">
        <ele>1246.65</ele>
        <time>2021-06-23T12:44:34Z</time>
      </trkpt>
      <trkpt lat="47.95654" lon="7.03531">
        <ele>1246.29</ele>
        <time>2021-06-23T12:44:36Z</time>
      </trkpt>
      <trkpt lat="47.95626" lon="7.03489">
        <ele>1245.07</ele>
        <time>2021-06-23T12:44:38Z</time>
      </trkpt>
      <trkpt lat="47.95575" lon="7.0338">
        <ele>1244.47</ele>
        <time>2021-06-23T12:44:41Z</time>
      </trkpt>
      <trkpt lat="47.9556" lon="7.03357">
        <ele>1243.88</ele>
        <time>2021-06-23T12:44:43Z</time>
      </trkpt>
      <trkpt lat="47.95539" lon="7.03336">
        <ele>1243.52</ele>
        <time>2021-06-23T12:44:45Z</time>
      </trkpt>
      <trkpt lat="47.95523" lon="7.03325">
        <ele>1242.92</ele>
        <time>2021-06-23T12:44:47Z</time>
      </trkpt>
      <trkpt lat="47.95507" lon="7.03317">
        <ele>1242.33</ele>
        <time>2021-06-23T12:44:49Z</time>
      </trkpt>
      <trkpt lat="47.95491" lon="7.03314">
        <ele>1241.83</ele>
        <time>2021-06-23T12:44:51Z</time>
      </trkpt>
      <trkpt lat="47.9547" lon="7.03316">
        <ele>1241.17</ele>
        <time>2021-06-23T12:44:53Z</time>
      </trkpt>
      <trkpt lat="47.95263" lon="7.03377">
        <ele>1243.66</ele>
        <time>2021-06-23T12:44:55Z</time>
      </trkpt>
      <trkpt lat="47.95242" lon="7.03377">
        <ele>1244.65</ele>
        <time>2021-06-23T12:44:57Z</time>
      </trkpt>
      <trkpt lat="47.95216" lon="7.03366">
        <ele>1246.18</ele>
        <time>2021-06-23T12:45:00Z</time>
      </trkpt>
      <trkpt lat="47.95136" lon="7.03299">
        <ele>1254.54</ele>
        <time>2021-06-23T12:45:02Z</time>
      </trkpt>
      <trkpt lat="47.95077" lon="7.03241">
        <ele>1260.95</ele>
        <time>2021-06-23T12:45:04Z</time>
      </trkpt>
      <trkpt lat="47.95011" lon="7.03158">
        <ele>1266.72</ele>
        <time>2021-06-23T12:45:06Z</time>
      </trkpt>
      <trkpt lat="47.94958" lon="7.03082">
        <ele>1269.62</ele>
        <time>2021-06-23T12:45:08Z</time>
      </trkpt>
      <trkpt lat="47.94913" lon="7.03009">
        <ele>1275</ele>
        <time>2021-06-23T12:45:10Z</time>
      </trkpt>
      <trkpt lat="47.94883" lon="7.02951">
        <ele>1275.44</ele>
        <time>2021-06-23T12:45:12Z</time>
      </trkpt>
      <trkpt lat="47.94847" lon="7.02896">
        <ele>1277.99</ele>
        <time>2021-06-23T12:45:14Z</time>
      </trkpt>
      <trkpt lat="47.94832" lon="7.02876">
        <ele>1279</ele>
        <time>2021-06-23T12:45:17Z</time>
      </trkpt>
      <trkpt lat="47.947" lon="7.02731">
        <ele>1278.08</ele>
        <time>2021-06-23T12:45:19Z</time>
      </trkpt>
      <trkpt lat="47.94643" lon="7.02637">
        <ele>1273.42</ele>
        <time>2021-06-23T12:45:21Z</time>
      </trkpt>
      <trkpt lat="47.94619" lon="7.02583">
        <ele>1271.89</ele>
        <time>2021-06-23T12:45:23Z</time>
      </trkpt>
      <trkpt lat="47.94607" lon="7.02527">
        <ele>1270.49</ele>
        <time>2021-06-23T12:45:25Z</time>
      </trkpt>
      <trkpt lat="47.94565" lon="7.02316">
        <ele>1263</ele>
        <time>2021-06-23T12:45:27Z</time>
      </trkpt>
      <trkpt lat="47.94549" lon="7.02244">
        <ele>1258.6</ele>
        <time>2021-06-23T12:45:29Z</time>
      </trkpt>
      <trkpt lat="47.94528" lon="7.02193">
        <ele>1255.81</ele>
        <time>2021-06-23T12:45:31Z</time>
      </trkpt>
      <trkpt lat="47.94492" lon="7.02134">
        <ele>1248.01</ele>
        <time>2021-06-23T12:45:33Z</time>
      </trkpt>
      <trkpt lat="47.94461" lon="7.02066">
        <ele>1240.51</ele>
        <time>2021-06-23T12:45:36Z</time>
      </trkpt>
      <trkpt lat="47.94437" lon="7.02016">
        <ele>1238.63</ele>
        <time>2021-06-23T12:45:38Z</time>
      </trkpt>
      <trkpt lat="47.94412" lon="7.01998">
        <ele>1237.57</ele>
        <time>2021-06-23T12:45:40Z</time>
      </trkpt>
      <trkpt lat="47.94383" lon="7.01994">
        <ele>1235.57</ele>
        <time>2021-06-23T12:45:42Z</time>
      </trkpt>
      <trkpt lat="47.9435" lon="7.02005">
        <ele>1233.46</ele>
        <time>2021-06-23T12:45:44Z</time>
      </trkpt>
      <trkpt lat="47.94336" lon="7.02014">
        <ele>1231.65</ele>
        <time>2021-06-23T12:45:46Z</time>
      </trkpt>
      <trkpt lat="47.94336" lon="7.02014">
        <ele>1231.65</ele>
        <time>2021-06-23T12:45:46Z</time>
      </trkpt>
      <trkpt lat="47.94319" lon="7.02025">
        <ele>1229.83</ele>
        <time>2021-06-23T12:45:48Z</time>
      </trkpt>
      <trkpt lat="47.94274" lon="7.02091">
        <ele>1227.02</ele>
        <time>2021-06-23T12:45:49Z</time>
      </trkpt>
      <trkpt lat="47.94257" lon="7.02089">
        <ele>1222.67</ele>
        <time>2021-06-23T12:45:51Z</time>
      </trkpt>
      <trkpt lat="47.94218" lon="7.02196">
        <ele>1220.2</ele>
        <time>2021-06-23T12:45:53Z</time>
      </trkpt>
      <trkpt lat="47.94195" lon="7.02269">
        <ele>1217.06</ele>
        <time>2021-06-23T12:45:56Z</time>
      </trkpt>
      <trkpt lat="47.94189" lon="7.02282">
        <ele>1216.25</ele>
        <time>2021-06-23T12:45:59Z</time>
      </trkpt>
      <trkpt lat="47.94175" lon="7.023">
        <ele>1214.65</ele>
        <time>2021-06-23T12:46:01Z</time>
      </trkpt>
      <trkpt lat="47.94167" lon="7.02305">
        <ele>1214.03</ele>
        <time>2021-06-23T12:46:04Z</time>
      </trkpt>
      <trkpt lat="47.94158" lon="7.02309">
        <ele>1213.4</ele>
        <time>2021-06-23T12:46:06Z</time>
      </trkpt>
      <trkpt lat="47.94143" lon="7.02309">
        <ele>1212.39</ele>
        <time>2021-06-23T12:46:09Z</time>
      </trkpt>
      <trkpt lat="47.94132" lon="7.02305">
        <ele>1212.7</ele>
        <time>2021-06-23T12:46:11Z</time>
      </trkpt>
      <trkpt lat="47.94119" lon="7.02291">
        <ele>1213.55</ele>
        <time>2021-06-23T12:46:14Z</time>
      </trkpt>
      <trkpt lat="47.94114" lon="7.02283">
        <ele>1213.32</ele>
        <time>2021-06-23T12:46:17Z</time>
      </trkpt>
      <trkpt lat="47.94082" lon="7.02221">
        <ele>1208.97</ele>
        <time>2021-06-23T12:46:19Z</time>
      </trkpt>
      <trkpt lat="47.9407" lon="7.02204">
        <ele>1208.65</ele>
        <time>2021-06-23T12:46:22Z</time>
      </trkpt>
      <trkpt lat="47.94057" lon="7.02188">
        <ele>1210.09</ele>
        <time>2021-06-23T12:46:24Z</time>
      </trkpt>
      <trkpt lat="47.93985" lon="7.02121">
        <ele>1209.75</ele>
        <time>2021-06-23T12:46:27Z</time>
      </trkpt>
      <trkpt lat="47.93965" lon="7.02112">
        <ele>1209.61</ele>
        <time>2021-06-23T12:46:30Z</time>
      </trkpt>
      <trkpt lat="47.93946" lon="7.02111">
        <ele>1208.08</ele>
        <time>2021-06-23T12:46:32Z</time>
      </trkpt>
      <trkpt lat="47.9393" lon="7.02113">
        <ele>1206.28</ele>
        <time>2021-06-23T12:46:35Z</time>
      </trkpt>
      <trkpt lat="47.93911" lon="7.02123">
        <ele>1205.24</ele>
        <time>2021-06-23T12:46:37Z</time>
      </trkpt>
      <trkpt lat="47.93825" lon="7.02202">
        <ele>1205.89</ele>
        <time>2021-06-23T12:46:40Z</time>
      </trkpt>
      <trkpt lat="47.93811" lon="7.02211">
        <ele>1205.09</ele>
        <time>2021-06-23T12:46:43Z</time>
      </trkpt>
      <trkpt lat="47.93803" lon="7.02212">
        <ele>1204.52</ele>
        <time>2021-06-23T12:46:45Z</time>
      </trkpt>
      <trkpt lat="47.93794" lon="7.02211">
        <ele>1204.18</ele>
        <time>2021-06-23T12:46:48Z</time>
      </trkpt>
      <trkpt lat="47.93786" lon="7.02206">
        <ele>1203.71</ele>
        <time>2021-06-23T12:46:50Z</time>
      </trkpt>
      <trkpt lat="47.93777" lon="7.02196">
        <ele>1203.12</ele>
        <time>2021-06-23T12:46:53Z</time>
      </trkpt>
      <trkpt lat="47.93736" lon="7.02131">
        <ele>1206.14</ele>
        <time>2021-06-23T12:46:55Z</time>
      </trkpt>
      <trkpt lat="47.93711" lon="7.02102">
        <ele>1208.2</ele>
        <time>2021-06-23T12:46:58Z</time>
      </trkpt>
      <trkpt lat="47.93672" lon="7.02073">
        <ele>1206.71</ele>
        <time>2021-06-23T12:47:01Z</time>
      </trkpt>
      <trkpt lat="47.9342" lon="7.01911">
        <ele>1207</ele>
        <time>2021-06-23T12:47:03Z</time>
      </trkpt>
      <trkpt lat="47.93394" lon="7.01896">
        <ele>1207.06</ele>
        <time>2021-06-23T12:47:06Z</time>
      </trkpt>
      <trkpt lat="47.93376" lon="7.01891">
        <ele>1206.67</ele>
        <time>2021-06-23T12:47:08Z</time>
      </trkpt>
      <trkpt lat="47.9334" lon="7.01885">
        <ele>1204.99</ele>
        <time>2021-06-23T12:47:11Z</time>
      </trkpt>
      <trkpt lat="47.93298" lon="7.01889">
        <ele>1205.72</ele>
        <time>2021-06-23T12:47:14Z</time>
      </trkpt>
      <trkpt lat="47.93275" lon="7.01898">
        <ele>1205.31</ele>
        <time>2021-06-23T12:47:16Z</time>
      </trkpt>
      <trkpt lat="47.93262" lon="7.01906">
        <ele>1205.26</ele>
        <time>2021-06-23T12:47:19Z</time>
      </trkpt>
      <trkpt lat="47.93155" lon="7.01988">
        <ele>1208.32</ele>
        <time>2021-06-23T12:47:21Z</time>
      </trkpt>
      <trkpt lat="47.93133" lon="7.02002">
        <ele>1209.07</ele>
        <time>2021-06-23T12:47:24Z</time>
      </trkpt>
      <trkpt lat="47.9312" lon="7.02009">
        <ele>1209.1</ele>
        <time>2021-06-23T12:47:26Z</time>
      </trkpt>
      <trkpt lat="47.93102" lon="7.02014">
        <ele>1208.83</ele>
        <time>2021-06-23T12:47:29Z</time>
      </trkpt>
      <trkpt lat="47.93085" lon="7.02017">
        <ele>1208.42</ele>
        <time>2021-06-23T12:47:32Z</time>
      </trkpt>
      <trkpt lat="47.92976" lon="7.02016">
        <ele>1210.85</ele>
        <time>2021-06-23T12:47:34Z</time>
      </trkpt>
      <trkpt lat="47.92956" lon="7.02011">
        <ele>1212.91</ele>
        <time>2021-06-23T12:47:37Z</time>
      </trkpt>
      <trkpt lat="47.92852" lon="7.01969">
        <ele>1215.02</ele>
        <time>2021-06-23T12:47:39Z</time>
      </trkpt>
      <trkpt lat="47.92818" lon="7.01968">
        <ele>1216.21</ele>
        <time>2021-06-23T12:47:42Z</time>
      </trkpt>
      <trkpt lat="47.92811" lon="7.01971">
        <ele>1216.49</ele>
        <time>2021-06-23T12:47:45Z</time>
      </trkpt>
      <trkpt lat="47.92799" lon="7.01982">
        <ele>1218.77</ele>
        <time>2021-06-23T12:47:47Z</time>
      </trkpt>
      <trkpt lat="47.92794" lon="7.0199">
        <ele>1220.02</ele>
        <time>2021-06-23T12:47:50Z</time>
      </trkpt>
      <trkpt lat="47.9279" lon="7.02007">
        <ele>1220.03</ele>
        <time>2021-06-23T12:47:52Z</time>
      </trkpt>
      <trkpt lat="47.92791" lon="7.02017">
        <ele>1219.42</ele>
        <time>2021-06-23T12:47:55Z</time>
      </trkpt>
      <trkpt lat="47.92794" lon="7.02032">
        <ele>1217.71</ele>
        <time>2021-06-23T12:47:58Z</time>
      </trkpt>
      <trkpt lat="47.92838" lon="7.02179">
        <ele>1209.02</ele>
        <time>2021-06-23T12:48:00Z</time>
      </trkpt>
      <trkpt lat="47.92844" lon="7.02214">
        <ele>1208.49</ele>
        <time>2021-06-23T12:48:03Z</time>
      </trkpt>
      <trkpt lat="47.92846" lon="7.02251">
        <ele>1210.55</ele>
        <time>2021-06-23T12:48:05Z</time>
      </trkpt>
      <trkpt lat="47.92833" lon="7.02414">
        <ele>1213.33</ele>
        <time>2021-06-23T12:48:08Z</time>
      </trkpt>
      <trkpt lat="47.92822" lon="7.02471">
        <ele>1209.72</ele>
        <time>2021-06-23T12:48:10Z</time>
      </trkpt>
      <trkpt lat="47.92809" lon="7.02515">
        <ele>1211.8</ele>
        <time>2021-06-23T12:48:13Z</time>
      </trkpt>
      <trkpt lat="47.92798" lon="7.02543">
        <ele>1213.28</ele>
        <time>2021-06-23T12:48:16Z</time>
      </trkpt>
      <trkpt lat="47.92757" lon="7.02616">
        <ele>1214.08</ele>
        <time>2021-06-23T12:48:18Z</time>
      </trkpt>
      <trkpt lat="47.92749" lon="7.02635">
        <ele>1212.93</ele>
        <time>2021-06-23T12:48:21Z</time>
      </trkpt>
      <trkpt lat="47.92746" lon="7.02662">
        <ele>1209.73</ele>
        <time>2021-06-23T12:48:23Z</time>
      </trkpt>
      <trkpt lat="47.92744" lon="7.02764">
        <ele>1206.01</ele>
        <time>2021-06-23T12:48:26Z</time>
      </trkpt>
      <trkpt lat="47.92741" lon="7.02845">
        <ele>1207.23</ele>
        <time>2021-06-23T12:48:29Z</time>
      </trkpt>
      <trkpt lat="47.92734" lon="7.02872">
        <ele>1205.74</ele>
        <time>2021-06-23T12:48:31Z</time>
      </trkpt>
      <trkpt lat="47.92719" lon="7.02904">
        <ele>1202.72</ele>
        <time>2021-06-23T12:48:34Z</time>
      </trkpt>
      <trkpt lat="47.92695" lon="7.02926">
        <ele>1198.65</ele>
        <time>2021-06-23T12:48:36Z</time>
      </trkpt>
      <trkpt lat="47.9267" lon="7.02937">
        <ele>1196.15</ele>
        <time>2021-06-23T12:48:39Z</time>
      </trkpt>
      <trkpt lat="47.9245" lon="7.02998">
        <ele>1190.94</ele>
        <time>2021-06-23T12:48:41Z</time>
      </trkpt>
      <trkpt lat="47.92432" lon="7.0301">
        <ele>1190.01</ele>
        <time>2021-06-23T12:48:44Z</time>
      </trkpt>
      <trkpt lat="47.92384" lon="7.03057">
        <ele>1185.9</ele>
        <time>2021-06-23T12:48:47Z</time>
      </trkpt>
      <trkpt lat="47.92345" lon="7.03104">
        <ele>1183.99</ele>
        <time>2021-06-23T12:48:49Z</time>
      </trkpt>
      <trkpt lat="47.92331" lon="7.0313">
        <ele>1183.49</ele>
        <time>2021-06-23T12:48:52Z</time>
      </trkpt>
      <trkpt lat="47.92316" lon="7.03173">
        <ele>1182.14</ele>
        <time>2021-06-23T12:48:54Z</time>
      </trkpt>
      <trkpt lat="47.92312" lon="7.0319">
        <ele>1182.24</ele>
        <time>2021-06-23T12:48:57Z</time>
      </trkpt>
      <trkpt lat="47.92312" lon="7.0319">
        <ele>1182.24</ele>
        <time>2021-06-23T12:48:57Z</time>
      </trkpt>
      <trkpt lat="47.92307" lon="7.03208">
        <ele>1182.34</ele>
        <time>2021-06-23T12:48:58Z</time>
      </trkpt>
      <trkpt lat="47.9229" lon="7.0319">
        <ele>1183.56</ele>
        <time>2021-06-23T12:49:00Z</time>
      </trkpt>
      <trkpt lat="47.92281" lon="7.03177">
        <ele>1183.87</ele>
        <time>2021-06-23T12:49:03Z</time>
      </trkpt>
      <trkpt lat="47.92276" lon="7.03166">
        <ele>1184.07</ele>
        <time>2021-06-23T12:49:05Z</time>
      </trkpt>
      <trkpt lat="47.92276" lon="7.03149">
        <ele>1185.26</ele>
        <time>2021-06-23T12:49:08Z</time>
      </trkpt>
      <trkpt lat="47.92278" lon="7.03131">
        <ele>1186.28</ele>
        <time>2021-06-23T12:49:10Z</time>
      </trkpt>
      <trkpt lat="47.92332" lon="7.02961">
        <ele>1189.98</ele>
        <time>2021-06-23T12:49:13Z</time>
      </trkpt>
      <trkpt lat="47.92363" lon="7.02873">
        <ele>1192.24</ele>
        <time>2021-06-23T12:49:15Z</time>
      </trkpt>
      <trkpt lat="47.92369" lon="7.02847">
        <ele>1193.59</ele>
        <time>2021-06-23T12:49:18Z</time>
      </trkpt>
      <trkpt lat="47.9237" lon="7.02831">
        <ele>1194.39</ele>
        <time>2021-06-23T12:49:20Z</time>
      </trkpt>
      <trkpt lat="47.92372" lon="7.02785">
        <ele>1196.08</ele>
        <time>2021-06-23T12:49:23Z</time>
      </trkpt>
      <trkpt lat="47.92371" lon="7.02731">
        <ele>1195.74</ele>
        <time>2021-06-23T12:49:25Z</time>
      </trkpt>
      <trkpt lat="47.92367" lon="7.02682">
        <ele>1193.59</ele>
        <time>2021-06-23T12:49:28Z</time>
      </trkpt>
      <trkpt lat="47.92362" lon="7.02645">
        <ele>1190.41</ele>
        <time>2021-06-23T12:49:30Z</time>
      </trkpt>
      <trkpt lat="47.92349" lon="7.02584">
        <ele>1187.24</ele>
        <time>2021-06-23T12:49:33Z</time>
      </trkpt>
      <trkpt lat="47.92347" lon="7.02563">
        <ele>1188.73</ele>
        <time>2021-06-23T12:49:35Z</time>
      </trkpt>
      <trkpt lat="47.92348" lon="7.02492">
        <ele>1196.57</ele>
        <time>2021-06-23T12:49:38Z</time>
      </trkpt>
      <trkpt lat="47.92347" lon="7.02473">
        <ele>1197.85</ele>
        <time>2021-06-23T12:49:40Z</time>
      </trkpt>
      <trkpt lat="47.92342" lon="7.02437">
        <ele>1199.13</ele>
        <time>2021-06-23T12:49:43Z</time>
      </trkpt>
      <trkpt lat="47.92341" lon="7.02406">
        <ele>1200.9</ele>
        <time>2021-06-23T12:49:45Z</time>
      </trkpt>
      <trkpt lat="47.92345" lon="7.02366">
        <ele>1200.93</ele>
        <time>2021-06-23T12:49:48Z</time>
      </trkpt>
      <trkpt lat="47.92355" lon="7.02325">
        <ele>1196.29</ele>
        <time>2021-06-23T12:49:50Z</time>
      </trkpt>
      <trkpt lat="47.92364" lon="7.02296">
        <ele>1196.64</ele>
        <time>2021-06-23T12:49:53Z</time>
      </trkpt>
      <trkpt lat="47.92375" lon="7.02274">
        <ele>1197.37</ele>
        <time>2021-06-23T12:49:55Z</time>
      </trkpt>
      <trkpt lat="47.92457" lon="7.02161">
        <ele>1193.68</ele>
        <time>2021-06-23T12:49:58Z</time>
      </trkpt>
      <trkpt lat="47.92474" lon="7.02125">
        <ele>1194.81</ele>
        <time>2021-06-23T12:50:00Z</time>
      </trkpt>
      <trkpt lat="47.92486" lon="7.02089">
        <ele>1195.01</ele>
        <time>2021-06-23T12:50:03Z</time>
      </trkpt>
      <trkpt lat="47.92492" lon="7.02053">
        <ele>1195.49</ele>
        <time>2021-06-23T12:50:05Z</time>
      </trkpt>
      <trkpt lat="47.92492" lon="7.02023">
        <ele>1195.44</ele>
        <time>2021-06-23T12:50:08Z</time>
      </trkpt>
      <trkpt lat="47.92489" lon="7.02003">
        <ele>1196.33</ele>
        <time>2021-06-23T12:50:10Z</time>
      </trkpt>
      <trkpt lat="47.92466" lon="7.01941">
        <ele>1196.81</ele>
        <time>2021-06-23T12:50:13Z</time>
      </trkpt>
      <trkpt lat="47.92461" lon="7.01919">
        <ele>1196.46</ele>
        <time>2021-06-23T12:50:16Z</time>
      </trkpt>
      <trkpt lat="47.9246" lon="7.01868">
        <ele>1198.87</ele>
        <time>2021-06-23T12:50:18Z</time>
      </trkpt>
      <trkpt lat="47.92472" lon="7.01755">
        <ele>1202.58</ele>
        <time>2021-06-23T12:50:21Z</time>
      </trkpt>
      <trkpt lat="47.92495" lon="7.01587">
        <ele>1198.79</ele>
        <time>2021-06-23T12:50:23Z</time>
      </trkpt>
      <trkpt lat="47.92508" lon="7.01507">
        <ele>1201.12</ele>
        <time>2021-06-23T12:50:26Z</time>
      </trkpt>
      <trkpt lat="47.92507" lon="7.01486">
        <ele>1200.03</ele>
        <time>2021-06-23T12:50:28Z</time>
      </trkpt>
      <trkpt lat="47.92502" lon="7.01459">
        <ele>1198.5</ele>
        <time>2021-06-23T12:50:31Z</time>
      </trkpt>
      <trkpt lat="47.92493" lon="7.01427">
        <ele>1199.19</ele>
        <time>2021-06-23T12:50:33Z</time>
      </trkpt>
      <trkpt lat="47.92484" lon="7.01409">
        <ele>1198.41</ele>
        <time>2021-06-23T12:50:36Z</time>
      </trkpt>
      <trkpt lat="47.92435" lon="7.01349">
        <ele>1194.51</ele>
        <time>2021-06-23T12:50:38Z</time>
      </trkpt>
      <trkpt lat="47.92426" lon="7.01333">
        <ele>1193.65</ele>
        <time>2021-06-23T12:50:41Z</time>
      </trkpt>
      <trkpt lat="47.9242" lon="7.01315">
        <ele>1190.72</ele>
        <time>2021-06-23T12:50:43Z</time>
      </trkpt>
      <trkpt lat="47.92408" lon="7.0125">
        <ele>1186.69</ele>
        <time>2021-06-23T12:50:46Z</time>
      </trkpt>
      <trkpt lat="47.92405" lon="7.01215">
        <ele>1187.18</ele>
        <time>2021-06-23T12:50:48Z</time>
      </trkpt>
      <trkpt lat="47.92403" lon="7.01164">
        <ele>1181.53</ele>
        <time>2021-06-23T12:50:51Z</time>
      </trkpt>
      <trkpt lat="47.92405" lon="7.01115">
        <ele>1175.27</ele>
        <time>2021-06-23T12:50:53Z</time>
      </trkpt>
      <trkpt lat="47.92416" lon="7.01062">
        <ele>1171.34</ele>
        <time>2021-06-23T12:50:56Z</time>
      </trkpt>
      <trkpt lat="47.92425" lon="7.01034">
        <ele>1170.48</ele>
        <time>2021-06-23T12:50:58Z</time>
      </trkpt>
      <trkpt lat="47.92436" lon="7.01008">
        <ele>1170.36</ele>
        <time>2021-06-23T12:51:01Z</time>
      </trkpt>
      <trkpt lat="47.92447" lon="7.00991">
        <ele>1170.34</ele>
        <time>2021-06-23T12:51:03Z</time>
      </trkpt>
      <trkpt lat="47.92467" lon="7.00967">
        <ele>1169.5</ele>
        <time>2021-06-23T12:51:06Z</time>
      </trkpt>
      <trkpt lat="47.92509" lon="7.00931">
        <ele>1163.91</ele>
        <time>2021-06-23T12:51:08Z</time>
      </trkpt>
      <trkpt lat="47.92533" lon="7.00906">
        <ele>1157.84</ele>
        <time>2021-06-23T12:51:11Z</time>
      </trkpt>
      <trkpt lat="47.92553" lon="7.00878">
        <ele>1157.19</ele>
        <time>2021-06-23T12:51:13Z</time>
      </trkpt>
      <trkpt lat="47.92565" lon="7.00849">
        <ele>1157.21</ele>
        <time>2021-06-23T12:51:16Z</time>
      </trkpt>
      <trkpt lat="47.92578" lon="7.00807">
        <ele>1158.17</ele>
        <time>2021-06-23T12:51:18Z</time>
      </trkpt>
      <trkpt lat="47.92594" lon="7.00748">
        <ele>1155.6</ele>
        <time>2021-06-23T12:51:21Z</time>
      </trkpt>
      <trkpt lat="47.92594" lon="7.00748">
        <ele>1155.6</ele>
        <time>2021-06-23T12:51:21Z</time>
      </trkpt>
      <trkpt lat="47.92605" lon="7.0072">
        <ele>1150.78</ele>
        <time>2021-06-23T12:51:23Z</time>
      </trkpt>
      <trkpt lat="47.92617" lon="7.00704">
        <ele>1148.98</ele>
        <time>2021-06-23T12:51:26Z</time>
      </trkpt>
      <trkpt lat="47.92631" lon="7.0069">
        <ele>1144.81</ele>
        <time>2021-06-23T12:51:29Z</time>
      </trkpt>
      <trkpt lat="47.92646" lon="7.00682">
        <ele>1142.13</ele>
        <time>2021-06-23T12:51:31Z</time>
      </trkpt>
      <trkpt lat="47.92719" lon="7.00667">
        <ele>1142.96</ele>
        <time>2021-06-23T12:51:34Z</time>
      </trkpt>
      <trkpt lat="47.92749" lon="7.00664">
        <ele>1142.71</ele>
        <time>2021-06-23T12:51:36Z</time>
      </trkpt>
      <trkpt lat="47.92767" lon="7.0067">
        <ele>1142.49</ele>
        <time>2021-06-23T12:51:39Z</time>
      </trkpt>
      <trkpt lat="47.92787" lon="7.00688">
        <ele>1140.71</ele>
        <time>2021-06-23T12:51:41Z</time>
      </trkpt>
      <trkpt lat="47.92801" lon="7.0071">
        <ele>1138.22</ele>
        <time>2021-06-23T12:51:44Z</time>
      </trkpt>
      <trkpt lat="47.92844" lon="7.00819">
        <ele>1127.9</ele>
        <time>2021-06-23T12:51:46Z</time>
      </trkpt>
      <trkpt lat="47.92872" lon="7.00882">
        <ele>1129.9</ele>
        <time>2021-06-23T12:51:49Z</time>
      </trkpt>
      <trkpt lat="47.92885" lon="7.009">
        <ele>1132.38</ele>
        <time>2021-06-23T12:51:51Z</time>
      </trkpt>
      <trkpt lat="47.92895" lon="7.00908">
        <ele>1132.54</ele>
        <time>2021-06-23T12:51:54Z</time>
      </trkpt>
      <trkpt lat="47.92911" lon="7.00916">
        <ele>1131.56</ele>
        <time>2021-06-23T12:51:57Z</time>
      </trkpt>
      <trkpt lat="47.92965" lon="7.00928">
        <ele>1120.49</ele>
        <time>2021-06-23T12:51:59Z</time>
      </trkpt>
      <trkpt lat="47.92978" lon="7.00936">
        <ele>1118.72</ele>
        <time>2021-06-23T12:52:02Z</time>
      </trkpt>
      <trkpt lat="47.92997" lon="7.00951">
        <ele>1119.47</ele>
        <time>2021-06-23T12:52:04Z</time>
      </trkpt>
      <trkpt lat="47.93015" lon="7.00976">
        <ele>1122.42</ele>
        <time>2021-06-23T12:52:07Z</time>
      </trkpt>
      <trkpt lat="47.93101" lon="7.01145">
        <ele>1112.97</ele>
        <time>2021-06-23T12:52:09Z</time>
      </trkpt>
      <trkpt lat="47.93107" lon="7.01154">
        <ele>1111.15</ele>
        <time>2021-06-23T12:52:12Z</time>
      </trkpt>
      <trkpt lat="47.9312" lon="7.01169">
        <ele>1110.16</ele>
        <time>2021-06-23T12:52:14Z</time>
      </trkpt>
      <trkpt lat="47.93134" lon="7.01176">
        <ele>1110.91</ele>
        <time>2021-06-23T12:52:17Z</time>
      </trkpt>
      <trkpt lat="47.93142" lon="7.01177">
        <ele>1110.7</ele>
        <time>2021-06-23T12:52:19Z</time>
      </trkpt>
      <trkpt lat="47.93155" lon="7.0117">
        <ele>1109.47</ele>
        <time>2021-06-23T12:52:22Z</time>
      </trkpt>
      <trkpt lat="47.93245" lon="7.01069">
        <ele>1094.05</ele>
        <time>2021-06-23T12:52:25Z</time>
      </trkpt>
      <trkpt lat="47.93257" lon="7.01059">
        <ele>1091.89</ele>
        <time>2021-06-23T12:52:27Z</time>
      </trkpt>
      <trkpt lat="47.93272" lon="7.01053">
        <ele>1090.37</ele>
        <time>2021-06-23T12:52:30Z</time>
      </trkpt>
      <trkpt lat="47.93286" lon="7.01051">
        <ele>1089.32</ele>
        <time>2021-06-23T12:52:32Z</time>
      </trkpt>
      <trkpt lat="47.93295" lon="7.01059">
        <ele>1089.54</ele>
        <time>2021-06-23T12:52:35Z</time>
      </trkpt>
      <trkpt lat="47.93306" lon="7.01075">
        <ele>1089.35</ele>
        <time>2021-06-23T12:52:37Z</time>
      </trkpt>
      <trkpt lat="47.93311" lon="7.01096">
        <ele>1088.78</ele>
        <time>2021-06-23T12:52:40Z</time>
      </trkpt>
      <trkpt lat="47.93319" lon="7.013">
        <ele>1092.25</ele>
        <time>2021-06-23T12:52:42Z</time>
      </trkpt>
      <trkpt lat="47.93322" lon="7.01331">
        <ele>1092.46</ele>
        <time>2021-06-23T12:52:45Z</time>
      </trkpt>
      <trkpt lat="47.93324" lon="7.01348">
        <ele>1090.95</ele>
        <time>2021-06-23T12:52:47Z</time>
      </trkpt>
      <trkpt lat="47.93328" lon="7.01358">
        <ele>1089.21</ele>
        <time>2021-06-23T12:52:50Z</time>
      </trkpt>
      <trkpt lat="47.93331" lon="7.01366">
        <ele>1087.91</ele>
        <time>2021-06-23T12:52:53Z</time>
      </trkpt>
      <trkpt lat="47.93342" lon="7.01379">
        <ele>1088.48</ele>
        <time>2021-06-23T12:52:55Z</time>
      </trkpt>
      <trkpt lat="47.93359" lon="7.01384">
        <ele>1088.72</ele>
        <time>2021-06-23T12:52:58Z</time>
      </trkpt>
      <trkpt lat="47.9337" lon="7.01382">
        <ele>1088.19</ele>
        <time>2021-06-23T12:53:00Z</time>
      </trkpt>
      <trkpt lat="47.93478" lon="7.01315">
        <ele>1071.94</ele>
        <time>2021-06-23T12:53:03Z</time>
      </trkpt>
      <trkpt lat="47.93503" lon="7.01303">
        <ele>1071.24</ele>
        <time>2021-06-23T12:53:05Z</time>
      </trkpt>
      <trkpt lat="47.93531" lon="7.01297">
        <ele>1069.39</ele>
        <time>2021-06-23T12:53:08Z</time>
      </trkpt>
      <trkpt lat="47.93549" lon="7.01297">
        <ele>1068.94</ele>
        <time>2021-06-23T12:53:10Z</time>
      </trkpt>
      <trkpt lat="47.93577" lon="7.01305">
        <ele>1070.84</ele>
        <time>2021-06-23T12:53:13Z</time>
      </trkpt>
      <trkpt lat="47.93588" lon="7.0131">
        <ele>1071.77</ele>
        <time>2021-06-23T12:53:15Z</time>
      </trkpt>
      <trkpt lat="47.93613" lon="7.01328">
        <ele>1072.05</ele>
        <time>2021-06-23T12:53:18Z</time>
      </trkpt>
      <trkpt lat="47.9368" lon="7.01411">
        <ele>1063.52</ele>
        <time>2021-06-23T12:53:20Z</time>
      </trkpt>
      <trkpt lat="47.93692" lon="7.01422">
        <ele>1063.85</ele>
        <time>2021-06-23T12:53:23Z</time>
      </trkpt>
      <trkpt lat="47.93819" lon="7.01478">
        <ele>1056.64</ele>
        <time>2021-06-23T12:53:26Z</time>
      </trkpt>
      <trkpt lat="47.93846" lon="7.015">
        <ele>1055.45</ele>
        <time>2021-06-23T12:53:28Z</time>
      </trkpt>
      <trkpt lat="47.939" lon="7.01561">
        <ele>1060.32</ele>
        <time>2021-06-23T12:53:31Z</time>
      </trkpt>
      <trkpt lat="47.93911" lon="7.01565">
        <ele>1057.44</ele>
        <time>2021-06-23T12:53:33Z</time>
      </trkpt>
      <trkpt lat="47.93925" lon="7.01563">
        <ele>1054.67</ele>
        <time>2021-06-23T12:53:36Z</time>
      </trkpt>
      <trkpt lat="47.93949" lon="7.01551">
        <ele>1051.22</ele>
        <time>2021-06-23T12:53:38Z</time>
      </trkpt>
      <trkpt lat="47.93973" lon="7.01544">
        <ele>1050.72</ele>
        <time>2021-06-23T12:53:41Z</time>
      </trkpt>
      <trkpt lat="47.9399" lon="7.01544">
        <ele>1050.44</ele>
        <time>2021-06-23T12:53:43Z</time>
      </trkpt>
      <trkpt lat="47.94033" lon="7.01554">
        <ele>1051.74</ele>
        <time>2021-06-23T12:53:46Z</time>
      </trkpt>
      <trkpt lat="47.94033" lon="7.01554">
        <ele>1051.74</ele>
        <time>2021-06-23T12:53:46Z</time>
      </trkpt>
      <trkpt lat="47.94046" lon="7.01557">
        <ele>1053.04</ele>
        <time>2021-06-23T12:53:49Z</time>
      </trkpt>
      <trkpt lat="47.94055" lon="7.01553">
        <ele>1052.41</ele>
        <time>2021-06-23T12:53:52Z</time>
      </trkpt>
      <trkpt lat="47.94064" lon="7.01544">
        <ele>1052.55</ele>
        <time>2021-06-23T12:53:55Z</time>
      </trkpt>
      <trkpt lat="47.94078" lon="7.01491">
        <ele>1046.73</ele>
        <time>2021-06-23T12:53:58Z</time>
      </trkpt>
      <trkpt lat="47.94087" lon="7.01448">
        <ele>1043.58</ele>
        <time>2021-06-23T12:54:01Z</time>
      </trkpt>
      <trkpt lat="47.94089" lon="7.01433">
        <ele>1042.41</ele>
        <time>2021-06-23T12:54:04Z</time>
      </trkpt>
      <trkpt lat="47.94088" lon="7.01416">
        <ele>1040.03</ele>
        <time>2021-06-23T12:54:07Z</time>
      </trkpt>
      <trkpt lat="47.94075" lon="7.01337">
        <ele>1037.65</ele>
        <time>2021-06-23T12:54:10Z</time>
      </trkpt>
      <trkpt lat="47.94022" lon="7.01143">
        <ele>1026.52</ele>
        <time>2021-06-23T12:54:13Z</time>
      </trkpt>
      <trkpt lat="47.94016" lon="7.01107">
        <ele>1026.71</ele>
        <time>2021-06-23T12:54:16Z</time>
      </trkpt>
      <trkpt lat="47.94005" lon="7.00928">
        <ele>1018.34</ele>
        <time>2021-06-23T12:54:19Z</time>
      </trkpt>
      <trkpt lat="47.94007" lon="7.00775">
        <ele>1013.75</ele>
        <time>2021-06-23T12:54:22Z</time>
      </trkpt>
      <trkpt lat="47.94012" lon="7.00731">
        <ele>1013.28</ele>
        <time>2021-06-23T12:54:25Z</time>
      </trkpt>
      <trkpt lat="47.94023" lon="7.00689">
        <ele>1015.04</ele>
        <time>2021-06-23T12:54:28Z</time>
      </trkpt>
      <trkpt lat="47.94032" lon="7.00667">
        <ele>1014.8</ele>
        <time>2021-06-23T12:54:31Z</time>
      </trkpt>
      <trkpt lat="47.94044" lon="7.00648">
        <ele>1014.88</ele>
        <time>2021-06-23T12:54:34Z</time>
      </trkpt>
      <trkpt lat="47.94056" lon="7.00637">
        <ele>1015.89</ele>
        <time>2021-06-23T12:54:37Z</time>
      </trkpt>
      <trkpt lat="47.94068" lon="7.00631">
        <ele>1016.62</ele>
        <time>2021-06-23T12:54:40Z</time>
      </trkpt>
      <trkpt lat="47.94093" lon="7.00628">
        <ele>1018.27</ele>
        <time>2021-06-23T12:54:44Z</time>
      </trkpt>
      <trkpt lat="47.94121" lon="7.00633">
        <ele>1017.41</ele>
        <time>2021-06-23T12:54:47Z</time>
      </trkpt>
      <trkpt lat="47.94147" lon="7.00649">
        <ele>1015.46</ele>
        <time>2021-06-23T12:54:50Z</time>
      </trkpt>
      <trkpt lat="47.94289" lon="7.00788">
        <ele>1009.55</ele>
        <time>2021-06-23T12:54:53Z</time>
      </trkpt>
      <trkpt lat="47.94364" lon="7.00855">
        <ele>1005.23</ele>
        <time>2021-06-23T12:54:56Z</time>
      </trkpt>
      <trkpt lat="47.94409" lon="7.00883">
        <ele>1004.37</ele>
        <time>2021-06-23T12:54:59Z</time>
      </trkpt>
      <trkpt lat="47.94526" lon="7.00911">
        <ele>994.85</ele>
        <time>2021-06-23T12:55:02Z</time>
      </trkpt>
      <trkpt lat="47.94556" lon="7.00924">
        <ele>993.62</ele>
        <time>2021-06-23T12:55:05Z</time>
      </trkpt>
      <trkpt lat="47.94585" lon="7.0094">
        <ele>991.13</ele>
        <time>2021-06-23T12:55:08Z</time>
      </trkpt>
      <trkpt lat="47.94596" lon="7.00951">
        <ele>991.11</ele>
        <time>2021-06-23T12:55:11Z</time>
      </trkpt>
      <trkpt lat="47.94605" lon="7.00965">
        <ele>991.98</ele>
        <time>2021-06-23T12:55:14Z</time>
      </trkpt>
      <trkpt lat="47.94615" lon="7.00983">
        <ele>992.79</ele>
        <time>2021-06-23T12:55:17Z</time>
      </trkpt>
      <trkpt lat="47.94619" lon="7.01003">
        <ele>994</ele>
        <time>2021-06-23T12:55:20Z</time>
      </trkpt>
      <trkpt lat="47.94629" lon="7.01094">
        <ele>994.56</ele>
        <time>2021-06-23T12:55:23Z</time>
      </trkpt>
      <trkpt lat="47.94635" lon="7.01136">
        <ele>995.03</ele>
        <time>2021-06-23T12:55:26Z</time>
      </trkpt>
      <trkpt lat="47.9464" lon="7.01156">
        <ele>994.48</ele>
        <time>2021-06-23T12:55:29Z</time>
      </trkpt>
      <trkpt lat="47.94661" lon="7.01191">
        <ele>992.06</ele>
        <time>2021-06-23T12:55:32Z</time>
      </trkpt>
      <trkpt lat="47.94674" lon="7.01198">
        <ele>991.29</ele>
        <time>2021-06-23T12:55:35Z</time>
      </trkpt>
      <trkpt lat="47.94691" lon="7.01196">
        <ele>990.52</ele>
        <time>2021-06-23T12:55:38Z</time>
      </trkpt>
      <trkpt lat="47.94707" lon="7.01187">
        <ele>989.65</ele>
        <time>2021-06-23T12:55:41Z</time>
      </trkpt>
      <trkpt lat="47.94746" lon="7.01157">
        <ele>988.63</ele>
        <time>2021-06-23T12:55:44Z</time>
      </trkpt>
      <trkpt lat="47.94773" lon="7.01149">
        <ele>989.56</ele>
        <time>2021-06-23T12:55:47Z</time>
      </trkpt>
      <trkpt lat="47.94815" lon="7.01144">
        <ele>992.38</ele>
        <time>2021-06-23T12:55:50Z</time>
      </trkpt>
      <trkpt lat="47.94822" lon="7.01139">
        <ele>992.63</ele>
        <time>2021-06-23T12:55:53Z</time>
      </trkpt>
      <trkpt lat="47.94833" lon="7.01119">
        <ele>992.94</ele>
        <time>2021-06-23T12:55:56Z</time>
      </trkpt>
      <trkpt lat="47.94851" lon="7.01043">
        <ele>988.16</ele>
        <time>2021-06-23T12:55:59Z</time>
      </trkpt>
      <trkpt lat="47.94866" lon="7.00994">
        <ele>980.2</ele>
        <time>2021-06-23T12:56:02Z</time>
      </trkpt>
      <trkpt lat="47.94883" lon="7.00956">
        <ele>975.46</ele>
        <time>2021-06-23T12:56:05Z</time>
      </trkpt>
      <trkpt lat="47.94938" lon="7.00868">
        <ele>975.97</ele>
        <time>2021-06-23T12:56:08Z</time>
      </trkpt>
      <trkpt lat="47.94963" lon="7.00848">
        <ele>977.1</ele>
        <time>2021-06-23T12:56:11Z</time>
      </trkpt>
      <trkpt lat="47.9498" lon="7.00844">
        <ele>979.22</ele>
        <time>2021-06-23T12:56:14Z</time>
      </trkpt>
      <trkpt lat="47.94996" lon="7.00844">
        <ele>982.23</ele>
        <time>2021-06-23T12:56:17Z</time>
      </trkpt>
      <trkpt lat="47.95054" lon="7.00853">
        <ele>983.34</ele>
        <time>2021-06-23T12:56:20Z</time>
      </trkpt>
      <trkpt lat="47.9508" lon="7.00851">
        <ele>978.86</ele>
        <time>2021-06-23T12:56:23Z</time>
      </trkpt>
      <trkpt lat="47.95093" lon="7.00841">
        <ele>977.97</ele>
        <time>2021-06-23T12:56:26Z</time>
      </trkpt>
      <trkpt lat="47.95103" lon="7.00827">
        <ele>977.95</ele>
        <time>2021-06-23T12:56:29Z</time>
      </trkpt>
      <trkpt lat="47.95109" lon="7.00806">
        <ele>976.48</ele>
        <time>2021-06-23T12:56:33Z</time>
      </trkpt>
      <trkpt lat="47.9511" lon="7.0078">
        <ele>976.68</ele>
        <time>2021-06-23T12:56:36Z</time>
      </trkpt>
      <trkpt lat="47.95102" lon="7.0071">
        <ele>971.97</ele>
        <time>2021-06-23T12:56:39Z</time>
      </trkpt>
      <trkpt lat="47.95098" lon="7.00651">
        <ele>969.73</ele>
        <time>2021-06-23T12:56:42Z</time>
      </trkpt>
      <trkpt lat="47.95092" lon="7.00464">
        <ele>959.53</ele>
        <time>2021-06-23T12:56:45Z</time>
      </trkpt>
      <trkpt lat="47.95065" lon="7.00322">
        <ele>957.88</ele>
        <time>2021-06-23T12:56:48Z</time>
      </trkpt>
      <trkpt lat="47.9504" lon="7.00152">
        <ele>964.27</ele>
        <time>2021-06-23T12:56:51Z</time>
      </trkpt>
      <trkpt lat="47.95029" lon="7.00128">
        <ele>965.03</ele>
        <time>2021-06-23T12:56:54Z</time>
      </trkpt>
      <trkpt lat="47.94981" lon="7.00082">
        <ele>961.79</ele>
        <time>2021-06-23T12:56:57Z</time>
      </trkpt>
      <trkpt lat="47.94969" lon="7.00061">
        <ele>961.26</ele>
        <time>2021-06-23T12:57:00Z</time>
      </trkpt>
      <trkpt lat="47.94962" lon="7.00034">
        <ele>961.01</ele>
        <time>2021-06-23T12:57:03Z</time>
      </trkpt>
      <trkpt lat="47.94952" lon="6.99934">
        <ele>958.94</ele>
        <time>2021-06-23T12:57:06Z</time>
      </trkpt>
      <trkpt lat="47.9495" lon="6.99868">
        <ele>960.84</ele>
        <time>2021-06-23T12:57:09Z</time>
      </trkpt>
      <trkpt lat="47.94945" lon="6.99847">
        <ele>960.49</ele>
        <time>2021-06-23T12:57:12Z</time>
      </trkpt>
      <trkpt lat="47.9494" lon="6.99831">
        <ele>959.77</ele>
        <time>2021-06-23T12:57:15Z</time>
      </trkpt>
      <trkpt lat="47.94925" lon="6.9981">
        <ele>958.87</ele>
        <time>2021-06-23T12:57:18Z</time>
      </trkpt>
      <trkpt lat="47.94901" lon="6.99789">
        <ele>955.92</ele>
        <time>2021-06-23T12:57:21Z</time>
      </trkpt>
      <trkpt lat="47.94813" lon="6.99748">
        <ele>948.31</ele>
        <time>2021-06-23T12:57:24Z</time>
      </trkpt>
      <trkpt lat="47.948" lon="6.99739">
        <ele>946.61</ele>
        <time>2021-06-23T12:57:27Z</time>
      </trkpt>
      <trkpt lat="47.94788" lon="6.99724">
        <ele>945.14</ele>
        <time>2021-06-23T12:57:30Z</time>
      </trkpt>
      <trkpt lat="47.94777" lon="6.99704">
        <ele>945.72</ele>
        <time>2021-06-23T12:57:33Z</time>
      </trkpt>
      <trkpt lat="47.94767" lon="6.99678">
        <ele>946.4</ele>
        <time>2021-06-23T12:57:36Z</time>
      </trkpt>
      <trkpt lat="47.94758" lon="6.99643">
        <ele>947.5</ele>
        <time>2021-06-23T12:57:39Z</time>
      </trkpt>
      <trkpt lat="47.94757" lon="6.99612">
        <ele>947.49</ele>
        <time>2021-06-23T12:57:42Z</time>
      </trkpt>
      <trkpt lat="47.94763" lon="6.99585">
        <ele>943.79</ele>
        <time>2021-06-23T12:57:45Z</time>
      </trkpt>
      <trkpt lat="47.94774" lon="6.99566">
        <ele>939.92</ele>
        <time>2021-06-23T12:57:48Z</time>
      </trkpt>
      <trkpt lat="47.94785" lon="6.99556">
        <ele>938.57</ele>
        <time>2021-06-23T12:57:51Z</time>
      </trkpt>
      <trkpt lat="47.94807" lon="6.99548">
        <ele>938.58</ele>
        <time>2021-06-23T12:57:54Z</time>
      </trkpt>
      <trkpt lat="47.94887" lon="6.99543">
        <ele>936.05</ele>
        <time>2021-06-23T12:57:57Z</time>
      </trkpt>
      <trkpt lat="47.94914" lon="6.99539">
        <ele>934.88</ele>
        <time>2021-06-23T12:58:00Z</time>
      </trkpt>
      <trkpt lat="47.94953" lon="6.99529">
        <ele>936.48</ele>
        <time>2021-06-23T12:58:03Z</time>
      </trkpt>
      <trkpt lat="47.94985" lon="6.99527">
        <ele>937.81</ele>
        <time>2021-06-23T12:58:06Z</time>
      </trkpt>
      <trkpt lat="47.95059" lon="6.99541">
        <ele>938.02</ele>
        <time>2021-06-23T12:58:09Z</time>
      </trkpt>
      <trkpt lat="47.95227" lon="6.99612">
        <ele>931.7</ele>
        <time>2021-06-23T12:58:12Z</time>
      </trkpt>
      <trkpt lat="47.95336" lon="6.9967">
        <ele>926.97</ele>
        <time>2021-06-23T12:58:15Z</time>
      </trkpt>
      <trkpt lat="47.95391" lon="6.99706">
        <ele>926.42</ele>
        <time>2021-06-23T12:58:19Z</time>
      </trkpt>
      <trkpt lat="47.95431" lon="6.99743">
        <ele>926.35</ele>
        <time>2021-06-23T12:58:22Z</time>
      </trkpt>
      <trkpt lat="47.95479" lon="6.99797">
        <ele>923.71</ele>
        <time>2021-06-23T12:58:25Z</time>
      </trkpt>
      <trkpt lat="47.95488" lon="6.99801">
        <ele>923.54</ele>
        <time>2021-06-23T12:58:28Z</time>
      </trkpt>
      <trkpt lat="47.95497" lon="6.99803">
        <ele>922.66</ele>
        <time>2021-06-23T12:58:31Z</time>
      </trkpt>
      <trkpt lat="47.95506" lon="6.998">
        <ele>921.93</ele>
        <time>2021-06-23T12:58:34Z</time>
      </trkpt>
      <trkpt lat="47.9552" lon="6.99785">
        <ele>919.77</ele>
        <time>2021-06-23T12:58:37Z</time>
      </trkpt>
      <trkpt lat="47.95551" lon="6.99712">
        <ele>910.98</ele>
        <time>2021-06-23T12:58:40Z</time>
      </trkpt>
      <trkpt lat="47.95569" lon="6.99682">
        <ele>907.38</ele>
        <time>2021-06-23T12:58:43Z</time>
      </trkpt>
      <trkpt lat="47.95576" lon="6.99673">
        <ele>906.82</ele>
        <time>2021-06-23T12:58:46Z</time>
      </trkpt>
      <trkpt lat="47.95599" lon="6.99654">
        <ele>907.28</ele>
        <time>2021-06-23T12:58:49Z</time>
      </trkpt>
      <trkpt lat="47.95647" lon="6.99622">
        <ele>908.97</ele>
        <time>2021-06-23T12:58:52Z</time>
      </trkpt>
      <trkpt lat="47.95647" lon="6.99622">
        <ele>908.97</ele>
        <time>2021-06-23T12:58:52Z</time>
      </trkpt>
      <trkpt lat="47.95661" lon="6.99604">
        <ele>911.86</ele>
        <time>2021-06-23T12:58:55Z</time>
      </trkpt>
      <trkpt lat="47.95666" lon="6.9958">
        <ele>910.76</ele>
        <time>2021-06-23T12:58:58Z</time>
      </trkpt>
      <trkpt lat="47.95666" lon="6.99555">
        <ele>909.45</ele>
        <time>2021-06-23T12:59:01Z</time>
      </trkpt>
      <trkpt lat="47.95662" lon="6.9952">
        <ele>908.25</ele>
        <time>2021-06-23T12:59:04Z</time>
      </trkpt>
      <trkpt lat="47.9566" lon="6.99487">
        <ele>908.92</ele>
        <time>2021-06-23T12:59:07Z</time>
      </trkpt>
      <trkpt lat="47.95662" lon="6.99423">
        <ele>910.32</ele>
        <time>2021-06-23T12:59:10Z</time>
      </trkpt>
      <trkpt lat="47.95659" lon="6.99404">
        <ele>912</ele>
        <time>2021-06-23T12:59:13Z</time>
      </trkpt>
      <trkpt lat="47.95623" lon="6.99317">
        <ele>904.42</ele>
        <time>2021-06-23T12:59:16Z</time>
      </trkpt>
      <trkpt lat="47.95618" lon="6.99294">
        <ele>904.46</ele>
        <time>2021-06-23T12:59:20Z</time>
      </trkpt>
      <trkpt lat="47.95615" lon="6.9923">
        <ele>903.89</ele>
        <time>2021-06-23T12:59:23Z</time>
      </trkpt>
      <trkpt lat="47.95617" lon="6.99192">
        <ele>897.95</ele>
        <time>2021-06-23T12:59:26Z</time>
      </trkpt>
      <trkpt lat="47.95621" lon="6.99162">
        <ele>895.55</ele>
        <time>2021-06-23T12:59:29Z</time>
      </trkpt>
      <trkpt lat="47.95637" lon="6.99107">
        <ele>900.95</ele>
        <time>2021-06-23T12:59:32Z</time>
      </trkpt>
      <trkpt lat="47.95639" lon="6.99093">
        <ele>902</ele>
        <time>2021-06-23T12:59:35Z</time>
      </trkpt>
      <trkpt lat="47.95637" lon="6.99077">
        <ele>902.45</ele>
        <time>2021-06-23T12:59:38Z</time>
      </trkpt>
      <trkpt lat="47.95634" lon="6.99064">
        <ele>903.06</ele>
        <time>2021-06-23T12:59:41Z</time>
      </trkpt>
      <trkpt lat="47.95627" lon="6.99051">
        <ele>903.24</ele>
        <time>2021-06-23T12:59:44Z</time>
      </trkpt>
      <trkpt lat="47.95618" lon="6.9904">
        <ele>903.45</ele>
        <time>2021-06-23T12:59:47Z</time>
      </trkpt>
      <trkpt lat="47.95552" lon="6.98995">
        <ele>894.56</ele>
        <time>2021-06-23T12:59:50Z</time>
      </trkpt>
      <trkpt lat="47.95538" lon="6.9898">
        <ele>895.13</ele>
        <time>2021-06-23T12:59:53Z</time>
      </trkpt>
      <trkpt lat="47.95528" lon="6.98962">
        <ele>894.47</ele>
        <time>2021-06-23T12:59:56Z</time>
      </trkpt>
      <trkpt lat="47.95521" lon="6.98939">
        <ele>891.35</ele>
        <time>2021-06-23T12:59:59Z</time>
      </trkpt>
      <trkpt lat="47.9552" lon="6.98917">
        <ele>889.24</ele>
        <time>2021-06-23T13:00:03Z</time>
      </trkpt>
      <trkpt lat="47.95524" lon="6.98895">
        <ele>886.25</ele>
        <time>2021-06-23T13:00:06Z</time>
      </trkpt>
      <trkpt lat="47.9553" lon="6.98878">
        <ele>884.26</ele>
        <time>2021-06-23T13:00:09Z</time>
      </trkpt>
      <trkpt lat="47.95539" lon="6.98864">
        <ele>884.04</ele>
        <time>2021-06-23T13:00:12Z</time>
      </trkpt>
      <trkpt lat="47.95655" lon="6.98747">
        <ele>886.16</ele>
        <time>2021-06-23T13:00:15Z</time>
      </trkpt>
      <trkpt lat="47.95703" lon="6.98675">
        <ele>878.11</ele>
        <time>2021-06-23T13:00:18Z</time>
      </trkpt>
      <trkpt lat="47.95729" lon="6.98645">
        <ele>875.54</ele>
        <time>2021-06-23T13:00:21Z</time>
      </trkpt>
      <trkpt lat="47.95766" lon="6.98612">
        <ele>874.49</ele>
        <time>2021-06-23T13:00:24Z</time>
      </trkpt>
      <trkpt lat="47.95793" lon="6.98593">
        <ele>871.1</ele>
        <time>2021-06-23T13:00:27Z</time>
      </trkpt>
      <trkpt lat="47.95847" lon="6.98563">
        <ele>865.78</ele>
        <time>2021-06-23T13:00:30Z</time>
      </trkpt>
      <trkpt lat="47.95916" lon="6.98541">
        <ele>866.79</ele>
        <time>2021-06-23T13:00:33Z</time>
      </trkpt>
      <trkpt lat="47.95925" lon="6.98535">
        <ele>866.39</ele>
        <time>2021-06-23T13:00:36Z</time>
      </trkpt>
      <trkpt lat="47.95935" lon="6.98521">
        <ele>866.36</ele>
        <time>2021-06-23T13:00:39Z</time>
      </trkpt>
      <trkpt lat="47.95938" lon="6.98495">
        <ele>866.08</ele>
        <time>2021-06-23T13:00:42Z</time>
      </trkpt>
      <trkpt lat="47.95934" lon="6.9848">
        <ele>865.22</ele>
        <time>2021-06-23T13:00:46Z</time>
      </trkpt>
      <trkpt lat="47.95928" lon="6.98467">
        <ele>863.1</ele>
        <time>2021-06-23T13:00:49Z</time>
      </trkpt>
      <trkpt lat="47.95912" lon="6.98443">
        <ele>859.24</ele>
        <time>2021-06-23T13:00:52Z</time>
      </trkpt>
      <trkpt lat="47.95845" lon="6.98358">
        <ele>862.23</ele>
        <time>2021-06-23T13:00:55Z</time>
      </trkpt>
      <trkpt lat="47.95814" lon="6.983">
        <ele>866.17</ele>
        <time>2021-06-23T13:00:58Z</time>
      </trkpt>
      <trkpt lat="47.95797" lon="6.98282">
        <ele>866.67</ele>
        <time>2021-06-23T13:01:01Z</time>
      </trkpt>
      <trkpt lat="47.9578" lon="6.98271">
        <ele>866.62</ele>
        <time>2021-06-23T13:01:04Z</time>
      </trkpt>
      <trkpt lat="47.95753" lon="6.98267">
        <ele>860.56</ele>
        <time>2021-06-23T13:01:07Z</time>
      </trkpt>
      <trkpt lat="47.95674" lon="6.98266">
        <ele>855.45</ele>
        <time>2021-06-23T13:01:10Z</time>
      </trkpt>
      <trkpt lat="47.95535" lon="6.9829">
        <ele>840.66</ele>
        <time>2021-06-23T13:01:13Z</time>
      </trkpt>
      <trkpt lat="47.95507" lon="6.98288">
        <ele>835.37</ele>
        <time>2021-06-23T13:01:16Z</time>
      </trkpt>
      <trkpt lat="47.95455" lon="6.98268">
        <ele>834.84</ele>
        <time>2021-06-23T13:01:19Z</time>
      </trkpt>
      <trkpt lat="47.95435" lon="6.98269">
        <ele>835.72</ele>
        <time>2021-06-23T13:01:22Z</time>
      </trkpt>
      <trkpt lat="47.95419" lon="6.98281">
        <ele>833.63</ele>
        <time>2021-06-23T13:01:25Z</time>
      </trkpt>
      <trkpt lat="47.95292" lon="6.98411">
        <ele>825.62</ele>
        <time>2021-06-23T13:01:29Z</time>
      </trkpt>
      <trkpt lat="47.95265" lon="6.98441">
        <ele>813.71</ele>
        <time>2021-06-23T13:01:32Z</time>
      </trkpt>
      <trkpt lat="47.95246" lon="6.98458">
        <ele>808.58</ele>
        <time>2021-06-23T13:01:35Z</time>
      </trkpt>
      <trkpt lat="47.95222" lon="6.9847">
        <ele>808.97</ele>
        <time>2021-06-23T13:01:38Z</time>
      </trkpt>
      <trkpt lat="47.95172" lon="6.98484">
        <ele>808.17</ele>
        <time>2021-06-23T13:01:41Z</time>
      </trkpt>
      <trkpt lat="47.95123" lon="6.98484">
        <ele>809.46</ele>
        <time>2021-06-23T13:01:44Z</time>
      </trkpt>
      <trkpt lat="47.95078" lon="6.9848">
        <ele>803.5</ele>
        <time>2021-06-23T13:01:47Z</time>
      </trkpt>
      <trkpt lat="47.95044" lon="6.98472">
        <ele>799.31</ele>
        <time>2021-06-23T13:01:50Z</time>
      </trkpt>
      <trkpt lat="47.95009" lon="6.98458">
        <ele>799.99</ele>
        <time>2021-06-23T13:01:53Z</time>
      </trkpt>
      <trkpt lat="47.94915" lon="6.98387">
        <ele>795.7</ele>
        <time>2021-06-23T13:01:56Z</time>
      </trkpt>
      <trkpt lat="47.94879" lon="6.98369">
        <ele>796.29</ele>
        <time>2021-06-23T13:01:59Z</time>
      </trkpt>
      <trkpt lat="47.94794" lon="6.98367">
        <ele>787.51</ele>
        <time>2021-06-23T13:02:02Z</time>
      </trkpt>
      <trkpt lat="47.94766" lon="6.98357">
        <ele>785.75</ele>
        <time>2021-06-23T13:02:05Z</time>
      </trkpt>
      <trkpt lat="47.94742" lon="6.98334">
        <ele>789.59</ele>
        <time>2021-06-23T13:02:08Z</time>
      </trkpt>
      <trkpt lat="47.94621" lon="6.98163">
        <ele>778.08</ele>
        <time>2021-06-23T13:02:11Z</time>
      </trkpt>
      <trkpt lat="47.946" lon="6.98143">
        <ele>776.62</ele>
        <time>2021-06-23T13:02:15Z</time>
      </trkpt>
      <trkpt lat="47.94503" lon="6.98103">
        <ele>770.24</ele>
        <time>2021-06-23T13:02:18Z</time>
      </trkpt>
      <trkpt lat="47.94413" lon="6.98059">
        <ele>770.64</ele>
        <time>2021-06-23T13:02:21Z</time>
      </trkpt>
      <trkpt lat="47.94372" lon="6.9803">
        <ele>767.86</ele>
        <time>2021-06-23T13:02:24Z</time>
      </trkpt>
      <trkpt lat="47.94349" lon="6.9801">
        <ele>764.92</ele>
        <time>2021-06-23T13:02:27Z</time>
      </trkpt>
      <trkpt lat="47.94331" lon="6.97983">
        <ele>761.57</ele>
        <time>2021-06-23T13:02:30Z</time>
      </trkpt>
      <trkpt lat="47.94299" lon="6.979">
        <ele>760.74</ele>
        <time>2021-06-23T13:02:33Z</time>
      </trkpt>
      <trkpt lat="47.94287" lon="6.97884">
        <ele>760.64</ele>
        <time>2021-06-23T13:02:36Z</time>
      </trkpt>
      <trkpt lat="47.94228" lon="6.97869">
        <ele>749.63</ele>
        <time>2021-06-23T13:02:39Z</time>
      </trkpt>
      <trkpt lat="47.94201" lon="6.97848">
        <ele>748.2</ele>
        <time>2021-06-23T13:02:42Z</time>
      </trkpt>
      <trkpt lat="47.94187" lon="6.9783">
        <ele>746.83</ele>
        <time>2021-06-23T13:02:45Z</time>
      </trkpt>
      <trkpt lat="47.94172" lon="6.97799">
        <ele>743.71</ele>
        <time>2021-06-23T13:02:48Z</time>
      </trkpt>
      <trkpt lat="47.9417" lon="6.97791">
        <ele>742.26</ele>
        <time>2021-06-23T13:02:51Z</time>
      </trkpt>
      <trkpt lat="47.9417" lon="6.97791">
        <ele>742.26</ele>
        <time>2021-06-23T13:02:51Z</time>
      </trkpt>
      <trkpt lat="47.94163" lon="6.97763">
        <ele>740.81</ele>
        <time>2021-06-23T13:02:55Z</time>
      </trkpt>
      <trkpt lat="47.94157" lon="6.97706">
        <ele>738.13</ele>
        <time>2021-06-23T13:02:58Z</time>
      </trkpt>
      <trkpt lat="47.94164" lon="6.97503">
        <ele>731.88</ele>
        <time>2021-06-23T13:03:01Z</time>
      </trkpt>
      <trkpt lat="47.9417" lon="6.97434">
        <ele>731.88</ele>
        <time>2021-06-23T13:03:04Z</time>
      </trkpt>
      <trkpt lat="47.94178" lon="6.97386">
        <ele>727.97</ele>
        <time>2021-06-23T13:03:07Z</time>
      </trkpt>
      <trkpt lat="47.94189" lon="6.97338">
        <ele>724.38</ele>
        <time>2021-06-23T13:03:10Z</time>
      </trkpt>
      <trkpt lat="47.94217" lon="6.97226">
        <ele>722.49</ele>
        <time>2021-06-23T13:03:13Z</time>
      </trkpt>
      <trkpt lat="47.94238" lon="6.97109">
        <ele>721.49</ele>
        <time>2021-06-23T13:03:16Z</time>
      </trkpt>
      <trkpt lat="47.94239" lon="6.97083">
        <ele>720.27</ele>
        <time>2021-06-23T13:03:19Z</time>
      </trkpt>
      <trkpt lat="47.94237" lon="6.97056">
        <ele>718.68</ele>
        <time>2021-06-23T13:03:23Z</time>
      </trkpt>
      <trkpt lat="47.94198" lon="6.96951">
        <ele>711.66</ele>
        <time>2021-06-23T13:03:26Z</time>
      </trkpt>
      <trkpt lat="47.9419" lon="6.96921">
        <ele>708.04</ele>
        <time>2021-06-23T13:03:29Z</time>
      </trkpt>
      <trkpt lat="47.94185" lon="6.96882">
        <ele>705.04</ele>
        <time>2021-06-23T13:03:32Z</time>
      </trkpt>
      <trkpt lat="47.94186" lon="6.96862">
        <ele>704.58</ele>
        <time>2021-06-23T13:03:35Z</time>
      </trkpt>
      <trkpt lat="47.9419" lon="6.96849">
        <ele>704.34</ele>
        <time>2021-06-23T13:03:38Z</time>
      </trkpt>
      <trkpt lat="47.94197" lon="6.96836">
        <ele>704.39</ele>
        <time>2021-06-23T13:03:41Z</time>
      </trkpt>
      <trkpt lat="47.94209" lon="6.96822">
        <ele>704.34</ele>
        <time>2021-06-23T13:03:44Z</time>
      </trkpt>
      <trkpt lat="47.94238" lon="6.96797">
        <ele>703.98</ele>
        <time>2021-06-23T13:03:47Z</time>
      </trkpt>
      <trkpt lat="47.94272" lon="6.96765">
        <ele>702.59</ele>
        <time>2021-06-23T13:03:50Z</time>
      </trkpt>
      <trkpt lat="47.94295" lon="6.96752">
        <ele>702</ele>
        <time>2021-06-23T13:03:54Z</time>
      </trkpt>
      <trkpt lat="47.94346" lon="6.96728">
        <ele>696.25</ele>
        <time>2021-06-23T13:03:57Z</time>
      </trkpt>
      <trkpt lat="47.9445" lon="6.96703">
        <ele>687.13</ele>
        <time>2021-06-23T13:04:00Z</time>
      </trkpt>
      <trkpt lat="47.94487" lon="6.96692">
        <ele>685.52</ele>
        <time>2021-06-23T13:04:03Z</time>
      </trkpt>
      <trkpt lat="47.94693" lon="6.96656">
        <ele>661.68</ele>
        <time>2021-06-23T13:04:06Z</time>
      </trkpt>
      <trkpt lat="47.94707" lon="6.96658">
        <ele>661.66</ele>
        <time>2021-06-23T13:04:09Z</time>
      </trkpt>
      <trkpt lat="47.94724" lon="6.96669">
        <ele>663.64</ele>
        <time>2021-06-23T13:04:12Z</time>
      </trkpt>
      <trkpt lat="47.94749" lon="6.96689">
        <ele>665.55</ele>
        <time>2021-06-23T13:04:15Z</time>
      </trkpt>
      <trkpt lat="47.94757" lon="6.9669">
        <ele>666.03</ele>
        <time>2021-06-23T13:04:18Z</time>
      </trkpt>
      <trkpt lat="47.94765" lon="6.96688">
        <ele>666.01</ele>
        <time>2021-06-23T13:04:22Z</time>
      </trkpt>
      <trkpt lat="47.94773" lon="6.96679">
        <ele>664.26</ele>
        <time>2021-06-23T13:04:25Z</time>
      </trkpt>
      <trkpt lat="47.94779" lon="6.9666">
        <ele>661.73</ele>
        <time>2021-06-23T13:04:28Z</time>
      </trkpt>
      <trkpt lat="47.9479" lon="6.96616">
        <ele>658.67</ele>
        <time>2021-06-23T13:04:31Z</time>
      </trkpt>
      <trkpt lat="47.94802" lon="6.96549">
        <ele>657.02</ele>
        <time>2021-06-23T13:04:34Z</time>
      </trkpt>
      <trkpt lat="47.94802" lon="6.96528">
        <ele>656.84</ele>
        <time>2021-06-23T13:04:37Z</time>
      </trkpt>
      <trkpt lat="47.948" lon="6.96503">
        <ele>653.14</ele>
        <time>2021-06-23T13:04:40Z</time>
      </trkpt>
      <trkpt lat="47.9479" lon="6.96462">
        <ele>642.77</ele>
        <time>2021-06-23T13:04:43Z</time>
      </trkpt>
      <trkpt lat="47.94788" lon="6.96441">
        <ele>639.47</ele>
        <time>2021-06-23T13:04:46Z</time>
      </trkpt>
      <trkpt lat="47.9479" lon="6.96416">
        <ele>636.27</ele>
        <time>2021-06-23T13:04:49Z</time>
      </trkpt>
      <trkpt lat="47.94795" lon="6.96391">
        <ele>628.46</ele>
        <time>2021-06-23T13:04:53Z</time>
      </trkpt>
      <trkpt lat="47.94802" lon="6.96374">
        <ele>623.05</ele>
        <time>2021-06-23T13:04:56Z</time>
      </trkpt>
      <trkpt lat="47.94809" lon="6.96364">
        <ele>620.02</ele>
        <time>2021-06-23T13:04:59Z</time>
      </trkpt>
      <trkpt lat="47.94819" lon="6.96355">
        <ele>619.28</ele>
        <time>2021-06-23T13:05:02Z</time>
      </trkpt>
      <trkpt lat="47.94898" lon="6.96314">
        <ele>628.19</ele>
        <time>2021-06-23T13:05:05Z</time>
      </trkpt>
      <trkpt lat="47.95003" lon="6.96264">
        <ele>609.03</ele>
        <time>2021-06-23T13:05:08Z</time>
      </trkpt>
      <trkpt lat="47.95059" lon="6.96232">
        <ele>596.78</ele>
        <time>2021-06-23T13:05:11Z</time>
      </trkpt>
      <trkpt lat="47.95081" lon="6.96224">
        <ele>598.4</ele>
        <time>2021-06-23T13:05:14Z</time>
      </trkpt>
      <trkpt lat="47.95139" lon="6.96216">
        <ele>600.17</ele>
        <time>2021-06-23T13:05:17Z</time>
      </trkpt>
      <trkpt lat="47.95211" lon="6.9621">
        <ele>599.53</ele>
        <time>2021-06-23T13:05:21Z</time>
      </trkpt>
      <trkpt lat="47.95241" lon="6.962">
        <ele>593.66</ele>
        <time>2021-06-23T13:05:24Z</time>
      </trkpt>
      <trkpt lat="47.95288" lon="6.96166">
        <ele>584.76</ele>
        <time>2021-06-23T13:05:27Z</time>
      </trkpt>
      <trkpt lat="47.9531" lon="6.96158">
        <ele>585.22</ele>
        <time>2021-06-23T13:05:30Z</time>
      </trkpt>
      <trkpt lat="47.95336" lon="6.96156">
        <ele>582.8</ele>
        <time>2021-06-23T13:05:33Z</time>
      </trkpt>
      <trkpt lat="47.95428" lon="6.96166">
        <ele>567.2</ele>
        <time>2021-06-23T13:05:36Z</time>
      </trkpt>
      <trkpt lat="47.9555" lon="6.96209">
        <ele>563.3</ele>
        <time>2021-06-23T13:05:39Z</time>
      </trkpt>
      <trkpt lat="47.95558" lon="6.96206">
        <ele>562.54</ele>
        <time>2021-06-23T13:05:42Z</time>
      </trkpt>
      <trkpt lat="47.95565" lon="6.96193">
        <ele>559.26</ele>
        <time>2021-06-23T13:05:45Z</time>
      </trkpt>
      <trkpt lat="47.95568" lon="6.96181">
        <ele>555.97</ele>
        <time>2021-06-23T13:05:49Z</time>
      </trkpt>
      <trkpt lat="47.95571" lon="6.96181">
        <ele>557.07</ele>
        <time>2021-06-23T13:05:49Z</time>
      </trkpt>
      <trkpt lat="47.95571" lon="6.96181">
        <ele>557.07</ele>
        <time>2021-06-23T13:05:49Z</time>
      </trkpt>
      <trkpt lat="47.9555" lon="6.96177">
        <ele>553.9</ele>
        <time>2021-06-23T13:05:53Z</time>
      </trkpt>
      <trkpt lat="47.95512" lon="6.96161">
        <ele>552.63</ele>
        <time>2021-06-23T13:05:58Z</time>
      </trkpt>
      <trkpt lat="47.95464" lon="6.96134">
        <ele>552.9</ele>
        <time>2021-06-23T13:06:02Z</time>
      </trkpt>
      <trkpt lat="47.95413" lon="6.96115">
        <ele>554.29</ele>
        <time>2021-06-23T13:06:06Z</time>
      </trkpt>
      <trkpt lat="47.95388" lon="6.9611">
        <ele>555.77</ele>
        <time>2021-06-23T13:06:11Z</time>
      </trkpt>
      <trkpt lat="47.95346" lon="6.96106">
        <ele>561.32</ele>
        <time>2021-06-23T13:06:15Z</time>
      </trkpt>
      <trkpt lat="47.95159" lon="6.96104">
        <ele>544.17</ele>
        <time>2021-06-23T13:06:20Z</time>
      </trkpt>
      <trkpt lat="47.95047" lon="6.96099">
        <ele>543.99</ele>
        <time>2021-06-23T13:06:24Z</time>
      </trkpt>
      <trkpt lat="47.95008" lon="6.96106">
        <ele>540.38</ele>
        <time>2021-06-23T13:06:28Z</time>
      </trkpt>
      <trkpt lat="47.94923" lon="6.96139">
        <ele>551.35</ele>
        <time>2021-06-23T13:06:33Z</time>
      </trkpt>
      <trkpt lat="47.94886" lon="6.96147">
        <ele>556.75</ele>
        <time>2021-06-23T13:06:37Z</time>
      </trkpt>
      <trkpt lat="47.94829" lon="6.96148">
        <ele>547.97</ele>
        <time>2021-06-23T13:06:42Z</time>
      </trkpt>
      <trkpt lat="47.94701" lon="6.96122">
        <ele>538.77</ele>
        <time>2021-06-23T13:06:46Z</time>
      </trkpt>
      <trkpt lat="47.94644" lon="6.96113">
        <ele>534.78</ele>
        <time>2021-06-23T13:06:50Z</time>
      </trkpt>
      <trkpt lat="47.94469" lon="6.96121">
        <ele>527.33</ele>
        <time>2021-06-23T13:06:55Z</time>
      </trkpt>
      <trkpt lat="47.94443" lon="6.96128">
        <ele>525.67</ele>
        <time>2021-06-23T13:06:59Z</time>
      </trkpt>
      <trkpt lat="47.94306" lon="6.96181">
        <ele>508.99</ele>
        <time>2021-06-23T13:07:04Z</time>
      </trkpt>
      <trkpt lat="47.94272" lon="6.9619">
        <ele>506.26</ele>
        <time>2021-06-23T13:07:08Z</time>
      </trkpt>
      <trkpt lat="47.94239" lon="6.96194">
        <ele>504.61</ele>
        <time>2021-06-23T13:07:13Z</time>
      </trkpt>
      <trkpt lat="47.942" lon="6.96192">
        <ele>503.03</ele>
        <time>2021-06-23T13:07:17Z</time>
      </trkpt>
      <trkpt lat="47.941" lon="6.96158">
        <ele>502.97</ele>
        <time>2021-06-23T13:07:21Z</time>
      </trkpt>
      <trkpt lat="47.94052" lon="6.9615">
        <ele>501.31</ele>
        <time>2021-06-23T13:07:26Z</time>
      </trkpt>
      <trkpt lat="47.94017" lon="6.96152">
        <ele>500.32</ele>
        <time>2021-06-23T13:07:30Z</time>
      </trkpt>
      <trkpt lat="47.93958" lon="6.96164">
        <ele>496.11</ele>
        <time>2021-06-23T13:07:35Z</time>
      </trkpt>
      <trkpt lat="47.93874" lon="6.96198">
        <ele>497</ele>
        <time>2021-06-23T13:07:39Z</time>
      </trkpt>
      <trkpt lat="47.93845" lon="6.96208">
        <ele>497.58</ele>
        <time>2021-06-23T13:07:43Z</time>
      </trkpt>
      <trkpt lat="47.93774" lon="6.96211">
        <ele>499.35</ele>
        <time>2021-06-23T13:07:48Z</time>
      </trkpt>
      <trkpt lat="47.93573" lon="6.96275">
        <ele>496.96</ele>
        <time>2021-06-23T13:07:52Z</time>
      </trkpt>
      <trkpt lat="47.93506" lon="6.96293">
        <ele>498.53</ele>
        <time>2021-06-23T13:07:57Z</time>
      </trkpt>
      <trkpt lat="47.93444" lon="6.96357">
        <ele>498.98</ele>
        <time>2021-06-23T13:08:01Z</time>
      </trkpt>
      <trkpt lat="47.9339" lon="6.96403">
        <ele>498.51</ele>
        <time>2021-06-23T13:08:06Z</time>
      </trkpt>
      <trkpt lat="47.93376" lon="6.96417">
        <ele>498.54</ele>
        <time>2021-06-23T13:08:10Z</time>
      </trkpt>
      <trkpt lat="47.9336" lon="6.96439">
        <ele>498</ele>
        <time>2021-06-23T13:08:14Z</time>
      </trkpt>
      <trkpt lat="47.93309" lon="6.96533">
        <ele>498.9</ele>
        <time>2021-06-23T13:08:19Z</time>
      </trkpt>
      <trkpt lat="47.93298" lon="6.96544">
        <ele>499</ele>
        <time>2021-06-23T13:08:23Z</time>
      </trkpt>
      <trkpt lat="47.93263" lon="6.96569">
        <ele>498.48</ele>
        <time>2021-06-23T13:08:28Z</time>
      </trkpt>
      <trkpt lat="47.93243" lon="6.96581">
        <ele>497.49</ele>
        <time>2021-06-23T13:08:32Z</time>
      </trkpt>
      <trkpt lat="47.9323" lon="6.96583">
        <ele>496.57</ele>
        <time>2021-06-23T13:08:36Z</time>
      </trkpt>
      <trkpt lat="47.93224" lon="6.96581">
        <ele>496.14</ele>
        <time>2021-06-23T13:08:41Z</time>
      </trkpt>
      <trkpt lat="47.93208" lon="6.96568">
        <ele>495.77</ele>
        <time>2021-06-23T13:08:45Z</time>
      </trkpt>
      <trkpt lat="47.93161" lon="6.96522">
        <ele>496</ele>
        <time>2021-06-23T13:08:50Z</time>
      </trkpt>
      <trkpt lat="47.93143" lon="6.96514">
        <ele>496</ele>
        <time>2021-06-23T13:08:54Z</time>
      </trkpt>
      <trkpt lat="47.93082" lon="6.965">
        <ele>493.93</ele>
        <time>2021-06-23T13:08:59Z</time>
      </trkpt>
      <trkpt lat="47.93022" lon="6.965">
        <ele>490.79</ele>
        <time>2021-06-23T13:09:03Z</time>
      </trkpt>
      <trkpt lat="47.92966" lon="6.96503">
        <ele>488.92</ele>
        <time>2021-06-23T13:09:07Z</time>
      </trkpt>
      <trkpt lat="47.92949" lon="6.9651">
        <ele>488.85</ele>
        <time>2021-06-23T13:09:12Z</time>
      </trkpt>
      <trkpt lat="47.92933" lon="6.9653">
        <ele>489.19</ele>
        <time>2021-06-23T13:09:16Z</time>
      </trkpt>
      <trkpt lat="47.92925" lon="6.96547">
        <ele>488.59</ele>
        <time>2021-06-23T13:09:21Z</time>
      </trkpt>
      <trkpt lat="47.92921" lon="6.96559">
        <ele>488.21</ele>
        <time>2021-06-23T13:09:25Z</time>
      </trkpt>
      <trkpt lat="47.92916" lon="6.96596">
        <ele>486.49</ele>
        <time>2021-06-23T13:09:29Z</time>
      </trkpt>
      <trkpt lat="47.92907" lon="6.96672">
        <ele>486.94</ele>
        <time>2021-06-23T13:09:34Z</time>
      </trkpt>
      <trkpt lat="47.92901" lon="6.96696">
        <ele>487.96</ele>
        <time>2021-06-23T13:09:38Z</time>
      </trkpt>
      <trkpt lat="47.9289" lon="6.96712">
        <ele>488.89</ele>
        <time>2021-06-23T13:09:43Z</time>
      </trkpt>
      <trkpt lat="47.92835" lon="6.96778">
        <ele>493.17</ele>
        <time>2021-06-23T13:09:47Z</time>
      </trkpt>
      <trkpt lat="47.92814" lon="6.96798">
        <ele>493.15</ele>
        <time>2021-06-23T13:09:51Z</time>
      </trkpt>
      <trkpt lat="47.92771" lon="6.96816">
        <ele>487.45</ele>
        <time>2021-06-23T13:09:56Z</time>
      </trkpt>
      <trkpt lat="47.92742" lon="6.9682">
        <ele>484.06</ele>
        <time>2021-06-23T13:10:00Z</time>
      </trkpt>
      <trkpt lat="47.9264" lon="6.96811">
        <ele>485.56</ele>
        <time>2021-06-23T13:10:05Z</time>
      </trkpt>
      <trkpt lat="47.92567" lon="6.96833">
        <ele>482.8</ele>
        <time>2021-06-23T13:10:09Z</time>
      </trkpt>
      <trkpt lat="47.92506" lon="6.96843">
        <ele>481.36</ele>
        <time>2021-06-23T13:10:14Z</time>
      </trkpt>
      <trkpt lat="47.92497" lon="6.96848">
        <ele>481.49</ele>
        <time>2021-06-23T13:10:18Z</time>
      </trkpt>
      <trkpt lat="47.92489" lon="6.96858">
        <ele>481.82</ele>
        <time>2021-06-23T13:10:22Z</time>
      </trkpt>
      <trkpt lat="47.92459" lon="6.96904">
        <ele>482.58</ele>
        <time>2021-06-23T13:10:27Z</time>
      </trkpt>
      <trkpt lat="47.92449" lon="6.96916">
        <ele>480.91</ele>
        <time>2021-06-23T13:10:31Z</time>
      </trkpt>
      <trkpt lat="47.92429" lon="6.96935">
        <ele>481.04</ele>
        <time>2021-06-23T13:10:36Z</time>
      </trkpt>
      <trkpt lat="47.92413" lon="6.96944">
        <ele>480.83</ele>
        <time>2021-06-23T13:10:40Z</time>
      </trkpt>
      <trkpt lat="47.92209" lon="6.9701">
        <ele>477.21</ele>
        <time>2021-06-23T13:10:44Z</time>
      </trkpt>
      <trkpt lat="47.91995" lon="6.97071">
        <ele>471.67</ele>
        <time>2021-06-23T13:10:49Z</time>
      </trkpt>
      <trkpt lat="47.91957" lon="6.97085">
        <ele>471.95</ele>
        <time>2021-06-23T13:10:53Z</time>
      </trkpt>
      <trkpt lat="47.91942" lon="6.97092">
        <ele>471.06</ele>
        <time>2021-06-23T13:10:58Z</time>
      </trkpt>
      <trkpt lat="47.91911" lon="6.9711">
        <ele>468.99</ele>
        <time>2021-06-23T13:11:02Z</time>
      </trkpt>
      <trkpt lat="47.91789" lon="6.97209">
        <ele>469.27</ele>
        <time>2021-06-23T13:11:07Z</time>
      </trkpt>
      <trkpt lat="47.91743" lon="6.97255">
        <ele>466.44</ele>
        <time>2021-06-23T13:11:11Z</time>
      </trkpt>
      <trkpt lat="47.9171" lon="6.97294">
        <ele>468.33</ele>
        <time>2021-06-23T13:11:15Z</time>
      </trkpt>
      <trkpt lat="47.91684" lon="6.97318">
        <ele>468.27</ele>
        <time>2021-06-23T13:11:20Z</time>
      </trkpt>
      <trkpt lat="47.91674" lon="6.97326">
        <ele>468.18</ele>
        <time>2021-06-23T13:11:24Z</time>
      </trkpt>
      <trkpt lat="47.91655" lon="6.97337">
        <ele>467.56</ele>
        <time>2021-06-23T13:11:29Z</time>
      </trkpt>
      <trkpt lat="47.91614" lon="6.97355">
        <ele>465.92</ele>
        <time>2021-06-23T13:11:33Z</time>
      </trkpt>
      <trkpt lat="47.91582" lon="6.97374">
        <ele>467.89</ele>
        <time>2021-06-23T13:11:37Z</time>
      </trkpt>
      <trkpt lat="47.91551" lon="6.97393">
        <ele>468.71</ele>
        <time>2021-06-23T13:11:42Z</time>
      </trkpt>
      <trkpt lat="47.91524" lon="6.97405">
        <ele>466.07</ele>
        <time>2021-06-23T13:11:46Z</time>
      </trkpt>
      <trkpt lat="47.91402" lon="6.97421">
        <ele>465.14</ele>
        <time>2021-06-23T13:11:51Z</time>
      </trkpt>
      <trkpt lat="47.91317" lon="6.97436">
        <ele>466.42</ele>
        <time>2021-06-23T13:11:55Z</time>
      </trkpt>
      <trkpt lat="47.91263" lon="6.97451">
        <ele>466.23</ele>
        <time>2021-06-23T13:12:00Z</time>
      </trkpt>
      <trkpt lat="47.91139" lon="6.97493">
        <ele>467.73</ele>
        <time>2021-06-23T13:12:04Z</time>
      </trkpt>
      <trkpt lat="47.91079" lon="6.975">
        <ele>466.85</ele>
        <time>2021-06-23T13:12:08Z</time>
      </trkpt>
      <trkpt lat="47.91053" lon="6.97506">
        <ele>465.62</ele>
        <time>2021-06-23T13:12:13Z</time>
      </trkpt>
      <trkpt lat="47.9096" lon="6.97544">
        <ele>461.57</ele>
        <time>2021-06-23T13:12:17Z</time>
      </trkpt>
      <trkpt lat="47.90949" lon="6.97551">
        <ele>461.17</ele>
        <time>2021-06-23T13:12:22Z</time>
      </trkpt>
      <trkpt lat="47.90911" lon="6.97588">
        <ele>461.2</ele>
        <time>2021-06-23T13:12:26Z</time>
      </trkpt>
      <trkpt lat="47.90879" lon="6.97602">
        <ele>462.57</ele>
        <time>2021-06-23T13:12:30Z</time>
      </trkpt>
      <trkpt lat="47.90869" lon="6.97604">
        <ele>463.02</ele>
        <time>2021-06-23T13:12:35Z</time>
      </trkpt>
      <trkpt lat="47.90837" lon="6.97608">
        <ele>465.2</ele>
        <time>2021-06-23T13:12:39Z</time>
      </trkpt>
      <trkpt lat="47.90817" lon="6.97602">
        <ele>464.83</ele>
        <time>2021-06-23T13:12:44Z</time>
      </trkpt>
      <trkpt lat="47.90785" lon="6.97589">
        <ele>463.36</ele>
        <time>2021-06-23T13:12:48Z</time>
      </trkpt>
      <trkpt lat="47.90717" lon="6.97552">
        <ele>459.05</ele>
        <time>2021-06-23T13:12:53Z</time>
      </trkpt>
      <trkpt lat="47.90602" lon="6.97466">
        <ele>453.18</ele>
        <time>2021-06-23T13:12:57Z</time>
      </trkpt>
      <trkpt lat="47.90591" lon="6.97461">
        <ele>453.62</ele>
        <time>2021-06-23T13:13:01Z</time>
      </trkpt>
      <trkpt lat="47.90501" lon="6.97473">
        <ele>453.26</ele>
        <time>2021-06-23T13:13:06Z</time>
      </trkpt>
      <trkpt lat="47.90486" lon="6.97478">
        <ele>452.37</ele>
        <time>2021-06-23T13:13:10Z</time>
      </trkpt>
      <trkpt lat="47.90486" lon="6.97478">
        <ele>452.37</ele>
        <time>2021-06-23T13:13:10Z</time>
      </trkpt>
      <trkpt lat="47.90469" lon="6.97484">
        <ele>451.49</ele>
        <time>2021-06-23T13:13:17Z</time>
      </trkpt>
      <trkpt lat="47.90446" lon="6.97499">
        <ele>451.03</ele>
        <time>2021-06-23T13:13:24Z</time>
      </trkpt>
      <trkpt lat="47.90417" lon="6.97522">
        <ele>450.8</ele>
        <time>2021-06-23T13:13:31Z</time>
      </trkpt>
      <trkpt lat="47.90392" lon="6.97546">
        <ele>450.81</ele>
        <time>2021-06-23T13:13:38Z</time>
      </trkpt>
      <trkpt lat="47.90351" lon="6.97592">
        <ele>452.16</ele>
        <time>2021-06-23T13:13:45Z</time>
      </trkpt>
      <trkpt lat="47.90241" lon="6.97691">
        <ele>447.72</ele>
        <time>2021-06-23T13:13:52Z</time>
      </trkpt>
      <trkpt lat="47.90224" lon="6.97701">
        <ele>447.13</ele>
        <time>2021-06-23T13:13:59Z</time>
      </trkpt>
      <trkpt lat="47.90185" lon="6.97714">
        <ele>445.96</ele>
        <time>2021-06-23T13:14:06Z</time>
      </trkpt>
      <trkpt lat="47.90158" lon="6.97727">
        <ele>444.88</ele>
        <time>2021-06-23T13:14:13Z</time>
      </trkpt>
      <trkpt lat="47.90138" lon="6.97739">
        <ele>443.75</ele>
        <time>2021-06-23T13:14:20Z</time>
      </trkpt>
      <trkpt lat="47.90112" lon="6.97762">
        <ele>442.46</ele>
        <time>2021-06-23T13:14:27Z</time>
      </trkpt>
      <trkpt lat="47.90098" lon="6.97779">
        <ele>443.04</ele>
        <time>2021-06-23T13:14:34Z</time>
      </trkpt>
      <trkpt lat="47.90023" lon="6.9789">
        <ele>446.02</ele>
        <time>2021-06-23T13:14:40Z</time>
      </trkpt>
      <trkpt lat="47.89949" lon="6.97986">
        <ele>443.17</ele>
        <time>2021-06-23T13:14:47Z</time>
      </trkpt>
      <trkpt lat="47.8993" lon="6.98011">
        <ele>443</ele>
        <time>2021-06-23T13:14:54Z</time>
      </trkpt>
      <trkpt lat="47.8989" lon="6.98074">
        <ele>442.98</ele>
        <time>2021-06-23T13:15:01Z</time>
      </trkpt>
      <trkpt lat="47.89879" lon="6.98087">
        <ele>442.56</ele>
        <time>2021-06-23T13:15:08Z</time>
      </trkpt>
      <trkpt lat="47.89777" lon="6.98244">
        <ele>441.05</ele>
        <time>2021-06-23T13:15:15Z</time>
      </trkpt>
      <trkpt lat="47.89769" lon="6.98261">
        <ele>441.89</ele>
        <time>2021-06-23T13:15:22Z</time>
      </trkpt>
      <trkpt lat="47.89735" lon="6.98406">
        <ele>442.47</ele>
        <time>2021-06-23T13:15:29Z</time>
      </trkpt>
      <trkpt lat="47.89686" lon="6.9852">
        <ele>440.3</ele>
        <time>2021-06-23T13:15:36Z</time>
      </trkpt>
      <trkpt lat="47.89675" lon="6.98539">
        <ele>440.42</ele>
        <time>2021-06-23T13:15:43Z</time>
      </trkpt>
      <trkpt lat="47.89628" lon="6.98606">
        <ele>440.89</ele>
        <time>2021-06-23T13:15:50Z</time>
      </trkpt>
      <trkpt lat="47.8957" lon="6.98672">
        <ele>440</ele>
        <time>2021-06-23T13:15:57Z</time>
      </trkpt>
      <trkpt lat="47.89558" lon="6.98682">
        <ele>440</ele>
        <time>2021-06-23T13:16:04Z</time>
      </trkpt>
      <trkpt lat="47.8953" lon="6.98699">
        <ele>438.89</ele>
        <time>2021-06-23T13:16:11Z</time>
      </trkpt>
      <trkpt lat="47.89515" lon="6.98712">
        <ele>437.77</ele>
        <time>2021-06-23T13:16:18Z</time>
      </trkpt>
      <trkpt lat="47.89469" lon="6.98773">
        <ele>437.75</ele>
        <time>2021-06-23T13:16:25Z</time>
      </trkpt>
      <trkpt lat="47.89379" lon="6.98877">
        <ele>437</ele>
        <time>2021-06-23T13:16:32Z</time>
      </trkpt>
      <trkpt lat="47.89355" lon="6.98909">
        <ele>437.58</ele>
        <time>2021-06-23T13:16:39Z</time>
      </trkpt>
      <trkpt lat="47.89319" lon="6.99006">
        <ele>436.58</ele>
        <time>2021-06-23T13:16:45Z</time>
      </trkpt>
      <trkpt lat="47.89303" lon="6.99055">
        <ele>437.74</ele>
        <time>2021-06-23T13:16:52Z</time>
      </trkpt>
      <trkpt lat="47.89255" lon="6.99148">
        <ele>436</ele>
        <time>2021-06-23T13:16:59Z</time>
      </trkpt>
      <trkpt lat="47.89244" lon="6.99176">
        <ele>435.8</ele>
        <time>2021-06-23T13:17:06Z</time>
      </trkpt>
      <trkpt lat="47.89211" lon="6.99287">
        <ele>434.25</ele>
        <time>2021-06-23T13:17:13Z</time>
      </trkpt>
      <trkpt lat="47.89198" lon="6.99327">
        <ele>433.12</ele>
        <time>2021-06-23T13:17:20Z</time>
      </trkpt>
      <trkpt lat="47.8914" lon="6.99481">
        <ele>435.65</ele>
        <time>2021-06-23T13:17:27Z</time>
      </trkpt>
      <trkpt lat="47.89132" lon="6.99499">
        <ele>436.64</ele>
        <time>2021-06-23T13:17:34Z</time>
      </trkpt>
      <trkpt lat="47.8909" lon="6.99564">
        <ele>435.71</ele>
        <time>2021-06-23T13:17:41Z</time>
      </trkpt>
      <trkpt lat="47.88954" lon="6.99755">
        <ele>439.54</ele>
        <time>2021-06-23T13:17:48Z</time>
      </trkpt>
      <trkpt lat="47.88858" lon="6.9987">
        <ele>438</ele>
        <time>2021-06-23T13:17:55Z</time>
      </trkpt>
      <trkpt lat="47.88814" lon="6.99914">
        <ele>437.29</ele>
        <time>2021-06-23T13:18:02Z</time>
      </trkpt>
      <trkpt lat="47.88806" lon="6.99915">
        <ele>437.01</ele>
        <time>2021-06-23T13:18:09Z</time>
      </trkpt>
      <trkpt lat="47.88792" lon="6.99911">
        <ele>437</ele>
        <time>2021-06-23T13:18:16Z</time>
      </trkpt>
      <trkpt lat="47.88791" lon="6.99904">
        <ele>437</ele>
        <time>2021-06-23T13:18:23Z</time>
      </trkpt>
      <trkpt lat="47.88787" lon="6.99896">
        <ele>437</ele>
        <time>2021-06-23T13:18:31Z</time>
      </trkpt>
      <trkpt lat="47.88783" lon="6.9989">
        <ele>437</ele>
        <time>2021-06-23T13:18:38Z</time>
      </trkpt>
      <trkpt lat="47.88776" lon="6.99887">
        <ele>437.06</ele>
        <time>2021-06-23T13:18:46Z</time>
      </trkpt>
      <trkpt lat="47.88769" lon="6.99888">
        <ele>437.29</ele>
        <time>2021-06-23T13:18:53Z</time>
      </trkpt>
      <trkpt lat="47.88763" lon="6.99892">
        <ele>437.61</ele>
        <time>2021-06-23T13:19:01Z</time>
      </trkpt>
      <trkpt lat="47.88758" lon="6.999">
        <ele>438.01</ele>
        <time>2021-06-23T13:19:08Z</time>
      </trkpt>
      <trkpt lat="47.88756" lon="6.99908">
        <ele>438.36</ele>
        <time>2021-06-23T13:19:16Z</time>
      </trkpt>
      <trkpt lat="47.88756" lon="6.99924">
        <ele>438.8</ele>
        <time>2021-06-23T13:19:23Z</time>
      </trkpt>
      <trkpt lat="47.88754" lon="6.99948">
        <ele>439.86</ele>
        <time>2021-06-23T13:19:31Z</time>
      </trkpt>
      <trkpt lat="47.88743" lon="6.99969">
        <ele>441.92</ele>
        <time>2021-06-23T13:19:38Z</time>
      </trkpt>
      <trkpt lat="47.88738" lon="6.99984">
        <ele>442.8</ele>
        <time>2021-06-23T13:19:46Z</time>
      </trkpt>
      <trkpt lat="47.88729" lon="6.99993">
        <ele>443.65</ele>
        <time>2021-06-23T13:19:54Z</time>
      </trkpt>
      <trkpt lat="47.88706" lon="7.00011">
        <ele>443.37</ele>
        <time>2021-06-23T13:20:01Z</time>
      </trkpt>
      <trkpt lat="47.88417" lon="7.00281">
        <ele>436.49</ele>
        <time>2021-06-23T13:20:09Z</time>
      </trkpt>
      <trkpt lat="47.88372" lon="7.00328">
        <ele>436.88</ele>
        <time>2021-06-23T13:20:16Z</time>
      </trkpt>
      <trkpt lat="47.88359" lon="7.00347">
        <ele>434.27</ele>
        <time>2021-06-23T13:20:24Z</time>
      </trkpt>
      <trkpt lat="47.88339" lon="7.00387">
        <ele>431.45</ele>
        <time>2021-06-23T13:20:31Z</time>
      </trkpt>
      <trkpt lat="47.88197" lon="7.00795">
        <ele>431</ele>
        <time>2021-06-23T13:20:39Z</time>
      </trkpt>
      <trkpt lat="47.88068" lon="7.01152">
        <ele>421.24</ele>
        <time>2021-06-23T13:20:46Z</time>
      </trkpt>
      <trkpt lat="47.88021" lon="7.01292">
        <ele>422</ele>
        <time>2021-06-23T13:20:54Z</time>
      </trkpt>
      <trkpt lat="47.87961" lon="7.01454">
        <ele>420.46</ele>
        <time>2021-06-23T13:21:01Z</time>
      </trkpt>
      <trkpt lat="47.87853" lon="7.01764">
        <ele>413.28</ele>
        <time>2021-06-23T13:21:09Z</time>
      </trkpt>
      <trkpt lat="47.87834" lon="7.01816">
        <ele>411.04</ele>
        <time>2021-06-23T13:21:16Z</time>
      </trkpt>
      <trkpt lat="47.87827" lon="7.01829">
        <ele>410.58</ele>
        <time>2021-06-23T13:21:24Z</time>
      </trkpt>
      <trkpt lat="47.87813" lon="7.01835">
        <ele>409.57</ele>
        <time>2021-06-23T13:21:26Z</time>
      </trkpt>
      <trkpt lat="47.87768" lon="7.01816">
        <ele>407.04</ele>
        <time>2021-06-23T13:21:28Z</time>
      </trkpt>
      <trkpt lat="47.87755" lon="7.01815">
        <ele>406.27</ele>
        <time>2021-06-23T13:21:30Z</time>
      </trkpt>
      <trkpt lat="47.87735" lon="7.01817">
        <ele>406.54</ele>
        <time>2021-06-23T13:21:33Z</time>
      </trkpt>
      <trkpt lat="47.87716" lon="7.01824">
        <ele>407.16</ele>
        <time>2021-06-23T13:21:35Z</time>
      </trkpt>
      <trkpt lat="47.87695" lon="7.01839">
        <ele>407.96</ele>
        <time>2021-06-23T13:21:37Z</time>
      </trkpt>
      <trkpt lat="47.87694" lon="7.01852">
        <ele>408.02</ele>
        <time>2021-06-23T13:21:40Z</time>
      </trkpt>
      <trkpt lat="47.87685" lon="7.01867">
        <ele>408.19</ele>
        <time>2021-06-23T13:21:43Z</time>
      </trkpt>
      <trkpt lat="47.87654" lon="7.01911">
        <ele>408.56</ele>
        <time>2021-06-23T13:21:46Z</time>
      </trkpt>
      <trkpt lat="47.8765" lon="7.0192">
        <ele>408.47</ele>
        <time>2021-06-23T13:21:50Z</time>
      </trkpt>
      <trkpt lat="47.87648" lon="7.0193">
        <ele>408.19</ele>
        <time>2021-06-23T13:21:53Z</time>
      </trkpt>
      <trkpt lat="47.87649" lon="7.0194">
        <ele>407.79</ele>
        <time>2021-06-23T13:21:56Z</time>
      </trkpt>
      <trkpt lat="47.87654" lon="7.01948">
        <ele>407.41</ele>
        <time>2021-06-23T13:21:59Z</time>
      </trkpt>
      <trkpt lat="47.87667" lon="7.0196">
        <ele>407</ele>
        <time>2021-06-23T13:22:02Z</time>
      </trkpt>
      <trkpt lat="47.87672" lon="7.01944">
        <ele>407.14</ele>
        <time>2021-06-23T13:22:05Z</time>
      </trkpt>
      <trkpt lat="47.87672" lon="7.01944">
        <ele>407.14</ele>
        <time>2021-06-23T13:22:05Z</time>
      </trkpt>
      <trkpt lat="47.87667" lon="7.0196">
        <ele>407</ele>
        <time>2021-06-23T13:22:07Z</time>
      </trkpt>
      <trkpt lat="47.87654" lon="7.01948">
        <ele>407.41</ele>
        <time>2021-06-23T13:22:11Z</time>
      </trkpt>
      <trkpt lat="47.87649" lon="7.0194">
        <ele>407.79</ele>
        <time>2021-06-23T13:22:14Z</time>
      </trkpt>
      <trkpt lat="47.87648" lon="7.0193">
        <ele>408.19</ele>
        <time>2021-06-23T13:22:17Z</time>
      </trkpt>
      <trkpt lat="47.8765" lon="7.0192">
        <ele>408.47</ele>
        <time>2021-06-23T13:22:20Z</time>
      </trkpt>
      <trkpt lat="47.87654" lon="7.01911">
        <ele>408.56</ele>
        <time>2021-06-23T13:22:23Z</time>
      </trkpt>
      <trkpt lat="47.87685" lon="7.01867">
        <ele>408.19</ele>
        <time>2021-06-23T13:22:26Z</time>
      </trkpt>
      <trkpt lat="47.87694" lon="7.01852">
        <ele>408.02</ele>
        <time>2021-06-23T13:22:29Z</time>
      </trkpt>
      <trkpt lat="47.87695" lon="7.01839">
        <ele>407.96</ele>
        <time>2021-06-23T13:22:32Z</time>
      </trkpt>
      <trkpt lat="47.87716" lon="7.01824">
        <ele>407.16</ele>
        <time>2021-06-23T13:22:34Z</time>
      </trkpt>
      <trkpt lat="47.87735" lon="7.01817">
        <ele>406.54</ele>
        <time>2021-06-23T13:22:36Z</time>
      </trkpt>
      <trkpt lat="47.87755" lon="7.01815">
        <ele>406.27</ele>
        <time>2021-06-23T13:22:38Z</time>
      </trkpt>
      <trkpt lat="47.87768" lon="7.01816">
        <ele>407.04</ele>
        <time>2021-06-23T13:22:40Z</time>
      </trkpt>
      <trkpt lat="47.87789" lon="7.01826">
        <ele>408.05</ele>
        <time>2021-06-23T13:22:42Z</time>
      </trkpt>
      <trkpt lat="47.87799" lon="7.01857">
        <ele>409.14</ele>
        <time>2021-06-23T13:22:45Z</time>
      </trkpt>
      <trkpt lat="47.87797" lon="7.01872">
        <ele>409.57</ele>
        <time>2021-06-23T13:22:51Z</time>
      </trkpt>
      <trkpt lat="47.87798" lon="7.01891">
        <ele>410.62</ele>
        <time>2021-06-23T13:22:58Z</time>
      </trkpt>
      <trkpt lat="47.87803" lon="7.01904">
        <ele>411.88</ele>
        <time>2021-06-23T13:23:05Z</time>
      </trkpt>
      <trkpt lat="47.87811" lon="7.01914">
        <ele>413.02</ele>
        <time>2021-06-23T13:23:11Z</time>
      </trkpt>
      <trkpt lat="47.87819" lon="7.01919">
        <ele>413.45</ele>
        <time>2021-06-23T13:23:18Z</time>
      </trkpt>
      <trkpt lat="47.87834" lon="7.01921">
        <ele>413.89</ele>
        <time>2021-06-23T13:23:25Z</time>
      </trkpt>
      <trkpt lat="47.87844" lon="7.01915">
        <ele>414.73</ele>
        <time>2021-06-23T13:23:31Z</time>
      </trkpt>
      <trkpt lat="47.87852" lon="7.01903">
        <ele>415.23</ele>
        <time>2021-06-23T13:23:38Z</time>
      </trkpt>
      <trkpt lat="47.87857" lon="7.0189">
        <ele>415.6</ele>
        <time>2021-06-23T13:23:45Z</time>
      </trkpt>
      <trkpt lat="47.87859" lon="7.01873">
        <ele>415.71</ele>
        <time>2021-06-23T13:23:51Z</time>
      </trkpt>
      <trkpt lat="47.87856" lon="7.01857">
        <ele>414.99</ele>
        <time>2021-06-23T13:23:58Z</time>
      </trkpt>
      <trkpt lat="47.8785" lon="7.01843">
        <ele>413.29</ele>
        <time>2021-06-23T13:24:05Z</time>
      </trkpt>
      <trkpt lat="47.87848" lon="7.01823">
        <ele>412.42</ele>
        <time>2021-06-23T13:24:11Z</time>
      </trkpt>
      <trkpt lat="47.87853" lon="7.01764">
        <ele>413.28</ele>
        <time>2021-06-23T13:24:18Z</time>
      </trkpt>
      <trkpt lat="47.87961" lon="7.01454">
        <ele>420.46</ele>
        <time>2021-06-23T13:24:25Z</time>
      </trkpt>
      <trkpt lat="47.88021" lon="7.01292">
        <ele>422</ele>
        <time>2021-06-23T13:24:31Z</time>
      </trkpt>
      <trkpt lat="47.88068" lon="7.01152">
        <ele>421.24</ele>
        <time>2021-06-23T13:24:38Z</time>
      </trkpt>
      <trkpt lat="47.88197" lon="7.00795">
        <ele>431</ele>
        <time>2021-06-23T13:24:45Z</time>
      </trkpt>
      <trkpt lat="47.88339" lon="7.00387">
        <ele>431.45</ele>
        <time>2021-06-23T13:24:51Z</time>
      </trkpt>
      <trkpt lat="47.88359" lon="7.00347">
        <ele>434.27</ele>
        <time>2021-06-23T13:24:58Z</time>
      </trkpt>
      <trkpt lat="47.88372" lon="7.00328">
        <ele>436.88</ele>
        <time>2021-06-23T13:25:05Z</time>
      </trkpt>
      <trkpt lat="47.88417" lon="7.00281">
        <ele>436.49</ele>
        <time>2021-06-23T13:25:11Z</time>
      </trkpt>
      <trkpt lat="47.88706" lon="7.00011">
        <ele>443.37</ele>
        <time>2021-06-23T13:25:18Z</time>
      </trkpt>
      <trkpt lat="47.88729" lon="6.99993">
        <ele>443.65</ele>
        <time>2021-06-23T13:25:25Z</time>
      </trkpt>
      <trkpt lat="47.88738" lon="6.99984">
        <ele>442.8</ele>
        <time>2021-06-23T13:25:31Z</time>
      </trkpt>
      <trkpt lat="47.88746" lon="6.99976">
        <ele>441.65</ele>
        <time>2021-06-23T13:25:38Z</time>
      </trkpt>
      <trkpt lat="47.88758" lon="6.99955">
        <ele>439.78</ele>
        <time>2021-06-23T13:25:45Z</time>
      </trkpt>
      <trkpt lat="47.88769" lon="6.99941">
        <ele>438.51</ele>
        <time>2021-06-23T13:25:51Z</time>
      </trkpt>
      <trkpt lat="47.8878" lon="6.9994">
        <ele>437.76</ele>
        <time>2021-06-23T13:25:58Z</time>
      </trkpt>
      <trkpt lat="47.88789" lon="6.99929">
        <ele>437.27</ele>
        <time>2021-06-23T13:26:05Z</time>
      </trkpt>
      <trkpt lat="47.88807" lon="6.99921">
        <ele>437.06</ele>
        <time>2021-06-23T13:26:12Z</time>
      </trkpt>
      <trkpt lat="47.88858" lon="6.9987">
        <ele>438</ele>
        <time>2021-06-23T13:26:19Z</time>
      </trkpt>
      <trkpt lat="47.88954" lon="6.99755">
        <ele>439.54</ele>
        <time>2021-06-23T13:26:25Z</time>
      </trkpt>
      <trkpt lat="47.8909" lon="6.99564">
        <ele>435.71</ele>
        <time>2021-06-23T13:26:32Z</time>
      </trkpt>
      <trkpt lat="47.89132" lon="6.99499">
        <ele>436.64</ele>
        <time>2021-06-23T13:26:39Z</time>
      </trkpt>
      <trkpt lat="47.8914" lon="6.99481">
        <ele>435.65</ele>
        <time>2021-06-23T13:26:46Z</time>
      </trkpt>
      <trkpt lat="47.89198" lon="6.99327">
        <ele>433.12</ele>
        <time>2021-06-23T13:26:53Z</time>
      </trkpt>
      <trkpt lat="47.89211" lon="6.99287">
        <ele>434.25</ele>
        <time>2021-06-23T13:27:00Z</time>
      </trkpt>
      <trkpt lat="47.89244" lon="6.99176">
        <ele>435.8</ele>
        <time>2021-06-23T13:27:07Z</time>
      </trkpt>
      <trkpt lat="47.89255" lon="6.99148">
        <ele>436</ele>
        <time>2021-06-23T13:27:13Z</time>
      </trkpt>
      <trkpt lat="47.89303" lon="6.99055">
        <ele>437.74</ele>
        <time>2021-06-23T13:27:20Z</time>
      </trkpt>
      <trkpt lat="47.89319" lon="6.99006">
        <ele>436.58</ele>
        <time>2021-06-23T13:27:27Z</time>
      </trkpt>
      <trkpt lat="47.89355" lon="6.98909">
        <ele>437.58</ele>
        <time>2021-06-23T13:27:34Z</time>
      </trkpt>
      <trkpt lat="47.89379" lon="6.98877">
        <ele>437</ele>
        <time>2021-06-23T13:27:41Z</time>
      </trkpt>
      <trkpt lat="47.89469" lon="6.98773">
        <ele>437.75</ele>
        <time>2021-06-23T13:27:48Z</time>
      </trkpt>
      <trkpt lat="47.89515" lon="6.98712">
        <ele>437.77</ele>
        <time>2021-06-23T13:27:55Z</time>
      </trkpt>
      <trkpt lat="47.8953" lon="6.98699">
        <ele>438.89</ele>
        <time>2021-06-23T13:28:01Z</time>
      </trkpt>
      <trkpt lat="47.89558" lon="6.98682">
        <ele>440</ele>
        <time>2021-06-23T13:28:08Z</time>
      </trkpt>
      <trkpt lat="47.8957" lon="6.98672">
        <ele>440</ele>
        <time>2021-06-23T13:28:15Z</time>
      </trkpt>
      <trkpt lat="47.89628" lon="6.98606">
        <ele>440.89</ele>
        <time>2021-06-23T13:28:22Z</time>
      </trkpt>
      <trkpt lat="47.89675" lon="6.98539">
        <ele>440.42</ele>
        <time>2021-06-23T13:28:29Z</time>
      </trkpt>
      <trkpt lat="47.89686" lon="6.9852">
        <ele>440.3</ele>
        <time>2021-06-23T13:28:36Z</time>
      </trkpt>
      <trkpt lat="47.89735" lon="6.98406">
        <ele>442.47</ele>
        <time>2021-06-23T13:28:43Z</time>
      </trkpt>
      <trkpt lat="47.89769" lon="6.98261">
        <ele>441.89</ele>
        <time>2021-06-23T13:28:49Z</time>
      </trkpt>
      <trkpt lat="47.89777" lon="6.98244">
        <ele>441.05</ele>
        <time>2021-06-23T13:28:56Z</time>
      </trkpt>
      <trkpt lat="47.89879" lon="6.98087">
        <ele>442.56</ele>
        <time>2021-06-23T13:29:03Z</time>
      </trkpt>
      <trkpt lat="47.8989" lon="6.98074">
        <ele>442.98</ele>
        <time>2021-06-23T13:29:10Z</time>
      </trkpt>
      <trkpt lat="47.8993" lon="6.98011">
        <ele>443</ele>
        <time>2021-06-23T13:29:17Z</time>
      </trkpt>
      <trkpt lat="47.89949" lon="6.97986">
        <ele>443.17</ele>
        <time>2021-06-23T13:29:24Z</time>
      </trkpt>
      <trkpt lat="47.90023" lon="6.9789">
        <ele>446.02</ele>
        <time>2021-06-23T13:29:30Z</time>
      </trkpt>
      <trkpt lat="47.90098" lon="6.97779">
        <ele>443.04</ele>
        <time>2021-06-23T13:29:37Z</time>
      </trkpt>
      <trkpt lat="47.90112" lon="6.97762">
        <ele>442.46</ele>
        <time>2021-06-23T13:29:44Z</time>
      </trkpt>
      <trkpt lat="47.90138" lon="6.97739">
        <ele>443.75</ele>
        <time>2021-06-23T13:29:51Z</time>
      </trkpt>
      <trkpt lat="47.90158" lon="6.97727">
        <ele>444.88</ele>
        <time>2021-06-23T13:29:58Z</time>
      </trkpt>
      <trkpt lat="47.90185" lon="6.97714">
        <ele>445.96</ele>
        <time>2021-06-23T13:30:05Z</time>
      </trkpt>
      <trkpt lat="47.90224" lon="6.97701">
        <ele>447.13</ele>
        <time>2021-06-23T13:30:12Z</time>
      </trkpt>
      <trkpt lat="47.90241" lon="6.97691">
        <ele>447.72</ele>
        <time>2021-06-23T13:30:18Z</time>
      </trkpt>
      <trkpt lat="47.90351" lon="6.97592">
        <ele>452.16</ele>
        <time>2021-06-23T13:30:25Z</time>
      </trkpt>
      <trkpt lat="47.90392" lon="6.97546">
        <ele>450.81</ele>
        <time>2021-06-23T13:30:32Z</time>
      </trkpt>
      <trkpt lat="47.90417" lon="6.97522">
        <ele>450.8</ele>
        <time>2021-06-23T13:30:39Z</time>
      </trkpt>
      <trkpt lat="47.90446" lon="6.97499">
        <ele>451.03</ele>
        <time>2021-06-23T13:30:46Z</time>
      </trkpt>
      <trkpt lat="47.90469" lon="6.97484">
        <ele>451.49</ele>
        <time>2021-06-23T13:30:53Z</time>
      </trkpt>
      <trkpt lat="47.90501" lon="6.97473">
        <ele>453.26</ele>
        <time>2021-06-23T13:31:00Z</time>
      </trkpt>
      <trkpt lat="47.90531" lon="6.97468">
        <ele>453.73</ele>
        <time>2021-06-23T13:31:06Z</time>
      </trkpt>
      <trkpt lat="47.90531" lon="6.97468">
        <ele>453.73</ele>
        <time>2021-06-23T13:31:06Z</time>
      </trkpt>
      <trkpt lat="47.90591" lon="6.97461">
        <ele>453.62</ele>
        <time>2021-06-23T13:31:11Z</time>
      </trkpt>
      <trkpt lat="47.90602" lon="6.97466">
        <ele>453.18</ele>
        <time>2021-06-23T13:31:15Z</time>
      </trkpt>
      <trkpt lat="47.90717" lon="6.97552">
        <ele>459.05</ele>
        <time>2021-06-23T13:31:19Z</time>
      </trkpt>
      <trkpt lat="47.90785" lon="6.97589">
        <ele>463.36</ele>
        <time>2021-06-23T13:31:23Z</time>
      </trkpt>
      <trkpt lat="47.90817" lon="6.97602">
        <ele>464.83</ele>
        <time>2021-06-23T13:31:27Z</time>
      </trkpt>
      <trkpt lat="47.90837" lon="6.97608">
        <ele>465.2</ele>
        <time>2021-06-23T13:31:31Z</time>
      </trkpt>
      <trkpt lat="47.90869" lon="6.97604">
        <ele>463.02</ele>
        <time>2021-06-23T13:31:35Z</time>
      </trkpt>
      <trkpt lat="47.90879" lon="6.97602">
        <ele>462.57</ele>
        <time>2021-06-23T13:31:40Z</time>
      </trkpt>
      <trkpt lat="47.90911" lon="6.97588">
        <ele>461.2</ele>
        <time>2021-06-23T13:31:44Z</time>
      </trkpt>
      <trkpt lat="47.90949" lon="6.97551">
        <ele>461.17</ele>
        <time>2021-06-23T13:31:48Z</time>
      </trkpt>
      <trkpt lat="47.9096" lon="6.97544">
        <ele>461.57</ele>
        <time>2021-06-23T13:31:52Z</time>
      </trkpt>
      <trkpt lat="47.91053" lon="6.97506">
        <ele>465.62</ele>
        <time>2021-06-23T13:31:56Z</time>
      </trkpt>
      <trkpt lat="47.91079" lon="6.975">
        <ele>466.85</ele>
        <time>2021-06-23T13:32:00Z</time>
      </trkpt>
      <trkpt lat="47.91139" lon="6.97493">
        <ele>467.73</ele>
        <time>2021-06-23T13:32:05Z</time>
      </trkpt>
      <trkpt lat="47.91263" lon="6.97451">
        <ele>466.23</ele>
        <time>2021-06-23T13:32:09Z</time>
      </trkpt>
      <trkpt lat="47.91317" lon="6.97436">
        <ele>466.42</ele>
        <time>2021-06-23T13:32:13Z</time>
      </trkpt>
      <trkpt lat="47.91402" lon="6.97421">
        <ele>465.14</ele>
        <time>2021-06-23T13:32:17Z</time>
      </trkpt>
      <trkpt lat="47.91524" lon="6.97405">
        <ele>466.07</ele>
        <time>2021-06-23T13:32:21Z</time>
      </trkpt>
      <trkpt lat="47.91551" lon="6.97393">
        <ele>468.71</ele>
        <time>2021-06-23T13:32:25Z</time>
      </trkpt>
      <trkpt lat="47.91582" lon="6.97374">
        <ele>467.89</ele>
        <time>2021-06-23T13:32:29Z</time>
      </trkpt>
      <trkpt lat="47.91614" lon="6.97355">
        <ele>465.92</ele>
        <time>2021-06-23T13:32:34Z</time>
      </trkpt>
      <trkpt lat="47.91655" lon="6.97337">
        <ele>467.56</ele>
        <time>2021-06-23T13:32:38Z</time>
      </trkpt>
      <trkpt lat="47.91674" lon="6.97326">
        <ele>468.18</ele>
        <time>2021-06-23T13:32:42Z</time>
      </trkpt>
      <trkpt lat="47.91684" lon="6.97318">
        <ele>468.27</ele>
        <time>2021-06-23T13:32:46Z</time>
      </trkpt>
      <trkpt lat="47.9171" lon="6.97294">
        <ele>468.33</ele>
        <time>2021-06-23T13:32:50Z</time>
      </trkpt>
      <trkpt lat="47.91743" lon="6.97255">
        <ele>466.44</ele>
        <time>2021-06-23T13:32:54Z</time>
      </trkpt>
      <trkpt lat="47.91789" lon="6.97209">
        <ele>469.27</ele>
        <time>2021-06-23T13:32:58Z</time>
      </trkpt>
      <trkpt lat="47.91911" lon="6.9711">
        <ele>468.99</ele>
        <time>2021-06-23T13:33:03Z</time>
      </trkpt>
      <trkpt lat="47.91942" lon="6.97092">
        <ele>471.06</ele>
        <time>2021-06-23T13:33:07Z</time>
      </trkpt>
      <trkpt lat="47.91957" lon="6.97085">
        <ele>471.95</ele>
        <time>2021-06-23T13:33:11Z</time>
      </trkpt>
      <trkpt lat="47.91995" lon="6.97071">
        <ele>471.67</ele>
        <time>2021-06-23T13:33:15Z</time>
      </trkpt>
      <trkpt lat="47.92209" lon="6.9701">
        <ele>477.21</ele>
        <time>2021-06-23T13:33:19Z</time>
      </trkpt>
      <trkpt lat="47.92413" lon="6.96944">
        <ele>480.83</ele>
        <time>2021-06-23T13:33:23Z</time>
      </trkpt>
      <trkpt lat="47.92429" lon="6.96935">
        <ele>481.04</ele>
        <time>2021-06-23T13:33:27Z</time>
      </trkpt>
      <trkpt lat="47.92449" lon="6.96916">
        <ele>480.91</ele>
        <time>2021-06-23T13:33:32Z</time>
      </trkpt>
      <trkpt lat="47.92459" lon="6.96904">
        <ele>482.58</ele>
        <time>2021-06-23T13:33:36Z</time>
      </trkpt>
      <trkpt lat="47.92489" lon="6.96858">
        <ele>481.82</ele>
        <time>2021-06-23T13:33:40Z</time>
      </trkpt>
      <trkpt lat="47.92497" lon="6.96848">
        <ele>481.49</ele>
        <time>2021-06-23T13:33:44Z</time>
      </trkpt>
      <trkpt lat="47.92506" lon="6.96843">
        <ele>481.36</ele>
        <time>2021-06-23T13:33:48Z</time>
      </trkpt>
      <trkpt lat="47.92567" lon="6.96833">
        <ele>482.8</ele>
        <time>2021-06-23T13:33:52Z</time>
      </trkpt>
      <trkpt lat="47.9264" lon="6.96811">
        <ele>485.56</ele>
        <time>2021-06-23T13:33:57Z</time>
      </trkpt>
      <trkpt lat="47.92742" lon="6.9682">
        <ele>484.06</ele>
        <time>2021-06-23T13:34:01Z</time>
      </trkpt>
      <trkpt lat="47.92771" lon="6.96816">
        <ele>487.45</ele>
        <time>2021-06-23T13:34:05Z</time>
      </trkpt>
      <trkpt lat="47.92805" lon="6.96803">
        <ele>492.38</ele>
        <time>2021-06-23T13:34:09Z</time>
      </trkpt>
      <trkpt lat="47.92814" lon="6.96798">
        <ele>493.15</ele>
        <time>2021-06-23T13:34:13Z</time>
      </trkpt>
      <trkpt lat="47.92835" lon="6.96778">
        <ele>493.17</ele>
        <time>2021-06-23T13:34:17Z</time>
      </trkpt>
      <trkpt lat="47.9289" lon="6.96712">
        <ele>488.89</ele>
        <time>2021-06-23T13:34:21Z</time>
      </trkpt>
      <trkpt lat="47.92901" lon="6.96696">
        <ele>487.96</ele>
        <time>2021-06-23T13:34:26Z</time>
      </trkpt>
      <trkpt lat="47.92907" lon="6.96672">
        <ele>486.94</ele>
        <time>2021-06-23T13:34:30Z</time>
      </trkpt>
      <trkpt lat="47.92916" lon="6.96596">
        <ele>486.49</ele>
        <time>2021-06-23T13:34:34Z</time>
      </trkpt>
      <trkpt lat="47.92921" lon="6.96559">
        <ele>488.21</ele>
        <time>2021-06-23T13:34:38Z</time>
      </trkpt>
      <trkpt lat="47.92925" lon="6.96547">
        <ele>488.59</ele>
        <time>2021-06-23T13:34:42Z</time>
      </trkpt>
      <trkpt lat="47.92933" lon="6.9653">
        <ele>489.19</ele>
        <time>2021-06-23T13:34:46Z</time>
      </trkpt>
      <trkpt lat="47.92949" lon="6.9651">
        <ele>488.85</ele>
        <time>2021-06-23T13:34:50Z</time>
      </trkpt>
      <trkpt lat="47.92966" lon="6.96503">
        <ele>488.92</ele>
        <time>2021-06-23T13:34:55Z</time>
      </trkpt>
      <trkpt lat="47.93022" lon="6.965">
        <ele>490.79</ele>
        <time>2021-06-23T13:34:59Z</time>
      </trkpt>
      <trkpt lat="47.93082" lon="6.965">
        <ele>493.93</ele>
        <time>2021-06-23T13:35:03Z</time>
      </trkpt>
      <trkpt lat="47.93143" lon="6.96514">
        <ele>496</ele>
        <time>2021-06-23T13:35:07Z</time>
      </trkpt>
      <trkpt lat="47.93161" lon="6.96522">
        <ele>496</ele>
        <time>2021-06-23T13:35:11Z</time>
      </trkpt>
      <trkpt lat="47.93208" lon="6.96568">
        <ele>495.77</ele>
        <time>2021-06-23T13:35:15Z</time>
      </trkpt>
      <trkpt lat="47.93224" lon="6.96581">
        <ele>496.14</ele>
        <time>2021-06-23T13:35:20Z</time>
      </trkpt>
      <trkpt lat="47.9323" lon="6.96583">
        <ele>496.57</ele>
        <time>2021-06-23T13:35:24Z</time>
      </trkpt>
      <trkpt lat="47.93243" lon="6.96581">
        <ele>497.49</ele>
        <time>2021-06-23T13:35:28Z</time>
      </trkpt>
      <trkpt lat="47.93263" lon="6.96569">
        <ele>498.48</ele>
        <time>2021-06-23T13:35:32Z</time>
      </trkpt>
      <trkpt lat="47.93298" lon="6.96544">
        <ele>499</ele>
        <time>2021-06-23T13:35:36Z</time>
      </trkpt>
      <trkpt lat="47.93309" lon="6.96533">
        <ele>498.9</ele>
        <time>2021-06-23T13:35:40Z</time>
      </trkpt>
      <trkpt lat="47.9336" lon="6.96439">
        <ele>498</ele>
        <time>2021-06-23T13:35:44Z</time>
      </trkpt>
      <trkpt lat="47.93376" lon="6.96417">
        <ele>498.54</ele>
        <time>2021-06-23T13:35:49Z</time>
      </trkpt>
      <trkpt lat="47.9339" lon="6.96403">
        <ele>498.51</ele>
        <time>2021-06-23T13:35:53Z</time>
      </trkpt>
      <trkpt lat="47.93444" lon="6.96357">
        <ele>498.98</ele>
        <time>2021-06-23T13:35:57Z</time>
      </trkpt>
      <trkpt lat="47.93506" lon="6.96293">
        <ele>498.53</ele>
        <time>2021-06-23T13:36:01Z</time>
      </trkpt>
      <trkpt lat="47.93573" lon="6.96275">
        <ele>496.96</ele>
        <time>2021-06-23T13:36:05Z</time>
      </trkpt>
      <trkpt lat="47.93774" lon="6.96211">
        <ele>499.35</ele>
        <time>2021-06-23T13:36:09Z</time>
      </trkpt>
      <trkpt lat="47.93845" lon="6.96208">
        <ele>497.58</ele>
        <time>2021-06-23T13:36:13Z</time>
      </trkpt>
      <trkpt lat="47.93874" lon="6.96198">
        <ele>497</ele>
        <time>2021-06-23T13:36:18Z</time>
      </trkpt>
      <trkpt lat="47.93958" lon="6.96164">
        <ele>496.11</ele>
        <time>2021-06-23T13:36:22Z</time>
      </trkpt>
      <trkpt lat="47.94017" lon="6.96152">
        <ele>500.32</ele>
        <time>2021-06-23T13:36:26Z</time>
      </trkpt>
      <trkpt lat="47.94052" lon="6.9615">
        <ele>501.31</ele>
        <time>2021-06-23T13:36:30Z</time>
      </trkpt>
      <trkpt lat="47.941" lon="6.96158">
        <ele>502.97</ele>
        <time>2021-06-23T13:36:34Z</time>
      </trkpt>
      <trkpt lat="47.942" lon="6.96192">
        <ele>503.03</ele>
        <time>2021-06-23T13:36:38Z</time>
      </trkpt>
      <trkpt lat="47.94239" lon="6.96194">
        <ele>504.61</ele>
        <time>2021-06-23T13:36:42Z</time>
      </trkpt>
      <trkpt lat="47.94272" lon="6.9619">
        <ele>506.26</ele>
        <time>2021-06-23T13:36:47Z</time>
      </trkpt>
      <trkpt lat="47.94306" lon="6.96181">
        <ele>508.99</ele>
        <time>2021-06-23T13:36:51Z</time>
      </trkpt>
      <trkpt lat="47.94443" lon="6.96128">
        <ele>525.67</ele>
        <time>2021-06-23T13:36:55Z</time>
      </trkpt>
      <trkpt lat="47.94469" lon="6.96121">
        <ele>527.33</ele>
        <time>2021-06-23T13:36:59Z</time>
      </trkpt>
      <trkpt lat="47.94644" lon="6.96113">
        <ele>534.78</ele>
        <time>2021-06-23T13:37:03Z</time>
      </trkpt>
      <trkpt lat="47.94701" lon="6.96122">
        <ele>538.77</ele>
        <time>2021-06-23T13:37:07Z</time>
      </trkpt>
      <trkpt lat="47.94829" lon="6.96148">
        <ele>547.97</ele>
        <time>2021-06-23T13:37:12Z</time>
      </trkpt>
      <trkpt lat="47.94886" lon="6.96147">
        <ele>556.75</ele>
        <time>2021-06-23T13:37:16Z</time>
      </trkpt>
      <trkpt lat="47.94923" lon="6.96139">
        <ele>551.35</ele>
        <time>2021-06-23T13:37:20Z</time>
      </trkpt>
      <trkpt lat="47.95008" lon="6.96106">
        <ele>540.38</ele>
        <time>2021-06-23T13:37:24Z</time>
      </trkpt>
      <trkpt lat="47.95047" lon="6.96099">
        <ele>543.99</ele>
        <time>2021-06-23T13:37:28Z</time>
      </trkpt>
      <trkpt lat="47.95159" lon="6.96104">
        <ele>544.17</ele>
        <time>2021-06-23T13:37:32Z</time>
      </trkpt>
      <trkpt lat="47.95346" lon="6.96106">
        <ele>561.32</ele>
        <time>2021-06-23T13:37:36Z</time>
      </trkpt>
      <trkpt lat="47.95388" lon="6.9611">
        <ele>555.77</ele>
        <time>2021-06-23T13:37:41Z</time>
      </trkpt>
      <trkpt lat="47.95413" lon="6.96115">
        <ele>554.29</ele>
        <time>2021-06-23T13:37:45Z</time>
      </trkpt>
      <trkpt lat="47.95464" lon="6.96134">
        <ele>552.9</ele>
        <time>2021-06-23T13:37:49Z</time>
      </trkpt>
      <trkpt lat="47.95512" lon="6.96161">
        <ele>552.63</ele>
        <time>2021-06-23T13:37:53Z</time>
      </trkpt>
      <trkpt lat="47.9555" lon="6.96177">
        <ele>553.9</ele>
        <time>2021-06-23T13:37:57Z</time>
      </trkpt>
      <trkpt lat="47.95596" lon="6.96185">
        <ele>558.18</ele>
        <time>2021-06-23T13:38:01Z</time>
      </trkpt>
      <trkpt lat="47.95711" lon="6.96186">
        <ele>561.44</ele>
        <time>2021-06-23T13:38:05Z</time>
      </trkpt>
      <trkpt lat="47.95851" lon="6.9617">
        <ele>554.96</ele>
        <time>2021-06-23T13:38:10Z</time>
      </trkpt>
      <trkpt lat="47.95976" lon="6.96167">
        <ele>558.99</ele>
        <time>2021-06-23T13:38:14Z</time>
      </trkpt>
      <trkpt lat="47.96064" lon="6.96151">
        <ele>556.59</ele>
        <time>2021-06-23T13:38:18Z</time>
      </trkpt>
      <trkpt lat="47.96112" lon="6.96145">
        <ele>555.91</ele>
        <time>2021-06-23T13:38:22Z</time>
      </trkpt>
      <trkpt lat="47.96226" lon="6.96138">
        <ele>556.13</ele>
        <time>2021-06-23T13:38:26Z</time>
      </trkpt>
      <trkpt lat="47.96247" lon="6.96132">
        <ele>556.32</ele>
        <time>2021-06-23T13:38:30Z</time>
      </trkpt>
      <trkpt lat="47.96266" lon="6.96122">
        <ele>558.99</ele>
        <time>2021-06-23T13:38:35Z</time>
      </trkpt>
      <trkpt lat="47.96285" lon="6.96108">
        <ele>560.8</ele>
        <time>2021-06-23T13:38:39Z</time>
      </trkpt>
      <trkpt lat="47.96309" lon="6.96082">
        <ele>562.91</ele>
        <time>2021-06-23T13:38:43Z</time>
      </trkpt>
      <trkpt lat="47.96339" lon="6.9604">
        <ele>562.71</ele>
        <time>2021-06-23T13:38:47Z</time>
      </trkpt>
      <trkpt lat="47.96389" lon="6.95983">
        <ele>556.24</ele>
        <time>2021-06-23T13:38:51Z</time>
      </trkpt>
      <trkpt lat="47.96409" lon="6.95966">
        <ele>555.38</ele>
        <time>2021-06-23T13:38:55Z</time>
      </trkpt>
      <trkpt lat="47.96434" lon="6.95948">
        <ele>552.96</ele>
        <time>2021-06-23T13:38:59Z</time>
      </trkpt>
      <trkpt lat="47.96502" lon="6.95918">
        <ele>552.87</ele>
        <time>2021-06-23T13:39:04Z</time>
      </trkpt>
      <trkpt lat="47.96573" lon="6.95894">
        <ele>563.17</ele>
        <time>2021-06-23T13:39:08Z</time>
      </trkpt>
      <trkpt lat="47.96607" lon="6.95889">
        <ele>563.74</ele>
        <time>2021-06-23T13:39:12Z</time>
      </trkpt>
      <trkpt lat="47.96607" lon="6.95889">
        <ele>563.74</ele>
        <time>2021-06-23T13:39:12Z</time>
      </trkpt>
      <trkpt lat="47.96684" lon="6.95878">
        <ele>564.32</ele>
        <time>2021-06-23T13:39:15Z</time>
      </trkpt>
      <trkpt lat="47.96778" lon="6.95883">
        <ele>563.96</ele>
        <time>2021-06-23T13:39:18Z</time>
      </trkpt>
      <trkpt lat="47.96833" lon="6.95898">
        <ele>570.47</ele>
        <time>2021-06-23T13:39:22Z</time>
      </trkpt>
      <trkpt lat="47.97003" lon="6.95955">
        <ele>561.76</ele>
        <time>2021-06-23T13:39:25Z</time>
      </trkpt>
      <trkpt lat="47.97021" lon="6.95959">
        <ele>561.04</ele>
        <time>2021-06-23T13:39:28Z</time>
      </trkpt>
      <trkpt lat="47.97093" lon="6.95952">
        <ele>561.65</ele>
        <time>2021-06-23T13:39:32Z</time>
      </trkpt>
      <trkpt lat="47.97179" lon="6.95965">
        <ele>559.46</ele>
        <time>2021-06-23T13:39:35Z</time>
      </trkpt>
      <trkpt lat="47.97191" lon="6.9597">
        <ele>559.87</ele>
        <time>2021-06-23T13:39:38Z</time>
      </trkpt>
      <trkpt lat="47.97236" lon="6.96001">
        <ele>562.04</ele>
        <time>2021-06-23T13:39:42Z</time>
      </trkpt>
      <trkpt lat="47.97321" lon="6.96018">
        <ele>567.35</ele>
        <time>2021-06-23T13:39:45Z</time>
      </trkpt>
      <trkpt lat="47.97446" lon="6.96076">
        <ele>574.1</ele>
        <time>2021-06-23T13:39:48Z</time>
      </trkpt>
      <trkpt lat="47.97463" lon="6.9608">
        <ele>571.94</ele>
        <time>2021-06-23T13:39:51Z</time>
      </trkpt>
      <trkpt lat="47.97502" lon="6.96078">
        <ele>565.51</ele>
        <time>2021-06-23T13:39:55Z</time>
      </trkpt>
      <trkpt lat="47.97531" lon="6.96074">
        <ele>564.18</ele>
        <time>2021-06-23T13:39:58Z</time>
      </trkpt>
      <trkpt lat="47.97545" lon="6.96075">
        <ele>565.18</ele>
        <time>2021-06-23T13:40:01Z</time>
      </trkpt>
      <trkpt lat="47.97597" lon="6.96089">
        <ele>570.49</ele>
        <time>2021-06-23T13:40:05Z</time>
      </trkpt>
      <trkpt lat="47.97675" lon="6.96106">
        <ele>569.15</ele>
        <time>2021-06-23T13:40:08Z</time>
      </trkpt>
      <trkpt lat="47.97779" lon="6.96138">
        <ele>570.05</ele>
        <time>2021-06-23T13:40:11Z</time>
      </trkpt>
      <trkpt lat="47.9779" lon="6.96136">
        <ele>570.81</ele>
        <time>2021-06-23T13:40:14Z</time>
      </trkpt>
      <trkpt lat="47.97829" lon="6.96119">
        <ele>574.3</ele>
        <time>2021-06-23T13:40:18Z</time>
      </trkpt>
      <trkpt lat="47.97893" lon="6.96133">
        <ele>578.56</ele>
        <time>2021-06-23T13:40:21Z</time>
      </trkpt>
      <trkpt lat="47.97912" lon="6.9614">
        <ele>577.39</ele>
        <time>2021-06-23T13:40:24Z</time>
      </trkpt>
      <trkpt lat="47.97943" lon="6.96173">
        <ele>583.18</ele>
        <time>2021-06-23T13:40:28Z</time>
      </trkpt>
      <trkpt lat="47.97982" lon="6.96224">
        <ele>594.34</ele>
        <time>2021-06-23T13:40:31Z</time>
      </trkpt>
      <trkpt lat="47.97994" lon="6.96237">
        <ele>598.08</ele>
        <time>2021-06-23T13:40:34Z</time>
      </trkpt>
      <trkpt lat="47.98008" lon="6.96247">
        <ele>599.07</ele>
        <time>2021-06-23T13:40:37Z</time>
      </trkpt>
      <trkpt lat="47.981" lon="6.96286">
        <ele>594.25</ele>
        <time>2021-06-23T13:40:41Z</time>
      </trkpt>
      <trkpt lat="47.98235" lon="6.9635">
        <ele>610.59</ele>
        <time>2021-06-23T13:40:44Z</time>
      </trkpt>
      <trkpt lat="47.98256" lon="6.96369">
        <ele>612.68</ele>
        <time>2021-06-23T13:40:47Z</time>
      </trkpt>
      <trkpt lat="47.98273" lon="6.96391">
        <ele>613.1</ele>
        <time>2021-06-23T13:40:51Z</time>
      </trkpt>
      <trkpt lat="47.9829" lon="6.96417">
        <ele>612</ele>
        <time>2021-06-23T13:40:54Z</time>
      </trkpt>
      <trkpt lat="47.98323" lon="6.9645">
        <ele>622.23</ele>
        <time>2021-06-23T13:40:57Z</time>
      </trkpt>
      <trkpt lat="47.98368" lon="6.9648">
        <ele>625.62</ele>
        <time>2021-06-23T13:41:01Z</time>
      </trkpt>
      <trkpt lat="47.98446" lon="6.96511">
        <ele>623.64</ele>
        <time>2021-06-23T13:41:04Z</time>
      </trkpt>
      <trkpt lat="47.98489" lon="6.96522">
        <ele>627.11</ele>
        <time>2021-06-23T13:41:07Z</time>
      </trkpt>
      <trkpt lat="47.98564" lon="6.96543">
        <ele>633.34</ele>
        <time>2021-06-23T13:41:10Z</time>
      </trkpt>
      <trkpt lat="47.98697" lon="6.96566">
        <ele>644.74</ele>
        <time>2021-06-23T13:41:14Z</time>
      </trkpt>
      <trkpt lat="47.98709" lon="6.96572">
        <ele>648.47</ele>
        <time>2021-06-23T13:41:17Z</time>
      </trkpt>
      <trkpt lat="47.98717" lon="6.9658">
        <ele>651.87</ele>
        <time>2021-06-23T13:41:20Z</time>
      </trkpt>
      <trkpt lat="47.98718" lon="6.96587">
        <ele>653.94</ele>
        <time>2021-06-23T13:41:24Z</time>
      </trkpt>
      <trkpt lat="47.98717" lon="6.96594">
        <ele>655.76</ele>
        <time>2021-06-23T13:41:27Z</time>
      </trkpt>
      <trkpt lat="47.98714" lon="6.96599">
        <ele>656.89</ele>
        <time>2021-06-23T13:41:30Z</time>
      </trkpt>
      <trkpt lat="47.98707" lon="6.96605">
        <ele>657.72</ele>
        <time>2021-06-23T13:41:33Z</time>
      </trkpt>
      <trkpt lat="47.98695" lon="6.96606">
        <ele>657.05</ele>
        <time>2021-06-23T13:41:37Z</time>
      </trkpt>
      <trkpt lat="47.98563" lon="6.96594">
        <ele>648.22</ele>
        <time>2021-06-23T13:41:40Z</time>
      </trkpt>
      <trkpt lat="47.98514" lon="6.96604">
        <ele>647.62</ele>
        <time>2021-06-23T13:41:43Z</time>
      </trkpt>
      <trkpt lat="47.9847" lon="6.9661">
        <ele>647.87</ele>
        <time>2021-06-23T13:41:47Z</time>
      </trkpt>
      <trkpt lat="47.98387" lon="6.96597">
        <ele>656.09</ele>
        <time>2021-06-23T13:41:50Z</time>
      </trkpt>
      <trkpt lat="47.9834" lon="6.96587">
        <ele>657.38</ele>
        <time>2021-06-23T13:41:53Z</time>
      </trkpt>
      <trkpt lat="47.98293" lon="6.96569">
        <ele>657.87</ele>
        <time>2021-06-23T13:41:56Z</time>
      </trkpt>
      <trkpt lat="47.9828" lon="6.96571">
        <ele>660.21</ele>
        <time>2021-06-23T13:42:00Z</time>
      </trkpt>
      <trkpt lat="47.98278" lon="6.96579">
        <ele>663.36</ele>
        <time>2021-06-23T13:42:03Z</time>
      </trkpt>
      <trkpt lat="47.98279" lon="6.96584">
        <ele>665.24</ele>
        <time>2021-06-23T13:42:06Z</time>
      </trkpt>
      <trkpt lat="47.98284" lon="6.96591">
        <ele>667.17</ele>
        <time>2021-06-23T13:42:10Z</time>
      </trkpt>
      <trkpt lat="47.9832" lon="6.966">
        <ele>664.02</ele>
        <time>2021-06-23T13:42:13Z</time>
      </trkpt>
      <trkpt lat="47.98486" lon="6.96657">
        <ele>667.8</ele>
        <time>2021-06-23T13:42:16Z</time>
      </trkpt>
      <trkpt lat="47.98531" lon="6.96664">
        <ele>677.45</ele>
        <time>2021-06-23T13:42:20Z</time>
      </trkpt>
      <trkpt lat="47.98574" lon="6.96666">
        <ele>681.01</ele>
        <time>2021-06-23T13:42:23Z</time>
      </trkpt>
      <trkpt lat="47.98717" lon="6.96693">
        <ele>681.13</ele>
        <time>2021-06-23T13:42:26Z</time>
      </trkpt>
      <trkpt lat="47.98779" lon="6.96692">
        <ele>688.79</ele>
        <time>2021-06-23T13:42:29Z</time>
      </trkpt>
      <trkpt lat="47.98833" lon="6.96689">
        <ele>696.01</ele>
        <time>2021-06-23T13:42:33Z</time>
      </trkpt>
      <trkpt lat="47.98879" lon="6.96684">
        <ele>694.97</ele>
        <time>2021-06-23T13:42:36Z</time>
      </trkpt>
      <trkpt lat="47.99042" lon="6.96674">
        <ele>706.78</ele>
        <time>2021-06-23T13:42:39Z</time>
      </trkpt>
      <trkpt lat="47.99074" lon="6.96666">
        <ele>711.39</ele>
        <time>2021-06-23T13:42:43Z</time>
      </trkpt>
      <trkpt lat="47.99074" lon="6.96666">
        <ele>711.39</ele>
        <time>2021-06-23T13:42:43Z</time>
      </trkpt>
      <trkpt lat="47.99142" lon="6.96649">
        <ele>715.99</ele>
        <time>2021-06-23T13:42:44Z</time>
      </trkpt>
      <trkpt lat="47.99151" lon="6.96645">
        <ele>717.29</ele>
        <time>2021-06-23T13:42:45Z</time>
      </trkpt>
      <trkpt lat="47.99167" lon="6.9663">
        <ele>718.43</ele>
        <time>2021-06-23T13:42:46Z</time>
      </trkpt>
      <trkpt lat="47.99179" lon="6.96604">
        <ele>719.5</ele>
        <time>2021-06-23T13:42:47Z</time>
      </trkpt>
      <trkpt lat="47.99183" lon="6.96592">
        <ele>719.29</ele>
        <time>2021-06-23T13:42:48Z</time>
      </trkpt>
      <trkpt lat="47.99184" lon="6.96583">
        <ele>718.36</ele>
        <time>2021-06-23T13:42:49Z</time>
      </trkpt>
      <trkpt lat="47.99182" lon="6.96566">
        <ele>717.46</ele>
        <time>2021-06-23T13:42:50Z</time>
      </trkpt>
      <trkpt lat="47.9915" lon="6.96494">
        <ele>712.66</ele>
        <time>2021-06-23T13:42:51Z</time>
      </trkpt>
      <trkpt lat="47.99144" lon="6.96478">
        <ele>712.02</ele>
        <time>2021-06-23T13:42:52Z</time>
      </trkpt>
      <trkpt lat="47.99136" lon="6.96445">
        <ele>714.42</ele>
        <time>2021-06-23T13:42:53Z</time>
      </trkpt>
      <trkpt lat="47.99124" lon="6.96384">
        <ele>719.75</ele>
        <time>2021-06-23T13:42:54Z</time>
      </trkpt>
      <trkpt lat="47.99123" lon="6.96371">
        <ele>720.29</ele>
        <time>2021-06-23T13:42:55Z</time>
      </trkpt>
      <trkpt lat="47.99124" lon="6.96355">
        <ele>721.82</ele>
        <time>2021-06-23T13:42:57Z</time>
      </trkpt>
      <trkpt lat="47.99129" lon="6.96341">
        <ele>723.8</ele>
        <time>2021-06-23T13:42:58Z</time>
      </trkpt>
      <trkpt lat="47.99157" lon="6.96275">
        <ele>729.68</ele>
        <time>2021-06-23T13:42:59Z</time>
      </trkpt>
      <trkpt lat="47.99182" lon="6.96234">
        <ele>733.13</ele>
        <time>2021-06-23T13:43:00Z</time>
      </trkpt>
      <trkpt lat="47.99241" lon="6.96153">
        <ele>734.84</ele>
        <time>2021-06-23T13:43:01Z</time>
      </trkpt>
      <trkpt lat="47.9925" lon="6.96131">
        <ele>734.67</ele>
        <time>2021-06-23T13:43:02Z</time>
      </trkpt>
      <trkpt lat="47.99252" lon="6.96107">
        <ele>734.49</ele>
        <time>2021-06-23T13:43:03Z</time>
      </trkpt>
      <trkpt lat="47.99249" lon="6.96086">
        <ele>734.79</ele>
        <time>2021-06-23T13:43:04Z</time>
      </trkpt>
      <trkpt lat="47.99234" lon="6.96036">
        <ele>741.47</ele>
        <time>2021-06-23T13:43:05Z</time>
      </trkpt>
      <trkpt lat="47.99235" lon="6.96024">
        <ele>743.82</ele>
        <time>2021-06-23T13:43:06Z</time>
      </trkpt>
      <trkpt lat="47.99238" lon="6.9602">
        <ele>744.83</ele>
        <time>2021-06-23T13:43:07Z</time>
      </trkpt>
      <trkpt lat="47.99242" lon="6.96016">
        <ele>746.01</ele>
        <time>2021-06-23T13:43:08Z</time>
      </trkpt>
      <trkpt lat="47.99246" lon="6.96016">
        <ele>746.63</ele>
        <time>2021-06-23T13:43:09Z</time>
      </trkpt>
      <trkpt lat="47.99249" lon="6.96018">
        <ele>746.92</ele>
        <time>2021-06-23T13:43:11Z</time>
      </trkpt>
      <trkpt lat="47.99253" lon="6.96023">
        <ele>747.05</ele>
        <time>2021-06-23T13:43:12Z</time>
      </trkpt>
      <trkpt lat="47.99257" lon="6.96034">
        <ele>745.92</ele>
        <time>2021-06-23T13:43:13Z</time>
      </trkpt>
      <trkpt lat="47.99274" lon="6.96094">
        <ele>740.31</ele>
        <time>2021-06-23T13:43:14Z</time>
      </trkpt>
      <trkpt lat="47.9928" lon="6.96132">
        <ele>743.28</ele>
        <time>2021-06-23T13:43:15Z</time>
      </trkpt>
      <trkpt lat="47.9928" lon="6.96145">
        <ele>744.76</ele>
        <time>2021-06-23T13:43:16Z</time>
      </trkpt>
      <trkpt lat="47.99275" lon="6.96169">
        <ele>745.71</ele>
        <time>2021-06-23T13:43:17Z</time>
      </trkpt>
      <trkpt lat="47.99256" lon="6.96207">
        <ele>746.91</ele>
        <time>2021-06-23T13:43:18Z</time>
      </trkpt>
      <trkpt lat="47.99254" lon="6.96217">
        <ele>749.01</ele>
        <time>2021-06-23T13:43:19Z</time>
      </trkpt>
      <trkpt lat="47.99254" lon="6.96223">
        <ele>750.93</ele>
        <time>2021-06-23T13:43:20Z</time>
      </trkpt>
      <trkpt lat="47.99258" lon="6.96227">
        <ele>753.45</ele>
        <time>2021-06-23T13:43:21Z</time>
      </trkpt>
      <trkpt lat="47.99266" lon="6.96231">
        <ele>757.74</ele>
        <time>2021-06-23T13:43:22Z</time>
      </trkpt>
      <trkpt lat="47.9927" lon="6.96229">
        <ele>758.71</ele>
        <time>2021-06-23T13:43:23Z</time>
      </trkpt>
      <trkpt lat="47.99274" lon="6.96223">
        <ele>758.09</ele>
        <time>2021-06-23T13:43:24Z</time>
      </trkpt>
      <trkpt lat="47.99293" lon="6.96179">
        <ele>756.97</ele>
        <time>2021-06-23T13:43:26Z</time>
      </trkpt>
      <trkpt lat="47.99299" lon="6.96155">
        <ele>756.11</ele>
        <time>2021-06-23T13:43:27Z</time>
      </trkpt>
      <trkpt lat="47.99303" lon="6.96094">
        <ele>755.18</ele>
        <time>2021-06-23T13:43:28Z</time>
      </trkpt>
      <trkpt lat="47.99302" lon="6.96068">
        <ele>757.41</ele>
        <time>2021-06-23T13:43:29Z</time>
      </trkpt>
      <trkpt lat="47.99291" lon="6.95988">
        <ele>759.33</ele>
        <time>2021-06-23T13:43:30Z</time>
      </trkpt>
      <trkpt lat="47.99293" lon="6.95969">
        <ele>759.69</ele>
        <time>2021-06-23T13:43:31Z</time>
      </trkpt>
      <trkpt lat="47.99296" lon="6.95959">
        <ele>760.13</ele>
        <time>2021-06-23T13:43:32Z</time>
      </trkpt>
      <trkpt lat="47.99305" lon="6.95945">
        <ele>761.9</ele>
        <time>2021-06-23T13:43:33Z</time>
      </trkpt>
      <trkpt lat="47.99339" lon="6.95911">
        <ele>769.44</ele>
        <time>2021-06-23T13:43:34Z</time>
      </trkpt>
      <trkpt lat="47.99347" lon="6.95897">
        <ele>771.57</ele>
        <time>2021-06-23T13:43:35Z</time>
      </trkpt>
      <trkpt lat="47.9938" lon="6.95813">
        <ele>776.12</ele>
        <time>2021-06-23T13:43:36Z</time>
      </trkpt>
      <trkpt lat="47.99386" lon="6.95784">
        <ele>775.8</ele>
        <time>2021-06-23T13:43:37Z</time>
      </trkpt>
      <trkpt lat="47.9939" lon="6.95748">
        <ele>777.54</ele>
        <time>2021-06-23T13:43:38Z</time>
      </trkpt>
      <trkpt lat="47.99393" lon="6.95743">
        <ele>778.98</ele>
        <time>2021-06-23T13:43:40Z</time>
      </trkpt>
      <trkpt lat="47.99398" lon="6.95743">
        <ele>780.24</ele>
        <time>2021-06-23T13:43:41Z</time>
      </trkpt>
      <trkpt lat="47.99402" lon="6.95746">
        <ele>780.81</ele>
        <time>2021-06-23T13:43:42Z</time>
      </trkpt>
      <trkpt lat="47.99405" lon="6.9575">
        <ele>781</ele>
        <time>2021-06-23T13:43:43Z</time>
      </trkpt>
      <trkpt lat="47.99405" lon="6.95756">
        <ele>780.97</ele>
        <time>2021-06-23T13:43:44Z</time>
      </trkpt>
      <trkpt lat="47.994" lon="6.95813">
        <ele>781.56</ele>
        <time>2021-06-23T13:43:45Z</time>
      </trkpt>
      <trkpt lat="47.99392" lon="6.95855">
        <ele>783.49</ele>
        <time>2021-06-23T13:43:46Z</time>
      </trkpt>
      <trkpt lat="47.99375" lon="6.95902">
        <ele>783.37</ele>
        <time>2021-06-23T13:43:47Z</time>
      </trkpt>
      <trkpt lat="47.99374" lon="6.95911">
        <ele>784.07</ele>
        <time>2021-06-23T13:43:48Z</time>
      </trkpt>
      <trkpt lat="47.99374" lon="6.95917">
        <ele>785.26</ele>
        <time>2021-06-23T13:43:49Z</time>
      </trkpt>
      <trkpt lat="47.99378" lon="6.95922">
        <ele>787.88</ele>
        <time>2021-06-23T13:43:50Z</time>
      </trkpt>
      <trkpt lat="47.99384" lon="6.95924">
        <ele>791.02</ele>
        <time>2021-06-23T13:43:51Z</time>
      </trkpt>
      <trkpt lat="47.99389" lon="6.95918">
        <ele>792.72</ele>
        <time>2021-06-23T13:43:52Z</time>
      </trkpt>
      <trkpt lat="47.99396" lon="6.95892">
        <ele>792.23</ele>
        <time>2021-06-23T13:43:53Z</time>
      </trkpt>
      <trkpt lat="47.99421" lon="6.9583">
        <ele>790.71</ele>
        <time>2021-06-23T13:43:55Z</time>
      </trkpt>
      <trkpt lat="47.99438" lon="6.95763">
        <ele>794.29</ele>
        <time>2021-06-23T13:43:56Z</time>
      </trkpt>
      <trkpt lat="47.99461" lon="6.95709">
        <ele>803.88</ele>
        <time>2021-06-23T13:43:57Z</time>
      </trkpt>
      <trkpt lat="47.99465" lon="6.95694">
        <ele>805.69</ele>
        <time>2021-06-23T13:43:58Z</time>
      </trkpt>
      <trkpt lat="47.99474" lon="6.95645">
        <ele>803.52</ele>
        <time>2021-06-23T13:43:59Z</time>
      </trkpt>
      <trkpt lat="47.9948" lon="6.95628">
        <ele>803.21</ele>
        <time>2021-06-23T13:44:00Z</time>
      </trkpt>
      <trkpt lat="47.99543" lon="6.95481">
        <ele>812.83</ele>
        <time>2021-06-23T13:44:01Z</time>
      </trkpt>
      <trkpt lat="47.99543" lon="6.95469">
        <ele>813.43</ele>
        <time>2021-06-23T13:44:02Z</time>
      </trkpt>
      <trkpt lat="47.99542" lon="6.95465">
        <ele>813.71</ele>
        <time>2021-06-23T13:44:03Z</time>
      </trkpt>
      <trkpt lat="47.99539" lon="6.9546">
        <ele>814.02</ele>
        <time>2021-06-23T13:44:04Z</time>
      </trkpt>
      <trkpt lat="47.99531" lon="6.95455">
        <ele>814</ele>
        <time>2021-06-23T13:44:05Z</time>
      </trkpt>
      <trkpt lat="47.99519" lon="6.95456">
        <ele>814.45</ele>
        <time>2021-06-23T13:44:06Z</time>
      </trkpt>
      <trkpt lat="47.99497" lon="6.95477">
        <ele>812.01</ele>
        <time>2021-06-23T13:44:07Z</time>
      </trkpt>
      <trkpt lat="47.99486" lon="6.95483">
        <ele>811.54</ele>
        <time>2021-06-23T13:44:09Z</time>
      </trkpt>
      <trkpt lat="47.99482" lon="6.95483">
        <ele>811.8</ele>
        <time>2021-06-23T13:44:10Z</time>
      </trkpt>
      <trkpt lat="47.99477" lon="6.95474">
        <ele>813.59</ele>
        <time>2021-06-23T13:44:11Z</time>
      </trkpt>
      <trkpt lat="47.99479" lon="6.95462">
        <ele>816.23</ele>
        <time>2021-06-23T13:44:12Z</time>
      </trkpt>
      <trkpt lat="47.99485" lon="6.95453">
        <ele>817.7</ele>
        <time>2021-06-23T13:44:13Z</time>
      </trkpt>
      <trkpt lat="47.9952" lon="6.95422">
        <ele>819.61</ele>
        <time>2021-06-23T13:44:14Z</time>
      </trkpt>
      <trkpt lat="47.99564" lon="6.95376">
        <ele>821.18</ele>
        <time>2021-06-23T13:44:15Z</time>
      </trkpt>
      <trkpt lat="47.99588" lon="6.95356">
        <ele>823.03</ele>
        <time>2021-06-23T13:44:16Z</time>
      </trkpt>
      <trkpt lat="47.996" lon="6.95352">
        <ele>823.47</ele>
        <time>2021-06-23T13:44:17Z</time>
      </trkpt>
      <trkpt lat="47.99605" lon="6.95355">
        <ele>823.17</ele>
        <time>2021-06-23T13:44:18Z</time>
      </trkpt>
      <trkpt lat="47.99611" lon="6.95367">
        <ele>822.76</ele>
        <time>2021-06-23T13:44:19Z</time>
      </trkpt>
      <trkpt lat="47.99614" lon="6.95389">
        <ele>823.1</ele>
        <time>2021-06-23T13:44:20Z</time>
      </trkpt>
      <trkpt lat="47.99616" lon="6.95438">
        <ele>827.61</ele>
        <time>2021-06-23T13:44:21Z</time>
      </trkpt>
      <trkpt lat="47.99616" lon="6.95507">
        <ele>829</ele>
        <time>2021-06-23T13:44:22Z</time>
      </trkpt>
      <trkpt lat="47.99613" lon="6.9553">
        <ele>827.64</ele>
        <time>2021-06-23T13:44:24Z</time>
      </trkpt>
      <trkpt lat="47.99605" lon="6.95549">
        <ele>826.68</ele>
        <time>2021-06-23T13:44:25Z</time>
      </trkpt>
      <trkpt lat="47.99575" lon="6.95593">
        <ele>826.15</ele>
        <time>2021-06-23T13:44:26Z</time>
      </trkpt>
      <trkpt lat="47.9957" lon="6.95604">
        <ele>826.84</ele>
        <time>2021-06-23T13:44:27Z</time>
      </trkpt>
      <trkpt lat="47.99568" lon="6.95622">
        <ele>829.58</ele>
        <time>2021-06-23T13:44:28Z</time>
      </trkpt>
      <trkpt lat="47.99572" lon="6.95627">
        <ele>831.84</ele>
        <time>2021-06-23T13:44:29Z</time>
      </trkpt>
      <trkpt lat="47.99579" lon="6.95627">
        <ele>834.51</ele>
        <time>2021-06-23T13:44:30Z</time>
      </trkpt>
      <trkpt lat="47.99584" lon="6.9562">
        <ele>834.95</ele>
        <time>2021-06-23T13:44:31Z</time>
      </trkpt>
      <trkpt lat="47.99622" lon="6.95563">
        <ele>835.66</ele>
        <time>2021-06-23T13:44:32Z</time>
      </trkpt>
      <trkpt lat="47.99634" lon="6.95539">
        <ele>836.99</ele>
        <time>2021-06-23T13:44:33Z</time>
      </trkpt>
      <trkpt lat="47.99678" lon="6.95392">
        <ele>846.54</ele>
        <time>2021-06-23T13:44:34Z</time>
      </trkpt>
      <trkpt lat="47.99688" lon="6.95351">
        <ele>847.16</ele>
        <time>2021-06-23T13:44:35Z</time>
      </trkpt>
      <trkpt lat="47.99693" lon="6.95311">
        <ele>846.7</ele>
        <time>2021-06-23T13:44:36Z</time>
      </trkpt>
      <trkpt lat="47.99695" lon="6.95279">
        <ele>850.79</ele>
        <time>2021-06-23T13:44:37Z</time>
      </trkpt>
      <trkpt lat="47.99693" lon="6.95248">
        <ele>855.41</ele>
        <time>2021-06-23T13:44:39Z</time>
      </trkpt>
      <trkpt lat="47.9969" lon="6.95233">
        <ele>855.96</ele>
        <time>2021-06-23T13:44:40Z</time>
      </trkpt>
      <trkpt lat="47.99674" lon="6.95191">
        <ele>857.44</ele>
        <time>2021-06-23T13:44:41Z</time>
      </trkpt>
      <trkpt lat="47.99673" lon="6.95184">
        <ele>858.38</ele>
        <time>2021-06-23T13:44:42Z</time>
      </trkpt>
      <trkpt lat="47.99673" lon="6.95178">
        <ele>859.34</ele>
        <time>2021-06-23T13:44:43Z</time>
      </trkpt>
      <trkpt lat="47.9968" lon="6.95168">
        <ele>862.11</ele>
        <time>2021-06-23T13:44:44Z</time>
      </trkpt>
      <trkpt lat="47.99689" lon="6.95169">
        <ele>863.64</ele>
        <time>2021-06-23T13:44:45Z</time>
      </trkpt>
      <trkpt lat="47.99692" lon="6.95174">
        <ele>863.71</ele>
        <time>2021-06-23T13:44:46Z</time>
      </trkpt>
      <trkpt lat="47.99697" lon="6.95188">
        <ele>863.54</ele>
        <time>2021-06-23T13:44:47Z</time>
      </trkpt>
      <trkpt lat="47.99706" lon="6.95227">
        <ele>863.13</ele>
        <time>2021-06-23T13:44:48Z</time>
      </trkpt>
      <trkpt lat="47.99714" lon="6.95278">
        <ele>860.69</ele>
        <time>2021-06-23T13:44:49Z</time>
      </trkpt>
      <trkpt lat="47.99718" lon="6.95331">
        <ele>859.6</ele>
        <time>2021-06-23T13:44:50Z</time>
      </trkpt>
      <trkpt lat="47.99707" lon="6.95413">
        <ele>858.9</ele>
        <time>2021-06-23T13:44:51Z</time>
      </trkpt>
      <trkpt lat="47.99708" lon="6.9542">
        <ele>859.4</ele>
        <time>2021-06-23T13:44:53Z</time>
      </trkpt>
      <trkpt lat="47.9971" lon="6.95425">
        <ele>860.6</ele>
        <time>2021-06-23T13:44:54Z</time>
      </trkpt>
      <trkpt lat="47.99714" lon="6.95428">
        <ele>862.33</ele>
        <time>2021-06-23T13:44:55Z</time>
      </trkpt>
      <trkpt lat="47.99718" lon="6.95428">
        <ele>864.65</ele>
        <time>2021-06-23T13:44:56Z</time>
      </trkpt>
      <trkpt lat="47.99722" lon="6.95423">
        <ele>866.73</ele>
        <time>2021-06-23T13:44:57Z</time>
      </trkpt>
      <trkpt lat="47.99724" lon="6.95414">
        <ele>867.6</ele>
        <time>2021-06-23T13:44:58Z</time>
      </trkpt>
      <trkpt lat="47.99725" lon="6.95377">
        <ele>865.48</ele>
        <time>2021-06-23T13:44:59Z</time>
      </trkpt>
      <trkpt lat="47.99731" lon="6.95337">
        <ele>867.41</ele>
        <time>2021-06-23T13:45:00Z</time>
      </trkpt>
      <trkpt lat="47.99732" lon="6.95318">
        <ele>868.13</ele>
        <time>2021-06-23T13:45:01Z</time>
      </trkpt>
      <trkpt lat="47.99731" lon="6.95275">
        <ele>869.45</ele>
        <time>2021-06-23T13:45:02Z</time>
      </trkpt>
      <trkpt lat="47.99737" lon="6.95204">
        <ele>877.3</ele>
        <time>2021-06-23T13:45:03Z</time>
      </trkpt>
      <trkpt lat="47.99736" lon="6.95173">
        <ele>878.82</ele>
        <time>2021-06-23T13:45:04Z</time>
      </trkpt>
      <trkpt lat="47.99731" lon="6.95144">
        <ele>879.43</ele>
        <time>2021-06-23T13:45:05Z</time>
      </trkpt>
      <trkpt lat="47.99718" lon="6.95103">
        <ele>876.68</ele>
        <time>2021-06-23T13:45:06Z</time>
      </trkpt>
      <trkpt lat="47.99715" lon="6.95086">
        <ele>876.76</ele>
        <time>2021-06-23T13:45:08Z</time>
      </trkpt>
      <trkpt lat="47.99717" lon="6.95057">
        <ele>878.59</ele>
        <time>2021-06-23T13:45:09Z</time>
      </trkpt>
      <trkpt lat="47.99723" lon="6.95012">
        <ele>879.07</ele>
        <time>2021-06-23T13:45:10Z</time>
      </trkpt>
      <trkpt lat="47.99733" lon="6.9498">
        <ele>882.53</ele>
        <time>2021-06-23T13:45:11Z</time>
      </trkpt>
      <trkpt lat="47.99759" lon="6.94925">
        <ele>893.12</ele>
        <time>2021-06-23T13:45:12Z</time>
      </trkpt>
      <trkpt lat="47.99767" lon="6.94901">
        <ele>896.85</ele>
        <time>2021-06-23T13:45:13Z</time>
      </trkpt>
      <trkpt lat="47.99776" lon="6.94865">
        <ele>900.53</ele>
        <time>2021-06-23T13:45:14Z</time>
      </trkpt>
      <trkpt lat="47.99781" lon="6.9481">
        <ele>907.61</ele>
        <time>2021-06-23T13:45:15Z</time>
      </trkpt>
      <trkpt lat="47.99784" lon="6.94798">
        <ele>909.48</ele>
        <time>2021-06-23T13:45:16Z</time>
      </trkpt>
      <trkpt lat="47.99789" lon="6.94793">
        <ele>910.65</ele>
        <time>2021-06-23T13:45:17Z</time>
      </trkpt>
      <trkpt lat="47.99795" lon="6.94792">
        <ele>911.13</ele>
        <time>2021-06-23T13:45:18Z</time>
      </trkpt>
      <trkpt lat="47.99799" lon="6.94795">
        <ele>910.98</ele>
        <time>2021-06-23T13:45:19Z</time>
      </trkpt>
      <trkpt lat="47.99802" lon="6.94802">
        <ele>910.2</ele>
        <time>2021-06-23T13:45:20Z</time>
      </trkpt>
      <trkpt lat="47.99802" lon="6.94811">
        <ele>909.5</ele>
        <time>2021-06-23T13:45:22Z</time>
      </trkpt>
      <trkpt lat="47.99795" lon="6.94851">
        <ele>906.1</ele>
        <time>2021-06-23T13:45:23Z</time>
      </trkpt>
      <trkpt lat="47.99788" lon="6.94911">
        <ele>902.89</ele>
        <time>2021-06-23T13:45:24Z</time>
      </trkpt>
      <trkpt lat="47.9977" lon="6.94985">
        <ele>902.59</ele>
        <time>2021-06-23T13:45:25Z</time>
      </trkpt>
      <trkpt lat="47.99763" lon="6.95061">
        <ele>904.19</ele>
        <time>2021-06-23T13:45:26Z</time>
      </trkpt>
      <trkpt lat="47.99763" lon="6.95092">
        <ele>902.28</ele>
        <time>2021-06-23T13:45:27Z</time>
      </trkpt>
      <trkpt lat="47.99765" lon="6.95108">
        <ele>902.43</ele>
        <time>2021-06-23T13:45:28Z</time>
      </trkpt>
      <trkpt lat="47.9978" lon="6.95147">
        <ele>906.52</ele>
        <time>2021-06-23T13:45:29Z</time>
      </trkpt>
      <trkpt lat="47.99784" lon="6.9517">
        <ele>906.47</ele>
        <time>2021-06-23T13:45:30Z</time>
      </trkpt>
      <trkpt lat="47.99784" lon="6.95214">
        <ele>904.03</ele>
        <time>2021-06-23T13:45:31Z</time>
      </trkpt>
      <trkpt lat="47.9979" lon="6.95272">
        <ele>906.41</ele>
        <time>2021-06-23T13:45:32Z</time>
      </trkpt>
      <trkpt lat="47.998" lon="6.95354">
        <ele>915.83</ele>
        <time>2021-06-23T13:45:33Z</time>
      </trkpt>
      <trkpt lat="47.99793" lon="6.95424">
        <ele>912.88</ele>
        <time>2021-06-23T13:45:34Z</time>
      </trkpt>
      <trkpt lat="47.99795" lon="6.9544">
        <ele>916.56</ele>
        <time>2021-06-23T13:45:35Z</time>
      </trkpt>
      <trkpt lat="47.998" lon="6.95446">
        <ele>921.97</ele>
        <time>2021-06-23T13:45:37Z</time>
      </trkpt>
      <trkpt lat="47.99806" lon="6.95444">
        <ele>927.16</ele>
        <time>2021-06-23T13:45:38Z</time>
      </trkpt>
      <trkpt lat="47.9981" lon="6.95429">
        <ele>926.93</ele>
        <time>2021-06-23T13:45:39Z</time>
      </trkpt>
      <trkpt lat="47.9981" lon="6.95403">
        <ele>922.8</ele>
        <time>2021-06-23T13:45:40Z</time>
      </trkpt>
      <trkpt lat="47.99814" lon="6.95347">
        <ele>924.99</ele>
        <time>2021-06-23T13:45:41Z</time>
      </trkpt>
      <trkpt lat="47.9981" lon="6.95283">
        <ele>923.74</ele>
        <time>2021-06-23T13:45:42Z</time>
      </trkpt>
      <trkpt lat="47.99811" lon="6.95254">
        <ele>925.63</ele>
        <time>2021-06-23T13:45:43Z</time>
      </trkpt>
      <trkpt lat="47.9982" lon="6.9516">
        <ele>929.6</ele>
        <time>2021-06-23T13:45:44Z</time>
      </trkpt>
      <trkpt lat="47.99818" lon="6.95046">
        <ele>935.92</ele>
        <time>2021-06-23T13:45:45Z</time>
      </trkpt>
      <trkpt lat="47.99819" lon="6.95014">
        <ele>936.76</ele>
        <time>2021-06-23T13:45:46Z</time>
      </trkpt>
      <trkpt lat="47.99829" lon="6.94974">
        <ele>940.07</ele>
        <time>2021-06-23T13:45:47Z</time>
      </trkpt>
      <trkpt lat="47.99839" lon="6.94952">
        <ele>940.27</ele>
        <time>2021-06-23T13:45:48Z</time>
      </trkpt>
      <trkpt lat="47.99869" lon="6.94915">
        <ele>946.02</ele>
        <time>2021-06-23T13:45:49Z</time>
      </trkpt>
      <trkpt lat="47.99913" lon="6.94837">
        <ele>950.15</ele>
        <time>2021-06-23T13:45:51Z</time>
      </trkpt>
      <trkpt lat="47.99923" lon="6.94812">
        <ele>951.56</ele>
        <time>2021-06-23T13:45:52Z</time>
      </trkpt>
      <trkpt lat="47.99938" lon="6.94759">
        <ele>956.14</ele>
        <time>2021-06-23T13:45:53Z</time>
      </trkpt>
      <trkpt lat="47.99947" lon="6.94714">
        <ele>962.88</ele>
        <time>2021-06-23T13:45:54Z</time>
      </trkpt>
      <trkpt lat="47.99961" lon="6.94622">
        <ele>961.67</ele>
        <time>2021-06-23T13:45:55Z</time>
      </trkpt>
      <trkpt lat="47.99974" lon="6.946">
        <ele>965.47</ele>
        <time>2021-06-23T13:45:56Z</time>
      </trkpt>
      <trkpt lat="48.00031" lon="6.94552">
        <ele>969.93</ele>
        <time>2021-06-23T13:45:57Z</time>
      </trkpt>
      <trkpt lat="48.0005" lon="6.9454">
        <ele>967.93</ele>
        <time>2021-06-23T13:45:58Z</time>
      </trkpt>
      <trkpt lat="48.00072" lon="6.94535">
        <ele>964.83</ele>
        <time>2021-06-23T13:45:59Z</time>
      </trkpt>
      <trkpt lat="48.00086" lon="6.94535">
        <ele>961.63</ele>
        <time>2021-06-23T13:46:00Z</time>
      </trkpt>
      <trkpt lat="48.00086" lon="6.94535">
        <ele>961.63</ele>
        <time>2021-06-23T13:46:00Z</time>
      </trkpt>
      <trkpt lat="48.00137" lon="6.9454">
        <ele>959.5</ele>
        <time>2021-06-23T13:46:03Z</time>
      </trkpt>
      <trkpt lat="48.00224" lon="6.9454">
        <ele>955.24</ele>
        <time>2021-06-23T13:46:05Z</time>
      </trkpt>
      <trkpt lat="48.0024" lon="6.94535">
        <ele>955.87</ele>
        <time>2021-06-23T13:46:08Z</time>
      </trkpt>
      <trkpt lat="48.0026" lon="6.94522">
        <ele>952.66</ele>
        <time>2021-06-23T13:46:10Z</time>
      </trkpt>
      <trkpt lat="48.0029" lon="6.94507">
        <ele>946.48</ele>
        <time>2021-06-23T13:46:13Z</time>
      </trkpt>
      <trkpt lat="48.00306" lon="6.94502">
        <ele>943.52</ele>
        <time>2021-06-23T13:46:15Z</time>
      </trkpt>
      <trkpt lat="48.00324" lon="6.945">
        <ele>941.69</ele>
        <time>2021-06-23T13:46:18Z</time>
      </trkpt>
      <trkpt lat="48.00386" lon="6.94522">
        <ele>936.03</ele>
        <time>2021-06-23T13:46:20Z</time>
      </trkpt>
      <trkpt lat="48.00415" lon="6.94525">
        <ele>935.01</ele>
        <time>2021-06-23T13:46:23Z</time>
      </trkpt>
      <trkpt lat="48.00444" lon="6.94521">
        <ele>925.41</ele>
        <time>2021-06-23T13:46:25Z</time>
      </trkpt>
      <trkpt lat="48.00549" lon="6.9452">
        <ele>918.41</ele>
        <time>2021-06-23T13:46:28Z</time>
      </trkpt>
      <trkpt lat="48.00564" lon="6.94527">
        <ele>919.19</ele>
        <time>2021-06-23T13:46:30Z</time>
      </trkpt>
      <trkpt lat="48.00577" lon="6.94541">
        <ele>925.04</ele>
        <time>2021-06-23T13:46:33Z</time>
      </trkpt>
      <trkpt lat="48.00599" lon="6.94548">
        <ele>924</ele>
        <time>2021-06-23T13:46:35Z</time>
      </trkpt>
      <trkpt lat="48.00729" lon="6.94549">
        <ele>898.74</ele>
        <time>2021-06-23T13:46:38Z</time>
      </trkpt>
      <trkpt lat="48.00746" lon="6.94547">
        <ele>896.06</ele>
        <time>2021-06-23T13:46:40Z</time>
      </trkpt>
      <trkpt lat="48.00776" lon="6.94552">
        <ele>893.91</ele>
        <time>2021-06-23T13:46:43Z</time>
      </trkpt>
      <trkpt lat="48.00835" lon="6.94569">
        <ele>891.24</ele>
        <time>2021-06-23T13:46:45Z</time>
      </trkpt>
      <trkpt lat="48.00939" lon="6.94593">
        <ele>877.56</ele>
        <time>2021-06-23T13:46:47Z</time>
      </trkpt>
      <trkpt lat="48.0099" lon="6.94609">
        <ele>871.79</ele>
        <time>2021-06-23T13:46:50Z</time>
      </trkpt>
      <trkpt lat="48.01094" lon="6.9465">
        <ele>863.13</ele>
        <time>2021-06-23T13:46:52Z</time>
      </trkpt>
      <trkpt lat="48.01178" lon="6.94665">
        <ele>852.64</ele>
        <time>2021-06-23T13:46:55Z</time>
      </trkpt>
      <trkpt lat="48.01196" lon="6.94673">
        <ele>851.02</ele>
        <time>2021-06-23T13:46:57Z</time>
      </trkpt>
      <trkpt lat="48.01222" lon="6.94691">
        <ele>850.01</ele>
        <time>2021-06-23T13:47:00Z</time>
      </trkpt>
      <trkpt lat="48.01302" lon="6.94756">
        <ele>842.99</ele>
        <time>2021-06-23T13:47:02Z</time>
      </trkpt>
      <trkpt lat="48.01308" lon="6.94758">
        <ele>841.56</ele>
        <time>2021-06-23T13:47:05Z</time>
      </trkpt>
      <trkpt lat="48.01312" lon="6.94756">
        <ele>840.2</ele>
        <time>2021-06-23T13:47:07Z</time>
      </trkpt>
      <trkpt lat="48.01314" lon="6.94753">
        <ele>839.42</ele>
        <time>2021-06-23T13:47:10Z</time>
      </trkpt>
      <trkpt lat="48.01315" lon="6.94747">
        <ele>838.18</ele>
        <time>2021-06-23T13:47:12Z</time>
      </trkpt>
      <trkpt lat="48.01312" lon="6.94737">
        <ele>835.79</ele>
        <time>2021-06-23T13:47:15Z</time>
      </trkpt>
      <trkpt lat="48.01277" lon="6.94699">
        <ele>832.19</ele>
        <time>2021-06-23T13:47:17Z</time>
      </trkpt>
      <trkpt lat="48.01229" lon="6.94638">
        <ele>827.4</ele>
        <time>2021-06-23T13:47:20Z</time>
      </trkpt>
      <trkpt lat="48.01197" lon="6.94604">
        <ele>824.27</ele>
        <time>2021-06-23T13:47:22Z</time>
      </trkpt>
      <trkpt lat="48.01146" lon="6.94559">
        <ele>823.68</ele>
        <time>2021-06-23T13:47:25Z</time>
      </trkpt>
      <trkpt lat="48.00997" lon="6.94434">
        <ele>813.09</ele>
        <time>2021-06-23T13:47:27Z</time>
      </trkpt>
      <trkpt lat="48.00924" lon="6.94396">
        <ele>811</ele>
        <time>2021-06-23T13:47:30Z</time>
      </trkpt>
      <trkpt lat="48.00844" lon="6.94321">
        <ele>793.42</ele>
        <time>2021-06-23T13:47:32Z</time>
      </trkpt>
      <trkpt lat="48.00808" lon="6.94295">
        <ele>795.1</ele>
        <time>2021-06-23T13:47:35Z</time>
      </trkpt>
      <trkpt lat="48.0076" lon="6.9427">
        <ele>795.17</ele>
        <time>2021-06-23T13:47:37Z</time>
      </trkpt>
      <trkpt lat="48.00741" lon="6.94256">
        <ele>792.69</ele>
        <time>2021-06-23T13:47:40Z</time>
      </trkpt>
      <trkpt lat="48.00698" lon="6.94206">
        <ele>780.95</ele>
        <time>2021-06-23T13:47:42Z</time>
      </trkpt>
      <trkpt lat="48.00659" lon="6.94183">
        <ele>779.45</ele>
        <time>2021-06-23T13:47:45Z</time>
      </trkpt>
      <trkpt lat="48.00638" lon="6.94159">
        <ele>778.02</ele>
        <time>2021-06-23T13:47:47Z</time>
      </trkpt>
      <trkpt lat="48.00617" lon="6.94121">
        <ele>775.07</ele>
        <time>2021-06-23T13:47:50Z</time>
      </trkpt>
      <trkpt lat="48.00548" lon="6.93968">
        <ele>768.91</ele>
        <time>2021-06-23T13:47:52Z</time>
      </trkpt>
      <trkpt lat="48.00512" lon="6.93894">
        <ele>768.03</ele>
        <time>2021-06-23T13:47:55Z</time>
      </trkpt>
      <trkpt lat="48.00493" lon="6.93864">
        <ele>765.34</ele>
        <time>2021-06-23T13:47:57Z</time>
      </trkpt>
      <trkpt lat="48.00477" lon="6.9385">
        <ele>765.45</ele>
        <time>2021-06-23T13:48:00Z</time>
      </trkpt>
      <trkpt lat="48.00436" lon="6.93829">
        <ele>767.86</ele>
        <time>2021-06-23T13:48:02Z</time>
      </trkpt>
      <trkpt lat="48.00417" lon="6.93816">
        <ele>766.45</ele>
        <time>2021-06-23T13:48:05Z</time>
      </trkpt>
      <trkpt lat="48.00402" lon="6.93798">
        <ele>764.99</ele>
        <time>2021-06-23T13:48:07Z</time>
      </trkpt>
      <trkpt lat="48.0039" lon="6.93782">
        <ele>763.69</ele>
        <time>2021-06-23T13:48:10Z</time>
      </trkpt>
      <trkpt lat="48.00375" lon="6.93743">
        <ele>765.44</ele>
        <time>2021-06-23T13:48:12Z</time>
      </trkpt>
      <trkpt lat="48.0037" lon="6.93703">
        <ele>759.71</ele>
        <time>2021-06-23T13:48:15Z</time>
      </trkpt>
      <trkpt lat="48.0037" lon="6.93703">
        <ele>759.71</ele>
        <time>2021-06-23T13:48:15Z</time>
      </trkpt>
      <trkpt lat="48.00366" lon="6.93675">
        <ele>753.97</ele>
        <time>2021-06-23T13:48:18Z</time>
      </trkpt>
      <trkpt lat="48.00357" lon="6.93637">
        <ele>755.07</ele>
        <time>2021-06-23T13:48:22Z</time>
      </trkpt>
      <trkpt lat="48.00325" lon="6.9355">
        <ele>753.2</ele>
        <time>2021-06-23T13:48:25Z</time>
      </trkpt>
      <trkpt lat="48.00312" lon="6.93501">
        <ele>747.91</ele>
        <time>2021-06-23T13:48:29Z</time>
      </trkpt>
      <trkpt lat="48.00291" lon="6.93407">
        <ele>744.61</ele>
        <time>2021-06-23T13:48:32Z</time>
      </trkpt>
      <trkpt lat="48.00283" lon="6.93361">
        <ele>742.23</ele>
        <time>2021-06-23T13:48:36Z</time>
      </trkpt>
      <trkpt lat="48.00278" lon="6.93274">
        <ele>744.32</ele>
        <time>2021-06-23T13:48:40Z</time>
      </trkpt>
      <trkpt lat="48.00276" lon="6.9316">
        <ele>737.79</ele>
        <time>2021-06-23T13:48:43Z</time>
      </trkpt>
      <trkpt lat="48.00278" lon="6.93118">
        <ele>738.06</ele>
        <time>2021-06-23T13:48:47Z</time>
      </trkpt>
      <trkpt lat="48.00284" lon="6.93082">
        <ele>734.04</ele>
        <time>2021-06-23T13:48:50Z</time>
      </trkpt>
      <trkpt lat="48.0029" lon="6.93057">
        <ele>729.16</ele>
        <time>2021-06-23T13:48:54Z</time>
      </trkpt>
      <trkpt lat="48.00303" lon="6.93022">
        <ele>726.61</ele>
        <time>2021-06-23T13:48:57Z</time>
      </trkpt>
      <trkpt lat="48.00321" lon="6.92986">
        <ele>726.77</ele>
        <time>2021-06-23T13:49:01Z</time>
      </trkpt>
      <trkpt lat="48.00355" lon="6.92931">
        <ele>729.26</ele>
        <time>2021-06-23T13:49:05Z</time>
      </trkpt>
      <trkpt lat="48.00364" lon="6.92917">
        <ele>730.28</ele>
        <time>2021-06-23T13:49:08Z</time>
      </trkpt>
      <trkpt lat="48.00372" lon="6.92909">
        <ele>731.69</ele>
        <time>2021-06-23T13:49:12Z</time>
      </trkpt>
      <trkpt lat="48.00381" lon="6.92903">
        <ele>733.4</ele>
        <time>2021-06-23T13:49:15Z</time>
      </trkpt>
      <trkpt lat="48.0041" lon="6.92996">
        <ele>736.95</ele>
        <time>2021-06-23T13:49:22Z</time>
      </trkpt>
      <trkpt lat="48.00434" lon="6.93052">
        <ele>738.4</ele>
        <time>2021-06-23T13:49:29Z</time>
      </trkpt>
      <trkpt lat="48.00545" lon="6.9328">
        <ele>740.52</ele>
        <time>2021-06-23T13:49:36Z</time>
      </trkpt>
      <trkpt lat="48.00558" lon="6.9332">
        <ele>739.8</ele>
        <time>2021-06-23T13:49:43Z</time>
      </trkpt>
      <trkpt lat="48.00587" lon="6.93429">
        <ele>738.63</ele>
        <time>2021-06-23T13:49:49Z</time>
      </trkpt>
      <trkpt lat="48.00601" lon="6.9347">
        <ele>740.03</ele>
        <time>2021-06-23T13:49:56Z</time>
      </trkpt>
      <trkpt lat="48.0065" lon="6.93563">
        <ele>735.76</ele>
        <time>2021-06-23T13:50:03Z</time>
      </trkpt>
      <trkpt lat="48.00685" lon="6.9362">
        <ele>737.9</ele>
        <time>2021-06-23T13:50:10Z</time>
      </trkpt>
      <trkpt lat="48.00721" lon="6.9366">
        <ele>738.2</ele>
        <time>2021-06-23T13:50:17Z</time>
      </trkpt>
      <trkpt lat="48.00831" lon="6.9377">
        <ele>742.87</ele>
        <time>2021-06-23T13:50:23Z</time>
      </trkpt>
      <trkpt lat="48.00896" lon="6.93818">
        <ele>743.04</ele>
        <time>2021-06-23T13:50:30Z</time>
      </trkpt>
      <trkpt lat="48.00958" lon="6.93855">
        <ele>752.55</ele>
        <time>2021-06-23T13:50:37Z</time>
      </trkpt>
      <trkpt lat="48.01012" lon="6.93894">
        <ele>751.95</ele>
        <time>2021-06-23T13:50:44Z</time>
      </trkpt>
      <trkpt lat="48.01056" lon="6.93937">
        <ele>755.05</ele>
        <time>2021-06-23T13:50:51Z</time>
      </trkpt>
      <trkpt lat="48.01111" lon="6.93995">
        <ele>754.64</ele>
        <time>2021-06-23T13:50:57Z</time>
      </trkpt>
      <trkpt lat="48.01147" lon="6.9403">
        <ele>752.9</ele>
        <time>2021-06-23T13:51:04Z</time>
      </trkpt>
      <trkpt lat="48.01309" lon="6.94136">
        <ele>758.03</ele>
        <time>2021-06-23T13:51:11Z</time>
      </trkpt>
      <trkpt lat="48.01346" lon="6.94171">
        <ele>762.29</ele>
        <time>2021-06-23T13:51:18Z</time>
      </trkpt>
      <trkpt lat="48.0151" lon="6.94343">
        <ele>768.57</ele>
        <time>2021-06-23T13:51:25Z</time>
      </trkpt>
      <trkpt lat="48.0151" lon="6.94343">
        <ele>768.57</ele>
        <time>2021-06-23T13:51:25Z</time>
      </trkpt>
      <trkpt lat="48.01897" lon="6.94747">
        <ele>783.18</ele>
        <time>2021-06-23T13:51:29Z</time>
      </trkpt>
      <trkpt lat="48.0192" lon="6.94776">
        <ele>782.99</ele>
        <time>2021-06-23T13:51:34Z</time>
      </trkpt>
      <trkpt lat="48.01942" lon="6.94811">
        <ele>783.09</ele>
        <time>2021-06-23T13:51:38Z</time>
      </trkpt>
      <trkpt lat="48.01987" lon="6.94898">
        <ele>789.19</ele>
        <time>2021-06-23T13:51:43Z</time>
      </trkpt>
      <trkpt lat="48.02012" lon="6.94941">
        <ele>790.56</ele>
        <time>2021-06-23T13:51:47Z</time>
      </trkpt>
      <trkpt lat="48.02027" lon="6.94963">
        <ele>790.68</ele>
        <time>2021-06-23T13:51:52Z</time>
      </trkpt>
      <trkpt lat="48.02094" lon="6.95039">
        <ele>796.47</ele>
        <time>2021-06-23T13:51:56Z</time>
      </trkpt>
      <trkpt lat="48.02105" lon="6.95055">
        <ele>796.33</ele>
        <time>2021-06-23T13:52:01Z</time>
      </trkpt>
      <trkpt lat="48.02117" lon="6.95082">
        <ele>794.36</ele>
        <time>2021-06-23T13:52:05Z</time>
      </trkpt>
      <trkpt lat="48.02127" lon="6.95107">
        <ele>795.06</ele>
        <time>2021-06-23T13:52:10Z</time>
      </trkpt>
      <trkpt lat="48.02153" lon="6.95208">
        <ele>800.27</ele>
        <time>2021-06-23T13:52:14Z</time>
      </trkpt>
      <trkpt lat="48.02169" lon="6.95248">
        <ele>798.3</ele>
        <time>2021-06-23T13:52:18Z</time>
      </trkpt>
      <trkpt lat="48.0218" lon="6.9527">
        <ele>797.92</ele>
        <time>2021-06-23T13:52:23Z</time>
      </trkpt>
      <trkpt lat="48.02195" lon="6.95291">
        <ele>798.51</ele>
        <time>2021-06-23T13:52:27Z</time>
      </trkpt>
      <trkpt lat="48.02254" lon="6.95355">
        <ele>808.43</ele>
        <time>2021-06-23T13:52:32Z</time>
      </trkpt>
      <trkpt lat="48.02278" lon="6.95398">
        <ele>813.31</ele>
        <time>2021-06-23T13:52:36Z</time>
      </trkpt>
      <trkpt lat="48.02291" lon="6.95435">
        <ele>814.17</ele>
        <time>2021-06-23T13:52:41Z</time>
      </trkpt>
      <trkpt lat="48.02324" lon="6.95573">
        <ele>819.83</ele>
        <time>2021-06-23T13:52:45Z</time>
      </trkpt>
      <trkpt lat="48.0234" lon="6.95617">
        <ele>822.07</ele>
        <time>2021-06-23T13:52:50Z</time>
      </trkpt>
      <trkpt lat="48.02392" lon="6.95745">
        <ele>831.88</ele>
        <time>2021-06-23T13:52:54Z</time>
      </trkpt>
      <trkpt lat="48.0242" lon="6.95827">
        <ele>831.35</ele>
        <time>2021-06-23T13:52:59Z</time>
      </trkpt>
      <trkpt lat="48.02439" lon="6.95863">
        <ele>831.32</ele>
        <time>2021-06-23T13:53:03Z</time>
      </trkpt>
      <trkpt lat="48.02471" lon="6.95912">
        <ele>838.55</ele>
        <time>2021-06-23T13:53:08Z</time>
      </trkpt>
      <trkpt lat="48.02496" lon="6.95938">
        <ele>839.67</ele>
        <time>2021-06-23T13:53:12Z</time>
      </trkpt>
      <trkpt lat="48.02521" lon="6.95957">
        <ele>841.84</ele>
        <time>2021-06-23T13:53:17Z</time>
      </trkpt>
      <trkpt lat="48.02599" lon="6.95983">
        <ele>848.49</ele>
        <time>2021-06-23T13:53:21Z</time>
      </trkpt>
      <trkpt lat="48.02646" lon="6.96008">
        <ele>849.05</ele>
        <time>2021-06-23T13:53:26Z</time>
      </trkpt>
      <trkpt lat="48.02693" lon="6.96048">
        <ele>855.54</ele>
        <time>2021-06-23T13:53:30Z</time>
      </trkpt>
      <trkpt lat="48.02715" lon="6.96064">
        <ele>859.56</ele>
        <time>2021-06-23T13:53:35Z</time>
      </trkpt>
      <trkpt lat="48.02772" lon="6.96098">
        <ele>862.78</ele>
        <time>2021-06-23T13:53:39Z</time>
      </trkpt>
      <trkpt lat="48.02819" lon="6.96137">
        <ele>870.36</ele>
        <time>2021-06-23T13:53:44Z</time>
      </trkpt>
      <trkpt lat="48.02846" lon="6.96149">
        <ele>870.73</ele>
        <time>2021-06-23T13:53:48Z</time>
      </trkpt>
      <trkpt lat="48.02917" lon="6.96173">
        <ele>873.88</ele>
        <time>2021-06-23T13:53:53Z</time>
      </trkpt>
      <trkpt lat="48.03051" lon="6.96212">
        <ele>883.79</ele>
        <time>2021-06-23T13:53:57Z</time>
      </trkpt>
      <trkpt lat="48.03101" lon="6.96243">
        <ele>888.2</ele>
        <time>2021-06-23T13:54:02Z</time>
      </trkpt>
      <trkpt lat="48.03239" lon="6.96321">
        <ele>888.38</ele>
        <time>2021-06-23T13:54:06Z</time>
      </trkpt>
      <trkpt lat="48.03307" lon="6.96371">
        <ele>888.81</ele>
        <time>2021-06-23T13:54:11Z</time>
      </trkpt>
      <trkpt lat="48.03386" lon="6.96449">
        <ele>883.95</ele>
        <time>2021-06-23T13:54:15Z</time>
      </trkpt>
      <trkpt lat="48.03438" lon="6.96493">
        <ele>887.76</ele>
        <time>2021-06-23T13:54:20Z</time>
      </trkpt>
      <trkpt lat="48.03468" lon="6.96527">
        <ele>886.5</ele>
        <time>2021-06-23T13:54:24Z</time>
      </trkpt>
      <trkpt lat="48.03529" lon="6.96618">
        <ele>890.32</ele>
        <time>2021-06-23T13:54:29Z</time>
      </trkpt>
      <trkpt lat="48.03563" lon="6.9669">
        <ele>889.15</ele>
        <time>2021-06-23T13:54:33Z</time>
      </trkpt>
      <trkpt lat="48.03612" lon="6.968">
        <ele>890.79</ele>
        <time>2021-06-23T13:54:37Z</time>
      </trkpt>
      <trkpt lat="48.03627" lon="6.9683">
        <ele>891.25</ele>
        <time>2021-06-23T13:54:42Z</time>
      </trkpt>
      <trkpt lat="48.03644" lon="6.9687">
        <ele>891.94</ele>
        <time>2021-06-23T13:54:46Z</time>
      </trkpt>
      <trkpt lat="48.03648" lon="6.96887">
        <ele>892.9</ele>
        <time>2021-06-23T13:54:51Z</time>
      </trkpt>
      <trkpt lat="48.03645" lon="6.96892">
        <ele>893.66</ele>
        <time>2021-06-23T13:54:52Z</time>
      </trkpt>
      <trkpt lat="48.03643" lon="6.96902">
        <ele>895.3</ele>
        <time>2021-06-23T13:54:53Z</time>
      </trkpt>
      <trkpt lat="48.03645" lon="6.96912">
        <ele>896.33</ele>
        <time>2021-06-23T13:54:54Z</time>
      </trkpt>
      <trkpt lat="48.03654" lon="6.96922">
        <ele>895.81</ele>
        <time>2021-06-23T13:54:56Z</time>
      </trkpt>
      <trkpt lat="48.03661" lon="6.96923">
        <ele>894.36</ele>
        <time>2021-06-23T13:54:57Z</time>
      </trkpt>
      <trkpt lat="48.03669" lon="6.9692">
        <ele>893.13</ele>
        <time>2021-06-23T13:54:58Z</time>
      </trkpt>
      <trkpt lat="48.03678" lon="6.96923">
        <ele>893.22</ele>
        <time>2021-06-23T13:54:59Z</time>
      </trkpt>
      <trkpt lat="48.037" lon="6.96936">
        <ele>895.03</ele>
        <time>2021-06-23T13:55:00Z</time>
      </trkpt>
      <trkpt lat="48.03724" lon="6.9697">
        <ele>898.65</ele>
        <time>2021-06-23T13:55:01Z</time>
      </trkpt>
      <trkpt lat="48.03758" lon="6.97025">
        <ele>904.19</ele>
        <time>2021-06-23T13:55:02Z</time>
      </trkpt>
      <trkpt lat="48.03782" lon="6.97074">
        <ele>907.28</ele>
        <time>2021-06-23T13:55:04Z</time>
      </trkpt>
      <trkpt lat="48.03814" lon="6.97127">
        <ele>910.59</ele>
        <time>2021-06-23T13:55:05Z</time>
      </trkpt>
      <trkpt lat="48.03835" lon="6.97151">
        <ele>914.24</ele>
        <time>2021-06-23T13:55:06Z</time>
      </trkpt>
      <trkpt lat="48.03913" lon="6.97216">
        <ele>918.53</ele>
        <time>2021-06-23T13:55:07Z</time>
      </trkpt>
      <trkpt lat="48.03933" lon="6.97243">
        <ele>918.97</ele>
        <time>2021-06-23T13:55:08Z</time>
      </trkpt>
      <trkpt lat="48.03942" lon="6.9726">
        <ele>919.62</ele>
        <time>2021-06-23T13:55:09Z</time>
      </trkpt>
      <trkpt lat="48.03949" lon="6.9728">
        <ele>920.67</ele>
        <time>2021-06-23T13:55:10Z</time>
      </trkpt>
      <trkpt lat="48.03953" lon="6.97305">
        <ele>923.25</ele>
        <time>2021-06-23T13:55:11Z</time>
      </trkpt>
      <trkpt lat="48.03952" lon="6.9735">
        <ele>926.48</ele>
        <time>2021-06-23T13:55:13Z</time>
      </trkpt>
      <trkpt lat="48.03948" lon="6.97357">
        <ele>926.26</ele>
        <time>2021-06-23T13:55:14Z</time>
      </trkpt>
      <trkpt lat="48.03947" lon="6.97365">
        <ele>926.22</ele>
        <time>2021-06-23T13:55:16Z</time>
      </trkpt>
      <trkpt lat="48.03949" lon="6.97378">
        <ele>926.3</ele>
        <time>2021-06-23T13:55:18Z</time>
      </trkpt>
      <trkpt lat="48.03952" lon="6.97384">
        <ele>926.4</ele>
        <time>2021-06-23T13:55:19Z</time>
      </trkpt>
      <trkpt lat="48.03971" lon="6.97398">
        <ele>926.68</ele>
        <time>2021-06-23T13:55:21Z</time>
      </trkpt>
      <trkpt lat="48.03987" lon="6.97423">
        <ele>926.79</ele>
        <time>2021-06-23T13:55:23Z</time>
      </trkpt>
      <trkpt lat="48.04004" lon="6.97455">
        <ele>929.21</ele>
        <time>2021-06-23T13:55:25Z</time>
      </trkpt>
      <trkpt lat="48.04024" lon="6.9748">
        <ele>934.62</ele>
        <time>2021-06-23T13:55:26Z</time>
      </trkpt>
      <trkpt lat="48.04051" lon="6.97504">
        <ele>940.78</ele>
        <time>2021-06-23T13:55:28Z</time>
      </trkpt>
      <trkpt lat="48.04075" lon="6.9752">
        <ele>944.36</ele>
        <time>2021-06-23T13:55:30Z</time>
      </trkpt>
      <trkpt lat="48.04111" lon="6.97534">
        <ele>941.42</ele>
        <time>2021-06-23T13:55:31Z</time>
      </trkpt>
      <trkpt lat="48.04146" lon="6.97545">
        <ele>940.42</ele>
        <time>2021-06-23T13:55:33Z</time>
      </trkpt>
      <trkpt lat="48.04229" lon="6.97581">
        <ele>947.41</ele>
        <time>2021-06-23T13:55:35Z</time>
      </trkpt>
      <trkpt lat="48.0429" lon="6.97613">
        <ele>957.93</ele>
        <time>2021-06-23T13:55:37Z</time>
      </trkpt>
      <trkpt lat="48.04311" lon="6.97617">
        <ele>954.7</ele>
        <time>2021-06-23T13:55:38Z</time>
      </trkpt>
      <trkpt lat="48.04334" lon="6.97618">
        <ele>954.65</ele>
        <time>2021-06-23T13:55:40Z</time>
      </trkpt>
      <trkpt lat="48.04446" lon="6.97613">
        <ele>949.05</ele>
        <time>2021-06-23T13:55:42Z</time>
      </trkpt>
      <trkpt lat="48.04531" lon="6.97611">
        <ele>954.23</ele>
        <time>2021-06-23T13:55:43Z</time>
      </trkpt>
      <trkpt lat="48.04633" lon="6.97588">
        <ele>954.76</ele>
        <time>2021-06-23T13:55:45Z</time>
      </trkpt>
      <trkpt lat="48.04698" lon="6.97565">
        <ele>953.96</ele>
        <time>2021-06-23T13:55:47Z</time>
      </trkpt>
      <trkpt lat="48.04711" lon="6.97564">
        <ele>954.52</ele>
        <time>2021-06-23T13:55:49Z</time>
      </trkpt>
      <trkpt lat="48.04736" lon="6.97569">
        <ele>955.87</ele>
        <time>2021-06-23T13:55:50Z</time>
      </trkpt>
      <trkpt lat="48.04761" lon="6.9758">
        <ele>957.5</ele>
        <time>2021-06-23T13:55:52Z</time>
      </trkpt>
      <trkpt lat="48.04777" lon="6.97591">
        <ele>960.11</ele>
        <time>2021-06-23T13:55:54Z</time>
      </trkpt>
      <trkpt lat="48.04788" lon="6.97604">
        <ele>964.23</ele>
        <time>2021-06-23T13:55:55Z</time>
      </trkpt>
      <trkpt lat="48.04788" lon="6.97604">
        <ele>964.23</ele>
        <time>2021-06-23T13:55:55Z</time>
      </trkpt>
      <trkpt lat="48.04813" lon="6.97638">
        <ele>966.35</ele>
        <time>2021-06-23T13:55:58Z</time>
      </trkpt>
      <trkpt lat="48.04838" lon="6.97677">
        <ele>959.04</ele>
        <time>2021-06-23T13:56:00Z</time>
      </trkpt>
      <trkpt lat="48.04851" lon="6.97703">
        <ele>954.43</ele>
        <time>2021-06-23T13:56:02Z</time>
      </trkpt>
      <trkpt lat="48.04874" lon="6.97798">
        <ele>957.53</ele>
        <time>2021-06-23T13:56:04Z</time>
      </trkpt>
      <trkpt lat="48.04926" lon="6.97888">
        <ele>946.71</ele>
        <time>2021-06-23T13:56:06Z</time>
      </trkpt>
      <trkpt lat="48.04946" lon="6.97934">
        <ele>944.42</ele>
        <time>2021-06-23T13:56:08Z</time>
      </trkpt>
      <trkpt lat="48.04983" lon="6.98058">
        <ele>941.65</ele>
        <time>2021-06-23T13:56:10Z</time>
      </trkpt>
      <trkpt lat="48.04989" lon="6.98085">
        <ele>941.12</ele>
        <time>2021-06-23T13:56:12Z</time>
      </trkpt>
      <trkpt lat="48.04992" lon="6.98107">
        <ele>941.76</ele>
        <time>2021-06-23T13:56:14Z</time>
      </trkpt>
      <trkpt lat="48.04996" lon="6.98154">
        <ele>942.18</ele>
        <time>2021-06-23T13:56:16Z</time>
      </trkpt>
      <trkpt lat="48.05022" lon="6.98264">
        <ele>928.18</ele>
        <time>2021-06-23T13:56:19Z</time>
      </trkpt>
      <trkpt lat="48.05027" lon="6.98299">
        <ele>925.51</ele>
        <time>2021-06-23T13:56:21Z</time>
      </trkpt>
      <trkpt lat="48.05026" lon="6.98327">
        <ele>926.85</ele>
        <time>2021-06-23T13:56:23Z</time>
      </trkpt>
      <trkpt lat="48.05022" lon="6.98349">
        <ele>929.3</ele>
        <time>2021-06-23T13:56:25Z</time>
      </trkpt>
      <trkpt lat="48.05012" lon="6.98385">
        <ele>937.27</ele>
        <time>2021-06-23T13:56:27Z</time>
      </trkpt>
      <trkpt lat="48.05007" lon="6.9842">
        <ele>940.9</ele>
        <time>2021-06-23T13:56:29Z</time>
      </trkpt>
      <trkpt lat="48.05007" lon="6.98442">
        <ele>937.31</ele>
        <time>2021-06-23T13:56:31Z</time>
      </trkpt>
      <trkpt lat="48.05012" lon="6.98485">
        <ele>926.31</ele>
        <time>2021-06-23T13:56:33Z</time>
      </trkpt>
      <trkpt lat="48.05012" lon="6.98503">
        <ele>925.12</ele>
        <time>2021-06-23T13:56:35Z</time>
      </trkpt>
      <trkpt lat="48.05004" lon="6.98552">
        <ele>929.08</ele>
        <time>2021-06-23T13:56:38Z</time>
      </trkpt>
      <trkpt lat="48.04995" lon="6.98689">
        <ele>923.49</ele>
        <time>2021-06-23T13:56:40Z</time>
      </trkpt>
      <trkpt lat="48.04991" lon="6.98716">
        <ele>921.07</ele>
        <time>2021-06-23T13:56:42Z</time>
      </trkpt>
      <trkpt lat="48.0498" lon="6.98743">
        <ele>921.17</ele>
        <time>2021-06-23T13:56:44Z</time>
      </trkpt>
      <trkpt lat="48.04903" lon="6.98833">
        <ele>939.98</ele>
        <time>2021-06-23T13:56:46Z</time>
      </trkpt>
      <trkpt lat="48.04888" lon="6.98864">
        <ele>940.16</ele>
        <time>2021-06-23T13:56:48Z</time>
      </trkpt>
      <trkpt lat="48.04885" lon="6.98883">
        <ele>940.02</ele>
        <time>2021-06-23T13:56:50Z</time>
      </trkpt>
      <trkpt lat="48.04885" lon="6.98902">
        <ele>939.36</ele>
        <time>2021-06-23T13:56:52Z</time>
      </trkpt>
      <trkpt lat="48.0489" lon="6.98919">
        <ele>937.58</ele>
        <time>2021-06-23T13:56:54Z</time>
      </trkpt>
      <trkpt lat="48.04893" lon="6.9897">
        <ele>939.3</ele>
        <time>2021-06-23T13:56:57Z</time>
      </trkpt>
      <trkpt lat="48.04892" lon="6.98984">
        <ele>940.38</ele>
        <time>2021-06-23T13:56:59Z</time>
      </trkpt>
      <trkpt lat="48.04888" lon="6.98997">
        <ele>942.11</ele>
        <time>2021-06-23T13:57:01Z</time>
      </trkpt>
      <trkpt lat="48.04856" lon="6.99055">
        <ele>947.16</ele>
        <time>2021-06-23T13:57:03Z</time>
      </trkpt>
      <trkpt lat="48.04853" lon="6.99068">
        <ele>948.11</ele>
        <time>2021-06-23T13:57:05Z</time>
      </trkpt>
      <trkpt lat="48.04853" lon="6.99081">
        <ele>948.66</ele>
        <time>2021-06-23T13:57:07Z</time>
      </trkpt>
      <trkpt lat="48.04858" lon="6.99132">
        <ele>950</ele>
        <time>2021-06-23T13:57:09Z</time>
      </trkpt>
      <trkpt lat="48.04856" lon="6.99177">
        <ele>950.66</ele>
        <time>2021-06-23T13:57:11Z</time>
      </trkpt>
      <trkpt lat="48.04849" lon="6.99215">
        <ele>950.88</ele>
        <time>2021-06-23T13:57:13Z</time>
      </trkpt>
      <trkpt lat="48.04826" lon="6.99274">
        <ele>956.2</ele>
        <time>2021-06-23T13:57:15Z</time>
      </trkpt>
      <trkpt lat="48.04826" lon="6.99289">
        <ele>957.37</ele>
        <time>2021-06-23T13:57:18Z</time>
      </trkpt>
      <trkpt lat="48.04832" lon="6.99373">
        <ele>962.68</ele>
        <time>2021-06-23T13:57:20Z</time>
      </trkpt>
      <trkpt lat="48.04827" lon="6.9941">
        <ele>964.8</ele>
        <time>2021-06-23T13:57:22Z</time>
      </trkpt>
      <trkpt lat="48.04814" lon="6.99427">
        <ele>966.85</ele>
        <time>2021-06-23T13:57:24Z</time>
      </trkpt>
      <trkpt lat="48.04775" lon="6.99451">
        <ele>972.78</ele>
        <time>2021-06-23T13:57:26Z</time>
      </trkpt>
      <trkpt lat="48.04762" lon="6.99463">
        <ele>973.91</ele>
        <time>2021-06-23T13:57:28Z</time>
      </trkpt>
      <trkpt lat="48.0476" lon="6.99467">
        <ele>981.82</ele>
        <time>2021-06-23T13:57:30Z</time>
      </trkpt>
      <trkpt lat="48.0476" lon="6.99467">
        <ele>981.82</ele>
        <time>2021-06-23T13:57:30Z</time>
      </trkpt>
      <trkpt lat="48.04762" lon="6.99463">
        <ele>973.91</ele>
        <time>2021-06-23T13:57:32Z</time>
      </trkpt>
      <trkpt lat="48.04775" lon="6.99451">
        <ele>972.78</ele>
        <time>2021-06-23T13:57:34Z</time>
      </trkpt>
      <trkpt lat="48.04814" lon="6.99427">
        <ele>966.85</ele>
        <time>2021-06-23T13:57:36Z</time>
      </trkpt>
      <trkpt lat="48.04827" lon="6.9941">
        <ele>964.8</ele>
        <time>2021-06-23T13:57:37Z</time>
      </trkpt>
      <trkpt lat="48.04832" lon="6.99373">
        <ele>962.68</ele>
        <time>2021-06-23T13:57:39Z</time>
      </trkpt>
      <trkpt lat="48.04826" lon="6.99289">
        <ele>957.37</ele>
        <time>2021-06-23T13:57:41Z</time>
      </trkpt>
      <trkpt lat="48.04826" lon="6.99274">
        <ele>956.2</ele>
        <time>2021-06-23T13:57:43Z</time>
      </trkpt>
      <trkpt lat="48.04849" lon="6.99215">
        <ele>950.88</ele>
        <time>2021-06-23T13:57:44Z</time>
      </trkpt>
      <trkpt lat="48.04856" lon="6.99177">
        <ele>950.66</ele>
        <time>2021-06-23T13:57:46Z</time>
      </trkpt>
      <trkpt lat="48.04858" lon="6.99132">
        <ele>950</ele>
        <time>2021-06-23T13:57:48Z</time>
      </trkpt>
      <trkpt lat="48.04853" lon="6.99081">
        <ele>948.66</ele>
        <time>2021-06-23T13:57:50Z</time>
      </trkpt>
      <trkpt lat="48.04853" lon="6.99068">
        <ele>948.11</ele>
        <time>2021-06-23T13:57:51Z</time>
      </trkpt>
      <trkpt lat="48.04856" lon="6.99055">
        <ele>947.16</ele>
        <time>2021-06-23T13:57:53Z</time>
      </trkpt>
      <trkpt lat="48.04888" lon="6.98997">
        <ele>942.11</ele>
        <time>2021-06-23T13:57:55Z</time>
      </trkpt>
      <trkpt lat="48.04892" lon="6.98984">
        <ele>940.38</ele>
        <time>2021-06-23T13:57:57Z</time>
      </trkpt>
      <trkpt lat="48.04893" lon="6.9897">
        <ele>939.3</ele>
        <time>2021-06-23T13:57:58Z</time>
      </trkpt>
      <trkpt lat="48.0489" lon="6.98919">
        <ele>937.58</ele>
        <time>2021-06-23T13:58:00Z</time>
      </trkpt>
      <trkpt lat="48.04885" lon="6.98902">
        <ele>939.36</ele>
        <time>2021-06-23T13:58:02Z</time>
      </trkpt>
      <trkpt lat="48.04885" lon="6.98883">
        <ele>940.02</ele>
        <time>2021-06-23T13:58:04Z</time>
      </trkpt>
      <trkpt lat="48.04888" lon="6.98864">
        <ele>940.16</ele>
        <time>2021-06-23T13:58:05Z</time>
      </trkpt>
      <trkpt lat="48.04903" lon="6.98833">
        <ele>939.98</ele>
        <time>2021-06-23T13:58:07Z</time>
      </trkpt>
      <trkpt lat="48.0498" lon="6.98743">
        <ele>921.17</ele>
        <time>2021-06-23T13:58:09Z</time>
      </trkpt>
      <trkpt lat="48.04991" lon="6.98716">
        <ele>921.07</ele>
        <time>2021-06-23T13:58:11Z</time>
      </trkpt>
      <trkpt lat="48.04995" lon="6.98719">
        <ele>917.57</ele>
        <time>2021-06-23T13:58:13Z</time>
      </trkpt>
      <trkpt lat="48.05002" lon="6.98719">
        <ele>913.92</ele>
        <time>2021-06-23T13:58:16Z</time>
      </trkpt>
      <trkpt lat="48.05006" lon="6.98716">
        <ele>912.84</ele>
        <time>2021-06-23T13:58:18Z</time>
      </trkpt>
      <trkpt lat="48.05011" lon="6.9871">
        <ele>912.28</ele>
        <time>2021-06-23T13:58:21Z</time>
      </trkpt>
      <trkpt lat="48.05014" lon="6.98699">
        <ele>912.52</ele>
        <time>2021-06-23T13:58:23Z</time>
      </trkpt>
      <trkpt lat="48.05014" lon="6.98688">
        <ele>913.43</ele>
        <time>2021-06-23T13:58:26Z</time>
      </trkpt>
      <trkpt lat="48.05012" lon="6.98665">
        <ele>916.62</ele>
        <time>2021-06-23T13:58:29Z</time>
      </trkpt>
      <trkpt lat="48.05012" lon="6.98646">
        <ele>918.17</ele>
        <time>2021-06-23T13:58:31Z</time>
      </trkpt>
      <trkpt lat="48.05017" lon="6.98617">
        <ele>917.06</ele>
        <time>2021-06-23T13:58:34Z</time>
      </trkpt>
      <trkpt lat="48.05022" lon="6.98562">
        <ele>914.55</ele>
        <time>2021-06-23T13:58:36Z</time>
      </trkpt>
      <trkpt lat="48.05026" lon="6.9854">
        <ele>911.91</ele>
        <time>2021-06-23T13:58:39Z</time>
      </trkpt>
      <trkpt lat="48.05037" lon="6.98514">
        <ele>906.83</ele>
        <time>2021-06-23T13:58:41Z</time>
      </trkpt>
      <trkpt lat="48.05041" lon="6.98497">
        <ele>905.96</ele>
        <time>2021-06-23T13:58:44Z</time>
      </trkpt>
      <trkpt lat="48.05042" lon="6.98484">
        <ele>906.93</ele>
        <time>2021-06-23T13:58:46Z</time>
      </trkpt>
      <trkpt lat="48.0504" lon="6.98444">
        <ele>913.54</ele>
        <time>2021-06-23T13:58:49Z</time>
      </trkpt>
      <trkpt lat="48.05042" lon="6.98427">
        <ele>912.66</ele>
        <time>2021-06-23T13:58:51Z</time>
      </trkpt>
      <trkpt lat="48.05047" lon="6.98405">
        <ele>910.06</ele>
        <time>2021-06-23T13:58:54Z</time>
      </trkpt>
      <trkpt lat="48.05054" lon="6.98383">
        <ele>905.08</ele>
        <time>2021-06-23T13:58:56Z</time>
      </trkpt>
      <trkpt lat="48.05074" lon="6.98343">
        <ele>893.27</ele>
        <time>2021-06-23T13:58:59Z</time>
      </trkpt>
      <trkpt lat="48.05083" lon="6.98314">
        <ele>888.11</ele>
        <time>2021-06-23T13:59:02Z</time>
      </trkpt>
      <trkpt lat="48.05086" lon="6.98287">
        <ele>888.59</ele>
        <time>2021-06-23T13:59:04Z</time>
      </trkpt>
      <trkpt lat="48.05086" lon="6.9821">
        <ele>891.83</ele>
        <time>2021-06-23T13:59:07Z</time>
      </trkpt>
      <trkpt lat="48.05091" lon="6.98169">
        <ele>890.76</ele>
        <time>2021-06-23T13:59:09Z</time>
      </trkpt>
      <trkpt lat="48.05129" lon="6.98018">
        <ele>874.18</ele>
        <time>2021-06-23T13:59:12Z</time>
      </trkpt>
      <trkpt lat="48.0517" lon="6.97908">
        <ele>869.71</ele>
        <time>2021-06-23T13:59:14Z</time>
      </trkpt>
      <trkpt lat="48.05175" lon="6.97898">
        <ele>872.59</ele>
        <time>2021-06-23T13:59:17Z</time>
      </trkpt>
      <trkpt lat="48.05181" lon="6.97893">
        <ele>873.72</ele>
        <time>2021-06-23T13:59:19Z</time>
      </trkpt>
      <trkpt lat="48.05194" lon="6.97892">
        <ele>872.16</ele>
        <time>2021-06-23T13:59:22Z</time>
      </trkpt>
      <trkpt lat="48.05198" lon="6.97897">
        <ele>870.59</ele>
        <time>2021-06-23T13:59:24Z</time>
      </trkpt>
      <trkpt lat="48.052" lon="6.97902">
        <ele>869.22</ele>
        <time>2021-06-23T13:59:27Z</time>
      </trkpt>
      <trkpt lat="48.05202" lon="6.97913">
        <ele>866.18</ele>
        <time>2021-06-23T13:59:29Z</time>
      </trkpt>
      <trkpt lat="48.05202" lon="6.97924">
        <ele>863.93</ele>
        <time>2021-06-23T13:59:32Z</time>
      </trkpt>
      <trkpt lat="48.05186" lon="6.97974">
        <ele>860.31</ele>
        <time>2021-06-23T13:59:35Z</time>
      </trkpt>
      <trkpt lat="48.0518" lon="6.98011">
        <ele>857.24</ele>
        <time>2021-06-23T13:59:37Z</time>
      </trkpt>
      <trkpt lat="48.05181" lon="6.98032">
        <ele>855.5</ele>
        <time>2021-06-23T13:59:40Z</time>
      </trkpt>
      <trkpt lat="48.05193" lon="6.98112">
        <ele>855.25</ele>
        <time>2021-06-23T13:59:42Z</time>
      </trkpt>
      <trkpt lat="48.05192" lon="6.98141">
        <ele>855.26</ele>
        <time>2021-06-23T13:59:45Z</time>
      </trkpt>
      <trkpt lat="48.05182" lon="6.98229">
        <ele>853.65</ele>
        <time>2021-06-23T13:59:47Z</time>
      </trkpt>
      <trkpt lat="48.05179" lon="6.98335">
        <ele>852.08</ele>
        <time>2021-06-23T13:59:50Z</time>
      </trkpt>
      <trkpt lat="48.05176" lon="6.98362">
        <ele>850.34</ele>
        <time>2021-06-23T13:59:52Z</time>
      </trkpt>
      <trkpt lat="48.05172" lon="6.9838">
        <ele>850.77</ele>
        <time>2021-06-23T13:59:55Z</time>
      </trkpt>
      <trkpt lat="48.05163" lon="6.9841">
        <ele>851.06</ele>
        <time>2021-06-23T13:59:57Z</time>
      </trkpt>
      <trkpt lat="48.0516" lon="6.98428">
        <ele>851.42</ele>
        <time>2021-06-23T14:00:00Z</time>
      </trkpt>
      <trkpt lat="48.05159" lon="6.98508">
        <ele>850.84</ele>
        <time>2021-06-23T14:00:02Z</time>
      </trkpt>
      <trkpt lat="48.05165" lon="6.98587">
        <ele>839.06</ele>
        <time>2021-06-23T14:00:05Z</time>
      </trkpt>
      <trkpt lat="48.05173" lon="6.98642">
        <ele>837.28</ele>
        <time>2021-06-23T14:00:08Z</time>
      </trkpt>
      <trkpt lat="48.05186" lon="6.98697">
        <ele>831.27</ele>
        <time>2021-06-23T14:00:10Z</time>
      </trkpt>
      <trkpt lat="48.05189" lon="6.98717">
        <ele>830.29</ele>
        <time>2021-06-23T14:00:13Z</time>
      </trkpt>
      <trkpt lat="48.05189" lon="6.98768">
        <ele>830.34</ele>
        <time>2021-06-23T14:00:15Z</time>
      </trkpt>
      <trkpt lat="48.05191" lon="6.98793">
        <ele>828.85</ele>
        <time>2021-06-23T14:00:18Z</time>
      </trkpt>
      <trkpt lat="48.05197" lon="6.98815">
        <ele>826.46</ele>
        <time>2021-06-23T14:00:20Z</time>
      </trkpt>
      <trkpt lat="48.05205" lon="6.98835">
        <ele>824.39</ele>
        <time>2021-06-23T14:00:23Z</time>
      </trkpt>
      <trkpt lat="48.05246" lon="6.98884">
        <ele>822.05</ele>
        <time>2021-06-23T14:00:25Z</time>
      </trkpt>
      <trkpt lat="48.05256" lon="6.98893">
        <ele>821.9</ele>
        <time>2021-06-23T14:00:28Z</time>
      </trkpt>
      <trkpt lat="48.05269" lon="6.98899">
        <ele>821.6</ele>
        <time>2021-06-23T14:00:30Z</time>
      </trkpt>
      <trkpt lat="48.0535" lon="6.98899">
        <ele>815.42</ele>
        <time>2021-06-23T14:00:33Z</time>
      </trkpt>
      <trkpt lat="48.05378" lon="6.98894">
        <ele>813.17</ele>
        <time>2021-06-23T14:00:35Z</time>
      </trkpt>
      <trkpt lat="48.05392" lon="6.98887">
        <ele>811.84</ele>
        <time>2021-06-23T14:00:38Z</time>
      </trkpt>
      <trkpt lat="48.05408" lon="6.98877">
        <ele>810.99</ele>
        <time>2021-06-23T14:00:41Z</time>
      </trkpt>
      <trkpt lat="48.05425" lon="6.98861">
        <ele>810.15</ele>
        <time>2021-06-23T14:00:43Z</time>
      </trkpt>
      <trkpt lat="48.05474" lon="6.98796">
        <ele>800.24</ele>
        <time>2021-06-23T14:00:46Z</time>
      </trkpt>
      <trkpt lat="48.05493" lon="6.98776">
        <ele>795.49</ele>
        <time>2021-06-23T14:00:48Z</time>
      </trkpt>
      <trkpt lat="48.05505" lon="6.98766">
        <ele>794.76</ele>
        <time>2021-06-23T14:00:51Z</time>
      </trkpt>
      <trkpt lat="48.05518" lon="6.98761">
        <ele>795.07</ele>
        <time>2021-06-23T14:00:53Z</time>
      </trkpt>
      <trkpt lat="48.05538" lon="6.98758">
        <ele>795.9</ele>
        <time>2021-06-23T14:00:56Z</time>
      </trkpt>
      <trkpt lat="48.05582" lon="6.98757">
        <ele>797.57</ele>
        <time>2021-06-23T14:00:58Z</time>
      </trkpt>
      <trkpt lat="48.05606" lon="6.98747">
        <ele>797.73</ele>
        <time>2021-06-23T14:01:01Z</time>
      </trkpt>
      <trkpt lat="48.05649" lon="6.98704">
        <ele>791.68</ele>
        <time>2021-06-23T14:01:03Z</time>
      </trkpt>
      <trkpt lat="48.05695" lon="6.98663">
        <ele>784.46</ele>
        <time>2021-06-23T14:01:06Z</time>
      </trkpt>
      <trkpt lat="48.05731" lon="6.98624">
        <ele>783.68</ele>
        <time>2021-06-23T14:01:08Z</time>
      </trkpt>
      <trkpt lat="48.05775" lon="6.9858">
        <ele>782.42</ele>
        <time>2021-06-23T14:01:11Z</time>
      </trkpt>
      <trkpt lat="48.05825" lon="6.98536">
        <ele>786.16</ele>
        <time>2021-06-23T14:01:14Z</time>
      </trkpt>
      <trkpt lat="48.05846" lon="6.98514">
        <ele>787.01</ele>
        <time>2021-06-23T14:01:16Z</time>
      </trkpt>
      <trkpt lat="48.05864" lon="6.98493">
        <ele>789.93</ele>
        <time>2021-06-23T14:01:19Z</time>
      </trkpt>
      <trkpt lat="48.05898" lon="6.98446">
        <ele>795.08</ele>
        <time>2021-06-23T14:01:21Z</time>
      </trkpt>
      <trkpt lat="48.05905" lon="6.98428">
        <ele>794.7</ele>
        <time>2021-06-23T14:01:24Z</time>
      </trkpt>
      <trkpt lat="48.05909" lon="6.98411">
        <ele>794.01</ele>
        <time>2021-06-23T14:01:26Z</time>
      </trkpt>
      <trkpt lat="48.05913" lon="6.9839">
        <ele>793.22</ele>
        <time>2021-06-23T14:01:29Z</time>
      </trkpt>
      <trkpt lat="48.05915" lon="6.98366">
        <ele>793.53</ele>
        <time>2021-06-23T14:01:31Z</time>
      </trkpt>
      <trkpt lat="48.05914" lon="6.98352">
        <ele>793.74</ele>
        <time>2021-06-23T14:01:34Z</time>
      </trkpt>
      <trkpt lat="48.05912" lon="6.9834">
        <ele>793.86</ele>
        <time>2021-06-23T14:01:36Z</time>
      </trkpt>
      <trkpt lat="48.05907" lon="6.98327">
        <ele>793.34</ele>
        <time>2021-06-23T14:01:39Z</time>
      </trkpt>
      <trkpt lat="48.0588" lon="6.9829">
        <ele>791</ele>
        <time>2021-06-23T14:01:41Z</time>
      </trkpt>
      <trkpt lat="48.05878" lon="6.98282">
        <ele>790.68</ele>
        <time>2021-06-23T14:01:44Z</time>
      </trkpt>
      <trkpt lat="48.05877" lon="6.98272">
        <ele>790.26</ele>
        <time>2021-06-23T14:01:47Z</time>
      </trkpt>
      <trkpt lat="48.05882" lon="6.98255">
        <ele>789.33</ele>
        <time>2021-06-23T14:01:49Z</time>
      </trkpt>
      <trkpt lat="48.05892" lon="6.98242">
        <ele>788.96</ele>
        <time>2021-06-23T14:01:52Z</time>
      </trkpt>
      <trkpt lat="48.05928" lon="6.98219">
        <ele>794.65</ele>
        <time>2021-06-23T14:01:54Z</time>
      </trkpt>
      <trkpt lat="48.05944" lon="6.98202">
        <ele>794.37</ele>
        <time>2021-06-23T14:01:57Z</time>
      </trkpt>
      <trkpt lat="48.05968" lon="6.98161">
        <ele>789.64</ele>
        <time>2021-06-23T14:01:59Z</time>
      </trkpt>
      <trkpt lat="48.0598" lon="6.98132">
        <ele>786.02</ele>
        <time>2021-06-23T14:02:02Z</time>
      </trkpt>
      <trkpt lat="48.05991" lon="6.9811">
        <ele>783.19</ele>
        <time>2021-06-23T14:02:04Z</time>
      </trkpt>
      <trkpt lat="48.06034" lon="6.98073">
        <ele>784.13</ele>
        <time>2021-06-23T14:02:07Z</time>
      </trkpt>
      <trkpt lat="48.06043" lon="6.98061">
        <ele>784.41</ele>
        <time>2021-06-23T14:02:09Z</time>
      </trkpt>
      <trkpt lat="48.06052" lon="6.98045">
        <ele>783.54</ele>
        <time>2021-06-23T14:02:12Z</time>
      </trkpt>
      <trkpt lat="48.0606" lon="6.9801">
        <ele>779.84</ele>
        <time>2021-06-23T14:02:14Z</time>
      </trkpt>
      <trkpt lat="48.06078" lon="6.97913">
        <ele>771.74</ele>
        <time>2021-06-23T14:02:17Z</time>
      </trkpt>
      <trkpt lat="48.061" lon="6.97844">
        <ele>771.07</ele>
        <time>2021-06-23T14:02:20Z</time>
      </trkpt>
      <trkpt lat="48.06106" lon="6.97813">
        <ele>770.85</ele>
        <time>2021-06-23T14:02:22Z</time>
      </trkpt>
      <trkpt lat="48.0611" lon="6.97782">
        <ele>769.07</ele>
        <time>2021-06-23T14:02:25Z</time>
      </trkpt>
      <trkpt lat="48.06113" lon="6.97732">
        <ele>768.81</ele>
        <time>2021-06-23T14:02:27Z</time>
      </trkpt>
      <trkpt lat="48.06113" lon="6.97682">
        <ele>770.9</ele>
        <time>2021-06-23T14:02:30Z</time>
      </trkpt>
      <trkpt lat="48.06116" lon="6.97647">
        <ele>772.04</ele>
        <time>2021-06-23T14:02:32Z</time>
      </trkpt>
      <trkpt lat="48.06122" lon="6.97614">
        <ele>772.58</ele>
        <time>2021-06-23T14:02:35Z</time>
      </trkpt>
      <trkpt lat="48.06145" lon="6.9754">
        <ele>772.36</ele>
        <time>2021-06-23T14:02:37Z</time>
      </trkpt>
      <trkpt lat="48.06151" lon="6.97517">
        <ele>773.89</ele>
        <time>2021-06-23T14:02:40Z</time>
      </trkpt>
      <trkpt lat="48.06154" lon="6.97493">
        <ele>775.03</ele>
        <time>2021-06-23T14:02:42Z</time>
      </trkpt>
      <trkpt lat="48.06155" lon="6.97428">
        <ele>774.84</ele>
        <time>2021-06-23T14:02:45Z</time>
      </trkpt>
      <trkpt lat="48.06152" lon="6.97363">
        <ele>775.43</ele>
        <time>2021-06-23T14:02:47Z</time>
      </trkpt>
      <trkpt lat="48.06159" lon="6.97283">
        <ele>768.1</ele>
        <time>2021-06-23T14:02:50Z</time>
      </trkpt>
      <trkpt lat="48.06166" lon="6.97185">
        <ele>764.75</ele>
        <time>2021-06-23T14:02:53Z</time>
      </trkpt>
      <trkpt lat="48.06171" lon="6.97144">
        <ele>764.89</ele>
        <time>2021-06-23T14:02:55Z</time>
      </trkpt>
      <trkpt lat="48.06178" lon="6.97116">
        <ele>763.91</ele>
        <time>2021-06-23T14:02:58Z</time>
      </trkpt>
      <trkpt lat="48.062" lon="6.97049">
        <ele>762.13</ele>
        <time>2021-06-23T14:03:00Z</time>
      </trkpt>
      <trkpt lat="48.06243" lon="6.96937">
        <ele>757.12</ele>
        <time>2021-06-23T14:03:03Z</time>
      </trkpt>
      <trkpt lat="48.06272" lon="6.96855">
        <ele>756.97</ele>
        <time>2021-06-23T14:03:05Z</time>
      </trkpt>
      <trkpt lat="48.0628" lon="6.96825">
        <ele>756.78</ele>
        <time>2021-06-23T14:03:08Z</time>
      </trkpt>
      <trkpt lat="48.06284" lon="6.96799">
        <ele>756.12</ele>
        <time>2021-06-23T14:03:10Z</time>
      </trkpt>
      <trkpt lat="48.06295" lon="6.96707">
        <ele>757.6</ele>
        <time>2021-06-23T14:03:13Z</time>
      </trkpt>
      <trkpt lat="48.06295" lon="6.96681">
        <ele>756.09</ele>
        <time>2021-06-23T14:03:15Z</time>
      </trkpt>
      <trkpt lat="48.06292" lon="6.96639">
        <ele>753.55</ele>
        <time>2021-06-23T14:03:18Z</time>
      </trkpt>
      <trkpt lat="48.06292" lon="6.96578">
        <ele>753.3</ele>
        <time>2021-06-23T14:03:20Z</time>
      </trkpt>
      <trkpt lat="48.06295" lon="6.96548">
        <ele>752.42</ele>
        <time>2021-06-23T14:03:23Z</time>
      </trkpt>
      <trkpt lat="48.06306" lon="6.9649">
        <ele>752.67</ele>
        <time>2021-06-23T14:03:26Z</time>
      </trkpt>
      <trkpt lat="48.06315" lon="6.96456">
        <ele>752.21</ele>
        <time>2021-06-23T14:03:28Z</time>
      </trkpt>
      <trkpt lat="48.0634" lon="6.96388">
        <ele>749.63</ele>
        <time>2021-06-23T14:03:31Z</time>
      </trkpt>
      <trkpt lat="48.06367" lon="6.96339">
        <ele>747.04</ele>
        <time>2021-06-23T14:03:33Z</time>
      </trkpt>
      <trkpt lat="48.06417" lon="6.96252">
        <ele>745.23</ele>
        <time>2021-06-23T14:03:36Z</time>
      </trkpt>
      <trkpt lat="48.06461" lon="6.96183">
        <ele>744.48</ele>
        <time>2021-06-23T14:03:38Z</time>
      </trkpt>
      <trkpt lat="48.06526" lon="6.96102">
        <ele>747.38</ele>
        <time>2021-06-23T14:03:41Z</time>
      </trkpt>
      <trkpt lat="48.06551" lon="6.96063">
        <ele>749.28</ele>
        <time>2021-06-23T14:03:43Z</time>
      </trkpt>
      <trkpt lat="48.06577" lon="6.9603">
        <ele>752.65</ele>
        <time>2021-06-23T14:03:46Z</time>
      </trkpt>
      <trkpt lat="48.06602" lon="6.96001">
        <ele>751.13</ele>
        <time>2021-06-23T14:03:48Z</time>
      </trkpt>
      <trkpt lat="48.06656" lon="6.95956">
        <ele>749.92</ele>
        <time>2021-06-23T14:03:51Z</time>
      </trkpt>
      <trkpt lat="48.06668" lon="6.95942">
        <ele>748.97</ele>
        <time>2021-06-23T14:03:53Z</time>
      </trkpt>
      <trkpt lat="48.06743" lon="6.95817">
        <ele>750.13</ele>
        <time>2021-06-23T14:03:56Z</time>
      </trkpt>
      <trkpt lat="48.06786" lon="6.95756">
        <ele>749.17</ele>
        <time>2021-06-23T14:03:58Z</time>
      </trkpt>
      <trkpt lat="48.06839" lon="6.95696">
        <ele>748.33</ele>
        <time>2021-06-23T14:04:01Z</time>
      </trkpt>
      <trkpt lat="48.06858" lon="6.95665">
        <ele>747.5</ele>
        <time>2021-06-23T14:04:04Z</time>
      </trkpt>
      <trkpt lat="48.06876" lon="6.95642">
        <ele>750.86</ele>
        <time>2021-06-23T14:04:06Z</time>
      </trkpt>
      <trkpt lat="48.06928" lon="6.956">
        <ele>752.45</ele>
        <time>2021-06-23T14:04:09Z</time>
      </trkpt>
      <trkpt lat="48.06989" lon="6.95537">
        <ele>754.38</ele>
        <time>2021-06-23T14:04:11Z</time>
      </trkpt>
      <trkpt lat="48.0707" lon="6.95435">
        <ele>756.71</ele>
        <time>2021-06-23T14:04:14Z</time>
      </trkpt>
      <trkpt lat="48.07237" lon="6.95275">
        <ele>755.99</ele>
        <time>2021-06-23T14:04:16Z</time>
      </trkpt>
      <trkpt lat="48.07274" lon="6.95228">
        <ele>752.99</ele>
        <time>2021-06-23T14:04:19Z</time>
      </trkpt>
      <trkpt lat="48.07289" lon="6.95217">
        <ele>753.76</ele>
        <time>2021-06-23T14:04:21Z</time>
      </trkpt>
      <trkpt lat="48.07408" lon="6.95138">
        <ele>748.93</ele>
        <time>2021-06-23T14:04:24Z</time>
      </trkpt>
      <trkpt lat="48.0744" lon="6.95124">
        <ele>754.49</ele>
        <time>2021-06-23T14:04:26Z</time>
      </trkpt>
      <trkpt lat="48.07483" lon="6.9509">
        <ele>751.54</ele>
        <time>2021-06-23T14:04:29Z</time>
      </trkpt>
      <trkpt lat="48.07514" lon="6.9508">
        <ele>750</ele>
        <time>2021-06-23T14:04:31Z</time>
      </trkpt>
      <trkpt lat="48.07554" lon="6.95085">
        <ele>750.75</ele>
        <time>2021-06-23T14:04:34Z</time>
      </trkpt>
      <trkpt lat="48.07587" lon="6.95078">
        <ele>749.13</ele>
        <time>2021-06-23T14:04:37Z</time>
      </trkpt>
      <trkpt lat="48.07635" lon="6.95055">
        <ele>749.78</ele>
        <time>2021-06-23T14:04:39Z</time>
      </trkpt>
      <trkpt lat="48.07678" lon="6.95042">
        <ele>757.22</ele>
        <time>2021-06-23T14:04:42Z</time>
      </trkpt>
      <trkpt lat="48.07723" lon="6.95022">
        <ele>756</ele>
        <time>2021-06-23T14:04:44Z</time>
      </trkpt>
      <trkpt lat="48.07771" lon="6.95005">
        <ele>757.71</ele>
        <time>2021-06-23T14:04:47Z</time>
      </trkpt>
      <trkpt lat="48.07811" lon="6.94984">
        <ele>754.74</ele>
        <time>2021-06-23T14:04:49Z</time>
      </trkpt>
      <trkpt lat="48.07833" lon="6.9497">
        <ele>753.61</ele>
        <time>2021-06-23T14:04:52Z</time>
      </trkpt>
      <trkpt lat="48.07862" lon="6.94943">
        <ele>750.78</ele>
        <time>2021-06-23T14:04:54Z</time>
      </trkpt>
      <trkpt lat="48.07927" lon="6.94896">
        <ele>752.06</ele>
        <time>2021-06-23T14:04:57Z</time>
      </trkpt>
      <trkpt lat="48.08012" lon="6.9481">
        <ele>750.21</ele>
        <time>2021-06-23T14:04:59Z</time>
      </trkpt>
      <trkpt lat="48.08029" lon="6.94795">
        <ele>749.87</ele>
        <time>2021-06-23T14:05:02Z</time>
      </trkpt>
      <trkpt lat="48.08048" lon="6.94785">
        <ele>749.86</ele>
        <time>2021-06-23T14:05:04Z</time>
      </trkpt>
      <trkpt lat="48.08222" lon="6.94716">
        <ele>744.79</ele>
        <time>2021-06-23T14:05:07Z</time>
      </trkpt>
      <trkpt lat="48.08234" lon="6.94716">
        <ele>744.77</ele>
        <time>2021-06-23T14:05:10Z</time>
      </trkpt>
      <trkpt lat="48.08246" lon="6.94726">
        <ele>745.39</ele>
        <time>2021-06-23T14:05:12Z</time>
      </trkpt>
      <trkpt lat="48.08255" lon="6.94747">
        <ele>747.8</ele>
        <time>2021-06-23T14:05:15Z</time>
      </trkpt>
      <trkpt lat="48.08257" lon="6.94755">
        <ele>748.99</ele>
        <time>2021-06-23T14:05:17Z</time>
      </trkpt>
      <trkpt lat="48.08268" lon="6.94746">
        <ele>748.13</ele>
        <time>2021-06-23T14:05:27Z</time>
      </trkpt>
      <trkpt lat="48.08292" lon="6.94719">
        <ele>745.82</ele>
        <time>2021-06-23T14:05:36Z</time>
      </trkpt>
      <trkpt lat="48.08306" lon="6.94697">
        <ele>745.2</ele>
        <time>2021-06-23T14:05:45Z</time>
      </trkpt>
      <trkpt lat="48.08317" lon="6.94662">
        <ele>745.37</ele>
        <time>2021-06-23T14:05:54Z</time>
      </trkpt>
      <trkpt lat="48.08321" lon="6.94642">
        <ele>746.08</ele>
        <time>2021-06-23T14:06:04Z</time>
      </trkpt>
      <trkpt lat="48.08323" lon="6.94598">
        <ele>746.53</ele>
        <time>2021-06-23T14:06:13Z</time>
      </trkpt>
      <trkpt lat="48.0831" lon="6.94487">
        <ele>748.52</ele>
        <time>2021-06-23T14:06:22Z</time>
      </trkpt>
      <trkpt lat="48.08312" lon="6.94414">
        <ele>747.72</ele>
        <time>2021-06-23T14:06:32Z</time>
      </trkpt>
      <trkpt lat="48.0835" lon="6.9373">
        <ele>733.76</ele>
        <time>2021-06-23T14:06:41Z</time>
      </trkpt>
      <trkpt lat="48.08381" lon="6.93299">
        <ele>726.28</ele>
        <time>2021-06-23T14:06:50Z</time>
      </trkpt>
      <trkpt lat="48.08392" lon="6.93125">
        <ele>730.16</ele>
        <time>2021-06-23T14:07:00Z</time>
      </trkpt>
      <trkpt lat="48.08399" lon="6.92975">
        <ele>726.57</ele>
        <time>2021-06-23T14:07:09Z</time>
      </trkpt>
      <trkpt lat="48.08399" lon="6.92929">
        <ele>725.7</ele>
        <time>2021-06-23T14:07:18Z</time>
      </trkpt>
      <trkpt lat="48.08396" lon="6.9288">
        <ele>724.47</ele>
        <time>2021-06-23T14:07:28Z</time>
      </trkpt>
      <trkpt lat="48.0839" lon="6.92817">
        <ele>723.16</ele>
        <time>2021-06-23T14:07:37Z</time>
      </trkpt>
      <trkpt lat="48.08385" lon="6.92705">
        <ele>723.7</ele>
        <time>2021-06-23T14:07:46Z</time>
      </trkpt>
      <trkpt lat="48.08377" lon="6.92651">
        <ele>721.84</ele>
        <time>2021-06-23T14:07:55Z</time>
      </trkpt>
      <trkpt lat="48.08433" lon="6.92655">
        <ele>728.55</ele>
        <time>2021-06-23T14:07:59Z</time>
      </trkpt>
      <trkpt lat="48.08468" lon="6.92661">
        <ele>730.8</ele>
        <time>2021-06-23T14:08:03Z</time>
      </trkpt>
      <trkpt lat="48.08474" lon="6.92658">
        <ele>731.13</ele>
        <time>2021-06-23T14:08:06Z</time>
      </trkpt>
      <trkpt lat="48.08478" lon="6.92652">
        <ele>731.41</ele>
        <time>2021-06-23T14:08:10Z</time>
      </trkpt>
      <trkpt lat="48.0848" lon="6.92644">
        <ele>731.57</ele>
        <time>2021-06-23T14:08:14Z</time>
      </trkpt>
      <trkpt lat="48.08479" lon="6.92636">
        <ele>731.81</ele>
        <time>2021-06-23T14:08:17Z</time>
      </trkpt>
      <trkpt lat="48.08476" lon="6.9263">
        <ele>732.3</ele>
        <time>2021-06-23T14:08:21Z</time>
      </trkpt>
      <trkpt lat="48.08459" lon="6.9261">
        <ele>732.73</ele>
        <time>2021-06-23T14:08:25Z</time>
      </trkpt>
      <trkpt lat="48.08457" lon="6.92599">
        <ele>733.86</ele>
        <time>2021-06-23T14:08:28Z</time>
      </trkpt>
      <trkpt lat="48.08458" lon="6.9259">
        <ele>735.16</ele>
        <time>2021-06-23T14:08:32Z</time>
      </trkpt>
      <trkpt lat="48.08462" lon="6.92582">
        <ele>736.5</ele>
        <time>2021-06-23T14:08:36Z</time>
      </trkpt>
      <trkpt lat="48.08473" lon="6.92568">
        <ele>738.06</ele>
        <time>2021-06-23T14:08:39Z</time>
      </trkpt>
      <trkpt lat="48.08482" lon="6.92561">
        <ele>739.02</ele>
        <time>2021-06-23T14:08:43Z</time>
      </trkpt>
      <trkpt lat="48.08555" lon="6.92534">
        <ele>743.43</ele>
        <time>2021-06-23T14:08:47Z</time>
      </trkpt>
      <trkpt lat="48.08589" lon="6.92528">
        <ele>747.19</ele>
        <time>2021-06-23T14:08:50Z</time>
      </trkpt>
      <trkpt lat="48.08609" lon="6.92541">
        <ele>752.4</ele>
        <time>2021-06-23T14:08:54Z</time>
      </trkpt>
      <trkpt lat="48.08621" lon="6.92557">
        <ele>755.1</ele>
        <time>2021-06-23T14:08:57Z</time>
      </trkpt>
      <trkpt lat="48.08634" lon="6.92577">
        <ele>755.23</ele>
        <time>2021-06-23T14:09:01Z</time>
      </trkpt>
    </trkseg>
  </trk>
  <trk>
    <name><![CDATA[2021-06-15_09-33_Tue]]></name>
    <extensions>
      <line xmlns="http://www.topografix.com/GPX/gpx_style/0/2">
        <color>00FF00</color>
        <width>4</width>
      </line>
    </extensions>
    <trkseg>
      <trkpt lat="48.0864" lon="6.92556">
        <ele>758.32</ele>
        <time>2021-06-23T10:04:33Z</time>
      </trkpt>
      <trkpt lat="48.0864" lon="6.92556">
        <ele>758.32</ele>
        <time>2021-06-23T10:04:33Z</time>
      </trkpt>
      <trkpt lat="48.08627" lon="6.92547">
        <ele>756.28</ele>
        <time>2021-06-23T10:04:37Z</time>
      </trkpt>
      <trkpt lat="48.08609" lon="6.92541">
        <ele>752.4</ele>
        <time>2021-06-23T10:04:41Z</time>
      </trkpt>
      <trkpt lat="48.08589" lon="6.92528">
        <ele>747.19</ele>
        <time>2021-06-23T10:04:44Z</time>
      </trkpt>
      <trkpt lat="48.08555" lon="6.92534">
        <ele>743.43</ele>
        <time>2021-06-23T10:04:48Z</time>
      </trkpt>
      <trkpt lat="48.08482" lon="6.92561">
        <ele>739.02</ele>
        <time>2021-06-23T10:04:51Z</time>
      </trkpt>
      <trkpt lat="48.08473" lon="6.92568">
        <ele>738.06</ele>
        <time>2021-06-23T10:04:55Z</time>
      </trkpt>
      <trkpt lat="48.08462" lon="6.92582">
        <ele>736.5</ele>
        <time>2021-06-23T10:04:59Z</time>
      </trkpt>
      <trkpt lat="48.08458" lon="6.9259">
        <ele>735.16</ele>
        <time>2021-06-23T10:05:02Z</time>
      </trkpt>
      <trkpt lat="48.08457" lon="6.92599">
        <ele>733.86</ele>
        <time>2021-06-23T10:05:06Z</time>
      </trkpt>
      <trkpt lat="48.08459" lon="6.9261">
        <ele>732.73</ele>
        <time>2021-06-23T10:05:10Z</time>
      </trkpt>
      <trkpt lat="48.08476" lon="6.9263">
        <ele>732.3</ele>
        <time>2021-06-23T10:05:13Z</time>
      </trkpt>
      <trkpt lat="48.08479" lon="6.92636">
        <ele>731.81</ele>
        <time>2021-06-23T10:05:17Z</time>
      </trkpt>
      <trkpt lat="48.0848" lon="6.92644">
        <ele>731.57</ele>
        <time>2021-06-23T10:05:20Z</time>
      </trkpt>
      <trkpt lat="48.08478" lon="6.92652">
        <ele>731.41</ele>
        <time>2021-06-23T10:05:24Z</time>
      </trkpt>
      <trkpt lat="48.08474" lon="6.92658">
        <ele>731.13</ele>
        <time>2021-06-23T10:05:28Z</time>
      </trkpt>
      <trkpt lat="48.08468" lon="6.92661">
        <ele>730.8</ele>
        <time>2021-06-23T10:05:31Z</time>
      </trkpt>
      <trkpt lat="48.08433" lon="6.92655">
        <ele>728.55</ele>
        <time>2021-06-23T10:05:35Z</time>
      </trkpt>
      <trkpt lat="48.08377" lon="6.92651">
        <ele>721.84</ele>
        <time>2021-06-23T10:05:38Z</time>
      </trkpt>
      <trkpt lat="48.08365" lon="6.92602">
        <ele>720.9</ele>
        <time>2021-06-23T10:05:43Z</time>
      </trkpt>
      <trkpt lat="48.08322" lon="6.92488">
        <ele>716.48</ele>
        <time>2021-06-23T10:05:48Z</time>
      </trkpt>
      <trkpt lat="48.08312" lon="6.92452">
        <ele>715.09</ele>
        <time>2021-06-23T10:05:53Z</time>
      </trkpt>
      <trkpt lat="48.08305" lon="6.92417">
        <ele>714.97</ele>
        <time>2021-06-23T10:05:58Z</time>
      </trkpt>
      <trkpt lat="48.08303" lon="6.92397">
        <ele>714.92</ele>
        <time>2021-06-23T10:06:03Z</time>
      </trkpt>
      <trkpt lat="48.08304" lon="6.92343">
        <ele>713.32</ele>
        <time>2021-06-23T10:06:08Z</time>
      </trkpt>
      <trkpt lat="48.08312" lon="6.92284">
        <ele>711.41</ele>
        <time>2021-06-23T10:06:13Z</time>
      </trkpt>
      <trkpt lat="48.08332" lon="6.9217">
        <ele>715.84</ele>
        <time>2021-06-23T10:06:18Z</time>
      </trkpt>
      <trkpt lat="48.08337" lon="6.92132">
        <ele>716.33</ele>
        <time>2021-06-23T10:06:23Z</time>
      </trkpt>
      <trkpt lat="48.08351" lon="6.91858">
        <ele>709.28</ele>
        <time>2021-06-23T10:06:28Z</time>
      </trkpt>
      <trkpt lat="48.08356" lon="6.91795">
        <ele>712.71</ele>
        <time>2021-06-23T10:06:33Z</time>
      </trkpt>
      <trkpt lat="48.08362" lon="6.9175">
        <ele>715.12</ele>
        <time>2021-06-23T10:06:38Z</time>
      </trkpt>
      <trkpt lat="48.08369" lon="6.91717">
        <ele>714.53</ele>
        <time>2021-06-23T10:06:43Z</time>
      </trkpt>
      <trkpt lat="48.08389" lon="6.91645">
        <ele>709.99</ele>
        <time>2021-06-23T10:06:48Z</time>
      </trkpt>
      <trkpt lat="48.08401" lon="6.91553">
        <ele>710.58</ele>
        <time>2021-06-23T10:06:53Z</time>
      </trkpt>
      <trkpt lat="48.08411" lon="6.91448">
        <ele>706.06</ele>
        <time>2021-06-23T10:06:58Z</time>
      </trkpt>
      <trkpt lat="48.08419" lon="6.91389">
        <ele>705.56</ele>
        <time>2021-06-23T10:07:03Z</time>
      </trkpt>
      <trkpt lat="48.08451" lon="6.91251">
        <ele>705.41</ele>
        <time>2021-06-23T10:07:08Z</time>
      </trkpt>
      <trkpt lat="48.08479" lon="6.91158">
        <ele>706.53</ele>
        <time>2021-06-23T10:07:13Z</time>
      </trkpt>
      <trkpt lat="48.08484" lon="6.91126">
        <ele>705.27</ele>
        <time>2021-06-23T10:07:18Z</time>
      </trkpt>
      <trkpt lat="48.08486" lon="6.91077">
        <ele>703.46</ele>
        <time>2021-06-23T10:07:22Z</time>
      </trkpt>
      <trkpt lat="48.08495" lon="6.9102">
        <ele>699.06</ele>
        <time>2021-06-23T10:07:27Z</time>
      </trkpt>
      <trkpt lat="48.085" lon="6.91016">
        <ele>700.08</ele>
        <time>2021-06-23T10:07:30Z</time>
      </trkpt>
      <trkpt lat="48.08503" lon="6.9101">
        <ele>700.72</ele>
        <time>2021-06-23T10:07:33Z</time>
      </trkpt>
      <trkpt lat="48.08505" lon="6.91001">
        <ele>700.77</ele>
        <time>2021-06-23T10:07:36Z</time>
      </trkpt>
      <trkpt lat="48.08505" lon="6.90994">
        <ele>700.59</ele>
        <time>2021-06-23T10:07:39Z</time>
      </trkpt>
      <trkpt lat="48.085" lon="6.90981">
        <ele>698.88</ele>
        <time>2021-06-23T10:07:42Z</time>
      </trkpt>
      <trkpt lat="48.08499" lon="6.90965">
        <ele>698.98</ele>
        <time>2021-06-23T10:07:45Z</time>
      </trkpt>
      <trkpt lat="48.08503" lon="6.90933">
        <ele>702.59</ele>
        <time>2021-06-23T10:07:48Z</time>
      </trkpt>
      <trkpt lat="48.08515" lon="6.90871">
        <ele>711.41</ele>
        <time>2021-06-23T10:07:51Z</time>
      </trkpt>
      <trkpt lat="48.08522" lon="6.90841">
        <ele>713.04</ele>
        <time>2021-06-23T10:07:53Z</time>
      </trkpt>
      <trkpt lat="48.08535" lon="6.90811">
        <ele>715.63</ele>
        <time>2021-06-23T10:07:56Z</time>
      </trkpt>
      <trkpt lat="48.08552" lon="6.90781">
        <ele>717.84</ele>
        <time>2021-06-23T10:07:59Z</time>
      </trkpt>
      <trkpt lat="48.08589" lon="6.90726">
        <ele>718.23</ele>
        <time>2021-06-23T10:08:02Z</time>
      </trkpt>
      <trkpt lat="48.08651" lon="6.90597">
        <ele>724.13</ele>
        <time>2021-06-23T10:08:05Z</time>
      </trkpt>
      <trkpt lat="48.08673" lon="6.90562">
        <ele>724.44</ele>
        <time>2021-06-23T10:08:08Z</time>
      </trkpt>
      <trkpt lat="48.08716" lon="6.90518">
        <ele>732.53</ele>
        <time>2021-06-23T10:08:11Z</time>
      </trkpt>
      <trkpt lat="48.08735" lon="6.90495">
        <ele>734.23</ele>
        <time>2021-06-23T10:08:14Z</time>
      </trkpt>
      <trkpt lat="48.08751" lon="6.9047">
        <ele>734.93</ele>
        <time>2021-06-23T10:08:16Z</time>
      </trkpt>
      <trkpt lat="48.08784" lon="6.90407">
        <ele>733.2</ele>
        <time>2021-06-23T10:08:19Z</time>
      </trkpt>
      <trkpt lat="48.08807" lon="6.90373">
        <ele>738.89</ele>
        <time>2021-06-23T10:08:22Z</time>
      </trkpt>
      <trkpt lat="48.08871" lon="6.90298">
        <ele>743.55</ele>
        <time>2021-06-23T10:08:25Z</time>
      </trkpt>
      <trkpt lat="48.08905" lon="6.90262">
        <ele>751.33</ele>
        <time>2021-06-23T10:08:28Z</time>
      </trkpt>
      <trkpt lat="48.08948" lon="6.90227">
        <ele>754.55</ele>
        <time>2021-06-23T10:08:31Z</time>
      </trkpt>
      <trkpt lat="48.08978" lon="6.90209">
        <ele>755.91</ele>
        <time>2021-06-23T10:08:34Z</time>
      </trkpt>
      <trkpt lat="48.09009" lon="6.90199">
        <ele>757.72</ele>
        <time>2021-06-23T10:08:37Z</time>
      </trkpt>
      <trkpt lat="48.09135" lon="6.90166">
        <ele>762.49</ele>
        <time>2021-06-23T10:08:40Z</time>
      </trkpt>
      <trkpt lat="48.09334" lon="6.90141">
        <ele>774.1</ele>
        <time>2021-06-23T10:08:42Z</time>
      </trkpt>
      <trkpt lat="48.09334" lon="6.90141">
        <ele>774.1</ele>
        <time>2021-06-23T10:08:42Z</time>
      </trkpt>
      <trkpt lat="48.09358" lon="6.90143">
        <ele>773.09</ele>
        <time>2021-06-23T10:08:47Z</time>
      </trkpt>
      <trkpt lat="48.09386" lon="6.90152">
        <ele>773.06</ele>
        <time>2021-06-23T10:08:51Z</time>
      </trkpt>
      <trkpt lat="48.09412" lon="6.90165">
        <ele>773.98</ele>
        <time>2021-06-23T10:08:55Z</time>
      </trkpt>
      <trkpt lat="48.09485" lon="6.90212">
        <ele>782.65</ele>
        <time>2021-06-23T10:09:00Z</time>
      </trkpt>
      <trkpt lat="48.09536" lon="6.90241">
        <ele>788.96</ele>
        <time>2021-06-23T10:09:04Z</time>
      </trkpt>
      <trkpt lat="48.09645" lon="6.90291">
        <ele>796.65</ele>
        <time>2021-06-23T10:09:08Z</time>
      </trkpt>
      <trkpt lat="48.09671" lon="6.90307">
        <ele>798.59</ele>
        <time>2021-06-23T10:09:13Z</time>
      </trkpt>
      <trkpt lat="48.09696" lon="6.90325">
        <ele>802.53</ele>
        <time>2021-06-23T10:09:17Z</time>
      </trkpt>
      <trkpt lat="48.09726" lon="6.90361">
        <ele>806.18</ele>
        <time>2021-06-23T10:09:21Z</time>
      </trkpt>
      <trkpt lat="48.09785" lon="6.90442">
        <ele>805.13</ele>
        <time>2021-06-23T10:09:26Z</time>
      </trkpt>
      <trkpt lat="48.09826" lon="6.9049">
        <ele>799.55</ele>
        <time>2021-06-23T10:09:30Z</time>
      </trkpt>
      <trkpt lat="48.09849" lon="6.90508">
        <ele>798.71</ele>
        <time>2021-06-23T10:09:34Z</time>
      </trkpt>
      <trkpt lat="48.09868" lon="6.90517">
        <ele>797.75</ele>
        <time>2021-06-23T10:09:39Z</time>
      </trkpt>
      <trkpt lat="48.09895" lon="6.90522">
        <ele>797.2</ele>
        <time>2021-06-23T10:09:43Z</time>
      </trkpt>
      <trkpt lat="48.10015" lon="6.90525">
        <ele>802.12</ele>
        <time>2021-06-23T10:09:47Z</time>
      </trkpt>
      <trkpt lat="48.10155" lon="6.90545">
        <ele>809.28</ele>
        <time>2021-06-23T10:09:52Z</time>
      </trkpt>
      <trkpt lat="48.10245" lon="6.90543">
        <ele>809.89</ele>
        <time>2021-06-23T10:09:56Z</time>
      </trkpt>
      <trkpt lat="48.10282" lon="6.90546">
        <ele>808.45</ele>
        <time>2021-06-23T10:10:00Z</time>
      </trkpt>
      <trkpt lat="48.1031" lon="6.90552">
        <ele>808.38</ele>
        <time>2021-06-23T10:10:05Z</time>
      </trkpt>
      <trkpt lat="48.10338" lon="6.90567">
        <ele>807.59</ele>
        <time>2021-06-23T10:10:09Z</time>
      </trkpt>
      <trkpt lat="48.10361" lon="6.90586">
        <ele>806.87</ele>
        <time>2021-06-23T10:10:13Z</time>
      </trkpt>
      <trkpt lat="48.10432" lon="6.90664">
        <ele>811.53</ele>
        <time>2021-06-23T10:10:18Z</time>
      </trkpt>
      <trkpt lat="48.10468" lon="6.907">
        <ele>808.47</ele>
        <time>2021-06-23T10:10:22Z</time>
      </trkpt>
      <trkpt lat="48.10484" lon="6.90713">
        <ele>808.39</ele>
        <time>2021-06-23T10:10:26Z</time>
      </trkpt>
      <trkpt lat="48.10508" lon="6.90725">
        <ele>809.22</ele>
        <time>2021-06-23T10:10:31Z</time>
      </trkpt>
      <trkpt lat="48.10658" lon="6.90762">
        <ele>806.21</ele>
        <time>2021-06-23T10:10:35Z</time>
      </trkpt>
      <trkpt lat="48.10688" lon="6.90773">
        <ele>804.71</ele>
        <time>2021-06-23T10:10:39Z</time>
      </trkpt>
      <trkpt lat="48.10765" lon="6.90817">
        <ele>801.81</ele>
        <time>2021-06-23T10:10:44Z</time>
      </trkpt>
      <trkpt lat="48.1079" lon="6.90824">
        <ele>803.97</ele>
        <time>2021-06-23T10:10:48Z</time>
      </trkpt>
      <trkpt lat="48.10845" lon="6.90825">
        <ele>802.91</ele>
        <time>2021-06-23T10:10:52Z</time>
      </trkpt>
      <trkpt lat="48.10875" lon="6.90831">
        <ele>802.95</ele>
        <time>2021-06-23T10:10:57Z</time>
      </trkpt>
      <trkpt lat="48.10965" lon="6.90859">
        <ele>799.32</ele>
        <time>2021-06-23T10:11:01Z</time>
      </trkpt>
      <trkpt lat="48.11039" lon="6.90894">
        <ele>796.71</ele>
        <time>2021-06-23T10:11:05Z</time>
      </trkpt>
      <trkpt lat="48.11075" lon="6.90915">
        <ele>789.61</ele>
        <time>2021-06-23T10:11:10Z</time>
      </trkpt>
      <trkpt lat="48.11094" lon="6.90932">
        <ele>790.29</ele>
        <time>2021-06-23T10:11:14Z</time>
      </trkpt>
      <trkpt lat="48.1113" lon="6.90976">
        <ele>791.53</ele>
        <time>2021-06-23T10:11:18Z</time>
      </trkpt>
      <trkpt lat="48.11144" lon="6.90997">
        <ele>793.52</ele>
        <time>2021-06-23T10:11:23Z</time>
      </trkpt>
      <trkpt lat="48.1117" lon="6.91016">
        <ele>793.52</ele>
        <time>2021-06-23T10:11:27Z</time>
      </trkpt>
      <trkpt lat="48.11195" lon="6.9103">
        <ele>791.23</ele>
        <time>2021-06-23T10:11:32Z</time>
      </trkpt>
      <trkpt lat="48.11264" lon="6.91078">
        <ele>782.43</ele>
        <time>2021-06-23T10:11:36Z</time>
      </trkpt>
      <trkpt lat="48.11278" lon="6.91086">
        <ele>781.76</ele>
        <time>2021-06-23T10:11:40Z</time>
      </trkpt>
      <trkpt lat="48.11294" lon="6.91091">
        <ele>784.01</ele>
        <time>2021-06-23T10:11:45Z</time>
      </trkpt>
      <trkpt lat="48.11321" lon="6.91093">
        <ele>786.1</ele>
        <time>2021-06-23T10:11:49Z</time>
      </trkpt>
      <trkpt lat="48.11347" lon="6.91087">
        <ele>785.25</ele>
        <time>2021-06-23T10:11:53Z</time>
      </trkpt>
      <trkpt lat="48.11386" lon="6.91072">
        <ele>777.74</ele>
        <time>2021-06-23T10:11:58Z</time>
      </trkpt>
      <trkpt lat="48.1145" lon="6.91054">
        <ele>772.38</ele>
        <time>2021-06-23T10:12:02Z</time>
      </trkpt>
      <trkpt lat="48.11538" lon="6.91034">
        <ele>775.13</ele>
        <time>2021-06-23T10:12:06Z</time>
      </trkpt>
      <trkpt lat="48.11579" lon="6.91035">
        <ele>775.42</ele>
        <time>2021-06-23T10:12:11Z</time>
      </trkpt>
      <trkpt lat="48.11881" lon="6.91089">
        <ele>767.27</ele>
        <time>2021-06-23T10:12:15Z</time>
      </trkpt>
      <trkpt lat="48.12286" lon="6.91273">
        <ele>757.23</ele>
        <time>2021-06-23T10:12:19Z</time>
      </trkpt>
      <trkpt lat="48.12328" lon="6.91294">
        <ele>754.37</ele>
        <time>2021-06-23T10:12:24Z</time>
      </trkpt>
      <trkpt lat="48.1247" lon="6.91398">
        <ele>753.63</ele>
        <time>2021-06-23T10:12:28Z</time>
      </trkpt>
      <trkpt lat="48.12593" lon="6.91477">
        <ele>741.99</ele>
        <time>2021-06-23T10:12:32Z</time>
      </trkpt>
      <trkpt lat="48.12615" lon="6.91484">
        <ele>738.91</ele>
        <time>2021-06-23T10:12:37Z</time>
      </trkpt>
      <trkpt lat="48.12678" lon="6.91493">
        <ele>734.24</ele>
        <time>2021-06-23T10:12:41Z</time>
      </trkpt>
      <trkpt lat="48.12714" lon="6.915">
        <ele>729.78</ele>
        <time>2021-06-23T10:12:45Z</time>
      </trkpt>
      <trkpt lat="48.1274" lon="6.91509">
        <ele>727.57</ele>
        <time>2021-06-23T10:12:50Z</time>
      </trkpt>
      <trkpt lat="48.12767" lon="6.91521">
        <ele>726.46</ele>
        <time>2021-06-23T10:12:54Z</time>
      </trkpt>
      <trkpt lat="48.12857" lon="6.91581">
        <ele>723.38</ele>
        <time>2021-06-23T10:12:58Z</time>
      </trkpt>
      <trkpt lat="48.12971" lon="6.91641">
        <ele>720.71</ele>
        <time>2021-06-23T10:13:03Z</time>
      </trkpt>
      <trkpt lat="48.12993" lon="6.9165">
        <ele>722</ele>
        <time>2021-06-23T10:13:07Z</time>
      </trkpt>
      <trkpt lat="48.13017" lon="6.91656">
        <ele>724.46</ele>
        <time>2021-06-23T10:13:11Z</time>
      </trkpt>
      <trkpt lat="48.13052" lon="6.91655">
        <ele>724.75</ele>
        <time>2021-06-23T10:13:16Z</time>
      </trkpt>
      <trkpt lat="48.13077" lon="6.91649">
        <ele>722.82</ele>
        <time>2021-06-23T10:13:20Z</time>
      </trkpt>
      <trkpt lat="48.13234" lon="6.91588">
        <ele>712.62</ele>
        <time>2021-06-23T10:13:24Z</time>
      </trkpt>
      <trkpt lat="48.13253" lon="6.91584">
        <ele>710.92</ele>
        <time>2021-06-23T10:13:29Z</time>
      </trkpt>
      <trkpt lat="48.13275" lon="6.91583">
        <ele>709.23</ele>
        <time>2021-06-23T10:13:33Z</time>
      </trkpt>
      <trkpt lat="48.13299" lon="6.91586">
        <ele>709.51</ele>
        <time>2021-06-23T10:13:37Z</time>
      </trkpt>
      <trkpt lat="48.13432" lon="6.91632">
        <ele>705.86</ele>
        <time>2021-06-23T10:13:42Z</time>
      </trkpt>
      <trkpt lat="48.13461" lon="6.91639">
        <ele>705.1</ele>
        <time>2021-06-23T10:13:46Z</time>
      </trkpt>
      <trkpt lat="48.13496" lon="6.91642">
        <ele>703</ele>
        <time>2021-06-23T10:13:50Z</time>
      </trkpt>
      <trkpt lat="48.13623" lon="6.91647">
        <ele>701.18</ele>
        <time>2021-06-23T10:13:55Z</time>
      </trkpt>
      <trkpt lat="48.13663" lon="6.91651">
        <ele>699.46</ele>
        <time>2021-06-23T10:13:59Z</time>
      </trkpt>
      <trkpt lat="48.137" lon="6.91659">
        <ele>698.03</ele>
        <time>2021-06-23T10:14:03Z</time>
      </trkpt>
      <trkpt lat="48.13732" lon="6.9167">
        <ele>695.48</ele>
        <time>2021-06-23T10:14:08Z</time>
      </trkpt>
      <trkpt lat="48.13765" lon="6.91683">
        <ele>691.88</ele>
        <time>2021-06-23T10:14:12Z</time>
      </trkpt>
      <trkpt lat="48.13797" lon="6.91692">
        <ele>688.76</ele>
        <time>2021-06-23T10:14:16Z</time>
      </trkpt>
      <trkpt lat="48.1383" lon="6.91695">
        <ele>688.12</ele>
        <time>2021-06-23T10:14:21Z</time>
      </trkpt>
      <trkpt lat="48.13859" lon="6.91689">
        <ele>686.86</ele>
        <time>2021-06-23T10:14:25Z</time>
      </trkpt>
      <trkpt lat="48.13945" lon="6.91662">
        <ele>687.23</ele>
        <time>2021-06-23T10:14:29Z</time>
      </trkpt>
      <trkpt lat="48.13971" lon="6.91657">
        <ele>689.69</ele>
        <time>2021-06-23T10:14:34Z</time>
      </trkpt>
      <trkpt lat="48.14035" lon="6.91653">
        <ele>686.47</ele>
        <time>2021-06-23T10:14:38Z</time>
      </trkpt>
      <trkpt lat="48.14072" lon="6.91657">
        <ele>684.03</ele>
        <time>2021-06-23T10:14:42Z</time>
      </trkpt>
      <trkpt lat="48.14117" lon="6.91667">
        <ele>678.97</ele>
        <time>2021-06-23T10:14:47Z</time>
      </trkpt>
      <trkpt lat="48.14256" lon="6.91706">
        <ele>667.94</ele>
        <time>2021-06-23T10:14:51Z</time>
      </trkpt>
      <trkpt lat="48.14274" lon="6.91715">
        <ele>667.77</ele>
        <time>2021-06-23T10:14:55Z</time>
      </trkpt>
      <trkpt lat="48.14475" lon="6.91847">
        <ele>651.62</ele>
        <time>2021-06-23T10:15:00Z</time>
      </trkpt>
      <trkpt lat="48.14517" lon="6.91877">
        <ele>646.85</ele>
        <time>2021-06-23T10:15:04Z</time>
      </trkpt>
      <trkpt lat="48.14548" lon="6.91894">
        <ele>643.71</ele>
        <time>2021-06-23T10:15:08Z</time>
      </trkpt>
      <trkpt lat="48.14566" lon="6.91901">
        <ele>643.54</ele>
        <time>2021-06-23T10:15:13Z</time>
      </trkpt>
      <trkpt lat="48.14664" lon="6.9193">
        <ele>637.4</ele>
        <time>2021-06-23T10:15:17Z</time>
      </trkpt>
      <trkpt lat="48.14744" lon="6.91964">
        <ele>635.1</ele>
        <time>2021-06-23T10:15:21Z</time>
      </trkpt>
      <trkpt lat="48.14812" lon="6.92004">
        <ele>633.78</ele>
        <time>2021-06-23T10:15:26Z</time>
      </trkpt>
      <trkpt lat="48.14827" lon="6.92016">
        <ele>633.22</ele>
        <time>2021-06-23T10:15:30Z</time>
      </trkpt>
      <trkpt lat="48.14865" lon="6.92045">
        <ele>632.72</ele>
        <time>2021-06-23T10:15:34Z</time>
      </trkpt>
      <trkpt lat="48.14932" lon="6.9211">
        <ele>630.28</ele>
        <time>2021-06-23T10:15:39Z</time>
      </trkpt>
      <trkpt lat="48.14955" lon="6.92124">
        <ele>629.82</ele>
        <time>2021-06-23T10:15:43Z</time>
      </trkpt>
      <trkpt lat="48.14967" lon="6.92127">
        <ele>630.36</ele>
        <time>2021-06-23T10:15:47Z</time>
      </trkpt>
      <trkpt lat="48.15169" lon="6.92133">
        <ele>619.8</ele>
        <time>2021-06-23T10:15:52Z</time>
      </trkpt>
      <trkpt lat="48.15178" lon="6.92138">
        <ele>619.95</ele>
        <time>2021-06-23T10:15:56Z</time>
      </trkpt>
      <trkpt lat="48.15221" lon="6.9214">
        <ele>621.02</ele>
        <time>2021-06-23T10:16:00Z</time>
      </trkpt>
      <trkpt lat="48.15372" lon="6.92143">
        <ele>623.51</ele>
        <time>2021-06-23T10:16:05Z</time>
      </trkpt>
      <trkpt lat="48.15392" lon="6.9214">
        <ele>623.1</ele>
        <time>2021-06-23T10:16:09Z</time>
      </trkpt>
      <trkpt lat="48.15614" lon="6.92147">
        <ele>636.49</ele>
        <time>2021-06-23T10:16:13Z</time>
      </trkpt>
      <trkpt lat="48.15774" lon="6.92157">
        <ele>643.75</ele>
        <time>2021-06-23T10:16:18Z</time>
      </trkpt>
      <trkpt lat="48.15802" lon="6.92156">
        <ele>643.95</ele>
        <time>2021-06-23T10:16:22Z</time>
      </trkpt>
      <trkpt lat="48.15843" lon="6.92141">
        <ele>644.73</ele>
        <time>2021-06-23T10:16:26Z</time>
      </trkpt>
      <trkpt lat="48.15866" lon="6.92129">
        <ele>645.73</ele>
        <time>2021-06-23T10:16:31Z</time>
      </trkpt>
      <trkpt lat="48.15885" lon="6.92114">
        <ele>645.2</ele>
        <time>2021-06-23T10:16:35Z</time>
      </trkpt>
      <trkpt lat="48.15906" lon="6.92091">
        <ele>644.09</ele>
        <time>2021-06-23T10:16:39Z</time>
      </trkpt>
      <trkpt lat="48.15927" lon="6.92061">
        <ele>642.59</ele>
        <time>2021-06-23T10:16:44Z</time>
      </trkpt>
      <trkpt lat="48.15941" lon="6.92036">
        <ele>640.86</ele>
        <time>2021-06-23T10:16:48Z</time>
      </trkpt>
      <trkpt lat="48.1595" lon="6.92015">
        <ele>638.36</ele>
        <time>2021-06-23T10:16:52Z</time>
      </trkpt>
      <trkpt lat="48.16006" lon="6.91865">
        <ele>635.25</ele>
        <time>2021-06-23T10:16:57Z</time>
      </trkpt>
      <trkpt lat="48.1602" lon="6.91834">
        <ele>635.87</ele>
        <time>2021-06-23T10:17:01Z</time>
      </trkpt>
      <trkpt lat="48.1604" lon="6.91798">
        <ele>636.55</ele>
        <time>2021-06-23T10:17:05Z</time>
      </trkpt>
      <trkpt lat="48.16065" lon="6.91768">
        <ele>635.66</ele>
        <time>2021-06-23T10:17:10Z</time>
      </trkpt>
      <trkpt lat="48.16083" lon="6.91754">
        <ele>635.13</ele>
        <time>2021-06-23T10:17:14Z</time>
      </trkpt>
      <trkpt lat="48.16106" lon="6.91738">
        <ele>634.58</ele>
        <time>2021-06-23T10:17:18Z</time>
      </trkpt>
      <trkpt lat="48.16128" lon="6.9173">
        <ele>632.59</ele>
        <time>2021-06-23T10:17:23Z</time>
      </trkpt>
      <trkpt lat="48.16151" lon="6.91727">
        <ele>630.5</ele>
        <time>2021-06-23T10:17:27Z</time>
      </trkpt>
      <trkpt lat="48.16244" lon="6.91727">
        <ele>623.79</ele>
        <time>2021-06-23T10:17:31Z</time>
      </trkpt>
      <trkpt lat="48.16269" lon="6.9173">
        <ele>623.53</ele>
        <time>2021-06-23T10:17:36Z</time>
      </trkpt>
      <trkpt lat="48.16297" lon="6.91737">
        <ele>624.75</ele>
        <time>2021-06-23T10:17:40Z</time>
      </trkpt>
      <trkpt lat="48.16337" lon="6.91754">
        <ele>625.37</ele>
        <time>2021-06-23T10:17:44Z</time>
      </trkpt>
      <trkpt lat="48.16526" lon="6.91862">
        <ele>619.19</ele>
        <time>2021-06-23T10:17:49Z</time>
      </trkpt>
      <trkpt lat="48.16622" lon="6.91913">
        <ele>614.6</ele>
        <time>2021-06-23T10:17:53Z</time>
      </trkpt>
      <trkpt lat="48.16688" lon="6.91919">
        <ele>613.51</ele>
        <time>2021-06-23T10:17:57Z</time>
      </trkpt>
      <trkpt lat="48.16731" lon="6.91916">
        <ele>611.28</ele>
        <time>2021-06-23T10:18:02Z</time>
      </trkpt>
      <trkpt lat="48.16777" lon="6.9192">
        <ele>605.72</ele>
        <time>2021-06-23T10:18:06Z</time>
      </trkpt>
      <trkpt lat="48.16786" lon="6.91925">
        <ele>605.26</ele>
        <time>2021-06-23T10:18:10Z</time>
      </trkpt>
      <trkpt lat="48.16786" lon="6.91925">
        <ele>605.26</ele>
        <time>2021-06-23T10:18:10Z</time>
      </trkpt>
      <trkpt lat="48.1683" lon="6.91947">
        <ele>604.13</ele>
        <time>2021-06-23T10:18:16Z</time>
      </trkpt>
      <trkpt lat="48.1686" lon="6.91973">
        <ele>602.09</ele>
        <time>2021-06-23T10:18:21Z</time>
      </trkpt>
      <trkpt lat="48.16882" lon="6.91996">
        <ele>601.49</ele>
        <time>2021-06-23T10:18:26Z</time>
      </trkpt>
      <trkpt lat="48.16909" lon="6.92033">
        <ele>599.86</ele>
        <time>2021-06-23T10:18:31Z</time>
      </trkpt>
      <trkpt lat="48.16954" lon="6.921">
        <ele>590.64</ele>
        <time>2021-06-23T10:18:37Z</time>
      </trkpt>
      <trkpt lat="48.16975" lon="6.92137">
        <ele>590.14</ele>
        <time>2021-06-23T10:18:42Z</time>
      </trkpt>
      <trkpt lat="48.16985" lon="6.92164">
        <ele>592.26</ele>
        <time>2021-06-23T10:18:47Z</time>
      </trkpt>
      <trkpt lat="48.16993" lon="6.92191">
        <ele>593.03</ele>
        <time>2021-06-23T10:18:52Z</time>
      </trkpt>
      <trkpt lat="48.17045" lon="6.92502">
        <ele>575.14</ele>
        <time>2021-06-23T10:18:57Z</time>
      </trkpt>
      <trkpt lat="48.17062" lon="6.92577">
        <ele>562.92</ele>
        <time>2021-06-23T10:19:03Z</time>
      </trkpt>
      <trkpt lat="48.17077" lon="6.9262">
        <ele>561.62</ele>
        <time>2021-06-23T10:19:08Z</time>
      </trkpt>
      <trkpt lat="48.1709" lon="6.92646">
        <ele>562.97</ele>
        <time>2021-06-23T10:19:13Z</time>
      </trkpt>
      <trkpt lat="48.1711" lon="6.92672">
        <ele>562.31</ele>
        <time>2021-06-23T10:19:18Z</time>
      </trkpt>
      <trkpt lat="48.17141" lon="6.92703">
        <ele>560.18</ele>
        <time>2021-06-23T10:19:23Z</time>
      </trkpt>
      <trkpt lat="48.17167" lon="6.92721">
        <ele>558.95</ele>
        <time>2021-06-23T10:19:29Z</time>
      </trkpt>
      <trkpt lat="48.17244" lon="6.92757">
        <ele>553.22</ele>
        <time>2021-06-23T10:19:34Z</time>
      </trkpt>
      <trkpt lat="48.17378" lon="6.92819">
        <ele>546.67</ele>
        <time>2021-06-23T10:19:39Z</time>
      </trkpt>
      <trkpt lat="48.17482" lon="6.92863">
        <ele>531.46</ele>
        <time>2021-06-23T10:19:44Z</time>
      </trkpt>
      <trkpt lat="48.17514" lon="6.92868">
        <ele>530.37</ele>
        <time>2021-06-23T10:19:50Z</time>
      </trkpt>
      <trkpt lat="48.17619" lon="6.92872">
        <ele>524.23</ele>
        <time>2021-06-23T10:19:55Z</time>
      </trkpt>
      <trkpt lat="48.17641" lon="6.92874">
        <ele>521.36</ele>
        <time>2021-06-23T10:20:00Z</time>
      </trkpt>
      <trkpt lat="48.17662" lon="6.92881">
        <ele>521.96</ele>
        <time>2021-06-23T10:20:05Z</time>
      </trkpt>
      <trkpt lat="48.17681" lon="6.9289">
        <ele>521.5</ele>
        <time>2021-06-23T10:20:10Z</time>
      </trkpt>
      <trkpt lat="48.17712" lon="6.92912">
        <ele>519.42</ele>
        <time>2021-06-23T10:20:16Z</time>
      </trkpt>
      <trkpt lat="48.17743" lon="6.92947">
        <ele>516.06</ele>
        <time>2021-06-23T10:20:21Z</time>
      </trkpt>
      <trkpt lat="48.1776" lon="6.92974">
        <ele>514.29</ele>
        <time>2021-06-23T10:20:26Z</time>
      </trkpt>
      <trkpt lat="48.17825" lon="6.93107">
        <ele>511.07</ele>
        <time>2021-06-23T10:20:31Z</time>
      </trkpt>
      <trkpt lat="48.17838" lon="6.93139">
        <ele>511.65</ele>
        <time>2021-06-23T10:20:36Z</time>
      </trkpt>
      <trkpt lat="48.17844" lon="6.93162">
        <ele>511.15</ele>
        <time>2021-06-23T10:20:42Z</time>
      </trkpt>
      <trkpt lat="48.17852" lon="6.93222">
        <ele>506.99</ele>
        <time>2021-06-23T10:20:47Z</time>
      </trkpt>
      <trkpt lat="48.17859" lon="6.93455">
        <ele>495.18</ele>
        <time>2021-06-23T10:20:52Z</time>
      </trkpt>
      <trkpt lat="48.17864" lon="6.935">
        <ele>491.43</ele>
        <time>2021-06-23T10:20:57Z</time>
      </trkpt>
      <trkpt lat="48.17868" lon="6.93524">
        <ele>491.46</ele>
        <time>2021-06-23T10:21:03Z</time>
      </trkpt>
      <trkpt lat="48.17876" lon="6.93557">
        <ele>493.02</ele>
        <time>2021-06-23T10:21:08Z</time>
      </trkpt>
      <trkpt lat="48.17886" lon="6.93584">
        <ele>493.08</ele>
        <time>2021-06-23T10:21:13Z</time>
      </trkpt>
      <trkpt lat="48.17899" lon="6.93613">
        <ele>492.62</ele>
        <time>2021-06-23T10:21:18Z</time>
      </trkpt>
      <trkpt lat="48.17916" lon="6.93641">
        <ele>489.23</ele>
        <time>2021-06-23T10:21:23Z</time>
      </trkpt>
      <trkpt lat="48.17937" lon="6.93668">
        <ele>486.41</ele>
        <time>2021-06-23T10:21:29Z</time>
      </trkpt>
      <trkpt lat="48.17958" lon="6.93686">
        <ele>483.22</ele>
        <time>2021-06-23T10:21:34Z</time>
      </trkpt>
      <trkpt lat="48.17995" lon="6.93708">
        <ele>480.2</ele>
        <time>2021-06-23T10:21:39Z</time>
      </trkpt>
      <trkpt lat="48.18076" lon="6.93718">
        <ele>478.22</ele>
        <time>2021-06-23T10:21:44Z</time>
      </trkpt>
      <trkpt lat="48.18104" lon="6.93724">
        <ele>477.51</ele>
        <time>2021-06-23T10:21:49Z</time>
      </trkpt>
      <trkpt lat="48.18124" lon="6.93731">
        <ele>476.39</ele>
        <time>2021-06-23T10:21:55Z</time>
      </trkpt>
      <trkpt lat="48.1815" lon="6.93746">
        <ele>474.9</ele>
        <time>2021-06-23T10:22:00Z</time>
      </trkpt>
      <trkpt lat="48.18206" lon="6.93787">
        <ele>475.19</ele>
        <time>2021-06-23T10:22:05Z</time>
      </trkpt>
      <trkpt lat="48.18232" lon="6.9381">
        <ele>474.26</ele>
        <time>2021-06-23T10:22:10Z</time>
      </trkpt>
      <trkpt lat="48.18251" lon="6.93835">
        <ele>469.79</ele>
        <time>2021-06-23T10:22:15Z</time>
      </trkpt>
      <trkpt lat="48.18269" lon="6.93868">
        <ele>467.58</ele>
        <time>2021-06-23T10:22:21Z</time>
      </trkpt>
      <trkpt lat="48.18331" lon="6.94029">
        <ele>465.27</ele>
        <time>2021-06-23T10:22:26Z</time>
      </trkpt>
      <trkpt lat="48.18489" lon="6.94457">
        <ele>456.18</ele>
        <time>2021-06-23T10:22:31Z</time>
      </trkpt>
      <trkpt lat="48.18507" lon="6.94502">
        <ele>455.8</ele>
        <time>2021-06-23T10:22:36Z</time>
      </trkpt>
      <trkpt lat="48.18518" lon="6.94528">
        <ele>455.71</ele>
        <time>2021-06-23T10:22:42Z</time>
      </trkpt>
      <trkpt lat="48.18574" lon="6.94636">
        <ele>454.24</ele>
        <time>2021-06-23T10:22:47Z</time>
      </trkpt>
      <trkpt lat="48.18589" lon="6.94669">
        <ele>453.8</ele>
        <time>2021-06-23T10:22:52Z</time>
      </trkpt>
      <trkpt lat="48.18611" lon="6.94725">
        <ele>452</ele>
        <time>2021-06-23T10:22:57Z</time>
      </trkpt>
      <trkpt lat="48.18806" lon="6.95276">
        <ele>451</ele>
        <time>2021-06-23T10:23:02Z</time>
      </trkpt>
      <trkpt lat="48.18817" lon="6.95315">
        <ele>451.21</ele>
        <time>2021-06-23T10:23:08Z</time>
      </trkpt>
      <trkpt lat="48.18816" lon="6.95322">
        <ele>451.38</ele>
        <time>2021-06-23T10:23:08Z</time>
      </trkpt>
      <trkpt lat="48.18816" lon="6.95329">
        <ele>451.53</ele>
        <time>2021-06-23T10:23:09Z</time>
      </trkpt>
      <trkpt lat="48.1882" lon="6.95338">
        <ele>451.39</ele>
        <time>2021-06-23T10:23:09Z</time>
      </trkpt>
      <trkpt lat="48.18827" lon="6.95342">
        <ele>451.16</ele>
        <time>2021-06-23T10:23:10Z</time>
      </trkpt>
      <trkpt lat="48.18831" lon="6.9534">
        <ele>451.06</ele>
        <time>2021-06-23T10:23:11Z</time>
      </trkpt>
      <trkpt lat="48.18831" lon="6.9534">
        <ele>451.06</ele>
        <time>2021-06-23T10:23:11Z</time>
      </trkpt>
      <trkpt lat="48.18837" lon="6.95335">
        <ele>450.86</ele>
        <time>2021-06-23T10:23:21Z</time>
      </trkpt>
      <trkpt lat="48.1884" lon="6.95324">
        <ele>450.76</ele>
        <time>2021-06-23T10:23:32Z</time>
      </trkpt>
      <trkpt lat="48.18861" lon="6.95302">
        <ele>449.99</ele>
        <time>2021-06-23T10:23:43Z</time>
      </trkpt>
      <trkpt lat="48.18886" lon="6.95289">
        <ele>449.09</ele>
        <time>2021-06-23T10:23:54Z</time>
      </trkpt>
      <trkpt lat="48.18945" lon="6.95253">
        <ele>447.98</ele>
        <time>2021-06-23T10:24:05Z</time>
      </trkpt>
      <trkpt lat="48.19351" lon="6.94993">
        <ele>443.64</ele>
        <time>2021-06-23T10:24:16Z</time>
      </trkpt>
      <trkpt lat="48.19366" lon="6.94996">
        <ele>443.86</ele>
        <time>2021-06-23T10:24:27Z</time>
      </trkpt>
      <trkpt lat="48.19374" lon="6.95001">
        <ele>443.55</ele>
        <time>2021-06-23T10:24:28Z</time>
      </trkpt>
      <trkpt lat="48.19383" lon="6.94996">
        <ele>443.34</ele>
        <time>2021-06-23T10:24:29Z</time>
      </trkpt>
      <trkpt lat="48.19385" lon="6.9499">
        <ele>443.44</ele>
        <time>2021-06-23T10:24:30Z</time>
      </trkpt>
      <trkpt lat="48.19386" lon="6.94983">
        <ele>443.64</ele>
        <time>2021-06-23T10:24:31Z</time>
      </trkpt>
      <trkpt lat="48.19391" lon="6.94967">
        <ele>443.77</ele>
        <time>2021-06-23T10:24:32Z</time>
      </trkpt>
      <trkpt lat="48.19641" lon="6.94805">
        <ele>442</ele>
        <time>2021-06-23T10:24:52Z</time>
      </trkpt>
      <trkpt lat="48.19981" lon="6.9459">
        <ele>437</ele>
        <time>2021-06-23T10:25:13Z</time>
      </trkpt>
      <trkpt lat="48.20023" lon="6.94565">
        <ele>436.16</ele>
        <time>2021-06-23T10:25:33Z</time>
      </trkpt>
      <trkpt lat="48.20073" lon="6.94545">
        <ele>436</ele>
        <time>2021-06-23T10:25:54Z</time>
      </trkpt>
      <trkpt lat="48.2017" lon="6.94514">
        <ele>432.94</ele>
        <time>2021-06-23T10:26:14Z</time>
      </trkpt>
      <trkpt lat="48.20271" lon="6.94488">
        <ele>432</ele>
        <time>2021-06-23T10:26:35Z</time>
      </trkpt>
      <trkpt lat="48.20649" lon="6.94389">
        <ele>426.65</ele>
        <time>2021-06-23T10:26:55Z</time>
      </trkpt>
      <trkpt lat="48.20662" lon="6.94394">
        <ele>426.13</ele>
        <time>2021-06-23T10:27:16Z</time>
      </trkpt>
      <trkpt lat="48.20665" lon="6.94398">
        <ele>426.04</ele>
        <time>2021-06-23T10:27:23Z</time>
      </trkpt>
      <trkpt lat="48.2067" lon="6.94401">
        <ele>426</ele>
        <time>2021-06-23T10:27:29Z</time>
      </trkpt>
      <trkpt lat="48.20675" lon="6.944">
        <ele>426</ele>
        <time>2021-06-23T10:27:36Z</time>
      </trkpt>
      <trkpt lat="48.20678" lon="6.94397">
        <ele>426</ele>
        <time>2021-06-23T10:27:42Z</time>
      </trkpt>
      <trkpt lat="48.20682" lon="6.94389">
        <ele>426</ele>
        <time>2021-06-23T10:27:49Z</time>
      </trkpt>
      <trkpt lat="48.20695" lon="6.94376">
        <ele>426.01</ele>
        <time>2021-06-23T10:27:56Z</time>
      </trkpt>
      <trkpt lat="48.20847" lon="6.94338">
        <ele>425.34</ele>
        <time>2021-06-23T10:28:02Z</time>
      </trkpt>
      <trkpt lat="48.21042" lon="6.94283">
        <ele>423.89</ele>
        <time>2021-06-23T10:28:09Z</time>
      </trkpt>
      <trkpt lat="48.2121" lon="6.94239">
        <ele>421</ele>
        <time>2021-06-23T10:28:16Z</time>
      </trkpt>
      <trkpt lat="48.21345" lon="6.94205">
        <ele>419.22</ele>
        <time>2021-06-23T10:28:22Z</time>
      </trkpt>
      <trkpt lat="48.21374" lon="6.94207">
        <ele>418.52</ele>
        <time>2021-06-23T10:28:29Z</time>
      </trkpt>
      <trkpt lat="48.21408" lon="6.94214">
        <ele>417.79</ele>
        <time>2021-06-23T10:28:35Z</time>
      </trkpt>
      <trkpt lat="48.21423" lon="6.94219">
        <ele>417.87</ele>
        <time>2021-06-23T10:28:42Z</time>
      </trkpt>
      <trkpt lat="48.21423" lon="6.94219">
        <ele>417.87</ele>
        <time>2021-06-23T10:28:42Z</time>
      </trkpt>
      <trkpt lat="48.2157" lon="6.94277">
        <ele>417.95</ele>
        <time>2021-06-23T10:28:54Z</time>
      </trkpt>
      <trkpt lat="48.21591" lon="6.94294">
        <ele>417.15</ele>
        <time>2021-06-23T10:29:05Z</time>
      </trkpt>
      <trkpt lat="48.21592" lon="6.94299">
        <ele>417.21</ele>
        <time>2021-06-23T10:29:19Z</time>
      </trkpt>
      <trkpt lat="48.21597" lon="6.94306">
        <ele>417.01</ele>
        <time>2021-06-23T10:29:33Z</time>
      </trkpt>
      <trkpt lat="48.21603" lon="6.94307">
        <ele>416.58</ele>
        <time>2021-06-23T10:29:48Z</time>
      </trkpt>
      <trkpt lat="48.21608" lon="6.94303">
        <ele>416.22</ele>
        <time>2021-06-23T10:30:02Z</time>
      </trkpt>
      <trkpt lat="48.21623" lon="6.94307">
        <ele>415.98</ele>
        <time>2021-06-23T10:30:16Z</time>
      </trkpt>
      <trkpt lat="48.21694" lon="6.94336">
        <ele>413</ele>
        <time>2021-06-23T10:30:30Z</time>
      </trkpt>
      <trkpt lat="48.21729" lon="6.94346">
        <ele>414.48</ele>
        <time>2021-06-23T10:30:44Z</time>
      </trkpt>
      <trkpt lat="48.22095" lon="6.94498">
        <ele>408.03</ele>
        <time>2021-06-23T10:30:58Z</time>
      </trkpt>
      <trkpt lat="48.22112" lon="6.94509">
        <ele>408.3</ele>
        <time>2021-06-23T10:31:13Z</time>
      </trkpt>
      <trkpt lat="48.22133" lon="6.94517">
        <ele>408.13</ele>
        <time>2021-06-23T10:31:27Z</time>
      </trkpt>
      <trkpt lat="48.22787" lon="6.94789">
        <ele>400.79</ele>
        <time>2021-06-23T10:31:41Z</time>
      </trkpt>
      <trkpt lat="48.22894" lon="6.94835">
        <ele>399.82</ele>
        <time>2021-06-23T10:31:55Z</time>
      </trkpt>
      <trkpt lat="48.22919" lon="6.94844">
        <ele>399.25</ele>
        <time>2021-06-23T10:32:09Z</time>
      </trkpt>
      <trkpt lat="48.23376" lon="6.95037">
        <ele>392.67</ele>
        <time>2021-06-23T10:32:23Z</time>
      </trkpt>
      <trkpt lat="48.23656" lon="6.95155">
        <ele>391.39</ele>
        <time>2021-06-23T10:32:38Z</time>
      </trkpt>
      <trkpt lat="48.23674" lon="6.95168">
        <ele>390.74</ele>
        <time>2021-06-23T10:32:52Z</time>
      </trkpt>
      <trkpt lat="48.23717" lon="6.95188">
        <ele>390.61</ele>
        <time>2021-06-23T10:33:06Z</time>
      </trkpt>
      <trkpt lat="48.23734" lon="6.95197">
        <ele>391</ele>
        <time>2021-06-23T10:33:20Z</time>
      </trkpt>
      <trkpt lat="48.23736" lon="6.95204">
        <ele>391</ele>
        <time>2021-06-23T10:33:25Z</time>
      </trkpt>
      <trkpt lat="48.23742" lon="6.95209">
        <ele>391</ele>
        <time>2021-06-23T10:33:29Z</time>
      </trkpt>
      <trkpt lat="48.23745" lon="6.95209">
        <ele>391</ele>
        <time>2021-06-23T10:33:34Z</time>
      </trkpt>
      <trkpt lat="48.23751" lon="6.95205">
        <ele>390.97</ele>
        <time>2021-06-23T10:33:38Z</time>
      </trkpt>
      <trkpt lat="48.2376" lon="6.95206">
        <ele>390.63</ele>
        <time>2021-06-23T10:33:43Z</time>
      </trkpt>
      <trkpt lat="48.23826" lon="6.95233">
        <ele>390.72</ele>
        <time>2021-06-23T10:33:47Z</time>
      </trkpt>
      <trkpt lat="48.23872" lon="6.95249">
        <ele>391.6</ele>
        <time>2021-06-23T10:33:52Z</time>
      </trkpt>
      <trkpt lat="48.24128" lon="6.95363">
        <ele>387.31</ele>
        <time>2021-06-23T10:33:56Z</time>
      </trkpt>
      <trkpt lat="48.24227" lon="6.95404">
        <ele>386.83</ele>
        <time>2021-06-23T10:34:01Z</time>
      </trkpt>
      <trkpt lat="48.24263" lon="6.95415">
        <ele>385.12</ele>
        <time>2021-06-23T10:34:05Z</time>
      </trkpt>
      <trkpt lat="48.24354" lon="6.95425">
        <ele>385</ele>
        <time>2021-06-23T10:34:10Z</time>
      </trkpt>
      <trkpt lat="48.24418" lon="6.95429">
        <ele>383.55</ele>
        <time>2021-06-23T10:34:14Z</time>
      </trkpt>
      <trkpt lat="48.24579" lon="6.95436">
        <ele>384.84</ele>
        <time>2021-06-23T10:34:19Z</time>
      </trkpt>
      <trkpt lat="48.2461" lon="6.95442">
        <ele>384.05</ele>
        <time>2021-06-23T10:34:23Z</time>
      </trkpt>
      <trkpt lat="48.2466" lon="6.95443">
        <ele>383.99</ele>
        <time>2021-06-23T10:34:28Z</time>
      </trkpt>
      <trkpt lat="48.247" lon="6.95449">
        <ele>384.17</ele>
        <time>2021-06-23T10:34:32Z</time>
      </trkpt>
      <trkpt lat="48.24734" lon="6.95461">
        <ele>384.39</ele>
        <time>2021-06-23T10:34:37Z</time>
      </trkpt>
      <trkpt lat="48.2478" lon="6.95488">
        <ele>383.49</ele>
        <time>2021-06-23T10:34:41Z</time>
      </trkpt>
      <trkpt lat="48.24823" lon="6.95509">
        <ele>383.88</ele>
        <time>2021-06-23T10:34:46Z</time>
      </trkpt>
      <trkpt lat="48.24931" lon="6.95527">
        <ele>383</ele>
        <time>2021-06-23T10:34:50Z</time>
      </trkpt>
      <trkpt lat="48.24967" lon="6.95537">
        <ele>382.67</ele>
        <time>2021-06-23T10:34:55Z</time>
      </trkpt>
      <trkpt lat="48.24995" lon="6.95552">
        <ele>381.3</ele>
        <time>2021-06-23T10:34:59Z</time>
      </trkpt>
      <trkpt lat="48.2503" lon="6.95578">
        <ele>381.44</ele>
        <time>2021-06-23T10:35:04Z</time>
      </trkpt>
      <trkpt lat="48.25064" lon="6.95614">
        <ele>381.43</ele>
        <time>2021-06-23T10:35:08Z</time>
      </trkpt>
      <trkpt lat="48.25148" lon="6.95733">
        <ele>381.89</ele>
        <time>2021-06-23T10:35:13Z</time>
      </trkpt>
      <trkpt lat="48.25199" lon="6.95787">
        <ele>380.49</ele>
        <time>2021-06-23T10:35:17Z</time>
      </trkpt>
      <trkpt lat="48.25236" lon="6.95819">
        <ele>381.27</ele>
        <time>2021-06-23T10:35:22Z</time>
      </trkpt>
      <trkpt lat="48.25275" lon="6.95841">
        <ele>383.93</ele>
        <time>2021-06-23T10:35:26Z</time>
      </trkpt>
      <trkpt lat="48.25312" lon="6.95857">
        <ele>383.98</ele>
        <time>2021-06-23T10:35:31Z</time>
      </trkpt>
      <trkpt lat="48.25468" lon="6.95886">
        <ele>373.25</ele>
        <time>2021-06-23T10:35:35Z</time>
      </trkpt>
      <trkpt lat="48.25512" lon="6.95908">
        <ele>373.86</ele>
        <time>2021-06-23T10:35:40Z</time>
      </trkpt>
      <trkpt lat="48.25545" lon="6.95928">
        <ele>373.77</ele>
        <time>2021-06-23T10:35:44Z</time>
      </trkpt>
      <trkpt lat="48.25581" lon="6.95959">
        <ele>375.18</ele>
        <time>2021-06-23T10:35:49Z</time>
      </trkpt>
      <trkpt lat="48.25697" lon="6.96079">
        <ele>373.73</ele>
        <time>2021-06-23T10:35:53Z</time>
      </trkpt>
      <trkpt lat="48.2577" lon="6.96149">
        <ele>372.39</ele>
        <time>2021-06-23T10:35:58Z</time>
      </trkpt>
      <trkpt lat="48.25805" lon="6.96178">
        <ele>370.59</ele>
        <time>2021-06-23T10:36:02Z</time>
      </trkpt>
      <trkpt lat="48.25935" lon="6.96284">
        <ele>367</ele>
        <time>2021-06-23T10:36:07Z</time>
      </trkpt>
      <trkpt lat="48.25985" lon="6.9631">
        <ele>367.84</ele>
        <time>2021-06-23T10:36:11Z</time>
      </trkpt>
      <trkpt lat="48.26018" lon="6.9632">
        <ele>367.49</ele>
        <time>2021-06-23T10:36:16Z</time>
      </trkpt>
      <trkpt lat="48.26053" lon="6.96323">
        <ele>367.36</ele>
        <time>2021-06-23T10:36:20Z</time>
      </trkpt>
      <trkpt lat="48.26187" lon="6.96323">
        <ele>368.11</ele>
        <time>2021-06-23T10:36:25Z</time>
      </trkpt>
      <trkpt lat="48.26245" lon="6.96313">
        <ele>368</ele>
        <time>2021-06-23T10:36:30Z</time>
      </trkpt>
      <trkpt lat="48.26245" lon="6.96313">
        <ele>368</ele>
        <time>2021-06-23T10:36:30Z</time>
      </trkpt>
      <trkpt lat="48.26276" lon="6.96305">
        <ele>368.95</ele>
        <time>2021-06-23T10:36:37Z</time>
      </trkpt>
      <trkpt lat="48.26309" lon="6.96292">
        <ele>367.32</ele>
        <time>2021-06-23T10:36:44Z</time>
      </trkpt>
      <trkpt lat="48.26332" lon="6.96278">
        <ele>367.03</ele>
        <time>2021-06-23T10:36:51Z</time>
      </trkpt>
      <trkpt lat="48.26364" lon="6.96252">
        <ele>365.83</ele>
        <time>2021-06-23T10:36:58Z</time>
      </trkpt>
      <trkpt lat="48.26386" lon="6.96229">
        <ele>365.89</ele>
        <time>2021-06-23T10:37:05Z</time>
      </trkpt>
      <trkpt lat="48.26414" lon="6.96204">
        <ele>366.96</ele>
        <time>2021-06-23T10:37:12Z</time>
      </trkpt>
      <trkpt lat="48.26506" lon="6.96121">
        <ele>367</ele>
        <time>2021-06-23T10:37:19Z</time>
      </trkpt>
      <trkpt lat="48.2653" lon="6.96106">
        <ele>367.29</ele>
        <time>2021-06-23T10:37:26Z</time>
      </trkpt>
      <trkpt lat="48.2656" lon="6.961">
        <ele>369.19</ele>
        <time>2021-06-23T10:37:33Z</time>
      </trkpt>
      <trkpt lat="48.26607" lon="6.96107">
        <ele>372.14</ele>
        <time>2021-06-23T10:37:40Z</time>
      </trkpt>
      <trkpt lat="48.26708" lon="6.96134">
        <ele>374.29</ele>
        <time>2021-06-23T10:37:48Z</time>
      </trkpt>
      <trkpt lat="48.26736" lon="6.96138">
        <ele>370.6</ele>
        <time>2021-06-23T10:37:55Z</time>
      </trkpt>
      <trkpt lat="48.26831" lon="6.96142">
        <ele>364.88</ele>
        <time>2021-06-23T10:38:02Z</time>
      </trkpt>
      <trkpt lat="48.27018" lon="6.96144">
        <ele>363.73</ele>
        <time>2021-06-23T10:38:09Z</time>
      </trkpt>
      <trkpt lat="48.2734" lon="6.9617">
        <ele>357.22</ele>
        <time>2021-06-23T10:38:16Z</time>
      </trkpt>
      <trkpt lat="48.27348" lon="6.9617">
        <ele>357.47</ele>
        <time>2021-06-23T10:38:23Z</time>
      </trkpt>
      <trkpt lat="48.27367" lon="6.96165">
        <ele>357.8</ele>
        <time>2021-06-23T10:38:30Z</time>
      </trkpt>
      <trkpt lat="48.27507" lon="6.96088">
        <ele>356.52</ele>
        <time>2021-06-23T10:38:37Z</time>
      </trkpt>
      <trkpt lat="48.27567" lon="6.96058">
        <ele>353</ele>
        <time>2021-06-23T10:38:44Z</time>
      </trkpt>
      <trkpt lat="48.27583" lon="6.9606">
        <ele>353</ele>
        <time>2021-06-23T10:38:51Z</time>
      </trkpt>
      <trkpt lat="48.27627" lon="6.96077">
        <ele>352.87</ele>
        <time>2021-06-23T10:38:58Z</time>
      </trkpt>
      <trkpt lat="48.27654" lon="6.96081">
        <ele>351.92</ele>
        <time>2021-06-23T10:39:06Z</time>
      </trkpt>
      <trkpt lat="48.27681" lon="6.96071">
        <ele>351.72</ele>
        <time>2021-06-23T10:39:13Z</time>
      </trkpt>
      <trkpt lat="48.27712" lon="6.96042">
        <ele>351.36</ele>
        <time>2021-06-23T10:39:20Z</time>
      </trkpt>
      <trkpt lat="48.27736" lon="6.96016">
        <ele>350</ele>
        <time>2021-06-23T10:39:27Z</time>
      </trkpt>
      <trkpt lat="48.27755" lon="6.96006">
        <ele>349</ele>
        <time>2021-06-23T10:39:34Z</time>
      </trkpt>
      <trkpt lat="48.27762" lon="6.96011">
        <ele>349</ele>
        <time>2021-06-23T10:39:35Z</time>
      </trkpt>
      <trkpt lat="48.27793" lon="6.95954">
        <ele>348.65</ele>
        <time>2021-06-23T10:39:41Z</time>
      </trkpt>
      <trkpt lat="48.27769" lon="6.9598">
        <ele>348.87</ele>
        <time>2021-06-23T10:39:45Z</time>
      </trkpt>
      <trkpt lat="48.27769" lon="6.9598">
        <ele>348.87</ele>
        <time>2021-06-23T10:39:45Z</time>
      </trkpt>
      <trkpt lat="48.27749" lon="6.96001">
        <ele>349.08</ele>
        <time>2021-06-23T10:39:48Z</time>
      </trkpt>
      <trkpt lat="48.27736" lon="6.96016">
        <ele>350</ele>
        <time>2021-06-23T10:39:50Z</time>
      </trkpt>
      <trkpt lat="48.27755" lon="6.96006">
        <ele>349</ele>
        <time>2021-06-23T10:39:53Z</time>
      </trkpt>
      <trkpt lat="48.27762" lon="6.96011">
        <ele>349</ele>
        <time>2021-06-23T10:39:54Z</time>
      </trkpt>
      <trkpt lat="48.27793" lon="6.95954">
        <ele>348.65</ele>
        <time>2021-06-23T10:40:03Z</time>
      </trkpt>
      <trkpt lat="48.2788" lon="6.95783">
        <ele>349</ele>
        <time>2021-06-23T10:40:12Z</time>
      </trkpt>
      <trkpt lat="48.27894" lon="6.9577">
        <ele>348.58</ele>
        <time>2021-06-23T10:40:21Z</time>
      </trkpt>
      <trkpt lat="48.27898" lon="6.95774">
        <ele>348.57</ele>
        <time>2021-06-23T10:40:26Z</time>
      </trkpt>
      <trkpt lat="48.27902" lon="6.95774">
        <ele>348.46</ele>
        <time>2021-06-23T10:40:31Z</time>
      </trkpt>
      <trkpt lat="48.27908" lon="6.95768">
        <ele>348.2</ele>
        <time>2021-06-23T10:40:36Z</time>
      </trkpt>
      <trkpt lat="48.27909" lon="6.95758">
        <ele>348.08</ele>
        <time>2021-06-23T10:40:40Z</time>
      </trkpt>
      <trkpt lat="48.27905" lon="6.9575">
        <ele>347.99</ele>
        <time>2021-06-23T10:40:45Z</time>
      </trkpt>
      <trkpt lat="48.27909" lon="6.95728">
        <ele>347.21</ele>
        <time>2021-06-23T10:40:50Z</time>
      </trkpt>
      <trkpt lat="48.27917" lon="6.95711">
        <ele>347</ele>
        <time>2021-06-23T10:40:55Z</time>
      </trkpt>
      <trkpt lat="48.2807" lon="6.9545">
        <ele>346</ele>
        <time>2021-06-23T10:40:59Z</time>
      </trkpt>
      <trkpt lat="48.28079" lon="6.9546">
        <ele>346</ele>
        <time>2021-06-23T10:41:11Z</time>
      </trkpt>
      <trkpt lat="48.28191" lon="6.9552">
        <ele>342.76</ele>
        <time>2021-06-23T10:41:22Z</time>
      </trkpt>
      <trkpt lat="48.28253" lon="6.95558">
        <ele>343.77</ele>
        <time>2021-06-23T10:41:34Z</time>
      </trkpt>
      <trkpt lat="48.28335" lon="6.95602">
        <ele>340.95</ele>
        <time>2021-06-23T10:41:45Z</time>
      </trkpt>
      <trkpt lat="48.28545" lon="6.95634">
        <ele>341.73</ele>
        <time>2021-06-23T10:41:56Z</time>
      </trkpt>
      <trkpt lat="48.28725" lon="6.95664">
        <ele>343.27</ele>
        <time>2021-06-23T10:42:08Z</time>
      </trkpt>
      <trkpt lat="48.28732" lon="6.95667">
        <ele>344.09</ele>
        <time>2021-06-23T10:42:19Z</time>
      </trkpt>
      <trkpt lat="48.28742" lon="6.95666">
        <ele>345.14</ele>
        <time>2021-06-23T10:42:31Z</time>
      </trkpt>
      <trkpt lat="48.28741" lon="6.95632">
        <ele>344.21</ele>
        <time>2021-06-23T10:42:34Z</time>
      </trkpt>
      <trkpt lat="48.28747" lon="6.95591">
        <ele>344.07</ele>
        <time>2021-06-23T10:42:37Z</time>
      </trkpt>
      <trkpt lat="48.28747" lon="6.95591">
        <ele>344.07</ele>
        <time>2021-06-23T10:42:37Z</time>
      </trkpt>
      <trkpt lat="48.28753" lon="6.9556">
        <ele>343.34</ele>
        <time>2021-06-23T10:42:39Z</time>
      </trkpt>
      <trkpt lat="48.28758" lon="6.95548">
        <ele>343.33</ele>
        <time>2021-06-23T10:42:41Z</time>
      </trkpt>
      <trkpt lat="48.28762" lon="6.95545">
        <ele>343.53</ele>
        <time>2021-06-23T10:42:42Z</time>
      </trkpt>
      <trkpt lat="48.28765" lon="6.95549">
        <ele>343.8</ele>
        <time>2021-06-23T10:42:47Z</time>
      </trkpt>
      <trkpt lat="48.2877" lon="6.95551">
        <ele>344.3</ele>
        <time>2021-06-23T10:42:53Z</time>
      </trkpt>
      <trkpt lat="48.28773" lon="6.95549">
        <ele>344.46</ele>
        <time>2021-06-23T10:42:58Z</time>
      </trkpt>
      <trkpt lat="48.28777" lon="6.95542">
        <ele>344.48</ele>
        <time>2021-06-23T10:43:03Z</time>
      </trkpt>
      <trkpt lat="48.28777" lon="6.95534">
        <ele>344.15</ele>
        <time>2021-06-23T10:43:08Z</time>
      </trkpt>
      <trkpt lat="48.28775" lon="6.9553">
        <ele>343.9</ele>
        <time>2021-06-23T10:43:14Z</time>
      </trkpt>
      <trkpt lat="48.28775" lon="6.95504">
        <ele>343.77</ele>
        <time>2021-06-23T10:43:19Z</time>
      </trkpt>
      <trkpt lat="48.2879" lon="6.95389">
        <ele>345.88</ele>
        <time>2021-06-23T10:43:24Z</time>
      </trkpt>
      <trkpt lat="48.28831" lon="6.95099">
        <ele>340.9</ele>
        <time>2021-06-23T10:43:29Z</time>
      </trkpt>
      <trkpt lat="48.28837" lon="6.95073">
        <ele>341.29</ele>
        <time>2021-06-23T10:43:35Z</time>
      </trkpt>
      <trkpt lat="48.28847" lon="6.95041">
        <ele>342.01</ele>
        <time>2021-06-23T10:43:40Z</time>
      </trkpt>
      <trkpt lat="48.28854" lon="6.95014">
        <ele>342.1</ele>
        <time>2021-06-23T10:43:45Z</time>
      </trkpt>
      <trkpt lat="48.28858" lon="6.94969">
        <ele>340</ele>
        <time>2021-06-23T10:43:51Z</time>
      </trkpt>
      <trkpt lat="48.28866" lon="6.94961">
        <ele>340.11</ele>
        <time>2021-06-23T10:43:56Z</time>
      </trkpt>
      <trkpt lat="48.28879" lon="6.94954">
        <ele>340.22</ele>
        <time>2021-06-23T10:44:01Z</time>
      </trkpt>
      <trkpt lat="48.28958" lon="6.94971">
        <ele>339</ele>
        <time>2021-06-23T10:44:06Z</time>
      </trkpt>
      <trkpt lat="48.28965" lon="6.9496">
        <ele>339</ele>
        <time>2021-06-23T10:44:09Z</time>
      </trkpt>
      <trkpt lat="48.28971" lon="6.94964">
        <ele>339</ele>
        <time>2021-06-23T10:44:14Z</time>
      </trkpt>
      <trkpt lat="48.28974" lon="6.94963">
        <ele>339</ele>
        <time>2021-06-23T10:44:20Z</time>
      </trkpt>
      <trkpt lat="48.2898" lon="6.94968">
        <ele>339</ele>
        <time>2021-06-23T10:44:25Z</time>
      </trkpt>
      <trkpt lat="48.28992" lon="6.94973">
        <ele>339.02</ele>
        <time>2021-06-23T10:44:31Z</time>
      </trkpt>
      <trkpt lat="48.29055" lon="6.95079">
        <ele>344</ele>
        <time>2021-06-23T10:44:37Z</time>
      </trkpt>
      <trkpt lat="48.29079" lon="6.95112">
        <ele>344.2</ele>
        <time>2021-06-23T10:44:42Z</time>
      </trkpt>
      <trkpt lat="48.29175" lon="6.95117">
        <ele>345.24</ele>
        <time>2021-06-23T10:44:48Z</time>
      </trkpt>
      <trkpt lat="48.29291" lon="6.95119">
        <ele>346.19</ele>
        <time>2021-06-23T10:44:54Z</time>
      </trkpt>
      <trkpt lat="48.2941" lon="6.95126">
        <ele>345.92</ele>
        <time>2021-06-23T10:44:59Z</time>
      </trkpt>
      <trkpt lat="48.29497" lon="6.95126">
        <ele>351.35</ele>
        <time>2021-06-23T10:45:05Z</time>
      </trkpt>
      <trkpt lat="48.29513" lon="6.95122">
        <ele>351.11</ele>
        <time>2021-06-23T10:45:10Z</time>
      </trkpt>
      <trkpt lat="48.29531" lon="6.95112">
        <ele>350.96</ele>
        <time>2021-06-23T10:45:16Z</time>
      </trkpt>
      <trkpt lat="48.29559" lon="6.95089">
        <ele>353.34</ele>
        <time>2021-06-23T10:45:22Z</time>
      </trkpt>
      <trkpt lat="48.29631" lon="6.95024">
        <ele>359.61</ele>
        <time>2021-06-23T10:45:27Z</time>
      </trkpt>
      <trkpt lat="48.29642" lon="6.95019">
        <ele>359.99</ele>
        <time>2021-06-23T10:45:33Z</time>
      </trkpt>
      <trkpt lat="48.29654" lon="6.95017">
        <ele>360.51</ele>
        <time>2021-06-23T10:45:38Z</time>
      </trkpt>
      <trkpt lat="48.29749" lon="6.95034">
        <ele>356.52</ele>
        <time>2021-06-23T10:45:44Z</time>
      </trkpt>
      <trkpt lat="48.29763" lon="6.95032">
        <ele>357.15</ele>
        <time>2021-06-23T10:45:50Z</time>
      </trkpt>
      <trkpt lat="48.29791" lon="6.95018">
        <ele>361.75</ele>
        <time>2021-06-23T10:45:55Z</time>
      </trkpt>
      <trkpt lat="48.29824" lon="6.95016">
        <ele>363.54</ele>
        <time>2021-06-23T10:46:01Z</time>
      </trkpt>
      <trkpt lat="48.29855" lon="6.95023">
        <ele>362.44</ele>
        <time>2021-06-23T10:46:07Z</time>
      </trkpt>
      <trkpt lat="48.29896" lon="6.9504">
        <ele>361.72</ele>
        <time>2021-06-23T10:46:12Z</time>
      </trkpt>
      <trkpt lat="48.29963" lon="6.95088">
        <ele>363.95</ele>
        <time>2021-06-23T10:46:18Z</time>
      </trkpt>
      <trkpt lat="48.30002" lon="6.95111">
        <ele>363.05</ele>
        <time>2021-06-23T10:46:23Z</time>
      </trkpt>
      <trkpt lat="48.30051" lon="6.95136">
        <ele>362.12</ele>
        <time>2021-06-23T10:46:29Z</time>
      </trkpt>
      <trkpt lat="48.30092" lon="6.95152">
        <ele>361.02</ele>
        <time>2021-06-23T10:46:35Z</time>
      </trkpt>
      <trkpt lat="48.30112" lon="6.95165">
        <ele>361</ele>
        <time>2021-06-23T10:46:40Z</time>
      </trkpt>
      <trkpt lat="48.30131" lon="6.95175">
        <ele>360.91</ele>
        <time>2021-06-23T10:46:46Z</time>
      </trkpt>
      <trkpt lat="48.30163" lon="6.95191">
        <ele>361</ele>
        <time>2021-06-23T10:46:51Z</time>
      </trkpt>
      <trkpt lat="48.30209" lon="6.95191">
        <ele>361.65</ele>
        <time>2021-06-23T10:46:57Z</time>
      </trkpt>
      <trkpt lat="48.30275" lon="6.95181">
        <ele>364.77</ele>
        <time>2021-06-23T10:47:03Z</time>
      </trkpt>
      <trkpt lat="48.30326" lon="6.9516">
        <ele>365.99</ele>
        <time>2021-06-23T10:47:08Z</time>
      </trkpt>
      <trkpt lat="48.30341" lon="6.95162">
        <ele>365.64</ele>
        <time>2021-06-23T10:47:14Z</time>
      </trkpt>
      <trkpt lat="48.30352" lon="6.95168">
        <ele>365.63</ele>
        <time>2021-06-23T10:47:20Z</time>
      </trkpt>
      <trkpt lat="48.30378" lon="6.95201">
        <ele>365.64</ele>
        <time>2021-06-23T10:47:25Z</time>
      </trkpt>
      <trkpt lat="48.30393" lon="6.95237">
        <ele>367.16</ele>
        <time>2021-06-23T10:47:31Z</time>
      </trkpt>
      <trkpt lat="48.30409" lon="6.95268">
        <ele>366.42</ele>
        <time>2021-06-23T10:47:36Z</time>
      </trkpt>
      <trkpt lat="48.30458" lon="6.95343">
        <ele>365.26</ele>
        <time>2021-06-23T10:47:42Z</time>
      </trkpt>
      <trkpt lat="48.3047" lon="6.95367">
        <ele>364.39</ele>
        <time>2021-06-23T10:47:48Z</time>
      </trkpt>
      <trkpt lat="48.30476" lon="6.95391">
        <ele>363.43</ele>
        <time>2021-06-23T10:47:53Z</time>
      </trkpt>
      <trkpt lat="48.30498" lon="6.95506">
        <ele>364.58</ele>
        <time>2021-06-23T10:47:59Z</time>
      </trkpt>
      <trkpt lat="48.30505" lon="6.95521">
        <ele>364.23</ele>
        <time>2021-06-23T10:48:04Z</time>
      </trkpt>
      <trkpt lat="48.30514" lon="6.9553">
        <ele>364.09</ele>
        <time>2021-06-23T10:48:10Z</time>
      </trkpt>
      <trkpt lat="48.30569" lon="6.95568">
        <ele>367.43</ele>
        <time>2021-06-23T10:48:16Z</time>
      </trkpt>
      <trkpt lat="48.30606" lon="6.95597">
        <ele>369.24</ele>
        <time>2021-06-23T10:48:21Z</time>
      </trkpt>
      <trkpt lat="48.30717" lon="6.95689">
        <ele>372.8</ele>
        <time>2021-06-23T10:48:27Z</time>
      </trkpt>
      <trkpt lat="48.30886" lon="6.95822">
        <ele>379.13</ele>
        <time>2021-06-23T10:48:33Z</time>
      </trkpt>
      <trkpt lat="48.3091" lon="6.95836">
        <ele>379.63</ele>
        <time>2021-06-23T10:48:38Z</time>
      </trkpt>
      <trkpt lat="48.31009" lon="6.95876">
        <ele>383.52</ele>
        <time>2021-06-23T10:48:44Z</time>
      </trkpt>
      <trkpt lat="48.31048" lon="6.959">
        <ele>384.8</ele>
        <time>2021-06-23T10:48:49Z</time>
      </trkpt>
      <trkpt lat="48.31069" lon="6.95918">
        <ele>384.45</ele>
        <time>2021-06-23T10:48:55Z</time>
      </trkpt>
      <trkpt lat="48.31115" lon="6.95969">
        <ele>383.47</ele>
        <time>2021-06-23T10:49:01Z</time>
      </trkpt>
      <trkpt lat="48.31136" lon="6.95996">
        <ele>382.17</ele>
        <time>2021-06-23T10:49:06Z</time>
      </trkpt>
      <trkpt lat="48.31175" lon="6.96059">
        <ele>381.68</ele>
        <time>2021-06-23T10:49:12Z</time>
      </trkpt>
      <trkpt lat="48.31197" lon="6.96089">
        <ele>383.72</ele>
        <time>2021-06-23T10:49:17Z</time>
      </trkpt>
      <trkpt lat="48.31224" lon="6.96118">
        <ele>387.66</ele>
        <time>2021-06-23T10:49:23Z</time>
      </trkpt>
      <trkpt lat="48.31261" lon="6.9614">
        <ele>392.57</ele>
        <time>2021-06-23T10:49:29Z</time>
      </trkpt>
      <trkpt lat="48.31277" lon="6.96146">
        <ele>394.3</ele>
        <time>2021-06-23T10:49:34Z</time>
      </trkpt>
      <trkpt lat="48.31327" lon="6.96147">
        <ele>398.72</ele>
        <time>2021-06-23T10:49:40Z</time>
      </trkpt>
      <trkpt lat="48.31364" lon="6.96162">
        <ele>403.31</ele>
        <time>2021-06-23T10:49:45Z</time>
      </trkpt>
      <trkpt lat="48.31403" lon="6.96181">
        <ele>406.53</ele>
        <time>2021-06-23T10:49:51Z</time>
      </trkpt>
      <trkpt lat="48.31545" lon="6.96236">
        <ele>412.11</ele>
        <time>2021-06-23T10:49:57Z</time>
      </trkpt>
      <trkpt lat="48.31576" lon="6.96252">
        <ele>416.79</ele>
        <time>2021-06-23T10:50:02Z</time>
      </trkpt>
      <trkpt lat="48.31592" lon="6.96263">
        <ele>420.46</ele>
        <time>2021-06-23T10:50:08Z</time>
      </trkpt>
      <trkpt lat="48.31601" lon="6.96278">
        <ele>423.94</ele>
        <time>2021-06-23T10:50:14Z</time>
      </trkpt>
      <trkpt lat="48.31602" lon="6.96288">
        <ele>425.28</ele>
        <time>2021-06-23T10:50:19Z</time>
      </trkpt>
      <trkpt lat="48.316" lon="6.96297">
        <ele>425.8</ele>
        <time>2021-06-23T10:50:25Z</time>
      </trkpt>
      <trkpt lat="48.316" lon="6.96297">
        <ele>425.8</ele>
        <time>2021-06-23T10:50:25Z</time>
      </trkpt>
      <trkpt lat="48.31596" lon="6.96306">
        <ele>426.95</ele>
        <time>2021-06-23T10:50:27Z</time>
      </trkpt>
      <trkpt lat="48.3159" lon="6.96308">
        <ele>426.79</ele>
        <time>2021-06-23T10:50:29Z</time>
      </trkpt>
      <trkpt lat="48.31584" lon="6.96307">
        <ele>426.27</ele>
        <time>2021-06-23T10:50:32Z</time>
      </trkpt>
      <trkpt lat="48.31551" lon="6.96273">
        <ele>420.03</ele>
        <time>2021-06-23T10:50:34Z</time>
      </trkpt>
      <trkpt lat="48.31538" lon="6.96267">
        <ele>418.91</ele>
        <time>2021-06-23T10:50:36Z</time>
      </trkpt>
      <trkpt lat="48.31522" lon="6.96266">
        <ele>419.14</ele>
        <time>2021-06-23T10:50:39Z</time>
      </trkpt>
      <trkpt lat="48.3143" lon="6.96276">
        <ele>427.5</ele>
        <time>2021-06-23T10:50:41Z</time>
      </trkpt>
      <trkpt lat="48.31387" lon="6.96275">
        <ele>429.38</ele>
        <time>2021-06-23T10:50:43Z</time>
      </trkpt>
      <trkpt lat="48.31377" lon="6.96278">
        <ele>429.14</ele>
        <time>2021-06-23T10:50:46Z</time>
      </trkpt>
      <trkpt lat="48.31373" lon="6.96282">
        <ele>429</ele>
        <time>2021-06-23T10:50:48Z</time>
      </trkpt>
      <trkpt lat="48.3137" lon="6.9629">
        <ele>429.1</ele>
        <time>2021-06-23T10:50:50Z</time>
      </trkpt>
      <trkpt lat="48.31371" lon="6.96303">
        <ele>429.58</ele>
        <time>2021-06-23T10:50:53Z</time>
      </trkpt>
      <trkpt lat="48.31383" lon="6.96325">
        <ele>433.02</ele>
        <time>2021-06-23T10:50:55Z</time>
      </trkpt>
      <trkpt lat="48.3141" lon="6.96363">
        <ele>437.94</ele>
        <time>2021-06-23T10:50:57Z</time>
      </trkpt>
      <trkpt lat="48.31448" lon="6.96424">
        <ele>443.15</ele>
        <time>2021-06-23T10:50:59Z</time>
      </trkpt>
      <trkpt lat="48.31499" lon="6.96514">
        <ele>452.3</ele>
        <time>2021-06-23T10:51:02Z</time>
      </trkpt>
      <trkpt lat="48.31521" lon="6.96561">
        <ele>456.45</ele>
        <time>2021-06-23T10:51:04Z</time>
      </trkpt>
      <trkpt lat="48.31538" lon="6.96608">
        <ele>458.38</ele>
        <time>2021-06-23T10:51:06Z</time>
      </trkpt>
      <trkpt lat="48.31554" lon="6.96641">
        <ele>459.31</ele>
        <time>2021-06-23T10:51:09Z</time>
      </trkpt>
      <trkpt lat="48.31565" lon="6.96656">
        <ele>459.24</ele>
        <time>2021-06-23T10:51:11Z</time>
      </trkpt>
      <trkpt lat="48.31577" lon="6.96665">
        <ele>460.82</ele>
        <time>2021-06-23T10:51:13Z</time>
      </trkpt>
      <trkpt lat="48.31592" lon="6.96671">
        <ele>462</ele>
        <time>2021-06-23T10:51:16Z</time>
      </trkpt>
      <trkpt lat="48.31608" lon="6.96672">
        <ele>463.11</ele>
        <time>2021-06-23T10:51:18Z</time>
      </trkpt>
      <trkpt lat="48.31642" lon="6.96668">
        <ele>464.07</ele>
        <time>2021-06-23T10:51:20Z</time>
      </trkpt>
      <trkpt lat="48.31658" lon="6.96671">
        <ele>464.53</ele>
        <time>2021-06-23T10:51:23Z</time>
      </trkpt>
      <trkpt lat="48.31695" lon="6.9669">
        <ele>466.92</ele>
        <time>2021-06-23T10:51:25Z</time>
      </trkpt>
      <trkpt lat="48.31716" lon="6.96704">
        <ele>469.19</ele>
        <time>2021-06-23T10:51:27Z</time>
      </trkpt>
      <trkpt lat="48.31729" lon="6.96718">
        <ele>470.72</ele>
        <time>2021-06-23T10:51:30Z</time>
      </trkpt>
      <trkpt lat="48.3174" lon="6.96733">
        <ele>471.73</ele>
        <time>2021-06-23T10:51:32Z</time>
      </trkpt>
      <trkpt lat="48.31765" lon="6.968">
        <ele>474.89</ele>
        <time>2021-06-23T10:51:34Z</time>
      </trkpt>
      <trkpt lat="48.31783" lon="6.96831">
        <ele>478.06</ele>
        <time>2021-06-23T10:51:36Z</time>
      </trkpt>
      <trkpt lat="48.31834" lon="6.96901">
        <ele>486.15</ele>
        <time>2021-06-23T10:51:39Z</time>
      </trkpt>
      <trkpt lat="48.31837" lon="6.96913">
        <ele>486.91</ele>
        <time>2021-06-23T10:51:41Z</time>
      </trkpt>
      <trkpt lat="48.31837" lon="6.96926">
        <ele>487.28</ele>
        <time>2021-06-23T10:51:43Z</time>
      </trkpt>
      <trkpt lat="48.31829" lon="6.96947">
        <ele>486.8</ele>
        <time>2021-06-23T10:51:46Z</time>
      </trkpt>
      <trkpt lat="48.31801" lon="6.96976">
        <ele>486.73</ele>
        <time>2021-06-23T10:51:48Z</time>
      </trkpt>
      <trkpt lat="48.31776" lon="6.96997">
        <ele>484.49</ele>
        <time>2021-06-23T10:51:50Z</time>
      </trkpt>
      <trkpt lat="48.3176" lon="6.97014">
        <ele>484.66</ele>
        <time>2021-06-23T10:51:53Z</time>
      </trkpt>
      <trkpt lat="48.31751" lon="6.9703">
        <ele>485.31</ele>
        <time>2021-06-23T10:51:55Z</time>
      </trkpt>
      <trkpt lat="48.31744" lon="6.97048">
        <ele>485.83</ele>
        <time>2021-06-23T10:51:57Z</time>
      </trkpt>
      <trkpt lat="48.31738" lon="6.97079">
        <ele>486.67</ele>
        <time>2021-06-23T10:52:00Z</time>
      </trkpt>
      <trkpt lat="48.31737" lon="6.97101">
        <ele>487.4</ele>
        <time>2021-06-23T10:52:02Z</time>
      </trkpt>
      <trkpt lat="48.31741" lon="6.97149">
        <ele>487.9</ele>
        <time>2021-06-23T10:52:04Z</time>
      </trkpt>
      <trkpt lat="48.31747" lon="6.9718">
        <ele>488.53</ele>
        <time>2021-06-23T10:52:06Z</time>
      </trkpt>
      <trkpt lat="48.31756" lon="6.97207">
        <ele>490</ele>
        <time>2021-06-23T10:52:09Z</time>
      </trkpt>
      <trkpt lat="48.31765" lon="6.97229">
        <ele>491.65</ele>
        <time>2021-06-23T10:52:11Z</time>
      </trkpt>
      <trkpt lat="48.31781" lon="6.97257">
        <ele>494.39</ele>
        <time>2021-06-23T10:52:13Z</time>
      </trkpt>
      <trkpt lat="48.31829" lon="6.97308">
        <ele>499.04</ele>
        <time>2021-06-23T10:52:16Z</time>
      </trkpt>
      <trkpt lat="48.31839" lon="6.97323">
        <ele>499.81</ele>
        <time>2021-06-23T10:52:18Z</time>
      </trkpt>
      <trkpt lat="48.3191" lon="6.97484">
        <ele>511.43</ele>
        <time>2021-06-23T10:52:20Z</time>
      </trkpt>
      <trkpt lat="48.31972" lon="6.97629">
        <ele>516</ele>
        <time>2021-06-23T10:52:23Z</time>
      </trkpt>
      <trkpt lat="48.31994" lon="6.97672">
        <ele>518.35</ele>
        <time>2021-06-23T10:52:25Z</time>
      </trkpt>
      <trkpt lat="48.32002" lon="6.97684">
        <ele>518.94</ele>
        <time>2021-06-23T10:52:27Z</time>
      </trkpt>
      <trkpt lat="48.32017" lon="6.977">
        <ele>520.46</ele>
        <time>2021-06-23T10:52:30Z</time>
      </trkpt>
      <trkpt lat="48.32053" lon="6.97717">
        <ele>526.1</ele>
        <time>2021-06-23T10:52:32Z</time>
      </trkpt>
      <trkpt lat="48.32068" lon="6.9773">
        <ele>527.99</ele>
        <time>2021-06-23T10:52:34Z</time>
      </trkpt>
      <trkpt lat="48.32077" lon="6.97746">
        <ele>527.59</ele>
        <time>2021-06-23T10:52:37Z</time>
      </trkpt>
      <trkpt lat="48.32085" lon="6.97774">
        <ele>526.96</ele>
        <time>2021-06-23T10:52:39Z</time>
      </trkpt>
      <trkpt lat="48.32091" lon="6.97803">
        <ele>528.59</ele>
        <time>2021-06-23T10:52:41Z</time>
      </trkpt>
      <trkpt lat="48.32117" lon="6.9797">
        <ele>528.94</ele>
        <time>2021-06-23T10:52:43Z</time>
      </trkpt>
      <trkpt lat="48.32126" lon="6.98006">
        <ele>527.84</ele>
        <time>2021-06-23T10:52:46Z</time>
      </trkpt>
      <trkpt lat="48.32138" lon="6.98042">
        <ele>527.77</ele>
        <time>2021-06-23T10:52:48Z</time>
      </trkpt>
      <trkpt lat="48.32147" lon="6.98064">
        <ele>528.3</ele>
        <time>2021-06-23T10:52:50Z</time>
      </trkpt>
      <trkpt lat="48.32165" lon="6.98092">
        <ele>527.3</ele>
        <time>2021-06-23T10:52:53Z</time>
      </trkpt>
      <trkpt lat="48.32196" lon="6.98113">
        <ele>526.68</ele>
        <time>2021-06-23T10:52:55Z</time>
      </trkpt>
      <trkpt lat="48.32227" lon="6.98122">
        <ele>523.89</ele>
        <time>2021-06-23T10:52:57Z</time>
      </trkpt>
      <trkpt lat="48.32246" lon="6.98122">
        <ele>521.27</ele>
        <time>2021-06-23T10:53:00Z</time>
      </trkpt>
      <trkpt lat="48.32261" lon="6.98118">
        <ele>518.33</ele>
        <time>2021-06-23T10:53:02Z</time>
      </trkpt>
      <trkpt lat="48.32289" lon="6.98098">
        <ele>514.37</ele>
        <time>2021-06-23T10:53:04Z</time>
      </trkpt>
      <trkpt lat="48.32303" lon="6.98078">
        <ele>512.84</ele>
        <time>2021-06-23T10:53:07Z</time>
      </trkpt>
      <trkpt lat="48.32375" lon="6.97922">
        <ele>503.41</ele>
        <time>2021-06-23T10:53:09Z</time>
      </trkpt>
      <trkpt lat="48.32386" lon="6.97885">
        <ele>502.54</ele>
        <time>2021-06-23T10:53:11Z</time>
      </trkpt>
      <trkpt lat="48.32398" lon="6.97844">
        <ele>498.82</ele>
        <time>2021-06-23T10:53:14Z</time>
      </trkpt>
      <trkpt lat="48.3241" lon="6.97759">
        <ele>497.49</ele>
        <time>2021-06-23T10:53:16Z</time>
      </trkpt>
      <trkpt lat="48.32415" lon="6.97749">
        <ele>497.09</ele>
        <time>2021-06-23T10:53:18Z</time>
      </trkpt>
      <trkpt lat="48.32427" lon="6.97742">
        <ele>496.33</ele>
        <time>2021-06-23T10:53:20Z</time>
      </trkpt>
      <trkpt lat="48.32434" lon="6.97742">
        <ele>496.07</ele>
        <time>2021-06-23T10:53:23Z</time>
      </trkpt>
      <trkpt lat="48.32441" lon="6.97746">
        <ele>495.97</ele>
        <time>2021-06-23T10:53:25Z</time>
      </trkpt>
      <trkpt lat="48.32447" lon="6.97756">
        <ele>495.38</ele>
        <time>2021-06-23T10:53:27Z</time>
      </trkpt>
      <trkpt lat="48.32451" lon="6.97771">
        <ele>494.28</ele>
        <time>2021-06-23T10:53:30Z</time>
      </trkpt>
      <trkpt lat="48.32458" lon="6.97821">
        <ele>492.44</ele>
        <time>2021-06-23T10:53:32Z</time>
      </trkpt>
      <trkpt lat="48.32488" lon="6.9793">
        <ele>488.45</ele>
        <time>2021-06-23T10:53:34Z</time>
      </trkpt>
      <trkpt lat="48.32513" lon="6.98009">
        <ele>484.72</ele>
        <time>2021-06-23T10:53:37Z</time>
      </trkpt>
      <trkpt lat="48.32527" lon="6.98057">
        <ele>482.99</ele>
        <time>2021-06-23T10:53:39Z</time>
      </trkpt>
      <trkpt lat="48.32527" lon="6.98076">
        <ele>482.28</ele>
        <time>2021-06-23T10:53:41Z</time>
      </trkpt>
      <trkpt lat="48.32524" lon="6.98097">
        <ele>480.67</ele>
        <time>2021-06-23T10:53:44Z</time>
      </trkpt>
      <trkpt lat="48.32504" lon="6.98147">
        <ele>479.71</ele>
        <time>2021-06-23T10:53:46Z</time>
      </trkpt>
      <trkpt lat="48.32502" lon="6.98165">
        <ele>479.88</ele>
        <time>2021-06-23T10:53:48Z</time>
      </trkpt>
      <trkpt lat="48.32503" lon="6.98187">
        <ele>479.74</ele>
        <time>2021-06-23T10:53:50Z</time>
      </trkpt>
      <trkpt lat="48.32507" lon="6.98203">
        <ele>479.02</ele>
        <time>2021-06-23T10:53:53Z</time>
      </trkpt>
      <trkpt lat="48.32516" lon="6.98223">
        <ele>477.82</ele>
        <time>2021-06-23T10:53:55Z</time>
      </trkpt>
      <trkpt lat="48.32542" lon="6.98256">
        <ele>474.6</ele>
        <time>2021-06-23T10:53:57Z</time>
      </trkpt>
      <trkpt lat="48.32573" lon="6.98291">
        <ele>473.02</ele>
        <time>2021-06-23T10:54:00Z</time>
      </trkpt>
      <trkpt lat="48.32615" lon="6.98313">
        <ele>474.95</ele>
        <time>2021-06-23T10:54:02Z</time>
      </trkpt>
      <trkpt lat="48.32706" lon="6.98385">
        <ele>475.98</ele>
        <time>2021-06-23T10:54:04Z</time>
      </trkpt>
      <trkpt lat="48.32769" lon="6.9839">
        <ele>468.48</ele>
        <time>2021-06-23T10:54:07Z</time>
      </trkpt>
      <trkpt lat="48.3283" lon="6.98384">
        <ele>457.13</ele>
        <time>2021-06-23T10:54:09Z</time>
      </trkpt>
      <trkpt lat="48.32882" lon="6.98362">
        <ele>448.89</ele>
        <time>2021-06-23T10:54:11Z</time>
      </trkpt>
      <trkpt lat="48.32929" lon="6.98361">
        <ele>444.02</ele>
        <time>2021-06-23T10:54:14Z</time>
      </trkpt>
      <trkpt lat="48.32958" lon="6.98346">
        <ele>444.06</ele>
        <time>2021-06-23T10:54:16Z</time>
      </trkpt>
      <trkpt lat="48.32987" lon="6.98345">
        <ele>445.89</ele>
        <time>2021-06-23T10:54:18Z</time>
      </trkpt>
      <trkpt lat="48.33041" lon="6.9837">
        <ele>446.55</ele>
        <time>2021-06-23T10:54:21Z</time>
      </trkpt>
      <trkpt lat="48.33065" lon="6.9839">
        <ele>440.91</ele>
        <time>2021-06-23T10:54:23Z</time>
      </trkpt>
      <trkpt lat="48.33116" lon="6.98458">
        <ele>432.99</ele>
        <time>2021-06-23T10:54:25Z</time>
      </trkpt>
      <trkpt lat="48.3318" lon="6.98556">
        <ele>420.13</ele>
        <time>2021-06-23T10:54:27Z</time>
      </trkpt>
      <trkpt lat="48.33189" lon="6.98576">
        <ele>419.65</ele>
        <time>2021-06-23T10:54:30Z</time>
      </trkpt>
      <trkpt lat="48.33195" lon="6.98596">
        <ele>419.88</ele>
        <time>2021-06-23T10:54:32Z</time>
      </trkpt>
      <trkpt lat="48.33215" lon="6.98693">
        <ele>415.99</ele>
        <time>2021-06-23T10:54:34Z</time>
      </trkpt>
      <trkpt lat="48.33225" lon="6.98718">
        <ele>414.28</ele>
        <time>2021-06-23T10:54:37Z</time>
      </trkpt>
      <trkpt lat="48.33243" lon="6.98743">
        <ele>413.75</ele>
        <time>2021-06-23T10:54:39Z</time>
      </trkpt>
      <trkpt lat="48.33269" lon="6.98763">
        <ele>411.94</ele>
        <time>2021-06-23T10:54:41Z</time>
      </trkpt>
      <trkpt lat="48.33289" lon="6.98796">
        <ele>410.81</ele>
        <time>2021-06-23T10:54:44Z</time>
      </trkpt>
      <trkpt lat="48.33293" lon="6.98809">
        <ele>410.27</ele>
        <time>2021-06-23T10:54:46Z</time>
      </trkpt>
      <trkpt lat="48.33285" lon="6.9883">
        <ele>411.02</ele>
        <time>2021-06-23T10:54:49Z</time>
      </trkpt>
      <trkpt lat="48.33248" lon="6.98961">
        <ele>410.69</ele>
        <time>2021-06-23T10:54:51Z</time>
      </trkpt>
      <trkpt lat="48.33247" lon="6.98992">
        <ele>408.75</ele>
        <time>2021-06-23T10:54:54Z</time>
      </trkpt>
      <trkpt lat="48.33254" lon="6.99025">
        <ele>405.04</ele>
        <time>2021-06-23T10:54:57Z</time>
      </trkpt>
      <trkpt lat="48.33306" lon="6.99167">
        <ele>406</ele>
        <time>2021-06-23T10:54:59Z</time>
      </trkpt>
      <trkpt lat="48.33356" lon="6.99279">
        <ele>411.87</ele>
        <time>2021-06-23T10:55:02Z</time>
      </trkpt>
      <trkpt lat="48.33442" lon="6.99449">
        <ele>419.25</ele>
        <time>2021-06-23T10:55:05Z</time>
      </trkpt>
      <trkpt lat="48.33502" lon="6.99546">
        <ele>435.52</ele>
        <time>2021-06-23T10:55:07Z</time>
      </trkpt>
      <trkpt lat="48.33521" lon="6.99555">
        <ele>434.85</ele>
        <time>2021-06-23T10:55:10Z</time>
      </trkpt>
      <trkpt lat="48.33538" lon="6.99557">
        <ele>434.64</ele>
        <time>2021-06-23T10:55:12Z</time>
      </trkpt>
      <trkpt lat="48.33547" lon="6.99554">
        <ele>434.65</ele>
        <time>2021-06-23T10:55:15Z</time>
      </trkpt>
      <trkpt lat="48.33565" lon="6.99536">
        <ele>437.17</ele>
        <time>2021-06-23T10:55:18Z</time>
      </trkpt>
      <trkpt lat="48.33579" lon="6.99492">
        <ele>438.3</ele>
        <time>2021-06-23T10:55:20Z</time>
      </trkpt>
      <trkpt lat="48.336" lon="6.9945">
        <ele>440.04</ele>
        <time>2021-06-23T10:55:23Z</time>
      </trkpt>
      <trkpt lat="48.336" lon="6.99386">
        <ele>437.87</ele>
        <time>2021-06-23T10:55:26Z</time>
      </trkpt>
      <trkpt lat="48.33607" lon="6.9935">
        <ele>439.21</ele>
        <time>2021-06-23T10:55:28Z</time>
      </trkpt>
      <trkpt lat="48.33699" lon="6.99195">
        <ele>439.9</ele>
        <time>2021-06-23T10:55:31Z</time>
      </trkpt>
      <trkpt lat="48.33711" lon="6.99188">
        <ele>441.52</ele>
        <time>2021-06-23T10:55:34Z</time>
      </trkpt>
      <trkpt lat="48.33721" lon="6.99197">
        <ele>444.08</ele>
        <time>2021-06-23T10:55:36Z</time>
      </trkpt>
      <trkpt lat="48.33722" lon="6.99214">
        <ele>446.02</ele>
        <time>2021-06-23T10:55:39Z</time>
      </trkpt>
      <trkpt lat="48.33703" lon="6.99282">
        <ele>451.1</ele>
        <time>2021-06-23T10:55:42Z</time>
      </trkpt>
      <trkpt lat="48.33693" lon="6.99356">
        <ele>457.29</ele>
        <time>2021-06-23T10:55:44Z</time>
      </trkpt>
      <trkpt lat="48.3366" lon="6.99519">
        <ele>460.11</ele>
        <time>2021-06-23T10:55:47Z</time>
      </trkpt>
      <trkpt lat="48.33657" lon="6.99538">
        <ele>460.03</ele>
        <time>2021-06-23T10:55:50Z</time>
      </trkpt>
      <trkpt lat="48.33657" lon="6.99564">
        <ele>460.8</ele>
        <time>2021-06-23T10:55:52Z</time>
      </trkpt>
      <trkpt lat="48.33663" lon="6.99711">
        <ele>473.23</ele>
        <time>2021-06-23T10:55:55Z</time>
      </trkpt>
      <trkpt lat="48.33677" lon="6.99802">
        <ele>476.01</ele>
        <time>2021-06-23T10:55:57Z</time>
      </trkpt>
      <trkpt lat="48.33684" lon="6.99823">
        <ele>476.25</ele>
        <time>2021-06-23T10:56:00Z</time>
      </trkpt>
      <trkpt lat="48.33692" lon="6.99833">
        <ele>478.08</ele>
        <time>2021-06-23T10:56:03Z</time>
      </trkpt>
      <trkpt lat="48.33724" lon="6.99852">
        <ele>483.65</ele>
        <time>2021-06-23T10:56:05Z</time>
      </trkpt>
      <trkpt lat="48.33745" lon="6.99868">
        <ele>486.67</ele>
        <time>2021-06-23T10:56:08Z</time>
      </trkpt>
      <trkpt lat="48.33753" lon="6.99887">
        <ele>486.87</ele>
        <time>2021-06-23T10:56:11Z</time>
      </trkpt>
      <trkpt lat="48.33754" lon="6.99899">
        <ele>487.51</ele>
        <time>2021-06-23T10:56:13Z</time>
      </trkpt>
      <trkpt lat="48.33753" lon="6.99911">
        <ele>487.77</ele>
        <time>2021-06-23T10:56:16Z</time>
      </trkpt>
      <trkpt lat="48.33736" lon="6.99973">
        <ele>487.98</ele>
        <time>2021-06-23T10:56:19Z</time>
      </trkpt>
      <trkpt lat="48.33731" lon="7.00058">
        <ele>491.36</ele>
        <time>2021-06-23T10:56:21Z</time>
      </trkpt>
      <trkpt lat="48.33748" lon="7.00184">
        <ele>500.71</ele>
        <time>2021-06-23T10:56:24Z</time>
      </trkpt>
      <trkpt lat="48.33772" lon="7.00327">
        <ele>506.98</ele>
        <time>2021-06-23T10:56:27Z</time>
      </trkpt>
      <trkpt lat="48.33774" lon="7.00348">
        <ele>507.9</ele>
        <time>2021-06-23T10:56:29Z</time>
      </trkpt>
      <trkpt lat="48.33773" lon="7.00401">
        <ele>506.01</ele>
        <time>2021-06-23T10:56:32Z</time>
      </trkpt>
      <trkpt lat="48.33746" lon="7.00631">
        <ele>505.44</ele>
        <time>2021-06-23T10:56:34Z</time>
      </trkpt>
      <trkpt lat="48.33745" lon="7.00667">
        <ele>505.46</ele>
        <time>2021-06-23T10:56:37Z</time>
      </trkpt>
      <trkpt lat="48.33748" lon="7.00687">
        <ele>506.48</ele>
        <time>2021-06-23T10:56:40Z</time>
      </trkpt>
      <trkpt lat="48.33754" lon="7.00703">
        <ele>507.47</ele>
        <time>2021-06-23T10:56:42Z</time>
      </trkpt>
      <trkpt lat="48.3376" lon="7.00715">
        <ele>508.5</ele>
        <time>2021-06-23T10:56:45Z</time>
      </trkpt>
      <trkpt lat="48.33773" lon="7.00736">
        <ele>511.52</ele>
        <time>2021-06-23T10:56:48Z</time>
      </trkpt>
      <trkpt lat="48.33817" lon="7.00793">
        <ele>515.36</ele>
        <time>2021-06-23T10:56:50Z</time>
      </trkpt>
      <trkpt lat="48.33854" lon="7.00849">
        <ele>519.3</ele>
        <time>2021-06-23T10:56:53Z</time>
      </trkpt>
      <trkpt lat="48.33882" lon="7.00907">
        <ele>520.93</ele>
        <time>2021-06-23T10:56:56Z</time>
      </trkpt>
      <trkpt lat="48.33898" lon="7.00927">
        <ele>522.27</ele>
        <time>2021-06-23T10:56:58Z</time>
      </trkpt>
      <trkpt lat="48.33912" lon="7.00943">
        <ele>523.52</ele>
        <time>2021-06-23T10:57:01Z</time>
      </trkpt>
      <trkpt lat="48.33955" lon="7.00961">
        <ele>525.77</ele>
        <time>2021-06-23T10:57:04Z</time>
      </trkpt>
      <trkpt lat="48.34033" lon="7.00963">
        <ele>527.83</ele>
        <time>2021-06-23T10:57:06Z</time>
      </trkpt>
      <trkpt lat="48.34077" lon="7.00956">
        <ele>531.15</ele>
        <time>2021-06-23T10:57:09Z</time>
      </trkpt>
      <trkpt lat="48.3409" lon="7.00961">
        <ele>531.59</ele>
        <time>2021-06-23T10:57:11Z</time>
      </trkpt>
      <trkpt lat="48.34102" lon="7.00969">
        <ele>531.61</ele>
        <time>2021-06-23T10:57:14Z</time>
      </trkpt>
      <trkpt lat="48.34114" lon="7.00981">
        <ele>531.72</ele>
        <time>2021-06-23T10:57:17Z</time>
      </trkpt>
      <trkpt lat="48.3413" lon="7.01011">
        <ele>532.39</ele>
        <time>2021-06-23T10:57:19Z</time>
      </trkpt>
      <trkpt lat="48.34226" lon="7.01273">
        <ele>543.63</ele>
        <time>2021-06-23T10:57:22Z</time>
      </trkpt>
      <trkpt lat="48.34241" lon="7.0131">
        <ele>545.39</ele>
        <time>2021-06-23T10:57:25Z</time>
      </trkpt>
      <trkpt lat="48.34268" lon="7.01359">
        <ele>548.32</ele>
        <time>2021-06-23T10:57:27Z</time>
      </trkpt>
      <trkpt lat="48.34286" lon="7.01387">
        <ele>548.92</ele>
        <time>2021-06-23T10:57:30Z</time>
      </trkpt>
      <trkpt lat="48.34323" lon="7.01429">
        <ele>550.38</ele>
        <time>2021-06-23T10:57:33Z</time>
      </trkpt>
      <trkpt lat="48.34362" lon="7.01456">
        <ele>551.61</ele>
        <time>2021-06-23T10:57:35Z</time>
      </trkpt>
      <trkpt lat="48.34383" lon="7.01477">
        <ele>553.16</ele>
        <time>2021-06-23T10:57:38Z</time>
      </trkpt>
      <trkpt lat="48.34401" lon="7.01501">
        <ele>553.85</ele>
        <time>2021-06-23T10:57:41Z</time>
      </trkpt>
      <trkpt lat="48.34416" lon="7.01526">
        <ele>554</ele>
        <time>2021-06-23T10:57:43Z</time>
      </trkpt>
      <trkpt lat="48.34453" lon="7.01619">
        <ele>556</ele>
        <time>2021-06-23T10:57:46Z</time>
      </trkpt>
      <trkpt lat="48.34453" lon="7.01619">
        <ele>556</ele>
        <time>2021-06-23T10:57:46Z</time>
      </trkpt>
      <trkpt lat="48.3446" lon="7.01641">
        <ele>559.21</ele>
        <time>2021-06-23T10:57:48Z</time>
      </trkpt>
      <trkpt lat="48.34463" lon="7.0166">
        <ele>560.61</ele>
        <time>2021-06-23T10:57:50Z</time>
      </trkpt>
      <trkpt lat="48.34463" lon="7.01676">
        <ele>561.62</ele>
        <time>2021-06-23T10:57:52Z</time>
      </trkpt>
      <trkpt lat="48.3446" lon="7.01696">
        <ele>562.22</ele>
        <time>2021-06-23T10:57:54Z</time>
      </trkpt>
      <trkpt lat="48.3441" lon="7.01866">
        <ele>562.56</ele>
        <time>2021-06-23T10:57:57Z</time>
      </trkpt>
      <trkpt lat="48.34403" lon="7.01903">
        <ele>562.75</ele>
        <time>2021-06-23T10:57:59Z</time>
      </trkpt>
      <trkpt lat="48.344" lon="7.01935">
        <ele>564.15</ele>
        <time>2021-06-23T10:58:01Z</time>
      </trkpt>
      <trkpt lat="48.34402" lon="7.01967">
        <ele>566.1</ele>
        <time>2021-06-23T10:58:03Z</time>
      </trkpt>
      <trkpt lat="48.34406" lon="7.01985">
        <ele>566.64</ele>
        <time>2021-06-23T10:58:05Z</time>
      </trkpt>
      <trkpt lat="48.34417" lon="7.02003">
        <ele>567.64</ele>
        <time>2021-06-23T10:58:07Z</time>
      </trkpt>
      <trkpt lat="48.34454" lon="7.02035">
        <ele>572.46</ele>
        <time>2021-06-23T10:58:09Z</time>
      </trkpt>
      <trkpt lat="48.34463" lon="7.02052">
        <ele>573.54</ele>
        <time>2021-06-23T10:58:11Z</time>
      </trkpt>
      <trkpt lat="48.34467" lon="7.02079">
        <ele>573.32</ele>
        <time>2021-06-23T10:58:13Z</time>
      </trkpt>
      <trkpt lat="48.34465" lon="7.02095">
        <ele>572.81</ele>
        <time>2021-06-23T10:58:16Z</time>
      </trkpt>
      <trkpt lat="48.34462" lon="7.0211">
        <ele>572.25</ele>
        <time>2021-06-23T10:58:18Z</time>
      </trkpt>
      <trkpt lat="48.34442" lon="7.02146">
        <ele>571.71</ele>
        <time>2021-06-23T10:58:20Z</time>
      </trkpt>
      <trkpt lat="48.34439" lon="7.02159">
        <ele>571.49</ele>
        <time>2021-06-23T10:58:22Z</time>
      </trkpt>
      <trkpt lat="48.34439" lon="7.02178">
        <ele>571.92</ele>
        <time>2021-06-23T10:58:24Z</time>
      </trkpt>
      <trkpt lat="48.34465" lon="7.02394">
        <ele>584.63</ele>
        <time>2021-06-23T10:58:26Z</time>
      </trkpt>
      <trkpt lat="48.34466" lon="7.02416">
        <ele>585.52</ele>
        <time>2021-06-23T10:58:28Z</time>
      </trkpt>
      <trkpt lat="48.34461" lon="7.02447">
        <ele>585.64</ele>
        <time>2021-06-23T10:58:30Z</time>
      </trkpt>
      <trkpt lat="48.34453" lon="7.02463">
        <ele>585.49</ele>
        <time>2021-06-23T10:58:33Z</time>
      </trkpt>
      <trkpt lat="48.34441" lon="7.02474">
        <ele>585.05</ele>
        <time>2021-06-23T10:58:35Z</time>
      </trkpt>
      <trkpt lat="48.34391" lon="7.02466">
        <ele>585.69</ele>
        <time>2021-06-23T10:58:37Z</time>
      </trkpt>
      <trkpt lat="48.34354" lon="7.02456">
        <ele>587.66</ele>
        <time>2021-06-23T10:58:39Z</time>
      </trkpt>
      <trkpt lat="48.34343" lon="7.02444">
        <ele>587.92</ele>
        <time>2021-06-23T10:58:41Z</time>
      </trkpt>
      <trkpt lat="48.34334" lon="7.02422">
        <ele>586.5</ele>
        <time>2021-06-23T10:58:43Z</time>
      </trkpt>
      <trkpt lat="48.34319" lon="7.024">
        <ele>587.08</ele>
        <time>2021-06-23T10:58:45Z</time>
      </trkpt>
      <trkpt lat="48.34287" lon="7.02372">
        <ele>588.78</ele>
        <time>2021-06-23T10:58:47Z</time>
      </trkpt>
      <trkpt lat="48.3425" lon="7.02348">
        <ele>597.56</ele>
        <time>2021-06-23T10:58:49Z</time>
      </trkpt>
      <trkpt lat="48.34222" lon="7.02347">
        <ele>598.45</ele>
        <time>2021-06-23T10:58:52Z</time>
      </trkpt>
      <trkpt lat="48.34196" lon="7.02356">
        <ele>597.58</ele>
        <time>2021-06-23T10:58:54Z</time>
      </trkpt>
      <trkpt lat="48.34132" lon="7.02384">
        <ele>598.88</ele>
        <time>2021-06-23T10:58:56Z</time>
      </trkpt>
      <trkpt lat="48.34027" lon="7.02435">
        <ele>612.04</ele>
        <time>2021-06-23T10:58:58Z</time>
      </trkpt>
      <trkpt lat="48.34014" lon="7.02449">
        <ele>612.49</ele>
        <time>2021-06-23T10:59:00Z</time>
      </trkpt>
      <trkpt lat="48.34005" lon="7.02466">
        <ele>612.32</ele>
        <time>2021-06-23T10:59:02Z</time>
      </trkpt>
      <trkpt lat="48.33999" lon="7.02487">
        <ele>611.94</ele>
        <time>2021-06-23T10:59:04Z</time>
      </trkpt>
      <trkpt lat="48.33996" lon="7.02513">
        <ele>611.51</ele>
        <time>2021-06-23T10:59:06Z</time>
      </trkpt>
      <trkpt lat="48.33994" lon="7.02546">
        <ele>611.3</ele>
        <time>2021-06-23T10:59:09Z</time>
      </trkpt>
      <trkpt lat="48.33987" lon="7.02843">
        <ele>625.26</ele>
        <time>2021-06-23T10:59:11Z</time>
      </trkpt>
      <trkpt lat="48.33985" lon="7.02909">
        <ele>626.41</ele>
        <time>2021-06-23T10:59:13Z</time>
      </trkpt>
      <trkpt lat="48.33979" lon="7.02981">
        <ele>628.86</ele>
        <time>2021-06-23T10:59:15Z</time>
      </trkpt>
      <trkpt lat="48.33952" lon="7.03159">
        <ele>633.49</ele>
        <time>2021-06-23T10:59:17Z</time>
      </trkpt>
      <trkpt lat="48.33953" lon="7.03192">
        <ele>633.78</ele>
        <time>2021-06-23T10:59:19Z</time>
      </trkpt>
      <trkpt lat="48.33957" lon="7.03219">
        <ele>633.98</ele>
        <time>2021-06-23T10:59:21Z</time>
      </trkpt>
      <trkpt lat="48.34033" lon="7.03575">
        <ele>651.02</ele>
        <time>2021-06-23T10:59:23Z</time>
      </trkpt>
      <trkpt lat="48.34034" lon="7.03597">
        <ele>648.95</ele>
        <time>2021-06-23T10:59:25Z</time>
      </trkpt>
      <trkpt lat="48.34024" lon="7.03683">
        <ele>644.08</ele>
        <time>2021-06-23T10:59:28Z</time>
      </trkpt>
      <trkpt lat="48.34018" lon="7.03817">
        <ele>650.51</ele>
        <time>2021-06-23T10:59:30Z</time>
      </trkpt>
      <trkpt lat="48.34019" lon="7.03842">
        <ele>650.54</ele>
        <time>2021-06-23T10:59:32Z</time>
      </trkpt>
      <trkpt lat="48.34044" lon="7.03918">
        <ele>650.91</ele>
        <time>2021-06-23T10:59:34Z</time>
      </trkpt>
      <trkpt lat="48.34054" lon="7.03938">
        <ele>651.19</ele>
        <time>2021-06-23T10:59:36Z</time>
      </trkpt>
      <trkpt lat="48.3407" lon="7.03958">
        <ele>654.09</ele>
        <time>2021-06-23T10:59:38Z</time>
      </trkpt>
      <trkpt lat="48.34094" lon="7.03977">
        <ele>657.95</ele>
        <time>2021-06-23T10:59:40Z</time>
      </trkpt>
      <trkpt lat="48.34132" lon="7.03991">
        <ele>667.26</ele>
        <time>2021-06-23T10:59:42Z</time>
      </trkpt>
      <trkpt lat="48.34163" lon="7.03997">
        <ele>674.31</ele>
        <time>2021-06-23T10:59:45Z</time>
      </trkpt>
      <trkpt lat="48.34189" lon="7.0402">
        <ele>677.94</ele>
        <time>2021-06-23T10:59:47Z</time>
      </trkpt>
      <trkpt lat="48.34199" lon="7.04055">
        <ele>677.39</ele>
        <time>2021-06-23T10:59:49Z</time>
      </trkpt>
      <trkpt lat="48.342" lon="7.04092">
        <ele>676.76</ele>
        <time>2021-06-23T10:59:51Z</time>
      </trkpt>
      <trkpt lat="48.34194" lon="7.04121">
        <ele>677.36</ele>
        <time>2021-06-23T10:59:53Z</time>
      </trkpt>
      <trkpt lat="48.34177" lon="7.04163">
        <ele>675.36</ele>
        <time>2021-06-23T10:59:55Z</time>
      </trkpt>
      <trkpt lat="48.34146" lon="7.04214">
        <ele>670.93</ele>
        <time>2021-06-23T10:59:57Z</time>
      </trkpt>
      <trkpt lat="48.34118" lon="7.04268">
        <ele>670.26</ele>
        <time>2021-06-23T10:59:59Z</time>
      </trkpt>
      <trkpt lat="48.341" lon="7.04312">
        <ele>671.45</ele>
        <time>2021-06-23T11:00:02Z</time>
      </trkpt>
      <trkpt lat="48.34098" lon="7.04342">
        <ele>673.64</ele>
        <time>2021-06-23T11:00:04Z</time>
      </trkpt>
      <trkpt lat="48.34104" lon="7.04373">
        <ele>676.88</ele>
        <time>2021-06-23T11:00:06Z</time>
      </trkpt>
      <trkpt lat="48.34106" lon="7.0441">
        <ele>680.1</ele>
        <time>2021-06-23T11:00:08Z</time>
      </trkpt>
      <trkpt lat="48.34103" lon="7.04448">
        <ele>682.9</ele>
        <time>2021-06-23T11:00:10Z</time>
      </trkpt>
      <trkpt lat="48.34095" lon="7.04475">
        <ele>684.05</ele>
        <time>2021-06-23T11:00:12Z</time>
      </trkpt>
      <trkpt lat="48.34084" lon="7.0449">
        <ele>684.91</ele>
        <time>2021-06-23T11:00:14Z</time>
      </trkpt>
      <trkpt lat="48.34064" lon="7.04499">
        <ele>687.99</ele>
        <time>2021-06-23T11:00:16Z</time>
      </trkpt>
      <trkpt lat="48.34016" lon="7.04514">
        <ele>689.64</ele>
        <time>2021-06-23T11:00:18Z</time>
      </trkpt>
      <trkpt lat="48.33959" lon="7.04526">
        <ele>690.83</ele>
        <time>2021-06-23T11:00:21Z</time>
      </trkpt>
      <trkpt lat="48.33923" lon="7.04543">
        <ele>695.02</ele>
        <time>2021-06-23T11:00:23Z</time>
      </trkpt>
      <trkpt lat="48.33906" lon="7.04575">
        <ele>697.54</ele>
        <time>2021-06-23T11:00:25Z</time>
      </trkpt>
      <trkpt lat="48.33888" lon="7.04652">
        <ele>701.86</ele>
        <time>2021-06-23T11:00:27Z</time>
      </trkpt>
      <trkpt lat="48.33865" lon="7.04826">
        <ele>704.43</ele>
        <time>2021-06-23T11:00:29Z</time>
      </trkpt>
      <trkpt lat="48.33821" lon="7.04991">
        <ele>706.25</ele>
        <time>2021-06-23T11:00:31Z</time>
      </trkpt>
      <trkpt lat="48.33761" lon="7.05161">
        <ele>712.61</ele>
        <time>2021-06-23T11:00:33Z</time>
      </trkpt>
      <trkpt lat="48.3373" lon="7.05243">
        <ele>710.8</ele>
        <time>2021-06-23T11:00:35Z</time>
      </trkpt>
      <trkpt lat="48.33727" lon="7.05265">
        <ele>710.29</ele>
        <time>2021-06-23T11:00:38Z</time>
      </trkpt>
      <trkpt lat="48.33726" lon="7.05297">
        <ele>709.1</ele>
        <time>2021-06-23T11:00:40Z</time>
      </trkpt>
      <trkpt lat="48.3373" lon="7.05336">
        <ele>708.89</ele>
        <time>2021-06-23T11:00:42Z</time>
      </trkpt>
      <trkpt lat="48.33739" lon="7.05383">
        <ele>707.41</ele>
        <time>2021-06-23T11:00:44Z</time>
      </trkpt>
      <trkpt lat="48.33745" lon="7.05399">
        <ele>705.96</ele>
        <time>2021-06-23T11:00:46Z</time>
      </trkpt>
      <trkpt lat="48.33774" lon="7.05446">
        <ele>702.42</ele>
        <time>2021-06-23T11:00:48Z</time>
      </trkpt>
      <trkpt lat="48.33801" lon="7.05479">
        <ele>698.38</ele>
        <time>2021-06-23T11:00:50Z</time>
      </trkpt>
      <trkpt lat="48.33817" lon="7.05495">
        <ele>696.87</ele>
        <time>2021-06-23T11:00:52Z</time>
      </trkpt>
      <trkpt lat="48.33831" lon="7.05503">
        <ele>695.36</ele>
        <time>2021-06-23T11:00:54Z</time>
      </trkpt>
      <trkpt lat="48.33847" lon="7.05504">
        <ele>693.14</ele>
        <time>2021-06-23T11:00:57Z</time>
      </trkpt>
      <trkpt lat="48.33868" lon="7.05513">
        <ele>691.1</ele>
        <time>2021-06-23T11:00:59Z</time>
      </trkpt>
      <trkpt lat="48.33881" lon="7.05529">
        <ele>690.58</ele>
        <time>2021-06-23T11:01:01Z</time>
      </trkpt>
      <trkpt lat="48.3391" lon="7.05614">
        <ele>691.66</ele>
        <time>2021-06-23T11:01:03Z</time>
      </trkpt>
      <trkpt lat="48.33927" lon="7.05642">
        <ele>689.78</ele>
        <time>2021-06-23T11:01:05Z</time>
      </trkpt>
      <trkpt lat="48.33947" lon="7.05655">
        <ele>685.8</ele>
        <time>2021-06-23T11:01:07Z</time>
      </trkpt>
      <trkpt lat="48.33984" lon="7.05661">
        <ele>682.35</ele>
        <time>2021-06-23T11:01:09Z</time>
      </trkpt>
      <trkpt lat="48.34025" lon="7.05659">
        <ele>684.96</ele>
        <time>2021-06-23T11:01:11Z</time>
      </trkpt>
      <trkpt lat="48.34039" lon="7.05664">
        <ele>686.36</ele>
        <time>2021-06-23T11:01:14Z</time>
      </trkpt>
      <trkpt lat="48.34042" lon="7.05679">
        <ele>686.43</ele>
        <time>2021-06-23T11:01:16Z</time>
      </trkpt>
      <trkpt lat="48.34042" lon="7.05693">
        <ele>685.98</ele>
        <time>2021-06-23T11:01:18Z</time>
      </trkpt>
      <trkpt lat="48.3403" lon="7.05721">
        <ele>682.73</ele>
        <time>2021-06-23T11:01:20Z</time>
      </trkpt>
      <trkpt lat="48.34009" lon="7.05757">
        <ele>675.72</ele>
        <time>2021-06-23T11:01:22Z</time>
      </trkpt>
      <trkpt lat="48.33989" lon="7.05801">
        <ele>673.37</ele>
        <time>2021-06-23T11:01:24Z</time>
      </trkpt>
      <trkpt lat="48.33979" lon="7.05832">
        <ele>673.52</ele>
        <time>2021-06-23T11:01:26Z</time>
      </trkpt>
      <trkpt lat="48.33967" lon="7.05896">
        <ele>676.66</ele>
        <time>2021-06-23T11:01:28Z</time>
      </trkpt>
      <trkpt lat="48.3394" lon="7.06105">
        <ele>669.2</ele>
        <time>2021-06-23T11:01:31Z</time>
      </trkpt>
      <trkpt lat="48.33928" lon="7.06162">
        <ele>665.78</ele>
        <time>2021-06-23T11:01:33Z</time>
      </trkpt>
      <trkpt lat="48.33924" lon="7.0622">
        <ele>661.89</ele>
        <time>2021-06-23T11:01:35Z</time>
      </trkpt>
      <trkpt lat="48.33928" lon="7.06237">
        <ele>660.93</ele>
        <time>2021-06-23T11:01:37Z</time>
      </trkpt>
      <trkpt lat="48.33939" lon="7.0626">
        <ele>659.63</ele>
        <time>2021-06-23T11:01:39Z</time>
      </trkpt>
      <trkpt lat="48.33954" lon="7.0628">
        <ele>657.14</ele>
        <time>2021-06-23T11:01:41Z</time>
      </trkpt>
      <trkpt lat="48.33968" lon="7.06288">
        <ele>654.96</ele>
        <time>2021-06-23T11:01:43Z</time>
      </trkpt>
      <trkpt lat="48.3398" lon="7.06288">
        <ele>653.1</ele>
        <time>2021-06-23T11:01:45Z</time>
      </trkpt>
      <trkpt lat="48.34013" lon="7.06268">
        <ele>652.6</ele>
        <time>2021-06-23T11:01:47Z</time>
      </trkpt>
      <trkpt lat="48.34021" lon="7.06267">
        <ele>652.51</ele>
        <time>2021-06-23T11:01:50Z</time>
      </trkpt>
      <trkpt lat="48.3403" lon="7.06271">
        <ele>652.16</ele>
        <time>2021-06-23T11:01:52Z</time>
      </trkpt>
      <trkpt lat="48.34036" lon="7.06281">
        <ele>652.05</ele>
        <time>2021-06-23T11:01:54Z</time>
      </trkpt>
      <trkpt lat="48.34041" lon="7.06297">
        <ele>651.46</ele>
        <time>2021-06-23T11:01:56Z</time>
      </trkpt>
      <trkpt lat="48.34044" lon="7.06353">
        <ele>646.79</ele>
        <time>2021-06-23T11:01:58Z</time>
      </trkpt>
      <trkpt lat="48.34048" lon="7.06383">
        <ele>643.68</ele>
        <time>2021-06-23T11:02:00Z</time>
      </trkpt>
      <trkpt lat="48.34053" lon="7.06405">
        <ele>641.93</ele>
        <time>2021-06-23T11:02:02Z</time>
      </trkpt>
      <trkpt lat="48.3406" lon="7.06427">
        <ele>641.11</ele>
        <time>2021-06-23T11:02:04Z</time>
      </trkpt>
      <trkpt lat="48.34073" lon="7.06459">
        <ele>640.46</ele>
        <time>2021-06-23T11:02:07Z</time>
      </trkpt>
      <trkpt lat="48.34113" lon="7.06542">
        <ele>638.05</ele>
        <time>2021-06-23T11:02:09Z</time>
      </trkpt>
      <trkpt lat="48.34118" lon="7.06556">
        <ele>637.83</ele>
        <time>2021-06-23T11:02:11Z</time>
      </trkpt>
      <trkpt lat="48.34118" lon="7.06577">
        <ele>637.78</ele>
        <time>2021-06-23T11:02:13Z</time>
      </trkpt>
      <trkpt lat="48.34115" lon="7.0659">
        <ele>637.77</ele>
        <time>2021-06-23T11:02:15Z</time>
      </trkpt>
      <trkpt lat="48.34109" lon="7.06601">
        <ele>637.39</ele>
        <time>2021-06-23T11:02:17Z</time>
      </trkpt>
      <trkpt lat="48.34002" lon="7.06722">
        <ele>624.4</ele>
        <time>2021-06-23T11:02:19Z</time>
      </trkpt>
      <trkpt lat="48.33959" lon="7.06775">
        <ele>619.94</ele>
        <time>2021-06-23T11:02:21Z</time>
      </trkpt>
      <trkpt lat="48.33907" lon="7.06826">
        <ele>616.75</ele>
        <time>2021-06-23T11:02:23Z</time>
      </trkpt>
      <trkpt lat="48.33899" lon="7.06838">
        <ele>617.13</ele>
        <time>2021-06-23T11:02:26Z</time>
      </trkpt>
      <trkpt lat="48.33895" lon="7.06851">
        <ele>617.81</ele>
        <time>2021-06-23T11:02:28Z</time>
      </trkpt>
      <trkpt lat="48.33892" lon="7.06867">
        <ele>618.38</ele>
        <time>2021-06-23T11:02:30Z</time>
      </trkpt>
      <trkpt lat="48.33894" lon="7.0689">
        <ele>618.53</ele>
        <time>2021-06-23T11:02:32Z</time>
      </trkpt>
      <trkpt lat="48.33911" lon="7.06965">
        <ele>620.16</ele>
        <time>2021-06-23T11:02:34Z</time>
      </trkpt>
      <trkpt lat="48.33926" lon="7.07004">
        <ele>619.63</ele>
        <time>2021-06-23T11:02:36Z</time>
      </trkpt>
      <trkpt lat="48.3395" lon="7.07049">
        <ele>617.95</ele>
        <time>2021-06-23T11:02:38Z</time>
      </trkpt>
      <trkpt lat="48.3397" lon="7.07081">
        <ele>616.24</ele>
        <time>2021-06-23T11:02:40Z</time>
      </trkpt>
      <trkpt lat="48.33981" lon="7.07093">
        <ele>615.34</ele>
        <time>2021-06-23T11:02:43Z</time>
      </trkpt>
      <trkpt lat="48.34094" lon="7.07139">
        <ele>611.79</ele>
        <time>2021-06-23T11:02:45Z</time>
      </trkpt>
      <trkpt lat="48.34207" lon="7.07204">
        <ele>616.5</ele>
        <time>2021-06-23T11:02:47Z</time>
      </trkpt>
      <trkpt lat="48.34217" lon="7.0722">
        <ele>614.81</ele>
        <time>2021-06-23T11:02:49Z</time>
      </trkpt>
      <trkpt lat="48.34222" lon="7.07232">
        <ele>614.23</ele>
        <time>2021-06-23T11:02:51Z</time>
      </trkpt>
      <trkpt lat="48.34222" lon="7.07259">
        <ele>613</ele>
        <time>2021-06-23T11:02:53Z</time>
      </trkpt>
      <trkpt lat="48.34217" lon="7.07293">
        <ele>613.29</ele>
        <time>2021-06-23T11:02:55Z</time>
      </trkpt>
      <trkpt lat="48.342" lon="7.07383">
        <ele>619.71</ele>
        <time>2021-06-23T11:02:57Z</time>
      </trkpt>
      <trkpt lat="48.34197" lon="7.07414">
        <ele>620.31</ele>
        <time>2021-06-23T11:03:00Z</time>
      </trkpt>
      <trkpt lat="48.34198" lon="7.07474">
        <ele>618.78</ele>
        <time>2021-06-23T11:03:02Z</time>
      </trkpt>
      <trkpt lat="48.34194" lon="7.07515">
        <ele>617.88</ele>
        <time>2021-06-23T11:03:04Z</time>
      </trkpt>
      <trkpt lat="48.34184" lon="7.07575">
        <ele>619.2</ele>
        <time>2021-06-23T11:03:06Z</time>
      </trkpt>
      <trkpt lat="48.34181" lon="7.07616">
        <ele>620.13</ele>
        <time>2021-06-23T11:03:08Z</time>
      </trkpt>
      <trkpt lat="48.34182" lon="7.07648">
        <ele>620.8</ele>
        <time>2021-06-23T11:03:10Z</time>
      </trkpt>
      <trkpt lat="48.342" lon="7.07777">
        <ele>624.53</ele>
        <time>2021-06-23T11:03:12Z</time>
      </trkpt>
      <trkpt lat="48.34207" lon="7.07805">
        <ele>625.87</ele>
        <time>2021-06-23T11:03:14Z</time>
      </trkpt>
      <trkpt lat="48.34216" lon="7.07825">
        <ele>627.27</ele>
        <time>2021-06-23T11:03:16Z</time>
      </trkpt>
      <trkpt lat="48.34229" lon="7.07843">
        <ele>628.63</ele>
        <time>2021-06-23T11:03:19Z</time>
      </trkpt>
      <trkpt lat="48.34279" lon="7.07905">
        <ele>633.03</ele>
        <time>2021-06-23T11:03:21Z</time>
      </trkpt>
      <trkpt lat="48.343" lon="7.07928">
        <ele>633</ele>
        <time>2021-06-23T11:03:23Z</time>
      </trkpt>
      <trkpt lat="48.34313" lon="7.07934">
        <ele>632.91</ele>
        <time>2021-06-23T11:03:25Z</time>
      </trkpt>
      <trkpt lat="48.3433" lon="7.07939">
        <ele>633.1</ele>
        <time>2021-06-23T11:03:27Z</time>
      </trkpt>
      <trkpt lat="48.34366" lon="7.07942">
        <ele>632.57</ele>
        <time>2021-06-23T11:03:29Z</time>
      </trkpt>
      <trkpt lat="48.34378" lon="7.07947">
        <ele>633.07</ele>
        <time>2021-06-23T11:03:31Z</time>
      </trkpt>
      <trkpt lat="48.34384" lon="7.07957">
        <ele>633.15</ele>
        <time>2021-06-23T11:03:33Z</time>
      </trkpt>
      <trkpt lat="48.34388" lon="7.07971">
        <ele>632.93</ele>
        <time>2021-06-23T11:03:36Z</time>
      </trkpt>
      <trkpt lat="48.34389" lon="7.07987">
        <ele>632.99</ele>
        <time>2021-06-23T11:03:38Z</time>
      </trkpt>
      <trkpt lat="48.34385" lon="7.08008">
        <ele>633.42</ele>
        <time>2021-06-23T11:03:40Z</time>
      </trkpt>
      <trkpt lat="48.34376" lon="7.08024">
        <ele>633.36</ele>
        <time>2021-06-23T11:03:42Z</time>
      </trkpt>
      <trkpt lat="48.34361" lon="7.08041">
        <ele>631.43</ele>
        <time>2021-06-23T11:03:44Z</time>
      </trkpt>
      <trkpt lat="48.34353" lon="7.08055">
        <ele>631.51</ele>
        <time>2021-06-23T11:03:46Z</time>
      </trkpt>
      <trkpt lat="48.34342" lon="7.08085">
        <ele>632.3</ele>
        <time>2021-06-23T11:03:48Z</time>
      </trkpt>
      <trkpt lat="48.34331" lon="7.0812">
        <ele>633.97</ele>
        <time>2021-06-23T11:03:50Z</time>
      </trkpt>
      <trkpt lat="48.34318" lon="7.08148">
        <ele>635.5</ele>
        <time>2021-06-23T11:03:52Z</time>
      </trkpt>
      <trkpt lat="48.34287" lon="7.08202">
        <ele>631.88</ele>
        <time>2021-06-23T11:03:55Z</time>
      </trkpt>
      <trkpt lat="48.34235" lon="7.08283">
        <ele>629.61</ele>
        <time>2021-06-23T11:03:57Z</time>
      </trkpt>
      <trkpt lat="48.34188" lon="7.08366">
        <ele>624.11</ele>
        <time>2021-06-23T11:03:59Z</time>
      </trkpt>
      <trkpt lat="48.34173" lon="7.08405">
        <ele>625.12</ele>
        <time>2021-06-23T11:04:01Z</time>
      </trkpt>
      <trkpt lat="48.34169" lon="7.08422">
        <ele>626.06</ele>
        <time>2021-06-23T11:04:03Z</time>
      </trkpt>
      <trkpt lat="48.34168" lon="7.08439">
        <ele>626.83</ele>
        <time>2021-06-23T11:04:05Z</time>
      </trkpt>
      <trkpt lat="48.34169" lon="7.08474">
        <ele>626.23</ele>
        <time>2021-06-23T11:04:07Z</time>
      </trkpt>
      <trkpt lat="48.34171" lon="7.08507">
        <ele>622.23</ele>
        <time>2021-06-23T11:04:09Z</time>
      </trkpt>
      <trkpt lat="48.34185" lon="7.08591">
        <ele>614.22</ele>
        <time>2021-06-23T11:04:12Z</time>
      </trkpt>
      <trkpt lat="48.34199" lon="7.08638">
        <ele>610.17</ele>
        <time>2021-06-23T11:04:14Z</time>
      </trkpt>
      <trkpt lat="48.34219" lon="7.08683">
        <ele>608.17</ele>
        <time>2021-06-23T11:04:16Z</time>
      </trkpt>
      <trkpt lat="48.34245" lon="7.08733">
        <ele>607.52</ele>
        <time>2021-06-23T11:04:18Z</time>
      </trkpt>
      <trkpt lat="48.3428" lon="7.08796">
        <ele>609.24</ele>
        <time>2021-06-23T11:04:20Z</time>
      </trkpt>
      <trkpt lat="48.34302" lon="7.08859">
        <ele>611.96</ele>
        <time>2021-06-23T11:04:22Z</time>
      </trkpt>
      <trkpt lat="48.34369" lon="7.09026">
        <ele>609.1</ele>
        <time>2021-06-23T11:04:24Z</time>
      </trkpt>
      <trkpt lat="48.34373" lon="7.09043">
        <ele>609.29</ele>
        <time>2021-06-23T11:04:26Z</time>
      </trkpt>
      <trkpt lat="48.34381" lon="7.09129">
        <ele>605.58</ele>
        <time>2021-06-23T11:04:29Z</time>
      </trkpt>
      <trkpt lat="48.34386" lon="7.09152">
        <ele>605.27</ele>
        <time>2021-06-23T11:04:31Z</time>
      </trkpt>
      <trkpt lat="48.34404" lon="7.09196">
        <ele>604.48</ele>
        <time>2021-06-23T11:04:33Z</time>
      </trkpt>
      <trkpt lat="48.34422" lon="7.09231">
        <ele>601.7</ele>
        <time>2021-06-23T11:04:35Z</time>
      </trkpt>
      <trkpt lat="48.34444" lon="7.09267">
        <ele>600.91</ele>
        <time>2021-06-23T11:04:37Z</time>
      </trkpt>
      <trkpt lat="48.34576" lon="7.09429">
        <ele>592.3</ele>
        <time>2021-06-23T11:04:39Z</time>
      </trkpt>
      <trkpt lat="48.34598" lon="7.09473">
        <ele>589.45</ele>
        <time>2021-06-23T11:04:41Z</time>
      </trkpt>
      <trkpt lat="48.34654" lon="7.09598">
        <ele>587.78</ele>
        <time>2021-06-23T11:04:43Z</time>
      </trkpt>
      <trkpt lat="48.34674" lon="7.09651">
        <ele>585.36</ele>
        <time>2021-06-23T11:04:45Z</time>
      </trkpt>
      <trkpt lat="48.34687" lon="7.09697">
        <ele>583.66</ele>
        <time>2021-06-23T11:04:48Z</time>
      </trkpt>
      <trkpt lat="48.34712" lon="7.09823">
        <ele>581.89</ele>
        <time>2021-06-23T11:04:50Z</time>
      </trkpt>
      <trkpt lat="48.34723" lon="7.09859">
        <ele>582</ele>
        <time>2021-06-23T11:04:52Z</time>
      </trkpt>
      <trkpt lat="48.34747" lon="7.10131">
        <ele>573.14</ele>
        <time>2021-06-23T11:04:54Z</time>
      </trkpt>
      <trkpt lat="48.34759" lon="7.10231">
        <ele>567.57</ele>
        <time>2021-06-23T11:04:56Z</time>
      </trkpt>
      <trkpt lat="48.34773" lon="7.1032">
        <ele>566.52</ele>
        <time>2021-06-23T11:04:58Z</time>
      </trkpt>
      <trkpt lat="48.34813" lon="7.10501">
        <ele>560.72</ele>
        <time>2021-06-23T11:05:00Z</time>
      </trkpt>
      <trkpt lat="48.34812" lon="7.10551">
        <ele>560.32</ele>
        <time>2021-06-23T11:05:02Z</time>
      </trkpt>
      <trkpt lat="48.34817" lon="7.10569">
        <ele>560.39</ele>
        <time>2021-06-23T11:05:05Z</time>
      </trkpt>
      <trkpt lat="48.34834" lon="7.10609">
        <ele>560.09</ele>
        <time>2021-06-23T11:05:07Z</time>
      </trkpt>
      <trkpt lat="48.34843" lon="7.10638">
        <ele>559.37</ele>
        <time>2021-06-23T11:05:09Z</time>
      </trkpt>
      <trkpt lat="48.34848" lon="7.10679">
        <ele>557.78</ele>
        <time>2021-06-23T11:05:11Z</time>
      </trkpt>
      <trkpt lat="48.34842" lon="7.10699">
        <ele>557.26</ele>
        <time>2021-06-23T11:05:13Z</time>
      </trkpt>
      <trkpt lat="48.34845" lon="7.10706">
        <ele>557.24</ele>
        <time>2021-06-23T11:05:17Z</time>
      </trkpt>
      <trkpt lat="48.34847" lon="7.10723">
        <ele>557</ele>
        <time>2021-06-23T11:05:20Z</time>
      </trkpt>
      <trkpt lat="48.34849" lon="7.10797">
        <ele>556</ele>
        <time>2021-06-23T11:05:24Z</time>
      </trkpt>
      <trkpt lat="48.34861" lon="7.10916">
        <ele>554.1</ele>
        <time>2021-06-23T11:05:28Z</time>
      </trkpt>
      <trkpt lat="48.34874" lon="7.10999">
        <ele>551.46</ele>
        <time>2021-06-23T11:05:31Z</time>
      </trkpt>
      <trkpt lat="48.34877" lon="7.11035">
        <ele>550.74</ele>
        <time>2021-06-23T11:05:35Z</time>
      </trkpt>
      <trkpt lat="48.34882" lon="7.11057">
        <ele>549.94</ele>
        <time>2021-06-23T11:05:38Z</time>
      </trkpt>
      <trkpt lat="48.34895" lon="7.1109">
        <ele>548.01</ele>
        <time>2021-06-23T11:05:42Z</time>
      </trkpt>
      <trkpt lat="48.34925" lon="7.11202">
        <ele>548.91</ele>
        <time>2021-06-23T11:05:46Z</time>
      </trkpt>
      <trkpt lat="48.34955" lon="7.11321">
        <ele>545.86</ele>
        <time>2021-06-23T11:05:49Z</time>
      </trkpt>
      <trkpt lat="48.34961" lon="7.11355">
        <ele>545.2</ele>
        <time>2021-06-23T11:05:53Z</time>
      </trkpt>
      <trkpt lat="48.34988" lon="7.11579">
        <ele>539.69</ele>
        <time>2021-06-23T11:05:57Z</time>
      </trkpt>
      <trkpt lat="48.34993" lon="7.11607">
        <ele>538.79</ele>
        <time>2021-06-23T11:06:00Z</time>
      </trkpt>
      <trkpt lat="48.35005" lon="7.11649">
        <ele>538.25</ele>
        <time>2021-06-23T11:06:04Z</time>
      </trkpt>
      <trkpt lat="48.35016" lon="7.11678">
        <ele>537.61</ele>
        <time>2021-06-23T11:06:07Z</time>
      </trkpt>
      <trkpt lat="48.35057" lon="7.11747">
        <ele>535.89</ele>
        <time>2021-06-23T11:06:11Z</time>
      </trkpt>
      <trkpt lat="48.35115" lon="7.11835">
        <ele>532.51</ele>
        <time>2021-06-23T11:06:15Z</time>
      </trkpt>
      <trkpt lat="48.35128" lon="7.11861">
        <ele>531.61</ele>
        <time>2021-06-23T11:06:18Z</time>
      </trkpt>
      <trkpt lat="48.35141" lon="7.11903">
        <ele>531.08</ele>
        <time>2021-06-23T11:06:22Z</time>
      </trkpt>
      <trkpt lat="48.35168" lon="7.12015">
        <ele>529.85</ele>
        <time>2021-06-23T11:06:25Z</time>
      </trkpt>
      <trkpt lat="48.35197" lon="7.1218">
        <ele>529.37</ele>
        <time>2021-06-23T11:06:29Z</time>
      </trkpt>
      <trkpt lat="48.35199" lon="7.122">
        <ele>529.63</ele>
        <time>2021-06-23T11:06:33Z</time>
      </trkpt>
      <trkpt lat="48.35208" lon="7.12335">
        <ele>522.79</ele>
        <time>2021-06-23T11:06:36Z</time>
      </trkpt>
      <trkpt lat="48.35215" lon="7.12367">
        <ele>522.68</ele>
        <time>2021-06-23T11:06:40Z</time>
      </trkpt>
      <trkpt lat="48.3523" lon="7.12412">
        <ele>521.49</ele>
        <time>2021-06-23T11:06:44Z</time>
      </trkpt>
      <trkpt lat="48.35235" lon="7.12439">
        <ele>521.06</ele>
        <time>2021-06-23T11:06:47Z</time>
      </trkpt>
      <trkpt lat="48.35236" lon="7.12459">
        <ele>520.99</ele>
        <time>2021-06-23T11:06:51Z</time>
      </trkpt>
      <trkpt lat="48.35234" lon="7.12481">
        <ele>520.81</ele>
        <time>2021-06-23T11:06:54Z</time>
      </trkpt>
      <trkpt lat="48.35231" lon="7.12498">
        <ele>520.58</ele>
        <time>2021-06-23T11:06:58Z</time>
      </trkpt>
      <trkpt lat="48.3522" lon="7.12533">
        <ele>521.08</ele>
        <time>2021-06-23T11:07:02Z</time>
      </trkpt>
      <trkpt lat="48.35205" lon="7.12569">
        <ele>521.22</ele>
        <time>2021-06-23T11:07:05Z</time>
      </trkpt>
      <trkpt lat="48.35197" lon="7.12582">
        <ele>521.23</ele>
        <time>2021-06-23T11:07:09Z</time>
      </trkpt>
      <trkpt lat="48.35159" lon="7.12635">
        <ele>521.84</ele>
        <time>2021-06-23T11:07:12Z</time>
      </trkpt>
      <trkpt lat="48.35153" lon="7.12646">
        <ele>521.63</ele>
        <time>2021-06-23T11:07:16Z</time>
      </trkpt>
      <trkpt lat="48.35143" lon="7.12675">
        <ele>521.76</ele>
        <time>2021-06-23T11:07:20Z</time>
      </trkpt>
      <trkpt lat="48.35138" lon="7.12706">
        <ele>521.23</ele>
        <time>2021-06-23T11:07:23Z</time>
      </trkpt>
      <trkpt lat="48.35126" lon="7.12828">
        <ele>523.18</ele>
        <time>2021-06-23T11:07:27Z</time>
      </trkpt>
      <trkpt lat="48.35125" lon="7.12881">
        <ele>523.67</ele>
        <time>2021-06-23T11:07:31Z</time>
      </trkpt>
      <trkpt lat="48.35129" lon="7.12924">
        <ele>522.55</ele>
        <time>2021-06-23T11:07:34Z</time>
      </trkpt>
      <trkpt lat="48.35138" lon="7.1298">
        <ele>521.18</ele>
        <time>2021-06-23T11:07:38Z</time>
      </trkpt>
      <trkpt lat="48.35152" lon="7.13033">
        <ele>519.7</ele>
        <time>2021-06-23T11:07:41Z</time>
      </trkpt>
      <trkpt lat="48.35162" lon="7.13063">
        <ele>518.39</ele>
        <time>2021-06-23T11:07:45Z</time>
      </trkpt>
      <trkpt lat="48.35184" lon="7.13105">
        <ele>516.67</ele>
        <time>2021-06-23T11:07:49Z</time>
      </trkpt>
      <trkpt lat="48.35203" lon="7.13127">
        <ele>515.07</ele>
        <time>2021-06-23T11:07:52Z</time>
      </trkpt>
      <trkpt lat="48.35218" lon="7.1314">
        <ele>514.47</ele>
        <time>2021-06-23T11:07:56Z</time>
      </trkpt>
      <trkpt lat="48.35245" lon="7.13152">
        <ele>515.52</ele>
        <time>2021-06-23T11:07:59Z</time>
      </trkpt>
      <trkpt lat="48.35272" lon="7.13157">
        <ele>514.95</ele>
        <time>2021-06-23T11:08:03Z</time>
      </trkpt>
      <trkpt lat="48.35341" lon="7.13148">
        <ele>514.91</ele>
        <time>2021-06-23T11:08:07Z</time>
      </trkpt>
      <trkpt lat="48.35387" lon="7.13153">
        <ele>517.74</ele>
        <time>2021-06-23T11:08:10Z</time>
      </trkpt>
      <trkpt lat="48.35402" lon="7.13157">
        <ele>519</ele>
        <time>2021-06-23T11:08:14Z</time>
      </trkpt>
      <trkpt lat="48.35441" lon="7.13175">
        <ele>519.53</ele>
        <time>2021-06-23T11:08:18Z</time>
      </trkpt>
      <trkpt lat="48.35464" lon="7.13191">
        <ele>517.99</ele>
        <time>2021-06-23T11:08:21Z</time>
      </trkpt>
      <trkpt lat="48.35488" lon="7.13211">
        <ele>518.52</ele>
        <time>2021-06-23T11:08:25Z</time>
      </trkpt>
      <trkpt lat="48.3553" lon="7.13265">
        <ele>514.44</ele>
        <time>2021-06-23T11:08:28Z</time>
      </trkpt>
      <trkpt lat="48.35555" lon="7.1329">
        <ele>509.3</ele>
        <time>2021-06-23T11:08:32Z</time>
      </trkpt>
      <trkpt lat="48.35592" lon="7.13316">
        <ele>507.76</ele>
        <time>2021-06-23T11:08:36Z</time>
      </trkpt>
      <trkpt lat="48.35638" lon="7.13355">
        <ele>508.69</ele>
        <time>2021-06-23T11:08:39Z</time>
      </trkpt>
      <trkpt lat="48.35707" lon="7.13416">
        <ele>502.04</ele>
        <time>2021-06-23T11:08:43Z</time>
      </trkpt>
      <trkpt lat="48.35736" lon="7.13433">
        <ele>500.63</ele>
        <time>2021-06-23T11:08:46Z</time>
      </trkpt>
      <trkpt lat="48.35759" lon="7.13441">
        <ele>499.41</ele>
        <time>2021-06-23T11:08:50Z</time>
      </trkpt>
      <trkpt lat="48.35781" lon="7.13445">
        <ele>497.83</ele>
        <time>2021-06-23T11:08:54Z</time>
      </trkpt>
      <trkpt lat="48.35807" lon="7.13453">
        <ele>496.65</ele>
        <time>2021-06-23T11:08:57Z</time>
      </trkpt>
      <trkpt lat="48.35836" lon="7.1347">
        <ele>497.91</ele>
        <time>2021-06-23T11:09:01Z</time>
      </trkpt>
      <trkpt lat="48.35889" lon="7.13499">
        <ele>496.03</ele>
        <time>2021-06-23T11:09:05Z</time>
      </trkpt>
      <trkpt lat="48.35887" lon="7.13503">
        <ele>496.07</ele>
        <time>2021-06-23T11:09:11Z</time>
      </trkpt>
      <trkpt lat="48.35859" lon="7.13612">
        <ele>501.21</ele>
        <time>2021-06-23T11:09:16Z</time>
      </trkpt>
      <trkpt lat="48.35853" lon="7.13629">
        <ele>502.49</ele>
        <time>2021-06-23T11:09:22Z</time>
      </trkpt>
      <trkpt lat="48.35827" lon="7.13695">
        <ele>507.16</ele>
        <time>2021-06-23T11:09:28Z</time>
      </trkpt>
      <trkpt lat="48.35824" lon="7.13705">
        <ele>507.35</ele>
        <time>2021-06-23T11:09:34Z</time>
      </trkpt>
      <trkpt lat="48.35817" lon="7.13754">
        <ele>507.18</ele>
        <time>2021-06-23T11:09:40Z</time>
      </trkpt>
      <trkpt lat="48.35807" lon="7.13951">
        <ele>504.63</ele>
        <time>2021-06-23T11:09:46Z</time>
      </trkpt>
      <trkpt lat="48.35801" lon="7.13996">
        <ele>507.21</ele>
        <time>2021-06-23T11:09:52Z</time>
      </trkpt>
      <trkpt lat="48.35786" lon="7.14048">
        <ele>511.06</ele>
        <time>2021-06-23T11:09:58Z</time>
      </trkpt>
      <trkpt lat="48.35751" lon="7.14147">
        <ele>510.16</ele>
        <time>2021-06-23T11:10:04Z</time>
      </trkpt>
      <trkpt lat="48.35722" lon="7.14238">
        <ele>511.06</ele>
        <time>2021-06-23T11:10:10Z</time>
      </trkpt>
      <trkpt lat="48.35709" lon="7.14291">
        <ele>513.49</ele>
        <time>2021-06-23T11:10:16Z</time>
      </trkpt>
      <trkpt lat="48.35682" lon="7.14413">
        <ele>523.36</ele>
        <time>2021-06-23T11:10:22Z</time>
      </trkpt>
      <trkpt lat="48.35678" lon="7.1445">
        <ele>523.88</ele>
        <time>2021-06-23T11:10:28Z</time>
      </trkpt>
      <trkpt lat="48.35677" lon="7.14502">
        <ele>526.05</ele>
        <time>2021-06-23T11:10:34Z</time>
      </trkpt>
      <trkpt lat="48.35683" lon="7.1456">
        <ele>526.95</ele>
        <time>2021-06-23T11:10:40Z</time>
      </trkpt>
      <trkpt lat="48.35685" lon="7.1461">
        <ele>525.11</ele>
        <time>2021-06-23T11:10:46Z</time>
      </trkpt>
      <trkpt lat="48.35683" lon="7.14698">
        <ele>523.46</ele>
        <time>2021-06-23T11:10:52Z</time>
      </trkpt>
      <trkpt lat="48.35673" lon="7.14791">
        <ele>524.04</ele>
        <time>2021-06-23T11:10:58Z</time>
      </trkpt>
      <trkpt lat="48.35663" lon="7.14857">
        <ele>525.88</ele>
        <time>2021-06-23T11:11:04Z</time>
      </trkpt>
      <trkpt lat="48.35627" lon="7.15052">
        <ele>527.64</ele>
        <time>2021-06-23T11:11:10Z</time>
      </trkpt>
      <trkpt lat="48.35626" lon="7.15082">
        <ele>529.62</ele>
        <time>2021-06-23T11:11:16Z</time>
      </trkpt>
      <trkpt lat="48.35631" lon="7.15146">
        <ele>532.99</ele>
        <time>2021-06-23T11:11:22Z</time>
      </trkpt>
      <trkpt lat="48.35649" lon="7.15235">
        <ele>530.91</ele>
        <time>2021-06-23T11:11:28Z</time>
      </trkpt>
      <trkpt lat="48.35663" lon="7.15273">
        <ele>531.24</ele>
        <time>2021-06-23T11:11:34Z</time>
      </trkpt>
      <trkpt lat="48.35717" lon="7.15401">
        <ele>532.29</ele>
        <time>2021-06-23T11:11:40Z</time>
      </trkpt>
      <trkpt lat="48.35846" lon="7.16012">
        <ele>547.62</ele>
        <time>2021-06-23T11:11:46Z</time>
      </trkpt>
      <trkpt lat="48.35878" lon="7.16103">
        <ele>547.61</ele>
        <time>2021-06-23T11:11:51Z</time>
      </trkpt>
      <trkpt lat="48.35898" lon="7.16169">
        <ele>552.63</ele>
        <time>2021-06-23T11:11:57Z</time>
      </trkpt>
      <trkpt lat="48.35925" lon="7.16363">
        <ele>559.39</ele>
        <time>2021-06-23T11:12:03Z</time>
      </trkpt>
      <trkpt lat="48.35925" lon="7.16363">
        <ele>559.39</ele>
        <time>2021-06-23T11:12:03Z</time>
      </trkpt>
      <trkpt lat="48.35898" lon="7.16169">
        <ele>552.63</ele>
        <time>2021-06-23T11:12:10Z</time>
      </trkpt>
      <trkpt lat="48.35878" lon="7.16103">
        <ele>547.61</ele>
        <time>2021-06-23T11:12:16Z</time>
      </trkpt>
      <trkpt lat="48.35846" lon="7.16012">
        <ele>547.62</ele>
        <time>2021-06-23T11:12:22Z</time>
      </trkpt>
      <trkpt lat="48.35717" lon="7.15401">
        <ele>532.29</ele>
        <time>2021-06-23T11:12:28Z</time>
      </trkpt>
      <trkpt lat="48.35663" lon="7.15273">
        <ele>531.24</ele>
        <time>2021-06-23T11:12:34Z</time>
      </trkpt>
      <trkpt lat="48.35649" lon="7.15235">
        <ele>530.91</ele>
        <time>2021-06-23T11:12:40Z</time>
      </trkpt>
      <trkpt lat="48.35631" lon="7.15146">
        <ele>532.99</ele>
        <time>2021-06-23T11:12:46Z</time>
      </trkpt>
      <trkpt lat="48.35626" lon="7.15082">
        <ele>529.62</ele>
        <time>2021-06-23T11:12:53Z</time>
      </trkpt>
      <trkpt lat="48.35627" lon="7.15052">
        <ele>527.64</ele>
        <time>2021-06-23T11:12:59Z</time>
      </trkpt>
      <trkpt lat="48.35663" lon="7.14857">
        <ele>525.88</ele>
        <time>2021-06-23T11:13:05Z</time>
      </trkpt>
      <trkpt lat="48.35673" lon="7.14791">
        <ele>524.04</ele>
        <time>2021-06-23T11:13:11Z</time>
      </trkpt>
      <trkpt lat="48.35683" lon="7.14698">
        <ele>523.46</ele>
        <time>2021-06-23T11:13:17Z</time>
      </trkpt>
      <trkpt lat="48.35685" lon="7.1461">
        <ele>525.11</ele>
        <time>2021-06-23T11:13:23Z</time>
      </trkpt>
      <trkpt lat="48.35683" lon="7.1456">
        <ele>526.95</ele>
        <time>2021-06-23T11:13:29Z</time>
      </trkpt>
      <trkpt lat="48.35677" lon="7.14502">
        <ele>526.05</ele>
        <time>2021-06-23T11:13:36Z</time>
      </trkpt>
      <trkpt lat="48.35678" lon="7.1445">
        <ele>523.88</ele>
        <time>2021-06-23T11:13:42Z</time>
      </trkpt>
      <trkpt lat="48.35682" lon="7.14413">
        <ele>523.36</ele>
        <time>2021-06-23T11:13:48Z</time>
      </trkpt>
      <trkpt lat="48.35709" lon="7.14291">
        <ele>513.49</ele>
        <time>2021-06-23T11:13:54Z</time>
      </trkpt>
      <trkpt lat="48.35722" lon="7.14238">
        <ele>511.06</ele>
        <time>2021-06-23T11:14:00Z</time>
      </trkpt>
      <trkpt lat="48.35751" lon="7.14147">
        <ele>510.16</ele>
        <time>2021-06-23T11:14:06Z</time>
      </trkpt>
      <trkpt lat="48.35786" lon="7.14048">
        <ele>511.06</ele>
        <time>2021-06-23T11:14:12Z</time>
      </trkpt>
      <trkpt lat="48.35801" lon="7.13996">
        <ele>507.21</ele>
        <time>2021-06-23T11:14:19Z</time>
      </trkpt>
      <trkpt lat="48.35807" lon="7.13951">
        <ele>504.63</ele>
        <time>2021-06-23T11:14:25Z</time>
      </trkpt>
      <trkpt lat="48.35817" lon="7.13754">
        <ele>507.18</ele>
        <time>2021-06-23T11:14:31Z</time>
      </trkpt>
      <trkpt lat="48.35824" lon="7.13705">
        <ele>507.35</ele>
        <time>2021-06-23T11:14:37Z</time>
      </trkpt>
      <trkpt lat="48.35827" lon="7.13695">
        <ele>507.16</ele>
        <time>2021-06-23T11:14:43Z</time>
      </trkpt>
      <trkpt lat="48.35853" lon="7.13629">
        <ele>502.49</ele>
        <time>2021-06-23T11:14:49Z</time>
      </trkpt>
      <trkpt lat="48.35859" lon="7.13612">
        <ele>501.21</ele>
        <time>2021-06-23T11:14:55Z</time>
      </trkpt>
      <trkpt lat="48.35887" lon="7.13502">
        <ele>496.05</ele>
        <time>2021-06-23T11:15:02Z</time>
      </trkpt>
      <trkpt lat="48.35887" lon="7.13502">
        <ele>496.05</ele>
        <time>2021-06-23T11:15:02Z</time>
      </trkpt>
      <trkpt lat="48.35889" lon="7.13499">
        <ele>496.03</ele>
        <time>2021-06-23T11:15:02Z</time>
      </trkpt>
      <trkpt lat="48.36091" lon="7.13609">
        <ele>494.73</ele>
        <time>2021-06-23T11:15:05Z</time>
      </trkpt>
      <trkpt lat="48.36096" lon="7.13616">
        <ele>494.46</ele>
        <time>2021-06-23T11:15:08Z</time>
      </trkpt>
      <trkpt lat="48.36107" lon="7.13626">
        <ele>493.71</ele>
        <time>2021-06-23T11:15:11Z</time>
      </trkpt>
      <trkpt lat="48.36126" lon="7.13633">
        <ele>493.1</ele>
        <time>2021-06-23T11:15:13Z</time>
      </trkpt>
      <trkpt lat="48.36135" lon="7.13633">
        <ele>493.03</ele>
        <time>2021-06-23T11:15:16Z</time>
      </trkpt>
      <trkpt lat="48.36146" lon="7.13637">
        <ele>493</ele>
        <time>2021-06-23T11:15:19Z</time>
      </trkpt>
      <trkpt lat="48.36247" lon="7.13691">
        <ele>491.87</ele>
        <time>2021-06-23T11:15:22Z</time>
      </trkpt>
      <trkpt lat="48.36273" lon="7.137">
        <ele>492.91</ele>
        <time>2021-06-23T11:15:25Z</time>
      </trkpt>
      <trkpt lat="48.3629" lon="7.13702">
        <ele>494.26</ele>
        <time>2021-06-23T11:15:27Z</time>
      </trkpt>
      <trkpt lat="48.36319" lon="7.13701">
        <ele>495.05</ele>
        <time>2021-06-23T11:15:30Z</time>
      </trkpt>
      <trkpt lat="48.36352" lon="7.13693">
        <ele>493.21</ele>
        <time>2021-06-23T11:15:33Z</time>
      </trkpt>
      <trkpt lat="48.36401" lon="7.13676">
        <ele>489.58</ele>
        <time>2021-06-23T11:15:36Z</time>
      </trkpt>
      <trkpt lat="48.36423" lon="7.13671">
        <ele>489.68</ele>
        <time>2021-06-23T11:15:38Z</time>
      </trkpt>
      <trkpt lat="48.36445" lon="7.13672">
        <ele>490.79</ele>
        <time>2021-06-23T11:15:41Z</time>
      </trkpt>
      <trkpt lat="48.36475" lon="7.13683">
        <ele>495.27</ele>
        <time>2021-06-23T11:15:44Z</time>
      </trkpt>
      <trkpt lat="48.36497" lon="7.13698">
        <ele>496.54</ele>
        <time>2021-06-23T11:15:47Z</time>
      </trkpt>
      <trkpt lat="48.36607" lon="7.13782">
        <ele>491.14</ele>
        <time>2021-06-23T11:15:50Z</time>
      </trkpt>
      <trkpt lat="48.36641" lon="7.13805">
        <ele>490.5</ele>
        <time>2021-06-23T11:15:52Z</time>
      </trkpt>
      <trkpt lat="48.36684" lon="7.13825">
        <ele>487.79</ele>
        <time>2021-06-23T11:15:55Z</time>
      </trkpt>
      <trkpt lat="48.3673" lon="7.1384">
        <ele>490.08</ele>
        <time>2021-06-23T11:15:58Z</time>
      </trkpt>
      <trkpt lat="48.36976" lon="7.13906">
        <ele>487.92</ele>
        <time>2021-06-23T11:16:01Z</time>
      </trkpt>
      <trkpt lat="48.3703" lon="7.13916">
        <ele>486.63</ele>
        <time>2021-06-23T11:16:04Z</time>
      </trkpt>
      <trkpt lat="48.37059" lon="7.13916">
        <ele>483.79</ele>
        <time>2021-06-23T11:16:06Z</time>
      </trkpt>
      <trkpt lat="48.37084" lon="7.13911">
        <ele>482.42</ele>
        <time>2021-06-23T11:16:09Z</time>
      </trkpt>
      <trkpt lat="48.37114" lon="7.13899">
        <ele>483.12</ele>
        <time>2021-06-23T11:16:12Z</time>
      </trkpt>
      <trkpt lat="48.37154" lon="7.13879">
        <ele>483.94</ele>
        <time>2021-06-23T11:16:15Z</time>
      </trkpt>
      <trkpt lat="48.37173" lon="7.13873">
        <ele>484.41</ele>
        <time>2021-06-23T11:16:18Z</time>
      </trkpt>
      <trkpt lat="48.37193" lon="7.13871">
        <ele>485.27</ele>
        <time>2021-06-23T11:16:20Z</time>
      </trkpt>
      <trkpt lat="48.37217" lon="7.13873">
        <ele>485.32</ele>
        <time>2021-06-23T11:16:23Z</time>
      </trkpt>
      <trkpt lat="48.37259" lon="7.13885">
        <ele>486.14</ele>
        <time>2021-06-23T11:16:26Z</time>
      </trkpt>
      <trkpt lat="48.37283" lon="7.13897">
        <ele>487.66</ele>
        <time>2021-06-23T11:16:29Z</time>
      </trkpt>
      <trkpt lat="48.37311" lon="7.13918">
        <ele>487.66</ele>
        <time>2021-06-23T11:16:31Z</time>
      </trkpt>
      <trkpt lat="48.37345" lon="7.13951">
        <ele>483.8</ele>
        <time>2021-06-23T11:16:34Z</time>
      </trkpt>
      <trkpt lat="48.3739" lon="7.14017">
        <ele>481.61</ele>
        <time>2021-06-23T11:16:37Z</time>
      </trkpt>
      <trkpt lat="48.37444" lon="7.14127">
        <ele>481.57</ele>
        <time>2021-06-23T11:16:40Z</time>
      </trkpt>
      <trkpt lat="48.37459" lon="7.14151">
        <ele>482.1</ele>
        <time>2021-06-23T11:16:43Z</time>
      </trkpt>
      <trkpt lat="48.37473" lon="7.14169">
        <ele>482.6</ele>
        <time>2021-06-23T11:16:45Z</time>
      </trkpt>
      <trkpt lat="48.37492" lon="7.14189">
        <ele>488.38</ele>
        <time>2021-06-23T11:16:48Z</time>
      </trkpt>
      <trkpt lat="48.37505" lon="7.14198">
        <ele>490.88</ele>
        <time>2021-06-23T11:16:51Z</time>
      </trkpt>
      <trkpt lat="48.37528" lon="7.1421">
        <ele>493.52</ele>
        <time>2021-06-23T11:16:54Z</time>
      </trkpt>
      <trkpt lat="48.37706" lon="7.14286">
        <ele>492.05</ele>
        <time>2021-06-23T11:16:57Z</time>
      </trkpt>
      <trkpt lat="48.37734" lon="7.14292">
        <ele>493.58</ele>
        <time>2021-06-23T11:16:59Z</time>
      </trkpt>
      <trkpt lat="48.37751" lon="7.14293">
        <ele>493.07</ele>
        <time>2021-06-23T11:17:02Z</time>
      </trkpt>
      <trkpt lat="48.37768" lon="7.1429">
        <ele>494.82</ele>
        <time>2021-06-23T11:17:05Z</time>
      </trkpt>
      <trkpt lat="48.37796" lon="7.14279">
        <ele>491.97</ele>
        <time>2021-06-23T11:17:08Z</time>
      </trkpt>
      <trkpt lat="48.37822" lon="7.14264">
        <ele>491.6</ele>
        <time>2021-06-23T11:17:10Z</time>
      </trkpt>
      <trkpt lat="48.37836" lon="7.14252">
        <ele>490.45</ele>
        <time>2021-06-23T11:17:13Z</time>
      </trkpt>
      <trkpt lat="48.37856" lon="7.1423">
        <ele>489.89</ele>
        <time>2021-06-23T11:17:16Z</time>
      </trkpt>
      <trkpt lat="48.37877" lon="7.14194">
        <ele>488.45</ele>
        <time>2021-06-23T11:17:19Z</time>
      </trkpt>
      <trkpt lat="48.37907" lon="7.14133">
        <ele>485.48</ele>
        <time>2021-06-23T11:17:22Z</time>
      </trkpt>
      <trkpt lat="48.37927" lon="7.14103">
        <ele>484.91</ele>
        <time>2021-06-23T11:17:24Z</time>
      </trkpt>
      <trkpt lat="48.37946" lon="7.14086">
        <ele>484.5</ele>
        <time>2021-06-23T11:17:27Z</time>
      </trkpt>
      <trkpt lat="48.37968" lon="7.14072">
        <ele>484.24</ele>
        <time>2021-06-23T11:17:30Z</time>
      </trkpt>
      <trkpt lat="48.37991" lon="7.14066">
        <ele>484.73</ele>
        <time>2021-06-23T11:17:33Z</time>
      </trkpt>
      <trkpt lat="48.38007" lon="7.14065">
        <ele>485.18</ele>
        <time>2021-06-23T11:17:36Z</time>
      </trkpt>
      <trkpt lat="48.38087" lon="7.14075">
        <ele>484.47</ele>
        <time>2021-06-23T11:17:38Z</time>
      </trkpt>
      <trkpt lat="48.38119" lon="7.14084">
        <ele>482.88</ele>
        <time>2021-06-23T11:17:41Z</time>
      </trkpt>
      <trkpt lat="48.38153" lon="7.14101">
        <ele>481.21</ele>
        <time>2021-06-23T11:17:44Z</time>
      </trkpt>
      <trkpt lat="48.38168" lon="7.14113">
        <ele>480.31</ele>
        <time>2021-06-23T11:17:47Z</time>
      </trkpt>
      <trkpt lat="48.38209" lon="7.14152">
        <ele>480.9</ele>
        <time>2021-06-23T11:17:50Z</time>
      </trkpt>
      <trkpt lat="48.38338" lon="7.14308">
        <ele>477.38</ele>
        <time>2021-06-23T11:17:52Z</time>
      </trkpt>
      <trkpt lat="48.38401" lon="7.14377">
        <ele>478.11</ele>
        <time>2021-06-23T11:17:55Z</time>
      </trkpt>
      <trkpt lat="48.38416" lon="7.14392">
        <ele>479.82</ele>
        <time>2021-06-23T11:17:58Z</time>
      </trkpt>
      <trkpt lat="48.38442" lon="7.14411">
        <ele>481.03</ele>
        <time>2021-06-23T11:18:01Z</time>
      </trkpt>
      <trkpt lat="48.38468" lon="7.14424">
        <ele>480.98</ele>
        <time>2021-06-23T11:18:03Z</time>
      </trkpt>
      <trkpt lat="48.38505" lon="7.14437">
        <ele>480.67</ele>
        <time>2021-06-23T11:18:06Z</time>
      </trkpt>
      <trkpt lat="48.38533" lon="7.14439">
        <ele>477.17</ele>
        <time>2021-06-23T11:18:09Z</time>
      </trkpt>
      <trkpt lat="48.3857" lon="7.14437">
        <ele>474.98</ele>
        <time>2021-06-23T11:18:12Z</time>
      </trkpt>
      <trkpt lat="48.38602" lon="7.1443">
        <ele>474.2</ele>
        <time>2021-06-23T11:18:15Z</time>
      </trkpt>
      <trkpt lat="48.38732" lon="7.1439">
        <ele>461.2</ele>
        <time>2021-06-23T11:18:17Z</time>
      </trkpt>
      <trkpt lat="48.38761" lon="7.14384">
        <ele>459.54</ele>
        <time>2021-06-23T11:18:20Z</time>
      </trkpt>
      <trkpt lat="48.38786" lon="7.14386">
        <ele>457.33</ele>
        <time>2021-06-23T11:18:23Z</time>
      </trkpt>
      <trkpt lat="48.38818" lon="7.144">
        <ele>455.42</ele>
        <time>2021-06-23T11:18:26Z</time>
      </trkpt>
      <trkpt lat="48.38844" lon="7.14419">
        <ele>452.28</ele>
        <time>2021-06-23T11:18:29Z</time>
      </trkpt>
      <trkpt lat="48.38862" lon="7.1444">
        <ele>449.8</ele>
        <time>2021-06-23T11:18:31Z</time>
      </trkpt>
      <trkpt lat="48.38871" lon="7.14455">
        <ele>449.55</ele>
        <time>2021-06-23T11:18:34Z</time>
      </trkpt>
      <trkpt lat="48.38942" lon="7.14601">
        <ele>452.08</ele>
        <time>2021-06-23T11:18:37Z</time>
      </trkpt>
      <trkpt lat="48.38999" lon="7.14739">
        <ele>455.01</ele>
        <time>2021-06-23T11:18:40Z</time>
      </trkpt>
      <trkpt lat="48.39054" lon="7.14858">
        <ele>460.9</ele>
        <time>2021-06-23T11:18:42Z</time>
      </trkpt>
      <trkpt lat="48.39155" lon="7.15085">
        <ele>455.01</ele>
        <time>2021-06-23T11:18:45Z</time>
      </trkpt>
      <trkpt lat="48.3917" lon="7.15112">
        <ele>455.69</ele>
        <time>2021-06-23T11:18:48Z</time>
      </trkpt>
      <trkpt lat="48.39187" lon="7.15138">
        <ele>456.93</ele>
        <time>2021-06-23T11:18:51Z</time>
      </trkpt>
      <trkpt lat="48.39243" lon="7.15199">
        <ele>458</ele>
        <time>2021-06-23T11:18:54Z</time>
      </trkpt>
      <trkpt lat="48.39287" lon="7.15262">
        <ele>454.04</ele>
        <time>2021-06-23T11:18:56Z</time>
      </trkpt>
      <trkpt lat="48.39316" lon="7.15289">
        <ele>454.13</ele>
        <time>2021-06-23T11:18:59Z</time>
      </trkpt>
      <trkpt lat="48.39336" lon="7.15302">
        <ele>453.75</ele>
        <time>2021-06-23T11:19:02Z</time>
      </trkpt>
      <trkpt lat="48.39359" lon="7.15312">
        <ele>451.3</ele>
        <time>2021-06-23T11:19:05Z</time>
      </trkpt>
      <trkpt lat="48.39382" lon="7.15318">
        <ele>449.86</ele>
        <time>2021-06-23T11:19:08Z</time>
      </trkpt>
      <trkpt lat="48.39402" lon="7.15319">
        <ele>449.11</ele>
        <time>2021-06-23T11:19:10Z</time>
      </trkpt>
      <trkpt lat="48.39429" lon="7.15313">
        <ele>447.49</ele>
        <time>2021-06-23T11:19:13Z</time>
      </trkpt>
      <trkpt lat="48.39476" lon="7.15293">
        <ele>446.37</ele>
        <time>2021-06-23T11:19:16Z</time>
      </trkpt>
      <trkpt lat="48.39535" lon="7.15258">
        <ele>447.02</ele>
        <time>2021-06-23T11:19:19Z</time>
      </trkpt>
      <trkpt lat="48.39561" lon="7.15249">
        <ele>444.39</ele>
        <time>2021-06-23T11:19:22Z</time>
      </trkpt>
      <trkpt lat="48.39589" lon="7.15247">
        <ele>442.73</ele>
        <time>2021-06-23T11:19:24Z</time>
      </trkpt>
      <trkpt lat="48.39628" lon="7.15256">
        <ele>442.86</ele>
        <time>2021-06-23T11:19:27Z</time>
      </trkpt>
      <trkpt lat="48.3966" lon="7.15271">
        <ele>443.45</ele>
        <time>2021-06-23T11:19:30Z</time>
      </trkpt>
      <trkpt lat="48.39687" lon="7.1529">
        <ele>444.39</ele>
        <time>2021-06-23T11:19:33Z</time>
      </trkpt>
      <trkpt lat="48.39712" lon="7.15314">
        <ele>441.37</ele>
        <time>2021-06-23T11:19:35Z</time>
      </trkpt>
      <trkpt lat="48.39747" lon="7.15358">
        <ele>439.14</ele>
        <time>2021-06-23T11:19:38Z</time>
      </trkpt>
      <trkpt lat="48.39765" lon="7.15376">
        <ele>441.18</ele>
        <time>2021-06-23T11:19:41Z</time>
      </trkpt>
      <trkpt lat="48.39868" lon="7.15458">
        <ele>438.26</ele>
        <time>2021-06-23T11:19:44Z</time>
      </trkpt>
      <trkpt lat="48.39904" lon="7.1548">
        <ele>434.65</ele>
        <time>2021-06-23T11:19:47Z</time>
      </trkpt>
      <trkpt lat="48.3993" lon="7.15492">
        <ele>435.48</ele>
        <time>2021-06-23T11:19:49Z</time>
      </trkpt>
      <trkpt lat="48.39975" lon="7.15506">
        <ele>434.59</ele>
        <time>2021-06-23T11:19:52Z</time>
      </trkpt>
      <trkpt lat="48.40306" lon="7.15548">
        <ele>428.43</ele>
        <time>2021-06-23T11:19:55Z</time>
      </trkpt>
      <trkpt lat="48.40334" lon="7.15554">
        <ele>426.9</ele>
        <time>2021-06-23T11:19:58Z</time>
      </trkpt>
      <trkpt lat="48.40363" lon="7.15568">
        <ele>427.8</ele>
        <time>2021-06-23T11:20:01Z</time>
      </trkpt>
      <trkpt lat="48.40382" lon="7.15583">
        <ele>429.91</ele>
        <time>2021-06-23T11:20:03Z</time>
      </trkpt>
      <trkpt lat="48.40405" lon="7.15608">
        <ele>430.83</ele>
        <time>2021-06-23T11:20:06Z</time>
      </trkpt>
      <trkpt lat="48.40421" lon="7.15631">
        <ele>430.8</ele>
        <time>2021-06-23T11:20:09Z</time>
      </trkpt>
      <trkpt lat="48.40438" lon="7.1567">
        <ele>428.9</ele>
        <time>2021-06-23T11:20:12Z</time>
      </trkpt>
      <trkpt lat="48.40441" lon="7.15682">
        <ele>428.38</ele>
        <time>2021-06-23T11:20:15Z</time>
      </trkpt>
      <trkpt lat="48.40441" lon="7.15682">
        <ele>428.38</ele>
        <time>2021-06-23T11:20:15Z</time>
      </trkpt>
      <trkpt lat="48.40447" lon="7.15704">
        <ele>427.85</ele>
        <time>2021-06-23T11:20:18Z</time>
      </trkpt>
      <trkpt lat="48.40449" lon="7.15737">
        <ele>427.48</ele>
        <time>2021-06-23T11:20:21Z</time>
      </trkpt>
      <trkpt lat="48.40446" lon="7.15775">
        <ele>426.07</ele>
        <time>2021-06-23T11:20:24Z</time>
      </trkpt>
      <trkpt lat="48.4044" lon="7.15804">
        <ele>425.88</ele>
        <time>2021-06-23T11:20:27Z</time>
      </trkpt>
      <trkpt lat="48.4039" lon="7.15966">
        <ele>427.24</ele>
        <time>2021-06-23T11:20:30Z</time>
      </trkpt>
      <trkpt lat="48.40354" lon="7.16028">
        <ele>426.54</ele>
        <time>2021-06-23T11:20:33Z</time>
      </trkpt>
      <trkpt lat="48.4035" lon="7.16053">
        <ele>425.89</ele>
        <time>2021-06-23T11:20:36Z</time>
      </trkpt>
      <trkpt lat="48.40352" lon="7.16069">
        <ele>425.48</ele>
        <time>2021-06-23T11:20:39Z</time>
      </trkpt>
      <trkpt lat="48.40361" lon="7.16088">
        <ele>425.01</ele>
        <time>2021-06-23T11:20:42Z</time>
      </trkpt>
      <trkpt lat="48.40407" lon="7.16146">
        <ele>424</ele>
        <time>2021-06-23T11:20:45Z</time>
      </trkpt>
      <trkpt lat="48.40375" lon="7.1617">
        <ele>424.55</ele>
        <time>2021-06-23T11:20:49Z</time>
      </trkpt>
      <trkpt lat="48.40356" lon="7.16189">
        <ele>425</ele>
        <time>2021-06-23T11:20:53Z</time>
      </trkpt>
      <trkpt lat="48.40334" lon="7.1623">
        <ele>426.23</ele>
        <time>2021-06-23T11:20:57Z</time>
      </trkpt>
      <trkpt lat="48.40327" lon="7.16241">
        <ele>427.06</ele>
        <time>2021-06-23T11:21:01Z</time>
      </trkpt>
      <trkpt lat="48.40312" lon="7.16254">
        <ele>428.96</ele>
        <time>2021-06-23T11:21:05Z</time>
      </trkpt>
      <trkpt lat="48.40284" lon="7.16271">
        <ele>430.66</ele>
        <time>2021-06-23T11:21:08Z</time>
      </trkpt>
      <trkpt lat="48.40274" lon="7.1628">
        <ele>431.05</ele>
        <time>2021-06-23T11:21:12Z</time>
      </trkpt>
      <trkpt lat="48.40219" lon="7.16358">
        <ele>434.36</ele>
        <time>2021-06-23T11:21:16Z</time>
      </trkpt>
      <trkpt lat="48.40198" lon="7.16382">
        <ele>435.59</ele>
        <time>2021-06-23T11:21:20Z</time>
      </trkpt>
      <trkpt lat="48.40172" lon="7.16401">
        <ele>438.49</ele>
        <time>2021-06-23T11:21:24Z</time>
      </trkpt>
      <trkpt lat="48.40144" lon="7.16414">
        <ele>439.08</ele>
        <time>2021-06-23T11:21:28Z</time>
      </trkpt>
      <trkpt lat="48.40052" lon="7.1645">
        <ele>443.71</ele>
        <time>2021-06-23T11:21:32Z</time>
      </trkpt>
      <trkpt lat="48.40028" lon="7.16455">
        <ele>442.14</ele>
        <time>2021-06-23T11:21:36Z</time>
      </trkpt>
      <trkpt lat="48.3998" lon="7.16458">
        <ele>442.79</ele>
        <time>2021-06-23T11:21:40Z</time>
      </trkpt>
      <trkpt lat="48.39955" lon="7.16464">
        <ele>444.71</ele>
        <time>2021-06-23T11:21:44Z</time>
      </trkpt>
      <trkpt lat="48.39811" lon="7.1656">
        <ele>450.34</ele>
        <time>2021-06-23T11:21:48Z</time>
      </trkpt>
      <trkpt lat="48.39645" lon="7.1666">
        <ele>454.77</ele>
        <time>2021-06-23T11:21:51Z</time>
      </trkpt>
      <trkpt lat="48.39592" lon="7.16703">
        <ele>456.17</ele>
        <time>2021-06-23T11:21:55Z</time>
      </trkpt>
      <trkpt lat="48.39545" lon="7.16759">
        <ele>458.25</ele>
        <time>2021-06-23T11:21:59Z</time>
      </trkpt>
      <trkpt lat="48.39504" lon="7.16822">
        <ele>457.28</ele>
        <time>2021-06-23T11:22:03Z</time>
      </trkpt>
      <trkpt lat="48.39321" lon="7.17207">
        <ele>463.97</ele>
        <time>2021-06-23T11:22:07Z</time>
      </trkpt>
      <trkpt lat="48.39281" lon="7.17262">
        <ele>462.92</ele>
        <time>2021-06-23T11:22:11Z</time>
      </trkpt>
      <trkpt lat="48.39256" lon="7.17312">
        <ele>461.95</ele>
        <time>2021-06-23T11:22:15Z</time>
      </trkpt>
      <trkpt lat="48.39239" lon="7.17359">
        <ele>461.88</ele>
        <time>2021-06-23T11:22:19Z</time>
      </trkpt>
      <trkpt lat="48.39209" lon="7.17466">
        <ele>463.5</ele>
        <time>2021-06-23T11:22:23Z</time>
      </trkpt>
      <trkpt lat="48.39109" lon="7.17732">
        <ele>458.83</ele>
        <time>2021-06-23T11:22:27Z</time>
      </trkpt>
      <trkpt lat="48.39102" lon="7.17747">
        <ele>459.39</ele>
        <time>2021-06-23T11:22:31Z</time>
      </trkpt>
      <trkpt lat="48.39095" lon="7.17775">
        <ele>459.9</ele>
        <time>2021-06-23T11:22:34Z</time>
      </trkpt>
      <trkpt lat="48.39079" lon="7.17803">
        <ele>458.62</ele>
        <time>2021-06-23T11:22:38Z</time>
      </trkpt>
      <trkpt lat="48.39071" lon="7.17826">
        <ele>459.19</ele>
        <time>2021-06-23T11:22:42Z</time>
      </trkpt>
      <trkpt lat="48.39025" lon="7.17929">
        <ele>461.33</ele>
        <time>2021-06-23T11:22:46Z</time>
      </trkpt>
      <trkpt lat="48.38965" lon="7.18077">
        <ele>462.49</ele>
        <time>2021-06-23T11:22:50Z</time>
      </trkpt>
      <trkpt lat="48.38828" lon="7.18197">
        <ele>463.65</ele>
        <time>2021-06-23T11:22:54Z</time>
      </trkpt>
      <trkpt lat="48.38736" lon="7.18276">
        <ele>466.83</ele>
        <time>2021-06-23T11:22:58Z</time>
      </trkpt>
      <trkpt lat="48.38684" lon="7.183">
        <ele>468.29</ele>
        <time>2021-06-23T11:23:02Z</time>
      </trkpt>
      <trkpt lat="48.38635" lon="7.18344">
        <ele>470.9</ele>
        <time>2021-06-23T11:23:06Z</time>
      </trkpt>
      <trkpt lat="48.38618" lon="7.18366">
        <ele>470.17</ele>
        <time>2021-06-23T11:23:10Z</time>
      </trkpt>
      <trkpt lat="48.38598" lon="7.18407">
        <ele>472.25</ele>
        <time>2021-06-23T11:23:14Z</time>
      </trkpt>
      <trkpt lat="48.38594" lon="7.18421">
        <ele>473.52</ele>
        <time>2021-06-23T11:23:17Z</time>
      </trkpt>
      <trkpt lat="48.38587" lon="7.18462">
        <ele>479.19</ele>
        <time>2021-06-23T11:23:21Z</time>
      </trkpt>
      <trkpt lat="48.38569" lon="7.18505">
        <ele>482.55</ele>
        <time>2021-06-23T11:23:25Z</time>
      </trkpt>
      <trkpt lat="48.38546" lon="7.18555">
        <ele>483.41</ele>
        <time>2021-06-23T11:23:29Z</time>
      </trkpt>
      <trkpt lat="48.38493" lon="7.18629">
        <ele>483.9</ele>
        <time>2021-06-23T11:23:33Z</time>
      </trkpt>
      <trkpt lat="48.38465" lon="7.18671">
        <ele>481.82</ele>
        <time>2021-06-23T11:23:37Z</time>
      </trkpt>
      <trkpt lat="48.38445" lon="7.18716">
        <ele>481.45</ele>
        <time>2021-06-23T11:23:41Z</time>
      </trkpt>
      <trkpt lat="48.384" lon="7.18833">
        <ele>487.09</ele>
        <time>2021-06-23T11:23:45Z</time>
      </trkpt>
      <trkpt lat="48.38384" lon="7.18863">
        <ele>488.11</ele>
        <time>2021-06-23T11:23:49Z</time>
      </trkpt>
      <trkpt lat="48.38369" lon="7.18884">
        <ele>488.19</ele>
        <time>2021-06-23T11:23:53Z</time>
      </trkpt>
      <trkpt lat="48.38306" lon="7.18951">
        <ele>490.41</ele>
        <time>2021-06-23T11:23:56Z</time>
      </trkpt>
      <trkpt lat="48.38253" lon="7.19001">
        <ele>501.04</ele>
        <time>2021-06-23T11:24:00Z</time>
      </trkpt>
      <trkpt lat="48.38198" lon="7.19045">
        <ele>497.67</ele>
        <time>2021-06-23T11:24:04Z</time>
      </trkpt>
      <trkpt lat="48.38177" lon="7.19058">
        <ele>498.14</ele>
        <time>2021-06-23T11:24:08Z</time>
      </trkpt>
      <trkpt lat="48.38146" lon="7.19084">
        <ele>497.67</ele>
        <time>2021-06-23T11:24:12Z</time>
      </trkpt>
      <trkpt lat="48.38119" lon="7.19125">
        <ele>501.03</ele>
        <time>2021-06-23T11:24:16Z</time>
      </trkpt>
      <trkpt lat="48.38093" lon="7.19157">
        <ele>502.42</ele>
        <time>2021-06-23T11:24:20Z</time>
      </trkpt>
      <trkpt lat="48.38059" lon="7.19181">
        <ele>500.26</ele>
        <time>2021-06-23T11:24:24Z</time>
      </trkpt>
      <trkpt lat="48.38016" lon="7.19205">
        <ele>495.98</ele>
        <time>2021-06-23T11:24:28Z</time>
      </trkpt>
      <trkpt lat="48.38" lon="7.19222">
        <ele>494.99</ele>
        <time>2021-06-23T11:24:32Z</time>
      </trkpt>
      <trkpt lat="48.37943" lon="7.19312">
        <ele>498.14</ele>
        <time>2021-06-23T11:24:36Z</time>
      </trkpt>
      <trkpt lat="48.37848" lon="7.19429">
        <ele>503.7</ele>
        <time>2021-06-23T11:24:39Z</time>
      </trkpt>
      <trkpt lat="48.37811" lon="7.19481">
        <ele>504.92</ele>
        <time>2021-06-23T11:24:43Z</time>
      </trkpt>
      <trkpt lat="48.37745" lon="7.19601">
        <ele>504.08</ele>
        <time>2021-06-23T11:24:47Z</time>
      </trkpt>
      <trkpt lat="48.37706" lon="7.19651">
        <ele>506.02</ele>
        <time>2021-06-23T11:24:51Z</time>
      </trkpt>
      <trkpt lat="48.37681" lon="7.1967">
        <ele>506.33</ele>
        <time>2021-06-23T11:24:55Z</time>
      </trkpt>
      <trkpt lat="48.37667" lon="7.19676">
        <ele>506.95</ele>
        <time>2021-06-23T11:24:59Z</time>
      </trkpt>
      <trkpt lat="48.37567" lon="7.19698">
        <ele>507.61</ele>
        <time>2021-06-23T11:25:03Z</time>
      </trkpt>
      <trkpt lat="48.37519" lon="7.19719">
        <ele>507.62</ele>
        <time>2021-06-23T11:25:07Z</time>
      </trkpt>
      <trkpt lat="48.37497" lon="7.19733">
        <ele>507.1</ele>
        <time>2021-06-23T11:25:11Z</time>
      </trkpt>
      <trkpt lat="48.37456" lon="7.19775">
        <ele>508</ele>
        <time>2021-06-23T11:25:15Z</time>
      </trkpt>
      <trkpt lat="48.37415" lon="7.1981">
        <ele>510.23</ele>
        <time>2021-06-23T11:25:19Z</time>
      </trkpt>
      <trkpt lat="48.37392" lon="7.19826">
        <ele>510.97</ele>
        <time>2021-06-23T11:25:22Z</time>
      </trkpt>
      <trkpt lat="48.37374" lon="7.19831">
        <ele>511.04</ele>
        <time>2021-06-23T11:25:26Z</time>
      </trkpt>
      <trkpt lat="48.37353" lon="7.19822">
        <ele>511.42</ele>
        <time>2021-06-23T11:25:30Z</time>
      </trkpt>
      <trkpt lat="48.37322" lon="7.19791">
        <ele>512.21</ele>
        <time>2021-06-23T11:25:34Z</time>
      </trkpt>
      <trkpt lat="48.37313" lon="7.19786">
        <ele>512.5</ele>
        <time>2021-06-23T11:25:38Z</time>
      </trkpt>
      <trkpt lat="48.37301" lon="7.19785">
        <ele>513.31</ele>
        <time>2021-06-23T11:25:42Z</time>
      </trkpt>
      <trkpt lat="48.37291" lon="7.19788">
        <ele>514.4</ele>
        <time>2021-06-23T11:25:46Z</time>
      </trkpt>
      <trkpt lat="48.37278" lon="7.19799">
        <ele>515.94</ele>
        <time>2021-06-23T11:25:50Z</time>
      </trkpt>
      <trkpt lat="48.37255" lon="7.19856">
        <ele>515.66</ele>
        <time>2021-06-23T11:25:54Z</time>
      </trkpt>
      <trkpt lat="48.37235" lon="7.19886">
        <ele>516.28</ele>
        <time>2021-06-23T11:25:58Z</time>
      </trkpt>
      <trkpt lat="48.37217" lon="7.19906">
        <ele>517.22</ele>
        <time>2021-06-23T11:26:02Z</time>
      </trkpt>
      <trkpt lat="48.37173" lon="7.19936">
        <ele>519.38</ele>
        <time>2021-06-23T11:26:05Z</time>
      </trkpt>
      <trkpt lat="48.37149" lon="7.19959">
        <ele>519.58</ele>
        <time>2021-06-23T11:26:09Z</time>
      </trkpt>
      <trkpt lat="48.3712" lon="7.19982">
        <ele>519.88</ele>
        <time>2021-06-23T11:26:13Z</time>
      </trkpt>
      <trkpt lat="48.37097" lon="7.1999">
        <ele>521.95</ele>
        <time>2021-06-23T11:26:17Z</time>
      </trkpt>
      <trkpt lat="48.37062" lon="7.19984">
        <ele>526.62</ele>
        <time>2021-06-23T11:26:21Z</time>
      </trkpt>
      <trkpt lat="48.37048" lon="7.19977">
        <ele>528.76</ele>
        <time>2021-06-23T11:26:25Z</time>
      </trkpt>
      <trkpt lat="48.37038" lon="7.19969">
        <ele>529.91</ele>
        <time>2021-06-23T11:26:29Z</time>
      </trkpt>
      <trkpt lat="48.37032" lon="7.19961">
        <ele>530.69</ele>
        <time>2021-06-23T11:26:33Z</time>
      </trkpt>
      <trkpt lat="48.37011" lon="7.1993">
        <ele>530.77</ele>
        <time>2021-06-23T11:26:37Z</time>
      </trkpt>
      <trkpt lat="48.36975" lon="7.19865">
        <ele>530.26</ele>
        <time>2021-06-23T11:26:41Z</time>
      </trkpt>
      <trkpt lat="48.36943" lon="7.19815">
        <ele>529.94</ele>
        <time>2021-06-23T11:26:44Z</time>
      </trkpt>
      <trkpt lat="48.36896" lon="7.19761">
        <ele>530.45</ele>
        <time>2021-06-23T11:26:48Z</time>
      </trkpt>
      <trkpt lat="48.36854" lon="7.19722">
        <ele>532.83</ele>
        <time>2021-06-23T11:26:52Z</time>
      </trkpt>
      <trkpt lat="48.36841" lon="7.19712">
        <ele>535.73</ele>
        <time>2021-06-23T11:26:56Z</time>
      </trkpt>
      <trkpt lat="48.36801" lon="7.19697">
        <ele>541.49</ele>
        <time>2021-06-23T11:27:00Z</time>
      </trkpt>
      <trkpt lat="48.3673" lon="7.19673">
        <ele>541.15</ele>
        <time>2021-06-23T11:27:04Z</time>
      </trkpt>
      <trkpt lat="48.36693" lon="7.19668">
        <ele>542.37</ele>
        <time>2021-06-23T11:27:08Z</time>
      </trkpt>
      <trkpt lat="48.36652" lon="7.1968">
        <ele>544.33</ele>
        <time>2021-06-23T11:27:12Z</time>
      </trkpt>
      <trkpt lat="48.36632" lon="7.19693">
        <ele>544.46</ele>
        <time>2021-06-23T11:27:16Z</time>
      </trkpt>
      <trkpt lat="48.36589" lon="7.19733">
        <ele>544.34</ele>
        <time>2021-06-23T11:27:20Z</time>
      </trkpt>
      <trkpt lat="48.36569" lon="7.19758">
        <ele>544.96</ele>
        <time>2021-06-23T11:27:24Z</time>
      </trkpt>
      <trkpt lat="48.36539" lon="7.19809">
        <ele>545.05</ele>
        <time>2021-06-23T11:27:27Z</time>
      </trkpt>
      <trkpt lat="48.36478" lon="7.19932">
        <ele>536.31</ele>
        <time>2021-06-23T11:27:31Z</time>
      </trkpt>
      <trkpt lat="48.36471" lon="7.19943">
        <ele>535.84</ele>
        <time>2021-06-23T11:27:35Z</time>
      </trkpt>
      <trkpt lat="48.36463" lon="7.19948">
        <ele>535.06</ele>
        <time>2021-06-23T11:27:39Z</time>
      </trkpt>
      <trkpt lat="48.36463" lon="7.19948">
        <ele>535.06</ele>
        <time>2021-06-23T11:27:39Z</time>
      </trkpt>
      <trkpt lat="48.36453" lon="7.19954">
        <ele>534.29</ele>
        <time>2021-06-23T11:27:40Z</time>
      </trkpt>
      <trkpt lat="48.36446" lon="7.19955">
        <ele>533.51</ele>
        <time>2021-06-23T11:27:42Z</time>
      </trkpt>
      <trkpt lat="48.36441" lon="7.19962">
        <ele>533.71</ele>
        <time>2021-06-23T11:27:44Z</time>
      </trkpt>
      <trkpt lat="48.36439" lon="7.19975">
        <ele>534.33</ele>
        <time>2021-06-23T11:27:46Z</time>
      </trkpt>
      <trkpt lat="48.36443" lon="7.19984">
        <ele>534.85</ele>
        <time>2021-06-23T11:27:48Z</time>
      </trkpt>
      <trkpt lat="48.36451" lon="7.20008">
        <ele>537.48</ele>
        <time>2021-06-23T11:27:50Z</time>
      </trkpt>
      <trkpt lat="48.36455" lon="7.20028">
        <ele>539.76</ele>
        <time>2021-06-23T11:27:52Z</time>
      </trkpt>
      <trkpt lat="48.36458" lon="7.20036">
        <ele>540.61</ele>
        <time>2021-06-23T11:27:54Z</time>
      </trkpt>
      <trkpt lat="48.36467" lon="7.20045">
        <ele>541.8</ele>
        <time>2021-06-23T11:27:56Z</time>
      </trkpt>
      <trkpt lat="48.36477" lon="7.20043">
        <ele>543.09</ele>
        <time>2021-06-23T11:27:57Z</time>
      </trkpt>
      <trkpt lat="48.36484" lon="7.20036">
        <ele>544.25</ele>
        <time>2021-06-23T11:27:59Z</time>
      </trkpt>
      <trkpt lat="48.36493" lon="7.20023">
        <ele>545.1</ele>
        <time>2021-06-23T11:28:01Z</time>
      </trkpt>
      <trkpt lat="48.36499" lon="7.20008">
        <ele>544.72</ele>
        <time>2021-06-23T11:28:03Z</time>
      </trkpt>
      <trkpt lat="48.36507" lon="7.19962">
        <ele>541.58</ele>
        <time>2021-06-23T11:28:05Z</time>
      </trkpt>
      <trkpt lat="48.36514" lon="7.19954">
        <ele>542.75</ele>
        <time>2021-06-23T11:28:07Z</time>
      </trkpt>
      <trkpt lat="48.36523" lon="7.19951">
        <ele>544.71</ele>
        <time>2021-06-23T11:28:09Z</time>
      </trkpt>
      <trkpt lat="48.36531" lon="7.19956">
        <ele>547.41</ele>
        <time>2021-06-23T11:28:11Z</time>
      </trkpt>
      <trkpt lat="48.36538" lon="7.19967">
        <ele>550.57</ele>
        <time>2021-06-23T11:28:13Z</time>
      </trkpt>
      <trkpt lat="48.3654" lon="7.19979">
        <ele>552.17</ele>
        <time>2021-06-23T11:28:15Z</time>
      </trkpt>
      <trkpt lat="48.36536" lon="7.19993">
        <ele>552.07</ele>
        <time>2021-06-23T11:28:17Z</time>
      </trkpt>
      <trkpt lat="48.36511" lon="7.20046">
        <ele>551.1</ele>
        <time>2021-06-23T11:28:19Z</time>
      </trkpt>
      <trkpt lat="48.36504" lon="7.20077">
        <ele>551.5</ele>
        <time>2021-06-23T11:28:21Z</time>
      </trkpt>
      <trkpt lat="48.36499" lon="7.20163">
        <ele>555.42</ele>
        <time>2021-06-23T11:28:23Z</time>
      </trkpt>
      <trkpt lat="48.36493" lon="7.20191">
        <ele>556.44</ele>
        <time>2021-06-23T11:28:25Z</time>
      </trkpt>
      <trkpt lat="48.36477" lon="7.20235">
        <ele>558.73</ele>
        <time>2021-06-23T11:28:27Z</time>
      </trkpt>
      <trkpt lat="48.36477" lon="7.20255">
        <ele>561.78</ele>
        <time>2021-06-23T11:28:29Z</time>
      </trkpt>
      <trkpt lat="48.3648" lon="7.20268">
        <ele>563.4</ele>
        <time>2021-06-23T11:28:31Z</time>
      </trkpt>
      <trkpt lat="48.36496" lon="7.20278">
        <ele>565.74</ele>
        <time>2021-06-23T11:28:33Z</time>
      </trkpt>
      <trkpt lat="48.36507" lon="7.20277">
        <ele>566.64</ele>
        <time>2021-06-23T11:28:34Z</time>
      </trkpt>
      <trkpt lat="48.36531" lon="7.20267">
        <ele>568.45</ele>
        <time>2021-06-23T11:28:36Z</time>
      </trkpt>
      <trkpt lat="48.36545" lon="7.20266">
        <ele>569.32</ele>
        <time>2021-06-23T11:28:38Z</time>
      </trkpt>
      <trkpt lat="48.36676" lon="7.20314">
        <ele>574.84</ele>
        <time>2021-06-23T11:28:40Z</time>
      </trkpt>
      <trkpt lat="48.36731" lon="7.20338">
        <ele>576.78</ele>
        <time>2021-06-23T11:28:42Z</time>
      </trkpt>
      <trkpt lat="48.36753" lon="7.20361">
        <ele>576.69</ele>
        <time>2021-06-23T11:28:44Z</time>
      </trkpt>
      <trkpt lat="48.36768" lon="7.20397">
        <ele>578.25</ele>
        <time>2021-06-23T11:28:46Z</time>
      </trkpt>
      <trkpt lat="48.36774" lon="7.2043">
        <ele>579.12</ele>
        <time>2021-06-23T11:28:48Z</time>
      </trkpt>
      <trkpt lat="48.36765" lon="7.20607">
        <ele>591.48</ele>
        <time>2021-06-23T11:28:50Z</time>
      </trkpt>
      <trkpt lat="48.36741" lon="7.20714">
        <ele>586.28</ele>
        <time>2021-06-23T11:28:52Z</time>
      </trkpt>
      <trkpt lat="48.36744" lon="7.20738">
        <ele>587.8</ele>
        <time>2021-06-23T11:28:54Z</time>
      </trkpt>
      <trkpt lat="48.36752" lon="7.20752">
        <ele>589.38</ele>
        <time>2021-06-23T11:28:56Z</time>
      </trkpt>
      <trkpt lat="48.36758" lon="7.20757">
        <ele>590.59</ele>
        <time>2021-06-23T11:28:58Z</time>
      </trkpt>
      <trkpt lat="48.36771" lon="7.20763">
        <ele>593.36</ele>
        <time>2021-06-23T11:29:00Z</time>
      </trkpt>
      <trkpt lat="48.36779" lon="7.20765">
        <ele>594.93</ele>
        <time>2021-06-23T11:29:02Z</time>
      </trkpt>
      <trkpt lat="48.36794" lon="7.20763">
        <ele>597.32</ele>
        <time>2021-06-23T11:29:04Z</time>
      </trkpt>
      <trkpt lat="48.3682" lon="7.2075">
        <ele>599.69</ele>
        <time>2021-06-23T11:29:06Z</time>
      </trkpt>
      <trkpt lat="48.36839" lon="7.2073">
        <ele>598.46</ele>
        <time>2021-06-23T11:29:08Z</time>
      </trkpt>
      <trkpt lat="48.36868" lon="7.20687">
        <ele>595.58</ele>
        <time>2021-06-23T11:29:10Z</time>
      </trkpt>
      <trkpt lat="48.36894" lon="7.20659">
        <ele>598.53</ele>
        <time>2021-06-23T11:29:11Z</time>
      </trkpt>
      <trkpt lat="48.36927" lon="7.20636">
        <ele>603.18</ele>
        <time>2021-06-23T11:29:13Z</time>
      </trkpt>
      <trkpt lat="48.36946" lon="7.20619">
        <ele>605.5</ele>
        <time>2021-06-23T11:29:15Z</time>
      </trkpt>
      <trkpt lat="48.37057" lon="7.20499">
        <ele>611.2</ele>
        <time>2021-06-23T11:29:17Z</time>
      </trkpt>
      <trkpt lat="48.37065" lon="7.20492">
        <ele>612.41</ele>
        <time>2021-06-23T11:29:19Z</time>
      </trkpt>
      <trkpt lat="48.37087" lon="7.20481">
        <ele>615.46</ele>
        <time>2021-06-23T11:29:21Z</time>
      </trkpt>
      <trkpt lat="48.371" lon="7.20479">
        <ele>617.17</ele>
        <time>2021-06-23T11:29:23Z</time>
      </trkpt>
      <trkpt lat="48.37116" lon="7.20481">
        <ele>619.34</ele>
        <time>2021-06-23T11:29:25Z</time>
      </trkpt>
      <trkpt lat="48.37132" lon="7.20486">
        <ele>621.32</ele>
        <time>2021-06-23T11:29:27Z</time>
      </trkpt>
      <trkpt lat="48.37152" lon="7.20499">
        <ele>623.9</ele>
        <time>2021-06-23T11:29:29Z</time>
      </trkpt>
      <trkpt lat="48.37172" lon="7.20516">
        <ele>626.8</ele>
        <time>2021-06-23T11:29:31Z</time>
      </trkpt>
      <trkpt lat="48.37189" lon="7.20534">
        <ele>628.73</ele>
        <time>2021-06-23T11:29:33Z</time>
      </trkpt>
      <trkpt lat="48.37204" lon="7.20555">
        <ele>629.33</ele>
        <time>2021-06-23T11:29:35Z</time>
      </trkpt>
      <trkpt lat="48.3722" lon="7.20578">
        <ele>628.97</ele>
        <time>2021-06-23T11:29:37Z</time>
      </trkpt>
      <trkpt lat="48.37231" lon="7.20605">
        <ele>630.22</ele>
        <time>2021-06-23T11:29:39Z</time>
      </trkpt>
      <trkpt lat="48.3724" lon="7.20632">
        <ele>630.72</ele>
        <time>2021-06-23T11:29:41Z</time>
      </trkpt>
      <trkpt lat="48.3727" lon="7.20754">
        <ele>640.28</ele>
        <time>2021-06-23T11:29:43Z</time>
      </trkpt>
      <trkpt lat="48.37277" lon="7.20774">
        <ele>640.41</ele>
        <time>2021-06-23T11:29:45Z</time>
      </trkpt>
      <trkpt lat="48.37288" lon="7.20788">
        <ele>640.54</ele>
        <time>2021-06-23T11:29:47Z</time>
      </trkpt>
      <trkpt lat="48.37313" lon="7.2081">
        <ele>640.3</ele>
        <time>2021-06-23T11:29:48Z</time>
      </trkpt>
      <trkpt lat="48.37333" lon="7.20818">
        <ele>642.27</ele>
        <time>2021-06-23T11:29:50Z</time>
      </trkpt>
      <trkpt lat="48.37348" lon="7.20828">
        <ele>644.03</ele>
        <time>2021-06-23T11:29:52Z</time>
      </trkpt>
      <trkpt lat="48.37354" lon="7.20836">
        <ele>645.3</ele>
        <time>2021-06-23T11:29:54Z</time>
      </trkpt>
      <trkpt lat="48.3736" lon="7.20847">
        <ele>646.52</ele>
        <time>2021-06-23T11:29:56Z</time>
      </trkpt>
      <trkpt lat="48.37363" lon="7.20862">
        <ele>647.67</ele>
        <time>2021-06-23T11:29:58Z</time>
      </trkpt>
      <trkpt lat="48.37363" lon="7.20884">
        <ele>647.75</ele>
        <time>2021-06-23T11:30:00Z</time>
      </trkpt>
      <trkpt lat="48.37357" lon="7.20904">
        <ele>648.94</ele>
        <time>2021-06-23T11:30:02Z</time>
      </trkpt>
      <trkpt lat="48.37342" lon="7.20946">
        <ele>653.33</ele>
        <time>2021-06-23T11:30:04Z</time>
      </trkpt>
      <trkpt lat="48.37333" lon="7.20975">
        <ele>656.33</ele>
        <time>2021-06-23T11:30:06Z</time>
      </trkpt>
      <trkpt lat="48.37329" lon="7.20991">
        <ele>658.71</ele>
        <time>2021-06-23T11:30:08Z</time>
      </trkpt>
      <trkpt lat="48.37326" lon="7.21016">
        <ele>660</ele>
        <time>2021-06-23T11:30:10Z</time>
      </trkpt>
      <trkpt lat="48.37326" lon="7.21056">
        <ele>661.34</ele>
        <time>2021-06-23T11:30:12Z</time>
      </trkpt>
      <trkpt lat="48.37339" lon="7.21236">
        <ele>668.44</ele>
        <time>2021-06-23T11:30:14Z</time>
      </trkpt>
      <trkpt lat="48.37335" lon="7.21285">
        <ele>672.91</ele>
        <time>2021-06-23T11:30:16Z</time>
      </trkpt>
      <trkpt lat="48.37329" lon="7.21324">
        <ele>672.88</ele>
        <time>2021-06-23T11:30:18Z</time>
      </trkpt>
      <trkpt lat="48.37301" lon="7.21459">
        <ele>682.04</ele>
        <time>2021-06-23T11:30:20Z</time>
      </trkpt>
      <trkpt lat="48.37286" lon="7.2151">
        <ele>684.84</ele>
        <time>2021-06-23T11:30:22Z</time>
      </trkpt>
      <trkpt lat="48.37256" lon="7.21582">
        <ele>693.47</ele>
        <time>2021-06-23T11:30:24Z</time>
      </trkpt>
      <trkpt lat="48.37248" lon="7.21607">
        <ele>694.52</ele>
        <time>2021-06-23T11:30:26Z</time>
      </trkpt>
      <trkpt lat="48.37236" lon="7.21646">
        <ele>694.33</ele>
        <time>2021-06-23T11:30:27Z</time>
      </trkpt>
      <trkpt lat="48.37226" lon="7.2169">
        <ele>694.81</ele>
        <time>2021-06-23T11:30:29Z</time>
      </trkpt>
      <trkpt lat="48.3722" lon="7.21725">
        <ele>693.9</ele>
        <time>2021-06-23T11:30:31Z</time>
      </trkpt>
      <trkpt lat="48.37215" lon="7.21771">
        <ele>694.24</ele>
        <time>2021-06-23T11:30:33Z</time>
      </trkpt>
      <trkpt lat="48.37212" lon="7.21837">
        <ele>703.23</ele>
        <time>2021-06-23T11:30:35Z</time>
      </trkpt>
      <trkpt lat="48.37212" lon="7.21885">
        <ele>705.12</ele>
        <time>2021-06-23T11:30:37Z</time>
      </trkpt>
      <trkpt lat="48.37216" lon="7.21928">
        <ele>702.3</ele>
        <time>2021-06-23T11:30:39Z</time>
      </trkpt>
      <trkpt lat="48.3722" lon="7.2196">
        <ele>702.05</ele>
        <time>2021-06-23T11:30:41Z</time>
      </trkpt>
      <trkpt lat="48.37256" lon="7.2211">
        <ele>710.84</ele>
        <time>2021-06-23T11:30:43Z</time>
      </trkpt>
      <trkpt lat="48.37265" lon="7.22179">
        <ele>715.83</ele>
        <time>2021-06-23T11:30:45Z</time>
      </trkpt>
      <trkpt lat="48.3727" lon="7.22266">
        <ele>726.41</ele>
        <time>2021-06-23T11:30:47Z</time>
      </trkpt>
      <trkpt lat="48.37272" lon="7.22334">
        <ele>733.55</ele>
        <time>2021-06-23T11:30:49Z</time>
      </trkpt>
      <trkpt lat="48.37271" lon="7.22363">
        <ele>736.2</ele>
        <time>2021-06-23T11:30:51Z</time>
      </trkpt>
      <trkpt lat="48.3726" lon="7.2244">
        <ele>737.04</ele>
        <time>2021-06-23T11:30:53Z</time>
      </trkpt>
      <trkpt lat="48.37259" lon="7.22478">
        <ele>738.59</ele>
        <time>2021-06-23T11:30:55Z</time>
      </trkpt>
      <trkpt lat="48.37269" lon="7.2259">
        <ele>741.24</ele>
        <time>2021-06-23T11:30:57Z</time>
      </trkpt>
      <trkpt lat="48.37284" lon="7.22733">
        <ele>742.53</ele>
        <time>2021-06-23T11:30:59Z</time>
      </trkpt>
      <trkpt lat="48.37292" lon="7.22758">
        <ele>741.89</ele>
        <time>2021-06-23T11:31:01Z</time>
      </trkpt>
      <trkpt lat="48.37298" lon="7.2277">
        <ele>742</ele>
        <time>2021-06-23T11:31:03Z</time>
      </trkpt>
      <trkpt lat="48.37306" lon="7.22781">
        <ele>742.77</ele>
        <time>2021-06-23T11:31:04Z</time>
      </trkpt>
      <trkpt lat="48.37356" lon="7.22825">
        <ele>740.75</ele>
        <time>2021-06-23T11:31:06Z</time>
      </trkpt>
      <trkpt lat="48.3737" lon="7.22842">
        <ele>740.61</ele>
        <time>2021-06-23T11:31:08Z</time>
      </trkpt>
      <trkpt lat="48.37378" lon="7.22857">
        <ele>741.04</ele>
        <time>2021-06-23T11:31:10Z</time>
      </trkpt>
      <trkpt lat="48.37386" lon="7.22876">
        <ele>742.41</ele>
        <time>2021-06-23T11:31:12Z</time>
      </trkpt>
      <trkpt lat="48.37394" lon="7.22897">
        <ele>744.57</ele>
        <time>2021-06-23T11:31:14Z</time>
      </trkpt>
      <trkpt lat="48.37408" lon="7.2297">
        <ele>750.72</ele>
        <time>2021-06-23T11:31:16Z</time>
      </trkpt>
      <trkpt lat="48.37424" lon="7.23077">
        <ele>752</ele>
        <time>2021-06-23T11:31:18Z</time>
      </trkpt>
      <trkpt lat="48.37427" lon="7.23107">
        <ele>752.22</ele>
        <time>2021-06-23T11:31:20Z</time>
      </trkpt>
      <trkpt lat="48.37427" lon="7.23155">
        <ele>750.44</ele>
        <time>2021-06-23T11:31:22Z</time>
      </trkpt>
      <trkpt lat="48.37413" lon="7.23303">
        <ele>756.74</ele>
        <time>2021-06-23T11:31:24Z</time>
      </trkpt>
      <trkpt lat="48.37413" lon="7.23322">
        <ele>757.72</ele>
        <time>2021-06-23T11:31:26Z</time>
      </trkpt>
      <trkpt lat="48.37414" lon="7.23343">
        <ele>758.84</ele>
        <time>2021-06-23T11:31:28Z</time>
      </trkpt>
      <trkpt lat="48.37417" lon="7.23359">
        <ele>759.85</ele>
        <time>2021-06-23T11:31:30Z</time>
      </trkpt>
      <trkpt lat="48.37427" lon="7.23393">
        <ele>765.25</ele>
        <time>2021-06-23T11:31:32Z</time>
      </trkpt>
      <trkpt lat="48.3744" lon="7.23414">
        <ele>770.95</ele>
        <time>2021-06-23T11:31:34Z</time>
      </trkpt>
      <trkpt lat="48.3745" lon="7.23425">
        <ele>772.55</ele>
        <time>2021-06-23T11:31:36Z</time>
      </trkpt>
      <trkpt lat="48.3745" lon="7.23425">
        <ele>772.55</ele>
        <time>2021-06-23T11:31:36Z</time>
      </trkpt>
      <trkpt lat="48.37459" lon="7.23435">
        <ele>774.16</ele>
        <time>2021-06-23T11:31:38Z</time>
      </trkpt>
      <trkpt lat="48.37643" lon="7.23562">
        <ele>792.68</ele>
        <time>2021-06-23T11:31:40Z</time>
      </trkpt>
      <trkpt lat="48.37659" lon="7.23566">
        <ele>794.42</ele>
        <time>2021-06-23T11:31:43Z</time>
      </trkpt>
      <trkpt lat="48.37681" lon="7.23563">
        <ele>796.93</ele>
        <time>2021-06-23T11:31:45Z</time>
      </trkpt>
      <trkpt lat="48.37701" lon="7.23555">
        <ele>799</ele>
        <time>2021-06-23T11:31:47Z</time>
      </trkpt>
      <trkpt lat="48.3772" lon="7.2354">
        <ele>798.15</ele>
        <time>2021-06-23T11:31:50Z</time>
      </trkpt>
      <trkpt lat="48.3775" lon="7.23512">
        <ele>796.99</ele>
        <time>2021-06-23T11:31:52Z</time>
      </trkpt>
      <trkpt lat="48.37824" lon="7.23458">
        <ele>802.32</ele>
        <time>2021-06-23T11:31:54Z</time>
      </trkpt>
      <trkpt lat="48.37844" lon="7.2345">
        <ele>802.67</ele>
        <time>2021-06-23T11:31:57Z</time>
      </trkpt>
      <trkpt lat="48.37868" lon="7.23447">
        <ele>805.33</ele>
        <time>2021-06-23T11:31:59Z</time>
      </trkpt>
      <trkpt lat="48.37885" lon="7.23448">
        <ele>806.85</ele>
        <time>2021-06-23T11:32:01Z</time>
      </trkpt>
      <trkpt lat="48.37904" lon="7.23456">
        <ele>808.61</ele>
        <time>2021-06-23T11:32:04Z</time>
      </trkpt>
      <trkpt lat="48.37934" lon="7.23478">
        <ele>812.24</ele>
        <time>2021-06-23T11:32:06Z</time>
      </trkpt>
      <trkpt lat="48.37993" lon="7.23527">
        <ele>829.34</ele>
        <time>2021-06-23T11:32:08Z</time>
      </trkpt>
      <trkpt lat="48.38009" lon="7.2353">
        <ele>833.18</ele>
        <time>2021-06-23T11:32:11Z</time>
      </trkpt>
      <trkpt lat="48.3802" lon="7.23527">
        <ele>834.21</ele>
        <time>2021-06-23T11:32:13Z</time>
      </trkpt>
      <trkpt lat="48.38031" lon="7.23517">
        <ele>834.28</ele>
        <time>2021-06-23T11:32:15Z</time>
      </trkpt>
      <trkpt lat="48.38044" lon="7.235">
        <ele>833.05</ele>
        <time>2021-06-23T11:32:18Z</time>
      </trkpt>
      <trkpt lat="48.38083" lon="7.23396">
        <ele>831.68</ele>
        <time>2021-06-23T11:32:20Z</time>
      </trkpt>
      <trkpt lat="48.38103" lon="7.23353">
        <ele>830.58</ele>
        <time>2021-06-23T11:32:22Z</time>
      </trkpt>
      <trkpt lat="48.38125" lon="7.23327">
        <ele>832.88</ele>
        <time>2021-06-23T11:32:24Z</time>
      </trkpt>
      <trkpt lat="48.3815" lon="7.23308">
        <ele>839.17</ele>
        <time>2021-06-23T11:32:27Z</time>
      </trkpt>
      <trkpt lat="48.38179" lon="7.23299">
        <ele>846.6</ele>
        <time>2021-06-23T11:32:29Z</time>
      </trkpt>
      <trkpt lat="48.38214" lon="7.23299">
        <ele>851.35</ele>
        <time>2021-06-23T11:32:31Z</time>
      </trkpt>
      <trkpt lat="48.38308" lon="7.23319">
        <ele>860.94</ele>
        <time>2021-06-23T11:32:34Z</time>
      </trkpt>
      <trkpt lat="48.38516" lon="7.23295">
        <ele>881.81</ele>
        <time>2021-06-23T11:32:36Z</time>
      </trkpt>
      <trkpt lat="48.38534" lon="7.23286">
        <ele>881.93</ele>
        <time>2021-06-23T11:32:38Z</time>
      </trkpt>
      <trkpt lat="48.38545" lon="7.23275">
        <ele>880.33</ele>
        <time>2021-06-23T11:32:41Z</time>
      </trkpt>
      <trkpt lat="48.38553" lon="7.2326">
        <ele>880.1</ele>
        <time>2021-06-23T11:32:43Z</time>
      </trkpt>
      <trkpt lat="48.38557" lon="7.23241">
        <ele>879.76</ele>
        <time>2021-06-23T11:32:45Z</time>
      </trkpt>
      <trkpt lat="48.38558" lon="7.23221">
        <ele>878.54</ele>
        <time>2021-06-23T11:32:48Z</time>
      </trkpt>
      <trkpt lat="48.38554" lon="7.23164">
        <ele>874.3</ele>
        <time>2021-06-23T11:32:50Z</time>
      </trkpt>
      <trkpt lat="48.38555" lon="7.23146">
        <ele>875.41</ele>
        <time>2021-06-23T11:32:52Z</time>
      </trkpt>
      <trkpt lat="48.38559" lon="7.2312">
        <ele>876.25</ele>
        <time>2021-06-23T11:32:55Z</time>
      </trkpt>
      <trkpt lat="48.38565" lon="7.23098">
        <ele>877.08</ele>
        <time>2021-06-23T11:32:57Z</time>
      </trkpt>
      <trkpt lat="48.38577" lon="7.23075">
        <ele>878.67</ele>
        <time>2021-06-23T11:32:59Z</time>
      </trkpt>
      <trkpt lat="48.38591" lon="7.23056">
        <ele>879.83</ele>
        <time>2021-06-23T11:33:02Z</time>
      </trkpt>
      <trkpt lat="48.38608" lon="7.2304">
        <ele>881.42</ele>
        <time>2021-06-23T11:33:04Z</time>
      </trkpt>
      <trkpt lat="48.38628" lon="7.23029">
        <ele>883.25</ele>
        <time>2021-06-23T11:33:06Z</time>
      </trkpt>
      <trkpt lat="48.38752" lon="7.22992">
        <ele>898.36</ele>
        <time>2021-06-23T11:33:09Z</time>
      </trkpt>
      <trkpt lat="48.38775" lon="7.22976">
        <ele>901.6</ele>
        <time>2021-06-23T11:33:11Z</time>
      </trkpt>
      <trkpt lat="48.38818" lon="7.22923">
        <ele>906.28</ele>
        <time>2021-06-23T11:33:13Z</time>
      </trkpt>
      <trkpt lat="48.38836" lon="7.22906">
        <ele>908.09</ele>
        <time>2021-06-23T11:33:16Z</time>
      </trkpt>
      <trkpt lat="48.3885" lon="7.22897">
        <ele>908.59</ele>
        <time>2021-06-23T11:33:18Z</time>
      </trkpt>
      <trkpt lat="48.38859" lon="7.22894">
        <ele>908.94</ele>
        <time>2021-06-23T11:33:20Z</time>
      </trkpt>
      <trkpt lat="48.3888" lon="7.22894">
        <ele>911.03</ele>
        <time>2021-06-23T11:33:22Z</time>
      </trkpt>
      <trkpt lat="48.38895" lon="7.22901">
        <ele>913.16</ele>
        <time>2021-06-23T11:33:25Z</time>
      </trkpt>
      <trkpt lat="48.38905" lon="7.22911">
        <ele>915.08</ele>
        <time>2021-06-23T11:33:27Z</time>
      </trkpt>
      <trkpt lat="48.38919" lon="7.22929">
        <ele>917.44</ele>
        <time>2021-06-23T11:33:29Z</time>
      </trkpt>
      <trkpt lat="48.38926" lon="7.22942">
        <ele>919.03</ele>
        <time>2021-06-23T11:33:32Z</time>
      </trkpt>
      <trkpt lat="48.38931" lon="7.22929">
        <ele>919.77</ele>
        <time>2021-06-23T11:33:35Z</time>
      </trkpt>
      <trkpt lat="48.38931" lon="7.22929">
        <ele>919.77</ele>
        <time>2021-06-23T11:33:35Z</time>
      </trkpt>
      <trkpt lat="48.38926" lon="7.22942">
        <ele>919.03</ele>
        <time>2021-06-23T11:33:38Z</time>
      </trkpt>
      <trkpt lat="48.38931" lon="7.2297">
        <ele>920.55</ele>
        <time>2021-06-23T11:33:41Z</time>
      </trkpt>
      <trkpt lat="48.38933" lon="7.23002">
        <ele>921.81</ele>
        <time>2021-06-23T11:33:45Z</time>
      </trkpt>
      <trkpt lat="48.38932" lon="7.23028">
        <ele>923.07</ele>
        <time>2021-06-23T11:33:48Z</time>
      </trkpt>
      <trkpt lat="48.38922" lon="7.23121">
        <ele>926.6</ele>
        <time>2021-06-23T11:33:51Z</time>
      </trkpt>
      <trkpt lat="48.38914" lon="7.23161">
        <ele>927.02</ele>
        <time>2021-06-23T11:33:55Z</time>
      </trkpt>
      <trkpt lat="48.38894" lon="7.23225">
        <ele>927.96</ele>
        <time>2021-06-23T11:33:58Z</time>
      </trkpt>
      <trkpt lat="48.38882" lon="7.23253">
        <ele>927.79</ele>
        <time>2021-06-23T11:34:01Z</time>
      </trkpt>
      <trkpt lat="48.3884" lon="7.23336">
        <ele>934.68</ele>
        <time>2021-06-23T11:34:05Z</time>
      </trkpt>
      <trkpt lat="48.38774" lon="7.23455">
        <ele>939.66</ele>
        <time>2021-06-23T11:34:08Z</time>
      </trkpt>
      <trkpt lat="48.38757" lon="7.23476">
        <ele>940.17</ele>
        <time>2021-06-23T11:34:11Z</time>
      </trkpt>
      <trkpt lat="48.3873" lon="7.23495">
        <ele>940.13</ele>
        <time>2021-06-23T11:34:15Z</time>
      </trkpt>
      <trkpt lat="48.38634" lon="7.2353">
        <ele>939.58</ele>
        <time>2021-06-23T11:34:18Z</time>
      </trkpt>
      <trkpt lat="48.38463" lon="7.23585">
        <ele>949.83</ele>
        <time>2021-06-23T11:34:21Z</time>
      </trkpt>
      <trkpt lat="48.38446" lon="7.23596">
        <ele>951.29</ele>
        <time>2021-06-23T11:34:24Z</time>
      </trkpt>
      <trkpt lat="48.38423" lon="7.23619">
        <ele>953.58</ele>
        <time>2021-06-23T11:34:28Z</time>
      </trkpt>
      <trkpt lat="48.38382" lon="7.2367">
        <ele>955.39</ele>
        <time>2021-06-23T11:34:31Z</time>
      </trkpt>
      <trkpt lat="48.38325" lon="7.23747">
        <ele>957.84</ele>
        <time>2021-06-23T11:34:34Z</time>
      </trkpt>
      <trkpt lat="48.3831" lon="7.23782">
        <ele>959.56</ele>
        <time>2021-06-23T11:34:38Z</time>
      </trkpt>
      <trkpt lat="48.38298" lon="7.23818">
        <ele>963.13</ele>
        <time>2021-06-23T11:34:41Z</time>
      </trkpt>
      <trkpt lat="48.38292" lon="7.23861">
        <ele>966.96</ele>
        <time>2021-06-23T11:34:44Z</time>
      </trkpt>
      <trkpt lat="48.38285" lon="7.23959">
        <ele>974.18</ele>
        <time>2021-06-23T11:34:48Z</time>
      </trkpt>
      <trkpt lat="48.38281" lon="7.23977">
        <ele>974.44</ele>
        <time>2021-06-23T11:34:51Z</time>
      </trkpt>
      <trkpt lat="48.38275" lon="7.23998">
        <ele>975.37</ele>
        <time>2021-06-23T11:34:54Z</time>
      </trkpt>
      <trkpt lat="48.38263" lon="7.24022">
        <ele>975.49</ele>
        <time>2021-06-23T11:34:58Z</time>
      </trkpt>
      <trkpt lat="48.38247" lon="7.24043">
        <ele>976.37</ele>
        <time>2021-06-23T11:35:01Z</time>
      </trkpt>
      <trkpt lat="48.38231" lon="7.24061">
        <ele>979.84</ele>
        <time>2021-06-23T11:35:04Z</time>
      </trkpt>
      <trkpt lat="48.38126" lon="7.24134">
        <ele>998.08</ele>
        <time>2021-06-23T11:35:08Z</time>
      </trkpt>
      <trkpt lat="48.38106" lon="7.2416">
        <ele>996.61</ele>
        <time>2021-06-23T11:35:11Z</time>
      </trkpt>
      <trkpt lat="48.38099" lon="7.24175">
        <ele>996.24</ele>
        <time>2021-06-23T11:35:14Z</time>
      </trkpt>
      <trkpt lat="48.38092" lon="7.24199">
        <ele>996.61</ele>
        <time>2021-06-23T11:35:18Z</time>
      </trkpt>
      <trkpt lat="48.38088" lon="7.24221">
        <ele>998.07</ele>
        <time>2021-06-23T11:35:21Z</time>
      </trkpt>
      <trkpt lat="48.38087" lon="7.24248">
        <ele>1000.16</ele>
        <time>2021-06-23T11:35:24Z</time>
      </trkpt>
      <trkpt lat="48.38089" lon="7.24281">
        <ele>1001.45</ele>
        <time>2021-06-23T11:35:28Z</time>
      </trkpt>
      <trkpt lat="48.38101" lon="7.24344">
        <ele>1001.35</ele>
        <time>2021-06-23T11:35:31Z</time>
      </trkpt>
      <trkpt lat="48.38137" lon="7.24465">
        <ele>1008.21</ele>
        <time>2021-06-23T11:35:34Z</time>
      </trkpt>
      <trkpt lat="48.38144" lon="7.24494">
        <ele>1008.33</ele>
        <time>2021-06-23T11:35:38Z</time>
      </trkpt>
      <trkpt lat="48.38155" lon="7.24561">
        <ele>1007.23</ele>
        <time>2021-06-23T11:35:41Z</time>
      </trkpt>
      <trkpt lat="48.38157" lon="7.24593">
        <ele>1007.37</ele>
        <time>2021-06-23T11:35:44Z</time>
      </trkpt>
      <trkpt lat="48.38156" lon="7.24612">
        <ele>1007.86</ele>
        <time>2021-06-23T11:35:48Z</time>
      </trkpt>
      <trkpt lat="48.38151" lon="7.24633">
        <ele>1008.69</ele>
        <time>2021-06-23T11:35:51Z</time>
      </trkpt>
      <trkpt lat="48.38141" lon="7.24656">
        <ele>1008.48</ele>
        <time>2021-06-23T11:35:54Z</time>
      </trkpt>
      <trkpt lat="48.38121" lon="7.24684">
        <ele>1007.41</ele>
        <time>2021-06-23T11:35:57Z</time>
      </trkpt>
      <trkpt lat="48.3801" lon="7.24807">
        <ele>1003.4</ele>
        <time>2021-06-23T11:36:01Z</time>
      </trkpt>
      <trkpt lat="48.37982" lon="7.24846">
        <ele>1002.06</ele>
        <time>2021-06-23T11:36:04Z</time>
      </trkpt>
      <trkpt lat="48.37968" lon="7.24876">
        <ele>1000.47</ele>
        <time>2021-06-23T11:36:07Z</time>
      </trkpt>
      <trkpt lat="48.37963" lon="7.24893">
        <ele>998.99</ele>
        <time>2021-06-23T11:36:11Z</time>
      </trkpt>
      <trkpt lat="48.37958" lon="7.24925">
        <ele>996.74</ele>
        <time>2021-06-23T11:36:14Z</time>
      </trkpt>
      <trkpt lat="48.37958" lon="7.24938">
        <ele>995.59</ele>
        <time>2021-06-23T11:36:17Z</time>
      </trkpt>
      <trkpt lat="48.37963" lon="7.24985">
        <ele>991.69</ele>
        <time>2021-06-23T11:36:21Z</time>
      </trkpt>
      <trkpt lat="48.37971" lon="7.25029">
        <ele>988.63</ele>
        <time>2021-06-23T11:36:24Z</time>
      </trkpt>
      <trkpt lat="48.37996" lon="7.25087">
        <ele>984.85</ele>
        <time>2021-06-23T11:36:27Z</time>
      </trkpt>
      <trkpt lat="48.3802" lon="7.25128">
        <ele>983.33</ele>
        <time>2021-06-23T11:36:31Z</time>
      </trkpt>
      <trkpt lat="48.38125" lon="7.25245">
        <ele>977.59</ele>
        <time>2021-06-23T11:36:34Z</time>
      </trkpt>
      <trkpt lat="48.38142" lon="7.25268">
        <ele>978.67</ele>
        <time>2021-06-23T11:36:37Z</time>
      </trkpt>
      <trkpt lat="48.38152" lon="7.25288">
        <ele>979.2</ele>
        <time>2021-06-23T11:36:41Z</time>
      </trkpt>
      <trkpt lat="48.38205" lon="7.25459">
        <ele>981.33</ele>
        <time>2021-06-23T11:36:44Z</time>
      </trkpt>
      <trkpt lat="48.38301" lon="7.25659">
        <ele>971.18</ele>
        <time>2021-06-23T11:36:47Z</time>
      </trkpt>
      <trkpt lat="48.38362" lon="7.25769">
        <ele>963.39</ele>
        <time>2021-06-23T11:36:51Z</time>
      </trkpt>
      <trkpt lat="48.38371" lon="7.25781">
        <ele>964.4</ele>
        <time>2021-06-23T11:36:54Z</time>
      </trkpt>
      <trkpt lat="48.38391" lon="7.25776">
        <ele>967.13</ele>
        <time>2021-06-23T11:36:57Z</time>
      </trkpt>
      <trkpt lat="48.38435" lon="7.2577">
        <ele>971.54</ele>
        <time>2021-06-23T11:37:01Z</time>
      </trkpt>
      <trkpt lat="48.38478" lon="7.2577">
        <ele>976.08</ele>
        <time>2021-06-23T11:37:04Z</time>
      </trkpt>
      <trkpt lat="48.38516" lon="7.25778">
        <ele>981.13</ele>
        <time>2021-06-23T11:37:07Z</time>
      </trkpt>
      <trkpt lat="48.38568" lon="7.25794">
        <ele>985.31</ele>
        <time>2021-06-23T11:37:11Z</time>
      </trkpt>
      <trkpt lat="48.38598" lon="7.25813">
        <ele>986.3</ele>
        <time>2021-06-23T11:37:14Z</time>
      </trkpt>
      <trkpt lat="48.38762" lon="7.26011">
        <ele>1002.01</ele>
        <time>2021-06-23T11:37:17Z</time>
      </trkpt>
      <trkpt lat="48.38783" lon="7.26066">
        <ele>1005.17</ele>
        <time>2021-06-23T11:37:21Z</time>
      </trkpt>
      <trkpt lat="48.38808" lon="7.26216">
        <ele>1022.13</ele>
        <time>2021-06-23T11:37:24Z</time>
      </trkpt>
      <trkpt lat="48.38811" lon="7.26312">
        <ele>1024.07</ele>
        <time>2021-06-23T11:37:27Z</time>
      </trkpt>
      <trkpt lat="48.38802" lon="7.26446">
        <ele>1033.7</ele>
        <time>2021-06-23T11:37:31Z</time>
      </trkpt>
      <trkpt lat="48.38776" lon="7.26678">
        <ele>1045.49</ele>
        <time>2021-06-23T11:37:34Z</time>
      </trkpt>
      <trkpt lat="48.38752" lon="7.26817">
        <ele>1051.95</ele>
        <time>2021-06-23T11:37:37Z</time>
      </trkpt>
      <trkpt lat="48.38743" lon="7.26936">
        <ele>1056.13</ele>
        <time>2021-06-23T11:37:40Z</time>
      </trkpt>
      <trkpt lat="48.38753" lon="7.26968">
        <ele>1061.52</ele>
        <time>2021-06-23T11:37:44Z</time>
      </trkpt>
      <trkpt lat="48.38753" lon="7.26968">
        <ele>1061.52</ele>
        <time>2021-06-23T11:37:44Z</time>
      </trkpt>
      <trkpt lat="48.38764" lon="7.26984">
        <ele>1063.23</ele>
        <time>2021-06-23T11:37:53Z</time>
      </trkpt>
      <trkpt lat="48.38785" lon="7.27">
        <ele>1066.77</ele>
        <time>2021-06-23T11:38:02Z</time>
      </trkpt>
      <trkpt lat="48.38817" lon="7.27002">
        <ele>1068.52</ele>
        <time>2021-06-23T11:38:10Z</time>
      </trkpt>
      <trkpt lat="48.39025" lon="7.26976">
        <ele>1071.73</ele>
        <time>2021-06-23T11:38:19Z</time>
      </trkpt>
      <trkpt lat="48.39413" lon="7.26913">
        <ele>1098.2</ele>
        <time>2021-06-23T11:38:28Z</time>
      </trkpt>
      <trkpt lat="48.39415" lon="7.26925">
        <ele>1099.01</ele>
        <time>2021-06-23T11:38:31Z</time>
      </trkpt>
      <trkpt lat="48.39418" lon="7.26935">
        <ele>1099.78</ele>
        <time>2021-06-23T11:38:33Z</time>
      </trkpt>
      <trkpt lat="48.39424" lon="7.26943">
        <ele>1100.48</ele>
        <time>2021-06-23T11:38:36Z</time>
      </trkpt>
      <trkpt lat="48.39431" lon="7.26949">
        <ele>1101.18</ele>
        <time>2021-06-23T11:38:39Z</time>
      </trkpt>
      <trkpt lat="48.39438" lon="7.26952">
        <ele>1101.68</ele>
        <time>2021-06-23T11:38:42Z</time>
      </trkpt>
      <trkpt lat="48.39446" lon="7.26951">
        <ele>1102.06</ele>
        <time>2021-06-23T11:38:44Z</time>
      </trkpt>
      <trkpt lat="48.39454" lon="7.26948">
        <ele>1102.33</ele>
        <time>2021-06-23T11:38:47Z</time>
      </trkpt>
      <trkpt lat="48.3946" lon="7.26941">
        <ele>1102.46</ele>
        <time>2021-06-23T11:38:50Z</time>
      </trkpt>
      <trkpt lat="48.39465" lon="7.26933">
        <ele>1102.32</ele>
        <time>2021-06-23T11:38:52Z</time>
      </trkpt>
      <trkpt lat="48.39469" lon="7.26922">
        <ele>1102.07</ele>
        <time>2021-06-23T11:38:55Z</time>
      </trkpt>
      <trkpt lat="48.3947" lon="7.2691">
        <ele>1101.68</ele>
        <time>2021-06-23T11:38:58Z</time>
      </trkpt>
      <trkpt lat="48.39469" lon="7.26899">
        <ele>1101.19</ele>
        <time>2021-06-23T11:39:00Z</time>
      </trkpt>
      <trkpt lat="48.39467" lon="7.26888">
        <ele>1100.49</ele>
        <time>2021-06-23T11:39:03Z</time>
      </trkpt>
      <trkpt lat="48.39702" lon="7.26689">
        <ele>1084.09</ele>
        <time>2021-06-23T11:39:06Z</time>
      </trkpt>
      <trkpt lat="48.39728" lon="7.26674">
        <ele>1084.61</ele>
        <time>2021-06-23T11:39:09Z</time>
      </trkpt>
      <trkpt lat="48.3976" lon="7.26661">
        <ele>1085.53</ele>
        <time>2021-06-23T11:39:11Z</time>
      </trkpt>
      <trkpt lat="48.39789" lon="7.26657">
        <ele>1084.05</ele>
        <time>2021-06-23T11:39:14Z</time>
      </trkpt>
      <trkpt lat="48.39819" lon="7.2666">
        <ele>1081.41</ele>
        <time>2021-06-23T11:39:17Z</time>
      </trkpt>
      <trkpt lat="48.39847" lon="7.26666">
        <ele>1079.02</ele>
        <time>2021-06-23T11:39:19Z</time>
      </trkpt>
      <trkpt lat="48.39879" lon="7.26681">
        <ele>1077.24</ele>
        <time>2021-06-23T11:39:22Z</time>
      </trkpt>
      <trkpt lat="48.39923" lon="7.26716">
        <ele>1074.6</ele>
        <time>2021-06-23T11:39:25Z</time>
      </trkpt>
      <trkpt lat="48.40145" lon="7.26918">
        <ele>1073.15</ele>
        <time>2021-06-23T11:39:27Z</time>
      </trkpt>
      <trkpt lat="48.4017" lon="7.26937">
        <ele>1074.25</ele>
        <time>2021-06-23T11:39:30Z</time>
      </trkpt>
      <trkpt lat="48.40219" lon="7.26967">
        <ele>1075.42</ele>
        <time>2021-06-23T11:39:33Z</time>
      </trkpt>
      <trkpt lat="48.40257" lon="7.2698">
        <ele>1078.53</ele>
        <time>2021-06-23T11:39:36Z</time>
      </trkpt>
      <trkpt lat="48.40287" lon="7.26985">
        <ele>1078.27</ele>
        <time>2021-06-23T11:39:38Z</time>
      </trkpt>
      <trkpt lat="48.40327" lon="7.26988">
        <ele>1076.77</ele>
        <time>2021-06-23T11:39:41Z</time>
      </trkpt>
      <trkpt lat="48.40432" lon="7.26986">
        <ele>1079.5</ele>
        <time>2021-06-23T11:39:44Z</time>
      </trkpt>
      <trkpt lat="48.40479" lon="7.26991">
        <ele>1079.21</ele>
        <time>2021-06-23T11:39:46Z</time>
      </trkpt>
      <trkpt lat="48.40523" lon="7.27007">
        <ele>1077.36</ele>
        <time>2021-06-23T11:39:49Z</time>
      </trkpt>
      <trkpt lat="48.40606" lon="7.27053">
        <ele>1069.37</ele>
        <time>2021-06-23T11:39:52Z</time>
      </trkpt>
      <trkpt lat="48.40638" lon="7.27073">
        <ele>1068.39</ele>
        <time>2021-06-23T11:39:54Z</time>
      </trkpt>
      <trkpt lat="48.40648" lon="7.27082">
        <ele>1065.27</ele>
        <time>2021-06-23T11:39:57Z</time>
      </trkpt>
      <trkpt lat="48.40648" lon="7.27082">
        <ele>1065.27</ele>
        <time>2021-06-23T11:39:57Z</time>
      </trkpt>
      <trkpt lat="48.40673" lon="7.27103">
        <ele>1062.16</ele>
        <time>2021-06-23T11:40:02Z</time>
      </trkpt>
      <trkpt lat="48.40704" lon="7.27139">
        <ele>1060</ele>
        <time>2021-06-23T11:40:07Z</time>
      </trkpt>
      <trkpt lat="48.40726" lon="7.27168">
        <ele>1062.85</ele>
        <time>2021-06-23T11:40:11Z</time>
      </trkpt>
      <trkpt lat="48.40741" lon="7.27195">
        <ele>1063.67</ele>
        <time>2021-06-23T11:40:16Z</time>
      </trkpt>
      <trkpt lat="48.40764" lon="7.27246">
        <ele>1061.89</ele>
        <time>2021-06-23T11:40:21Z</time>
      </trkpt>
      <trkpt lat="48.40781" lon="7.27288">
        <ele>1059.23</ele>
        <time>2021-06-23T11:40:26Z</time>
      </trkpt>
      <trkpt lat="48.40791" lon="7.27322">
        <ele>1058.34</ele>
        <time>2021-06-23T11:40:30Z</time>
      </trkpt>
      <trkpt lat="48.40827" lon="7.27523">
        <ele>1062.23</ele>
        <time>2021-06-23T11:40:35Z</time>
      </trkpt>
      <trkpt lat="48.40836" lon="7.27587">
        <ele>1063.52</ele>
        <time>2021-06-23T11:40:40Z</time>
      </trkpt>
      <trkpt lat="48.40842" lon="7.27649">
        <ele>1065.44</ele>
        <time>2021-06-23T11:40:44Z</time>
      </trkpt>
      <trkpt lat="48.40848" lon="7.27839">
        <ele>1062.39</ele>
        <time>2021-06-23T11:40:49Z</time>
      </trkpt>
      <trkpt lat="48.40854" lon="7.27903">
        <ele>1060.43</ele>
        <time>2021-06-23T11:40:54Z</time>
      </trkpt>
      <trkpt lat="48.40859" lon="7.27943">
        <ele>1061.56</ele>
        <time>2021-06-23T11:40:59Z</time>
      </trkpt>
      <trkpt lat="48.40867" lon="7.2798">
        <ele>1061.16</ele>
        <time>2021-06-23T11:41:03Z</time>
      </trkpt>
      <trkpt lat="48.40877" lon="7.28011">
        <ele>1059.87</ele>
        <time>2021-06-23T11:41:08Z</time>
      </trkpt>
      <trkpt lat="48.40909" lon="7.28076">
        <ele>1056.61</ele>
        <time>2021-06-23T11:41:13Z</time>
      </trkpt>
      <trkpt lat="48.40935" lon="7.28133">
        <ele>1053.27</ele>
        <time>2021-06-23T11:41:17Z</time>
      </trkpt>
      <trkpt lat="48.40974" lon="7.28254">
        <ele>1050.8</ele>
        <time>2021-06-23T11:41:22Z</time>
      </trkpt>
      <trkpt lat="48.40996" lon="7.28312">
        <ele>1049.27</ele>
        <time>2021-06-23T11:41:27Z</time>
      </trkpt>
      <trkpt lat="48.4104" lon="7.28401">
        <ele>1045.08</ele>
        <time>2021-06-23T11:41:32Z</time>
      </trkpt>
      <trkpt lat="48.41116" lon="7.28543">
        <ele>1036.6</ele>
        <time>2021-06-23T11:41:36Z</time>
      </trkpt>
      <trkpt lat="48.4114" lon="7.28584">
        <ele>1037.07</ele>
        <time>2021-06-23T11:41:41Z</time>
      </trkpt>
      <trkpt lat="48.41165" lon="7.28617">
        <ele>1037.46</ele>
        <time>2021-06-23T11:41:46Z</time>
      </trkpt>
      <trkpt lat="48.41208" lon="7.28668">
        <ele>1038.46</ele>
        <time>2021-06-23T11:41:51Z</time>
      </trkpt>
      <trkpt lat="48.41617" lon="7.29107">
        <ele>1018.63</ele>
        <time>2021-06-23T11:41:55Z</time>
      </trkpt>
      <trkpt lat="48.41682" lon="7.29183">
        <ele>1016.4</ele>
        <time>2021-06-23T11:42:00Z</time>
      </trkpt>
      <trkpt lat="48.41822" lon="7.29362">
        <ele>1018.14</ele>
        <time>2021-06-23T11:42:05Z</time>
      </trkpt>
      <trkpt lat="48.419" lon="7.29436">
        <ele>1020.79</ele>
        <time>2021-06-23T11:42:09Z</time>
      </trkpt>
      <trkpt lat="48.421" lon="7.29686">
        <ele>1028.32</ele>
        <time>2021-06-23T11:42:14Z</time>
      </trkpt>
      <trkpt lat="48.42168" lon="7.29776">
        <ele>1029.11</ele>
        <time>2021-06-23T11:42:19Z</time>
      </trkpt>
      <trkpt lat="48.42182" lon="7.29798">
        <ele>1029.2</ele>
        <time>2021-06-23T11:42:24Z</time>
      </trkpt>
      <trkpt lat="48.42207" lon="7.29845">
        <ele>1029.27</ele>
        <time>2021-06-23T11:42:28Z</time>
      </trkpt>
      <trkpt lat="48.42243" lon="7.29919">
        <ele>1032.12</ele>
        <time>2021-06-23T11:42:33Z</time>
      </trkpt>
      <trkpt lat="48.42259" lon="7.29946">
        <ele>1032.65</ele>
        <time>2021-06-23T11:42:38Z</time>
      </trkpt>
      <trkpt lat="48.42329" lon="7.30032">
        <ele>1034.15</ele>
        <time>2021-06-23T11:42:43Z</time>
      </trkpt>
      <trkpt lat="48.42399" lon="7.30111">
        <ele>1030.74</ele>
        <time>2021-06-23T11:42:47Z</time>
      </trkpt>
      <trkpt lat="48.42497" lon="7.3023">
        <ele>1030.07</ele>
        <time>2021-06-23T11:42:52Z</time>
      </trkpt>
      <trkpt lat="48.42569" lon="7.30351">
        <ele>1025.41</ele>
        <time>2021-06-23T11:42:57Z</time>
      </trkpt>
      <trkpt lat="48.42583" lon="7.30377">
        <ele>1023.82</ele>
        <time>2021-06-23T11:43:01Z</time>
      </trkpt>
      <trkpt lat="48.42596" lon="7.30405">
        <ele>1022.72</ele>
        <time>2021-06-23T11:43:06Z</time>
      </trkpt>
      <trkpt lat="48.42614" lon="7.30449">
        <ele>1021.49</ele>
        <time>2021-06-23T11:43:11Z</time>
      </trkpt>
      <trkpt lat="48.42651" lon="7.30553">
        <ele>1016.45</ele>
        <time>2021-06-23T11:43:16Z</time>
      </trkpt>
      <trkpt lat="48.42706" lon="7.30698">
        <ele>1004.86</ele>
        <time>2021-06-23T11:43:20Z</time>
      </trkpt>
      <trkpt lat="48.42718" lon="7.30742">
        <ele>1001.97</ele>
        <time>2021-06-23T11:43:25Z</time>
      </trkpt>
      <trkpt lat="48.42738" lon="7.30835">
        <ele>997.22</ele>
        <time>2021-06-23T11:43:30Z</time>
      </trkpt>
      <trkpt lat="48.42745" lon="7.30889">
        <ele>992.52</ele>
        <time>2021-06-23T11:43:34Z</time>
      </trkpt>
      <trkpt lat="48.42749" lon="7.30926">
        <ele>989.19</ele>
        <time>2021-06-23T11:43:39Z</time>
      </trkpt>
      <trkpt lat="48.42755" lon="7.31052">
        <ele>981.41</ele>
        <time>2021-06-23T11:43:44Z</time>
      </trkpt>
      <trkpt lat="48.4277" lon="7.31164">
        <ele>973.86</ele>
        <time>2021-06-23T11:43:49Z</time>
      </trkpt>
      <trkpt lat="48.42785" lon="7.31333">
        <ele>959.27</ele>
        <time>2021-06-23T11:43:53Z</time>
      </trkpt>
      <trkpt lat="48.42793" lon="7.31412">
        <ele>955.26</ele>
        <time>2021-06-23T11:43:58Z</time>
      </trkpt>
      <trkpt lat="48.42801" lon="7.31445">
        <ele>953.83</ele>
        <time>2021-06-23T11:44:03Z</time>
      </trkpt>
      <trkpt lat="48.42811" lon="7.31471">
        <ele>954.18</ele>
        <time>2021-06-23T11:44:08Z</time>
      </trkpt>
      <trkpt lat="48.42811" lon="7.31497">
        <ele>954.19</ele>
        <time>2021-06-23T11:44:10Z</time>
      </trkpt>
      <trkpt lat="48.42835" lon="7.31631">
        <ele>959.17</ele>
        <time>2021-06-23T11:44:11Z</time>
      </trkpt>
      <trkpt lat="48.42834" lon="7.3165">
        <ele>960.41</ele>
        <time>2021-06-23T11:44:13Z</time>
      </trkpt>
      <trkpt lat="48.42842" lon="7.31655">
        <ele>960.58</ele>
        <time>2021-06-23T11:44:30Z</time>
      </trkpt>
      <trkpt lat="48.42875" lon="7.31755">
        <ele>960.16</ele>
        <time>2021-06-23T11:44:47Z</time>
      </trkpt>
      <trkpt lat="48.42881" lon="7.31779">
        <ele>958.21</ele>
        <time>2021-06-23T11:45:04Z</time>
      </trkpt>
      <trkpt lat="48.42899" lon="7.31867">
        <ele>954.34</ele>
        <time>2021-06-23T11:45:21Z</time>
      </trkpt>
      <trkpt lat="48.42902" lon="7.319">
        <ele>953.56</ele>
        <time>2021-06-23T11:45:38Z</time>
      </trkpt>
      <trkpt lat="48.42902" lon="7.319">
        <ele>953.56</ele>
        <time>2021-06-23T11:45:38Z</time>
      </trkpt>
      <trkpt lat="48.42899" lon="7.31867">
        <ele>954.34</ele>
        <time>2021-06-23T11:45:55Z</time>
      </trkpt>
      <trkpt lat="48.42881" lon="7.31779">
        <ele>958.21</ele>
        <time>2021-06-23T11:46:12Z</time>
      </trkpt>
      <trkpt lat="48.42875" lon="7.31755">
        <ele>960.16</ele>
        <time>2021-06-23T11:46:28Z</time>
      </trkpt>
      <trkpt lat="48.42842" lon="7.31655">
        <ele>960.58</ele>
        <time>2021-06-23T11:46:45Z</time>
      </trkpt>
      <trkpt lat="48.42834" lon="7.3165">
        <ele>960.41</ele>
        <time>2021-06-23T11:47:02Z</time>
      </trkpt>
      <trkpt lat="48.42835" lon="7.31631">
        <ele>959.17</ele>
        <time>2021-06-23T11:47:03Z</time>
      </trkpt>
      <trkpt lat="48.42839" lon="7.3163">
        <ele>959.12</ele>
        <time>2021-06-23T11:47:04Z</time>
      </trkpt>
      <trkpt lat="48.42853" lon="7.31615">
        <ele>957.98</ele>
        <time>2021-06-23T11:47:05Z</time>
      </trkpt>
      <trkpt lat="48.42872" lon="7.31602">
        <ele>956.08</ele>
        <time>2021-06-23T11:47:06Z</time>
      </trkpt>
      <trkpt lat="48.42807" lon="7.31462">
        <ele>954.03</ele>
        <time>2021-06-23T11:47:10Z</time>
      </trkpt>
      <trkpt lat="48.42801" lon="7.31445">
        <ele>953.83</ele>
        <time>2021-06-23T11:47:14Z</time>
      </trkpt>
      <trkpt lat="48.42793" lon="7.31412">
        <ele>955.26</ele>
        <time>2021-06-23T11:47:18Z</time>
      </trkpt>
      <trkpt lat="48.42785" lon="7.31333">
        <ele>959.27</ele>
        <time>2021-06-23T11:47:22Z</time>
      </trkpt>
      <trkpt lat="48.4277" lon="7.31164">
        <ele>973.86</ele>
        <time>2021-06-23T11:47:26Z</time>
      </trkpt>
      <trkpt lat="48.42755" lon="7.31052">
        <ele>981.41</ele>
        <time>2021-06-23T11:47:30Z</time>
      </trkpt>
      <trkpt lat="48.42749" lon="7.30926">
        <ele>989.19</ele>
        <time>2021-06-23T11:47:34Z</time>
      </trkpt>
      <trkpt lat="48.42745" lon="7.30889">
        <ele>992.52</ele>
        <time>2021-06-23T11:47:39Z</time>
      </trkpt>
      <trkpt lat="48.42738" lon="7.30835">
        <ele>997.22</ele>
        <time>2021-06-23T11:47:43Z</time>
      </trkpt>
      <trkpt lat="48.42718" lon="7.30742">
        <ele>1001.97</ele>
        <time>2021-06-23T11:47:47Z</time>
      </trkpt>
      <trkpt lat="48.42706" lon="7.30698">
        <ele>1004.86</ele>
        <time>2021-06-23T11:47:51Z</time>
      </trkpt>
      <trkpt lat="48.42651" lon="7.30553">
        <ele>1016.45</ele>
        <time>2021-06-23T11:47:55Z</time>
      </trkpt>
      <trkpt lat="48.42754" lon="7.30441">
        <ele>1014.11</ele>
        <time>2021-06-23T11:47:58Z</time>
      </trkpt>
      <trkpt lat="48.42801" lon="7.30379">
        <ele>1017.8</ele>
        <time>2021-06-23T11:48:02Z</time>
      </trkpt>
      <trkpt lat="48.42936" lon="7.30153">
        <ele>1018.22</ele>
        <time>2021-06-23T11:48:05Z</time>
      </trkpt>
      <trkpt lat="48.43003" lon="7.30064">
        <ele>1016.77</ele>
        <time>2021-06-23T11:48:08Z</time>
      </trkpt>
      <trkpt lat="48.43079" lon="7.29974">
        <ele>1013.94</ele>
        <time>2021-06-23T11:48:12Z</time>
      </trkpt>
      <trkpt lat="48.43125" lon="7.29925">
        <ele>1013.31</ele>
        <time>2021-06-23T11:48:15Z</time>
      </trkpt>
      <trkpt lat="48.43183" lon="7.29868">
        <ele>1012.6</ele>
        <time>2021-06-23T11:48:19Z</time>
      </trkpt>
      <trkpt lat="48.43283" lon="7.29778">
        <ele>1014.41</ele>
        <time>2021-06-23T11:48:22Z</time>
      </trkpt>
      <trkpt lat="48.43336" lon="7.29737">
        <ele>1015.23</ele>
        <time>2021-06-23T11:48:25Z</time>
      </trkpt>
      <trkpt lat="48.43409" lon="7.29686">
        <ele>1011.42</ele>
        <time>2021-06-23T11:48:29Z</time>
      </trkpt>
      <trkpt lat="48.43442" lon="7.29667">
        <ele>1008.2</ele>
        <time>2021-06-23T11:48:32Z</time>
      </trkpt>
      <trkpt lat="48.43601" lon="7.29584">
        <ele>998.76</ele>
        <time>2021-06-23T11:48:36Z</time>
      </trkpt>
      <trkpt lat="48.4388" lon="7.29474">
        <ele>1012.26</ele>
        <time>2021-06-23T11:48:39Z</time>
      </trkpt>
      <trkpt lat="48.43934" lon="7.29443">
        <ele>1016.37</ele>
        <time>2021-06-23T11:48:42Z</time>
      </trkpt>
      <trkpt lat="48.43984" lon="7.29407">
        <ele>1019</ele>
        <time>2021-06-23T11:48:46Z</time>
      </trkpt>
      <trkpt lat="48.44025" lon="7.29364">
        <ele>1019.89</ele>
        <time>2021-06-23T11:48:49Z</time>
      </trkpt>
      <trkpt lat="48.4406" lon="7.29313">
        <ele>1020.96</ele>
        <time>2021-06-23T11:48:53Z</time>
      </trkpt>
      <trkpt lat="48.44073" lon="7.29289">
        <ele>1020.28</ele>
        <time>2021-06-23T11:48:56Z</time>
      </trkpt>
      <trkpt lat="48.44239" lon="7.28918">
        <ele>1021.97</ele>
        <time>2021-06-23T11:48:59Z</time>
      </trkpt>
      <trkpt lat="48.44262" lon="7.28862">
        <ele>1024.86</ele>
        <time>2021-06-23T11:49:03Z</time>
      </trkpt>
      <trkpt lat="48.44281" lon="7.2881">
        <ele>1026.59</ele>
        <time>2021-06-23T11:49:06Z</time>
      </trkpt>
      <trkpt lat="48.44298" lon="7.28761">
        <ele>1027.61</ele>
        <time>2021-06-23T11:49:10Z</time>
      </trkpt>
      <trkpt lat="48.4432" lon="7.28687">
        <ele>1027.27</ele>
        <time>2021-06-23T11:49:13Z</time>
      </trkpt>
      <trkpt lat="48.44338" lon="7.28637">
        <ele>1026.17</ele>
        <time>2021-06-23T11:49:16Z</time>
      </trkpt>
      <trkpt lat="48.44353" lon="7.28603">
        <ele>1023.91</ele>
        <time>2021-06-23T11:49:20Z</time>
      </trkpt>
      <trkpt lat="48.4437" lon="7.28579">
        <ele>1023.57</ele>
        <time>2021-06-23T11:49:23Z</time>
      </trkpt>
      <trkpt lat="48.44386" lon="7.28565">
        <ele>1023.75</ele>
        <time>2021-06-23T11:49:27Z</time>
      </trkpt>
      <trkpt lat="48.44398" lon="7.28558">
        <ele>1023.54</ele>
        <time>2021-06-23T11:49:30Z</time>
      </trkpt>
      <trkpt lat="48.44422" lon="7.2855">
        <ele>1023.15</ele>
        <time>2021-06-23T11:49:33Z</time>
      </trkpt>
      <trkpt lat="48.44463" lon="7.28543">
        <ele>1020</ele>
        <time>2021-06-23T11:49:37Z</time>
      </trkpt>
      <trkpt lat="48.44518" lon="7.2853">
        <ele>1017.58</ele>
        <time>2021-06-23T11:49:40Z</time>
      </trkpt>
      <trkpt lat="48.44537" lon="7.28521">
        <ele>1015.56</ele>
        <time>2021-06-23T11:49:44Z</time>
      </trkpt>
      <trkpt lat="48.44559" lon="7.28504">
        <ele>1012.65</ele>
        <time>2021-06-23T11:49:47Z</time>
      </trkpt>
      <trkpt lat="48.44601" lon="7.28452">
        <ele>1007.88</ele>
        <time>2021-06-23T11:49:50Z</time>
      </trkpt>
      <trkpt lat="48.44619" lon="7.28421">
        <ele>1006.67</ele>
        <time>2021-06-23T11:49:54Z</time>
      </trkpt>
      <trkpt lat="48.44679" lon="7.28284">
        <ele>992.31</ele>
        <time>2021-06-23T11:49:57Z</time>
      </trkpt>
      <trkpt lat="48.44694" lon="7.28237">
        <ele>987.13</ele>
        <time>2021-06-23T11:50:01Z</time>
      </trkpt>
      <trkpt lat="48.44709" lon="7.28176">
        <ele>985.37</ele>
        <time>2021-06-23T11:50:04Z</time>
      </trkpt>
      <trkpt lat="48.44715" lon="7.28125">
        <ele>985.23</ele>
        <time>2021-06-23T11:50:07Z</time>
      </trkpt>
      <trkpt lat="48.44715" lon="7.28095">
        <ele>984.51</ele>
        <time>2021-06-23T11:50:11Z</time>
      </trkpt>
      <trkpt lat="48.44712" lon="7.28065">
        <ele>982.77</ele>
        <time>2021-06-23T11:50:14Z</time>
      </trkpt>
      <trkpt lat="48.44703" lon="7.2802">
        <ele>981.75</ele>
        <time>2021-06-23T11:50:17Z</time>
      </trkpt>
      <trkpt lat="48.44636" lon="7.27797">
        <ele>988</ele>
        <time>2021-06-23T11:50:21Z</time>
      </trkpt>
      <trkpt lat="48.44582" lon="7.27661">
        <ele>979.38</ele>
        <time>2021-06-23T11:50:24Z</time>
      </trkpt>
      <trkpt lat="48.4455" lon="7.27589">
        <ele>981.05</ele>
        <time>2021-06-23T11:50:28Z</time>
      </trkpt>
      <trkpt lat="48.44475" lon="7.27466">
        <ele>973.01</ele>
        <time>2021-06-23T11:50:31Z</time>
      </trkpt>
      <trkpt lat="48.44345" lon="7.27283">
        <ele>954.43</ele>
        <time>2021-06-23T11:50:34Z</time>
      </trkpt>
      <trkpt lat="48.44328" lon="7.27228">
        <ele>952.07</ele>
        <time>2021-06-23T11:50:38Z</time>
      </trkpt>
      <trkpt lat="48.44315" lon="7.27167">
        <ele>943.72</ele>
        <time>2021-06-23T11:50:41Z</time>
      </trkpt>
      <trkpt lat="48.44321" lon="7.27114">
        <ele>941.13</ele>
        <time>2021-06-23T11:50:45Z</time>
      </trkpt>
      <trkpt lat="48.44333" lon="7.27062">
        <ele>937.94</ele>
        <time>2021-06-23T11:50:48Z</time>
      </trkpt>
      <trkpt lat="48.44354" lon="7.26957">
        <ele>932.76</ele>
        <time>2021-06-23T11:50:51Z</time>
      </trkpt>
      <trkpt lat="48.44377" lon="7.26727">
        <ele>916.31</ele>
        <time>2021-06-23T11:50:55Z</time>
      </trkpt>
      <trkpt lat="48.4439" lon="7.26672">
        <ele>912.39</ele>
        <time>2021-06-23T11:50:58Z</time>
      </trkpt>
      <trkpt lat="48.44422" lon="7.26628">
        <ele>911.86</ele>
        <time>2021-06-23T11:51:02Z</time>
      </trkpt>
      <trkpt lat="48.44449" lon="7.26617">
        <ele>911.25</ele>
        <time>2021-06-23T11:51:05Z</time>
      </trkpt>
      <trkpt lat="48.4454" lon="7.26605">
        <ele>907.95</ele>
        <time>2021-06-23T11:51:08Z</time>
      </trkpt>
      <trkpt lat="48.4458" lon="7.26583">
        <ele>906.55</ele>
        <time>2021-06-23T11:51:12Z</time>
      </trkpt>
      <trkpt lat="48.44614" lon="7.26533">
        <ele>901.44</ele>
        <time>2021-06-23T11:51:15Z</time>
      </trkpt>
      <trkpt lat="48.44645" lon="7.26465">
        <ele>898.41</ele>
        <time>2021-06-23T11:51:19Z</time>
      </trkpt>
      <trkpt lat="48.44666" lon="7.26398">
        <ele>894.05</ele>
        <time>2021-06-23T11:51:22Z</time>
      </trkpt>
      <trkpt lat="48.44678" lon="7.26333">
        <ele>890.67</ele>
        <time>2021-06-23T11:51:25Z</time>
      </trkpt>
      <trkpt lat="48.44682" lon="7.26266">
        <ele>888.02</ele>
        <time>2021-06-23T11:51:29Z</time>
      </trkpt>
      <trkpt lat="48.44673" lon="7.2615">
        <ele>879.16</ele>
        <time>2021-06-23T11:51:32Z</time>
      </trkpt>
      <trkpt lat="48.44675" lon="7.2605">
        <ele>878.64</ele>
        <time>2021-06-23T11:51:36Z</time>
      </trkpt>
      <trkpt lat="48.44663" lon="7.25989">
        <ele>869.54</ele>
        <time>2021-06-23T11:51:39Z</time>
      </trkpt>
      <trkpt lat="48.44641" lon="7.2593">
        <ele>858.57</ele>
        <time>2021-06-23T11:51:42Z</time>
      </trkpt>
      <trkpt lat="48.44637" lon="7.25902">
        <ele>856.99</ele>
        <time>2021-06-23T11:51:46Z</time>
      </trkpt>
      <trkpt lat="48.44641" lon="7.25867">
        <ele>857.24</ele>
        <time>2021-06-23T11:51:49Z</time>
      </trkpt>
      <trkpt lat="48.44661" lon="7.25844">
        <ele>860.35</ele>
        <time>2021-06-23T11:51:53Z</time>
      </trkpt>
      <trkpt lat="48.44686" lon="7.25822">
        <ele>858.38</ele>
        <time>2021-06-23T11:51:56Z</time>
      </trkpt>
      <trkpt lat="48.44701" lon="7.25802">
        <ele>854.98</ele>
        <time>2021-06-23T11:51:59Z</time>
      </trkpt>
      <trkpt lat="48.44755" lon="7.25704">
        <ele>843.88</ele>
        <time>2021-06-23T11:52:03Z</time>
      </trkpt>
      <trkpt lat="48.4479" lon="7.25654">
        <ele>840.96</ele>
        <time>2021-06-23T11:52:06Z</time>
      </trkpt>
      <trkpt lat="48.44834" lon="7.25615">
        <ele>839.4</ele>
        <time>2021-06-23T11:52:10Z</time>
      </trkpt>
      <trkpt lat="48.4486" lon="7.25599">
        <ele>837.54</ele>
        <time>2021-06-23T11:52:13Z</time>
      </trkpt>
      <trkpt lat="48.44885" lon="7.25587">
        <ele>837.23</ele>
        <time>2021-06-23T11:52:16Z</time>
      </trkpt>
      <trkpt lat="48.4492" lon="7.25578">
        <ele>837.73</ele>
        <time>2021-06-23T11:52:20Z</time>
      </trkpt>
      <trkpt lat="48.44972" lon="7.25578">
        <ele>837.21</ele>
        <time>2021-06-23T11:52:23Z</time>
      </trkpt>
      <trkpt lat="48.45012" lon="7.25572">
        <ele>835.15</ele>
        <time>2021-06-23T11:52:26Z</time>
      </trkpt>
      <trkpt lat="48.45125" lon="7.25515">
        <ele>828.37</ele>
        <time>2021-06-23T11:52:30Z</time>
      </trkpt>
      <trkpt lat="48.45144" lon="7.25507">
        <ele>826.36</ele>
        <time>2021-06-23T11:52:33Z</time>
      </trkpt>
      <trkpt lat="48.45261" lon="7.25505">
        <ele>820.54</ele>
        <time>2021-06-23T11:52:37Z</time>
      </trkpt>
      <trkpt lat="48.45307" lon="7.25502">
        <ele>814.54</ele>
        <time>2021-06-23T11:52:40Z</time>
      </trkpt>
      <trkpt lat="48.45322" lon="7.25499">
        <ele>812.84</ele>
        <time>2021-06-23T11:52:43Z</time>
      </trkpt>
      <trkpt lat="48.45348" lon="7.25486">
        <ele>807.82</ele>
        <time>2021-06-23T11:52:47Z</time>
      </trkpt>
      <trkpt lat="48.45364" lon="7.25471">
        <ele>804.36</ele>
        <time>2021-06-23T11:52:50Z</time>
      </trkpt>
      <trkpt lat="48.45385" lon="7.25443">
        <ele>803.4</ele>
        <time>2021-06-23T11:52:54Z</time>
      </trkpt>
      <trkpt lat="48.45396" lon="7.25416">
        <ele>804.16</ele>
        <time>2021-06-23T11:52:57Z</time>
      </trkpt>
      <trkpt lat="48.45401" lon="7.25386">
        <ele>804.58</ele>
        <time>2021-06-23T11:53:00Z</time>
      </trkpt>
      <trkpt lat="48.45404" lon="7.25366">
        <ele>805.05</ele>
        <time>2021-06-23T11:53:04Z</time>
      </trkpt>
      <trkpt lat="48.45404" lon="7.25317">
        <ele>804.09</ele>
        <time>2021-06-23T11:53:07Z</time>
      </trkpt>
      <trkpt lat="48.45403" lon="7.25289">
        <ele>803.24</ele>
        <time>2021-06-23T11:53:11Z</time>
      </trkpt>
      <trkpt lat="48.45365" lon="7.24936">
        <ele>791.02</ele>
        <time>2021-06-23T11:53:14Z</time>
      </trkpt>
      <trkpt lat="48.45355" lon="7.24857">
        <ele>788.77</ele>
        <time>2021-06-23T11:53:17Z</time>
      </trkpt>
      <trkpt lat="48.45349" lon="7.24842">
        <ele>788.79</ele>
        <time>2021-06-23T11:53:21Z</time>
      </trkpt>
      <trkpt lat="48.45331" lon="7.24807">
        <ele>789.14</ele>
        <time>2021-06-23T11:53:24Z</time>
      </trkpt>
      <trkpt lat="48.45285" lon="7.24739">
        <ele>784.98</ele>
        <time>2021-06-23T11:53:28Z</time>
      </trkpt>
      <trkpt lat="48.45204" lon="7.24674">
        <ele>785.9</ele>
        <time>2021-06-23T11:53:31Z</time>
      </trkpt>
      <trkpt lat="48.45187" lon="7.24664">
        <ele>786.46</ele>
        <time>2021-06-23T11:53:34Z</time>
      </trkpt>
      <trkpt lat="48.45168" lon="7.24664">
        <ele>788.49</ele>
        <time>2021-06-23T11:53:38Z</time>
      </trkpt>
      <trkpt lat="48.45151" lon="7.24676">
        <ele>787.77</ele>
        <time>2021-06-23T11:53:41Z</time>
      </trkpt>
      <trkpt lat="48.45082" lon="7.24762">
        <ele>785.35</ele>
        <time>2021-06-23T11:53:45Z</time>
      </trkpt>
      <trkpt lat="48.45072" lon="7.24767">
        <ele>783.93</ele>
        <time>2021-06-23T11:53:48Z</time>
      </trkpt>
      <trkpt lat="48.45064" lon="7.24766">
        <ele>781.84</ele>
        <time>2021-06-23T11:53:51Z</time>
      </trkpt>
      <trkpt lat="48.45061" lon="7.24756">
        <ele>779.31</ele>
        <time>2021-06-23T11:53:55Z</time>
      </trkpt>
      <trkpt lat="48.45061" lon="7.24746">
        <ele>778.02</ele>
        <time>2021-06-23T11:53:58Z</time>
      </trkpt>
      <trkpt lat="48.45088" lon="7.24682">
        <ele>775.49</ele>
        <time>2021-06-23T11:54:02Z</time>
      </trkpt>
      <trkpt lat="48.4511" lon="7.24619">
        <ele>769.38</ele>
        <time>2021-06-23T11:54:05Z</time>
      </trkpt>
      <trkpt lat="48.45137" lon="7.24585">
        <ele>768.95</ele>
        <time>2021-06-23T11:54:08Z</time>
      </trkpt>
      <trkpt lat="48.4515" lon="7.24578">
        <ele>769.03</ele>
        <time>2021-06-23T11:54:12Z</time>
      </trkpt>
      <trkpt lat="48.45183" lon="7.24576">
        <ele>769.38</ele>
        <time>2021-06-23T11:54:15Z</time>
      </trkpt>
      <trkpt lat="48.45407" lon="7.24592">
        <ele>748.73</ele>
        <time>2021-06-23T11:54:19Z</time>
      </trkpt>
      <trkpt lat="48.45432" lon="7.24603">
        <ele>745.97</ele>
        <time>2021-06-23T11:54:22Z</time>
      </trkpt>
      <trkpt lat="48.4546" lon="7.24625">
        <ele>744.62</ele>
        <time>2021-06-23T11:54:25Z</time>
      </trkpt>
      <trkpt lat="48.45492" lon="7.24662">
        <ele>742.59</ele>
        <time>2021-06-23T11:54:29Z</time>
      </trkpt>
      <trkpt lat="48.45516" lon="7.24698">
        <ele>742.08</ele>
        <time>2021-06-23T11:54:32Z</time>
      </trkpt>
      <trkpt lat="48.45524" lon="7.24701">
        <ele>741.18</ele>
        <time>2021-06-23T11:54:35Z</time>
      </trkpt>
      <trkpt lat="48.45531" lon="7.247">
        <ele>740.16</ele>
        <time>2021-06-23T11:54:39Z</time>
      </trkpt>
      <trkpt lat="48.45541" lon="7.24692">
        <ele>737.8</ele>
        <time>2021-06-23T11:54:42Z</time>
      </trkpt>
      <trkpt lat="48.45545" lon="7.2468">
        <ele>735.94</ele>
        <time>2021-06-23T11:54:46Z</time>
      </trkpt>
      <trkpt lat="48.45547" lon="7.24656">
        <ele>733.04</ele>
        <time>2021-06-23T11:54:49Z</time>
      </trkpt>
      <trkpt lat="48.4554" lon="7.24617">
        <ele>729.54</ele>
        <time>2021-06-23T11:54:52Z</time>
      </trkpt>
      <trkpt lat="48.4553" lon="7.24588">
        <ele>726.57</ele>
        <time>2021-06-23T11:54:56Z</time>
      </trkpt>
      <trkpt lat="48.45502" lon="7.24525">
        <ele>722.39</ele>
        <time>2021-06-23T11:54:59Z</time>
      </trkpt>
      <trkpt lat="48.45462" lon="7.2446">
        <ele>718.17</ele>
        <time>2021-06-23T11:55:03Z</time>
      </trkpt>
      <trkpt lat="48.45425" lon="7.24418">
        <ele>715.57</ele>
        <time>2021-06-23T11:55:06Z</time>
      </trkpt>
      <trkpt lat="48.4523" lon="7.24214">
        <ele>698.22</ele>
        <time>2021-06-23T11:55:09Z</time>
      </trkpt>
      <trkpt lat="48.45212" lon="7.24186">
        <ele>693.62</ele>
        <time>2021-06-23T11:55:13Z</time>
      </trkpt>
      <trkpt lat="48.45187" lon="7.24136">
        <ele>689.71</ele>
        <time>2021-06-23T11:55:16Z</time>
      </trkpt>
      <trkpt lat="48.45175" lon="7.24119">
        <ele>690.09</ele>
        <time>2021-06-23T11:55:20Z</time>
      </trkpt>
      <trkpt lat="48.45163" lon="7.24114">
        <ele>690.59</ele>
        <time>2021-06-23T11:55:23Z</time>
      </trkpt>
      <trkpt lat="48.45151" lon="7.2412">
        <ele>689.49</ele>
        <time>2021-06-23T11:55:26Z</time>
      </trkpt>
      <trkpt lat="48.45143" lon="7.24128">
        <ele>687.85</ele>
        <time>2021-06-23T11:55:30Z</time>
      </trkpt>
      <trkpt lat="48.45113" lon="7.24171">
        <ele>682.99</ele>
        <time>2021-06-23T11:55:33Z</time>
      </trkpt>
      <trkpt lat="48.45084" lon="7.24215">
        <ele>683.17</ele>
        <time>2021-06-23T11:55:37Z</time>
      </trkpt>
      <trkpt lat="48.45061" lon="7.24245">
        <ele>680.14</ele>
        <time>2021-06-23T11:55:40Z</time>
      </trkpt>
      <trkpt lat="48.45016" lon="7.24319">
        <ele>675.05</ele>
        <time>2021-06-23T11:55:43Z</time>
      </trkpt>
      <trkpt lat="48.44988" lon="7.24381">
        <ele>675.32</ele>
        <time>2021-06-23T11:55:47Z</time>
      </trkpt>
      <trkpt lat="48.44965" lon="7.24411">
        <ele>673.11</ele>
        <time>2021-06-23T11:55:50Z</time>
      </trkpt>
      <trkpt lat="48.44946" lon="7.24431">
        <ele>671.07</ele>
        <time>2021-06-23T11:55:54Z</time>
      </trkpt>
      <trkpt lat="48.44928" lon="7.24445">
        <ele>671.07</ele>
        <time>2021-06-23T11:55:57Z</time>
      </trkpt>
      <trkpt lat="48.44915" lon="7.24447">
        <ele>668.66</ele>
        <time>2021-06-23T11:56:00Z</time>
      </trkpt>
      <trkpt lat="48.44851" lon="7.24426">
        <ele>655.9</ele>
        <time>2021-06-23T11:56:04Z</time>
      </trkpt>
      <trkpt lat="48.44727" lon="7.24402">
        <ele>654.06</ele>
        <time>2021-06-23T11:56:07Z</time>
      </trkpt>
      <trkpt lat="48.44694" lon="7.24405">
        <ele>649.27</ele>
        <time>2021-06-23T11:56:11Z</time>
      </trkpt>
      <trkpt lat="48.4467" lon="7.24418">
        <ele>647.66</ele>
        <time>2021-06-23T11:56:14Z</time>
      </trkpt>
      <trkpt lat="48.44655" lon="7.24432">
        <ele>646.41</ele>
        <time>2021-06-23T11:56:17Z</time>
      </trkpt>
      <trkpt lat="48.44645" lon="7.24454">
        <ele>645.64</ele>
        <time>2021-06-23T11:56:21Z</time>
      </trkpt>
      <trkpt lat="48.44609" lon="7.24569">
        <ele>645.64</ele>
        <time>2021-06-23T11:56:24Z</time>
      </trkpt>
      <trkpt lat="48.44597" lon="7.24636">
        <ele>640.91</ele>
        <time>2021-06-23T11:56:28Z</time>
      </trkpt>
      <trkpt lat="48.44593" lon="7.24697">
        <ele>637.91</ele>
        <time>2021-06-23T11:56:31Z</time>
      </trkpt>
      <trkpt lat="48.44598" lon="7.24723">
        <ele>639.72</ele>
        <time>2021-06-23T11:56:34Z</time>
      </trkpt>
      <trkpt lat="48.44618" lon="7.24778">
        <ele>645.75</ele>
        <time>2021-06-23T11:56:38Z</time>
      </trkpt>
      <trkpt lat="48.44628" lon="7.24831">
        <ele>645.42</ele>
        <time>2021-06-23T11:56:41Z</time>
      </trkpt>
      <trkpt lat="48.44628" lon="7.24859">
        <ele>643</ele>
        <time>2021-06-23T11:56:45Z</time>
      </trkpt>
      <trkpt lat="48.44623" lon="7.24885">
        <ele>640.06</ele>
        <time>2021-06-23T11:56:48Z</time>
      </trkpt>
      <trkpt lat="48.44584" lon="7.24991">
        <ele>639.2</ele>
        <time>2021-06-23T11:56:51Z</time>
      </trkpt>
      <trkpt lat="48.44573" lon="7.25016">
        <ele>644.06</ele>
        <time>2021-06-23T11:56:55Z</time>
      </trkpt>
      <trkpt lat="48.4456" lon="7.25025">
        <ele>644.15</ele>
        <time>2021-06-23T11:56:58Z</time>
      </trkpt>
      <trkpt lat="48.44549" lon="7.25018">
        <ele>637.28</ele>
        <time>2021-06-23T11:57:01Z</time>
      </trkpt>
      <trkpt lat="48.44546" lon="7.25003">
        <ele>630.88</ele>
        <time>2021-06-23T11:57:05Z</time>
      </trkpt>
      <trkpt lat="48.44497" lon="7.24989">
        <ele>617.5</ele>
        <time>2021-06-23T11:57:07Z</time>
      </trkpt>
      <trkpt lat="48.44484" lon="7.24988">
        <ele>614.42</ele>
        <time>2021-06-23T11:57:08Z</time>
      </trkpt>
      <trkpt lat="48.44474" lon="7.24992">
        <ele>612.58</ele>
        <time>2021-06-23T11:57:10Z</time>
      </trkpt>
      <trkpt lat="48.44468" lon="7.25003">
        <ele>612.57</ele>
        <time>2021-06-23T11:57:11Z</time>
      </trkpt>
      <trkpt lat="48.44459" lon="7.25052">
        <ele>618.49</ele>
        <time>2021-06-23T11:57:13Z</time>
      </trkpt>
      <trkpt lat="48.44455" lon="7.25066">
        <ele>619.96</ele>
        <time>2021-06-23T11:57:14Z</time>
      </trkpt>
      <trkpt lat="48.44449" lon="7.25075">
        <ele>620.4</ele>
        <time>2021-06-23T11:57:16Z</time>
      </trkpt>
      <trkpt lat="48.44442" lon="7.25077">
        <ele>619.3</ele>
        <time>2021-06-23T11:57:17Z</time>
      </trkpt>
      <trkpt lat="48.44432" lon="7.25075">
        <ele>617.39</ele>
        <time>2021-06-23T11:57:19Z</time>
      </trkpt>
      <trkpt lat="48.44409" lon="7.2506">
        <ele>611.17</ele>
        <time>2021-06-23T11:57:21Z</time>
      </trkpt>
      <trkpt lat="48.44395" lon="7.25057">
        <ele>609.05</ele>
        <time>2021-06-23T11:57:22Z</time>
      </trkpt>
      <trkpt lat="48.4437" lon="7.25056">
        <ele>604.93</ele>
        <time>2021-06-23T11:57:24Z</time>
      </trkpt>
      <trkpt lat="48.44352" lon="7.25061">
        <ele>602.77</ele>
        <time>2021-06-23T11:57:25Z</time>
      </trkpt>
      <trkpt lat="48.44333" lon="7.25069">
        <ele>602.49</ele>
        <time>2021-06-23T11:57:27Z</time>
      </trkpt>
      <trkpt lat="48.44291" lon="7.251">
        <ele>599.09</ele>
        <time>2021-06-23T11:57:28Z</time>
      </trkpt>
      <trkpt lat="48.44274" lon="7.25119">
        <ele>597.52</ele>
        <time>2021-06-23T11:57:30Z</time>
      </trkpt>
      <trkpt lat="48.44261" lon="7.25143">
        <ele>597.87</ele>
        <time>2021-06-23T11:57:32Z</time>
      </trkpt>
      <trkpt lat="48.44261" lon="7.25143">
        <ele>597.87</ele>
        <time>2021-06-23T11:57:32Z</time>
      </trkpt>
      <trkpt lat="48.44243" lon="7.25167">
        <ele>597.05</ele>
        <time>2021-06-23T11:57:34Z</time>
      </trkpt>
      <trkpt lat="48.442" lon="7.25192">
        <ele>594.7</ele>
        <time>2021-06-23T11:57:36Z</time>
      </trkpt>
      <trkpt lat="48.44186" lon="7.25196">
        <ele>594.79</ele>
        <time>2021-06-23T11:57:39Z</time>
      </trkpt>
      <trkpt lat="48.44174" lon="7.25195">
        <ele>593.58</ele>
        <time>2021-06-23T11:57:41Z</time>
      </trkpt>
      <trkpt lat="48.44158" lon="7.25186">
        <ele>590.96</ele>
        <time>2021-06-23T11:57:43Z</time>
      </trkpt>
      <trkpt lat="48.44139" lon="7.25168">
        <ele>587.23</ele>
        <time>2021-06-23T11:57:46Z</time>
      </trkpt>
      <trkpt lat="48.44105" lon="7.25116">
        <ele>583.55</ele>
        <time>2021-06-23T11:57:48Z</time>
      </trkpt>
      <trkpt lat="48.44092" lon="7.25105">
        <ele>582.11</ele>
        <time>2021-06-23T11:57:51Z</time>
      </trkpt>
      <trkpt lat="48.44078" lon="7.25099">
        <ele>579.9</ele>
        <time>2021-06-23T11:57:53Z</time>
      </trkpt>
      <trkpt lat="48.44061" lon="7.25102">
        <ele>577.62</ele>
        <time>2021-06-23T11:57:55Z</time>
      </trkpt>
      <trkpt lat="48.44007" lon="7.25127">
        <ele>574.2</ele>
        <time>2021-06-23T11:57:58Z</time>
      </trkpt>
      <trkpt lat="48.43996" lon="7.25136">
        <ele>574.29</ele>
        <time>2021-06-23T11:58:00Z</time>
      </trkpt>
      <trkpt lat="48.43983" lon="7.25155">
        <ele>574.5</ele>
        <time>2021-06-23T11:58:02Z</time>
      </trkpt>
      <trkpt lat="48.43976" lon="7.25169">
        <ele>575.66</ele>
        <time>2021-06-23T11:58:05Z</time>
      </trkpt>
      <trkpt lat="48.43955" lon="7.2522">
        <ele>571.4</ele>
        <time>2021-06-23T11:58:07Z</time>
      </trkpt>
      <trkpt lat="48.43948" lon="7.25264">
        <ele>570.33</ele>
        <time>2021-06-23T11:58:09Z</time>
      </trkpt>
      <trkpt lat="48.43949" lon="7.25276">
        <ele>570.34</ele>
        <time>2021-06-23T11:58:12Z</time>
      </trkpt>
      <trkpt lat="48.43955" lon="7.2529">
        <ele>570.01</ele>
        <time>2021-06-23T11:58:14Z</time>
      </trkpt>
      <trkpt lat="48.43981" lon="7.25309">
        <ele>571.52</ele>
        <time>2021-06-23T11:58:17Z</time>
      </trkpt>
      <trkpt lat="48.43991" lon="7.25322">
        <ele>571.74</ele>
        <time>2021-06-23T11:58:19Z</time>
      </trkpt>
      <trkpt lat="48.44001" lon="7.25346">
        <ele>572.24</ele>
        <time>2021-06-23T11:58:21Z</time>
      </trkpt>
      <trkpt lat="48.44009" lon="7.25372">
        <ele>573.68</ele>
        <time>2021-06-23T11:58:24Z</time>
      </trkpt>
      <trkpt lat="48.44009" lon="7.25391">
        <ele>573.53</ele>
        <time>2021-06-23T11:58:26Z</time>
      </trkpt>
      <trkpt lat="48.44005" lon="7.25401">
        <ele>572.96</ele>
        <time>2021-06-23T11:58:28Z</time>
      </trkpt>
      <trkpt lat="48.44001" lon="7.25408">
        <ele>572.09</ele>
        <time>2021-06-23T11:58:31Z</time>
      </trkpt>
      <trkpt lat="48.43975" lon="7.25425">
        <ele>568.26</ele>
        <time>2021-06-23T11:58:33Z</time>
      </trkpt>
      <trkpt lat="48.43956" lon="7.25446">
        <ele>567.33</ele>
        <time>2021-06-23T11:58:35Z</time>
      </trkpt>
      <trkpt lat="48.43914" lon="7.25481">
        <ele>566.45</ele>
        <time>2021-06-23T11:58:38Z</time>
      </trkpt>
      <trkpt lat="48.43896" lon="7.25501">
        <ele>566.04</ele>
        <time>2021-06-23T11:58:40Z</time>
      </trkpt>
      <trkpt lat="48.43882" lon="7.2552">
        <ele>565.63</ele>
        <time>2021-06-23T11:58:43Z</time>
      </trkpt>
      <trkpt lat="48.43858" lon="7.25572">
        <ele>564.16</ele>
        <time>2021-06-23T11:58:45Z</time>
      </trkpt>
      <trkpt lat="48.43849" lon="7.25597">
        <ele>563.35</ele>
        <time>2021-06-23T11:58:47Z</time>
      </trkpt>
      <trkpt lat="48.4384" lon="7.25637">
        <ele>562.56</ele>
        <time>2021-06-23T11:58:50Z</time>
      </trkpt>
      <trkpt lat="48.43835" lon="7.25671">
        <ele>561.53</ele>
        <time>2021-06-23T11:58:52Z</time>
      </trkpt>
      <trkpt lat="48.43833" lon="7.25709">
        <ele>562.38</ele>
        <time>2021-06-23T11:58:54Z</time>
      </trkpt>
      <trkpt lat="48.43829" lon="7.25724">
        <ele>561.74</ele>
        <time>2021-06-23T11:58:57Z</time>
      </trkpt>
      <trkpt lat="48.43822" lon="7.25738">
        <ele>560.16</ele>
        <time>2021-06-23T11:58:59Z</time>
      </trkpt>
      <trkpt lat="48.4377" lon="7.25809">
        <ele>553.42</ele>
        <time>2021-06-23T11:59:02Z</time>
      </trkpt>
      <trkpt lat="48.43741" lon="7.25854">
        <ele>552.96</ele>
        <time>2021-06-23T11:59:04Z</time>
      </trkpt>
      <trkpt lat="48.43691" lon="7.25947">
        <ele>555.79</ele>
        <time>2021-06-23T11:59:06Z</time>
      </trkpt>
      <trkpt lat="48.43667" lon="7.25979">
        <ele>554.27</ele>
        <time>2021-06-23T11:59:09Z</time>
      </trkpt>
      <trkpt lat="48.43651" lon="7.25987">
        <ele>553.96</ele>
        <time>2021-06-23T11:59:11Z</time>
      </trkpt>
      <trkpt lat="48.43634" lon="7.26008">
        <ele>554.33</ele>
        <time>2021-06-23T11:59:13Z</time>
      </trkpt>
      <trkpt lat="48.43616" lon="7.26023">
        <ele>554.1</ele>
        <time>2021-06-23T11:59:16Z</time>
      </trkpt>
      <trkpt lat="48.436" lon="7.26038">
        <ele>553.66</ele>
        <time>2021-06-23T11:59:18Z</time>
      </trkpt>
      <trkpt lat="48.43591" lon="7.26042">
        <ele>552.85</ele>
        <time>2021-06-23T11:59:20Z</time>
      </trkpt>
      <trkpt lat="48.43586" lon="7.26041">
        <ele>552.27</ele>
        <time>2021-06-23T11:59:23Z</time>
      </trkpt>
      <trkpt lat="48.43577" lon="7.26031">
        <ele>551.56</ele>
        <time>2021-06-23T11:59:25Z</time>
      </trkpt>
      <trkpt lat="48.43575" lon="7.2602">
        <ele>550.82</ele>
        <time>2021-06-23T11:59:28Z</time>
      </trkpt>
      <trkpt lat="48.43577" lon="7.26009">
        <ele>550.13</ele>
        <time>2021-06-23T11:59:30Z</time>
      </trkpt>
      <trkpt lat="48.43596" lon="7.25964">
        <ele>548.46</ele>
        <time>2021-06-23T11:59:32Z</time>
      </trkpt>
      <trkpt lat="48.43612" lon="7.25936">
        <ele>547.95</ele>
        <time>2021-06-23T11:59:35Z</time>
      </trkpt>
      <trkpt lat="48.43612" lon="7.25936">
        <ele>547.95</ele>
        <time>2021-06-23T11:59:35Z</time>
      </trkpt>
      <trkpt lat="48.43625" lon="7.25912">
        <ele>547.33</ele>
        <time>2021-06-23T11:59:37Z</time>
      </trkpt>
      <trkpt lat="48.43634" lon="7.25887">
        <ele>545.21</ele>
        <time>2021-06-23T11:59:40Z</time>
      </trkpt>
      <trkpt lat="48.43662" lon="7.25741">
        <ele>535.39</ele>
        <time>2021-06-23T11:59:43Z</time>
      </trkpt>
      <trkpt lat="48.4367" lon="7.25707">
        <ele>533.52</ele>
        <time>2021-06-23T11:59:46Z</time>
      </trkpt>
      <trkpt lat="48.43681" lon="7.25683">
        <ele>532.14</ele>
        <time>2021-06-23T11:59:48Z</time>
      </trkpt>
      <trkpt lat="48.437" lon="7.25651">
        <ele>530.7</ele>
        <time>2021-06-23T11:59:51Z</time>
      </trkpt>
      <trkpt lat="48.43705" lon="7.25638">
        <ele>530.34</ele>
        <time>2021-06-23T11:59:54Z</time>
      </trkpt>
      <trkpt lat="48.43707" lon="7.25622">
        <ele>529.26</ele>
        <time>2021-06-23T11:59:56Z</time>
      </trkpt>
      <trkpt lat="48.43706" lon="7.25597">
        <ele>527.89</ele>
        <time>2021-06-23T11:59:59Z</time>
      </trkpt>
      <trkpt lat="48.43708" lon="7.25578">
        <ele>527.38</ele>
        <time>2021-06-23T12:00:02Z</time>
      </trkpt>
      <trkpt lat="48.43713" lon="7.25556">
        <ele>527.02</ele>
        <time>2021-06-23T12:00:05Z</time>
      </trkpt>
      <trkpt lat="48.43737" lon="7.25495">
        <ele>525.35</ele>
        <time>2021-06-23T12:00:07Z</time>
      </trkpt>
      <trkpt lat="48.43742" lon="7.25477">
        <ele>524.87</ele>
        <time>2021-06-23T12:00:10Z</time>
      </trkpt>
      <trkpt lat="48.43729" lon="7.2543">
        <ele>521.97</ele>
        <time>2021-06-23T12:00:13Z</time>
      </trkpt>
      <trkpt lat="48.4373" lon="7.25409">
        <ele>520.73</ele>
        <time>2021-06-23T12:00:15Z</time>
      </trkpt>
      <trkpt lat="48.43739" lon="7.25383">
        <ele>519.92</ele>
        <time>2021-06-23T12:00:18Z</time>
      </trkpt>
      <trkpt lat="48.4375" lon="7.25359">
        <ele>520.12</ele>
        <time>2021-06-23T12:00:21Z</time>
      </trkpt>
      <trkpt lat="48.43757" lon="7.25335">
        <ele>522.14</ele>
        <time>2021-06-23T12:00:24Z</time>
      </trkpt>
      <trkpt lat="48.43762" lon="7.25303">
        <ele>523.71</ele>
        <time>2021-06-23T12:00:26Z</time>
      </trkpt>
      <trkpt lat="48.43767" lon="7.25217">
        <ele>518.05</ele>
        <time>2021-06-23T12:00:29Z</time>
      </trkpt>
      <trkpt lat="48.43772" lon="7.25191">
        <ele>515.9</ele>
        <time>2021-06-23T12:00:32Z</time>
      </trkpt>
      <trkpt lat="48.43773" lon="7.25169">
        <ele>514.44</ele>
        <time>2021-06-23T12:00:34Z</time>
      </trkpt>
      <trkpt lat="48.43769" lon="7.25128">
        <ele>514.19</ele>
        <time>2021-06-23T12:00:37Z</time>
      </trkpt>
      <trkpt lat="48.43769" lon="7.25114">
        <ele>514.67</ele>
        <time>2021-06-23T12:00:40Z</time>
      </trkpt>
      <trkpt lat="48.43772" lon="7.25102">
        <ele>515.03</ele>
        <time>2021-06-23T12:00:43Z</time>
      </trkpt>
      <trkpt lat="48.43778" lon="7.25092">
        <ele>515.34</ele>
        <time>2021-06-23T12:00:45Z</time>
      </trkpt>
      <trkpt lat="48.43804" lon="7.25063">
        <ele>515.45</ele>
        <time>2021-06-23T12:00:48Z</time>
      </trkpt>
      <trkpt lat="48.43933" lon="7.24933">
        <ele>507.91</ele>
        <time>2021-06-23T12:00:51Z</time>
      </trkpt>
      <trkpt lat="48.43953" lon="7.24906">
        <ele>508.01</ele>
        <time>2021-06-23T12:00:53Z</time>
      </trkpt>
      <trkpt lat="48.43965" lon="7.24881">
        <ele>508.53</ele>
        <time>2021-06-23T12:00:56Z</time>
      </trkpt>
      <trkpt lat="48.43979" lon="7.24821">
        <ele>503.55</ele>
        <time>2021-06-23T12:00:59Z</time>
      </trkpt>
      <trkpt lat="48.43987" lon="7.248">
        <ele>501.67</ele>
        <time>2021-06-23T12:01:01Z</time>
      </trkpt>
      <trkpt lat="48.44009" lon="7.24755">
        <ele>498.04</ele>
        <time>2021-06-23T12:01:04Z</time>
      </trkpt>
      <trkpt lat="48.44123" lon="7.24599">
        <ele>485.13</ele>
        <time>2021-06-23T12:01:07Z</time>
      </trkpt>
      <trkpt lat="48.44133" lon="7.2458">
        <ele>483.8</ele>
        <time>2021-06-23T12:01:10Z</time>
      </trkpt>
      <trkpt lat="48.44139" lon="7.24557">
        <ele>482.18</ele>
        <time>2021-06-23T12:01:12Z</time>
      </trkpt>
      <trkpt lat="48.44149" lon="7.24489">
        <ele>479.95</ele>
        <time>2021-06-23T12:01:15Z</time>
      </trkpt>
      <trkpt lat="48.44155" lon="7.24463">
        <ele>479.28</ele>
        <time>2021-06-23T12:01:18Z</time>
      </trkpt>
      <trkpt lat="48.44168" lon="7.24424">
        <ele>481.26</ele>
        <time>2021-06-23T12:01:20Z</time>
      </trkpt>
      <trkpt lat="48.44178" lon="7.24378">
        <ele>483.64</ele>
        <time>2021-06-23T12:01:23Z</time>
      </trkpt>
      <trkpt lat="48.44178" lon="7.24378">
        <ele>483.64</ele>
        <time>2021-06-23T12:01:23Z</time>
      </trkpt>
      <trkpt lat="48.44183" lon="7.24343">
        <ele>483.49</ele>
        <time>2021-06-23T12:01:26Z</time>
      </trkpt>
      <trkpt lat="48.44187" lon="7.24276">
        <ele>480.78</ele>
        <time>2021-06-23T12:01:29Z</time>
      </trkpt>
      <trkpt lat="48.44187" lon="7.2422">
        <ele>478.15</ele>
        <time>2021-06-23T12:01:31Z</time>
      </trkpt>
      <trkpt lat="48.44184" lon="7.24164">
        <ele>476.2</ele>
        <time>2021-06-23T12:01:34Z</time>
      </trkpt>
      <trkpt lat="48.44187" lon="7.24137">
        <ele>474.52</ele>
        <time>2021-06-23T12:01:37Z</time>
      </trkpt>
      <trkpt lat="48.44195" lon="7.24114">
        <ele>474.34</ele>
        <time>2021-06-23T12:01:39Z</time>
      </trkpt>
      <trkpt lat="48.4426" lon="7.23977">
        <ele>474.4</ele>
        <time>2021-06-23T12:01:42Z</time>
      </trkpt>
      <trkpt lat="48.44289" lon="7.23925">
        <ele>470.52</ele>
        <time>2021-06-23T12:01:45Z</time>
      </trkpt>
      <trkpt lat="48.44309" lon="7.23899">
        <ele>468.39</ele>
        <time>2021-06-23T12:01:47Z</time>
      </trkpt>
      <trkpt lat="48.44335" lon="7.23874">
        <ele>473.69</ele>
        <time>2021-06-23T12:01:50Z</time>
      </trkpt>
      <trkpt lat="48.44357" lon="7.23847">
        <ele>475.59</ele>
        <time>2021-06-23T12:01:53Z</time>
      </trkpt>
      <trkpt lat="48.44407" lon="7.23766">
        <ele>469.57</ele>
        <time>2021-06-23T12:01:55Z</time>
      </trkpt>
      <trkpt lat="48.44426" lon="7.23723">
        <ele>463.04</ele>
        <time>2021-06-23T12:01:58Z</time>
      </trkpt>
      <trkpt lat="48.4445" lon="7.23681">
        <ele>457.73</ele>
        <time>2021-06-23T12:02:01Z</time>
      </trkpt>
      <trkpt lat="48.4445" lon="7.23681">
        <ele>457.73</ele>
        <time>2021-06-23T12:02:01Z</time>
      </trkpt>
      <trkpt lat="48.44468" lon="7.23643">
        <ele>450.59</ele>
        <time>2021-06-23T12:02:03Z</time>
      </trkpt>
      <trkpt lat="48.44481" lon="7.23664">
        <ele>456.5</ele>
        <time>2021-06-23T12:02:05Z</time>
      </trkpt>
      <trkpt lat="48.4449" lon="7.2367">
        <ele>458.86</ele>
        <time>2021-06-23T12:02:07Z</time>
      </trkpt>
      <trkpt lat="48.44501" lon="7.23673">
        <ele>461.12</ele>
        <time>2021-06-23T12:02:09Z</time>
      </trkpt>
      <trkpt lat="48.44511" lon="7.23669">
        <ele>463.92</ele>
        <time>2021-06-23T12:02:12Z</time>
      </trkpt>
      <trkpt lat="48.4452" lon="7.23659">
        <ele>465.36</ele>
        <time>2021-06-23T12:02:14Z</time>
      </trkpt>
      <trkpt lat="48.44547" lon="7.23618">
        <ele>466.14</ele>
        <time>2021-06-23T12:02:16Z</time>
      </trkpt>
      <trkpt lat="48.44588" lon="7.23568">
        <ele>471.48</ele>
        <time>2021-06-23T12:02:18Z</time>
      </trkpt>
      <trkpt lat="48.44624" lon="7.23541">
        <ele>478.56</ele>
        <time>2021-06-23T12:02:21Z</time>
      </trkpt>
      <trkpt lat="48.44746" lon="7.23507">
        <ele>500.16</ele>
        <time>2021-06-23T12:02:23Z</time>
      </trkpt>
      <trkpt lat="48.44761" lon="7.23496">
        <ele>501.36</ele>
        <time>2021-06-23T12:02:25Z</time>
      </trkpt>
      <trkpt lat="48.44769" lon="7.23488">
        <ele>501.2</ele>
        <time>2021-06-23T12:02:27Z</time>
      </trkpt>
      <trkpt lat="48.44791" lon="7.23449">
        <ele>499.95</ele>
        <time>2021-06-23T12:02:30Z</time>
      </trkpt>
      <trkpt lat="48.44805" lon="7.23428">
        <ele>501.08</ele>
        <time>2021-06-23T12:02:32Z</time>
      </trkpt>
      <trkpt lat="48.44815" lon="7.23417">
        <ele>502.05</ele>
        <time>2021-06-23T12:02:34Z</time>
      </trkpt>
      <trkpt lat="48.44851" lon="7.23392">
        <ele>508.12</ele>
        <time>2021-06-23T12:02:36Z</time>
      </trkpt>
      <trkpt lat="48.44887" lon="7.23347">
        <ele>508.38</ele>
        <time>2021-06-23T12:02:38Z</time>
      </trkpt>
      <trkpt lat="48.44898" lon="7.23338">
        <ele>507.35</ele>
        <time>2021-06-23T12:02:41Z</time>
      </trkpt>
      <trkpt lat="48.44905" lon="7.23339">
        <ele>507.79</ele>
        <time>2021-06-23T12:02:43Z</time>
      </trkpt>
      <trkpt lat="48.4491" lon="7.23343">
        <ele>508.84</ele>
        <time>2021-06-23T12:02:45Z</time>
      </trkpt>
      <trkpt lat="48.44912" lon="7.23352">
        <ele>510.91</ele>
        <time>2021-06-23T12:02:47Z</time>
      </trkpt>
      <trkpt lat="48.44912" lon="7.23364">
        <ele>513.63</ele>
        <time>2021-06-23T12:02:50Z</time>
      </trkpt>
      <trkpt lat="48.44906" lon="7.23376">
        <ele>516.49</ele>
        <time>2021-06-23T12:02:52Z</time>
      </trkpt>
      <trkpt lat="48.44875" lon="7.23407">
        <ele>516.65</ele>
        <time>2021-06-23T12:02:54Z</time>
      </trkpt>
      <trkpt lat="48.44845" lon="7.23446">
        <ele>512.82</ele>
        <time>2021-06-23T12:02:56Z</time>
      </trkpt>
      <trkpt lat="48.44833" lon="7.23469">
        <ele>513.24</ele>
        <time>2021-06-23T12:02:59Z</time>
      </trkpt>
      <trkpt lat="48.44815" lon="7.23513">
        <ele>519.11</ele>
        <time>2021-06-23T12:03:01Z</time>
      </trkpt>
      <trkpt lat="48.44791" lon="7.23579">
        <ele>529.87</ele>
        <time>2021-06-23T12:03:03Z</time>
      </trkpt>
      <trkpt lat="48.44779" lon="7.23603">
        <ele>532.19</ele>
        <time>2021-06-23T12:03:05Z</time>
      </trkpt>
      <trkpt lat="48.44719" lon="7.23692">
        <ele>531.72</ele>
        <time>2021-06-23T12:03:08Z</time>
      </trkpt>
      <trkpt lat="48.4471" lon="7.23709">
        <ele>531.42</ele>
        <time>2021-06-23T12:03:10Z</time>
      </trkpt>
      <trkpt lat="48.44703" lon="7.23731">
        <ele>530.88</ele>
        <time>2021-06-23T12:03:12Z</time>
      </trkpt>
      <trkpt lat="48.44702" lon="7.23751">
        <ele>530.99</ele>
        <time>2021-06-23T12:03:14Z</time>
      </trkpt>
      <trkpt lat="48.44707" lon="7.23773">
        <ele>532.02</ele>
        <time>2021-06-23T12:03:16Z</time>
      </trkpt>
      <trkpt lat="48.448" lon="7.23981">
        <ele>553.55</ele>
        <time>2021-06-23T12:03:19Z</time>
      </trkpt>
      <trkpt lat="48.44807" lon="7.24021">
        <ele>557.55</ele>
        <time>2021-06-23T12:03:21Z</time>
      </trkpt>
      <trkpt lat="48.44802" lon="7.24047">
        <ele>561.83</ele>
        <time>2021-06-23T12:03:23Z</time>
      </trkpt>
      <trkpt lat="48.44788" lon="7.24067">
        <ele>564.2</ele>
        <time>2021-06-23T12:03:25Z</time>
      </trkpt>
      <trkpt lat="48.44772" lon="7.24075">
        <ele>564.02</ele>
        <time>2021-06-23T12:03:28Z</time>
      </trkpt>
      <trkpt lat="48.44618" lon="7.24068">
        <ele>563.93</ele>
        <time>2021-06-23T12:03:30Z</time>
      </trkpt>
      <trkpt lat="48.44581" lon="7.24064">
        <ele>564.77</ele>
        <time>2021-06-23T12:03:32Z</time>
      </trkpt>
      <trkpt lat="48.44565" lon="7.24068">
        <ele>566.34</ele>
        <time>2021-06-23T12:03:34Z</time>
      </trkpt>
      <trkpt lat="48.44553" lon="7.24077">
        <ele>567.86</ele>
        <time>2021-06-23T12:03:37Z</time>
      </trkpt>
      <trkpt lat="48.44545" lon="7.24089">
        <ele>568.73</ele>
        <time>2021-06-23T12:03:39Z</time>
      </trkpt>
      <trkpt lat="48.44537" lon="7.24106">
        <ele>570.8</ele>
        <time>2021-06-23T12:03:41Z</time>
      </trkpt>
      <trkpt lat="48.44521" lon="7.24175">
        <ele>578.03</ele>
        <time>2021-06-23T12:03:43Z</time>
      </trkpt>
      <trkpt lat="48.44484" lon="7.24389">
        <ele>583.35</ele>
        <time>2021-06-23T12:03:46Z</time>
      </trkpt>
      <trkpt lat="48.4448" lon="7.24435">
        <ele>587.82</ele>
        <time>2021-06-23T12:03:48Z</time>
      </trkpt>
      <trkpt lat="48.4448" lon="7.24478">
        <ele>591.4</ele>
        <time>2021-06-23T12:03:50Z</time>
      </trkpt>
      <trkpt lat="48.44485" lon="7.24543">
        <ele>594.51</ele>
        <time>2021-06-23T12:03:52Z</time>
      </trkpt>
      <trkpt lat="48.445" lon="7.24616">
        <ele>596.77</ele>
        <time>2021-06-23T12:03:54Z</time>
      </trkpt>
      <trkpt lat="48.44523" lon="7.24688">
        <ele>602.97</ele>
        <time>2021-06-23T12:03:57Z</time>
      </trkpt>
      <trkpt lat="48.44547" lon="7.24751">
        <ele>614.03</ele>
        <time>2021-06-23T12:03:59Z</time>
      </trkpt>
      <trkpt lat="48.44584" lon="7.24828">
        <ele>625.99</ele>
        <time>2021-06-23T12:04:01Z</time>
      </trkpt>
      <trkpt lat="48.44591" lon="7.24845">
        <ele>627.53</ele>
        <time>2021-06-23T12:04:03Z</time>
      </trkpt>
      <trkpt lat="48.44593" lon="7.24867">
        <ele>627.36</ele>
        <time>2021-06-23T12:04:06Z</time>
      </trkpt>
      <trkpt lat="48.44591" lon="7.24894">
        <ele>626.68</ele>
        <time>2021-06-23T12:04:08Z</time>
      </trkpt>
      <trkpt lat="48.44586" lon="7.24919">
        <ele>627.24</ele>
        <time>2021-06-23T12:04:10Z</time>
      </trkpt>
      <trkpt lat="48.44567" lon="7.24961">
        <ele>627.41</ele>
        <time>2021-06-23T12:04:12Z</time>
      </trkpt>
      <trkpt lat="48.44553" lon="7.24986">
        <ele>627.99</ele>
        <time>2021-06-23T12:04:15Z</time>
      </trkpt>
      <trkpt lat="48.44546" lon="7.25003">
        <ele>630.88</ele>
        <time>2021-06-23T12:04:17Z</time>
      </trkpt>
      <trkpt lat="48.44549" lon="7.25018">
        <ele>637.28</ele>
        <time>2021-06-23T12:04:20Z</time>
      </trkpt>
      <trkpt lat="48.4456" lon="7.25025">
        <ele>644.15</ele>
        <time>2021-06-23T12:04:23Z</time>
      </trkpt>
      <trkpt lat="48.44573" lon="7.25016">
        <ele>644.06</ele>
        <time>2021-06-23T12:04:26Z</time>
      </trkpt>
      <trkpt lat="48.44584" lon="7.24991">
        <ele>639.2</ele>
        <time>2021-06-23T12:04:29Z</time>
      </trkpt>
      <trkpt lat="48.44623" lon="7.24885">
        <ele>640.06</ele>
        <time>2021-06-23T12:04:32Z</time>
      </trkpt>
      <trkpt lat="48.44628" lon="7.24859">
        <ele>643</ele>
        <time>2021-06-23T12:04:35Z</time>
      </trkpt>
      <trkpt lat="48.44628" lon="7.24831">
        <ele>645.42</ele>
        <time>2021-06-23T12:04:38Z</time>
      </trkpt>
      <trkpt lat="48.44618" lon="7.24778">
        <ele>645.75</ele>
        <time>2021-06-23T12:04:41Z</time>
      </trkpt>
      <trkpt lat="48.44598" lon="7.24723">
        <ele>639.72</ele>
        <time>2021-06-23T12:04:44Z</time>
      </trkpt>
      <trkpt lat="48.44593" lon="7.24697">
        <ele>637.91</ele>
        <time>2021-06-23T12:04:47Z</time>
      </trkpt>
      <trkpt lat="48.44597" lon="7.24636">
        <ele>640.91</ele>
        <time>2021-06-23T12:04:50Z</time>
      </trkpt>
      <trkpt lat="48.44609" lon="7.24569">
        <ele>645.64</ele>
        <time>2021-06-23T12:04:53Z</time>
      </trkpt>
      <trkpt lat="48.44645" lon="7.24454">
        <ele>645.64</ele>
        <time>2021-06-23T12:04:56Z</time>
      </trkpt>
      <trkpt lat="48.44655" lon="7.24432">
        <ele>646.41</ele>
        <time>2021-06-23T12:04:59Z</time>
      </trkpt>
      <trkpt lat="48.4467" lon="7.24418">
        <ele>647.66</ele>
        <time>2021-06-23T12:05:02Z</time>
      </trkpt>
      <trkpt lat="48.44694" lon="7.24405">
        <ele>649.27</ele>
        <time>2021-06-23T12:05:05Z</time>
      </trkpt>
      <trkpt lat="48.44727" lon="7.24402">
        <ele>654.06</ele>
        <time>2021-06-23T12:05:08Z</time>
      </trkpt>
      <trkpt lat="48.44851" lon="7.24426">
        <ele>655.9</ele>
        <time>2021-06-23T12:05:11Z</time>
      </trkpt>
      <trkpt lat="48.44915" lon="7.24447">
        <ele>668.66</ele>
        <time>2021-06-23T12:05:14Z</time>
      </trkpt>
      <trkpt lat="48.44928" lon="7.24445">
        <ele>671.07</ele>
        <time>2021-06-23T12:05:17Z</time>
      </trkpt>
      <trkpt lat="48.44946" lon="7.24431">
        <ele>671.07</ele>
        <time>2021-06-23T12:05:20Z</time>
      </trkpt>
      <trkpt lat="48.44965" lon="7.24411">
        <ele>673.11</ele>
        <time>2021-06-23T12:05:23Z</time>
      </trkpt>
      <trkpt lat="48.44988" lon="7.24381">
        <ele>675.32</ele>
        <time>2021-06-23T12:05:26Z</time>
      </trkpt>
      <trkpt lat="48.45016" lon="7.24319">
        <ele>675.05</ele>
        <time>2021-06-23T12:05:29Z</time>
      </trkpt>
      <trkpt lat="48.45061" lon="7.24245">
        <ele>680.14</ele>
        <time>2021-06-23T12:05:32Z</time>
      </trkpt>
      <trkpt lat="48.45084" lon="7.24215">
        <ele>683.17</ele>
        <time>2021-06-23T12:05:35Z</time>
      </trkpt>
      <trkpt lat="48.45113" lon="7.24171">
        <ele>682.99</ele>
        <time>2021-06-23T12:05:38Z</time>
      </trkpt>
      <trkpt lat="48.45143" lon="7.24128">
        <ele>687.85</ele>
        <time>2021-06-23T12:05:41Z</time>
      </trkpt>
      <trkpt lat="48.45151" lon="7.2412">
        <ele>689.49</ele>
        <time>2021-06-23T12:05:44Z</time>
      </trkpt>
      <trkpt lat="48.45163" lon="7.24114">
        <ele>690.59</ele>
        <time>2021-06-23T12:05:47Z</time>
      </trkpt>
      <trkpt lat="48.45175" lon="7.24119">
        <ele>690.09</ele>
        <time>2021-06-23T12:05:50Z</time>
      </trkpt>
      <trkpt lat="48.45187" lon="7.24136">
        <ele>689.71</ele>
        <time>2021-06-23T12:05:53Z</time>
      </trkpt>
      <trkpt lat="48.45212" lon="7.24186">
        <ele>693.62</ele>
        <time>2021-06-23T12:05:56Z</time>
      </trkpt>
      <trkpt lat="48.4523" lon="7.24214">
        <ele>698.22</ele>
        <time>2021-06-23T12:05:59Z</time>
      </trkpt>
      <trkpt lat="48.45425" lon="7.24418">
        <ele>715.57</ele>
        <time>2021-06-23T12:06:02Z</time>
      </trkpt>
      <trkpt lat="48.45462" lon="7.2446">
        <ele>718.17</ele>
        <time>2021-06-23T12:06:05Z</time>
      </trkpt>
      <trkpt lat="48.45502" lon="7.24525">
        <ele>722.39</ele>
        <time>2021-06-23T12:06:08Z</time>
      </trkpt>
      <trkpt lat="48.4553" lon="7.24588">
        <ele>726.57</ele>
        <time>2021-06-23T12:06:11Z</time>
      </trkpt>
      <trkpt lat="48.4554" lon="7.24617">
        <ele>729.54</ele>
        <time>2021-06-23T12:06:14Z</time>
      </trkpt>
      <trkpt lat="48.45547" lon="7.24656">
        <ele>733.04</ele>
        <time>2021-06-23T12:06:17Z</time>
      </trkpt>
      <trkpt lat="48.45545" lon="7.2468">
        <ele>735.94</ele>
        <time>2021-06-23T12:06:20Z</time>
      </trkpt>
      <trkpt lat="48.45541" lon="7.24692">
        <ele>737.8</ele>
        <time>2021-06-23T12:06:23Z</time>
      </trkpt>
      <trkpt lat="48.45531" lon="7.247">
        <ele>740.16</ele>
        <time>2021-06-23T12:06:26Z</time>
      </trkpt>
      <trkpt lat="48.45524" lon="7.24701">
        <ele>741.18</ele>
        <time>2021-06-23T12:06:29Z</time>
      </trkpt>
      <trkpt lat="48.45516" lon="7.24698">
        <ele>742.08</ele>
        <time>2021-06-23T12:06:32Z</time>
      </trkpt>
      <trkpt lat="48.45492" lon="7.24662">
        <ele>742.59</ele>
        <time>2021-06-23T12:06:35Z</time>
      </trkpt>
      <trkpt lat="48.4546" lon="7.24625">
        <ele>744.62</ele>
        <time>2021-06-23T12:06:38Z</time>
      </trkpt>
      <trkpt lat="48.45432" lon="7.24603">
        <ele>745.97</ele>
        <time>2021-06-23T12:06:41Z</time>
      </trkpt>
      <trkpt lat="48.45407" lon="7.24592">
        <ele>748.73</ele>
        <time>2021-06-23T12:06:44Z</time>
      </trkpt>
      <trkpt lat="48.45183" lon="7.24576">
        <ele>769.38</ele>
        <time>2021-06-23T12:06:47Z</time>
      </trkpt>
      <trkpt lat="48.4515" lon="7.24578">
        <ele>769.03</ele>
        <time>2021-06-23T12:06:50Z</time>
      </trkpt>
      <trkpt lat="48.45137" lon="7.24585">
        <ele>768.95</ele>
        <time>2021-06-23T12:06:53Z</time>
      </trkpt>
      <trkpt lat="48.4511" lon="7.24619">
        <ele>769.38</ele>
        <time>2021-06-23T12:06:56Z</time>
      </trkpt>
      <trkpt lat="48.45088" lon="7.24682">
        <ele>775.49</ele>
        <time>2021-06-23T12:06:59Z</time>
      </trkpt>
      <trkpt lat="48.45061" lon="7.24746">
        <ele>778.02</ele>
        <time>2021-06-23T12:07:02Z</time>
      </trkpt>
      <trkpt lat="48.45061" lon="7.24756">
        <ele>779.31</ele>
        <time>2021-06-23T12:07:05Z</time>
      </trkpt>
      <trkpt lat="48.45064" lon="7.24766">
        <ele>781.84</ele>
        <time>2021-06-23T12:07:08Z</time>
      </trkpt>
      <trkpt lat="48.45072" lon="7.24767">
        <ele>783.93</ele>
        <time>2021-06-23T12:07:11Z</time>
      </trkpt>
      <trkpt lat="48.45082" lon="7.24762">
        <ele>785.35</ele>
        <time>2021-06-23T12:07:14Z</time>
      </trkpt>
      <trkpt lat="48.45151" lon="7.24676">
        <ele>787.77</ele>
        <time>2021-06-23T12:07:17Z</time>
      </trkpt>
      <trkpt lat="48.45168" lon="7.24664">
        <ele>788.49</ele>
        <time>2021-06-23T12:07:20Z</time>
      </trkpt>
      <trkpt lat="48.45187" lon="7.24664">
        <ele>786.46</ele>
        <time>2021-06-23T12:07:23Z</time>
      </trkpt>
      <trkpt lat="48.45204" lon="7.24674">
        <ele>785.9</ele>
        <time>2021-06-23T12:07:26Z</time>
      </trkpt>
      <trkpt lat="48.45285" lon="7.24739">
        <ele>784.98</ele>
        <time>2021-06-23T12:07:29Z</time>
      </trkpt>
      <trkpt lat="48.45331" lon="7.24807">
        <ele>789.14</ele>
        <time>2021-06-23T12:07:32Z</time>
      </trkpt>
      <trkpt lat="48.45349" lon="7.24842">
        <ele>788.79</ele>
        <time>2021-06-23T12:07:35Z</time>
      </trkpt>
      <trkpt lat="48.45355" lon="7.24857">
        <ele>788.77</ele>
        <time>2021-06-23T12:07:38Z</time>
      </trkpt>
      <trkpt lat="48.45365" lon="7.24936">
        <ele>791.02</ele>
        <time>2021-06-23T12:07:41Z</time>
      </trkpt>
      <trkpt lat="48.45403" lon="7.25289">
        <ele>803.24</ele>
        <time>2021-06-23T12:07:44Z</time>
      </trkpt>
      <trkpt lat="48.45404" lon="7.25317">
        <ele>804.09</ele>
        <time>2021-06-23T12:07:47Z</time>
      </trkpt>
      <trkpt lat="48.45404" lon="7.25366">
        <ele>805.05</ele>
        <time>2021-06-23T12:07:50Z</time>
      </trkpt>
      <trkpt lat="48.45401" lon="7.25386">
        <ele>804.58</ele>
        <time>2021-06-23T12:07:53Z</time>
      </trkpt>
      <trkpt lat="48.45396" lon="7.25416">
        <ele>804.16</ele>
        <time>2021-06-23T12:07:56Z</time>
      </trkpt>
      <trkpt lat="48.45385" lon="7.25443">
        <ele>803.4</ele>
        <time>2021-06-23T12:07:59Z</time>
      </trkpt>
      <trkpt lat="48.45364" lon="7.25471">
        <ele>804.36</ele>
        <time>2021-06-23T12:08:02Z</time>
      </trkpt>
      <trkpt lat="48.45348" lon="7.25486">
        <ele>807.82</ele>
        <time>2021-06-23T12:08:05Z</time>
      </trkpt>
      <trkpt lat="48.45322" lon="7.25499">
        <ele>812.84</ele>
        <time>2021-06-23T12:08:08Z</time>
      </trkpt>
      <trkpt lat="48.45307" lon="7.25502">
        <ele>814.54</ele>
        <time>2021-06-23T12:08:11Z</time>
      </trkpt>
      <trkpt lat="48.45261" lon="7.25505">
        <ele>820.54</ele>
        <time>2021-06-23T12:08:14Z</time>
      </trkpt>
      <trkpt lat="48.45144" lon="7.25507">
        <ele>826.36</ele>
        <time>2021-06-23T12:08:17Z</time>
      </trkpt>
      <trkpt lat="48.45125" lon="7.25515">
        <ele>828.37</ele>
        <time>2021-06-23T12:08:20Z</time>
      </trkpt>
      <trkpt lat="48.45012" lon="7.25572">
        <ele>835.15</ele>
        <time>2021-06-23T12:08:23Z</time>
      </trkpt>
      <trkpt lat="48.44972" lon="7.25578">
        <ele>837.21</ele>
        <time>2021-06-23T12:08:26Z</time>
      </trkpt>
      <trkpt lat="48.4492" lon="7.25578">
        <ele>837.73</ele>
        <time>2021-06-23T12:08:29Z</time>
      </trkpt>
      <trkpt lat="48.44885" lon="7.25587">
        <ele>837.23</ele>
        <time>2021-06-23T12:08:32Z</time>
      </trkpt>
      <trkpt lat="48.4486" lon="7.25599">
        <ele>837.54</ele>
        <time>2021-06-23T12:08:35Z</time>
      </trkpt>
      <trkpt lat="48.44834" lon="7.25615">
        <ele>839.4</ele>
        <time>2021-06-23T12:08:38Z</time>
      </trkpt>
      <trkpt lat="48.4479" lon="7.25654">
        <ele>840.96</ele>
        <time>2021-06-23T12:08:41Z</time>
      </trkpt>
      <trkpt lat="48.44755" lon="7.25704">
        <ele>843.88</ele>
        <time>2021-06-23T12:08:44Z</time>
      </trkpt>
      <trkpt lat="48.44701" lon="7.25802">
        <ele>854.98</ele>
        <time>2021-06-23T12:08:47Z</time>
      </trkpt>
      <trkpt lat="48.44686" lon="7.25822">
        <ele>858.38</ele>
        <time>2021-06-23T12:08:50Z</time>
      </trkpt>
      <trkpt lat="48.44661" lon="7.25844">
        <ele>860.35</ele>
        <time>2021-06-23T12:08:53Z</time>
      </trkpt>
      <trkpt lat="48.44641" lon="7.25867">
        <ele>857.24</ele>
        <time>2021-06-23T12:08:56Z</time>
      </trkpt>
      <trkpt lat="48.44637" lon="7.25902">
        <ele>856.99</ele>
        <time>2021-06-23T12:08:59Z</time>
      </trkpt>
      <trkpt lat="48.44641" lon="7.2593">
        <ele>858.57</ele>
        <time>2021-06-23T12:09:02Z</time>
      </trkpt>
      <trkpt lat="48.44663" lon="7.25989">
        <ele>869.54</ele>
        <time>2021-06-23T12:09:05Z</time>
      </trkpt>
      <trkpt lat="48.44675" lon="7.2605">
        <ele>878.64</ele>
        <time>2021-06-23T12:09:08Z</time>
      </trkpt>
      <trkpt lat="48.44673" lon="7.2615">
        <ele>879.16</ele>
        <time>2021-06-23T12:09:11Z</time>
      </trkpt>
      <trkpt lat="48.44682" lon="7.26266">
        <ele>888.02</ele>
        <time>2021-06-23T12:09:14Z</time>
      </trkpt>
      <trkpt lat="48.44678" lon="7.26333">
        <ele>890.67</ele>
        <time>2021-06-23T12:09:17Z</time>
      </trkpt>
      <trkpt lat="48.44666" lon="7.26398">
        <ele>894.05</ele>
        <time>2021-06-23T12:09:20Z</time>
      </trkpt>
      <trkpt lat="48.44645" lon="7.26465">
        <ele>898.41</ele>
        <time>2021-06-23T12:09:23Z</time>
      </trkpt>
      <trkpt lat="48.44614" lon="7.26533">
        <ele>901.44</ele>
        <time>2021-06-23T12:09:26Z</time>
      </trkpt>
      <trkpt lat="48.4458" lon="7.26583">
        <ele>906.55</ele>
        <time>2021-06-23T12:09:29Z</time>
      </trkpt>
      <trkpt lat="48.4454" lon="7.26605">
        <ele>907.95</ele>
        <time>2021-06-23T12:09:32Z</time>
      </trkpt>
      <trkpt lat="48.44449" lon="7.26617">
        <ele>911.25</ele>
        <time>2021-06-23T12:09:35Z</time>
      </trkpt>
      <trkpt lat="48.44422" lon="7.26628">
        <ele>911.86</ele>
        <time>2021-06-23T12:09:38Z</time>
      </trkpt>
      <trkpt lat="48.4439" lon="7.26672">
        <ele>912.39</ele>
        <time>2021-06-23T12:09:41Z</time>
      </trkpt>
      <trkpt lat="48.44377" lon="7.26727">
        <ele>916.31</ele>
        <time>2021-06-23T12:09:44Z</time>
      </trkpt>
      <trkpt lat="48.44354" lon="7.26957">
        <ele>932.76</ele>
        <time>2021-06-23T12:09:47Z</time>
      </trkpt>
      <trkpt lat="48.44333" lon="7.27062">
        <ele>937.94</ele>
        <time>2021-06-23T12:09:50Z</time>
      </trkpt>
      <trkpt lat="48.44321" lon="7.27114">
        <ele>941.13</ele>
        <time>2021-06-23T12:09:53Z</time>
      </trkpt>
      <trkpt lat="48.44315" lon="7.27167">
        <ele>943.72</ele>
        <time>2021-06-23T12:09:56Z</time>
      </trkpt>
      <trkpt lat="48.44328" lon="7.27228">
        <ele>952.07</ele>
        <time>2021-06-23T12:09:59Z</time>
      </trkpt>
      <trkpt lat="48.44345" lon="7.27283">
        <ele>954.43</ele>
        <time>2021-06-23T12:10:02Z</time>
      </trkpt>
      <trkpt lat="48.44475" lon="7.27466">
        <ele>973.01</ele>
        <time>2021-06-23T12:10:04Z</time>
      </trkpt>
      <trkpt lat="48.4455" lon="7.27589">
        <ele>981.05</ele>
        <time>2021-06-23T12:10:07Z</time>
      </trkpt>
      <trkpt lat="48.44582" lon="7.27661">
        <ele>979.38</ele>
        <time>2021-06-23T12:10:10Z</time>
      </trkpt>
      <trkpt lat="48.44636" lon="7.27797">
        <ele>988</ele>
        <time>2021-06-23T12:10:13Z</time>
      </trkpt>
      <trkpt lat="48.44703" lon="7.2802">
        <ele>981.75</ele>
        <time>2021-06-23T12:10:16Z</time>
      </trkpt>
      <trkpt lat="48.44712" lon="7.28065">
        <ele>982.77</ele>
        <time>2021-06-23T12:10:19Z</time>
      </trkpt>
      <trkpt lat="48.44715" lon="7.28095">
        <ele>984.51</ele>
        <time>2021-06-23T12:10:22Z</time>
      </trkpt>
      <trkpt lat="48.44715" lon="7.28125">
        <ele>985.23</ele>
        <time>2021-06-23T12:10:25Z</time>
      </trkpt>
      <trkpt lat="48.44709" lon="7.28176">
        <ele>985.37</ele>
        <time>2021-06-23T12:10:28Z</time>
      </trkpt>
      <trkpt lat="48.44696" lon="7.28231">
        <ele>985.98</ele>
        <time>2021-06-23T12:10:32Z</time>
      </trkpt>
      <trkpt lat="48.44696" lon="7.28231">
        <ele>985.98</ele>
        <time>2021-06-23T12:10:32Z</time>
      </trkpt>
      <trkpt lat="48.44679" lon="7.28284">
        <ele>992.31</ele>
        <time>2021-06-23T12:10:36Z</time>
      </trkpt>
      <trkpt lat="48.44619" lon="7.28421">
        <ele>1006.67</ele>
        <time>2021-06-23T12:10:41Z</time>
      </trkpt>
      <trkpt lat="48.44601" lon="7.28452">
        <ele>1007.88</ele>
        <time>2021-06-23T12:10:46Z</time>
      </trkpt>
      <trkpt lat="48.44559" lon="7.28504">
        <ele>1012.65</ele>
        <time>2021-06-23T12:10:50Z</time>
      </trkpt>
      <trkpt lat="48.44537" lon="7.28521">
        <ele>1015.56</ele>
        <time>2021-06-23T12:10:55Z</time>
      </trkpt>
      <trkpt lat="48.44518" lon="7.2853">
        <ele>1017.58</ele>
        <time>2021-06-23T12:11:00Z</time>
      </trkpt>
      <trkpt lat="48.44463" lon="7.28543">
        <ele>1020</ele>
        <time>2021-06-23T12:11:05Z</time>
      </trkpt>
      <trkpt lat="48.44422" lon="7.2855">
        <ele>1023.15</ele>
        <time>2021-06-23T12:11:09Z</time>
      </trkpt>
      <trkpt lat="48.44398" lon="7.28558">
        <ele>1023.54</ele>
        <time>2021-06-23T12:11:14Z</time>
      </trkpt>
      <trkpt lat="48.44386" lon="7.28565">
        <ele>1023.75</ele>
        <time>2021-06-23T12:11:19Z</time>
      </trkpt>
      <trkpt lat="48.4437" lon="7.28579">
        <ele>1023.57</ele>
        <time>2021-06-23T12:11:24Z</time>
      </trkpt>
      <trkpt lat="48.44353" lon="7.28603">
        <ele>1023.91</ele>
        <time>2021-06-23T12:11:28Z</time>
      </trkpt>
      <trkpt lat="48.44338" lon="7.28637">
        <ele>1026.17</ele>
        <time>2021-06-23T12:11:33Z</time>
      </trkpt>
      <trkpt lat="48.4432" lon="7.28687">
        <ele>1027.27</ele>
        <time>2021-06-23T12:11:38Z</time>
      </trkpt>
      <trkpt lat="48.44298" lon="7.28761">
        <ele>1027.61</ele>
        <time>2021-06-23T12:11:43Z</time>
      </trkpt>
      <trkpt lat="48.44281" lon="7.2881">
        <ele>1026.59</ele>
        <time>2021-06-23T12:11:47Z</time>
      </trkpt>
      <trkpt lat="48.44262" lon="7.28862">
        <ele>1024.86</ele>
        <time>2021-06-23T12:11:52Z</time>
      </trkpt>
      <trkpt lat="48.44239" lon="7.28918">
        <ele>1021.97</ele>
        <time>2021-06-23T12:11:57Z</time>
      </trkpt>
      <trkpt lat="48.44073" lon="7.29289">
        <ele>1020.28</ele>
        <time>2021-06-23T12:12:02Z</time>
      </trkpt>
      <trkpt lat="48.4406" lon="7.29313">
        <ele>1020.96</ele>
        <time>2021-06-23T12:12:06Z</time>
      </trkpt>
      <trkpt lat="48.44025" lon="7.29364">
        <ele>1019.89</ele>
        <time>2021-06-23T12:12:11Z</time>
      </trkpt>
      <trkpt lat="48.43984" lon="7.29407">
        <ele>1019</ele>
        <time>2021-06-23T12:12:16Z</time>
      </trkpt>
      <trkpt lat="48.43934" lon="7.29443">
        <ele>1016.37</ele>
        <time>2021-06-23T12:12:21Z</time>
      </trkpt>
      <trkpt lat="48.4388" lon="7.29474">
        <ele>1012.26</ele>
        <time>2021-06-23T12:12:25Z</time>
      </trkpt>
      <trkpt lat="48.43601" lon="7.29584">
        <ele>998.76</ele>
        <time>2021-06-23T12:12:30Z</time>
      </trkpt>
      <trkpt lat="48.43442" lon="7.29667">
        <ele>1008.2</ele>
        <time>2021-06-23T12:12:35Z</time>
      </trkpt>
      <trkpt lat="48.43409" lon="7.29686">
        <ele>1011.42</ele>
        <time>2021-06-23T12:12:40Z</time>
      </trkpt>
      <trkpt lat="48.43336" lon="7.29737">
        <ele>1015.23</ele>
        <time>2021-06-23T12:12:44Z</time>
      </trkpt>
      <trkpt lat="48.43283" lon="7.29778">
        <ele>1014.41</ele>
        <time>2021-06-23T12:12:49Z</time>
      </trkpt>
      <trkpt lat="48.43183" lon="7.29868">
        <ele>1012.6</ele>
        <time>2021-06-23T12:12:54Z</time>
      </trkpt>
      <trkpt lat="48.43125" lon="7.29925">
        <ele>1013.31</ele>
        <time>2021-06-23T12:12:58Z</time>
      </trkpt>
      <trkpt lat="48.43079" lon="7.29974">
        <ele>1013.94</ele>
        <time>2021-06-23T12:13:03Z</time>
      </trkpt>
      <trkpt lat="48.43003" lon="7.30064">
        <ele>1016.77</ele>
        <time>2021-06-23T12:13:08Z</time>
      </trkpt>
      <trkpt lat="48.42936" lon="7.30153">
        <ele>1018.22</ele>
        <time>2021-06-23T12:13:13Z</time>
      </trkpt>
      <trkpt lat="48.42801" lon="7.30379">
        <ele>1017.8</ele>
        <time>2021-06-23T12:13:17Z</time>
      </trkpt>
      <trkpt lat="48.42754" lon="7.30441">
        <ele>1014.11</ele>
        <time>2021-06-23T12:13:22Z</time>
      </trkpt>
      <trkpt lat="48.42651" lon="7.30553">
        <ele>1016.45</ele>
        <time>2021-06-23T12:13:27Z</time>
      </trkpt>
      <trkpt lat="48.42659" lon="7.30573">
        <ele>1010.65</ele>
        <time>2021-06-23T12:13:28Z</time>
      </trkpt>
      <trkpt lat="48.42659" lon="7.30573">
        <ele>1010.65</ele>
        <time>2021-06-23T12:13:28Z</time>
      </trkpt>
      <trkpt lat="48.42706" lon="7.30698">
        <ele>1004.86</ele>
        <time>2021-06-23T12:13:32Z</time>
      </trkpt>
      <trkpt lat="48.42718" lon="7.30742">
        <ele>1001.97</ele>
        <time>2021-06-23T12:13:35Z</time>
      </trkpt>
      <trkpt lat="48.42738" lon="7.30835">
        <ele>997.22</ele>
        <time>2021-06-23T12:13:39Z</time>
      </trkpt>
      <trkpt lat="48.42745" lon="7.30889">
        <ele>992.52</ele>
        <time>2021-06-23T12:13:43Z</time>
      </trkpt>
      <trkpt lat="48.42749" lon="7.30926">
        <ele>989.19</ele>
        <time>2021-06-23T12:13:47Z</time>
      </trkpt>
      <trkpt lat="48.42755" lon="7.31052">
        <ele>981.41</ele>
        <time>2021-06-23T12:13:50Z</time>
      </trkpt>
      <trkpt lat="48.4277" lon="7.31164">
        <ele>973.86</ele>
        <time>2021-06-23T12:13:54Z</time>
      </trkpt>
      <trkpt lat="48.42785" lon="7.31333">
        <ele>959.27</ele>
        <time>2021-06-23T12:13:58Z</time>
      </trkpt>
      <trkpt lat="48.42793" lon="7.31412">
        <ele>955.26</ele>
        <time>2021-06-23T12:14:02Z</time>
      </trkpt>
      <trkpt lat="48.42801" lon="7.31445">
        <ele>953.83</ele>
        <time>2021-06-23T12:14:05Z</time>
      </trkpt>
      <trkpt lat="48.42811" lon="7.31471">
        <ele>954.18</ele>
        <time>2021-06-23T12:14:09Z</time>
      </trkpt>
      <trkpt lat="48.42872" lon="7.31602">
        <ele>956.08</ele>
        <time>2021-06-23T12:14:11Z</time>
      </trkpt>
      <trkpt lat="48.42909" lon="7.31655">
        <ele>953.55</ele>
        <time>2021-06-23T12:14:14Z</time>
      </trkpt>
      <trkpt lat="48.42955" lon="7.31709">
        <ele>954.49</ele>
        <time>2021-06-23T12:14:16Z</time>
      </trkpt>
      <trkpt lat="48.43001" lon="7.31755">
        <ele>945.34</ele>
        <time>2021-06-23T12:14:19Z</time>
      </trkpt>
      <trkpt lat="48.43056" lon="7.31793">
        <ele>938.14</ele>
        <time>2021-06-23T12:14:21Z</time>
      </trkpt>
      <trkpt lat="48.43084" lon="7.31809">
        <ele>934.32</ele>
        <time>2021-06-23T12:14:23Z</time>
      </trkpt>
      <trkpt lat="48.43107" lon="7.31818">
        <ele>934.02</ele>
        <time>2021-06-23T12:14:26Z</time>
      </trkpt>
      <trkpt lat="48.43182" lon="7.31827">
        <ele>931.81</ele>
        <time>2021-06-23T12:14:28Z</time>
      </trkpt>
      <trkpt lat="48.43226" lon="7.31842">
        <ele>929.36</ele>
        <time>2021-06-23T12:14:30Z</time>
      </trkpt>
      <trkpt lat="48.43241" lon="7.31852">
        <ele>927.76</ele>
        <time>2021-06-23T12:14:33Z</time>
      </trkpt>
      <trkpt lat="48.43256" lon="7.31865">
        <ele>926.9</ele>
        <time>2021-06-23T12:14:35Z</time>
      </trkpt>
      <trkpt lat="48.43292" lon="7.3192">
        <ele>927.26</ele>
        <time>2021-06-23T12:14:37Z</time>
      </trkpt>
      <trkpt lat="48.43377" lon="7.3202">
        <ele>922.63</ele>
        <time>2021-06-23T12:14:40Z</time>
      </trkpt>
      <trkpt lat="48.43416" lon="7.32057">
        <ele>926.2</ele>
        <time>2021-06-23T12:14:42Z</time>
      </trkpt>
      <trkpt lat="48.43428" lon="7.32066">
        <ele>925.68</ele>
        <time>2021-06-23T12:14:44Z</time>
      </trkpt>
      <trkpt lat="48.43481" lon="7.32073">
        <ele>921.37</ele>
        <time>2021-06-23T12:14:47Z</time>
      </trkpt>
      <trkpt lat="48.43523" lon="7.32073">
        <ele>919.99</ele>
        <time>2021-06-23T12:14:49Z</time>
      </trkpt>
      <trkpt lat="48.43538" lon="7.32078">
        <ele>919.07</ele>
        <time>2021-06-23T12:14:52Z</time>
      </trkpt>
      <trkpt lat="48.43555" lon="7.3209">
        <ele>918.3</ele>
        <time>2021-06-23T12:14:54Z</time>
      </trkpt>
      <trkpt lat="48.43572" lon="7.32118">
        <ele>916.67</ele>
        <time>2021-06-23T12:14:56Z</time>
      </trkpt>
      <trkpt lat="48.43579" lon="7.32136">
        <ele>915.85</ele>
        <time>2021-06-23T12:14:59Z</time>
      </trkpt>
      <trkpt lat="48.43584" lon="7.32177">
        <ele>913.18</ele>
        <time>2021-06-23T12:15:01Z</time>
      </trkpt>
      <trkpt lat="48.43587" lon="7.32229">
        <ele>909.81</ele>
        <time>2021-06-23T12:15:03Z</time>
      </trkpt>
      <trkpt lat="48.43587" lon="7.32253">
        <ele>909.57</ele>
        <time>2021-06-23T12:15:06Z</time>
      </trkpt>
      <trkpt lat="48.43582" lon="7.32279">
        <ele>909.21</ele>
        <time>2021-06-23T12:15:08Z</time>
      </trkpt>
      <trkpt lat="48.43565" lon="7.32336">
        <ele>912.09</ele>
        <time>2021-06-23T12:15:10Z</time>
      </trkpt>
      <trkpt lat="48.43559" lon="7.32361">
        <ele>910.95</ele>
        <time>2021-06-23T12:15:13Z</time>
      </trkpt>
      <trkpt lat="48.4356" lon="7.32383">
        <ele>907.4</ele>
        <time>2021-06-23T12:15:15Z</time>
      </trkpt>
      <trkpt lat="48.43565" lon="7.324">
        <ele>903.89</ele>
        <time>2021-06-23T12:15:18Z</time>
      </trkpt>
      <trkpt lat="48.4358" lon="7.32418">
        <ele>899.01</ele>
        <time>2021-06-23T12:15:20Z</time>
      </trkpt>
      <trkpt lat="48.43639" lon="7.32469">
        <ele>893.03</ele>
        <time>2021-06-23T12:15:22Z</time>
      </trkpt>
      <trkpt lat="48.43774" lon="7.32598">
        <ele>881.3</ele>
        <time>2021-06-23T12:15:25Z</time>
      </trkpt>
      <trkpt lat="48.43804" lon="7.32614">
        <ele>881.43</ele>
        <time>2021-06-23T12:15:27Z</time>
      </trkpt>
      <trkpt lat="48.43919" lon="7.32642">
        <ele>871.21</ele>
        <time>2021-06-23T12:15:29Z</time>
      </trkpt>
      <trkpt lat="48.43982" lon="7.32647">
        <ele>865.76</ele>
        <time>2021-06-23T12:15:32Z</time>
      </trkpt>
      <trkpt lat="48.44102" lon="7.3263">
        <ele>858.57</ele>
        <time>2021-06-23T12:15:34Z</time>
      </trkpt>
      <trkpt lat="48.44151" lon="7.3263">
        <ele>853.38</ele>
        <time>2021-06-23T12:15:36Z</time>
      </trkpt>
      <trkpt lat="48.44181" lon="7.32632">
        <ele>848.82</ele>
        <time>2021-06-23T12:15:39Z</time>
      </trkpt>
      <trkpt lat="48.44197" lon="7.32637">
        <ele>847.07</ele>
        <time>2021-06-23T12:15:41Z</time>
      </trkpt>
      <trkpt lat="48.44266" lon="7.32673">
        <ele>848.69</ele>
        <time>2021-06-23T12:15:43Z</time>
      </trkpt>
      <trkpt lat="48.4431" lon="7.32708">
        <ele>846.06</ele>
        <time>2021-06-23T12:15:46Z</time>
      </trkpt>
      <trkpt lat="48.44332" lon="7.32735">
        <ele>839.81</ele>
        <time>2021-06-23T12:15:48Z</time>
      </trkpt>
      <trkpt lat="48.44358" lon="7.32756">
        <ele>835.67</ele>
        <time>2021-06-23T12:15:51Z</time>
      </trkpt>
      <trkpt lat="48.44396" lon="7.32771">
        <ele>834.25</ele>
        <time>2021-06-23T12:15:53Z</time>
      </trkpt>
      <trkpt lat="48.44408" lon="7.3278">
        <ele>834.11</ele>
        <time>2021-06-23T12:15:55Z</time>
      </trkpt>
      <trkpt lat="48.44414" lon="7.3279">
        <ele>833.03</ele>
        <time>2021-06-23T12:15:58Z</time>
      </trkpt>
      <trkpt lat="48.44417" lon="7.32804">
        <ele>831.29</ele>
        <time>2021-06-23T12:16:00Z</time>
      </trkpt>
      <trkpt lat="48.44416" lon="7.32819">
        <ele>828.51</ele>
        <time>2021-06-23T12:16:02Z</time>
      </trkpt>
      <trkpt lat="48.4441" lon="7.32834">
        <ele>825.63</ele>
        <time>2021-06-23T12:16:05Z</time>
      </trkpt>
      <trkpt lat="48.44404" lon="7.3284">
        <ele>824.47</ele>
        <time>2021-06-23T12:16:07Z</time>
      </trkpt>
      <trkpt lat="48.44396" lon="7.32843">
        <ele>823.55</ele>
        <time>2021-06-23T12:16:09Z</time>
      </trkpt>
      <trkpt lat="48.4436" lon="7.32851">
        <ele>823.94</ele>
        <time>2021-06-23T12:16:12Z</time>
      </trkpt>
      <trkpt lat="48.44338" lon="7.32866">
        <ele>824.84</ele>
        <time>2021-06-23T12:16:14Z</time>
      </trkpt>
      <trkpt lat="48.44315" lon="7.32885">
        <ele>826.87</ele>
        <time>2021-06-23T12:16:17Z</time>
      </trkpt>
      <trkpt lat="48.44289" lon="7.32922">
        <ele>824.05</ele>
        <time>2021-06-23T12:16:19Z</time>
      </trkpt>
      <trkpt lat="48.44243" lon="7.33015">
        <ele>820.66</ele>
        <time>2021-06-23T12:16:21Z</time>
      </trkpt>
      <trkpt lat="48.44232" lon="7.33044">
        <ele>819.74</ele>
        <time>2021-06-23T12:16:24Z</time>
      </trkpt>
      <trkpt lat="48.44211" lon="7.33126">
        <ele>814.69</ele>
        <time>2021-06-23T12:16:26Z</time>
      </trkpt>
      <trkpt lat="48.44201" lon="7.33152">
        <ele>811.63</ele>
        <time>2021-06-23T12:16:28Z</time>
      </trkpt>
      <trkpt lat="48.44187" lon="7.33174">
        <ele>809.16</ele>
        <time>2021-06-23T12:16:31Z</time>
      </trkpt>
      <trkpt lat="48.44144" lon="7.3321">
        <ele>810.75</ele>
        <time>2021-06-23T12:16:33Z</time>
      </trkpt>
      <trkpt lat="48.44127" lon="7.33228">
        <ele>809.33</ele>
        <time>2021-06-23T12:16:35Z</time>
      </trkpt>
      <trkpt lat="48.44089" lon="7.33291">
        <ele>802.07</ele>
        <time>2021-06-23T12:16:38Z</time>
      </trkpt>
      <trkpt lat="48.44038" lon="7.33354">
        <ele>799.45</ele>
        <time>2021-06-23T12:16:40Z</time>
      </trkpt>
      <trkpt lat="48.43931" lon="7.3351">
        <ele>785.73</ele>
        <time>2021-06-23T12:16:42Z</time>
      </trkpt>
      <trkpt lat="48.43925" lon="7.33527">
        <ele>785.53</ele>
        <time>2021-06-23T12:16:45Z</time>
      </trkpt>
      <trkpt lat="48.43917" lon="7.33571">
        <ele>781.73</ele>
        <time>2021-06-23T12:16:47Z</time>
      </trkpt>
      <trkpt lat="48.4391" lon="7.33599">
        <ele>781.81</ele>
        <time>2021-06-23T12:16:50Z</time>
      </trkpt>
      <trkpt lat="48.43848" lon="7.33783">
        <ele>772.34</ele>
        <time>2021-06-23T12:16:52Z</time>
      </trkpt>
      <trkpt lat="48.4383" lon="7.33828">
        <ele>768.68</ele>
        <time>2021-06-23T12:16:54Z</time>
      </trkpt>
      <trkpt lat="48.43819" lon="7.33846">
        <ele>768.08</ele>
        <time>2021-06-23T12:16:57Z</time>
      </trkpt>
      <trkpt lat="48.43776" lon="7.33904">
        <ele>766.93</ele>
        <time>2021-06-23T12:16:59Z</time>
      </trkpt>
      <trkpt lat="48.43735" lon="7.33965">
        <ele>757.76</ele>
        <time>2021-06-23T12:17:01Z</time>
      </trkpt>
      <trkpt lat="48.43722" lon="7.33977">
        <ele>756.44</ele>
        <time>2021-06-23T12:17:04Z</time>
      </trkpt>
      <trkpt lat="48.43705" lon="7.33986">
        <ele>755.55</ele>
        <time>2021-06-23T12:17:06Z</time>
      </trkpt>
      <trkpt lat="48.43657" lon="7.34001">
        <ele>753.94</ele>
        <time>2021-06-23T12:17:08Z</time>
      </trkpt>
      <trkpt lat="48.4364" lon="7.34011">
        <ele>753.65</ele>
        <time>2021-06-23T12:17:11Z</time>
      </trkpt>
      <trkpt lat="48.43631" lon="7.34024">
        <ele>751.12</ele>
        <time>2021-06-23T12:17:13Z</time>
      </trkpt>
      <trkpt lat="48.43631" lon="7.34033">
        <ele>749.2</ele>
        <time>2021-06-23T12:17:16Z</time>
      </trkpt>
      <trkpt lat="48.43632" lon="7.34046">
        <ele>746.54</ele>
        <time>2021-06-23T12:17:18Z</time>
      </trkpt>
      <trkpt lat="48.43637" lon="7.34055">
        <ele>744.21</ele>
        <time>2021-06-23T12:17:20Z</time>
      </trkpt>
      <trkpt lat="48.43647" lon="7.34062">
        <ele>743.73</ele>
        <time>2021-06-23T12:17:23Z</time>
      </trkpt>
      <trkpt lat="48.43664" lon="7.34066">
        <ele>743.85</ele>
        <time>2021-06-23T12:17:25Z</time>
      </trkpt>
      <trkpt lat="48.43701" lon="7.34068">
        <ele>743.47</ele>
        <time>2021-06-23T12:17:27Z</time>
      </trkpt>
      <trkpt lat="48.43771" lon="7.34064">
        <ele>738.44</ele>
        <time>2021-06-23T12:17:30Z</time>
      </trkpt>
      <trkpt lat="48.43819" lon="7.34056">
        <ele>732.44</ele>
        <time>2021-06-23T12:17:32Z</time>
      </trkpt>
      <trkpt lat="48.43841" lon="7.34046">
        <ele>731.15</ele>
        <time>2021-06-23T12:17:34Z</time>
      </trkpt>
      <trkpt lat="48.43858" lon="7.34033">
        <ele>730.78</ele>
        <time>2021-06-23T12:17:37Z</time>
      </trkpt>
      <trkpt lat="48.43874" lon="7.34018">
        <ele>729.41</ele>
        <time>2021-06-23T12:17:39Z</time>
      </trkpt>
      <trkpt lat="48.4392" lon="7.33952">
        <ele>725.92</ele>
        <time>2021-06-23T12:17:41Z</time>
      </trkpt>
      <trkpt lat="48.43932" lon="7.33941">
        <ele>725.49</ele>
        <time>2021-06-23T12:17:44Z</time>
      </trkpt>
      <trkpt lat="48.4399" lon="7.33912">
        <ele>720.52</ele>
        <time>2021-06-23T12:17:46Z</time>
      </trkpt>
      <trkpt lat="48.44019" lon="7.33893">
        <ele>716.79</ele>
        <time>2021-06-23T12:17:49Z</time>
      </trkpt>
      <trkpt lat="48.44037" lon="7.33876">
        <ele>714.34</ele>
        <time>2021-06-23T12:17:51Z</time>
      </trkpt>
      <trkpt lat="48.44045" lon="7.33866">
        <ele>713.25</ele>
        <time>2021-06-23T12:17:53Z</time>
      </trkpt>
      <trkpt lat="48.44072" lon="7.33817">
        <ele>712.43</ele>
        <time>2021-06-23T12:17:56Z</time>
      </trkpt>
      <trkpt lat="48.44086" lon="7.33802">
        <ele>711.29</ele>
        <time>2021-06-23T12:17:58Z</time>
      </trkpt>
      <trkpt lat="48.44106" lon="7.33792">
        <ele>710.07</ele>
        <time>2021-06-23T12:18:00Z</time>
      </trkpt>
      <trkpt lat="48.44132" lon="7.33785">
        <ele>708.66</ele>
        <time>2021-06-23T12:18:03Z</time>
      </trkpt>
      <trkpt lat="48.44143" lon="7.33777">
        <ele>708.56</ele>
        <time>2021-06-23T12:18:05Z</time>
      </trkpt>
      <trkpt lat="48.44169" lon="7.33747">
        <ele>709.16</ele>
        <time>2021-06-23T12:18:07Z</time>
      </trkpt>
      <trkpt lat="48.4418" lon="7.33738">
        <ele>709.08</ele>
        <time>2021-06-23T12:18:10Z</time>
      </trkpt>
      <trkpt lat="48.44191" lon="7.33735">
        <ele>708.48</ele>
        <time>2021-06-23T12:18:12Z</time>
      </trkpt>
      <trkpt lat="48.44213" lon="7.33735">
        <ele>705.77</ele>
        <time>2021-06-23T12:18:15Z</time>
      </trkpt>
      <trkpt lat="48.44257" lon="7.33741">
        <ele>699.26</ele>
        <time>2021-06-23T12:18:17Z</time>
      </trkpt>
      <trkpt lat="48.44288" lon="7.33758">
        <ele>694.08</ele>
        <time>2021-06-23T12:18:19Z</time>
      </trkpt>
      <trkpt lat="48.44299" lon="7.33759">
        <ele>692.72</ele>
        <time>2021-06-23T12:18:22Z</time>
      </trkpt>
      <trkpt lat="48.44317" lon="7.33754">
        <ele>692.63</ele>
        <time>2021-06-23T12:18:24Z</time>
      </trkpt>
      <trkpt lat="48.44331" lon="7.33756">
        <ele>692.57</ele>
        <time>2021-06-23T12:18:26Z</time>
      </trkpt>
      <trkpt lat="48.4434" lon="7.33762">
        <ele>693.12</ele>
        <time>2021-06-23T12:18:29Z</time>
      </trkpt>
      <trkpt lat="48.44347" lon="7.33774">
        <ele>693.26</ele>
        <time>2021-06-23T12:18:31Z</time>
      </trkpt>
      <trkpt lat="48.4435" lon="7.3379">
        <ele>691.79</ele>
        <time>2021-06-23T12:18:33Z</time>
      </trkpt>
      <trkpt lat="48.44351" lon="7.3383">
        <ele>685.34</ele>
        <time>2021-06-23T12:18:36Z</time>
      </trkpt>
      <trkpt lat="48.44353" lon="7.33852">
        <ele>681.16</ele>
        <time>2021-06-23T12:18:38Z</time>
      </trkpt>
      <trkpt lat="48.44356" lon="7.33869">
        <ele>678.32</ele>
        <time>2021-06-23T12:18:40Z</time>
      </trkpt>
      <trkpt lat="48.44363" lon="7.3389">
        <ele>675.97</ele>
        <time>2021-06-23T12:18:43Z</time>
      </trkpt>
      <trkpt lat="48.444" lon="7.3397">
        <ele>671.97</ele>
        <time>2021-06-23T12:18:45Z</time>
      </trkpt>
      <trkpt lat="48.44434" lon="7.34037">
        <ele>667.79</ele>
        <time>2021-06-23T12:18:48Z</time>
      </trkpt>
      <trkpt lat="48.44513" lon="7.3416">
        <ele>656.17</ele>
        <time>2021-06-23T12:18:50Z</time>
      </trkpt>
      <trkpt lat="48.44609" lon="7.34322">
        <ele>644.03</ele>
        <time>2021-06-23T12:18:52Z</time>
      </trkpt>
      <trkpt lat="48.44632" lon="7.34382">
        <ele>643.28</ele>
        <time>2021-06-23T12:18:55Z</time>
      </trkpt>
      <trkpt lat="48.44664" lon="7.34495">
        <ele>634.46</ele>
        <time>2021-06-23T12:18:57Z</time>
      </trkpt>
      <trkpt lat="48.44674" lon="7.34525">
        <ele>632.78</ele>
        <time>2021-06-23T12:18:59Z</time>
      </trkpt>
      <trkpt lat="48.44685" lon="7.34546">
        <ele>631.1</ele>
        <time>2021-06-23T12:19:02Z</time>
      </trkpt>
      <trkpt lat="48.44778" lon="7.34683">
        <ele>626.19</ele>
        <time>2021-06-23T12:19:04Z</time>
      </trkpt>
      <trkpt lat="48.44791" lon="7.34696">
        <ele>625.31</ele>
        <time>2021-06-23T12:19:06Z</time>
      </trkpt>
      <trkpt lat="48.44806" lon="7.34704">
        <ele>624.57</ele>
        <time>2021-06-23T12:19:09Z</time>
      </trkpt>
      <trkpt lat="48.44819" lon="7.34704">
        <ele>624.35</ele>
        <time>2021-06-23T12:19:11Z</time>
      </trkpt>
      <trkpt lat="48.44836" lon="7.34697">
        <ele>625.16</ele>
        <time>2021-06-23T12:19:14Z</time>
      </trkpt>
      <trkpt lat="48.44857" lon="7.34685">
        <ele>625.12</ele>
        <time>2021-06-23T12:19:16Z</time>
      </trkpt>
      <trkpt lat="48.4488" lon="7.34666">
        <ele>624.6</ele>
        <time>2021-06-23T12:19:18Z</time>
      </trkpt>
      <trkpt lat="48.44907" lon="7.34635">
        <ele>623.68</ele>
        <time>2021-06-23T12:19:21Z</time>
      </trkpt>
      <trkpt lat="48.44921" lon="7.34614">
        <ele>623.61</ele>
        <time>2021-06-23T12:19:23Z</time>
      </trkpt>
      <trkpt lat="48.44935" lon="7.34579">
        <ele>622.21</ele>
        <time>2021-06-23T12:19:25Z</time>
      </trkpt>
      <trkpt lat="48.44957" lon="7.3451">
        <ele>620.49</ele>
        <time>2021-06-23T12:19:28Z</time>
      </trkpt>
      <trkpt lat="48.44966" lon="7.34489">
        <ele>621.25</ele>
        <time>2021-06-23T12:19:30Z</time>
      </trkpt>
      <trkpt lat="48.44975" lon="7.34478">
        <ele>621.26</ele>
        <time>2021-06-23T12:19:32Z</time>
      </trkpt>
      <trkpt lat="48.44989" lon="7.34468">
        <ele>619.57</ele>
        <time>2021-06-23T12:19:35Z</time>
      </trkpt>
      <trkpt lat="48.45002" lon="7.34464">
        <ele>617.42</ele>
        <time>2021-06-23T12:19:37Z</time>
      </trkpt>
      <trkpt lat="48.45014" lon="7.34464">
        <ele>617.02</ele>
        <time>2021-06-23T12:19:39Z</time>
      </trkpt>
      <trkpt lat="48.45046" lon="7.34479">
        <ele>614.51</ele>
        <time>2021-06-23T12:19:42Z</time>
      </trkpt>
      <trkpt lat="48.45059" lon="7.3449">
        <ele>612.83</ele>
        <time>2021-06-23T12:19:44Z</time>
      </trkpt>
      <trkpt lat="48.45066" lon="7.34504">
        <ele>610.62</ele>
        <time>2021-06-23T12:19:47Z</time>
      </trkpt>
      <trkpt lat="48.45074" lon="7.34544">
        <ele>603.74</ele>
        <time>2021-06-23T12:19:49Z</time>
      </trkpt>
      <trkpt lat="48.45091" lon="7.34615">
        <ele>600.78</ele>
        <time>2021-06-23T12:19:51Z</time>
      </trkpt>
      <trkpt lat="48.45115" lon="7.34693">
        <ele>591.45</ele>
        <time>2021-06-23T12:19:54Z</time>
      </trkpt>
      <trkpt lat="48.45118" lon="7.34719">
        <ele>588.43</ele>
        <time>2021-06-23T12:19:56Z</time>
      </trkpt>
      <trkpt lat="48.45117" lon="7.34765">
        <ele>584.18</ele>
        <time>2021-06-23T12:19:58Z</time>
      </trkpt>
      <trkpt lat="48.45122" lon="7.34805">
        <ele>583.06</ele>
        <time>2021-06-23T12:20:01Z</time>
      </trkpt>
      <trkpt lat="48.45128" lon="7.34822">
        <ele>582.45</ele>
        <time>2021-06-23T12:20:03Z</time>
      </trkpt>
      <trkpt lat="48.45145" lon="7.3486">
        <ele>582.35</ele>
        <time>2021-06-23T12:20:05Z</time>
      </trkpt>
      <trkpt lat="48.45157" lon="7.34878">
        <ele>582.59</ele>
        <time>2021-06-23T12:20:08Z</time>
      </trkpt>
      <trkpt lat="48.45163" lon="7.34898">
        <ele>580.72</ele>
        <time>2021-06-23T12:20:10Z</time>
      </trkpt>
      <trkpt lat="48.45173" lon="7.34985">
        <ele>569.44</ele>
        <time>2021-06-23T12:20:13Z</time>
      </trkpt>
      <trkpt lat="48.45186" lon="7.35057">
        <ele>560.23</ele>
        <time>2021-06-23T12:20:15Z</time>
      </trkpt>
      <trkpt lat="48.45204" lon="7.35098">
        <ele>557.05</ele>
        <time>2021-06-23T12:20:17Z</time>
      </trkpt>
      <trkpt lat="48.45209" lon="7.35115">
        <ele>555.57</ele>
        <time>2021-06-23T12:20:20Z</time>
      </trkpt>
      <trkpt lat="48.45218" lon="7.35171">
        <ele>554.22</ele>
        <time>2021-06-23T12:20:22Z</time>
      </trkpt>
      <trkpt lat="48.45234" lon="7.35207">
        <ele>555.68</ele>
        <time>2021-06-23T12:20:24Z</time>
      </trkpt>
      <trkpt lat="48.45235" lon="7.35221">
        <ele>554.16</ele>
        <time>2021-06-23T12:20:27Z</time>
      </trkpt>
      <trkpt lat="48.45231" lon="7.35235">
        <ele>551.5</ele>
        <time>2021-06-23T12:20:29Z</time>
      </trkpt>
      <trkpt lat="48.45228" lon="7.3524">
        <ele>550.02</ele>
        <time>2021-06-23T12:20:31Z</time>
      </trkpt>
      <trkpt lat="48.45221" lon="7.35244">
        <ele>547.12</ele>
        <time>2021-06-23T12:20:34Z</time>
      </trkpt>
      <trkpt lat="48.45212" lon="7.35243">
        <ele>544.73</ele>
        <time>2021-06-23T12:20:36Z</time>
      </trkpt>
      <trkpt lat="48.45203" lon="7.35237">
        <ele>542.8</ele>
        <time>2021-06-23T12:20:38Z</time>
      </trkpt>
      <trkpt lat="48.45196" lon="7.35226">
        <ele>542.15</ele>
        <time>2021-06-23T12:20:41Z</time>
      </trkpt>
      <trkpt lat="48.45185" lon="7.3519">
        <ele>543.24</ele>
        <time>2021-06-23T12:20:43Z</time>
      </trkpt>
      <trkpt lat="48.45174" lon="7.35168">
        <ele>542.48</ele>
        <time>2021-06-23T12:20:46Z</time>
      </trkpt>
      <trkpt lat="48.4516" lon="7.35157">
        <ele>539.02</ele>
        <time>2021-06-23T12:20:48Z</time>
      </trkpt>
      <trkpt lat="48.45098" lon="7.35132">
        <ele>526.8</ele>
        <time>2021-06-23T12:20:50Z</time>
      </trkpt>
      <trkpt lat="48.45086" lon="7.35122">
        <ele>525.95</ele>
        <time>2021-06-23T12:20:53Z</time>
      </trkpt>
      <trkpt lat="48.45077" lon="7.35108">
        <ele>528.97</ele>
        <time>2021-06-23T12:20:55Z</time>
      </trkpt>
      <trkpt lat="48.45067" lon="7.35083">
        <ele>535.37</ele>
        <time>2021-06-23T12:20:57Z</time>
      </trkpt>
      <trkpt lat="48.45056" lon="7.35071">
        <ele>539.23</ele>
        <time>2021-06-23T12:21:00Z</time>
      </trkpt>
      <trkpt lat="48.45048" lon="7.35071">
        <ele>540.83</ele>
        <time>2021-06-23T12:21:02Z</time>
      </trkpt>
      <trkpt lat="48.4504" lon="7.35075">
        <ele>541.88</ele>
        <time>2021-06-23T12:21:04Z</time>
      </trkpt>
      <trkpt lat="48.45034" lon="7.35088">
        <ele>542.04</ele>
        <time>2021-06-23T12:21:07Z</time>
      </trkpt>
      <trkpt lat="48.45033" lon="7.35102">
        <ele>541.1</ele>
        <time>2021-06-23T12:21:09Z</time>
      </trkpt>
      <trkpt lat="48.45051" lon="7.35167">
        <ele>527.17</ele>
        <time>2021-06-23T12:21:12Z</time>
      </trkpt>
      <trkpt lat="48.45066" lon="7.35239">
        <ele>526.58</ele>
        <time>2021-06-23T12:21:14Z</time>
      </trkpt>
      <trkpt lat="48.45075" lon="7.35304">
        <ele>524.11</ele>
        <time>2021-06-23T12:21:16Z</time>
      </trkpt>
      <trkpt lat="48.4508" lon="7.35366">
        <ele>520.63</ele>
        <time>2021-06-23T12:21:19Z</time>
      </trkpt>
      <trkpt lat="48.45092" lon="7.35413">
        <ele>515.46</ele>
        <time>2021-06-23T12:21:21Z</time>
      </trkpt>
      <trkpt lat="48.45104" lon="7.35439">
        <ele>512.01</ele>
        <time>2021-06-23T12:21:23Z</time>
      </trkpt>
      <trkpt lat="48.45157" lon="7.35498">
        <ele>504.61</ele>
        <time>2021-06-23T12:21:26Z</time>
      </trkpt>
      <trkpt lat="48.45171" lon="7.35518">
        <ele>502.81</ele>
        <time>2021-06-23T12:21:28Z</time>
      </trkpt>
      <trkpt lat="48.45177" lon="7.35532">
        <ele>502.59</ele>
        <time>2021-06-23T12:21:30Z</time>
      </trkpt>
      <trkpt lat="48.45182" lon="7.35556">
        <ele>502.24</ele>
        <time>2021-06-23T12:21:33Z</time>
      </trkpt>
      <trkpt lat="48.45183" lon="7.3569">
        <ele>487.95</ele>
        <time>2021-06-23T12:21:35Z</time>
      </trkpt>
      <trkpt lat="48.45186" lon="7.35712">
        <ele>485.69</ele>
        <time>2021-06-23T12:21:37Z</time>
      </trkpt>
      <trkpt lat="48.45201" lon="7.35778">
        <ele>484.12</ele>
        <time>2021-06-23T12:21:40Z</time>
      </trkpt>
      <trkpt lat="48.45205" lon="7.35812">
        <ele>483.79</ele>
        <time>2021-06-23T12:21:42Z</time>
      </trkpt>
      <trkpt lat="48.45209" lon="7.35948">
        <ele>470.83</ele>
        <time>2021-06-23T12:21:45Z</time>
      </trkpt>
      <trkpt lat="48.45215" lon="7.36005">
        <ele>465.44</ele>
        <time>2021-06-23T12:21:47Z</time>
      </trkpt>
      <trkpt lat="48.45221" lon="7.36045">
        <ele>463.36</ele>
        <time>2021-06-23T12:21:49Z</time>
      </trkpt>
      <trkpt lat="48.45228" lon="7.36068">
        <ele>463.55</ele>
        <time>2021-06-23T12:21:52Z</time>
      </trkpt>
      <trkpt lat="48.45266" lon="7.36144">
        <ele>459.24</ele>
        <time>2021-06-23T12:21:54Z</time>
      </trkpt>
      <trkpt lat="48.45272" lon="7.3617">
        <ele>456.2</ele>
        <time>2021-06-23T12:21:56Z</time>
      </trkpt>
      <trkpt lat="48.45276" lon="7.36233">
        <ele>448.16</ele>
        <time>2021-06-23T12:21:59Z</time>
      </trkpt>
      <trkpt lat="48.45279" lon="7.36263">
        <ele>447.81</ele>
        <time>2021-06-23T12:22:01Z</time>
      </trkpt>
      <trkpt lat="48.45283" lon="7.36284">
        <ele>448.57</ele>
        <time>2021-06-23T12:22:03Z</time>
      </trkpt>
      <trkpt lat="48.45342" lon="7.36503">
        <ele>433.93</ele>
        <time>2021-06-23T12:22:06Z</time>
      </trkpt>
      <trkpt lat="48.45368" lon="7.36619">
        <ele>432.42</ele>
        <time>2021-06-23T12:22:08Z</time>
      </trkpt>
      <trkpt lat="48.45446" lon="7.36809">
        <ele>419.75</ele>
        <time>2021-06-23T12:22:11Z</time>
      </trkpt>
      <trkpt lat="48.45459" lon="7.36832">
        <ele>417.61</ele>
        <time>2021-06-23T12:22:13Z</time>
      </trkpt>
      <trkpt lat="48.45522" lon="7.36894">
        <ele>406.64</ele>
        <time>2021-06-23T12:22:15Z</time>
      </trkpt>
      <trkpt lat="48.45534" lon="7.36911">
        <ele>406.14</ele>
        <time>2021-06-23T12:22:18Z</time>
      </trkpt>
      <trkpt lat="48.45543" lon="7.36929">
        <ele>406.81</ele>
        <time>2021-06-23T12:22:20Z</time>
      </trkpt>
      <trkpt lat="48.45604" lon="7.37166">
        <ele>395.44</ele>
        <time>2021-06-23T12:22:22Z</time>
      </trkpt>
      <trkpt lat="48.45608" lon="7.37198">
        <ele>393.07</ele>
        <time>2021-06-23T12:22:25Z</time>
      </trkpt>
      <trkpt lat="48.45612" lon="7.37252">
        <ele>394.17</ele>
        <time>2021-06-23T12:22:27Z</time>
      </trkpt>
      <trkpt lat="48.45615" lon="7.37279">
        <ele>395.37</ele>
        <time>2021-06-23T12:22:29Z</time>
      </trkpt>
      <trkpt lat="48.45621" lon="7.37296">
        <ele>393.98</ele>
        <time>2021-06-23T12:22:32Z</time>
      </trkpt>
      <trkpt lat="48.45661" lon="7.37366">
        <ele>395.9</ele>
        <time>2021-06-23T12:22:34Z</time>
      </trkpt>
      <trkpt lat="48.45695" lon="7.37437">
        <ele>395.05</ele>
        <time>2021-06-23T12:22:36Z</time>
      </trkpt>
      <trkpt lat="48.45711" lon="7.37489">
        <ele>389.89</ele>
        <time>2021-06-23T12:22:39Z</time>
      </trkpt>
      <trkpt lat="48.45736" lon="7.37595">
        <ele>386.42</ele>
        <time>2021-06-23T12:22:41Z</time>
      </trkpt>
      <trkpt lat="48.45744" lon="7.37633">
        <ele>385.55</ele>
        <time>2021-06-23T12:22:44Z</time>
      </trkpt>
      <trkpt lat="48.45756" lon="7.37719">
        <ele>386.34</ele>
        <time>2021-06-23T12:22:46Z</time>
      </trkpt>
      <trkpt lat="48.45761" lon="7.37739">
        <ele>385.84</ele>
        <time>2021-06-23T12:22:48Z</time>
      </trkpt>
      <trkpt lat="48.45768" lon="7.37757">
        <ele>385.52</ele>
        <time>2021-06-23T12:22:51Z</time>
      </trkpt>
      <trkpt lat="48.45781" lon="7.37778">
        <ele>384.98</ele>
        <time>2021-06-23T12:22:53Z</time>
      </trkpt>
      <trkpt lat="48.45854" lon="7.37867">
        <ele>382.12</ele>
        <time>2021-06-23T12:22:55Z</time>
      </trkpt>
      <trkpt lat="48.4587" lon="7.3789">
        <ele>380.2</ele>
        <time>2021-06-23T12:22:58Z</time>
      </trkpt>
      <trkpt lat="48.45883" lon="7.37915">
        <ele>378.2</ele>
        <time>2021-06-23T12:23:00Z</time>
      </trkpt>
      <trkpt lat="48.45891" lon="7.3794">
        <ele>375.98</ele>
        <time>2021-06-23T12:23:02Z</time>
      </trkpt>
      <trkpt lat="48.45899" lon="7.37976">
        <ele>374.98</ele>
        <time>2021-06-23T12:23:05Z</time>
      </trkpt>
      <trkpt lat="48.45916" lon="7.38094">
        <ele>376.36</ele>
        <time>2021-06-23T12:23:07Z</time>
      </trkpt>
      <trkpt lat="48.45921" lon="7.38164">
        <ele>370.31</ele>
        <time>2021-06-23T12:23:10Z</time>
      </trkpt>
      <trkpt lat="48.45921" lon="7.38194">
        <ele>369.02</ele>
        <time>2021-06-23T12:23:12Z</time>
      </trkpt>
      <trkpt lat="48.4591" lon="7.38243">
        <ele>367.57</ele>
        <time>2021-06-23T12:23:14Z</time>
      </trkpt>
      <trkpt lat="48.45905" lon="7.38317">
        <ele>366.93</ele>
        <time>2021-06-23T12:23:17Z</time>
      </trkpt>
      <trkpt lat="48.45911" lon="7.38406">
        <ele>366.59</ele>
        <time>2021-06-23T12:23:19Z</time>
      </trkpt>
      <trkpt lat="48.45921" lon="7.38525">
        <ele>361.39</ele>
        <time>2021-06-23T12:23:21Z</time>
      </trkpt>
      <trkpt lat="48.45928" lon="7.38561">
        <ele>359.35</ele>
        <time>2021-06-23T12:23:24Z</time>
      </trkpt>
      <trkpt lat="48.4598" lon="7.38732">
        <ele>343.7</ele>
        <time>2021-06-23T12:23:26Z</time>
      </trkpt>
      <trkpt lat="48.45982" lon="7.38747">
        <ele>343.48</ele>
        <time>2021-06-23T12:23:28Z</time>
      </trkpt>
      <trkpt lat="48.45973" lon="7.38776">
        <ele>341.16</ele>
        <time>2021-06-23T12:23:31Z</time>
      </trkpt>
      <trkpt lat="48.45946" lon="7.38837">
        <ele>349.08</ele>
        <time>2021-06-23T12:23:33Z</time>
      </trkpt>
      <trkpt lat="48.45995" lon="7.38909">
        <ele>346.55</ele>
        <time>2021-06-23T12:23:36Z</time>
      </trkpt>
      <trkpt lat="48.46029" lon="7.38952">
        <ele>348.27</ele>
        <time>2021-06-23T12:23:39Z</time>
      </trkpt>
      <trkpt lat="48.46137" lon="7.39066">
        <ele>339.63</ele>
        <time>2021-06-23T12:23:41Z</time>
      </trkpt>
      <trkpt lat="48.46213" lon="7.39154">
        <ele>335.19</ele>
        <time>2021-06-23T12:23:44Z</time>
      </trkpt>
      <trkpt lat="48.4623" lon="7.39175">
        <ele>333.85</ele>
        <time>2021-06-23T12:23:46Z</time>
      </trkpt>
      <trkpt lat="48.46243" lon="7.39197">
        <ele>332.27</ele>
        <time>2021-06-23T12:23:49Z</time>
      </trkpt>
      <trkpt lat="48.46263" lon="7.39239">
        <ele>331.81</ele>
        <time>2021-06-23T12:23:52Z</time>
      </trkpt>
      <trkpt lat="48.46273" lon="7.39253">
        <ele>332.52</ele>
        <time>2021-06-23T12:23:54Z</time>
      </trkpt>
      <trkpt lat="48.46291" lon="7.39267">
        <ele>334.56</ele>
        <time>2021-06-23T12:23:57Z</time>
      </trkpt>
      <trkpt lat="48.46415" lon="7.39339">
        <ele>331.99</ele>
        <time>2021-06-23T12:23:59Z</time>
      </trkpt>
      <trkpt lat="48.4644" lon="7.39362">
        <ele>330.17</ele>
        <time>2021-06-23T12:24:02Z</time>
      </trkpt>
      <trkpt lat="48.46499" lon="7.39464">
        <ele>336.04</ele>
        <time>2021-06-23T12:24:05Z</time>
      </trkpt>
      <trkpt lat="48.46518" lon="7.39505">
        <ele>337.43</ele>
        <time>2021-06-23T12:24:07Z</time>
      </trkpt>
      <trkpt lat="48.46518" lon="7.39505">
        <ele>337.43</ele>
        <time>2021-06-23T12:24:07Z</time>
      </trkpt>
      <trkpt lat="48.46528" lon="7.39528">
        <ele>338.81</ele>
        <time>2021-06-23T12:24:10Z</time>
      </trkpt>
      <trkpt lat="48.46541" lon="7.39572">
        <ele>336.29</ele>
        <time>2021-06-23T12:24:14Z</time>
      </trkpt>
      <trkpt lat="48.46562" lon="7.39698">
        <ele>336</ele>
        <time>2021-06-23T12:24:17Z</time>
      </trkpt>
      <trkpt lat="48.4659" lon="7.39896">
        <ele>334.81</ele>
        <time>2021-06-23T12:24:20Z</time>
      </trkpt>
      <trkpt lat="48.46604" lon="7.39978">
        <ele>330.77</ele>
        <time>2021-06-23T12:24:23Z</time>
      </trkpt>
      <trkpt lat="48.46632" lon="7.40051">
        <ele>326.28</ele>
        <time>2021-06-23T12:24:27Z</time>
      </trkpt>
      <trkpt lat="48.46641" lon="7.40087">
        <ele>323.5</ele>
        <time>2021-06-23T12:24:30Z</time>
      </trkpt>
      <trkpt lat="48.46669" lon="7.40213">
        <ele>322.18</ele>
        <time>2021-06-23T12:24:33Z</time>
      </trkpt>
      <trkpt lat="48.46684" lon="7.40305">
        <ele>313.8</ele>
        <time>2021-06-23T12:24:36Z</time>
      </trkpt>
      <trkpt lat="48.46705" lon="7.40476">
        <ele>314.59</ele>
        <time>2021-06-23T12:24:40Z</time>
      </trkpt>
      <trkpt lat="48.46714" lon="7.40582">
        <ele>312.88</ele>
        <time>2021-06-23T12:24:43Z</time>
      </trkpt>
      <trkpt lat="48.4672" lon="7.40602">
        <ele>309.96</ele>
        <time>2021-06-23T12:24:46Z</time>
      </trkpt>
      <trkpt lat="48.46727" lon="7.40613">
        <ele>307.68</ele>
        <time>2021-06-23T12:24:49Z</time>
      </trkpt>
      <trkpt lat="48.46777" lon="7.40659">
        <ele>300.33</ele>
        <time>2021-06-23T12:24:53Z</time>
      </trkpt>
      <trkpt lat="48.46797" lon="7.40691">
        <ele>298.45</ele>
        <time>2021-06-23T12:24:56Z</time>
      </trkpt>
      <trkpt lat="48.4681" lon="7.40724">
        <ele>297.95</ele>
        <time>2021-06-23T12:24:59Z</time>
      </trkpt>
      <trkpt lat="48.46816" lon="7.40743">
        <ele>298.55</ele>
        <time>2021-06-23T12:25:02Z</time>
      </trkpt>
      <trkpt lat="48.46827" lon="7.40806">
        <ele>296.76</ele>
        <time>2021-06-23T12:25:06Z</time>
      </trkpt>
      <trkpt lat="48.46849" lon="7.40891">
        <ele>286.34</ele>
        <time>2021-06-23T12:25:09Z</time>
      </trkpt>
      <trkpt lat="48.46853" lon="7.4091">
        <ele>284.42</ele>
        <time>2021-06-23T12:25:12Z</time>
      </trkpt>
      <trkpt lat="48.46859" lon="7.40984">
        <ele>281.33</ele>
        <time>2021-06-23T12:25:15Z</time>
      </trkpt>
      <trkpt lat="48.46864" lon="7.41005">
        <ele>280.98</ele>
        <time>2021-06-23T12:25:19Z</time>
      </trkpt>
      <trkpt lat="48.46897" lon="7.41111">
        <ele>278.57</ele>
        <time>2021-06-23T12:25:22Z</time>
      </trkpt>
      <trkpt lat="48.469" lon="7.41114">
        <ele>278.62</ele>
        <time>2021-06-23T12:25:25Z</time>
      </trkpt>
      <trkpt lat="48.46836" lon="7.41369">
        <ele>276.41</ele>
        <time>2021-06-23T12:25:29Z</time>
      </trkpt>
      <trkpt lat="48.46829" lon="7.41387">
        <ele>275.73</ele>
        <time>2021-06-23T12:25:32Z</time>
      </trkpt>
      <trkpt lat="48.46786" lon="7.41453">
        <ele>272.29</ele>
        <time>2021-06-23T12:25:36Z</time>
      </trkpt>
      <trkpt lat="48.46739" lon="7.41542">
        <ele>274.18</ele>
        <time>2021-06-23T12:25:39Z</time>
      </trkpt>
      <trkpt lat="48.4667" lon="7.41698">
        <ele>277.79</ele>
        <time>2021-06-23T12:25:43Z</time>
      </trkpt>
      <trkpt lat="48.46642" lon="7.41779">
        <ele>274.64</ele>
        <time>2021-06-23T12:25:46Z</time>
      </trkpt>
      <trkpt lat="48.46609" lon="7.41836">
        <ele>276.64</ele>
        <time>2021-06-23T12:25:50Z</time>
      </trkpt>
      <trkpt lat="48.46596" lon="7.41868">
        <ele>277.93</ele>
        <time>2021-06-23T12:25:53Z</time>
      </trkpt>
      <trkpt lat="48.46589" lon="7.41893">
        <ele>276.53</ele>
        <time>2021-06-23T12:25:57Z</time>
      </trkpt>
      <trkpt lat="48.46582" lon="7.41962">
        <ele>273.99</ele>
        <time>2021-06-23T12:26:01Z</time>
      </trkpt>
      <trkpt lat="48.46587" lon="7.42042">
        <ele>272.9</ele>
        <time>2021-06-23T12:26:04Z</time>
      </trkpt>
      <trkpt lat="48.46587" lon="7.42077">
        <ele>271.63</ele>
        <time>2021-06-23T12:26:08Z</time>
      </trkpt>
      <trkpt lat="48.46584" lon="7.4211">
        <ele>271.01</ele>
        <time>2021-06-23T12:26:11Z</time>
      </trkpt>
      <trkpt lat="48.46575" lon="7.42139">
        <ele>272.79</ele>
        <time>2021-06-23T12:26:15Z</time>
      </trkpt>
      <trkpt lat="48.4656" lon="7.42162">
        <ele>275.55</ele>
        <time>2021-06-23T12:26:18Z</time>
      </trkpt>
      <trkpt lat="48.4654" lon="7.4218">
        <ele>274.97</ele>
        <time>2021-06-23T12:26:22Z</time>
      </trkpt>
      <trkpt lat="48.46468" lon="7.42235">
        <ele>266.81</ele>
        <time>2021-06-23T12:26:25Z</time>
      </trkpt>
      <trkpt lat="48.46454" lon="7.42249">
        <ele>263.67</ele>
        <time>2021-06-23T12:26:29Z</time>
      </trkpt>
      <trkpt lat="48.46341" lon="7.42394">
        <ele>269.95</ele>
        <time>2021-06-23T12:26:32Z</time>
      </trkpt>
      <trkpt lat="48.46319" lon="7.42429">
        <ele>274.18</ele>
        <time>2021-06-23T12:26:36Z</time>
      </trkpt>
      <trkpt lat="48.4631" lon="7.42459">
        <ele>273.6</ele>
        <time>2021-06-23T12:26:39Z</time>
      </trkpt>
      <trkpt lat="48.46304" lon="7.42494">
        <ele>269.67</ele>
        <time>2021-06-23T12:26:43Z</time>
      </trkpt>
      <trkpt lat="48.46291" lon="7.426">
        <ele>264.75</ele>
        <time>2021-06-23T12:26:47Z</time>
      </trkpt>
      <trkpt lat="48.46275" lon="7.4271">
        <ele>257.95</ele>
        <time>2021-06-23T12:26:50Z</time>
      </trkpt>
      <trkpt lat="48.46266" lon="7.42757">
        <ele>259.08</ele>
        <time>2021-06-23T12:26:54Z</time>
      </trkpt>
      <trkpt lat="48.46237" lon="7.42864">
        <ele>255.47</ele>
        <time>2021-06-23T12:26:57Z</time>
      </trkpt>
      <trkpt lat="48.4623" lon="7.42883">
        <ele>253.23</ele>
        <time>2021-06-23T12:27:01Z</time>
      </trkpt>
      <trkpt lat="48.46221" lon="7.42899">
        <ele>252.72</ele>
        <time>2021-06-23T12:27:04Z</time>
      </trkpt>
      <trkpt lat="48.46174" lon="7.42965">
        <ele>253.72</ele>
        <time>2021-06-23T12:27:08Z</time>
      </trkpt>
      <trkpt lat="48.46174" lon="7.42965">
        <ele>253.72</ele>
        <time>2021-06-23T12:27:08Z</time>
      </trkpt>
      <trkpt lat="48.46166" lon="7.42975">
        <ele>254.72</ele>
        <time>2021-06-23T12:27:10Z</time>
      </trkpt>
      <trkpt lat="48.46153" lon="7.42987">
        <ele>253.9</ele>
        <time>2021-06-23T12:27:12Z</time>
      </trkpt>
      <trkpt lat="48.46142" lon="7.42995">
        <ele>254.01</ele>
        <time>2021-06-23T12:27:15Z</time>
      </trkpt>
      <trkpt lat="48.46114" lon="7.42999">
        <ele>254.92</ele>
        <time>2021-06-23T12:27:17Z</time>
      </trkpt>
      <trkpt lat="48.4609" lon="7.42993">
        <ele>255.43</ele>
        <time>2021-06-23T12:27:19Z</time>
      </trkpt>
      <trkpt lat="48.46073" lon="7.42983">
        <ele>256.42</ele>
        <time>2021-06-23T12:27:22Z</time>
      </trkpt>
      <trkpt lat="48.4607" lon="7.42969">
        <ele>257.89</ele>
        <time>2021-06-23T12:27:29Z</time>
      </trkpt>
      <trkpt lat="48.46037" lon="7.42944">
        <ele>261.07</ele>
        <time>2021-06-23T12:27:35Z</time>
      </trkpt>
      <trkpt lat="48.46004" lon="7.42907">
        <ele>263.83</ele>
        <time>2021-06-23T12:27:42Z</time>
      </trkpt>
      <trkpt lat="48.45966" lon="7.42865">
        <ele>264.91</ele>
        <time>2021-06-23T12:27:49Z</time>
      </trkpt>
      <trkpt lat="48.45921" lon="7.42825">
        <ele>266.65</ele>
        <time>2021-06-23T12:27:56Z</time>
      </trkpt>
      <trkpt lat="48.45894" lon="7.42807">
        <ele>269.52</ele>
        <time>2021-06-23T12:28:03Z</time>
      </trkpt>
      <trkpt lat="48.45887" lon="7.42799">
        <ele>270.23</ele>
        <time>2021-06-23T12:28:09Z</time>
      </trkpt>
      <trkpt lat="48.45882" lon="7.42789">
        <ele>270.74</ele>
        <time>2021-06-23T12:28:16Z</time>
      </trkpt>
      <trkpt lat="48.45871" lon="7.42764">
        <ele>272.32</ele>
        <time>2021-06-23T12:28:23Z</time>
      </trkpt>
      <trkpt lat="48.4583" lon="7.42559">
        <ele>283.64</ele>
        <time>2021-06-23T12:28:30Z</time>
      </trkpt>
      <trkpt lat="48.45821" lon="7.42539">
        <ele>284.04</ele>
        <time>2021-06-23T12:28:37Z</time>
      </trkpt>
      <trkpt lat="48.45777" lon="7.42478">
        <ele>287.37</ele>
        <time>2021-06-23T12:28:44Z</time>
      </trkpt>
      <trkpt lat="48.45769" lon="7.42474">
        <ele>287.78</ele>
        <time>2021-06-23T12:28:50Z</time>
      </trkpt>
      <trkpt lat="48.4571" lon="7.42475">
        <ele>287.77</ele>
        <time>2021-06-23T12:28:57Z</time>
      </trkpt>
      <trkpt lat="48.45703" lon="7.42472">
        <ele>288.03</ele>
        <time>2021-06-23T12:29:04Z</time>
      </trkpt>
      <trkpt lat="48.45696" lon="7.4246">
        <ele>289.29</ele>
        <time>2021-06-23T12:29:11Z</time>
      </trkpt>
      <trkpt lat="48.45674" lon="7.42415">
        <ele>293.71</ele>
        <time>2021-06-23T12:29:18Z</time>
      </trkpt>
      <trkpt lat="48.45671" lon="7.42413">
        <ele>293.7</ele>
        <time>2021-06-23T12:29:25Z</time>
      </trkpt>
      <trkpt lat="48.45626" lon="7.42434">
        <ele>293.08</ele>
        <time>2021-06-23T12:29:31Z</time>
      </trkpt>
      <trkpt lat="48.45593" lon="7.42441">
        <ele>292.39</ele>
        <time>2021-06-23T12:29:38Z</time>
      </trkpt>
      <trkpt lat="48.45588" lon="7.42445">
        <ele>292.15</ele>
        <time>2021-06-23T12:29:45Z</time>
      </trkpt>
      <trkpt lat="48.45584" lon="7.42452">
        <ele>291.77</ele>
        <time>2021-06-23T12:29:52Z</time>
      </trkpt>
      <trkpt lat="48.45584" lon="7.42452">
        <ele>291.77</ele>
        <time>2021-06-23T12:29:52Z</time>
      </trkpt>
      <trkpt lat="48.4558" lon="7.42466">
        <ele>290.25</ele>
        <time>2021-06-23T12:29:55Z</time>
      </trkpt>
      <trkpt lat="48.45579" lon="7.42486">
        <ele>288.29</ele>
        <time>2021-06-23T12:29:58Z</time>
      </trkpt>
      <trkpt lat="48.45581" lon="7.4251">
        <ele>285.83</ele>
        <time>2021-06-23T12:30:01Z</time>
      </trkpt>
      <trkpt lat="48.45562" lon="7.42523">
        <ele>283.79</ele>
        <time>2021-06-23T12:30:07Z</time>
      </trkpt>
      <trkpt lat="48.4555" lon="7.42525">
        <ele>283.05</ele>
        <time>2021-06-23T12:30:12Z</time>
      </trkpt>
      <trkpt lat="48.45538" lon="7.42526">
        <ele>282.48</ele>
        <time>2021-06-23T12:30:18Z</time>
      </trkpt>
      <trkpt lat="48.45481" lon="7.42519">
        <ele>280.62</ele>
        <time>2021-06-23T12:30:24Z</time>
      </trkpt>
      <trkpt lat="48.45451" lon="7.42525">
        <ele>281.87</ele>
        <time>2021-06-23T12:30:29Z</time>
      </trkpt>
      <trkpt lat="48.45434" lon="7.42531">
        <ele>282.86</ele>
        <time>2021-06-23T12:30:35Z</time>
      </trkpt>
      <trkpt lat="48.45389" lon="7.4256">
        <ele>286.83</ele>
        <time>2021-06-23T12:30:41Z</time>
      </trkpt>
      <trkpt lat="48.4538" lon="7.4257">
        <ele>286.79</ele>
        <time>2021-06-23T12:30:46Z</time>
      </trkpt>
      <trkpt lat="48.45365" lon="7.42593">
        <ele>286.54</ele>
        <time>2021-06-23T12:30:52Z</time>
      </trkpt>
      <trkpt lat="48.45359" lon="7.42596">
        <ele>286.67</ele>
        <time>2021-06-23T12:30:58Z</time>
      </trkpt>
      <trkpt lat="48.45353" lon="7.42596">
        <ele>287.02</ele>
        <time>2021-06-23T12:31:03Z</time>
      </trkpt>
      <trkpt lat="48.45295" lon="7.42586">
        <ele>290.39</ele>
        <time>2021-06-23T12:31:09Z</time>
      </trkpt>
      <trkpt lat="48.45255" lon="7.42583">
        <ele>291.34</ele>
        <time>2021-06-23T12:31:15Z</time>
      </trkpt>
      <trkpt lat="48.45255" lon="7.42583">
        <ele>291.34</ele>
        <time>2021-06-23T12:31:15Z</time>
      </trkpt>
      <trkpt lat="48.452" lon="7.42585">
        <ele>296.12</ele>
        <time>2021-06-23T12:31:23Z</time>
      </trkpt>
      <trkpt lat="48.45172" lon="7.42578">
        <ele>297.3</ele>
        <time>2021-06-23T12:31:31Z</time>
      </trkpt>
      <trkpt lat="48.44924" lon="7.42483">
        <ele>314.63</ele>
        <time>2021-06-23T12:31:39Z</time>
      </trkpt>
      <trkpt lat="48.44911" lon="7.4248">
        <ele>314.95</ele>
        <time>2021-06-23T12:31:47Z</time>
      </trkpt>
      <trkpt lat="48.44898" lon="7.4248">
        <ele>315.4</ele>
        <time>2021-06-23T12:31:55Z</time>
      </trkpt>
      <trkpt lat="48.44886" lon="7.42485">
        <ele>315.92</ele>
        <time>2021-06-23T12:32:03Z</time>
      </trkpt>
      <trkpt lat="48.44854" lon="7.42488">
        <ele>319.64</ele>
        <time>2021-06-23T12:32:11Z</time>
      </trkpt>
      <trkpt lat="48.44818" lon="7.42486">
        <ele>321.78</ele>
        <time>2021-06-23T12:32:19Z</time>
      </trkpt>
      <trkpt lat="48.44793" lon="7.4248">
        <ele>322.33</ele>
        <time>2021-06-23T12:32:28Z</time>
      </trkpt>
      <trkpt lat="48.44722" lon="7.42454">
        <ele>329.01</ele>
        <time>2021-06-23T12:32:36Z</time>
      </trkpt>
      <trkpt lat="48.44661" lon="7.42405">
        <ele>332.28</ele>
        <time>2021-06-23T12:32:44Z</time>
      </trkpt>
      <trkpt lat="48.44661" lon="7.42405">
        <ele>332.28</ele>
        <time>2021-06-23T12:32:44Z</time>
      </trkpt>
      <trkpt lat="48.44614" lon="7.42367">
        <ele>337.55</ele>
        <time>2021-06-23T12:32:52Z</time>
      </trkpt>
      <trkpt lat="48.44598" lon="7.4236">
        <ele>338.96</ele>
        <time>2021-06-23T12:33:00Z</time>
      </trkpt>
      <trkpt lat="48.44585" lon="7.42367">
        <ele>339.88</ele>
        <time>2021-06-23T12:33:03Z</time>
      </trkpt>
      <trkpt lat="48.44562" lon="7.42309">
        <ele>344.12</ele>
        <time>2021-06-23T12:33:11Z</time>
      </trkpt>
      <trkpt lat="48.44535" lon="7.42326">
        <ele>344.27</ele>
        <time>2021-06-23T12:33:16Z</time>
      </trkpt>
      <trkpt lat="48.44505" lon="7.42341">
        <ele>345.14</ele>
        <time>2021-06-23T12:33:20Z</time>
      </trkpt>
      <trkpt lat="48.44496" lon="7.42351">
        <ele>345.02</ele>
        <time>2021-06-23T12:33:25Z</time>
      </trkpt>
      <trkpt lat="48.44492" lon="7.42359">
        <ele>344.77</ele>
        <time>2021-06-23T12:33:29Z</time>
      </trkpt>
      <trkpt lat="48.44497" lon="7.42366">
        <ele>343.86</ele>
        <time>2021-06-23T12:33:31Z</time>
      </trkpt>
      <trkpt lat="48.4448" lon="7.42391">
        <ele>342.5</ele>
        <time>2021-06-23T12:33:34Z</time>
      </trkpt>
      <trkpt lat="48.44478" lon="7.42397">
        <ele>341.74</ele>
        <time>2021-06-23T12:33:38Z</time>
      </trkpt>
      <trkpt lat="48.44427" lon="7.42406">
        <ele>339.97</ele>
        <time>2021-06-23T12:33:40Z</time>
      </trkpt>
      <trkpt lat="48.44406" lon="7.42404">
        <ele>338.63</ele>
        <time>2021-06-23T12:33:42Z</time>
      </trkpt>
      <trkpt lat="48.44391" lon="7.42399">
        <ele>337.56</ele>
        <time>2021-06-23T12:33:45Z</time>
      </trkpt>
      <trkpt lat="48.44348" lon="7.42373">
        <ele>337.81</ele>
        <time>2021-06-23T12:33:47Z</time>
      </trkpt>
      <trkpt lat="48.44323" lon="7.42358">
        <ele>338.13</ele>
        <time>2021-06-23T12:33:49Z</time>
      </trkpt>
      <trkpt lat="48.44313" lon="7.42346">
        <ele>339.24</ele>
        <time>2021-06-23T12:33:52Z</time>
      </trkpt>
      <trkpt lat="48.44306" lon="7.42333">
        <ele>341.15</ele>
        <time>2021-06-23T12:33:54Z</time>
      </trkpt>
      <trkpt lat="48.44294" lon="7.42301">
        <ele>347.3</ele>
        <time>2021-06-23T12:33:57Z</time>
      </trkpt>
      <trkpt lat="48.44286" lon="7.42284">
        <ele>350.11</ele>
        <time>2021-06-23T12:33:59Z</time>
      </trkpt>
      <trkpt lat="48.44268" lon="7.42261">
        <ele>354.61</ele>
        <time>2021-06-23T12:34:01Z</time>
      </trkpt>
      <trkpt lat="48.44218" lon="7.42216">
        <ele>361.34</ele>
        <time>2021-06-23T12:34:04Z</time>
      </trkpt>
      <trkpt lat="48.44205" lon="7.4221">
        <ele>362.43</ele>
        <time>2021-06-23T12:34:06Z</time>
      </trkpt>
      <trkpt lat="48.44194" lon="7.42214">
        <ele>362.05</ele>
        <time>2021-06-23T12:34:08Z</time>
      </trkpt>
      <trkpt lat="48.44186" lon="7.42225">
        <ele>362.69</ele>
        <time>2021-06-23T12:34:11Z</time>
      </trkpt>
      <trkpt lat="48.44182" lon="7.42239">
        <ele>362.86</ele>
        <time>2021-06-23T12:34:13Z</time>
      </trkpt>
      <trkpt lat="48.44183" lon="7.42317">
        <ele>359.44</ele>
        <time>2021-06-23T12:34:16Z</time>
      </trkpt>
      <trkpt lat="48.44173" lon="7.42347">
        <ele>360.91</ele>
        <time>2021-06-23T12:34:18Z</time>
      </trkpt>
      <trkpt lat="48.44113" lon="7.42413">
        <ele>369.77</ele>
        <time>2021-06-23T12:34:20Z</time>
      </trkpt>
      <trkpt lat="48.44027" lon="7.42502">
        <ele>378.99</ele>
        <time>2021-06-23T12:34:23Z</time>
      </trkpt>
      <trkpt lat="48.4394" lon="7.42547">
        <ele>390.76</ele>
        <time>2021-06-23T12:34:25Z</time>
      </trkpt>
      <trkpt lat="48.43921" lon="7.42549">
        <ele>393.11</ele>
        <time>2021-06-23T12:34:28Z</time>
      </trkpt>
      <trkpt lat="48.43894" lon="7.42538">
        <ele>399.18</ele>
        <time>2021-06-23T12:34:30Z</time>
      </trkpt>
      <trkpt lat="48.43856" lon="7.42508">
        <ele>409.46</ele>
        <time>2021-06-23T12:34:32Z</time>
      </trkpt>
      <trkpt lat="48.43813" lon="7.42478">
        <ele>410.52</ele>
        <time>2021-06-23T12:34:35Z</time>
      </trkpt>
      <trkpt lat="48.43703" lon="7.42417">
        <ele>421.92</ele>
        <time>2021-06-23T12:34:37Z</time>
      </trkpt>
      <trkpt lat="48.43689" lon="7.42417">
        <ele>422.96</ele>
        <time>2021-06-23T12:34:39Z</time>
      </trkpt>
      <trkpt lat="48.43675" lon="7.42431">
        <ele>422.71</ele>
        <time>2021-06-23T12:34:42Z</time>
      </trkpt>
      <trkpt lat="48.43665" lon="7.42437">
        <ele>423.06</ele>
        <time>2021-06-23T12:34:44Z</time>
      </trkpt>
      <trkpt lat="48.43657" lon="7.42435">
        <ele>426.29</ele>
        <time>2021-06-23T12:34:47Z</time>
      </trkpt>
      <trkpt lat="48.43652" lon="7.42424">
        <ele>430.17</ele>
        <time>2021-06-23T12:34:49Z</time>
      </trkpt>
      <trkpt lat="48.43651" lon="7.42413">
        <ele>432.64</ele>
        <time>2021-06-23T12:34:51Z</time>
      </trkpt>
      <trkpt lat="48.43654" lon="7.42405">
        <ele>434.47</ele>
        <time>2021-06-23T12:34:54Z</time>
      </trkpt>
      <trkpt lat="48.43674" lon="7.42389">
        <ele>435.5</ele>
        <time>2021-06-23T12:34:56Z</time>
      </trkpt>
      <trkpt lat="48.43686" lon="7.42387">
        <ele>433.39</ele>
        <time>2021-06-23T12:34:58Z</time>
      </trkpt>
      <trkpt lat="48.43739" lon="7.42408">
        <ele>427.48</ele>
        <time>2021-06-23T12:35:01Z</time>
      </trkpt>
      <trkpt lat="48.43818" lon="7.42418">
        <ele>434.47</ele>
        <time>2021-06-23T12:35:03Z</time>
      </trkpt>
      <trkpt lat="48.43875" lon="7.42422">
        <ele>436.86</ele>
        <time>2021-06-23T12:35:06Z</time>
      </trkpt>
      <trkpt lat="48.439" lon="7.42415">
        <ele>437.18</ele>
        <time>2021-06-23T12:35:08Z</time>
      </trkpt>
      <trkpt lat="48.43921" lon="7.42393">
        <ele>440.99</ele>
        <time>2021-06-23T12:35:10Z</time>
      </trkpt>
      <trkpt lat="48.43974" lon="7.42312">
        <ele>439.44</ele>
        <time>2021-06-23T12:35:13Z</time>
      </trkpt>
      <trkpt lat="48.43984" lon="7.42284">
        <ele>440.82</ele>
        <time>2021-06-23T12:35:15Z</time>
      </trkpt>
      <trkpt lat="48.43992" lon="7.42224">
        <ele>445.93</ele>
        <time>2021-06-23T12:35:17Z</time>
      </trkpt>
      <trkpt lat="48.43996" lon="7.42163">
        <ele>448.89</ele>
        <time>2021-06-23T12:35:20Z</time>
      </trkpt>
      <trkpt lat="48.43995" lon="7.42119">
        <ele>452.06</ele>
        <time>2021-06-23T12:35:22Z</time>
      </trkpt>
      <trkpt lat="48.4399" lon="7.4206">
        <ele>455.05</ele>
        <time>2021-06-23T12:35:25Z</time>
      </trkpt>
      <trkpt lat="48.4399" lon="7.42006">
        <ele>457.15</ele>
        <time>2021-06-23T12:35:27Z</time>
      </trkpt>
      <trkpt lat="48.43983" lon="7.41913">
        <ele>460.24</ele>
        <time>2021-06-23T12:35:29Z</time>
      </trkpt>
      <trkpt lat="48.43978" lon="7.41887">
        <ele>460.4</ele>
        <time>2021-06-23T12:35:32Z</time>
      </trkpt>
      <trkpt lat="48.43968" lon="7.41861">
        <ele>462.86</ele>
        <time>2021-06-23T12:35:34Z</time>
      </trkpt>
      <trkpt lat="48.43948" lon="7.41823">
        <ele>467.5</ele>
        <time>2021-06-23T12:35:36Z</time>
      </trkpt>
      <trkpt lat="48.43944" lon="7.41807">
        <ele>468.25</ele>
        <time>2021-06-23T12:35:39Z</time>
      </trkpt>
      <trkpt lat="48.43941" lon="7.41761">
        <ele>463.37</ele>
        <time>2021-06-23T12:35:41Z</time>
      </trkpt>
      <trkpt lat="48.43936" lon="7.41743">
        <ele>465.22</ele>
        <time>2021-06-23T12:35:44Z</time>
      </trkpt>
      <trkpt lat="48.43927" lon="7.41723">
        <ele>467.35</ele>
        <time>2021-06-23T12:35:46Z</time>
      </trkpt>
      <trkpt lat="48.43868" lon="7.41647">
        <ele>478.43</ele>
        <time>2021-06-23T12:35:48Z</time>
      </trkpt>
      <trkpt lat="48.4382" lon="7.41589">
        <ele>482.18</ele>
        <time>2021-06-23T12:35:51Z</time>
      </trkpt>
      <trkpt lat="48.43797" lon="7.41552">
        <ele>484.04</ele>
        <time>2021-06-23T12:35:53Z</time>
      </trkpt>
      <trkpt lat="48.43788" lon="7.41549">
        <ele>486.18</ele>
        <time>2021-06-23T12:35:55Z</time>
      </trkpt>
      <trkpt lat="48.43779" lon="7.41556">
        <ele>489.62</ele>
        <time>2021-06-23T12:35:58Z</time>
      </trkpt>
      <trkpt lat="48.43777" lon="7.41565">
        <ele>490.61</ele>
        <time>2021-06-23T12:36:00Z</time>
      </trkpt>
      <trkpt lat="48.43779" lon="7.41575">
        <ele>490.46</ele>
        <time>2021-06-23T12:36:03Z</time>
      </trkpt>
      <trkpt lat="48.43782" lon="7.4159">
        <ele>490.44</ele>
        <time>2021-06-23T12:36:05Z</time>
      </trkpt>
      <trkpt lat="48.43794" lon="7.41624">
        <ele>492.33</ele>
        <time>2021-06-23T12:36:07Z</time>
      </trkpt>
      <trkpt lat="48.43805" lon="7.41671">
        <ele>495.82</ele>
        <time>2021-06-23T12:36:10Z</time>
      </trkpt>
      <trkpt lat="48.43815" lon="7.41698">
        <ele>497.49</ele>
        <time>2021-06-23T12:36:12Z</time>
      </trkpt>
      <trkpt lat="48.43831" lon="7.41728">
        <ele>496.8</ele>
        <time>2021-06-23T12:36:14Z</time>
      </trkpt>
      <trkpt lat="48.43838" lon="7.41747">
        <ele>498.44</ele>
        <time>2021-06-23T12:36:17Z</time>
      </trkpt>
      <trkpt lat="48.43841" lon="7.41771">
        <ele>500.08</ele>
        <time>2021-06-23T12:36:19Z</time>
      </trkpt>
      <trkpt lat="48.43836" lon="7.41877">
        <ele>505.5</ele>
        <time>2021-06-23T12:36:22Z</time>
      </trkpt>
      <trkpt lat="48.43834" lon="7.41899">
        <ele>505.91</ele>
        <time>2021-06-23T12:36:24Z</time>
      </trkpt>
      <trkpt lat="48.43826" lon="7.41917">
        <ele>507.97</ele>
        <time>2021-06-23T12:36:26Z</time>
      </trkpt>
      <trkpt lat="48.43816" lon="7.41933">
        <ele>509.82</ele>
        <time>2021-06-23T12:36:29Z</time>
      </trkpt>
      <trkpt lat="48.43738" lon="7.42004">
        <ele>520.07</ele>
        <time>2021-06-23T12:36:31Z</time>
      </trkpt>
      <trkpt lat="48.43677" lon="7.42044">
        <ele>526.16</ele>
        <time>2021-06-23T12:36:33Z</time>
      </trkpt>
      <trkpt lat="48.43667" lon="7.42047">
        <ele>528.77</ele>
        <time>2021-06-23T12:36:36Z</time>
      </trkpt>
      <trkpt lat="48.43659" lon="7.42044">
        <ele>530.58</ele>
        <time>2021-06-23T12:36:38Z</time>
      </trkpt>
      <trkpt lat="48.43653" lon="7.42038">
        <ele>532.18</ele>
        <time>2021-06-23T12:36:41Z</time>
      </trkpt>
      <trkpt lat="48.43651" lon="7.42027">
        <ele>533.65</ele>
        <time>2021-06-23T12:36:43Z</time>
      </trkpt>
      <trkpt lat="48.43654" lon="7.42011">
        <ele>533.68</ele>
        <time>2021-06-23T12:36:45Z</time>
      </trkpt>
      <trkpt lat="48.43666" lon="7.41984">
        <ele>531.37</ele>
        <time>2021-06-23T12:36:48Z</time>
      </trkpt>
      <trkpt lat="48.4367" lon="7.41968">
        <ele>531.82</ele>
        <time>2021-06-23T12:36:50Z</time>
      </trkpt>
      <trkpt lat="48.43667" lon="7.41911">
        <ele>538.93</ele>
        <time>2021-06-23T12:36:52Z</time>
      </trkpt>
      <trkpt lat="48.43671" lon="7.41815">
        <ele>546.63</ele>
        <time>2021-06-23T12:36:55Z</time>
      </trkpt>
      <trkpt lat="48.43671" lon="7.41797">
        <ele>547.38</ele>
        <time>2021-06-23T12:36:57Z</time>
      </trkpt>
      <trkpt lat="48.43668" lon="7.4178">
        <ele>548.67</ele>
        <time>2021-06-23T12:37:00Z</time>
      </trkpt>
      <trkpt lat="48.43642" lon="7.41742">
        <ele>553.58</ele>
        <time>2021-06-23T12:37:02Z</time>
      </trkpt>
      <trkpt lat="48.43624" lon="7.41689">
        <ele>553.4</ele>
        <time>2021-06-23T12:37:04Z</time>
      </trkpt>
      <trkpt lat="48.43618" lon="7.41681">
        <ele>553.19</ele>
        <time>2021-06-23T12:37:07Z</time>
      </trkpt>
      <trkpt lat="48.43612" lon="7.41679">
        <ele>553.78</ele>
        <time>2021-06-23T12:37:09Z</time>
      </trkpt>
      <trkpt lat="48.43606" lon="7.41682">
        <ele>555.19</ele>
        <time>2021-06-23T12:37:11Z</time>
      </trkpt>
      <trkpt lat="48.43603" lon="7.41689">
        <ele>556.83</ele>
        <time>2021-06-23T12:37:14Z</time>
      </trkpt>
      <trkpt lat="48.43594" lon="7.41754">
        <ele>559.98</ele>
        <time>2021-06-23T12:37:16Z</time>
      </trkpt>
      <trkpt lat="48.43588" lon="7.41777">
        <ele>561.5</ele>
        <time>2021-06-23T12:37:19Z</time>
      </trkpt>
      <trkpt lat="48.43569" lon="7.41819">
        <ele>566.12</ele>
        <time>2021-06-23T12:37:21Z</time>
      </trkpt>
      <trkpt lat="48.43563" lon="7.41837">
        <ele>566.77</ele>
        <time>2021-06-23T12:37:23Z</time>
      </trkpt>
      <trkpt lat="48.43545" lon="7.41935">
        <ele>561.67</ele>
        <time>2021-06-23T12:37:26Z</time>
      </trkpt>
      <trkpt lat="48.43535" lon="7.41954">
        <ele>561.16</ele>
        <time>2021-06-23T12:37:28Z</time>
      </trkpt>
      <trkpt lat="48.43522" lon="7.41962">
        <ele>563.1</ele>
        <time>2021-06-23T12:37:30Z</time>
      </trkpt>
      <trkpt lat="48.43499" lon="7.41966">
        <ele>568.01</ele>
        <time>2021-06-23T12:37:33Z</time>
      </trkpt>
      <trkpt lat="48.43472" lon="7.41962">
        <ele>573.74</ele>
        <time>2021-06-23T12:37:35Z</time>
      </trkpt>
      <trkpt lat="48.4346" lon="7.41954">
        <ele>575.77</ele>
        <time>2021-06-23T12:37:38Z</time>
      </trkpt>
      <trkpt lat="48.43453" lon="7.41946">
        <ele>576.94</ele>
        <time>2021-06-23T12:37:40Z</time>
      </trkpt>
      <trkpt lat="48.43448" lon="7.41935">
        <ele>578.24</ele>
        <time>2021-06-23T12:37:42Z</time>
      </trkpt>
      <trkpt lat="48.43444" lon="7.41919">
        <ele>579.88</ele>
        <time>2021-06-23T12:37:45Z</time>
      </trkpt>
      <trkpt lat="48.43445" lon="7.419">
        <ele>580.51</ele>
        <time>2021-06-23T12:37:47Z</time>
      </trkpt>
      <trkpt lat="48.43464" lon="7.41831">
        <ele>577.06</ele>
        <time>2021-06-23T12:37:49Z</time>
      </trkpt>
      <trkpt lat="48.43467" lon="7.41804">
        <ele>575.14</ele>
        <time>2021-06-23T12:37:52Z</time>
      </trkpt>
      <trkpt lat="48.43464" lon="7.41789">
        <ele>575.47</ele>
        <time>2021-06-23T12:37:54Z</time>
      </trkpt>
      <trkpt lat="48.4346" lon="7.41783">
        <ele>576.65</ele>
        <time>2021-06-23T12:37:57Z</time>
      </trkpt>
      <trkpt lat="48.43451" lon="7.41783">
        <ele>579</ele>
        <time>2021-06-23T12:37:59Z</time>
      </trkpt>
      <trkpt lat="48.43442" lon="7.41787">
        <ele>581.6</ele>
        <time>2021-06-23T12:38:02Z</time>
      </trkpt>
      <trkpt lat="48.43438" lon="7.41794">
        <ele>582.65</ele>
        <time>2021-06-23T12:38:05Z</time>
      </trkpt>
      <trkpt lat="48.43436" lon="7.41802">
        <ele>582.94</ele>
        <time>2021-06-23T12:38:07Z</time>
      </trkpt>
      <trkpt lat="48.43437" lon="7.41841">
        <ele>582.53</ele>
        <time>2021-06-23T12:38:10Z</time>
      </trkpt>
      <trkpt lat="48.43432" lon="7.41855">
        <ele>583.75</ele>
        <time>2021-06-23T12:38:13Z</time>
      </trkpt>
      <trkpt lat="48.43396" lon="7.419">
        <ele>589.51</ele>
        <time>2021-06-23T12:38:15Z</time>
      </trkpt>
      <trkpt lat="48.43323" lon="7.41968">
        <ele>601.49</ele>
        <time>2021-06-23T12:38:18Z</time>
      </trkpt>
      <trkpt lat="48.43242" lon="7.42027">
        <ele>611.09</ele>
        <time>2021-06-23T12:38:21Z</time>
      </trkpt>
      <trkpt lat="48.4319" lon="7.42059">
        <ele>617.04</ele>
        <time>2021-06-23T12:38:24Z</time>
      </trkpt>
      <trkpt lat="48.43167" lon="7.42067">
        <ele>618.55</ele>
        <time>2021-06-23T12:38:26Z</time>
      </trkpt>
      <trkpt lat="48.43143" lon="7.42067">
        <ele>618.81</ele>
        <time>2021-06-23T12:38:29Z</time>
      </trkpt>
      <trkpt lat="48.43104" lon="7.4206">
        <ele>618.79</ele>
        <time>2021-06-23T12:38:32Z</time>
      </trkpt>
      <trkpt lat="48.4305" lon="7.42058">
        <ele>620.63</ele>
        <time>2021-06-23T12:38:34Z</time>
      </trkpt>
      <trkpt lat="48.42963" lon="7.42065">
        <ele>623.71</ele>
        <time>2021-06-23T12:38:37Z</time>
      </trkpt>
      <trkpt lat="48.4292" lon="7.42057">
        <ele>629.29</ele>
        <time>2021-06-23T12:38:40Z</time>
      </trkpt>
      <trkpt lat="48.42899" lon="7.42056">
        <ele>630.43</ele>
        <time>2021-06-23T12:38:42Z</time>
      </trkpt>
      <trkpt lat="48.42891" lon="7.42058">
        <ele>630.25</ele>
        <time>2021-06-23T12:38:45Z</time>
      </trkpt>
      <trkpt lat="48.42867" lon="7.42071">
        <ele>627.65</ele>
        <time>2021-06-23T12:38:48Z</time>
      </trkpt>
      <trkpt lat="48.4286" lon="7.42072">
        <ele>627.39</ele>
        <time>2021-06-23T12:38:50Z</time>
      </trkpt>
      <trkpt lat="48.42852" lon="7.42069">
        <ele>626.64</ele>
        <time>2021-06-23T12:38:53Z</time>
      </trkpt>
      <trkpt lat="48.42845" lon="7.42063">
        <ele>626.28</ele>
        <time>2021-06-23T12:38:56Z</time>
      </trkpt>
      <trkpt lat="48.4275" lon="7.41938">
        <ele>640.31</ele>
        <time>2021-06-23T12:38:58Z</time>
      </trkpt>
      <trkpt lat="48.42733" lon="7.4191">
        <ele>640.87</ele>
        <time>2021-06-23T12:39:01Z</time>
      </trkpt>
      <trkpt lat="48.42661" lon="7.41742">
        <ele>639.59</ele>
        <time>2021-06-23T12:39:04Z</time>
      </trkpt>
      <trkpt lat="48.42646" lon="7.4172">
        <ele>639.19</ele>
        <time>2021-06-23T12:39:07Z</time>
      </trkpt>
      <trkpt lat="48.42629" lon="7.41703">
        <ele>637.92</ele>
        <time>2021-06-23T12:39:09Z</time>
      </trkpt>
      <trkpt lat="48.42594" lon="7.41681">
        <ele>636.55</ele>
        <time>2021-06-23T12:39:12Z</time>
      </trkpt>
      <trkpt lat="48.42574" lon="7.41672">
        <ele>637.51</ele>
        <time>2021-06-23T12:39:15Z</time>
      </trkpt>
      <trkpt lat="48.42558" lon="7.41669">
        <ele>638.44</ele>
        <time>2021-06-23T12:39:17Z</time>
      </trkpt>
      <trkpt lat="48.42517" lon="7.41669">
        <ele>643.28</ele>
        <time>2021-06-23T12:39:20Z</time>
      </trkpt>
      <trkpt lat="48.42501" lon="7.41673">
        <ele>643.49</ele>
        <time>2021-06-23T12:39:23Z</time>
      </trkpt>
      <trkpt lat="48.42453" lon="7.41697">
        <ele>637.38</ele>
        <time>2021-06-23T12:39:25Z</time>
      </trkpt>
      <trkpt lat="48.42426" lon="7.41708">
        <ele>641.6</ele>
        <time>2021-06-23T12:39:28Z</time>
      </trkpt>
      <trkpt lat="48.42333" lon="7.41716">
        <ele>651.05</ele>
        <time>2021-06-23T12:39:31Z</time>
      </trkpt>
      <trkpt lat="48.42313" lon="7.41722">
        <ele>651.98</ele>
        <time>2021-06-23T12:39:33Z</time>
      </trkpt>
      <trkpt lat="48.4227" lon="7.41743">
        <ele>649.01</ele>
        <time>2021-06-23T12:39:36Z</time>
      </trkpt>
      <trkpt lat="48.42254" lon="7.41748">
        <ele>647.61</ele>
        <time>2021-06-23T12:39:39Z</time>
      </trkpt>
      <trkpt lat="48.42237" lon="7.41747">
        <ele>648.98</ele>
        <time>2021-06-23T12:39:41Z</time>
      </trkpt>
      <trkpt lat="48.42218" lon="7.41737">
        <ele>651.67</ele>
        <time>2021-06-23T12:39:44Z</time>
      </trkpt>
      <trkpt lat="48.42199" lon="7.41723">
        <ele>652.27</ele>
        <time>2021-06-23T12:39:47Z</time>
      </trkpt>
      <trkpt lat="48.42182" lon="7.41702">
        <ele>653.44</ele>
        <time>2021-06-23T12:39:49Z</time>
      </trkpt>
      <trkpt lat="48.42168" lon="7.41681">
        <ele>653.74</ele>
        <time>2021-06-23T12:39:52Z</time>
      </trkpt>
      <trkpt lat="48.42152" lon="7.41649">
        <ele>654.48</ele>
        <time>2021-06-23T12:39:55Z</time>
      </trkpt>
      <trkpt lat="48.42142" lon="7.41625">
        <ele>654.11</ele>
        <time>2021-06-23T12:39:58Z</time>
      </trkpt>
      <trkpt lat="48.42137" lon="7.41605">
        <ele>653.86</ele>
        <time>2021-06-23T12:40:00Z</time>
      </trkpt>
      <trkpt lat="48.42133" lon="7.41584">
        <ele>653.85</ele>
        <time>2021-06-23T12:40:03Z</time>
      </trkpt>
      <trkpt lat="48.42133" lon="7.41559">
        <ele>654.74</ele>
        <time>2021-06-23T12:40:06Z</time>
      </trkpt>
      <trkpt lat="48.42157" lon="7.41401">
        <ele>661.08</ele>
        <time>2021-06-23T12:40:08Z</time>
      </trkpt>
      <trkpt lat="48.42163" lon="7.41306">
        <ele>661.03</ele>
        <time>2021-06-23T12:40:11Z</time>
      </trkpt>
      <trkpt lat="48.42162" lon="7.41289">
        <ele>660.05</ele>
        <time>2021-06-23T12:40:14Z</time>
      </trkpt>
      <trkpt lat="48.42167" lon="7.41285">
        <ele>661.22</ele>
        <time>2021-06-23T12:40:15Z</time>
      </trkpt>
      <trkpt lat="48.42171" lon="7.41278">
        <ele>663.35</ele>
        <time>2021-06-23T12:40:17Z</time>
      </trkpt>
      <trkpt lat="48.42172" lon="7.41265">
        <ele>665.7</ele>
        <time>2021-06-23T12:40:18Z</time>
      </trkpt>
      <trkpt lat="48.42155" lon="7.4115">
        <ele>666.33</ele>
        <time>2021-06-23T12:40:20Z</time>
      </trkpt>
      <trkpt lat="48.42155" lon="7.41114">
        <ele>668.43</ele>
        <time>2021-06-23T12:40:21Z</time>
      </trkpt>
      <trkpt lat="48.42159" lon="7.41082">
        <ele>670.92</ele>
        <time>2021-06-23T12:40:23Z</time>
      </trkpt>
      <trkpt lat="48.42181" lon="7.41002">
        <ele>675.23</ele>
        <time>2021-06-23T12:40:24Z</time>
      </trkpt>
      <trkpt lat="48.42217" lon="7.40919">
        <ele>686.64</ele>
        <time>2021-06-23T12:40:26Z</time>
      </trkpt>
      <trkpt lat="48.42225" lon="7.40894">
        <ele>691.3</ele>
        <time>2021-06-23T12:40:27Z</time>
      </trkpt>
      <trkpt lat="48.42229" lon="7.40872">
        <ele>692.1</ele>
        <time>2021-06-23T12:40:28Z</time>
      </trkpt>
      <trkpt lat="48.42232" lon="7.40846">
        <ele>689.87</ele>
        <time>2021-06-23T12:40:30Z</time>
      </trkpt>
      <trkpt lat="48.42229" lon="7.40781">
        <ele>690.88</ele>
        <time>2021-06-23T12:40:31Z</time>
      </trkpt>
      <trkpt lat="48.4222" lon="7.40708">
        <ele>697.48</ele>
        <time>2021-06-23T12:40:33Z</time>
      </trkpt>
      <trkpt lat="48.42213" lon="7.40666">
        <ele>701.24</ele>
        <time>2021-06-23T12:40:34Z</time>
      </trkpt>
      <trkpt lat="48.42201" lon="7.40617">
        <ele>700.29</ele>
        <time>2021-06-23T12:40:36Z</time>
      </trkpt>
      <trkpt lat="48.42181" lon="7.40547">
        <ele>695.51</ele>
        <time>2021-06-23T12:40:37Z</time>
      </trkpt>
      <trkpt lat="48.42177" lon="7.40519">
        <ele>693.41</ele>
        <time>2021-06-23T12:40:39Z</time>
      </trkpt>
      <trkpt lat="48.42176" lon="7.40478">
        <ele>693.21</ele>
        <time>2021-06-23T12:40:40Z</time>
      </trkpt>
      <trkpt lat="48.4218" lon="7.4045">
        <ele>696.39</ele>
        <time>2021-06-23T12:40:42Z</time>
      </trkpt>
      <trkpt lat="48.42187" lon="7.40423">
        <ele>698.53</ele>
        <time>2021-06-23T12:40:43Z</time>
      </trkpt>
      <trkpt lat="48.42204" lon="7.40382">
        <ele>703.56</ele>
        <time>2021-06-23T12:40:45Z</time>
      </trkpt>
      <trkpt lat="48.42229" lon="7.40342">
        <ele>712.55</ele>
        <time>2021-06-23T12:40:46Z</time>
      </trkpt>
      <trkpt lat="48.42239" lon="7.40318">
        <ele>714.23</ele>
        <time>2021-06-23T12:40:48Z</time>
      </trkpt>
      <trkpt lat="48.42244" lon="7.40295">
        <ele>715.03</ele>
        <time>2021-06-23T12:40:49Z</time>
      </trkpt>
      <trkpt lat="48.42259" lon="7.40219">
        <ele>717.41</ele>
        <time>2021-06-23T12:40:51Z</time>
      </trkpt>
      <trkpt lat="48.42273" lon="7.40119">
        <ele>721.47</ele>
        <time>2021-06-23T12:40:52Z</time>
      </trkpt>
      <trkpt lat="48.42279" lon="7.40011">
        <ele>721.39</ele>
        <time>2021-06-23T12:40:54Z</time>
      </trkpt>
      <trkpt lat="48.42284" lon="7.39994">
        <ele>722.64</ele>
        <time>2021-06-23T12:40:55Z</time>
      </trkpt>
      <trkpt lat="48.4229" lon="7.39983">
        <ele>723.3</ele>
        <time>2021-06-23T12:40:57Z</time>
      </trkpt>
      <trkpt lat="48.42308" lon="7.40016">
        <ele>725.01</ele>
        <time>2021-06-23T12:40:58Z</time>
      </trkpt>
      <trkpt lat="48.42334" lon="7.4007">
        <ele>729.61</ele>
        <time>2021-06-23T12:41:00Z</time>
      </trkpt>
      <trkpt lat="48.42347" lon="7.40092">
        <ele>733.64</ele>
        <time>2021-06-23T12:41:02Z</time>
      </trkpt>
      <trkpt lat="48.42358" lon="7.40101">
        <ele>736.11</ele>
        <time>2021-06-23T12:41:04Z</time>
      </trkpt>
      <trkpt lat="48.42372" lon="7.40104">
        <ele>736.71</ele>
        <time>2021-06-23T12:41:06Z</time>
      </trkpt>
      <trkpt lat="48.4239" lon="7.40097">
        <ele>735.78</ele>
        <time>2021-06-23T12:41:07Z</time>
      </trkpt>
      <trkpt lat="48.4241" lon="7.40076">
        <ele>737.28</ele>
        <time>2021-06-23T12:41:09Z</time>
      </trkpt>
      <trkpt lat="48.42432" lon="7.40045">
        <ele>739.1</ele>
        <time>2021-06-23T12:41:11Z</time>
      </trkpt>
      <trkpt lat="48.42501" lon="7.39963">
        <ele>740.72</ele>
        <time>2021-06-23T12:41:13Z</time>
      </trkpt>
      <trkpt lat="48.42513" lon="7.39954">
        <ele>740.24</ele>
        <time>2021-06-23T12:41:14Z</time>
      </trkpt>
      <trkpt lat="48.42529" lon="7.39945">
        <ele>740.18</ele>
        <time>2021-06-23T12:41:16Z</time>
      </trkpt>
      <trkpt lat="48.42548" lon="7.39942">
        <ele>740.34</ele>
        <time>2021-06-23T12:41:18Z</time>
      </trkpt>
      <trkpt lat="48.42567" lon="7.39948">
        <ele>742</ele>
        <time>2021-06-23T12:41:20Z</time>
      </trkpt>
      <trkpt lat="48.42586" lon="7.39962">
        <ele>744.97</ele>
        <time>2021-06-23T12:41:22Z</time>
      </trkpt>
      <trkpt lat="48.42604" lon="7.3998">
        <ele>747.16</ele>
        <time>2021-06-23T12:41:23Z</time>
      </trkpt>
      <trkpt lat="48.42616" lon="7.39995">
        <ele>749.32</ele>
        <time>2021-06-23T12:41:25Z</time>
      </trkpt>
      <trkpt lat="48.42649" lon="7.40044">
        <ele>751.8</ele>
        <time>2021-06-23T12:41:27Z</time>
      </trkpt>
      <trkpt lat="48.42683" lon="7.40085">
        <ele>753.34</ele>
        <time>2021-06-23T12:41:29Z</time>
      </trkpt>
      <trkpt lat="48.42704" lon="7.40099">
        <ele>752.38</ele>
        <time>2021-06-23T12:41:30Z</time>
      </trkpt>
      <trkpt lat="48.42726" lon="7.4011">
        <ele>752.36</ele>
        <time>2021-06-23T12:41:32Z</time>
      </trkpt>
      <trkpt lat="48.42741" lon="7.40112">
        <ele>754.23</ele>
        <time>2021-06-23T12:41:34Z</time>
      </trkpt>
      <trkpt lat="48.4276" lon="7.40109">
        <ele>756.7</ele>
        <time>2021-06-23T12:41:36Z</time>
      </trkpt>
      <trkpt lat="48.42769" lon="7.40104">
        <ele>757.57</ele>
        <time>2021-06-23T12:41:38Z</time>
      </trkpt>
      <trkpt lat="48.4278" lon="7.40095">
        <ele>758</ele>
        <time>2021-06-23T12:41:39Z</time>
      </trkpt>
      <trkpt lat="48.42791" lon="7.40075">
        <ele>757.86</ele>
        <time>2021-06-23T12:41:41Z</time>
      </trkpt>
      <trkpt lat="48.4282" lon="7.40009">
        <ele>755.05</ele>
        <time>2021-06-23T12:41:43Z</time>
      </trkpt>
      <trkpt lat="48.42862" lon="7.39946">
        <ele>755.28</ele>
        <time>2021-06-23T12:41:45Z</time>
      </trkpt>
      <trkpt lat="48.42873" lon="7.39933">
        <ele>755.93</ele>
        <time>2021-06-23T12:41:46Z</time>
      </trkpt>
      <trkpt lat="48.42884" lon="7.39923">
        <ele>756.75</ele>
        <time>2021-06-23T12:41:48Z</time>
      </trkpt>
      <trkpt lat="48.42914" lon="7.39908">
        <ele>759.11</ele>
        <time>2021-06-23T12:41:50Z</time>
      </trkpt>
      <trkpt lat="48.42937" lon="7.399">
        <ele>758.89</ele>
        <time>2021-06-23T12:41:52Z</time>
      </trkpt>
      <trkpt lat="48.42958" lon="7.399">
        <ele>758.22</ele>
        <time>2021-06-23T12:41:54Z</time>
      </trkpt>
      <trkpt lat="48.42977" lon="7.39914">
        <ele>758.96</ele>
        <time>2021-06-23T12:41:55Z</time>
      </trkpt>
      <trkpt lat="48.43008" lon="7.39954">
        <ele>762.34</ele>
        <time>2021-06-23T12:41:57Z</time>
      </trkpt>
      <trkpt lat="48.43031" lon="7.3999">
        <ele>760.5</ele>
        <time>2021-06-23T12:41:59Z</time>
      </trkpt>
      <trkpt lat="48.4305" lon="7.40012">
        <ele>758.03</ele>
        <time>2021-06-23T12:42:01Z</time>
      </trkpt>
      <trkpt lat="48.43075" lon="7.40031">
        <ele>754.88</ele>
        <time>2021-06-23T12:42:03Z</time>
      </trkpt>
      <trkpt lat="48.431" lon="7.40048">
        <ele>753.58</ele>
        <time>2021-06-23T12:42:04Z</time>
      </trkpt>
      <trkpt lat="48.43114" lon="7.40054">
        <ele>753.51</ele>
        <time>2021-06-23T12:42:06Z</time>
      </trkpt>
      <trkpt lat="48.43127" lon="7.40055">
        <ele>752.82</ele>
        <time>2021-06-23T12:42:08Z</time>
      </trkpt>
      <trkpt lat="48.43166" lon="7.40043">
        <ele>748.28</ele>
        <time>2021-06-23T12:42:10Z</time>
      </trkpt>
      <trkpt lat="48.43177" lon="7.40043">
        <ele>747.43</ele>
        <time>2021-06-23T12:42:11Z</time>
      </trkpt>
      <trkpt lat="48.43274" lon="7.40073">
        <ele>742.65</ele>
        <time>2021-06-23T12:42:13Z</time>
      </trkpt>
      <trkpt lat="48.4328" lon="7.40073">
        <ele>742.01</ele>
        <time>2021-06-23T12:42:15Z</time>
      </trkpt>
      <trkpt lat="48.43286" lon="7.4008">
        <ele>742.6</ele>
        <time>2021-06-23T12:42:17Z</time>
      </trkpt>
      <trkpt lat="48.43293" lon="7.40076">
        <ele>741.18</ele>
        <time>2021-06-23T12:42:19Z</time>
      </trkpt>
      <trkpt lat="48.43299" lon="7.40081">
        <ele>741.26</ele>
        <time>2021-06-23T12:42:20Z</time>
      </trkpt>
      <trkpt lat="48.43331" lon="7.40095">
        <ele>741.81</ele>
        <time>2021-06-23T12:42:22Z</time>
      </trkpt>
      <trkpt lat="48.43387" lon="7.40137">
        <ele>750.4</ele>
        <time>2021-06-23T12:42:24Z</time>
      </trkpt>
      <trkpt lat="48.43416" lon="7.40164">
        <ele>751.52</ele>
        <time>2021-06-23T12:42:26Z</time>
      </trkpt>
      <trkpt lat="48.43457" lon="7.40212">
        <ele>756.05</ele>
        <time>2021-06-23T12:42:27Z</time>
      </trkpt>
      <trkpt lat="48.43469" lon="7.40222">
        <ele>756.32</ele>
        <time>2021-06-23T12:42:29Z</time>
      </trkpt>
      <trkpt lat="48.43475" lon="7.40224">
        <ele>756.01</ele>
        <time>2021-06-23T12:42:31Z</time>
      </trkpt>
      <trkpt lat="48.43488" lon="7.40224">
        <ele>755.57</ele>
        <time>2021-06-23T12:42:33Z</time>
      </trkpt>
      <trkpt lat="48.43514" lon="7.40211">
        <ele>753.22</ele>
        <time>2021-06-23T12:42:34Z</time>
      </trkpt>
      <trkpt lat="48.43537" lon="7.40208">
        <ele>751.72</ele>
        <time>2021-06-23T12:42:36Z</time>
      </trkpt>
      <trkpt lat="48.4356" lon="7.40219">
        <ele>753.12</ele>
        <time>2021-06-23T12:42:38Z</time>
      </trkpt>
      <trkpt lat="48.43572" lon="7.4023">
        <ele>752.69</ele>
        <time>2021-06-23T12:42:40Z</time>
      </trkpt>
      <trkpt lat="48.43572" lon="7.4023">
        <ele>752.69</ele>
        <time>2021-06-23T12:42:40Z</time>
      </trkpt>
      <trkpt lat="48.4356" lon="7.40219">
        <ele>753.12</ele>
        <time>2021-06-23T12:42:41Z</time>
      </trkpt>
      <trkpt lat="48.43537" lon="7.40208">
        <ele>751.72</ele>
        <time>2021-06-23T12:42:43Z</time>
      </trkpt>
      <trkpt lat="48.4353" lon="7.40199">
        <ele>750</ele>
        <time>2021-06-23T12:42:45Z</time>
      </trkpt>
      <trkpt lat="48.43521" lon="7.40196">
        <ele>749.96</ele>
        <time>2021-06-23T12:42:46Z</time>
      </trkpt>
      <trkpt lat="48.43512" lon="7.40196">
        <ele>750.96</ele>
        <time>2021-06-23T12:42:48Z</time>
      </trkpt>
      <trkpt lat="48.43489" lon="7.40205">
        <ele>753.29</ele>
        <time>2021-06-23T12:42:50Z</time>
      </trkpt>
      <trkpt lat="48.43482" lon="7.40206">
        <ele>753.49</ele>
        <time>2021-06-23T12:42:52Z</time>
      </trkpt>
      <trkpt lat="48.43475" lon="7.40204">
        <ele>753.29</ele>
        <time>2021-06-23T12:42:53Z</time>
      </trkpt>
      <trkpt lat="48.43462" lon="7.40194">
        <ele>752.68</ele>
        <time>2021-06-23T12:42:55Z</time>
      </trkpt>
      <trkpt lat="48.4342" lon="7.40142">
        <ele>747.08</ele>
        <time>2021-06-23T12:42:57Z</time>
      </trkpt>
      <trkpt lat="48.43395" lon="7.40116">
        <ele>744.82</ele>
        <time>2021-06-23T12:42:58Z</time>
      </trkpt>
      <trkpt lat="48.43372" lon="7.40101">
        <ele>742.21</ele>
        <time>2021-06-23T12:43:00Z</time>
      </trkpt>
      <trkpt lat="48.43312" lon="7.40075">
        <ele>739.47</ele>
        <time>2021-06-23T12:43:02Z</time>
      </trkpt>
      <trkpt lat="48.43294" lon="7.40071">
        <ele>740.31</ele>
        <time>2021-06-23T12:43:03Z</time>
      </trkpt>
      <trkpt lat="48.43294" lon="7.40067">
        <ele>739.56</ele>
        <time>2021-06-23T12:43:05Z</time>
      </trkpt>
      <trkpt lat="48.4329" lon="7.40059">
        <ele>738.66</ele>
        <time>2021-06-23T12:43:07Z</time>
      </trkpt>
      <trkpt lat="48.43284" lon="7.40058">
        <ele>739.01</ele>
        <time>2021-06-23T12:43:08Z</time>
      </trkpt>
      <trkpt lat="48.43281" lon="7.40063">
        <ele>740.06</ele>
        <time>2021-06-23T12:43:10Z</time>
      </trkpt>
      <trkpt lat="48.4328" lon="7.40073">
        <ele>742.01</ele>
        <time>2021-06-23T12:43:12Z</time>
      </trkpt>
      <trkpt lat="48.43274" lon="7.40073">
        <ele>742.65</ele>
        <time>2021-06-23T12:43:13Z</time>
      </trkpt>
      <trkpt lat="48.43177" lon="7.40043">
        <ele>747.43</ele>
        <time>2021-06-23T12:43:15Z</time>
      </trkpt>
      <trkpt lat="48.43166" lon="7.40043">
        <ele>748.28</ele>
        <time>2021-06-23T12:43:16Z</time>
      </trkpt>
      <trkpt lat="48.43127" lon="7.40055">
        <ele>752.82</ele>
        <time>2021-06-23T12:43:18Z</time>
      </trkpt>
      <trkpt lat="48.43114" lon="7.40054">
        <ele>753.51</ele>
        <time>2021-06-23T12:43:20Z</time>
      </trkpt>
      <trkpt lat="48.431" lon="7.40048">
        <ele>753.58</ele>
        <time>2021-06-23T12:43:21Z</time>
      </trkpt>
      <trkpt lat="48.43075" lon="7.40031">
        <ele>754.88</ele>
        <time>2021-06-23T12:43:23Z</time>
      </trkpt>
      <trkpt lat="48.4305" lon="7.40012">
        <ele>758.03</ele>
        <time>2021-06-23T12:43:25Z</time>
      </trkpt>
      <trkpt lat="48.43031" lon="7.3999">
        <ele>760.5</ele>
        <time>2021-06-23T12:43:26Z</time>
      </trkpt>
      <trkpt lat="48.43008" lon="7.39954">
        <ele>762.34</ele>
        <time>2021-06-23T12:43:28Z</time>
      </trkpt>
      <trkpt lat="48.42977" lon="7.39914">
        <ele>758.96</ele>
        <time>2021-06-23T12:43:29Z</time>
      </trkpt>
      <trkpt lat="48.42958" lon="7.399">
        <ele>758.22</ele>
        <time>2021-06-23T12:43:31Z</time>
      </trkpt>
      <trkpt lat="48.42937" lon="7.399">
        <ele>758.89</ele>
        <time>2021-06-23T12:43:33Z</time>
      </trkpt>
      <trkpt lat="48.42914" lon="7.39908">
        <ele>759.11</ele>
        <time>2021-06-23T12:43:34Z</time>
      </trkpt>
      <trkpt lat="48.42884" lon="7.39923">
        <ele>756.75</ele>
        <time>2021-06-23T12:43:36Z</time>
      </trkpt>
      <trkpt lat="48.42873" lon="7.39933">
        <ele>755.93</ele>
        <time>2021-06-23T12:43:38Z</time>
      </trkpt>
      <trkpt lat="48.42862" lon="7.39946">
        <ele>755.28</ele>
        <time>2021-06-23T12:43:39Z</time>
      </trkpt>
      <trkpt lat="48.4282" lon="7.40009">
        <ele>755.05</ele>
        <time>2021-06-23T12:43:41Z</time>
      </trkpt>
      <trkpt lat="48.42791" lon="7.40075">
        <ele>757.86</ele>
        <time>2021-06-23T12:43:42Z</time>
      </trkpt>
      <trkpt lat="48.4278" lon="7.40095">
        <ele>758</ele>
        <time>2021-06-23T12:43:44Z</time>
      </trkpt>
      <trkpt lat="48.42769" lon="7.40104">
        <ele>757.57</ele>
        <time>2021-06-23T12:43:46Z</time>
      </trkpt>
      <trkpt lat="48.4276" lon="7.40109">
        <ele>756.7</ele>
        <time>2021-06-23T12:43:47Z</time>
      </trkpt>
      <trkpt lat="48.42741" lon="7.40112">
        <ele>754.23</ele>
        <time>2021-06-23T12:43:49Z</time>
      </trkpt>
      <trkpt lat="48.42726" lon="7.4011">
        <ele>752.36</ele>
        <time>2021-06-23T12:43:51Z</time>
      </trkpt>
      <trkpt lat="48.42704" lon="7.40099">
        <ele>752.38</ele>
        <time>2021-06-23T12:43:52Z</time>
      </trkpt>
      <trkpt lat="48.42683" lon="7.40085">
        <ele>753.34</ele>
        <time>2021-06-23T12:43:54Z</time>
      </trkpt>
      <trkpt lat="48.42649" lon="7.40044">
        <ele>751.8</ele>
        <time>2021-06-23T12:43:55Z</time>
      </trkpt>
      <trkpt lat="48.42616" lon="7.39995">
        <ele>749.32</ele>
        <time>2021-06-23T12:43:57Z</time>
      </trkpt>
      <trkpt lat="48.42604" lon="7.3998">
        <ele>747.16</ele>
        <time>2021-06-23T12:43:59Z</time>
      </trkpt>
      <trkpt lat="48.42586" lon="7.39962">
        <ele>744.97</ele>
        <time>2021-06-23T12:44:00Z</time>
      </trkpt>
      <trkpt lat="48.42567" lon="7.39948">
        <ele>742</ele>
        <time>2021-06-23T12:44:02Z</time>
      </trkpt>
      <trkpt lat="48.42548" lon="7.39942">
        <ele>740.34</ele>
        <time>2021-06-23T12:44:04Z</time>
      </trkpt>
      <trkpt lat="48.42529" lon="7.39945">
        <ele>740.18</ele>
        <time>2021-06-23T12:44:05Z</time>
      </trkpt>
      <trkpt lat="48.42513" lon="7.39954">
        <ele>740.24</ele>
        <time>2021-06-23T12:44:07Z</time>
      </trkpt>
      <trkpt lat="48.42501" lon="7.39963">
        <ele>740.72</ele>
        <time>2021-06-23T12:44:08Z</time>
      </trkpt>
      <trkpt lat="48.42432" lon="7.40045">
        <ele>739.1</ele>
        <time>2021-06-23T12:44:10Z</time>
      </trkpt>
      <trkpt lat="48.4241" lon="7.40076">
        <ele>737.28</ele>
        <time>2021-06-23T12:44:12Z</time>
      </trkpt>
      <trkpt lat="48.4239" lon="7.40097">
        <ele>735.78</ele>
        <time>2021-06-23T12:44:13Z</time>
      </trkpt>
      <trkpt lat="48.42372" lon="7.40104">
        <ele>736.71</ele>
        <time>2021-06-23T12:44:15Z</time>
      </trkpt>
      <trkpt lat="48.42358" lon="7.40101">
        <ele>736.11</ele>
        <time>2021-06-23T12:44:17Z</time>
      </trkpt>
      <trkpt lat="48.42347" lon="7.40092">
        <ele>733.64</ele>
        <time>2021-06-23T12:44:18Z</time>
      </trkpt>
      <trkpt lat="48.42334" lon="7.4007">
        <ele>729.61</ele>
        <time>2021-06-23T12:44:20Z</time>
      </trkpt>
      <trkpt lat="48.42308" lon="7.40016">
        <ele>725.01</ele>
        <time>2021-06-23T12:44:21Z</time>
      </trkpt>
      <trkpt lat="48.4229" lon="7.39983">
        <ele>723.3</ele>
        <time>2021-06-23T12:44:23Z</time>
      </trkpt>
      <trkpt lat="48.42284" lon="7.39994">
        <ele>722.64</ele>
        <time>2021-06-23T12:44:25Z</time>
      </trkpt>
      <trkpt lat="48.42279" lon="7.40011">
        <ele>721.39</ele>
        <time>2021-06-23T12:44:26Z</time>
      </trkpt>
      <trkpt lat="48.42273" lon="7.40119">
        <ele>721.47</ele>
        <time>2021-06-23T12:44:27Z</time>
      </trkpt>
      <trkpt lat="48.42259" lon="7.40219">
        <ele>717.41</ele>
        <time>2021-06-23T12:44:29Z</time>
      </trkpt>
      <trkpt lat="48.42244" lon="7.40295">
        <ele>715.03</ele>
        <time>2021-06-23T12:44:30Z</time>
      </trkpt>
      <trkpt lat="48.42239" lon="7.40318">
        <ele>714.23</ele>
        <time>2021-06-23T12:44:32Z</time>
      </trkpt>
      <trkpt lat="48.42229" lon="7.40342">
        <ele>712.55</ele>
        <time>2021-06-23T12:44:33Z</time>
      </trkpt>
      <trkpt lat="48.42204" lon="7.40382">
        <ele>703.56</ele>
        <time>2021-06-23T12:44:35Z</time>
      </trkpt>
      <trkpt lat="48.42187" lon="7.40423">
        <ele>698.53</ele>
        <time>2021-06-23T12:44:36Z</time>
      </trkpt>
      <trkpt lat="48.4218" lon="7.4045">
        <ele>696.39</ele>
        <time>2021-06-23T12:44:37Z</time>
      </trkpt>
      <trkpt lat="48.42176" lon="7.40478">
        <ele>693.21</ele>
        <time>2021-06-23T12:44:39Z</time>
      </trkpt>
      <trkpt lat="48.42177" lon="7.40519">
        <ele>693.41</ele>
        <time>2021-06-23T12:44:40Z</time>
      </trkpt>
      <trkpt lat="48.42181" lon="7.40547">
        <ele>695.51</ele>
        <time>2021-06-23T12:44:42Z</time>
      </trkpt>
      <trkpt lat="48.42201" lon="7.40617">
        <ele>700.29</ele>
        <time>2021-06-23T12:44:43Z</time>
      </trkpt>
      <trkpt lat="48.42213" lon="7.40666">
        <ele>701.24</ele>
        <time>2021-06-23T12:44:45Z</time>
      </trkpt>
      <trkpt lat="48.4222" lon="7.40708">
        <ele>697.48</ele>
        <time>2021-06-23T12:44:46Z</time>
      </trkpt>
      <trkpt lat="48.42229" lon="7.40781">
        <ele>690.88</ele>
        <time>2021-06-23T12:44:48Z</time>
      </trkpt>
      <trkpt lat="48.42232" lon="7.40846">
        <ele>689.87</ele>
        <time>2021-06-23T12:44:49Z</time>
      </trkpt>
      <trkpt lat="48.42229" lon="7.40872">
        <ele>692.1</ele>
        <time>2021-06-23T12:44:50Z</time>
      </trkpt>
      <trkpt lat="48.42225" lon="7.40894">
        <ele>691.3</ele>
        <time>2021-06-23T12:44:52Z</time>
      </trkpt>
      <trkpt lat="48.42217" lon="7.40919">
        <ele>686.64</ele>
        <time>2021-06-23T12:44:53Z</time>
      </trkpt>
      <trkpt lat="48.42181" lon="7.41002">
        <ele>675.23</ele>
        <time>2021-06-23T12:44:55Z</time>
      </trkpt>
      <trkpt lat="48.42159" lon="7.41082">
        <ele>670.92</ele>
        <time>2021-06-23T12:44:56Z</time>
      </trkpt>
      <trkpt lat="48.42155" lon="7.41114">
        <ele>668.43</ele>
        <time>2021-06-23T12:44:58Z</time>
      </trkpt>
      <trkpt lat="48.42155" lon="7.4115">
        <ele>666.33</ele>
        <time>2021-06-23T12:44:59Z</time>
      </trkpt>
      <trkpt lat="48.42172" lon="7.41265">
        <ele>665.7</ele>
        <time>2021-06-23T12:45:00Z</time>
      </trkpt>
      <trkpt lat="48.42171" lon="7.41278">
        <ele>663.35</ele>
        <time>2021-06-23T12:45:02Z</time>
      </trkpt>
      <trkpt lat="48.42167" lon="7.41285">
        <ele>661.22</ele>
        <time>2021-06-23T12:45:03Z</time>
      </trkpt>
      <trkpt lat="48.42156" lon="7.41289">
        <ele>658.63</ele>
        <time>2021-06-23T12:45:05Z</time>
      </trkpt>
      <trkpt lat="48.4215" lon="7.41285">
        <ele>656.98</ele>
        <time>2021-06-23T12:45:06Z</time>
      </trkpt>
      <trkpt lat="48.42147" lon="7.41277">
        <ele>655.99</ele>
        <time>2021-06-23T12:45:08Z</time>
      </trkpt>
      <trkpt lat="48.42145" lon="7.41265">
        <ele>655.7</ele>
        <time>2021-06-23T12:45:09Z</time>
      </trkpt>
      <trkpt lat="48.42145" lon="7.41228">
        <ele>657.22</ele>
        <time>2021-06-23T12:45:10Z</time>
      </trkpt>
      <trkpt lat="48.42141" lon="7.41194">
        <ele>656.92</ele>
        <time>2021-06-23T12:45:12Z</time>
      </trkpt>
      <trkpt lat="48.42126" lon="7.41134">
        <ele>651.23</ele>
        <time>2021-06-23T12:45:13Z</time>
      </trkpt>
      <trkpt lat="48.42124" lon="7.41088">
        <ele>647</ele>
        <time>2021-06-23T12:45:15Z</time>
      </trkpt>
      <trkpt lat="48.42125" lon="7.41045">
        <ele>645.78</ele>
        <time>2021-06-23T12:45:16Z</time>
      </trkpt>
      <trkpt lat="48.42132" lon="7.40992">
        <ele>645.24</ele>
        <time>2021-06-23T12:45:18Z</time>
      </trkpt>
      <trkpt lat="48.42153" lon="7.40885">
        <ele>645.29</ele>
        <time>2021-06-23T12:45:19Z</time>
      </trkpt>
      <trkpt lat="48.42161" lon="7.40848">
        <ele>643.81</ele>
        <time>2021-06-23T12:45:21Z</time>
      </trkpt>
      <trkpt lat="48.42162" lon="7.40828">
        <ele>644.16</ele>
        <time>2021-06-23T12:45:22Z</time>
      </trkpt>
      <trkpt lat="48.42157" lon="7.40801">
        <ele>645.18</ele>
        <time>2021-06-23T12:45:23Z</time>
      </trkpt>
      <trkpt lat="48.42144" lon="7.40762">
        <ele>644.43</ele>
        <time>2021-06-23T12:45:25Z</time>
      </trkpt>
      <trkpt lat="48.4213" lon="7.40722">
        <ele>642.79</ele>
        <time>2021-06-23T12:45:26Z</time>
      </trkpt>
      <trkpt lat="48.42118" lon="7.40694">
        <ele>638.74</ele>
        <time>2021-06-23T12:45:28Z</time>
      </trkpt>
      <trkpt lat="48.42102" lon="7.40669">
        <ele>633.71</ele>
        <time>2021-06-23T12:45:29Z</time>
      </trkpt>
      <trkpt lat="48.42095" lon="7.40653">
        <ele>632.78</ele>
        <time>2021-06-23T12:45:31Z</time>
      </trkpt>
      <trkpt lat="48.42065" lon="7.40551">
        <ele>623.66</ele>
        <time>2021-06-23T12:45:32Z</time>
      </trkpt>
      <trkpt lat="48.42061" lon="7.40527">
        <ele>619.85</ele>
        <time>2021-06-23T12:45:33Z</time>
      </trkpt>
      <trkpt lat="48.42057" lon="7.40465">
        <ele>616.07</ele>
        <time>2021-06-23T12:45:35Z</time>
      </trkpt>
      <trkpt lat="48.42061" lon="7.40394">
        <ele>615.71</ele>
        <time>2021-06-23T12:45:36Z</time>
      </trkpt>
      <trkpt lat="48.42067" lon="7.40322">
        <ele>612.19</ele>
        <time>2021-06-23T12:45:38Z</time>
      </trkpt>
      <trkpt lat="48.42067" lon="7.40322">
        <ele>612.19</ele>
        <time>2021-06-23T12:45:38Z</time>
      </trkpt>
      <trkpt lat="48.42081" lon="7.40265">
        <ele>609.56</ele>
        <time>2021-06-23T12:45:39Z</time>
      </trkpt>
      <trkpt lat="48.42084" lon="7.40245">
        <ele>610.53</ele>
        <time>2021-06-23T12:45:41Z</time>
      </trkpt>
      <trkpt lat="48.42084" lon="7.40219">
        <ele>611.47</ele>
        <time>2021-06-23T12:45:42Z</time>
      </trkpt>
      <trkpt lat="48.4208" lon="7.40168">
        <ele>609.95</ele>
        <time>2021-06-23T12:45:44Z</time>
      </trkpt>
      <trkpt lat="48.42075" lon="7.4014">
        <ele>606.31</ele>
        <time>2021-06-23T12:45:45Z</time>
      </trkpt>
      <trkpt lat="48.42067" lon="7.40103">
        <ele>601.44</ele>
        <time>2021-06-23T12:45:46Z</time>
      </trkpt>
      <trkpt lat="48.42053" lon="7.40054">
        <ele>597.46</ele>
        <time>2021-06-23T12:45:48Z</time>
      </trkpt>
      <trkpt lat="48.42043" lon="7.40027">
        <ele>598.47</ele>
        <time>2021-06-23T12:45:49Z</time>
      </trkpt>
      <trkpt lat="48.41971" lon="7.39886">
        <ele>584.15</ele>
        <time>2021-06-23T12:45:51Z</time>
      </trkpt>
      <trkpt lat="48.41963" lon="7.39854">
        <ele>585.47</ele>
        <time>2021-06-23T12:45:52Z</time>
      </trkpt>
      <trkpt lat="48.41953" lon="7.3973">
        <ele>579.76</ele>
        <time>2021-06-23T12:45:54Z</time>
      </trkpt>
      <trkpt lat="48.41945" lon="7.39685">
        <ele>578.58</ele>
        <time>2021-06-23T12:45:55Z</time>
      </trkpt>
      <trkpt lat="48.41935" lon="7.39639">
        <ele>579.01</ele>
        <time>2021-06-23T12:45:57Z</time>
      </trkpt>
      <trkpt lat="48.41929" lon="7.39624">
        <ele>578.34</ele>
        <time>2021-06-23T12:45:58Z</time>
      </trkpt>
      <trkpt lat="48.41921" lon="7.3961">
        <ele>576.82</ele>
        <time>2021-06-23T12:45:59Z</time>
      </trkpt>
      <trkpt lat="48.41897" lon="7.39587">
        <ele>574.24</ele>
        <time>2021-06-23T12:46:01Z</time>
      </trkpt>
      <trkpt lat="48.41791" lon="7.39493">
        <ele>562.65</ele>
        <time>2021-06-23T12:46:02Z</time>
      </trkpt>
      <trkpt lat="48.41775" lon="7.39485">
        <ele>560.86</ele>
        <time>2021-06-23T12:46:04Z</time>
      </trkpt>
      <trkpt lat="48.41753" lon="7.39478">
        <ele>558.85</ele>
        <time>2021-06-23T12:46:05Z</time>
      </trkpt>
      <trkpt lat="48.41743" lon="7.39469">
        <ele>558.52</ele>
        <time>2021-06-23T12:46:07Z</time>
      </trkpt>
      <trkpt lat="48.41737" lon="7.3946">
        <ele>558.74</ele>
        <time>2021-06-23T12:46:08Z</time>
      </trkpt>
      <trkpt lat="48.41715" lon="7.39416">
        <ele>555.25</ele>
        <time>2021-06-23T12:46:10Z</time>
      </trkpt>
      <trkpt lat="48.41691" lon="7.39373">
        <ele>554.82</ele>
        <time>2021-06-23T12:46:11Z</time>
      </trkpt>
      <trkpt lat="48.41623" lon="7.39209">
        <ele>536.99</ele>
        <time>2021-06-23T12:46:12Z</time>
      </trkpt>
      <trkpt lat="48.41618" lon="7.39192">
        <ele>535.22</ele>
        <time>2021-06-23T12:46:14Z</time>
      </trkpt>
      <trkpt lat="48.41602" lon="7.39114">
        <ele>531.73</ele>
        <time>2021-06-23T12:46:15Z</time>
      </trkpt>
      <trkpt lat="48.41585" lon="7.39051">
        <ele>533.16</ele>
        <time>2021-06-23T12:46:17Z</time>
      </trkpt>
      <trkpt lat="48.41569" lon="7.39001">
        <ele>531.25</ele>
        <time>2021-06-23T12:46:18Z</time>
      </trkpt>
      <trkpt lat="48.41537" lon="7.38938">
        <ele>524.08</ele>
        <time>2021-06-23T12:46:20Z</time>
      </trkpt>
      <trkpt lat="48.41518" lon="7.38875">
        <ele>518.93</ele>
        <time>2021-06-23T12:46:21Z</time>
      </trkpt>
      <trkpt lat="48.41493" lon="7.38822">
        <ele>511.63</ele>
        <time>2021-06-23T12:46:23Z</time>
      </trkpt>
      <trkpt lat="48.41491" lon="7.38808">
        <ele>509.74</ele>
        <time>2021-06-23T12:46:24Z</time>
      </trkpt>
      <trkpt lat="48.41493" lon="7.38794">
        <ele>509.77</ele>
        <time>2021-06-23T12:46:25Z</time>
      </trkpt>
      <trkpt lat="48.41498" lon="7.38784">
        <ele>510.83</ele>
        <time>2021-06-23T12:46:27Z</time>
      </trkpt>
      <trkpt lat="48.41526" lon="7.38754">
        <ele>515.5</ele>
        <time>2021-06-23T12:46:28Z</time>
      </trkpt>
      <trkpt lat="48.41534" lon="7.38739">
        <ele>516.44</ele>
        <time>2021-06-23T12:46:30Z</time>
      </trkpt>
      <trkpt lat="48.4154" lon="7.3872">
        <ele>516.33</ele>
        <time>2021-06-23T12:46:31Z</time>
      </trkpt>
      <trkpt lat="48.41543" lon="7.38699">
        <ele>515.18</ele>
        <time>2021-06-23T12:46:33Z</time>
      </trkpt>
      <trkpt lat="48.41543" lon="7.38666">
        <ele>512.86</ele>
        <time>2021-06-23T12:46:34Z</time>
      </trkpt>
      <trkpt lat="48.41539" lon="7.38651">
        <ele>511.18</ele>
        <time>2021-06-23T12:46:36Z</time>
      </trkpt>
      <trkpt lat="48.4152" lon="7.38604">
        <ele>501.47</ele>
        <time>2021-06-23T12:46:37Z</time>
      </trkpt>
      <trkpt lat="48.41516" lon="7.38578">
        <ele>497.28</ele>
        <time>2021-06-23T12:46:38Z</time>
      </trkpt>
      <trkpt lat="48.41517" lon="7.38544">
        <ele>494.91</ele>
        <time>2021-06-23T12:46:40Z</time>
      </trkpt>
      <trkpt lat="48.41524" lon="7.385">
        <ele>493.77</ele>
        <time>2021-06-23T12:46:41Z</time>
      </trkpt>
      <trkpt lat="48.41535" lon="7.38453">
        <ele>494.91</ele>
        <time>2021-06-23T12:46:43Z</time>
      </trkpt>
      <trkpt lat="48.41552" lon="7.384">
        <ele>498.6</ele>
        <time>2021-06-23T12:46:44Z</time>
      </trkpt>
      <trkpt lat="48.41553" lon="7.38382">
        <ele>498.08</ele>
        <time>2021-06-23T12:46:46Z</time>
      </trkpt>
      <trkpt lat="48.41546" lon="7.38365">
        <ele>495.74</ele>
        <time>2021-06-23T12:46:47Z</time>
      </trkpt>
      <trkpt lat="48.41536" lon="7.38356">
        <ele>493.36</ele>
        <time>2021-06-23T12:46:49Z</time>
      </trkpt>
      <trkpt lat="48.41529" lon="7.38356">
        <ele>491.74</ele>
        <time>2021-06-23T12:46:50Z</time>
      </trkpt>
      <trkpt lat="48.4152" lon="7.3836">
        <ele>489.64</ele>
        <time>2021-06-23T12:46:51Z</time>
      </trkpt>
      <trkpt lat="48.4152" lon="7.38346">
        <ele>491.93</ele>
        <time>2021-06-23T12:46:54Z</time>
      </trkpt>
      <trkpt lat="48.4152" lon="7.38346">
        <ele>491.93</ele>
        <time>2021-06-23T12:46:54Z</time>
      </trkpt>
      <trkpt lat="48.4152" lon="7.3836">
        <ele>489.64</ele>
        <time>2021-06-23T12:46:56Z</time>
      </trkpt>
      <trkpt lat="48.41514" lon="7.38377">
        <ele>488.22</ele>
        <time>2021-06-23T12:46:59Z</time>
      </trkpt>
      <trkpt lat="48.41514" lon="7.38429">
        <ele>488.23</ele>
        <time>2021-06-23T12:47:03Z</time>
      </trkpt>
      <trkpt lat="48.4151" lon="7.38465">
        <ele>488.39</ele>
        <time>2021-06-23T12:47:06Z</time>
      </trkpt>
      <trkpt lat="48.41498" lon="7.38509">
        <ele>486.76</ele>
        <time>2021-06-23T12:47:09Z</time>
      </trkpt>
      <trkpt lat="48.41479" lon="7.38556">
        <ele>482.99</ele>
        <time>2021-06-23T12:47:12Z</time>
      </trkpt>
      <trkpt lat="48.41453" lon="7.38616">
        <ele>478.89</ele>
        <time>2021-06-23T12:47:16Z</time>
      </trkpt>
      <trkpt lat="48.41429" lon="7.38691">
        <ele>477.59</ele>
        <time>2021-06-23T12:47:19Z</time>
      </trkpt>
      <trkpt lat="48.41419" lon="7.38712">
        <ele>475.2</ele>
        <time>2021-06-23T12:47:22Z</time>
      </trkpt>
      <trkpt lat="48.4141" lon="7.38726">
        <ele>474.19</ele>
        <time>2021-06-23T12:47:25Z</time>
      </trkpt>
      <trkpt lat="48.41386" lon="7.38755">
        <ele>472.17</ele>
        <time>2021-06-23T12:47:28Z</time>
      </trkpt>
      <trkpt lat="48.41373" lon="7.38785">
        <ele>472.11</ele>
        <time>2021-06-23T12:47:32Z</time>
      </trkpt>
      <trkpt lat="48.41361" lon="7.38821">
        <ele>470.46</ele>
        <time>2021-06-23T12:47:35Z</time>
      </trkpt>
      <trkpt lat="48.41355" lon="7.38845">
        <ele>468.8</ele>
        <time>2021-06-23T12:47:38Z</time>
      </trkpt>
      <trkpt lat="48.41353" lon="7.38864">
        <ele>467.58</ele>
        <time>2021-06-23T12:47:41Z</time>
      </trkpt>
      <trkpt lat="48.41361" lon="7.38971">
        <ele>464.06</ele>
        <time>2021-06-23T12:47:45Z</time>
      </trkpt>
      <trkpt lat="48.41362" lon="7.39003">
        <ele>462.94</ele>
        <time>2021-06-23T12:47:48Z</time>
      </trkpt>
      <trkpt lat="48.4136" lon="7.39034">
        <ele>460.47</ele>
        <time>2021-06-23T12:47:51Z</time>
      </trkpt>
      <trkpt lat="48.41357" lon="7.3907">
        <ele>457.85</ele>
        <time>2021-06-23T12:47:54Z</time>
      </trkpt>
      <trkpt lat="48.4135" lon="7.39099">
        <ele>455.51</ele>
        <time>2021-06-23T12:47:57Z</time>
      </trkpt>
      <trkpt lat="48.41328" lon="7.39165">
        <ele>449.67</ele>
        <time>2021-06-23T12:48:01Z</time>
      </trkpt>
      <trkpt lat="48.41323" lon="7.39192">
        <ele>448.18</ele>
        <time>2021-06-23T12:48:04Z</time>
      </trkpt>
      <trkpt lat="48.41321" lon="7.39224">
        <ele>447.01</ele>
        <time>2021-06-23T12:48:07Z</time>
      </trkpt>
      <trkpt lat="48.41313" lon="7.39261">
        <ele>445.61</ele>
        <time>2021-06-23T12:48:10Z</time>
      </trkpt>
      <trkpt lat="48.41303" lon="7.39286">
        <ele>442.49</ele>
        <time>2021-06-23T12:48:14Z</time>
      </trkpt>
      <trkpt lat="48.41287" lon="7.39312">
        <ele>436.48</ele>
        <time>2021-06-23T12:48:17Z</time>
      </trkpt>
      <trkpt lat="48.41271" lon="7.39345">
        <ele>431.67</ele>
        <time>2021-06-23T12:48:20Z</time>
      </trkpt>
      <trkpt lat="48.41269" lon="7.39361">
        <ele>430.39</ele>
        <time>2021-06-23T12:48:23Z</time>
      </trkpt>
      <trkpt lat="48.41268" lon="7.39441">
        <ele>427.39</ele>
        <time>2021-06-23T12:48:26Z</time>
      </trkpt>
      <trkpt lat="48.41266" lon="7.39461">
        <ele>426.26</ele>
        <time>2021-06-23T12:48:30Z</time>
      </trkpt>
      <trkpt lat="48.4126" lon="7.39481">
        <ele>424.12</ele>
        <time>2021-06-23T12:48:33Z</time>
      </trkpt>
      <trkpt lat="48.41243" lon="7.39518">
        <ele>417.19</ele>
        <time>2021-06-23T12:48:36Z</time>
      </trkpt>
      <trkpt lat="48.4121" lon="7.39574">
        <ele>411.86</ele>
        <time>2021-06-23T12:48:39Z</time>
      </trkpt>
      <trkpt lat="48.41204" lon="7.39587">
        <ele>410.42</ele>
        <time>2021-06-23T12:48:43Z</time>
      </trkpt>
      <trkpt lat="48.412" lon="7.396">
        <ele>409.66</ele>
        <time>2021-06-23T12:48:46Z</time>
      </trkpt>
      <trkpt lat="48.41187" lon="7.39693">
        <ele>406.02</ele>
        <time>2021-06-23T12:48:49Z</time>
      </trkpt>
      <trkpt lat="48.41174" lon="7.39811">
        <ele>402.66</ele>
        <time>2021-06-23T12:48:52Z</time>
      </trkpt>
      <trkpt lat="48.41176" lon="7.3989">
        <ele>396.33</ele>
        <time>2021-06-23T12:48:55Z</time>
      </trkpt>
      <trkpt lat="48.41172" lon="7.39913">
        <ele>393.33</ele>
        <time>2021-06-23T12:48:59Z</time>
      </trkpt>
      <trkpt lat="48.41155" lon="7.39969">
        <ele>390.56</ele>
        <time>2021-06-23T12:49:02Z</time>
      </trkpt>
      <trkpt lat="48.41146" lon="7.39988">
        <ele>390.04</ele>
        <time>2021-06-23T12:49:05Z</time>
      </trkpt>
      <trkpt lat="48.41135" lon="7.40002">
        <ele>388.12</ele>
        <time>2021-06-23T12:49:08Z</time>
      </trkpt>
      <trkpt lat="48.41036" lon="7.40102">
        <ele>374.49</ele>
        <time>2021-06-23T12:49:12Z</time>
      </trkpt>
      <trkpt lat="48.41025" lon="7.40119">
        <ele>374.27</ele>
        <time>2021-06-23T12:49:15Z</time>
      </trkpt>
      <trkpt lat="48.41014" lon="7.40145">
        <ele>374.91</ele>
        <time>2021-06-23T12:49:18Z</time>
      </trkpt>
      <trkpt lat="48.41007" lon="7.40174">
        <ele>373.88</ele>
        <time>2021-06-23T12:49:21Z</time>
      </trkpt>
      <trkpt lat="48.41003" lon="7.40206">
        <ele>369.46</ele>
        <time>2021-06-23T12:49:25Z</time>
      </trkpt>
      <trkpt lat="48.41003" lon="7.40233">
        <ele>366.34</ele>
        <time>2021-06-23T12:49:28Z</time>
      </trkpt>
      <trkpt lat="48.41007" lon="7.40259">
        <ele>365.92</ele>
        <time>2021-06-23T12:49:31Z</time>
      </trkpt>
      <trkpt lat="48.41024" lon="7.40328">
        <ele>364.5</ele>
        <time>2021-06-23T12:49:34Z</time>
      </trkpt>
      <trkpt lat="48.41027" lon="7.40345">
        <ele>361.52</ele>
        <time>2021-06-23T12:49:37Z</time>
      </trkpt>
      <trkpt lat="48.41027" lon="7.40374">
        <ele>356.02</ele>
        <time>2021-06-23T12:49:41Z</time>
      </trkpt>
      <trkpt lat="48.41021" lon="7.40398">
        <ele>352.22</ele>
        <time>2021-06-23T12:49:44Z</time>
      </trkpt>
      <trkpt lat="48.41017" lon="7.40407">
        <ele>350.87</ele>
        <time>2021-06-23T12:49:47Z</time>
      </trkpt>
      <trkpt lat="48.41002" lon="7.4043">
        <ele>346.76</ele>
        <time>2021-06-23T12:49:50Z</time>
      </trkpt>
      <trkpt lat="48.40932" lon="7.40522">
        <ele>341.17</ele>
        <time>2021-06-23T12:49:54Z</time>
      </trkpt>
      <trkpt lat="48.40887" lon="7.40589">
        <ele>341.89</ele>
        <time>2021-06-23T12:49:57Z</time>
      </trkpt>
      <trkpt lat="48.40865" lon="7.40625">
        <ele>338.16</ele>
        <time>2021-06-23T12:50:00Z</time>
      </trkpt>
      <trkpt lat="48.4085" lon="7.40659">
        <ele>333.66</ele>
        <time>2021-06-23T12:50:03Z</time>
      </trkpt>
      <trkpt lat="48.40838" lon="7.40701">
        <ele>331.87</ele>
        <time>2021-06-23T12:50:06Z</time>
      </trkpt>
      <trkpt lat="48.40831" lon="7.40737">
        <ele>331.8</ele>
        <time>2021-06-23T12:50:10Z</time>
      </trkpt>
      <trkpt lat="48.40829" lon="7.40766">
        <ele>330.6</ele>
        <time>2021-06-23T12:50:13Z</time>
      </trkpt>
      <trkpt lat="48.40822" lon="7.4114">
        <ele>316.62</ele>
        <time>2021-06-23T12:50:16Z</time>
      </trkpt>
      <trkpt lat="48.40816" lon="7.41197">
        <ele>311.44</ele>
        <time>2021-06-23T12:50:19Z</time>
      </trkpt>
      <trkpt lat="48.40807" lon="7.41228">
        <ele>305.76</ele>
        <time>2021-06-23T12:50:23Z</time>
      </trkpt>
      <trkpt lat="48.40752" lon="7.41387">
        <ele>302.69</ele>
        <time>2021-06-23T12:50:26Z</time>
      </trkpt>
      <trkpt lat="48.40739" lon="7.41449">
        <ele>299.24</ele>
        <time>2021-06-23T12:50:29Z</time>
      </trkpt>
      <trkpt lat="48.40704" lon="7.41562">
        <ele>293.79</ele>
        <time>2021-06-23T12:50:32Z</time>
      </trkpt>
      <trkpt lat="48.40693" lon="7.41604">
        <ele>288.27</ele>
        <time>2021-06-23T12:50:35Z</time>
      </trkpt>
      <trkpt lat="48.40686" lon="7.41637">
        <ele>285.67</ele>
        <time>2021-06-23T12:50:39Z</time>
      </trkpt>
      <trkpt lat="48.40683" lon="7.41661">
        <ele>284.7</ele>
        <time>2021-06-23T12:50:42Z</time>
      </trkpt>
      <trkpt lat="48.40678" lon="7.41737">
        <ele>280.98</ele>
        <time>2021-06-23T12:50:45Z</time>
      </trkpt>
      <trkpt lat="48.40674" lon="7.41768">
        <ele>279.73</ele>
        <time>2021-06-23T12:50:48Z</time>
      </trkpt>
      <trkpt lat="48.40663" lon="7.41817">
        <ele>277.52</ele>
        <time>2021-06-23T12:50:52Z</time>
      </trkpt>
      <trkpt lat="48.40584" lon="7.42104">
        <ele>266.28</ele>
        <time>2021-06-23T12:50:55Z</time>
      </trkpt>
      <trkpt lat="48.4057" lon="7.42168">
        <ele>264.02</ele>
        <time>2021-06-23T12:50:58Z</time>
      </trkpt>
      <trkpt lat="48.40551" lon="7.42288">
        <ele>263.81</ele>
        <time>2021-06-23T12:51:01Z</time>
      </trkpt>
      <trkpt lat="48.40548" lon="7.42317">
        <ele>264.46</ele>
        <time>2021-06-23T12:51:04Z</time>
      </trkpt>
      <trkpt lat="48.40549" lon="7.42474">
        <ele>260.88</ele>
        <time>2021-06-23T12:51:08Z</time>
      </trkpt>
      <trkpt lat="48.40546" lon="7.42528">
        <ele>258.27</ele>
        <time>2021-06-23T12:51:11Z</time>
      </trkpt>
      <trkpt lat="48.40536" lon="7.42565">
        <ele>256.27</ele>
        <time>2021-06-23T12:51:14Z</time>
      </trkpt>
      <trkpt lat="48.4051" lon="7.42637">
        <ele>252.12</ele>
        <time>2021-06-23T12:51:17Z</time>
      </trkpt>
      <trkpt lat="48.40497" lon="7.4267">
        <ele>250.66</ele>
        <time>2021-06-23T12:51:21Z</time>
      </trkpt>
      <trkpt lat="48.40488" lon="7.42702">
        <ele>249.67</ele>
        <time>2021-06-23T12:51:24Z</time>
      </trkpt>
      <trkpt lat="48.40485" lon="7.42721">
        <ele>249.36</ele>
        <time>2021-06-23T12:51:27Z</time>
      </trkpt>
      <trkpt lat="48.40483" lon="7.4275">
        <ele>248.77</ele>
        <time>2021-06-23T12:51:30Z</time>
      </trkpt>
      <trkpt lat="48.40486" lon="7.42783">
        <ele>247.79</ele>
        <time>2021-06-23T12:51:34Z</time>
      </trkpt>
      <trkpt lat="48.40506" lon="7.42875">
        <ele>247.91</ele>
        <time>2021-06-23T12:51:37Z</time>
      </trkpt>
      <trkpt lat="48.40514" lon="7.42949">
        <ele>242.23</ele>
        <time>2021-06-23T12:51:40Z</time>
      </trkpt>
      <trkpt lat="48.40525" lon="7.43019">
        <ele>242.31</ele>
        <time>2021-06-23T12:51:43Z</time>
      </trkpt>
      <trkpt lat="48.40539" lon="7.43081">
        <ele>244.01</ele>
        <time>2021-06-23T12:51:46Z</time>
      </trkpt>
      <trkpt lat="48.40552" lon="7.43133">
        <ele>243.94</ele>
        <time>2021-06-23T12:51:50Z</time>
      </trkpt>
      <trkpt lat="48.4056" lon="7.43185">
        <ele>242.87</ele>
        <time>2021-06-23T12:51:53Z</time>
      </trkpt>
      <trkpt lat="48.40581" lon="7.43408">
        <ele>237.9</ele>
        <time>2021-06-23T12:51:56Z</time>
      </trkpt>
      <trkpt lat="48.40581" lon="7.4345">
        <ele>236.57</ele>
        <time>2021-06-23T12:51:59Z</time>
      </trkpt>
      <trkpt lat="48.40575" lon="7.43506">
        <ele>235.64</ele>
        <time>2021-06-23T12:52:03Z</time>
      </trkpt>
      <trkpt lat="48.4058" lon="7.43596">
        <ele>231.25</ele>
        <time>2021-06-23T12:52:06Z</time>
      </trkpt>
      <trkpt lat="48.4058" lon="7.43616">
        <ele>229.5</ele>
        <time>2021-06-23T12:52:09Z</time>
      </trkpt>
      <trkpt lat="48.40576" lon="7.43647">
        <ele>228.32</ele>
        <time>2021-06-23T12:52:12Z</time>
      </trkpt>
      <trkpt lat="48.40576" lon="7.43662">
        <ele>228.43</ele>
        <time>2021-06-23T12:52:15Z</time>
      </trkpt>
      <trkpt lat="48.40592" lon="7.43744">
        <ele>229.14</ele>
        <time>2021-06-23T12:52:19Z</time>
      </trkpt>
      <trkpt lat="48.40609" lon="7.43804">
        <ele>225.76</ele>
        <time>2021-06-23T12:52:22Z</time>
      </trkpt>
      <trkpt lat="48.40616" lon="7.43846">
        <ele>224.2</ele>
        <time>2021-06-23T12:52:25Z</time>
      </trkpt>
      <trkpt lat="48.40626" lon="7.43923">
        <ele>222.47</ele>
        <time>2021-06-23T12:52:28Z</time>
      </trkpt>
      <trkpt lat="48.40643" lon="7.43972">
        <ele>220.05</ele>
        <time>2021-06-23T12:52:32Z</time>
      </trkpt>
      <trkpt lat="48.40643" lon="7.43982">
        <ele>219.37</ele>
        <time>2021-06-23T12:52:35Z</time>
      </trkpt>
      <trkpt lat="48.4065" lon="7.43989">
        <ele>219.02</ele>
        <time>2021-06-23T12:52:41Z</time>
      </trkpt>
      <trkpt lat="48.40654" lon="7.43999">
        <ele>218.6</ele>
        <time>2021-06-23T12:52:47Z</time>
      </trkpt>
      <trkpt lat="48.40665" lon="7.44063">
        <ele>218</ele>
        <time>2021-06-23T12:52:54Z</time>
      </trkpt>
      <trkpt lat="48.40689" lon="7.44143">
        <ele>216.78</ele>
        <time>2021-06-23T12:53:00Z</time>
      </trkpt>
      <trkpt lat="48.40695" lon="7.44179">
        <ele>217.09</ele>
        <time>2021-06-23T12:53:06Z</time>
      </trkpt>
      <trkpt lat="48.40695" lon="7.44209">
        <ele>217.05</ele>
        <time>2021-06-23T12:53:12Z</time>
      </trkpt>
      <trkpt lat="48.40695" lon="7.44209">
        <ele>217.05</ele>
        <time>2021-06-23T12:53:12Z</time>
      </trkpt>
      <trkpt lat="48.40694" lon="7.44225">
        <ele>216.92</ele>
        <time>2021-06-23T12:53:22Z</time>
      </trkpt>
      <trkpt lat="48.40655" lon="7.44417">
        <ele>213.4</ele>
        <time>2021-06-23T12:53:32Z</time>
      </trkpt>
      <trkpt lat="48.40653" lon="7.44446">
        <ele>213.43</ele>
        <time>2021-06-23T12:53:42Z</time>
      </trkpt>
      <trkpt lat="48.40654" lon="7.44463">
        <ele>212.79</ele>
        <time>2021-06-23T12:53:52Z</time>
      </trkpt>
      <trkpt lat="48.40667" lon="7.44526">
        <ele>210.59</ele>
        <time>2021-06-23T12:54:03Z</time>
      </trkpt>
      <trkpt lat="48.40667" lon="7.44526">
        <ele>210.59</ele>
        <time>2021-06-23T12:54:03Z</time>
      </trkpt>
      <trkpt lat="48.40675" lon="7.44576">
        <ele>210</ele>
        <time>2021-06-23T12:54:11Z</time>
      </trkpt>
      <trkpt lat="48.40684" lon="7.44612">
        <ele>210.34</ele>
        <time>2021-06-23T12:54:20Z</time>
      </trkpt>
      <trkpt lat="48.40688" lon="7.44634">
        <ele>209.43</ele>
        <time>2021-06-23T12:54:29Z</time>
      </trkpt>
      <trkpt lat="48.4069" lon="7.44693">
        <ele>207.41</ele>
        <time>2021-06-23T12:54:38Z</time>
      </trkpt>
      <trkpt lat="48.40697" lon="7.44767">
        <ele>208.43</ele>
        <time>2021-06-23T12:54:47Z</time>
      </trkpt>
      <trkpt lat="48.40711" lon="7.44823">
        <ele>209.41</ele>
        <time>2021-06-23T12:54:56Z</time>
      </trkpt>
      <trkpt lat="48.40737" lon="7.44889">
        <ele>208.48</ele>
        <time>2021-06-23T12:55:05Z</time>
      </trkpt>
      <trkpt lat="48.40785" lon="7.44872">
        <ele>208.35</ele>
        <time>2021-06-23T12:55:13Z</time>
      </trkpt>
      <trkpt lat="48.4084" lon="7.44878">
        <ele>211.55</ele>
        <time>2021-06-23T12:55:22Z</time>
      </trkpt>
      <trkpt lat="48.40844" lon="7.44881">
        <ele>211.87</ele>
        <time>2021-06-23T12:55:30Z</time>
      </trkpt>
      <trkpt lat="48.40849" lon="7.44911">
        <ele>211.68</ele>
        <time>2021-06-23T12:55:37Z</time>
      </trkpt>
      <trkpt lat="48.40866" lon="7.44966">
        <ele>212.16</ele>
        <time>2021-06-23T12:55:44Z</time>
      </trkpt>
      <trkpt lat="48.40916" lon="7.44989">
        <ele>213.6</ele>
        <time>2021-06-23T12:55:52Z</time>
      </trkpt>
      <trkpt lat="48.40921" lon="7.44993">
        <ele>213.79</ele>
        <time>2021-06-23T12:56:00Z</time>
      </trkpt>
      <trkpt lat="48.40934" lon="7.45018">
        <ele>214.41</ele>
        <time>2021-06-23T12:56:07Z</time>
      </trkpt>
      <trkpt lat="48.40984" lon="7.45074">
        <ele>216.79</ele>
        <time>2021-06-23T12:56:15Z</time>
      </trkpt>
      <trkpt lat="48.41003" lon="7.45099">
        <ele>215.81</ele>
        <time>2021-06-23T12:56:23Z</time>
      </trkpt>
      <trkpt lat="48.41003" lon="7.45099">
        <ele>215.81</ele>
        <time>2021-06-23T12:56:23Z</time>
      </trkpt>
      <trkpt lat="48.41009" lon="7.45106">
        <ele>214.82</ele>
        <time>2021-06-23T12:56:26Z</time>
      </trkpt>
      <trkpt lat="48.41052" lon="7.45192">
        <ele>214.6</ele>
        <time>2021-06-23T12:56:30Z</time>
      </trkpt>
      <trkpt lat="48.4106" lon="7.45204">
        <ele>214.94</ele>
        <time>2021-06-23T12:56:33Z</time>
      </trkpt>
      <trkpt lat="48.4107" lon="7.45212">
        <ele>215.08</ele>
        <time>2021-06-23T12:56:37Z</time>
      </trkpt>
      <trkpt lat="48.41068" lon="7.45219">
        <ele>214.62</ele>
        <time>2021-06-23T12:56:38Z</time>
      </trkpt>
      <trkpt lat="48.41068" lon="7.45226">
        <ele>214.27</ele>
        <time>2021-06-23T12:56:40Z</time>
      </trkpt>
      <trkpt lat="48.41083" lon="7.45258">
        <ele>212.7</ele>
        <time>2021-06-23T12:56:42Z</time>
      </trkpt>
      <trkpt lat="48.41094" lon="7.45288">
        <ele>212.1</ele>
        <time>2021-06-23T12:56:44Z</time>
      </trkpt>
      <trkpt lat="48.41094" lon="7.45301">
        <ele>211.27</ele>
        <time>2021-06-23T12:56:45Z</time>
      </trkpt>
      <trkpt lat="48.41083" lon="7.45328">
        <ele>208.55</ele>
        <time>2021-06-23T12:56:54Z</time>
      </trkpt>
      <trkpt lat="48.41074" lon="7.45359">
        <ele>206.74</ele>
        <time>2021-06-23T12:57:02Z</time>
      </trkpt>
      <trkpt lat="48.41064" lon="7.45461">
        <ele>197.95</ele>
        <time>2021-06-23T12:57:10Z</time>
      </trkpt>
      <trkpt lat="48.41057" lon="7.45543">
        <ele>196.3</ele>
        <time>2021-06-23T12:57:18Z</time>
      </trkpt>
      <trkpt lat="48.41052" lon="7.4555">
        <ele>196.2</ele>
        <time>2021-06-23T12:57:26Z</time>
      </trkpt>
      <trkpt lat="48.41044" lon="7.45551">
        <ele>196.17</ele>
        <time>2021-06-23T12:57:34Z</time>
      </trkpt>
      <trkpt lat="48.41036" lon="7.45545">
        <ele>196.38</ele>
        <time>2021-06-23T12:57:43Z</time>
      </trkpt>
      <trkpt lat="48.40956" lon="7.45473">
        <ele>197.43</ele>
        <time>2021-06-23T12:57:52Z</time>
      </trkpt>
      <trkpt lat="48.40894" lon="7.45414">
        <ele>195.18</ele>
        <time>2021-06-23T12:58:01Z</time>
      </trkpt>
      <trkpt lat="48.40845" lon="7.45354">
        <ele>195.25</ele>
        <time>2021-06-23T12:58:10Z</time>
      </trkpt>
      <trkpt lat="48.40841" lon="7.45354">
        <ele>195.26</ele>
        <time>2021-06-23T12:58:19Z</time>
      </trkpt>
      <trkpt lat="48.40838" lon="7.45356">
        <ele>195.17</ele>
        <time>2021-06-23T12:58:27Z</time>
      </trkpt>
      <trkpt lat="48.4081" lon="7.45388">
        <ele>196.83</ele>
        <time>2021-06-23T12:58:36Z</time>
      </trkpt>
      <trkpt lat="48.40761" lon="7.45426">
        <ele>200.35</ele>
        <time>2021-06-23T12:58:45Z</time>
      </trkpt>
      <trkpt lat="48.40758" lon="7.45415">
        <ele>200.88</ele>
        <time>2021-06-23T12:58:51Z</time>
      </trkpt>
      <trkpt lat="48.40727" lon="7.45342">
        <ele>205.25</ele>
        <time>2021-06-23T12:58:57Z</time>
      </trkpt>
      <trkpt lat="48.40717" lon="7.45326">
        <ele>204.79</ele>
        <time>2021-06-23T12:59:03Z</time>
      </trkpt>
      <trkpt lat="48.40712" lon="7.45326">
        <ele>204.62</ele>
        <time>2021-06-23T12:59:09Z</time>
      </trkpt>
      <trkpt lat="48.40705" lon="7.45331">
        <ele>204.37</ele>
        <time>2021-06-23T12:59:15Z</time>
      </trkpt>
      <trkpt lat="48.40677" lon="7.45367">
        <ele>202.54</ele>
        <time>2021-06-23T12:59:21Z</time>
      </trkpt>
      <trkpt lat="48.40676" lon="7.45379">
        <ele>202.01</ele>
        <time>2021-06-23T12:59:28Z</time>
      </trkpt>
      <trkpt lat="48.40675" lon="7.45449">
        <ele>200.65</ele>
        <time>2021-06-23T12:59:36Z</time>
      </trkpt>
      <trkpt lat="48.40672" lon="7.4547">
        <ele>200.94</ele>
        <time>2021-06-23T12:59:43Z</time>
      </trkpt>
      <trkpt lat="48.4066" lon="7.45487">
        <ele>201.23</ele>
        <time>2021-06-23T12:59:50Z</time>
      </trkpt>
      <trkpt lat="48.40536" lon="7.45582">
        <ele>202</ele>
        <time>2021-06-23T12:59:57Z</time>
      </trkpt>
      <trkpt lat="48.40531" lon="7.45575">
        <ele>202</ele>
        <time>2021-06-23T13:00:01Z</time>
      </trkpt>
      <trkpt lat="48.40524" lon="7.45573">
        <ele>202.05</ele>
        <time>2021-06-23T13:00:04Z</time>
      </trkpt>
      <trkpt lat="48.40518" lon="7.45579">
        <ele>202.06</ele>
        <time>2021-06-23T13:00:07Z</time>
      </trkpt>
      <trkpt lat="48.40516" lon="7.45591">
        <ele>202.11</ele>
        <time>2021-06-23T13:00:10Z</time>
      </trkpt>
      <trkpt lat="48.40491" lon="7.45595">
        <ele>202.93</ele>
        <time>2021-06-23T13:00:13Z</time>
      </trkpt>
      <trkpt lat="48.40463" lon="7.45598">
        <ele>204.35</ele>
        <time>2021-06-23T13:00:16Z</time>
      </trkpt>
      <trkpt lat="48.40393" lon="7.4559">
        <ele>205.25</ele>
        <time>2021-06-23T13:00:20Z</time>
      </trkpt>
      <trkpt lat="48.40362" lon="7.45585">
        <ele>204.04</ele>
        <time>2021-06-23T13:00:23Z</time>
      </trkpt>
      <trkpt lat="48.4031" lon="7.45581">
        <ele>203.18</ele>
        <time>2021-06-23T13:00:26Z</time>
      </trkpt>
      <trkpt lat="48.40247" lon="7.45586">
        <ele>206.81</ele>
        <time>2021-06-23T13:00:29Z</time>
      </trkpt>
      <trkpt lat="48.40223" lon="7.45584">
        <ele>206.9</ele>
        <time>2021-06-23T13:00:32Z</time>
      </trkpt>
      <trkpt lat="48.40177" lon="7.45575">
        <ele>202.45</ele>
        <time>2021-06-23T13:00:36Z</time>
      </trkpt>
      <trkpt lat="48.40142" lon="7.45566">
        <ele>201.7</ele>
        <time>2021-06-23T13:00:39Z</time>
      </trkpt>
      <trkpt lat="48.40094" lon="7.45562">
        <ele>204.11</ele>
        <time>2021-06-23T13:00:42Z</time>
      </trkpt>
      <trkpt lat="48.40079" lon="7.45554">
        <ele>204.85</ele>
        <time>2021-06-23T13:00:45Z</time>
      </trkpt>
      <trkpt lat="48.40065" lon="7.45534">
        <ele>204.84</ele>
        <time>2021-06-23T13:00:48Z</time>
      </trkpt>
      <trkpt lat="48.40044" lon="7.45488">
        <ele>204.2</ele>
        <time>2021-06-23T13:00:52Z</time>
      </trkpt>
      <trkpt lat="48.40026" lon="7.45453">
        <ele>204.38</ele>
        <time>2021-06-23T13:00:55Z</time>
      </trkpt>
      <trkpt lat="48.40016" lon="7.45439">
        <ele>204.8</ele>
        <time>2021-06-23T13:00:58Z</time>
      </trkpt>
      <trkpt lat="48.39978" lon="7.45395">
        <ele>205</ele>
        <time>2021-06-23T13:01:01Z</time>
      </trkpt>
      <trkpt lat="48.39853" lon="7.45268">
        <ele>205.24</ele>
        <time>2021-06-23T13:01:04Z</time>
      </trkpt>
      <trkpt lat="48.39752" lon="7.4516">
        <ele>204.14</ele>
        <time>2021-06-23T13:01:07Z</time>
      </trkpt>
      <trkpt lat="48.39698" lon="7.45094">
        <ele>203.95</ele>
        <time>2021-06-23T13:01:11Z</time>
      </trkpt>
      <trkpt lat="48.3969" lon="7.45088">
        <ele>204</ele>
        <time>2021-06-23T13:01:14Z</time>
      </trkpt>
      <trkpt lat="48.3968" lon="7.45088">
        <ele>204</ele>
        <time>2021-06-23T13:01:17Z</time>
      </trkpt>
      <trkpt lat="48.39663" lon="7.45113">
        <ele>204</ele>
        <time>2021-06-23T13:01:20Z</time>
      </trkpt>
      <trkpt lat="48.39656" lon="7.4512">
        <ele>204</ele>
        <time>2021-06-23T13:01:23Z</time>
      </trkpt>
      <trkpt lat="48.39643" lon="7.45129">
        <ele>204</ele>
        <time>2021-06-23T13:01:27Z</time>
      </trkpt>
      <trkpt lat="48.39586" lon="7.45157">
        <ele>202.41</ele>
        <time>2021-06-23T13:01:30Z</time>
      </trkpt>
      <trkpt lat="48.39555" lon="7.4517">
        <ele>201.76</ele>
        <time>2021-06-23T13:01:33Z</time>
      </trkpt>
      <trkpt lat="48.39537" lon="7.45174">
        <ele>200.97</ele>
        <time>2021-06-23T13:01:36Z</time>
      </trkpt>
      <trkpt lat="48.39521" lon="7.45176">
        <ele>200.67</ele>
        <time>2021-06-23T13:01:39Z</time>
      </trkpt>
      <trkpt lat="48.39508" lon="7.45172">
        <ele>200.8</ele>
        <time>2021-06-23T13:01:43Z</time>
      </trkpt>
      <trkpt lat="48.39499" lon="7.45166">
        <ele>201.03</ele>
        <time>2021-06-23T13:01:46Z</time>
      </trkpt>
      <trkpt lat="48.39461" lon="7.45112">
        <ele>200.02</ele>
        <time>2021-06-23T13:01:49Z</time>
      </trkpt>
      <trkpt lat="48.39443" lon="7.45095">
        <ele>200.03</ele>
        <time>2021-06-23T13:01:52Z</time>
      </trkpt>
      <trkpt lat="48.39379" lon="7.45048">
        <ele>199.91</ele>
        <time>2021-06-23T13:01:55Z</time>
      </trkpt>
      <trkpt lat="48.39286" lon="7.44991">
        <ele>200.65</ele>
        <time>2021-06-23T13:01:58Z</time>
      </trkpt>
      <trkpt lat="48.39254" lon="7.44961">
        <ele>200.5</ele>
        <time>2021-06-23T13:02:02Z</time>
      </trkpt>
      <trkpt lat="48.3924" lon="7.4494">
        <ele>200.22</ele>
        <time>2021-06-23T13:02:05Z</time>
      </trkpt>
      <trkpt lat="48.39233" lon="7.44919">
        <ele>199.98</ele>
        <time>2021-06-23T13:02:08Z</time>
      </trkpt>
      <trkpt lat="48.39224" lon="7.44868">
        <ele>200.03</ele>
        <time>2021-06-23T13:02:11Z</time>
      </trkpt>
      <trkpt lat="48.39215" lon="7.44845">
        <ele>200.59</ele>
        <time>2021-06-23T13:02:14Z</time>
      </trkpt>
      <trkpt lat="48.39167" lon="7.44779">
        <ele>200</ele>
        <time>2021-06-23T13:02:18Z</time>
      </trkpt>
      <trkpt lat="48.39149" lon="7.44748">
        <ele>199.38</ele>
        <time>2021-06-23T13:02:21Z</time>
      </trkpt>
      <trkpt lat="48.39135" lon="7.44716">
        <ele>199</ele>
        <time>2021-06-23T13:02:24Z</time>
      </trkpt>
      <trkpt lat="48.39118" lon="7.44673">
        <ele>199.57</ele>
        <time>2021-06-23T13:02:27Z</time>
      </trkpt>
      <trkpt lat="48.39103" lon="7.4464">
        <ele>200.01</ele>
        <time>2021-06-23T13:02:30Z</time>
      </trkpt>
      <trkpt lat="48.39107" lon="7.44632">
        <ele>200</ele>
        <time>2021-06-23T13:02:35Z</time>
      </trkpt>
      <trkpt lat="48.39109" lon="7.44623">
        <ele>200</ele>
        <time>2021-06-23T13:02:40Z</time>
      </trkpt>
      <trkpt lat="48.39108" lon="7.44615">
        <ele>200</ele>
        <time>2021-06-23T13:02:44Z</time>
      </trkpt>
      <trkpt lat="48.39106" lon="7.44608">
        <ele>199.91</ele>
        <time>2021-06-23T13:02:49Z</time>
      </trkpt>
      <trkpt lat="48.39102" lon="7.44603">
        <ele>199.8</ele>
        <time>2021-06-23T13:02:53Z</time>
      </trkpt>
      <trkpt lat="48.39097" lon="7.446">
        <ele>199.8</ele>
        <time>2021-06-23T13:02:58Z</time>
      </trkpt>
      <trkpt lat="48.39115" lon="7.44518">
        <ele>199.35</ele>
        <time>2021-06-23T13:03:02Z</time>
      </trkpt>
      <trkpt lat="48.39169" lon="7.44321">
        <ele>203.79</ele>
        <time>2021-06-23T13:03:07Z</time>
      </trkpt>
      <trkpt lat="48.39176" lon="7.44283">
        <ele>203.69</ele>
        <time>2021-06-23T13:03:12Z</time>
      </trkpt>
      <trkpt lat="48.39176" lon="7.44243">
        <ele>204.49</ele>
        <time>2021-06-23T13:03:16Z</time>
      </trkpt>
      <trkpt lat="48.39158" lon="7.44116">
        <ele>205.36</ele>
        <time>2021-06-23T13:03:21Z</time>
      </trkpt>
      <trkpt lat="48.39157" lon="7.44077">
        <ele>205.02</ele>
        <time>2021-06-23T13:03:25Z</time>
      </trkpt>
      <trkpt lat="48.39161" lon="7.43988">
        <ele>208.3</ele>
        <time>2021-06-23T13:03:30Z</time>
      </trkpt>
      <trkpt lat="48.39161" lon="7.43951">
        <ele>209</ele>
        <time>2021-06-23T13:03:34Z</time>
      </trkpt>
      <trkpt lat="48.39148" lon="7.43819">
        <ele>209.14</ele>
        <time>2021-06-23T13:03:39Z</time>
      </trkpt>
      <trkpt lat="48.39141" lon="7.4379">
        <ele>209.75</ele>
        <time>2021-06-23T13:03:44Z</time>
      </trkpt>
      <trkpt lat="48.39117" lon="7.43714">
        <ele>211.21</ele>
        <time>2021-06-23T13:03:48Z</time>
      </trkpt>
      <trkpt lat="48.39106" lon="7.43675">
        <ele>210.88</ele>
        <time>2021-06-23T13:03:53Z</time>
      </trkpt>
      <trkpt lat="48.39073" lon="7.4343">
        <ele>219.63</ele>
        <time>2021-06-23T13:03:57Z</time>
      </trkpt>
      <trkpt lat="48.39049" lon="7.43266">
        <ele>227.78</ele>
        <time>2021-06-23T13:04:02Z</time>
      </trkpt>
      <trkpt lat="48.39028" lon="7.43159">
        <ele>231.26</ele>
        <time>2021-06-23T13:04:06Z</time>
      </trkpt>
      <trkpt lat="48.39024" lon="7.43129">
        <ele>232.01</ele>
        <time>2021-06-23T13:04:11Z</time>
      </trkpt>
      <trkpt lat="48.39019" lon="7.43041">
        <ele>237.91</ele>
        <time>2021-06-23T13:04:16Z</time>
      </trkpt>
      <trkpt lat="48.39007" lon="7.4286">
        <ele>242.19</ele>
        <time>2021-06-23T13:04:20Z</time>
      </trkpt>
      <trkpt lat="48.39004" lon="7.42831">
        <ele>241.74</ele>
        <time>2021-06-23T13:04:25Z</time>
      </trkpt>
      <trkpt lat="48.38992" lon="7.42774">
        <ele>243.65</ele>
        <time>2021-06-23T13:04:29Z</time>
      </trkpt>
      <trkpt lat="48.38984" lon="7.42749">
        <ele>246.26</ele>
        <time>2021-06-23T13:04:34Z</time>
      </trkpt>
      <trkpt lat="48.38949" lon="7.42661">
        <ele>243.81</ele>
        <time>2021-06-23T13:04:38Z</time>
      </trkpt>
      <trkpt lat="48.38899" lon="7.42449">
        <ele>244.07</ele>
        <time>2021-06-23T13:04:43Z</time>
      </trkpt>
      <trkpt lat="48.38879" lon="7.42373">
        <ele>240.32</ele>
        <time>2021-06-23T13:04:48Z</time>
      </trkpt>
      <trkpt lat="48.38847" lon="7.42267">
        <ele>233.65</ele>
        <time>2021-06-23T13:04:52Z</time>
      </trkpt>
      <trkpt lat="48.38829" lon="7.42217">
        <ele>233.74</ele>
        <time>2021-06-23T13:04:57Z</time>
      </trkpt>
      <trkpt lat="48.38776" lon="7.42075">
        <ele>232.16</ele>
        <time>2021-06-23T13:05:01Z</time>
      </trkpt>
      <trkpt lat="48.38758" lon="7.42041">
        <ele>230.15</ele>
        <time>2021-06-23T13:05:06Z</time>
      </trkpt>
      <trkpt lat="48.38746" lon="7.42023">
        <ele>227.87</ele>
        <time>2021-06-23T13:05:10Z</time>
      </trkpt>
      <trkpt lat="48.38683" lon="7.4195">
        <ele>225.6</ele>
        <time>2021-06-23T13:05:15Z</time>
      </trkpt>
      <trkpt lat="48.38653" lon="7.41921">
        <ele>224.08</ele>
        <time>2021-06-23T13:05:20Z</time>
      </trkpt>
      <trkpt lat="48.38625" lon="7.4189">
        <ele>226.43</ele>
        <time>2021-06-23T13:05:24Z</time>
      </trkpt>
      <trkpt lat="48.3862" lon="7.41882">
        <ele>227.16</ele>
        <time>2021-06-23T13:05:29Z</time>
      </trkpt>
      <trkpt lat="48.3861" lon="7.41852">
        <ele>229.37</ele>
        <time>2021-06-23T13:05:33Z</time>
      </trkpt>
      <trkpt lat="48.38609" lon="7.418">
        <ele>229.93</ele>
        <time>2021-06-23T13:05:38Z</time>
      </trkpt>
      <trkpt lat="48.38597" lon="7.41777">
        <ele>230.02</ele>
        <time>2021-06-23T13:05:42Z</time>
      </trkpt>
      <trkpt lat="48.38586" lon="7.41759">
        <ele>230.6</ele>
        <time>2021-06-23T13:05:46Z</time>
      </trkpt>
      <trkpt lat="48.38567" lon="7.4174">
        <ele>230.02</ele>
        <time>2021-06-23T13:05:50Z</time>
      </trkpt>
      <trkpt lat="48.38551" lon="7.41732">
        <ele>229.64</ele>
        <time>2021-06-23T13:05:53Z</time>
      </trkpt>
      <trkpt lat="48.38528" lon="7.41726">
        <ele>229.85</ele>
        <time>2021-06-23T13:05:57Z</time>
      </trkpt>
      <trkpt lat="48.38513" lon="7.41719">
        <ele>230.71</ele>
        <time>2021-06-23T13:06:01Z</time>
      </trkpt>
      <trkpt lat="48.3851" lon="7.41716">
        <ele>231.37</ele>
        <time>2021-06-23T13:06:05Z</time>
      </trkpt>
      <trkpt lat="48.3851" lon="7.41716">
        <ele>231.37</ele>
        <time>2021-06-23T13:06:05Z</time>
      </trkpt>
      <trkpt lat="48.38502" lon="7.41707">
        <ele>232.02</ele>
        <time>2021-06-23T13:06:09Z</time>
      </trkpt>
      <trkpt lat="48.38486" lon="7.41698">
        <ele>234.28</ele>
        <time>2021-06-23T13:06:14Z</time>
      </trkpt>
      <trkpt lat="48.3848" lon="7.417">
        <ele>234.75</ele>
        <time>2021-06-23T13:06:18Z</time>
      </trkpt>
      <trkpt lat="48.38472" lon="7.41707">
        <ele>235.14</ele>
        <time>2021-06-23T13:06:22Z</time>
      </trkpt>
      <trkpt lat="48.38464" lon="7.41721">
        <ele>235.6</ele>
        <time>2021-06-23T13:06:27Z</time>
      </trkpt>
      <trkpt lat="48.38435" lon="7.41772">
        <ele>239.15</ele>
        <time>2021-06-23T13:06:31Z</time>
      </trkpt>
      <trkpt lat="48.38392" lon="7.41827">
        <ele>239.47</ele>
        <time>2021-06-23T13:06:36Z</time>
      </trkpt>
      <trkpt lat="48.38385" lon="7.41842">
        <ele>239.82</ele>
        <time>2021-06-23T13:06:40Z</time>
      </trkpt>
      <trkpt lat="48.38357" lon="7.41912">
        <ele>237.8</ele>
        <time>2021-06-23T13:06:44Z</time>
      </trkpt>
      <trkpt lat="48.38293" lon="7.42173">
        <ele>228.65</ele>
        <time>2021-06-23T13:06:49Z</time>
      </trkpt>
      <trkpt lat="48.38283" lon="7.42216">
        <ele>228.53</ele>
        <time>2021-06-23T13:06:53Z</time>
      </trkpt>
      <trkpt lat="48.38279" lon="7.42242">
        <ele>229.52</ele>
        <time>2021-06-23T13:06:57Z</time>
      </trkpt>
      <trkpt lat="48.38278" lon="7.42284">
        <ele>229.77</ele>
        <time>2021-06-23T13:07:02Z</time>
      </trkpt>
      <trkpt lat="48.38273" lon="7.42311">
        <ele>229.65</ele>
        <time>2021-06-23T13:07:06Z</time>
      </trkpt>
      <trkpt lat="48.38266" lon="7.42327">
        <ele>230.27</ele>
        <time>2021-06-23T13:07:10Z</time>
      </trkpt>
      <trkpt lat="48.38244" lon="7.42355">
        <ele>234.85</ele>
        <time>2021-06-23T13:07:15Z</time>
      </trkpt>
      <trkpt lat="48.38232" lon="7.42374">
        <ele>237.48</ele>
        <time>2021-06-23T13:07:19Z</time>
      </trkpt>
      <trkpt lat="48.38225" lon="7.42395">
        <ele>238.51</ele>
        <time>2021-06-23T13:07:23Z</time>
      </trkpt>
      <trkpt lat="48.3822" lon="7.42414">
        <ele>239.5</ele>
        <time>2021-06-23T13:07:28Z</time>
      </trkpt>
      <trkpt lat="48.3819" lon="7.42603">
        <ele>246.17</ele>
        <time>2021-06-23T13:07:32Z</time>
      </trkpt>
      <trkpt lat="48.38179" lon="7.42655">
        <ele>247.54</ele>
        <time>2021-06-23T13:07:36Z</time>
      </trkpt>
      <trkpt lat="48.38176" lon="7.42678">
        <ele>247.11</ele>
        <time>2021-06-23T13:07:41Z</time>
      </trkpt>
      <trkpt lat="48.38176" lon="7.42733">
        <ele>244.22</ele>
        <time>2021-06-23T13:07:45Z</time>
      </trkpt>
      <trkpt lat="48.38171" lon="7.42935">
        <ele>250.96</ele>
        <time>2021-06-23T13:07:49Z</time>
      </trkpt>
      <trkpt lat="48.3817" lon="7.42948">
        <ele>250.78</ele>
        <time>2021-06-23T13:07:54Z</time>
      </trkpt>
      <trkpt lat="48.38165" lon="7.42958">
        <ele>251.06</ele>
        <time>2021-06-23T13:07:58Z</time>
      </trkpt>
      <trkpt lat="48.38157" lon="7.42962">
        <ele>251.34</ele>
        <time>2021-06-23T13:08:02Z</time>
      </trkpt>
      <trkpt lat="48.38144" lon="7.42965">
        <ele>251.81</ele>
        <time>2021-06-23T13:08:07Z</time>
      </trkpt>
      <trkpt lat="48.38053" lon="7.42974">
        <ele>253.84</ele>
        <time>2021-06-23T13:08:11Z</time>
      </trkpt>
      <trkpt lat="48.38026" lon="7.42971">
        <ele>252.99</ele>
        <time>2021-06-23T13:08:15Z</time>
      </trkpt>
      <trkpt lat="48.37966" lon="7.42954">
        <ele>253.23</ele>
        <time>2021-06-23T13:08:20Z</time>
      </trkpt>
      <trkpt lat="48.37918" lon="7.42939">
        <ele>256.07</ele>
        <time>2021-06-23T13:08:24Z</time>
      </trkpt>
      <trkpt lat="48.37877" lon="7.42921">
        <ele>255.41</ele>
        <time>2021-06-23T13:08:29Z</time>
      </trkpt>
      <trkpt lat="48.37786" lon="7.42859">
        <ele>254.58</ele>
        <time>2021-06-23T13:08:33Z</time>
      </trkpt>
      <trkpt lat="48.37776" lon="7.42854">
        <ele>255.1</ele>
        <time>2021-06-23T13:08:37Z</time>
      </trkpt>
      <trkpt lat="48.37762" lon="7.42854">
        <ele>255.53</ele>
        <time>2021-06-23T13:08:42Z</time>
      </trkpt>
      <trkpt lat="48.37711" lon="7.42895">
        <ele>253.71</ele>
        <time>2021-06-23T13:08:46Z</time>
      </trkpt>
      <trkpt lat="48.37691" lon="7.42909">
        <ele>252.73</ele>
        <time>2021-06-23T13:08:50Z</time>
      </trkpt>
      <trkpt lat="48.37663" lon="7.42918">
        <ele>250.84</ele>
        <time>2021-06-23T13:08:55Z</time>
      </trkpt>
      <trkpt lat="48.37605" lon="7.42932">
        <ele>249.57</ele>
        <time>2021-06-23T13:08:59Z</time>
      </trkpt>
      <trkpt lat="48.37552" lon="7.42962">
        <ele>252.49</ele>
        <time>2021-06-23T13:09:03Z</time>
      </trkpt>
      <trkpt lat="48.37512" lon="7.42975">
        <ele>257.7</ele>
        <time>2021-06-23T13:09:08Z</time>
      </trkpt>
      <trkpt lat="48.37457" lon="7.42984">
        <ele>261.04</ele>
        <time>2021-06-23T13:09:12Z</time>
      </trkpt>
      <trkpt lat="48.3736" lon="7.43013">
        <ele>266.05</ele>
        <time>2021-06-23T13:09:16Z</time>
      </trkpt>
      <trkpt lat="48.37139" lon="7.43038">
        <ele>266.25</ele>
        <time>2021-06-23T13:09:21Z</time>
      </trkpt>
      <trkpt lat="48.36871" lon="7.42595">
        <ele>275.74</ele>
        <time>2021-06-23T13:09:34Z</time>
      </trkpt>
      <trkpt lat="48.36856" lon="7.4256">
        <ele>275.42</ele>
        <time>2021-06-23T13:09:47Z</time>
      </trkpt>
      <trkpt lat="48.36805" lon="7.42417">
        <ele>266.92</ele>
        <time>2021-06-23T13:10:01Z</time>
      </trkpt>
      <trkpt lat="48.36794" lon="7.42422">
        <ele>265.86</ele>
        <time>2021-06-23T13:10:05Z</time>
      </trkpt>
      <trkpt lat="48.36762" lon="7.42428">
        <ele>262.9</ele>
        <time>2021-06-23T13:10:09Z</time>
      </trkpt>
      <trkpt lat="48.36688" lon="7.42478">
        <ele>259.24</ele>
        <time>2021-06-23T13:10:14Z</time>
      </trkpt>
      <trkpt lat="48.36688" lon="7.42478">
        <ele>259.24</ele>
        <time>2021-06-23T13:10:14Z</time>
      </trkpt>
      <trkpt lat="48.36529" lon="7.42587">
        <ele>254.8</ele>
        <time>2021-06-23T13:10:21Z</time>
      </trkpt>
      <trkpt lat="48.3648" lon="7.4261">
        <ele>253.76</ele>
        <time>2021-06-23T13:10:29Z</time>
      </trkpt>
      <trkpt lat="48.36465" lon="7.42622">
        <ele>253.44</ele>
        <time>2021-06-23T13:10:37Z</time>
      </trkpt>
      <trkpt lat="48.36424" lon="7.42658">
        <ele>253.82</ele>
        <time>2021-06-23T13:10:45Z</time>
      </trkpt>
      <trkpt lat="48.36406" lon="7.42686">
        <ele>254.24</ele>
        <time>2021-06-23T13:10:53Z</time>
      </trkpt>
      <trkpt lat="48.36399" lon="7.42705">
        <ele>254.43</ele>
        <time>2021-06-23T13:11:01Z</time>
      </trkpt>
      <trkpt lat="48.36392" lon="7.42738">
        <ele>253.93</ele>
        <time>2021-06-23T13:11:08Z</time>
      </trkpt>
      <trkpt lat="48.36392" lon="7.42779">
        <ele>254.47</ele>
        <time>2021-06-23T13:11:16Z</time>
      </trkpt>
      <trkpt lat="48.36398" lon="7.42907">
        <ele>253.24</ele>
        <time>2021-06-23T13:11:24Z</time>
      </trkpt>
      <trkpt lat="48.364" lon="7.43061">
        <ele>252.26</ele>
        <time>2021-06-23T13:11:32Z</time>
      </trkpt>
      <trkpt lat="48.36399" lon="7.43086">
        <ele>251.71</ele>
        <time>2021-06-23T13:11:40Z</time>
      </trkpt>
      <trkpt lat="48.36396" lon="7.43115">
        <ele>251.15</ele>
        <time>2021-06-23T13:11:48Z</time>
      </trkpt>
      <trkpt lat="48.3639" lon="7.43111">
        <ele>250.23</ele>
        <time>2021-06-23T13:11:52Z</time>
      </trkpt>
      <trkpt lat="48.36372" lon="7.43057">
        <ele>249.59</ele>
        <time>2021-06-23T13:11:56Z</time>
      </trkpt>
      <trkpt lat="48.36362" lon="7.4304">
        <ele>248.2</ele>
        <time>2021-06-23T13:12:00Z</time>
      </trkpt>
      <trkpt lat="48.36354" lon="7.43034">
        <ele>246.18</ele>
        <time>2021-06-23T13:12:03Z</time>
      </trkpt>
      <trkpt lat="48.36312" lon="7.43018">
        <ele>236.45</ele>
        <time>2021-06-23T13:12:07Z</time>
      </trkpt>
      <trkpt lat="48.36285" lon="7.4301">
        <ele>232.23</ele>
        <time>2021-06-23T13:12:11Z</time>
      </trkpt>
      <trkpt lat="48.36278" lon="7.43011">
        <ele>231.38</ele>
        <time>2021-06-23T13:12:15Z</time>
      </trkpt>
      <trkpt lat="48.36275" lon="7.43018">
        <ele>231.28</ele>
        <time>2021-06-23T13:12:16Z</time>
      </trkpt>
      <trkpt lat="48.36268" lon="7.43016">
        <ele>230.33</ele>
        <time>2021-06-23T13:12:19Z</time>
      </trkpt>
      <trkpt lat="48.3626" lon="7.43017">
        <ele>229.46</ele>
        <time>2021-06-23T13:12:21Z</time>
      </trkpt>
      <trkpt lat="48.36217" lon="7.43032">
        <ele>225.96</ele>
        <time>2021-06-23T13:12:23Z</time>
      </trkpt>
      <trkpt lat="48.36182" lon="7.43039">
        <ele>223.91</ele>
        <time>2021-06-23T13:12:26Z</time>
      </trkpt>
      <trkpt lat="48.3616" lon="7.43039">
        <ele>222.12</ele>
        <time>2021-06-23T13:12:28Z</time>
      </trkpt>
      <trkpt lat="48.36149" lon="7.43036">
        <ele>221.42</ele>
        <time>2021-06-23T13:12:30Z</time>
      </trkpt>
      <trkpt lat="48.36137" lon="7.43027">
        <ele>220.82</ele>
        <time>2021-06-23T13:12:32Z</time>
      </trkpt>
      <trkpt lat="48.36127" lon="7.43015">
        <ele>220.14</ele>
        <time>2021-06-23T13:12:35Z</time>
      </trkpt>
      <trkpt lat="48.36119" lon="7.42999">
        <ele>219.56</ele>
        <time>2021-06-23T13:12:37Z</time>
      </trkpt>
      <trkpt lat="48.36112" lon="7.42982">
        <ele>219.68</ele>
        <time>2021-06-23T13:12:39Z</time>
      </trkpt>
      <trkpt lat="48.36104" lon="7.42953">
        <ele>219.93</ele>
        <time>2021-06-23T13:12:42Z</time>
      </trkpt>
      <trkpt lat="48.36097" lon="7.42937">
        <ele>220.14</ele>
        <time>2021-06-23T13:12:44Z</time>
      </trkpt>
      <trkpt lat="48.3609" lon="7.42926">
        <ele>220.51</ele>
        <time>2021-06-23T13:12:46Z</time>
      </trkpt>
      <trkpt lat="48.3608" lon="7.42917">
        <ele>220.86</ele>
        <time>2021-06-23T13:12:48Z</time>
      </trkpt>
      <trkpt lat="48.36022" lon="7.429">
        <ele>217.77</ele>
        <time>2021-06-23T13:12:51Z</time>
      </trkpt>
      <trkpt lat="48.36002" lon="7.42884">
        <ele>217.08</ele>
        <time>2021-06-23T13:12:53Z</time>
      </trkpt>
      <trkpt lat="48.35991" lon="7.42869">
        <ele>216.69</ele>
        <time>2021-06-23T13:12:55Z</time>
      </trkpt>
      <trkpt lat="48.35977" lon="7.42837">
        <ele>217.75</ele>
        <time>2021-06-23T13:12:57Z</time>
      </trkpt>
      <trkpt lat="48.35958" lon="7.42738">
        <ele>219.5</ele>
        <time>2021-06-23T13:13:00Z</time>
      </trkpt>
      <trkpt lat="48.35936" lon="7.42673">
        <ele>218.68</ele>
        <time>2021-06-23T13:13:02Z</time>
      </trkpt>
      <trkpt lat="48.35925" lon="7.4265">
        <ele>218.87</ele>
        <time>2021-06-23T13:13:04Z</time>
      </trkpt>
      <trkpt lat="48.35911" lon="7.42631">
        <ele>219.34</ele>
        <time>2021-06-23T13:13:07Z</time>
      </trkpt>
      <trkpt lat="48.35898" lon="7.42619">
        <ele>219.76</ele>
        <time>2021-06-23T13:13:09Z</time>
      </trkpt>
      <trkpt lat="48.35885" lon="7.42611">
        <ele>220.02</ele>
        <time>2021-06-23T13:13:11Z</time>
      </trkpt>
      <trkpt lat="48.35802" lon="7.42569">
        <ele>220.44</ele>
        <time>2021-06-23T13:13:13Z</time>
      </trkpt>
      <trkpt lat="48.35687" lon="7.42544">
        <ele>217.95</ele>
        <time>2021-06-23T13:13:16Z</time>
      </trkpt>
      <trkpt lat="48.3561" lon="7.42519">
        <ele>219.35</ele>
        <time>2021-06-23T13:13:18Z</time>
      </trkpt>
      <trkpt lat="48.35568" lon="7.42504">
        <ele>219.46</ele>
        <time>2021-06-23T13:13:20Z</time>
      </trkpt>
      <trkpt lat="48.35556" lon="7.42495">
        <ele>219.01</ele>
        <time>2021-06-23T13:13:23Z</time>
      </trkpt>
      <trkpt lat="48.35547" lon="7.42485">
        <ele>218.86</ele>
        <time>2021-06-23T13:13:25Z</time>
      </trkpt>
      <trkpt lat="48.35544" lon="7.42469">
        <ele>219</ele>
        <time>2021-06-23T13:13:29Z</time>
      </trkpt>
      <trkpt lat="48.35546" lon="7.42451">
        <ele>219</ele>
        <time>2021-06-23T13:13:33Z</time>
      </trkpt>
      <trkpt lat="48.35552" lon="7.42418">
        <ele>219.94</ele>
        <time>2021-06-23T13:13:37Z</time>
      </trkpt>
      <trkpt lat="48.35588" lon="7.42315">
        <ele>223.19</ele>
        <time>2021-06-23T13:13:41Z</time>
      </trkpt>
      <trkpt lat="48.35597" lon="7.42272">
        <ele>224.62</ele>
        <time>2021-06-23T13:13:45Z</time>
      </trkpt>
      <trkpt lat="48.35597" lon="7.42258">
        <ele>224.85</ele>
        <time>2021-06-23T13:13:49Z</time>
      </trkpt>
      <trkpt lat="48.35595" lon="7.42235">
        <ele>225.23</ele>
        <time>2021-06-23T13:13:53Z</time>
      </trkpt>
      <trkpt lat="48.35587" lon="7.42171">
        <ele>225.23</ele>
        <time>2021-06-23T13:13:57Z</time>
      </trkpt>
      <trkpt lat="48.35586" lon="7.42147">
        <ele>224.49</ele>
        <time>2021-06-23T13:14:01Z</time>
      </trkpt>
      <trkpt lat="48.35588" lon="7.42089">
        <ele>227.63</ele>
        <time>2021-06-23T13:14:05Z</time>
      </trkpt>
      <trkpt lat="48.35584" lon="7.42074">
        <ele>228.71</ele>
        <time>2021-06-23T13:14:09Z</time>
      </trkpt>
      <trkpt lat="48.35571" lon="7.42053">
        <ele>230.66</ele>
        <time>2021-06-23T13:14:13Z</time>
      </trkpt>
      <trkpt lat="48.35532" lon="7.42014">
        <ele>232.32</ele>
        <time>2021-06-23T13:14:17Z</time>
      </trkpt>
      <trkpt lat="48.35484" lon="7.41985">
        <ele>229.91</ele>
        <time>2021-06-23T13:14:21Z</time>
      </trkpt>
      <trkpt lat="48.35385" lon="7.41971">
        <ele>227.08</ele>
        <time>2021-06-23T13:14:25Z</time>
      </trkpt>
      <trkpt lat="48.35294" lon="7.41974">
        <ele>221.71</ele>
        <time>2021-06-23T13:14:29Z</time>
      </trkpt>
      <trkpt lat="48.35239" lon="7.4197">
        <ele>219.08</ele>
        <time>2021-06-23T13:14:33Z</time>
      </trkpt>
      <trkpt lat="48.35175" lon="7.41945">
        <ele>219</ele>
        <time>2021-06-23T13:14:37Z</time>
      </trkpt>
      <trkpt lat="48.35138" lon="7.41939">
        <ele>219.11</ele>
        <time>2021-06-23T13:14:41Z</time>
      </trkpt>
      <trkpt lat="48.35138" lon="7.41939">
        <ele>219.11</ele>
        <time>2021-06-23T13:14:41Z</time>
      </trkpt>
      <trkpt lat="48.35103" lon="7.41936">
        <ele>219.13</ele>
        <time>2021-06-23T13:14:44Z</time>
      </trkpt>
      <trkpt lat="48.35063" lon="7.41941">
        <ele>218.16</ele>
        <time>2021-06-23T13:14:48Z</time>
      </trkpt>
      <trkpt lat="48.35047" lon="7.41947">
        <ele>217.52</ele>
        <time>2021-06-23T13:14:51Z</time>
      </trkpt>
      <trkpt lat="48.35" lon="7.41976">
        <ele>215.6</ele>
        <time>2021-06-23T13:14:55Z</time>
      </trkpt>
      <trkpt lat="48.34979" lon="7.41993">
        <ele>214.33</ele>
        <time>2021-06-23T13:14:58Z</time>
      </trkpt>
      <trkpt lat="48.34961" lon="7.42004">
        <ele>214.55</ele>
        <time>2021-06-23T13:15:01Z</time>
      </trkpt>
      <trkpt lat="48.34931" lon="7.42015">
        <ele>217.23</ele>
        <time>2021-06-23T13:15:05Z</time>
      </trkpt>
      <trkpt lat="48.34825" lon="7.42039">
        <ele>222.6</ele>
        <time>2021-06-23T13:15:08Z</time>
      </trkpt>
      <trkpt lat="48.34799" lon="7.42047">
        <ele>222.05</ele>
        <time>2021-06-23T13:15:11Z</time>
      </trkpt>
      <trkpt lat="48.34773" lon="7.42058">
        <ele>220.84</ele>
        <time>2021-06-23T13:15:15Z</time>
      </trkpt>
      <trkpt lat="48.34732" lon="7.42082">
        <ele>219.68</ele>
        <time>2021-06-23T13:15:18Z</time>
      </trkpt>
      <trkpt lat="48.34669" lon="7.42126">
        <ele>216.58</ele>
        <time>2021-06-23T13:15:22Z</time>
      </trkpt>
      <trkpt lat="48.34649" lon="7.42136">
        <ele>215.47</ele>
        <time>2021-06-23T13:15:25Z</time>
      </trkpt>
      <trkpt lat="48.34626" lon="7.42143">
        <ele>215.4</ele>
        <time>2021-06-23T13:15:28Z</time>
      </trkpt>
      <trkpt lat="48.34601" lon="7.42145">
        <ele>216.17</ele>
        <time>2021-06-23T13:15:32Z</time>
      </trkpt>
      <trkpt lat="48.34525" lon="7.42145">
        <ele>220.02</ele>
        <time>2021-06-23T13:15:35Z</time>
      </trkpt>
      <trkpt lat="48.34499" lon="7.4215">
        <ele>221.65</ele>
        <time>2021-06-23T13:15:38Z</time>
      </trkpt>
      <trkpt lat="48.34473" lon="7.42163">
        <ele>222.1</ele>
        <time>2021-06-23T13:15:42Z</time>
      </trkpt>
      <trkpt lat="48.34392" lon="7.42221">
        <ele>223.82</ele>
        <time>2021-06-23T13:15:45Z</time>
      </trkpt>
      <trkpt lat="48.34299" lon="7.42269">
        <ele>221.53</ele>
        <time>2021-06-23T13:15:49Z</time>
      </trkpt>
      <trkpt lat="48.34268" lon="7.42161">
        <ele>225</ele>
        <time>2021-06-23T13:15:52Z</time>
      </trkpt>
      <trkpt lat="48.34259" lon="7.4214">
        <ele>225</ele>
        <time>2021-06-23T13:15:56Z</time>
      </trkpt>
      <trkpt lat="48.3424" lon="7.42106">
        <ele>226.18</ele>
        <time>2021-06-23T13:16:00Z</time>
      </trkpt>
      <trkpt lat="48.34217" lon="7.4207">
        <ele>227.69</ele>
        <time>2021-06-23T13:16:03Z</time>
      </trkpt>
      <trkpt lat="48.34204" lon="7.42044">
        <ele>229.53</ele>
        <time>2021-06-23T13:16:07Z</time>
      </trkpt>
      <trkpt lat="48.34183" lon="7.41963">
        <ele>233.4</ele>
        <time>2021-06-23T13:16:11Z</time>
      </trkpt>
      <trkpt lat="48.34163" lon="7.41851">
        <ele>235.2</ele>
        <time>2021-06-23T13:16:15Z</time>
      </trkpt>
      <trkpt lat="48.34161" lon="7.41842">
        <ele>235.36</ele>
        <time>2021-06-23T13:16:18Z</time>
      </trkpt>
      <trkpt lat="48.34157" lon="7.41835">
        <ele>235.68</ele>
        <time>2021-06-23T13:16:22Z</time>
      </trkpt>
      <trkpt lat="48.34126" lon="7.41844">
        <ele>236.79</ele>
        <time>2021-06-23T13:16:25Z</time>
      </trkpt>
      <trkpt lat="48.34113" lon="7.41854">
        <ele>236.95</ele>
        <time>2021-06-23T13:16:29Z</time>
      </trkpt>
      <trkpt lat="48.34106" lon="7.41872">
        <ele>237.25</ele>
        <time>2021-06-23T13:16:32Z</time>
      </trkpt>
      <trkpt lat="48.34099" lon="7.41903">
        <ele>237.67</ele>
        <time>2021-06-23T13:16:35Z</time>
      </trkpt>
      <trkpt lat="48.34068" lon="7.41954">
        <ele>237.52</ele>
        <time>2021-06-23T13:16:39Z</time>
      </trkpt>
      <trkpt lat="48.3406" lon="7.41963">
        <ele>237.26</ele>
        <time>2021-06-23T13:16:42Z</time>
      </trkpt>
      <trkpt lat="48.34051" lon="7.41966">
        <ele>237.24</ele>
        <time>2021-06-23T13:16:45Z</time>
      </trkpt>
      <trkpt lat="48.34024" lon="7.41969">
        <ele>236.99</ele>
        <time>2021-06-23T13:16:49Z</time>
      </trkpt>
      <trkpt lat="48.33969" lon="7.41973">
        <ele>235.78</ele>
        <time>2021-06-23T13:16:52Z</time>
      </trkpt>
      <trkpt lat="48.33939" lon="7.41969">
        <ele>235.09</ele>
        <time>2021-06-23T13:16:55Z</time>
      </trkpt>
      <trkpt lat="48.33886" lon="7.41943">
        <ele>236.1</ele>
        <time>2021-06-23T13:16:59Z</time>
      </trkpt>
      <trkpt lat="48.33872" lon="7.41939">
        <ele>236.22</ele>
        <time>2021-06-23T13:17:02Z</time>
      </trkpt>
      <trkpt lat="48.33856" lon="7.41942">
        <ele>235.39</ele>
        <time>2021-06-23T13:17:05Z</time>
      </trkpt>
      <trkpt lat="48.33842" lon="7.41949">
        <ele>234.41</ele>
        <time>2021-06-23T13:17:09Z</time>
      </trkpt>
      <trkpt lat="48.33794" lon="7.41981">
        <ele>233.66</ele>
        <time>2021-06-23T13:17:12Z</time>
      </trkpt>
      <trkpt lat="48.33777" lon="7.41996">
        <ele>234.39</ele>
        <time>2021-06-23T13:17:16Z</time>
      </trkpt>
      <trkpt lat="48.33767" lon="7.42013">
        <ele>235.59</ele>
        <time>2021-06-23T13:17:19Z</time>
      </trkpt>
      <trkpt lat="48.33759" lon="7.42042">
        <ele>237.34</ele>
        <time>2021-06-23T13:17:22Z</time>
      </trkpt>
      <trkpt lat="48.33755" lon="7.42092">
        <ele>238.35</ele>
        <time>2021-06-23T13:17:26Z</time>
      </trkpt>
      <trkpt lat="48.33756" lon="7.4218">
        <ele>237.41</ele>
        <time>2021-06-23T13:17:29Z</time>
      </trkpt>
      <trkpt lat="48.33754" lon="7.42237">
        <ele>234.2</ele>
        <time>2021-06-23T13:17:32Z</time>
      </trkpt>
      <trkpt lat="48.3375" lon="7.42279">
        <ele>232.91</ele>
        <time>2021-06-23T13:17:36Z</time>
      </trkpt>
      <trkpt lat="48.33697" lon="7.42576">
        <ele>224.44</ele>
        <time>2021-06-23T13:17:39Z</time>
      </trkpt>
      <trkpt lat="48.33685" lon="7.42627">
        <ele>223.63</ele>
        <time>2021-06-23T13:17:42Z</time>
      </trkpt>
      <trkpt lat="48.3368" lon="7.42639">
        <ele>223.65</ele>
        <time>2021-06-23T13:17:46Z</time>
      </trkpt>
      <trkpt lat="48.33668" lon="7.42658">
        <ele>224.38</ele>
        <time>2021-06-23T13:17:49Z</time>
      </trkpt>
      <trkpt lat="48.33654" lon="7.42676">
        <ele>225.11</ele>
        <time>2021-06-23T13:17:52Z</time>
      </trkpt>
      <trkpt lat="48.33632" lon="7.42692">
        <ele>225.67</ele>
        <time>2021-06-23T13:17:56Z</time>
      </trkpt>
      <trkpt lat="48.33621" lon="7.42698">
        <ele>226.08</ele>
        <time>2021-06-23T13:17:59Z</time>
      </trkpt>
      <trkpt lat="48.33609" lon="7.42701">
        <ele>226.78</ele>
        <time>2021-06-23T13:18:02Z</time>
      </trkpt>
      <trkpt lat="48.33587" lon="7.42702">
        <ele>229.03</ele>
        <time>2021-06-23T13:18:06Z</time>
      </trkpt>
      <trkpt lat="48.33521" lon="7.4269">
        <ele>230.82</ele>
        <time>2021-06-23T13:18:09Z</time>
      </trkpt>
      <trkpt lat="48.33414" lon="7.42674">
        <ele>227.35</ele>
        <time>2021-06-23T13:18:12Z</time>
      </trkpt>
      <trkpt lat="48.33295" lon="7.42673">
        <ele>226.98</ele>
        <time>2021-06-23T13:18:16Z</time>
      </trkpt>
      <trkpt lat="48.33263" lon="7.42666">
        <ele>226.96</ele>
        <time>2021-06-23T13:18:19Z</time>
      </trkpt>
      <trkpt lat="48.33236" lon="7.42656">
        <ele>227.23</ele>
        <time>2021-06-23T13:18:22Z</time>
      </trkpt>
      <trkpt lat="48.3315" lon="7.42612">
        <ele>227.98</ele>
        <time>2021-06-23T13:18:26Z</time>
      </trkpt>
      <trkpt lat="48.33081" lon="7.42571">
        <ele>229.39</ele>
        <time>2021-06-23T13:18:29Z</time>
      </trkpt>
      <trkpt lat="48.32966" lon="7.42468">
        <ele>227.11</ele>
        <time>2021-06-23T13:18:32Z</time>
      </trkpt>
      <trkpt lat="48.32915" lon="7.42434">
        <ele>226.38</ele>
        <time>2021-06-23T13:18:36Z</time>
      </trkpt>
      <trkpt lat="48.32828" lon="7.42395">
        <ele>227.21</ele>
        <time>2021-06-23T13:18:39Z</time>
      </trkpt>
      <trkpt lat="48.32757" lon="7.42353">
        <ele>224.22</ele>
        <time>2021-06-23T13:18:42Z</time>
      </trkpt>
      <trkpt lat="48.3274" lon="7.42344">
        <ele>224.82</ele>
        <time>2021-06-23T13:18:46Z</time>
      </trkpt>
      <trkpt lat="48.32708" lon="7.42342">
        <ele>224.38</ele>
        <time>2021-06-23T13:18:49Z</time>
      </trkpt>
      <trkpt lat="48.32699" lon="7.42344">
        <ele>223.53</ele>
        <time>2021-06-23T13:18:53Z</time>
      </trkpt>
      <trkpt lat="48.32626" lon="7.42391">
        <ele>218.85</ele>
        <time>2021-06-23T13:18:56Z</time>
      </trkpt>
      <trkpt lat="48.32615" lon="7.42398">
        <ele>218.38</ele>
        <time>2021-06-23T13:18:59Z</time>
      </trkpt>
      <trkpt lat="48.32605" lon="7.42407">
        <ele>217.88</ele>
        <time>2021-06-23T13:19:03Z</time>
      </trkpt>
      <trkpt lat="48.32574" lon="7.42446">
        <ele>217.63</ele>
        <time>2021-06-23T13:19:06Z</time>
      </trkpt>
      <trkpt lat="48.32568" lon="7.42457">
        <ele>217.83</ele>
        <time>2021-06-23T13:19:09Z</time>
      </trkpt>
      <trkpt lat="48.32528" lon="7.42573">
        <ele>212.39</ele>
        <time>2021-06-23T13:19:13Z</time>
      </trkpt>
      <trkpt lat="48.32516" lon="7.42598">
        <ele>212</ele>
        <time>2021-06-23T13:19:16Z</time>
      </trkpt>
      <trkpt lat="48.32475" lon="7.4265">
        <ele>211.61</ele>
        <time>2021-06-23T13:19:19Z</time>
      </trkpt>
      <trkpt lat="48.32457" lon="7.42669">
        <ele>209.84</ele>
        <time>2021-06-23T13:19:23Z</time>
      </trkpt>
      <trkpt lat="48.3244" lon="7.42681">
        <ele>208.91</ele>
        <time>2021-06-23T13:19:26Z</time>
      </trkpt>
      <trkpt lat="48.32422" lon="7.42685">
        <ele>208.46</ele>
        <time>2021-06-23T13:19:29Z</time>
      </trkpt>
      <trkpt lat="48.32388" lon="7.42685">
        <ele>208.38</ele>
        <time>2021-06-23T13:19:33Z</time>
      </trkpt>
      <trkpt lat="48.32379" lon="7.42693">
        <ele>208.73</ele>
        <time>2021-06-23T13:19:36Z</time>
      </trkpt>
      <trkpt lat="48.32371" lon="7.42715">
        <ele>209.29</ele>
        <time>2021-06-23T13:19:39Z</time>
      </trkpt>
      <trkpt lat="48.32365" lon="7.42743">
        <ele>209.1</ele>
        <time>2021-06-23T13:19:43Z</time>
      </trkpt>
      <trkpt lat="48.32357" lon="7.428">
        <ele>206.35</ele>
        <time>2021-06-23T13:19:46Z</time>
      </trkpt>
      <trkpt lat="48.32357" lon="7.42811">
        <ele>206.12</ele>
        <time>2021-06-23T13:19:49Z</time>
      </trkpt>
      <trkpt lat="48.32355" lon="7.42849">
        <ele>205.45</ele>
        <time>2021-06-23T13:19:53Z</time>
      </trkpt>
      <trkpt lat="48.32291" lon="7.42849">
        <ele>205.42</ele>
        <time>2021-06-23T13:19:58Z</time>
      </trkpt>
      <trkpt lat="48.32072" lon="7.42841">
        <ele>199.68</ele>
        <time>2021-06-23T13:20:03Z</time>
      </trkpt>
      <trkpt lat="48.32" lon="7.42833">
        <ele>196.07</ele>
        <time>2021-06-23T13:20:08Z</time>
      </trkpt>
      <trkpt lat="48.31948" lon="7.42823">
        <ele>195.57</ele>
        <time>2021-06-23T13:20:13Z</time>
      </trkpt>
      <trkpt lat="48.31897" lon="7.42804">
        <ele>194.82</ele>
        <time>2021-06-23T13:20:17Z</time>
      </trkpt>
      <trkpt lat="48.31845" lon="7.42775">
        <ele>196.45</ele>
        <time>2021-06-23T13:20:22Z</time>
      </trkpt>
      <trkpt lat="48.31828" lon="7.42754">
        <ele>195.59</ele>
        <time>2021-06-23T13:20:27Z</time>
      </trkpt>
      <trkpt lat="48.31815" lon="7.42717">
        <ele>193.98</ele>
        <time>2021-06-23T13:20:32Z</time>
      </trkpt>
      <trkpt lat="48.3177" lon="7.42574">
        <ele>197.03</ele>
        <time>2021-06-23T13:20:37Z</time>
      </trkpt>
      <trkpt lat="48.31758" lon="7.42542">
        <ele>197.28</ele>
        <time>2021-06-23T13:20:42Z</time>
      </trkpt>
      <trkpt lat="48.31746" lon="7.42518">
        <ele>197.14</ele>
        <time>2021-06-23T13:20:47Z</time>
      </trkpt>
      <trkpt lat="48.31734" lon="7.42505">
        <ele>197.13</ele>
        <time>2021-06-23T13:20:52Z</time>
      </trkpt>
      <trkpt lat="48.31722" lon="7.425">
        <ele>197</ele>
        <time>2021-06-23T13:20:57Z</time>
      </trkpt>
      <trkpt lat="48.31595" lon="7.42472">
        <ele>194.59</ele>
        <time>2021-06-23T13:21:02Z</time>
      </trkpt>
      <trkpt lat="48.31567" lon="7.42461">
        <ele>194.45</ele>
        <time>2021-06-23T13:21:07Z</time>
      </trkpt>
      <trkpt lat="48.31445" lon="7.42386">
        <ele>194.32</ele>
        <time>2021-06-23T13:21:12Z</time>
      </trkpt>
      <trkpt lat="48.314" lon="7.42365">
        <ele>194.88</ele>
        <time>2021-06-23T13:21:17Z</time>
      </trkpt>
      <trkpt lat="48.31339" lon="7.42329">
        <ele>198.16</ele>
        <time>2021-06-23T13:21:22Z</time>
      </trkpt>
      <trkpt lat="48.3132" lon="7.42323">
        <ele>197.89</ele>
        <time>2021-06-23T13:21:27Z</time>
      </trkpt>
      <trkpt lat="48.31281" lon="7.42324">
        <ele>195.54</ele>
        <time>2021-06-23T13:21:32Z</time>
      </trkpt>
      <trkpt lat="48.31229" lon="7.4233">
        <ele>195.14</ele>
        <time>2021-06-23T13:21:37Z</time>
      </trkpt>
      <trkpt lat="48.31204" lon="7.42325">
        <ele>194.65</ele>
        <time>2021-06-23T13:21:41Z</time>
      </trkpt>
      <trkpt lat="48.31183" lon="7.42316">
        <ele>194.48</ele>
        <time>2021-06-23T13:21:46Z</time>
      </trkpt>
      <trkpt lat="48.31142" lon="7.42293">
        <ele>195.49</ele>
        <time>2021-06-23T13:21:51Z</time>
      </trkpt>
      <trkpt lat="48.31051" lon="7.42254">
        <ele>194.53</ele>
        <time>2021-06-23T13:21:56Z</time>
      </trkpt>
      <trkpt lat="48.30974" lon="7.42216">
        <ele>196.18</ele>
        <time>2021-06-23T13:22:01Z</time>
      </trkpt>
      <trkpt lat="48.30957" lon="7.4221">
        <ele>196.11</ele>
        <time>2021-06-23T13:22:06Z</time>
      </trkpt>
      <trkpt lat="48.30869" lon="7.422">
        <ele>194.1</ele>
        <time>2021-06-23T13:22:11Z</time>
      </trkpt>
      <trkpt lat="48.30856" lon="7.42201">
        <ele>193.54</ele>
        <time>2021-06-23T13:22:16Z</time>
      </trkpt>
      <trkpt lat="48.30846" lon="7.42206">
        <ele>192.81</ele>
        <time>2021-06-23T13:22:21Z</time>
      </trkpt>
      <trkpt lat="48.30752" lon="7.42257">
        <ele>188.82</ele>
        <time>2021-06-23T13:22:26Z</time>
      </trkpt>
      <trkpt lat="48.30725" lon="7.42268">
        <ele>188.94</ele>
        <time>2021-06-23T13:22:31Z</time>
      </trkpt>
      <trkpt lat="48.30696" lon="7.42273">
        <ele>189.77</ele>
        <time>2021-06-23T13:22:36Z</time>
      </trkpt>
      <trkpt lat="48.30664" lon="7.42274">
        <ele>189.64</ele>
        <time>2021-06-23T13:22:41Z</time>
      </trkpt>
      <trkpt lat="48.30618" lon="7.42271">
        <ele>186.48</ele>
        <time>2021-06-23T13:22:46Z</time>
      </trkpt>
      <trkpt lat="48.30444" lon="7.42258">
        <ele>185.71</ele>
        <time>2021-06-23T13:22:51Z</time>
      </trkpt>
      <trkpt lat="48.30352" lon="7.42259">
        <ele>184.71</ele>
        <time>2021-06-23T13:22:56Z</time>
      </trkpt>
      <trkpt lat="48.30089" lon="7.4228">
        <ele>184.79</ele>
        <time>2021-06-23T13:23:01Z</time>
      </trkpt>
      <trkpt lat="48.30054" lon="7.42279">
        <ele>184.92</ele>
        <time>2021-06-23T13:23:06Z</time>
      </trkpt>
      <trkpt lat="48.30005" lon="7.4227">
        <ele>184.88</ele>
        <time>2021-06-23T13:23:10Z</time>
      </trkpt>
      <trkpt lat="48.29956" lon="7.42265">
        <ele>185.8</ele>
        <time>2021-06-23T13:23:15Z</time>
      </trkpt>
      <trkpt lat="48.298" lon="7.4227">
        <ele>181.05</ele>
        <time>2021-06-23T13:23:20Z</time>
      </trkpt>
      <trkpt lat="48.29766" lon="7.42273">
        <ele>181.17</ele>
        <time>2021-06-23T13:23:25Z</time>
      </trkpt>
      <trkpt lat="48.29607" lon="7.4231">
        <ele>179.34</ele>
        <time>2021-06-23T13:23:30Z</time>
      </trkpt>
      <trkpt lat="48.29476" lon="7.42347">
        <ele>180</ele>
        <time>2021-06-23T13:23:35Z</time>
      </trkpt>
      <trkpt lat="48.29426" lon="7.42369">
        <ele>180.39</ele>
        <time>2021-06-23T13:23:40Z</time>
      </trkpt>
      <trkpt lat="48.2941" lon="7.42375">
        <ele>180.61</ele>
        <time>2021-06-23T13:23:45Z</time>
      </trkpt>
      <trkpt lat="48.29375" lon="7.42384">
        <ele>181</ele>
        <time>2021-06-23T13:23:50Z</time>
      </trkpt>
      <trkpt lat="48.2935" lon="7.42401">
        <ele>180.75</ele>
        <time>2021-06-23T13:23:55Z</time>
      </trkpt>
      <trkpt lat="48.29291" lon="7.42425">
        <ele>180.46</ele>
        <time>2021-06-23T13:24:00Z</time>
      </trkpt>
      <trkpt lat="48.29257" lon="7.42435">
        <ele>179.51</ele>
        <time>2021-06-23T13:24:05Z</time>
      </trkpt>
      <trkpt lat="48.29237" lon="7.42431">
        <ele>179.72</ele>
        <time>2021-06-23T13:24:10Z</time>
      </trkpt>
      <trkpt lat="48.29224" lon="7.42422">
        <ele>179.88</ele>
        <time>2021-06-23T13:24:15Z</time>
      </trkpt>
      <trkpt lat="48.29224" lon="7.42422">
        <ele>179.88</ele>
        <time>2021-06-23T13:24:15Z</time>
      </trkpt>
      <trkpt lat="48.29142" lon="7.42328">
        <ele>182</ele>
        <time>2021-06-23T13:24:21Z</time>
      </trkpt>
      <trkpt lat="48.29131" lon="7.42305">
        <ele>181.7</ele>
        <time>2021-06-23T13:24:27Z</time>
      </trkpt>
      <trkpt lat="48.29128" lon="7.42291">
        <ele>181.27</ele>
        <time>2021-06-23T13:24:31Z</time>
      </trkpt>
      <trkpt lat="48.29122" lon="7.42285">
        <ele>181.1</ele>
        <time>2021-06-23T13:24:34Z</time>
      </trkpt>
      <trkpt lat="48.29112" lon="7.42285">
        <ele>181.01</ele>
        <time>2021-06-23T13:24:37Z</time>
      </trkpt>
      <trkpt lat="48.29094" lon="7.42273">
        <ele>181.69</ele>
        <time>2021-06-23T13:24:41Z</time>
      </trkpt>
      <trkpt lat="48.29084" lon="7.42261">
        <ele>181.99</ele>
        <time>2021-06-23T13:24:44Z</time>
      </trkpt>
      <trkpt lat="48.29068" lon="7.42246">
        <ele>182.15</ele>
        <time>2021-06-23T13:24:47Z</time>
      </trkpt>
      <trkpt lat="48.29048" lon="7.42233">
        <ele>182.73</ele>
        <time>2021-06-23T13:24:51Z</time>
      </trkpt>
      <trkpt lat="48.2898" lon="7.42202">
        <ele>182.29</ele>
        <time>2021-06-23T13:24:54Z</time>
      </trkpt>
      <trkpt lat="48.28927" lon="7.42181">
        <ele>183.61</ele>
        <time>2021-06-23T13:24:57Z</time>
      </trkpt>
      <trkpt lat="48.28906" lon="7.4217">
        <ele>183.96</ele>
        <time>2021-06-23T13:25:01Z</time>
      </trkpt>
      <trkpt lat="48.28816" lon="7.42112">
        <ele>185.62</ele>
        <time>2021-06-23T13:25:04Z</time>
      </trkpt>
      <trkpt lat="48.28771" lon="7.421">
        <ele>185.09</ele>
        <time>2021-06-23T13:25:07Z</time>
      </trkpt>
      <trkpt lat="48.28739" lon="7.42098">
        <ele>185.68</ele>
        <time>2021-06-23T13:25:11Z</time>
      </trkpt>
      <trkpt lat="48.28736" lon="7.4201">
        <ele>187.83</ele>
        <time>2021-06-23T13:25:17Z</time>
      </trkpt>
      <trkpt lat="48.28727" lon="7.41889">
        <ele>188.82</ele>
        <time>2021-06-23T13:25:24Z</time>
      </trkpt>
      <trkpt lat="48.28722" lon="7.41832">
        <ele>187.92</ele>
        <time>2021-06-23T13:25:30Z</time>
      </trkpt>
      <trkpt lat="48.2871" lon="7.41751">
        <ele>187</ele>
        <time>2021-06-23T13:25:37Z</time>
      </trkpt>
      <trkpt lat="48.2871" lon="7.41739">
        <ele>187.18</ele>
        <time>2021-06-23T13:25:43Z</time>
      </trkpt>
      <trkpt lat="48.2873" lon="7.41665">
        <ele>187.01</ele>
        <time>2021-06-23T13:25:50Z</time>
      </trkpt>
      <trkpt lat="48.28742" lon="7.41607">
        <ele>188.05</ele>
        <time>2021-06-23T13:25:56Z</time>
      </trkpt>
      <trkpt lat="48.28795" lon="7.41247">
        <ele>188</ele>
        <time>2021-06-23T13:26:03Z</time>
      </trkpt>
      <trkpt lat="48.28851" lon="7.40904">
        <ele>189.65</ele>
        <time>2021-06-23T13:26:10Z</time>
      </trkpt>
      <trkpt lat="48.28858" lon="7.40855">
        <ele>190.24</ele>
        <time>2021-06-23T13:26:16Z</time>
      </trkpt>
      <trkpt lat="48.28858" lon="7.40832">
        <ele>191</ele>
        <time>2021-06-23T13:26:23Z</time>
      </trkpt>
      <trkpt lat="48.28851" lon="7.40603">
        <ele>189</ele>
        <time>2021-06-23T13:26:29Z</time>
      </trkpt>
      <trkpt lat="48.28849" lon="7.40576">
        <ele>190.05</ele>
        <time>2021-06-23T13:26:36Z</time>
      </trkpt>
      <trkpt lat="48.28843" lon="7.40543">
        <ele>190.35</ele>
        <time>2021-06-23T13:26:42Z</time>
      </trkpt>
      <trkpt lat="48.28793" lon="7.4031">
        <ele>189.84</ele>
        <time>2021-06-23T13:26:49Z</time>
      </trkpt>
      <trkpt lat="48.28788" lon="7.40299">
        <ele>190</ele>
        <time>2021-06-23T13:26:55Z</time>
      </trkpt>
      <trkpt lat="48.28778" lon="7.40284">
        <ele>190</ele>
        <time>2021-06-23T13:27:02Z</time>
      </trkpt>
      <trkpt lat="48.28757" lon="7.40274">
        <ele>190.42</ele>
        <time>2021-06-23T13:27:09Z</time>
      </trkpt>
      <trkpt lat="48.28757" lon="7.40274">
        <ele>190.42</ele>
        <time>2021-06-23T13:27:09Z</time>
      </trkpt>
      <trkpt lat="48.28739" lon="7.40269">
        <ele>190.06</ele>
        <time>2021-06-23T13:27:16Z</time>
      </trkpt>
      <trkpt lat="48.28709" lon="7.40266">
        <ele>189.56</ele>
        <time>2021-06-23T13:27:23Z</time>
      </trkpt>
      <trkpt lat="48.28641" lon="7.4028">
        <ele>191.97</ele>
        <time>2021-06-23T13:27:30Z</time>
      </trkpt>
      <trkpt lat="48.28548" lon="7.40281">
        <ele>188.84</ele>
        <time>2021-06-23T13:27:37Z</time>
      </trkpt>
      <trkpt lat="48.28246" lon="7.40245">
        <ele>192.11</ele>
        <time>2021-06-23T13:27:44Z</time>
      </trkpt>
      <trkpt lat="48.27963" lon="7.40208">
        <ele>190.49</ele>
        <time>2021-06-23T13:27:51Z</time>
      </trkpt>
      <trkpt lat="48.27898" lon="7.40205">
        <ele>192.26</ele>
        <time>2021-06-23T13:27:58Z</time>
      </trkpt>
      <trkpt lat="48.27847" lon="7.40192">
        <ele>192.92</ele>
        <time>2021-06-23T13:28:05Z</time>
      </trkpt>
      <trkpt lat="48.27787" lon="7.40173">
        <ele>192</ele>
        <time>2021-06-23T13:28:13Z</time>
      </trkpt>
      <trkpt lat="48.27756" lon="7.4016">
        <ele>192</ele>
        <time>2021-06-23T13:28:20Z</time>
      </trkpt>
      <trkpt lat="48.27661" lon="7.40103">
        <ele>190.24</ele>
        <time>2021-06-23T13:28:27Z</time>
      </trkpt>
      <trkpt lat="48.27658" lon="7.40096">
        <ele>190.37</ele>
        <time>2021-06-23T13:28:34Z</time>
      </trkpt>
      <trkpt lat="48.27649" lon="7.40087">
        <ele>190.31</ele>
        <time>2021-06-23T13:28:41Z</time>
      </trkpt>
      <trkpt lat="48.27644" lon="7.40078">
        <ele>190.53</ele>
        <time>2021-06-23T13:28:48Z</time>
      </trkpt>
      <trkpt lat="48.2764" lon="7.40067">
        <ele>191.17</ele>
        <time>2021-06-23T13:28:53Z</time>
      </trkpt>
      <trkpt lat="48.27632" lon="7.40062">
        <ele>191.41</ele>
        <time>2021-06-23T13:28:59Z</time>
      </trkpt>
      <trkpt lat="48.27626" lon="7.40063">
        <ele>191.24</ele>
        <time>2021-06-23T13:29:04Z</time>
      </trkpt>
      <trkpt lat="48.27622" lon="7.40067">
        <ele>191.08</ele>
        <time>2021-06-23T13:29:09Z</time>
      </trkpt>
      <trkpt lat="48.27596" lon="7.40054">
        <ele>191</ele>
        <time>2021-06-23T13:29:15Z</time>
      </trkpt>
      <trkpt lat="48.27579" lon="7.40039">
        <ele>191</ele>
        <time>2021-06-23T13:29:20Z</time>
      </trkpt>
      <trkpt lat="48.27524" lon="7.39983">
        <ele>189.86</ele>
        <time>2021-06-23T13:29:25Z</time>
      </trkpt>
      <trkpt lat="48.2751" lon="7.39974">
        <ele>189.37</ele>
        <time>2021-06-23T13:29:31Z</time>
      </trkpt>
      <trkpt lat="48.27495" lon="7.39966">
        <ele>188.85</ele>
        <time>2021-06-23T13:29:36Z</time>
      </trkpt>
      <trkpt lat="48.27381" lon="7.39931">
        <ele>193</ele>
        <time>2021-06-23T13:29:42Z</time>
      </trkpt>
      <trkpt lat="48.27322" lon="7.39906">
        <ele>192.22</ele>
        <time>2021-06-23T13:29:47Z</time>
      </trkpt>
      <trkpt lat="48.273" lon="7.39904">
        <ele>191.52</ele>
        <time>2021-06-23T13:29:52Z</time>
      </trkpt>
      <trkpt lat="48.27167" lon="7.39921">
        <ele>190</ele>
        <time>2021-06-23T13:29:58Z</time>
      </trkpt>
      <trkpt lat="48.27032" lon="7.3996">
        <ele>191.46</ele>
        <time>2021-06-23T13:30:03Z</time>
      </trkpt>
      <trkpt lat="48.26988" lon="7.39982">
        <ele>191.57</ele>
        <time>2021-06-23T13:30:08Z</time>
      </trkpt>
      <trkpt lat="48.26978" lon="7.39985">
        <ele>191.21</ele>
        <time>2021-06-23T13:30:14Z</time>
      </trkpt>
      <trkpt lat="48.26888" lon="7.39994">
        <ele>187.98</ele>
        <time>2021-06-23T13:30:19Z</time>
      </trkpt>
      <trkpt lat="48.26875" lon="7.39992">
        <ele>187.65</ele>
        <time>2021-06-23T13:30:24Z</time>
      </trkpt>
      <trkpt lat="48.26845" lon="7.39983">
        <ele>188.17</ele>
        <time>2021-06-23T13:30:30Z</time>
      </trkpt>
      <trkpt lat="48.26831" lon="7.39974">
        <ele>189.12</ele>
        <time>2021-06-23T13:30:35Z</time>
      </trkpt>
      <trkpt lat="48.26782" lon="7.39921">
        <ele>190.99</ele>
        <time>2021-06-23T13:30:40Z</time>
      </trkpt>
      <trkpt lat="48.26758" lon="7.39902">
        <ele>193.13</ele>
        <time>2021-06-23T13:30:46Z</time>
      </trkpt>
      <trkpt lat="48.26737" lon="7.39888">
        <ele>195.05</ele>
        <time>2021-06-23T13:30:51Z</time>
      </trkpt>
      <trkpt lat="48.26722" lon="7.39882">
        <ele>195.76</ele>
        <time>2021-06-23T13:30:56Z</time>
      </trkpt>
      <trkpt lat="48.26708" lon="7.39881">
        <ele>196.09</ele>
        <time>2021-06-23T13:31:02Z</time>
      </trkpt>
      <trkpt lat="48.26637" lon="7.39899">
        <ele>199.15</ele>
        <time>2021-06-23T13:31:07Z</time>
      </trkpt>
      <trkpt lat="48.26604" lon="7.39909">
        <ele>200.88</ele>
        <time>2021-06-23T13:31:12Z</time>
      </trkpt>
      <trkpt lat="48.26452" lon="7.39973">
        <ele>200.71</ele>
        <time>2021-06-23T13:31:18Z</time>
      </trkpt>
      <trkpt lat="48.26417" lon="7.39969">
        <ele>201.1</ele>
        <time>2021-06-23T13:31:23Z</time>
      </trkpt>
      <trkpt lat="48.26374" lon="7.39957">
        <ele>203.59</ele>
        <time>2021-06-23T13:31:29Z</time>
      </trkpt>
      <trkpt lat="48.26346" lon="7.39946">
        <ele>205.48</ele>
        <time>2021-06-23T13:31:34Z</time>
      </trkpt>
      <trkpt lat="48.26259" lon="7.39909">
        <ele>207.76</ele>
        <time>2021-06-23T13:31:39Z</time>
      </trkpt>
      <trkpt lat="48.26158" lon="7.39887">
        <ele>207.92</ele>
        <time>2021-06-23T13:31:45Z</time>
      </trkpt>
      <trkpt lat="48.26096" lon="7.39868">
        <ele>206.56</ele>
        <time>2021-06-23T13:31:50Z</time>
      </trkpt>
      <trkpt lat="48.25955" lon="7.39808">
        <ele>204.3</ele>
        <time>2021-06-23T13:31:55Z</time>
      </trkpt>
      <trkpt lat="48.25866" lon="7.39775">
        <ele>204.02</ele>
        <time>2021-06-23T13:32:01Z</time>
      </trkpt>
      <trkpt lat="48.25833" lon="7.39751">
        <ele>204.01</ele>
        <time>2021-06-23T13:32:06Z</time>
      </trkpt>
      <trkpt lat="48.25758" lon="7.39681">
        <ele>208.63</ele>
        <time>2021-06-23T13:32:11Z</time>
      </trkpt>
      <trkpt lat="48.25732" lon="7.39666">
        <ele>207.76</ele>
        <time>2021-06-23T13:32:17Z</time>
      </trkpt>
      <trkpt lat="48.2565" lon="7.39627">
        <ele>205.07</ele>
        <time>2021-06-23T13:32:22Z</time>
      </trkpt>
      <trkpt lat="48.25578" lon="7.39577">
        <ele>206.41</ele>
        <time>2021-06-23T13:32:27Z</time>
      </trkpt>
      <trkpt lat="48.25526" lon="7.39538">
        <ele>208.92</ele>
        <time>2021-06-23T13:32:33Z</time>
      </trkpt>
      <trkpt lat="48.25513" lon="7.39523">
        <ele>208.73</ele>
        <time>2021-06-23T13:32:38Z</time>
      </trkpt>
      <trkpt lat="48.25516" lon="7.39518">
        <ele>209.97</ele>
        <time>2021-06-23T13:32:39Z</time>
      </trkpt>
      <trkpt lat="48.25516" lon="7.39518">
        <ele>209.97</ele>
        <time>2021-06-23T13:32:39Z</time>
      </trkpt>
      <trkpt lat="48.25531" lon="7.39491">
        <ele>211.2</ele>
        <time>2021-06-23T13:32:41Z</time>
      </trkpt>
      <trkpt lat="48.25599" lon="7.39348">
        <ele>217.03</ele>
        <time>2021-06-23T13:32:43Z</time>
      </trkpt>
      <trkpt lat="48.25619" lon="7.39295">
        <ele>219</ele>
        <time>2021-06-23T13:32:45Z</time>
      </trkpt>
      <trkpt lat="48.2564" lon="7.39222">
        <ele>219.08</ele>
        <time>2021-06-23T13:32:48Z</time>
      </trkpt>
      <trkpt lat="48.25639" lon="7.39187">
        <ele>221.55</ele>
        <time>2021-06-23T13:32:50Z</time>
      </trkpt>
      <trkpt lat="48.25628" lon="7.39055">
        <ele>227.41</ele>
        <time>2021-06-23T13:32:52Z</time>
      </trkpt>
      <trkpt lat="48.25627" lon="7.39004">
        <ele>230.97</ele>
        <time>2021-06-23T13:32:55Z</time>
      </trkpt>
      <trkpt lat="48.2562" lon="7.38981">
        <ele>233.05</ele>
        <time>2021-06-23T13:32:57Z</time>
      </trkpt>
      <trkpt lat="48.25615" lon="7.38972">
        <ele>233.93</ele>
        <time>2021-06-23T13:32:59Z</time>
      </trkpt>
      <trkpt lat="48.25608" lon="7.38965">
        <ele>234.8</ele>
        <time>2021-06-23T13:33:01Z</time>
      </trkpt>
      <trkpt lat="48.25574" lon="7.38948">
        <ele>235.72</ele>
        <time>2021-06-23T13:33:04Z</time>
      </trkpt>
      <trkpt lat="48.25551" lon="7.38931">
        <ele>237.58</ele>
        <time>2021-06-23T13:33:06Z</time>
      </trkpt>
      <trkpt lat="48.25521" lon="7.38894">
        <ele>238.24</ele>
        <time>2021-06-23T13:33:08Z</time>
      </trkpt>
      <trkpt lat="48.25499" lon="7.38858">
        <ele>239.62</ele>
        <time>2021-06-23T13:33:10Z</time>
      </trkpt>
      <trkpt lat="48.25483" lon="7.38817">
        <ele>247.25</ele>
        <time>2021-06-23T13:33:13Z</time>
      </trkpt>
      <trkpt lat="48.25476" lon="7.38778">
        <ele>254.07</ele>
        <time>2021-06-23T13:33:15Z</time>
      </trkpt>
      <trkpt lat="48.25476" lon="7.38725">
        <ele>262.42</ele>
        <time>2021-06-23T13:33:17Z</time>
      </trkpt>
      <trkpt lat="48.25488" lon="7.38639">
        <ele>270.99</ele>
        <time>2021-06-23T13:33:19Z</time>
      </trkpt>
      <trkpt lat="48.2551" lon="7.38543">
        <ele>274.53</ele>
        <time>2021-06-23T13:33:22Z</time>
      </trkpt>
      <trkpt lat="48.25528" lon="7.38491">
        <ele>277.79</ele>
        <time>2021-06-23T13:33:24Z</time>
      </trkpt>
      <trkpt lat="48.25531" lon="7.38471">
        <ele>277.77</ele>
        <time>2021-06-23T13:33:26Z</time>
      </trkpt>
      <trkpt lat="48.25527" lon="7.38457">
        <ele>276.5</ele>
        <time>2021-06-23T13:33:28Z</time>
      </trkpt>
      <trkpt lat="48.25518" lon="7.38451">
        <ele>276.94</ele>
        <time>2021-06-23T13:33:31Z</time>
      </trkpt>
      <trkpt lat="48.25509" lon="7.38451">
        <ele>277.67</ele>
        <time>2021-06-23T13:33:33Z</time>
      </trkpt>
      <trkpt lat="48.255" lon="7.38457">
        <ele>277.74</ele>
        <time>2021-06-23T13:33:35Z</time>
      </trkpt>
      <trkpt lat="48.25467" lon="7.3851">
        <ele>279.88</ele>
        <time>2021-06-23T13:33:38Z</time>
      </trkpt>
      <trkpt lat="48.25455" lon="7.38535">
        <ele>280.22</ele>
        <time>2021-06-23T13:33:40Z</time>
      </trkpt>
      <trkpt lat="48.25443" lon="7.38578">
        <ele>278.2</ele>
        <time>2021-06-23T13:33:42Z</time>
      </trkpt>
      <trkpt lat="48.25435" lon="7.3859">
        <ele>281.11</ele>
        <time>2021-06-23T13:33:44Z</time>
      </trkpt>
      <trkpt lat="48.25426" lon="7.38594">
        <ele>285.27</ele>
        <time>2021-06-23T13:33:47Z</time>
      </trkpt>
      <trkpt lat="48.25417" lon="7.38589">
        <ele>290.08</ele>
        <time>2021-06-23T13:33:49Z</time>
      </trkpt>
      <trkpt lat="48.25414" lon="7.38581">
        <ele>292.69</ele>
        <time>2021-06-23T13:33:51Z</time>
      </trkpt>
      <trkpt lat="48.25416" lon="7.38564">
        <ele>293.38</ele>
        <time>2021-06-23T13:33:53Z</time>
      </trkpt>
      <trkpt lat="48.25462" lon="7.38448">
        <ele>292.48</ele>
        <time>2021-06-23T13:33:56Z</time>
      </trkpt>
      <trkpt lat="48.25477" lon="7.384">
        <ele>292.85</ele>
        <time>2021-06-23T13:33:58Z</time>
      </trkpt>
      <trkpt lat="48.2548" lon="7.38374">
        <ele>296.1</ele>
        <time>2021-06-23T13:34:00Z</time>
      </trkpt>
      <trkpt lat="48.25481" lon="7.3833">
        <ele>304.52</ele>
        <time>2021-06-23T13:34:02Z</time>
      </trkpt>
      <trkpt lat="48.25484" lon="7.38305">
        <ele>305.43</ele>
        <time>2021-06-23T13:34:05Z</time>
      </trkpt>
      <trkpt lat="48.25502" lon="7.38239">
        <ele>307.08</ele>
        <time>2021-06-23T13:34:07Z</time>
      </trkpt>
      <trkpt lat="48.25522" lon="7.3818">
        <ele>304.93</ele>
        <time>2021-06-23T13:34:09Z</time>
      </trkpt>
      <trkpt lat="48.2553" lon="7.38142">
        <ele>305.39</ele>
        <time>2021-06-23T13:34:12Z</time>
      </trkpt>
      <trkpt lat="48.25541" lon="7.38018">
        <ele>316.77</ele>
        <time>2021-06-23T13:34:14Z</time>
      </trkpt>
      <trkpt lat="48.25557" lon="7.3793">
        <ele>315.37</ele>
        <time>2021-06-23T13:34:16Z</time>
      </trkpt>
      <trkpt lat="48.25573" lon="7.37874">
        <ele>320.42</ele>
        <time>2021-06-23T13:34:18Z</time>
      </trkpt>
      <trkpt lat="48.25588" lon="7.37848">
        <ele>320.5</ele>
        <time>2021-06-23T13:34:21Z</time>
      </trkpt>
      <trkpt lat="48.25607" lon="7.37828">
        <ele>321.39</ele>
        <time>2021-06-23T13:34:23Z</time>
      </trkpt>
      <trkpt lat="48.25621" lon="7.37808">
        <ele>324.69</ele>
        <time>2021-06-23T13:34:25Z</time>
      </trkpt>
      <trkpt lat="48.25634" lon="7.37778">
        <ele>330.95</ele>
        <time>2021-06-23T13:34:27Z</time>
      </trkpt>
      <trkpt lat="48.25655" lon="7.37708">
        <ele>339.43</ele>
        <time>2021-06-23T13:34:30Z</time>
      </trkpt>
      <trkpt lat="48.25663" lon="7.37665">
        <ele>342.29</ele>
        <time>2021-06-23T13:34:32Z</time>
      </trkpt>
      <trkpt lat="48.25673" lon="7.37638">
        <ele>341.5</ele>
        <time>2021-06-23T13:34:34Z</time>
      </trkpt>
      <trkpt lat="48.25679" lon="7.37629">
        <ele>340.39</ele>
        <time>2021-06-23T13:34:36Z</time>
      </trkpt>
      <trkpt lat="48.25685" lon="7.37627">
        <ele>339.11</ele>
        <time>2021-06-23T13:34:39Z</time>
      </trkpt>
      <trkpt lat="48.25691" lon="7.37626">
        <ele>337.34</ele>
        <time>2021-06-23T13:34:41Z</time>
      </trkpt>
      <trkpt lat="48.25698" lon="7.3763">
        <ele>336.36</ele>
        <time>2021-06-23T13:34:43Z</time>
      </trkpt>
      <trkpt lat="48.25703" lon="7.37638">
        <ele>336.32</ele>
        <time>2021-06-23T13:34:45Z</time>
      </trkpt>
      <trkpt lat="48.25708" lon="7.37657">
        <ele>335.81</ele>
        <time>2021-06-23T13:34:48Z</time>
      </trkpt>
      <trkpt lat="48.25711" lon="7.37687">
        <ele>333.7</ele>
        <time>2021-06-23T13:34:50Z</time>
      </trkpt>
      <trkpt lat="48.25713" lon="7.37716">
        <ele>331.98</ele>
        <time>2021-06-23T13:34:52Z</time>
      </trkpt>
      <trkpt lat="48.25713" lon="7.37843">
        <ele>337.44</ele>
        <time>2021-06-23T13:34:55Z</time>
      </trkpt>
      <trkpt lat="48.25708" lon="7.37878">
        <ele>337.16</ele>
        <time>2021-06-23T13:34:57Z</time>
      </trkpt>
      <trkpt lat="48.2569" lon="7.37931">
        <ele>334.81</ele>
        <time>2021-06-23T13:34:59Z</time>
      </trkpt>
      <trkpt lat="48.25689" lon="7.3795">
        <ele>335.91</ele>
        <time>2021-06-23T13:35:01Z</time>
      </trkpt>
      <trkpt lat="48.25693" lon="7.37958">
        <ele>336.99</ele>
        <time>2021-06-23T13:35:04Z</time>
      </trkpt>
      <trkpt lat="48.25699" lon="7.37964">
        <ele>338.38</ele>
        <time>2021-06-23T13:35:06Z</time>
      </trkpt>
      <trkpt lat="48.25707" lon="7.37964">
        <ele>339.4</ele>
        <time>2021-06-23T13:35:08Z</time>
      </trkpt>
      <trkpt lat="48.25713" lon="7.3796">
        <ele>340.5</ele>
        <time>2021-06-23T13:35:10Z</time>
      </trkpt>
      <trkpt lat="48.2572" lon="7.37951">
        <ele>342.11</ele>
        <time>2021-06-23T13:35:13Z</time>
      </trkpt>
      <trkpt lat="48.25726" lon="7.37933">
        <ele>343.4</ele>
        <time>2021-06-23T13:35:15Z</time>
      </trkpt>
      <trkpt lat="48.25747" lon="7.37853">
        <ele>346.22</ele>
        <time>2021-06-23T13:35:17Z</time>
      </trkpt>
      <trkpt lat="48.25769" lon="7.37745">
        <ele>351.2</ele>
        <time>2021-06-23T13:35:19Z</time>
      </trkpt>
      <trkpt lat="48.25779" lon="7.37715">
        <ele>352.53</ele>
        <time>2021-06-23T13:35:22Z</time>
      </trkpt>
      <trkpt lat="48.25795" lon="7.37683">
        <ele>353.91</ele>
        <time>2021-06-23T13:35:24Z</time>
      </trkpt>
      <trkpt lat="48.25821" lon="7.37652">
        <ele>358.57</ele>
        <time>2021-06-23T13:35:26Z</time>
      </trkpt>
      <trkpt lat="48.25827" lon="7.3764">
        <ele>359.9</ele>
        <time>2021-06-23T13:35:28Z</time>
      </trkpt>
      <trkpt lat="48.2583" lon="7.37628">
        <ele>361.28</ele>
        <time>2021-06-23T13:35:31Z</time>
      </trkpt>
      <trkpt lat="48.25831" lon="7.37616">
        <ele>361.79</ele>
        <time>2021-06-23T13:35:33Z</time>
      </trkpt>
      <trkpt lat="48.25815" lon="7.3753">
        <ele>364.45</ele>
        <time>2021-06-23T13:35:35Z</time>
      </trkpt>
      <trkpt lat="48.25791" lon="7.3733">
        <ele>370.79</ele>
        <time>2021-06-23T13:35:38Z</time>
      </trkpt>
      <trkpt lat="48.25764" lon="7.3705">
        <ele>389.49</ele>
        <time>2021-06-23T13:35:40Z</time>
      </trkpt>
      <trkpt lat="48.25754" lon="7.37011">
        <ele>389.14</ele>
        <time>2021-06-23T13:35:42Z</time>
      </trkpt>
      <trkpt lat="48.2574" lon="7.36979">
        <ele>390.63</ele>
        <time>2021-06-23T13:35:44Z</time>
      </trkpt>
      <trkpt lat="48.25629" lon="7.36839">
        <ele>396.57</ele>
        <time>2021-06-23T13:35:47Z</time>
      </trkpt>
      <trkpt lat="48.25489" lon="7.36645">
        <ele>408.99</ele>
        <time>2021-06-23T13:35:49Z</time>
      </trkpt>
      <trkpt lat="48.25478" lon="7.36624">
        <ele>409.44</ele>
        <time>2021-06-23T13:35:51Z</time>
      </trkpt>
      <trkpt lat="48.2526" lon="7.36105">
        <ele>438.3</ele>
        <time>2021-06-23T13:35:53Z</time>
      </trkpt>
      <trkpt lat="48.25248" lon="7.36081">
        <ele>439.33</ele>
        <time>2021-06-23T13:35:56Z</time>
      </trkpt>
      <trkpt lat="48.25175" lon="7.35963">
        <ele>446.43</ele>
        <time>2021-06-23T13:35:58Z</time>
      </trkpt>
      <trkpt lat="48.2511" lon="7.35853">
        <ele>444.95</ele>
        <time>2021-06-23T13:36:00Z</time>
      </trkpt>
      <trkpt lat="48.25094" lon="7.35816">
        <ele>445.17</ele>
        <time>2021-06-23T13:36:02Z</time>
      </trkpt>
      <trkpt lat="48.25072" lon="7.35737">
        <ele>450.04</ele>
        <time>2021-06-23T13:36:05Z</time>
      </trkpt>
      <trkpt lat="48.25062" lon="7.35715">
        <ele>449.35</ele>
        <time>2021-06-23T13:36:07Z</time>
      </trkpt>
      <trkpt lat="48.25052" lon="7.35699">
        <ele>449.08</ele>
        <time>2021-06-23T13:36:09Z</time>
      </trkpt>
      <trkpt lat="48.2504" lon="7.35686">
        <ele>449.04</ele>
        <time>2021-06-23T13:36:11Z</time>
      </trkpt>
      <trkpt lat="48.24976" lon="7.35637">
        <ele>457.76</ele>
        <time>2021-06-23T13:36:14Z</time>
      </trkpt>
      <trkpt lat="48.24956" lon="7.3563">
        <ele>460.75</ele>
        <time>2021-06-23T13:36:16Z</time>
      </trkpt>
      <trkpt lat="48.24932" lon="7.35639">
        <ele>463.68</ele>
        <time>2021-06-23T13:36:18Z</time>
      </trkpt>
      <trkpt lat="48.24918" lon="7.35662">
        <ele>465.89</ele>
        <time>2021-06-23T13:36:21Z</time>
      </trkpt>
      <trkpt lat="48.24878" lon="7.35812">
        <ele>470.61</ele>
        <time>2021-06-23T13:36:23Z</time>
      </trkpt>
      <trkpt lat="48.24874" lon="7.35819">
        <ele>470.95</ele>
        <time>2021-06-23T13:36:25Z</time>
      </trkpt>
      <trkpt lat="48.24866" lon="7.35827">
        <ele>472.51</ele>
        <time>2021-06-23T13:36:27Z</time>
      </trkpt>
      <trkpt lat="48.24856" lon="7.35827">
        <ele>475.18</ele>
        <time>2021-06-23T13:36:30Z</time>
      </trkpt>
      <trkpt lat="48.24851" lon="7.35823">
        <ele>477.47</ele>
        <time>2021-06-23T13:36:32Z</time>
      </trkpt>
      <trkpt lat="48.24845" lon="7.35809">
        <ele>480.71</ele>
        <time>2021-06-23T13:36:34Z</time>
      </trkpt>
      <trkpt lat="48.24845" lon="7.35803">
        <ele>481.71</ele>
        <time>2021-06-23T13:36:36Z</time>
      </trkpt>
      <trkpt lat="48.24846" lon="7.35793">
        <ele>482.48</ele>
        <time>2021-06-23T13:36:39Z</time>
      </trkpt>
      <trkpt lat="48.24851" lon="7.35781">
        <ele>482.25</ele>
        <time>2021-06-23T13:36:41Z</time>
      </trkpt>
      <trkpt lat="48.24871" lon="7.35713">
        <ele>480.41</ele>
        <time>2021-06-23T13:36:43Z</time>
      </trkpt>
      <trkpt lat="48.24874" lon="7.35693">
        <ele>480.72</ele>
        <time>2021-06-23T13:36:45Z</time>
      </trkpt>
      <trkpt lat="48.24878" lon="7.3565">
        <ele>480.17</ele>
        <time>2021-06-23T13:36:48Z</time>
      </trkpt>
      <trkpt lat="48.24878" lon="7.35599">
        <ele>481.63</ele>
        <time>2021-06-23T13:36:50Z</time>
      </trkpt>
      <trkpt lat="48.24861" lon="7.35436">
        <ele>485.63</ele>
        <time>2021-06-23T13:36:52Z</time>
      </trkpt>
      <trkpt lat="48.24859" lon="7.35399">
        <ele>489.57</ele>
        <time>2021-06-23T13:36:55Z</time>
      </trkpt>
      <trkpt lat="48.24863" lon="7.35341">
        <ele>495.41</ele>
        <time>2021-06-23T13:36:57Z</time>
      </trkpt>
      <trkpt lat="48.24862" lon="7.35281">
        <ele>495.64</ele>
        <time>2021-06-23T13:36:59Z</time>
      </trkpt>
      <trkpt lat="48.24857" lon="7.35167">
        <ele>509.63</ele>
        <time>2021-06-23T13:37:01Z</time>
      </trkpt>
      <trkpt lat="48.24858" lon="7.35147">
        <ele>510.34</ele>
        <time>2021-06-23T13:37:04Z</time>
      </trkpt>
      <trkpt lat="48.2486" lon="7.35141">
        <ele>510.2</ele>
        <time>2021-06-23T13:37:06Z</time>
      </trkpt>
      <trkpt lat="48.24866" lon="7.35133">
        <ele>511.07</ele>
        <time>2021-06-23T13:37:08Z</time>
      </trkpt>
      <trkpt lat="48.24879" lon="7.35125">
        <ele>511.53</ele>
        <time>2021-06-23T13:37:10Z</time>
      </trkpt>
      <trkpt lat="48.24954" lon="7.35106">
        <ele>519.26</ele>
        <time>2021-06-23T13:37:13Z</time>
      </trkpt>
      <trkpt lat="48.24969" lon="7.35098">
        <ele>521.63</ele>
        <time>2021-06-23T13:37:15Z</time>
      </trkpt>
      <trkpt lat="48.25015" lon="7.35058">
        <ele>527.51</ele>
        <time>2021-06-23T13:37:17Z</time>
      </trkpt>
      <trkpt lat="48.25039" lon="7.35047">
        <ele>528.02</ele>
        <time>2021-06-23T13:37:19Z</time>
      </trkpt>
      <trkpt lat="48.25071" lon="7.35038">
        <ele>525.81</ele>
        <time>2021-06-23T13:37:22Z</time>
      </trkpt>
      <trkpt lat="48.25077" lon="7.35034">
        <ele>525.58</ele>
        <time>2021-06-23T13:37:24Z</time>
      </trkpt>
      <trkpt lat="48.25083" lon="7.35028">
        <ele>525.97</ele>
        <time>2021-06-23T13:37:26Z</time>
      </trkpt>
      <trkpt lat="48.25088" lon="7.35017">
        <ele>527.09</ele>
        <time>2021-06-23T13:37:28Z</time>
      </trkpt>
      <trkpt lat="48.25088" lon="7.35004">
        <ele>529.62</ele>
        <time>2021-06-23T13:37:31Z</time>
      </trkpt>
      <trkpt lat="48.25085" lon="7.34995">
        <ele>532.1</ele>
        <time>2021-06-23T13:37:33Z</time>
      </trkpt>
      <trkpt lat="48.25077" lon="7.3499">
        <ele>536.24</ele>
        <time>2021-06-23T13:37:35Z</time>
      </trkpt>
      <trkpt lat="48.25068" lon="7.3499">
        <ele>539.33</ele>
        <time>2021-06-23T13:37:38Z</time>
      </trkpt>
      <trkpt lat="48.25063" lon="7.34993">
        <ele>540.06</ele>
        <time>2021-06-23T13:37:40Z</time>
      </trkpt>
      <trkpt lat="48.25055" lon="7.35005">
        <ele>539.06</ele>
        <time>2021-06-23T13:37:42Z</time>
      </trkpt>
      <trkpt lat="48.25043" lon="7.35017">
        <ele>535.61</ele>
        <time>2021-06-23T13:37:44Z</time>
      </trkpt>
      <trkpt lat="48.25035" lon="7.35022">
        <ele>534.53</ele>
        <time>2021-06-23T13:37:47Z</time>
      </trkpt>
      <trkpt lat="48.24981" lon="7.35042">
        <ele>535.24</ele>
        <time>2021-06-23T13:37:49Z</time>
      </trkpt>
      <trkpt lat="48.24966" lon="7.35044">
        <ele>536.78</ele>
        <time>2021-06-23T13:37:51Z</time>
      </trkpt>
      <trkpt lat="48.24942" lon="7.35039">
        <ele>539.9</ele>
        <time>2021-06-23T13:37:53Z</time>
      </trkpt>
      <trkpt lat="48.24899" lon="7.35049">
        <ele>534.3</ele>
        <time>2021-06-23T13:37:56Z</time>
      </trkpt>
      <trkpt lat="48.24891" lon="7.35046">
        <ele>535.36</ele>
        <time>2021-06-23T13:37:58Z</time>
      </trkpt>
      <trkpt lat="48.24879" lon="7.35037">
        <ele>539.87</ele>
        <time>2021-06-23T13:38:00Z</time>
      </trkpt>
      <trkpt lat="48.24858" lon="7.35014">
        <ele>547.85</ele>
        <time>2021-06-23T13:38:02Z</time>
      </trkpt>
      <trkpt lat="48.24834" lon="7.35006">
        <ele>545.44</ele>
        <time>2021-06-23T13:38:05Z</time>
      </trkpt>
      <trkpt lat="48.2482" lon="7.34996">
        <ele>544.49</ele>
        <time>2021-06-23T13:38:07Z</time>
      </trkpt>
      <trkpt lat="48.24805" lon="7.34972">
        <ele>546.87</ele>
        <time>2021-06-23T13:38:09Z</time>
      </trkpt>
      <trkpt lat="48.24737" lon="7.34821">
        <ele>561.71</ele>
        <time>2021-06-23T13:38:11Z</time>
      </trkpt>
      <trkpt lat="48.24704" lon="7.34757">
        <ele>560.95</ele>
        <time>2021-06-23T13:38:14Z</time>
      </trkpt>
      <trkpt lat="48.24685" lon="7.34724">
        <ele>560</ele>
        <time>2021-06-23T13:38:16Z</time>
      </trkpt>
      <trkpt lat="48.24677" lon="7.34702">
        <ele>560.32</ele>
        <time>2021-06-23T13:38:18Z</time>
      </trkpt>
      <trkpt lat="48.24672" lon="7.3466">
        <ele>563.01</ele>
        <time>2021-06-23T13:38:21Z</time>
      </trkpt>
      <trkpt lat="48.24669" lon="7.34569">
        <ele>571.09</ele>
        <time>2021-06-23T13:38:23Z</time>
      </trkpt>
      <trkpt lat="48.24664" lon="7.34478">
        <ele>577.55</ele>
        <time>2021-06-23T13:38:25Z</time>
      </trkpt>
      <trkpt lat="48.24662" lon="7.34402">
        <ele>583.16</ele>
        <time>2021-06-23T13:38:27Z</time>
      </trkpt>
      <trkpt lat="48.24663" lon="7.34324">
        <ele>591.01</ele>
        <time>2021-06-23T13:38:30Z</time>
      </trkpt>
      <trkpt lat="48.24656" lon="7.34216">
        <ele>592.94</ele>
        <time>2021-06-23T13:38:32Z</time>
      </trkpt>
      <trkpt lat="48.24667" lon="7.34055">
        <ele>599.22</ele>
        <time>2021-06-23T13:38:34Z</time>
      </trkpt>
      <trkpt lat="48.24669" lon="7.33972">
        <ele>600.27</ele>
        <time>2021-06-23T13:38:36Z</time>
      </trkpt>
      <trkpt lat="48.24677" lon="7.33873">
        <ele>608.71</ele>
        <time>2021-06-23T13:38:39Z</time>
      </trkpt>
      <trkpt lat="48.2468" lon="7.33762">
        <ele>617.32</ele>
        <time>2021-06-23T13:38:41Z</time>
      </trkpt>
      <trkpt lat="48.24678" lon="7.33648">
        <ele>621.02</ele>
        <time>2021-06-23T13:38:43Z</time>
      </trkpt>
      <trkpt lat="48.24682" lon="7.33578">
        <ele>621.03</ele>
        <time>2021-06-23T13:38:45Z</time>
      </trkpt>
      <trkpt lat="48.24682" lon="7.33506">
        <ele>621.72</ele>
        <time>2021-06-23T13:38:48Z</time>
      </trkpt>
      <trkpt lat="48.24686" lon="7.33452">
        <ele>627.87</ele>
        <time>2021-06-23T13:38:50Z</time>
      </trkpt>
      <trkpt lat="48.24696" lon="7.3339">
        <ele>631.73</ele>
        <time>2021-06-23T13:38:52Z</time>
      </trkpt>
      <trkpt lat="48.24702" lon="7.3337">
        <ele>632.17</ele>
        <time>2021-06-23T13:38:55Z</time>
      </trkpt>
      <trkpt lat="48.24712" lon="7.33352">
        <ele>633.7</ele>
        <time>2021-06-23T13:38:57Z</time>
      </trkpt>
      <trkpt lat="48.24721" lon="7.33343">
        <ele>635.07</ele>
        <time>2021-06-23T13:38:59Z</time>
      </trkpt>
      <trkpt lat="48.24727" lon="7.3334">
        <ele>635.65</ele>
        <time>2021-06-23T13:39:01Z</time>
      </trkpt>
      <trkpt lat="48.24735" lon="7.3334">
        <ele>636.68</ele>
        <time>2021-06-23T13:39:04Z</time>
      </trkpt>
      <trkpt lat="48.2476" lon="7.33355">
        <ele>642.32</ele>
        <time>2021-06-23T13:39:06Z</time>
      </trkpt>
      <trkpt lat="48.24842" lon="7.33443">
        <ele>652.28</ele>
        <time>2021-06-23T13:39:08Z</time>
      </trkpt>
      <trkpt lat="48.24852" lon="7.33459">
        <ele>652.92</ele>
        <time>2021-06-23T13:39:10Z</time>
      </trkpt>
      <trkpt lat="48.24853" lon="7.33476">
        <ele>654.43</ele>
        <time>2021-06-23T13:39:13Z</time>
      </trkpt>
      <trkpt lat="48.2485" lon="7.33486">
        <ele>655.45</ele>
        <time>2021-06-23T13:39:15Z</time>
      </trkpt>
      <trkpt lat="48.24846" lon="7.33489">
        <ele>655.83</ele>
        <time>2021-06-23T13:39:17Z</time>
      </trkpt>
      <trkpt lat="48.24842" lon="7.33492">
        <ele>656.1</ele>
        <time>2021-06-23T13:39:19Z</time>
      </trkpt>
      <trkpt lat="48.24803" lon="7.33487">
        <ele>656.45</ele>
        <time>2021-06-23T13:39:22Z</time>
      </trkpt>
      <trkpt lat="48.24788" lon="7.33488">
        <ele>656.01</ele>
        <time>2021-06-23T13:39:24Z</time>
      </trkpt>
      <trkpt lat="48.24779" lon="7.33493">
        <ele>655.81</ele>
        <time>2021-06-23T13:39:26Z</time>
      </trkpt>
      <trkpt lat="48.24771" lon="7.33499">
        <ele>654.61</ele>
        <time>2021-06-23T13:39:28Z</time>
      </trkpt>
      <trkpt lat="48.24766" lon="7.33508">
        <ele>653.91</ele>
        <time>2021-06-23T13:39:31Z</time>
      </trkpt>
      <trkpt lat="48.24763" lon="7.33524">
        <ele>654</ele>
        <time>2021-06-23T13:39:33Z</time>
      </trkpt>
      <trkpt lat="48.24761" lon="7.3356">
        <ele>655.95</ele>
        <time>2021-06-23T13:39:35Z</time>
      </trkpt>
      <trkpt lat="48.24765" lon="7.33648">
        <ele>661.22</ele>
        <time>2021-06-23T13:39:38Z</time>
      </trkpt>
      <trkpt lat="48.24773" lon="7.33718">
        <ele>668.91</ele>
        <time>2021-06-23T13:39:40Z</time>
      </trkpt>
      <trkpt lat="48.2479" lon="7.33841">
        <ele>675.03</ele>
        <time>2021-06-23T13:39:42Z</time>
      </trkpt>
      <trkpt lat="48.2483" lon="7.34095">
        <ele>688.19</ele>
        <time>2021-06-23T13:39:44Z</time>
      </trkpt>
      <trkpt lat="48.24863" lon="7.34343">
        <ele>696.3</ele>
        <time>2021-06-23T13:39:47Z</time>
      </trkpt>
      <trkpt lat="48.24874" lon="7.34403">
        <ele>699.82</ele>
        <time>2021-06-23T13:39:49Z</time>
      </trkpt>
      <trkpt lat="48.24907" lon="7.34545">
        <ele>699.9</ele>
        <time>2021-06-23T13:39:51Z</time>
      </trkpt>
      <trkpt lat="48.24925" lon="7.34601">
        <ele>698.68</ele>
        <time>2021-06-23T13:39:53Z</time>
      </trkpt>
      <trkpt lat="48.24941" lon="7.34628">
        <ele>699.42</ele>
        <time>2021-06-23T13:39:56Z</time>
      </trkpt>
      <trkpt lat="48.24946" lon="7.3463">
        <ele>700.42</ele>
        <time>2021-06-23T13:39:58Z</time>
      </trkpt>
      <trkpt lat="48.24955" lon="7.34626">
        <ele>701.82</ele>
        <time>2021-06-23T13:40:00Z</time>
      </trkpt>
      <trkpt lat="48.24968" lon="7.34614">
        <ele>704.41</ele>
        <time>2021-06-23T13:40:02Z</time>
      </trkpt>
      <trkpt lat="48.24975" lon="7.34601">
        <ele>706.25</ele>
        <time>2021-06-23T13:40:05Z</time>
      </trkpt>
      <trkpt lat="48.24982" lon="7.34584">
        <ele>708.42</ele>
        <time>2021-06-23T13:40:07Z</time>
      </trkpt>
      <trkpt lat="48.24997" lon="7.34525">
        <ele>709.66</ele>
        <time>2021-06-23T13:40:09Z</time>
      </trkpt>
      <trkpt lat="48.25003" lon="7.34477">
        <ele>714.08</ele>
        <time>2021-06-23T13:40:11Z</time>
      </trkpt>
      <trkpt lat="48.25008" lon="7.34367">
        <ele>708.4</ele>
        <time>2021-06-23T13:40:14Z</time>
      </trkpt>
      <trkpt lat="48.25008" lon="7.34282">
        <ele>709.97</ele>
        <time>2021-06-23T13:40:16Z</time>
      </trkpt>
      <trkpt lat="48.25008" lon="7.34282">
        <ele>709.97</ele>
        <time>2021-06-23T13:40:16Z</time>
      </trkpt>
      <trkpt lat="48.25009" lon="7.34216">
        <ele>712.45</ele>
        <time>2021-06-23T13:40:20Z</time>
      </trkpt>
      <trkpt lat="48.25025" lon="7.33904">
        <ele>689.91</ele>
        <time>2021-06-23T13:40:24Z</time>
      </trkpt>
      <trkpt lat="48.25022" lon="7.3382">
        <ele>677.83</ele>
        <time>2021-06-23T13:40:29Z</time>
      </trkpt>
      <trkpt lat="48.25016" lon="7.33759">
        <ele>670.32</ele>
        <time>2021-06-23T13:40:33Z</time>
      </trkpt>
      <trkpt lat="48.24998" lon="7.33701">
        <ele>672.93</ele>
        <time>2021-06-23T13:40:37Z</time>
      </trkpt>
      <trkpt lat="48.24948" lon="7.33618">
        <ele>663.41</ele>
        <time>2021-06-23T13:40:41Z</time>
      </trkpt>
      <trkpt lat="48.24888" lon="7.33531">
        <ele>661.79</ele>
        <time>2021-06-23T13:40:45Z</time>
      </trkpt>
      <trkpt lat="48.24852" lon="7.33459">
        <ele>652.92</ele>
        <time>2021-06-23T13:40:50Z</time>
      </trkpt>
      <trkpt lat="48.24842" lon="7.33443">
        <ele>652.28</ele>
        <time>2021-06-23T13:40:54Z</time>
      </trkpt>
      <trkpt lat="48.2476" lon="7.33355">
        <ele>642.32</ele>
        <time>2021-06-23T13:40:58Z</time>
      </trkpt>
      <trkpt lat="48.24735" lon="7.3334">
        <ele>636.68</ele>
        <time>2021-06-23T13:41:02Z</time>
      </trkpt>
      <trkpt lat="48.24727" lon="7.3334">
        <ele>635.65</ele>
        <time>2021-06-23T13:41:06Z</time>
      </trkpt>
      <trkpt lat="48.24721" lon="7.33343">
        <ele>635.07</ele>
        <time>2021-06-23T13:41:11Z</time>
      </trkpt>
      <trkpt lat="48.24712" lon="7.33352">
        <ele>633.7</ele>
        <time>2021-06-23T13:41:15Z</time>
      </trkpt>
      <trkpt lat="48.24702" lon="7.3337">
        <ele>632.17</ele>
        <time>2021-06-23T13:41:19Z</time>
      </trkpt>
      <trkpt lat="48.24696" lon="7.3339">
        <ele>631.73</ele>
        <time>2021-06-23T13:41:23Z</time>
      </trkpt>
      <trkpt lat="48.24686" lon="7.33452">
        <ele>627.87</ele>
        <time>2021-06-23T13:41:27Z</time>
      </trkpt>
      <trkpt lat="48.24682" lon="7.33506">
        <ele>621.72</ele>
        <time>2021-06-23T13:41:32Z</time>
      </trkpt>
      <trkpt lat="48.24682" lon="7.33578">
        <ele>621.03</ele>
        <time>2021-06-23T13:41:36Z</time>
      </trkpt>
      <trkpt lat="48.24678" lon="7.33648">
        <ele>621.02</ele>
        <time>2021-06-23T13:41:40Z</time>
      </trkpt>
      <trkpt lat="48.2468" lon="7.33762">
        <ele>617.32</ele>
        <time>2021-06-23T13:41:44Z</time>
      </trkpt>
      <trkpt lat="48.24677" lon="7.33873">
        <ele>608.71</ele>
        <time>2021-06-23T13:41:48Z</time>
      </trkpt>
      <trkpt lat="48.24669" lon="7.33972">
        <ele>600.27</ele>
        <time>2021-06-23T13:41:53Z</time>
      </trkpt>
      <trkpt lat="48.24667" lon="7.34055">
        <ele>599.22</ele>
        <time>2021-06-23T13:41:57Z</time>
      </trkpt>
      <trkpt lat="48.24656" lon="7.34216">
        <ele>592.94</ele>
        <time>2021-06-23T13:42:01Z</time>
      </trkpt>
      <trkpt lat="48.24663" lon="7.34324">
        <ele>591.01</ele>
        <time>2021-06-23T13:42:05Z</time>
      </trkpt>
      <trkpt lat="48.24662" lon="7.34402">
        <ele>583.16</ele>
        <time>2021-06-23T13:42:09Z</time>
      </trkpt>
      <trkpt lat="48.24664" lon="7.34478">
        <ele>577.55</ele>
        <time>2021-06-23T13:42:13Z</time>
      </trkpt>
      <trkpt lat="48.24669" lon="7.34569">
        <ele>571.09</ele>
        <time>2021-06-23T13:42:18Z</time>
      </trkpt>
      <trkpt lat="48.24672" lon="7.3466">
        <ele>563.01</ele>
        <time>2021-06-23T13:42:22Z</time>
      </trkpt>
      <trkpt lat="48.24677" lon="7.34702">
        <ele>560.32</ele>
        <time>2021-06-23T13:42:26Z</time>
      </trkpt>
      <trkpt lat="48.24655" lon="7.34699">
        <ele>553.44</ele>
        <time>2021-06-23T13:42:27Z</time>
      </trkpt>
      <trkpt lat="48.24646" lon="7.34691">
        <ele>551.05</ele>
        <time>2021-06-23T13:42:29Z</time>
      </trkpt>
      <trkpt lat="48.24643" lon="7.3468">
        <ele>550.77</ele>
        <time>2021-06-23T13:42:30Z</time>
      </trkpt>
      <trkpt lat="48.24642" lon="7.34667">
        <ele>552.05</ele>
        <time>2021-06-23T13:42:32Z</time>
      </trkpt>
      <trkpt lat="48.24649" lon="7.34628">
        <ele>557.03</ele>
        <time>2021-06-23T13:42:33Z</time>
      </trkpt>
      <trkpt lat="48.24649" lon="7.34612">
        <ele>558.4</ele>
        <time>2021-06-23T13:42:35Z</time>
      </trkpt>
      <trkpt lat="48.24632" lon="7.34507">
        <ele>564.8</ele>
        <time>2021-06-23T13:42:36Z</time>
      </trkpt>
      <trkpt lat="48.24627" lon="7.34489">
        <ele>564.28</ele>
        <time>2021-06-23T13:42:37Z</time>
      </trkpt>
      <trkpt lat="48.24586" lon="7.34381">
        <ele>559.9</ele>
        <time>2021-06-23T13:42:39Z</time>
      </trkpt>
      <trkpt lat="48.24575" lon="7.34342">
        <ele>560.76</ele>
        <time>2021-06-23T13:42:40Z</time>
      </trkpt>
      <trkpt lat="48.24554" lon="7.3413">
        <ele>554.43</ele>
        <time>2021-06-23T13:42:42Z</time>
      </trkpt>
      <trkpt lat="48.24524" lon="7.34003">
        <ele>543.43</ele>
        <time>2021-06-23T13:42:43Z</time>
      </trkpt>
      <trkpt lat="48.24521" lon="7.33973">
        <ele>542.42</ele>
        <time>2021-06-23T13:42:45Z</time>
      </trkpt>
      <trkpt lat="48.24527" lon="7.33895">
        <ele>542.13</ele>
        <time>2021-06-23T13:42:46Z</time>
      </trkpt>
      <trkpt lat="48.24526" lon="7.33878">
        <ele>543.59</ele>
        <time>2021-06-23T13:42:47Z</time>
      </trkpt>
      <trkpt lat="48.24523" lon="7.33861">
        <ele>544.45</ele>
        <time>2021-06-23T13:42:49Z</time>
      </trkpt>
      <trkpt lat="48.24514" lon="7.3384">
        <ele>542.65</ele>
        <time>2021-06-23T13:42:50Z</time>
      </trkpt>
      <trkpt lat="48.24499" lon="7.33819">
        <ele>537.23</ele>
        <time>2021-06-23T13:42:52Z</time>
      </trkpt>
      <trkpt lat="48.24493" lon="7.33806">
        <ele>536.04</ele>
        <time>2021-06-23T13:42:53Z</time>
      </trkpt>
      <trkpt lat="48.2449" lon="7.3379">
        <ele>535.84</ele>
        <time>2021-06-23T13:42:54Z</time>
      </trkpt>
      <trkpt lat="48.24489" lon="7.33735">
        <ele>536.21</ele>
        <time>2021-06-23T13:42:56Z</time>
      </trkpt>
      <trkpt lat="48.24485" lon="7.33713">
        <ele>534.33</ele>
        <time>2021-06-23T13:42:57Z</time>
      </trkpt>
      <trkpt lat="48.24479" lon="7.33703">
        <ele>531.36</ele>
        <time>2021-06-23T13:42:59Z</time>
      </trkpt>
      <trkpt lat="48.24473" lon="7.337">
        <ele>528.3</ele>
        <time>2021-06-23T13:43:00Z</time>
      </trkpt>
      <trkpt lat="48.24464" lon="7.33705">
        <ele>525.78</ele>
        <time>2021-06-23T13:43:02Z</time>
      </trkpt>
      <trkpt lat="48.24457" lon="7.33719">
        <ele>523.9</ele>
        <time>2021-06-23T13:43:03Z</time>
      </trkpt>
      <trkpt lat="48.24455" lon="7.33734">
        <ele>523.78</ele>
        <time>2021-06-23T13:43:05Z</time>
      </trkpt>
      <trkpt lat="48.24458" lon="7.33751">
        <ele>525.23</ele>
        <time>2021-06-23T13:43:06Z</time>
      </trkpt>
      <trkpt lat="48.24466" lon="7.33769">
        <ele>527.18</ele>
        <time>2021-06-23T13:43:07Z</time>
      </trkpt>
      <trkpt lat="48.24482" lon="7.33835">
        <ele>525.14</ele>
        <time>2021-06-23T13:43:09Z</time>
      </trkpt>
      <trkpt lat="48.24486" lon="7.33863">
        <ele>522.58</ele>
        <time>2021-06-23T13:43:10Z</time>
      </trkpt>
      <trkpt lat="48.24484" lon="7.33886">
        <ele>521.24</ele>
        <time>2021-06-23T13:43:12Z</time>
      </trkpt>
      <trkpt lat="48.24465" lon="7.33971">
        <ele>517</ele>
        <time>2021-06-23T13:43:13Z</time>
      </trkpt>
      <trkpt lat="48.24427" lon="7.34116">
        <ele>506.52</ele>
        <time>2021-06-23T13:43:15Z</time>
      </trkpt>
      <trkpt lat="48.24395" lon="7.34245">
        <ele>499.7</ele>
        <time>2021-06-23T13:43:16Z</time>
      </trkpt>
      <trkpt lat="48.24396" lon="7.34264">
        <ele>498.45</ele>
        <time>2021-06-23T13:43:18Z</time>
      </trkpt>
      <trkpt lat="48.24405" lon="7.34302">
        <ele>497.4</ele>
        <time>2021-06-23T13:43:19Z</time>
      </trkpt>
      <trkpt lat="48.24422" lon="7.34356">
        <ele>497.97</ele>
        <time>2021-06-23T13:43:20Z</time>
      </trkpt>
      <trkpt lat="48.24423" lon="7.34404">
        <ele>492.93</ele>
        <time>2021-06-23T13:43:22Z</time>
      </trkpt>
      <trkpt lat="48.24404" lon="7.34508">
        <ele>480.71</ele>
        <time>2021-06-23T13:43:23Z</time>
      </trkpt>
      <trkpt lat="48.24404" lon="7.34546">
        <ele>476.94</ele>
        <time>2021-06-23T13:43:25Z</time>
      </trkpt>
      <trkpt lat="48.24409" lon="7.34566">
        <ele>476.42</ele>
        <time>2021-06-23T13:43:26Z</time>
      </trkpt>
      <trkpt lat="48.24418" lon="7.34592">
        <ele>477.54</ele>
        <time>2021-06-23T13:43:28Z</time>
      </trkpt>
      <trkpt lat="48.24431" lon="7.3462">
        <ele>480.67</ele>
        <time>2021-06-23T13:43:29Z</time>
      </trkpt>
      <trkpt lat="48.24436" lon="7.34636">
        <ele>480.58</ele>
        <time>2021-06-23T13:43:30Z</time>
      </trkpt>
      <trkpt lat="48.24436" lon="7.34654">
        <ele>477.66</ele>
        <time>2021-06-23T13:43:32Z</time>
      </trkpt>
      <trkpt lat="48.24433" lon="7.34673">
        <ele>473.23</ele>
        <time>2021-06-23T13:43:33Z</time>
      </trkpt>
      <trkpt lat="48.24404" lon="7.34737">
        <ele>461.73</ele>
        <time>2021-06-23T13:43:35Z</time>
      </trkpt>
      <trkpt lat="48.244" lon="7.34751">
        <ele>461.67</ele>
        <time>2021-06-23T13:43:36Z</time>
      </trkpt>
      <trkpt lat="48.24389" lon="7.34837">
        <ele>463.23</ele>
        <time>2021-06-23T13:43:38Z</time>
      </trkpt>
      <trkpt lat="48.24383" lon="7.34869">
        <ele>461.78</ele>
        <time>2021-06-23T13:43:39Z</time>
      </trkpt>
      <trkpt lat="48.24354" lon="7.34988">
        <ele>454.26</ele>
        <time>2021-06-23T13:43:41Z</time>
      </trkpt>
      <trkpt lat="48.24352" lon="7.3501">
        <ele>450.81</ele>
        <time>2021-06-23T13:43:42Z</time>
      </trkpt>
      <trkpt lat="48.24354" lon="7.35031">
        <ele>448.1</ele>
        <time>2021-06-23T13:43:43Z</time>
      </trkpt>
      <trkpt lat="48.24363" lon="7.35051">
        <ele>448.08</ele>
        <time>2021-06-23T13:43:45Z</time>
      </trkpt>
      <trkpt lat="48.24378" lon="7.3507">
        <ele>450.58</ele>
        <time>2021-06-23T13:43:46Z</time>
      </trkpt>
      <trkpt lat="48.24403" lon="7.35089">
        <ele>454.3</ele>
        <time>2021-06-23T13:43:48Z</time>
      </trkpt>
      <trkpt lat="48.24409" lon="7.35101">
        <ele>452.93</ele>
        <time>2021-06-23T13:43:49Z</time>
      </trkpt>
      <trkpt lat="48.24411" lon="7.35112">
        <ele>450.62</ele>
        <time>2021-06-23T13:43:51Z</time>
      </trkpt>
      <trkpt lat="48.2441" lon="7.35124">
        <ele>447.87</ele>
        <time>2021-06-23T13:43:52Z</time>
      </trkpt>
      <trkpt lat="48.24405" lon="7.35133">
        <ele>444.68</ele>
        <time>2021-06-23T13:43:54Z</time>
      </trkpt>
      <trkpt lat="48.24389" lon="7.35141">
        <ele>439.77</ele>
        <time>2021-06-23T13:43:55Z</time>
      </trkpt>
      <trkpt lat="48.24381" lon="7.35142">
        <ele>438.67</ele>
        <time>2021-06-23T13:43:56Z</time>
      </trkpt>
      <trkpt lat="48.24366" lon="7.35137">
        <ele>437.92</ele>
        <time>2021-06-23T13:43:58Z</time>
      </trkpt>
      <trkpt lat="48.24356" lon="7.3513">
        <ele>437.67</ele>
        <time>2021-06-23T13:43:59Z</time>
      </trkpt>
      <trkpt lat="48.24343" lon="7.35117">
        <ele>437.16</ele>
        <time>2021-06-23T13:44:01Z</time>
      </trkpt>
      <trkpt lat="48.24314" lon="7.35061">
        <ele>436.67</ele>
        <time>2021-06-23T13:44:02Z</time>
      </trkpt>
      <trkpt lat="48.24282" lon="7.34986">
        <ele>430.39</ele>
        <time>2021-06-23T13:44:04Z</time>
      </trkpt>
      <trkpt lat="48.24274" lon="7.34961">
        <ele>428.1</ele>
        <time>2021-06-23T13:44:05Z</time>
      </trkpt>
      <trkpt lat="48.24271" lon="7.34938">
        <ele>426.95</ele>
        <time>2021-06-23T13:44:07Z</time>
      </trkpt>
      <trkpt lat="48.2427" lon="7.34922">
        <ele>426.18</ele>
        <time>2021-06-23T13:44:08Z</time>
      </trkpt>
      <trkpt lat="48.24273" lon="7.34903">
        <ele>426.08</ele>
        <time>2021-06-23T13:44:09Z</time>
      </trkpt>
      <trkpt lat="48.24289" lon="7.34854">
        <ele>426.78</ele>
        <time>2021-06-23T13:44:11Z</time>
      </trkpt>
      <trkpt lat="48.2429" lon="7.34842">
        <ele>425.85</ele>
        <time>2021-06-23T13:44:12Z</time>
      </trkpt>
      <trkpt lat="48.24288" lon="7.34831">
        <ele>424.33</ele>
        <time>2021-06-23T13:44:14Z</time>
      </trkpt>
      <trkpt lat="48.24284" lon="7.34822">
        <ele>422.85</ele>
        <time>2021-06-23T13:44:15Z</time>
      </trkpt>
      <trkpt lat="48.24277" lon="7.34817">
        <ele>420.73</ele>
        <time>2021-06-23T13:44:17Z</time>
      </trkpt>
      <trkpt lat="48.2427" lon="7.34815">
        <ele>418.73</ele>
        <time>2021-06-23T13:44:18Z</time>
      </trkpt>
      <trkpt lat="48.24261" lon="7.34818">
        <ele>415.77</ele>
        <time>2021-06-23T13:44:20Z</time>
      </trkpt>
      <trkpt lat="48.24254" lon="7.34826">
        <ele>413.59</ele>
        <time>2021-06-23T13:44:21Z</time>
      </trkpt>
      <trkpt lat="48.2425" lon="7.3484">
        <ele>412.11</ele>
        <time>2021-06-23T13:44:22Z</time>
      </trkpt>
      <trkpt lat="48.24246" lon="7.34879">
        <ele>412.43</ele>
        <time>2021-06-23T13:44:24Z</time>
      </trkpt>
      <trkpt lat="48.24222" lon="7.34981">
        <ele>411.04</ele>
        <time>2021-06-23T13:44:25Z</time>
      </trkpt>
      <trkpt lat="48.24218" lon="7.35014">
        <ele>409.27</ele>
        <time>2021-06-23T13:44:27Z</time>
      </trkpt>
      <trkpt lat="48.24218" lon="7.35044">
        <ele>407.58</ele>
        <time>2021-06-23T13:44:28Z</time>
      </trkpt>
      <trkpt lat="48.24227" lon="7.35148">
        <ele>407.78</ele>
        <time>2021-06-23T13:44:30Z</time>
      </trkpt>
      <trkpt lat="48.24227" lon="7.35173">
        <ele>406.57</ele>
        <time>2021-06-23T13:44:31Z</time>
      </trkpt>
      <trkpt lat="48.24224" lon="7.35198">
        <ele>404.43</ele>
        <time>2021-06-23T13:44:32Z</time>
      </trkpt>
      <trkpt lat="48.24207" lon="7.35283">
        <ele>395.95</ele>
        <time>2021-06-23T13:44:34Z</time>
      </trkpt>
      <trkpt lat="48.24204" lon="7.35309">
        <ele>394.59</ele>
        <time>2021-06-23T13:44:35Z</time>
      </trkpt>
      <trkpt lat="48.24204" lon="7.3533">
        <ele>393.85</ele>
        <time>2021-06-23T13:44:37Z</time>
      </trkpt>
      <trkpt lat="48.24207" lon="7.35348">
        <ele>393.53</ele>
        <time>2021-06-23T13:44:38Z</time>
      </trkpt>
      <trkpt lat="48.2423" lon="7.35402">
        <ele>391.6</ele>
        <time>2021-06-23T13:44:40Z</time>
      </trkpt>
      <trkpt lat="48.24236" lon="7.35421">
        <ele>389.86</ele>
        <time>2021-06-23T13:44:41Z</time>
      </trkpt>
      <trkpt lat="48.24237" lon="7.35436">
        <ele>387.78</ele>
        <time>2021-06-23T13:44:43Z</time>
      </trkpt>
      <trkpt lat="48.24234" lon="7.35445">
        <ele>386.22</ele>
        <time>2021-06-23T13:44:44Z</time>
      </trkpt>
      <trkpt lat="48.24225" lon="7.35452">
        <ele>384.48</ele>
        <time>2021-06-23T13:44:45Z</time>
      </trkpt>
      <trkpt lat="48.24219" lon="7.35454">
        <ele>384.17</ele>
        <time>2021-06-23T13:44:47Z</time>
      </trkpt>
      <trkpt lat="48.24212" lon="7.35451">
        <ele>384.83</ele>
        <time>2021-06-23T13:44:48Z</time>
      </trkpt>
      <trkpt lat="48.24178" lon="7.3541">
        <ele>386.17</ele>
        <time>2021-06-23T13:44:50Z</time>
      </trkpt>
      <trkpt lat="48.24162" lon="7.35398">
        <ele>385.48</ele>
        <time>2021-06-23T13:44:51Z</time>
      </trkpt>
      <trkpt lat="48.24135" lon="7.35386">
        <ele>382.61</ele>
        <time>2021-06-23T13:44:53Z</time>
      </trkpt>
      <trkpt lat="48.24093" lon="7.35382">
        <ele>378.05</ele>
        <time>2021-06-23T13:44:54Z</time>
      </trkpt>
      <trkpt lat="48.24078" lon="7.35384">
        <ele>376.62</ele>
        <time>2021-06-23T13:44:56Z</time>
      </trkpt>
      <trkpt lat="48.24061" lon="7.35396">
        <ele>375.2</ele>
        <time>2021-06-23T13:44:57Z</time>
      </trkpt>
      <trkpt lat="48.24053" lon="7.35408">
        <ele>373.94</ele>
        <time>2021-06-23T13:44:58Z</time>
      </trkpt>
      <trkpt lat="48.24047" lon="7.35419">
        <ele>372.47</ele>
        <time>2021-06-23T13:45:00Z</time>
      </trkpt>
      <trkpt lat="48.24041" lon="7.35443">
        <ele>369.76</ele>
        <time>2021-06-23T13:45:01Z</time>
      </trkpt>
      <trkpt lat="48.24024" lon="7.35537">
        <ele>362.24</ele>
        <time>2021-06-23T13:45:03Z</time>
      </trkpt>
      <trkpt lat="48.24025" lon="7.35552">
        <ele>362.46</ele>
        <time>2021-06-23T13:45:04Z</time>
      </trkpt>
      <trkpt lat="48.24027" lon="7.3556">
        <ele>362.59</ele>
        <time>2021-06-23T13:45:06Z</time>
      </trkpt>
      <trkpt lat="48.24034" lon="7.35569">
        <ele>362.44</ele>
        <time>2021-06-23T13:45:07Z</time>
      </trkpt>
      <trkpt lat="48.24044" lon="7.35574">
        <ele>362.66</ele>
        <time>2021-06-23T13:45:09Z</time>
      </trkpt>
      <trkpt lat="48.24057" lon="7.3557">
        <ele>364.05</ele>
        <time>2021-06-23T13:45:10Z</time>
      </trkpt>
      <trkpt lat="48.24082" lon="7.35556">
        <ele>367.91</ele>
        <time>2021-06-23T13:45:11Z</time>
      </trkpt>
      <trkpt lat="48.24093" lon="7.35554">
        <ele>368.65</ele>
        <time>2021-06-23T13:45:13Z</time>
      </trkpt>
      <trkpt lat="48.24106" lon="7.3556">
        <ele>368.12</ele>
        <time>2021-06-23T13:45:14Z</time>
      </trkpt>
      <trkpt lat="48.24113" lon="7.35572">
        <ele>366.7</ele>
        <time>2021-06-23T13:45:16Z</time>
      </trkpt>
      <trkpt lat="48.24119" lon="7.35589">
        <ele>364.53</ele>
        <time>2021-06-23T13:45:17Z</time>
      </trkpt>
      <trkpt lat="48.2413" lon="7.35627">
        <ele>356.66</ele>
        <time>2021-06-23T13:45:19Z</time>
      </trkpt>
      <trkpt lat="48.24139" lon="7.35635">
        <ele>354.24</ele>
        <time>2021-06-23T13:45:20Z</time>
      </trkpt>
      <trkpt lat="48.2415" lon="7.35636">
        <ele>353.84</ele>
        <time>2021-06-23T13:45:22Z</time>
      </trkpt>
      <trkpt lat="48.2418" lon="7.35616">
        <ele>359.19</ele>
        <time>2021-06-23T13:45:23Z</time>
      </trkpt>
      <trkpt lat="48.24191" lon="7.35618">
        <ele>358.38</ele>
        <time>2021-06-23T13:45:24Z</time>
      </trkpt>
      <trkpt lat="48.24199" lon="7.35629">
        <ele>355.77</ele>
        <time>2021-06-23T13:45:26Z</time>
      </trkpt>
      <trkpt lat="48.24202" lon="7.35644">
        <ele>353.55</ele>
        <time>2021-06-23T13:45:27Z</time>
      </trkpt>
      <trkpt lat="48.242" lon="7.35657">
        <ele>352.62</ele>
        <time>2021-06-23T13:45:29Z</time>
      </trkpt>
      <trkpt lat="48.24196" lon="7.35669">
        <ele>351.4</ele>
        <time>2021-06-23T13:45:30Z</time>
      </trkpt>
      <trkpt lat="48.24186" lon="7.35679">
        <ele>350.17</ele>
        <time>2021-06-23T13:45:32Z</time>
      </trkpt>
      <trkpt lat="48.2417" lon="7.35683">
        <ele>347.33</ele>
        <time>2021-06-23T13:45:33Z</time>
      </trkpt>
      <trkpt lat="48.24154" lon="7.35683">
        <ele>344.73</ele>
        <time>2021-06-23T13:45:34Z</time>
      </trkpt>
      <trkpt lat="48.24135" lon="7.35688">
        <ele>341.64</ele>
        <time>2021-06-23T13:45:36Z</time>
      </trkpt>
      <trkpt lat="48.24124" lon="7.35701">
        <ele>339.85</ele>
        <time>2021-06-23T13:45:37Z</time>
      </trkpt>
      <trkpt lat="48.24094" lon="7.35759">
        <ele>336.73</ele>
        <time>2021-06-23T13:45:39Z</time>
      </trkpt>
      <trkpt lat="48.24011" lon="7.35906">
        <ele>324.63</ele>
        <time>2021-06-23T13:45:40Z</time>
      </trkpt>
      <trkpt lat="48.2398" lon="7.35954">
        <ele>322.88</ele>
        <time>2021-06-23T13:45:42Z</time>
      </trkpt>
      <trkpt lat="48.23881" lon="7.36065">
        <ele>306.67</ele>
        <time>2021-06-23T13:45:43Z</time>
      </trkpt>
      <trkpt lat="48.23787" lon="7.36139">
        <ele>294.35</ele>
        <time>2021-06-23T13:45:45Z</time>
      </trkpt>
      <trkpt lat="48.23778" lon="7.36151">
        <ele>293.11</ele>
        <time>2021-06-23T13:45:46Z</time>
      </trkpt>
      <trkpt lat="48.2376" lon="7.36194">
        <ele>289.12</ele>
        <time>2021-06-23T13:45:47Z</time>
      </trkpt>
      <trkpt lat="48.23751" lon="7.36205">
        <ele>287.73</ele>
        <time>2021-06-23T13:45:49Z</time>
      </trkpt>
      <trkpt lat="48.23741" lon="7.36212">
        <ele>286.44</ele>
        <time>2021-06-23T13:45:50Z</time>
      </trkpt>
      <trkpt lat="48.23731" lon="7.36215">
        <ele>285.25</ele>
        <time>2021-06-23T13:45:52Z</time>
      </trkpt>
      <trkpt lat="48.23719" lon="7.36212">
        <ele>284.14</ele>
        <time>2021-06-23T13:45:53Z</time>
      </trkpt>
      <trkpt lat="48.23667" lon="7.36193">
        <ele>283.05</ele>
        <time>2021-06-23T13:45:55Z</time>
      </trkpt>
      <trkpt lat="48.23648" lon="7.36184">
        <ele>282.07</ele>
        <time>2021-06-23T13:45:56Z</time>
      </trkpt>
      <trkpt lat="48.23625" lon="7.36155">
        <ele>281.1</ele>
        <time>2021-06-23T13:45:58Z</time>
      </trkpt>
      <trkpt lat="48.23617" lon="7.3615">
        <ele>280.65</ele>
        <time>2021-06-23T13:45:59Z</time>
      </trkpt>
      <trkpt lat="48.23609" lon="7.3615">
        <ele>280.09</ele>
        <time>2021-06-23T13:46:00Z</time>
      </trkpt>
      <trkpt lat="48.23599" lon="7.36154">
        <ele>279.54</ele>
        <time>2021-06-23T13:46:02Z</time>
      </trkpt>
      <trkpt lat="48.23451" lon="7.36243">
        <ele>272.82</ele>
        <time>2021-06-23T13:46:03Z</time>
      </trkpt>
      <trkpt lat="48.23383" lon="7.36278">
        <ele>272.78</ele>
        <time>2021-06-23T13:46:05Z</time>
      </trkpt>
      <trkpt lat="48.23373" lon="7.36288">
        <ele>272.2</ele>
        <time>2021-06-23T13:46:06Z</time>
      </trkpt>
      <trkpt lat="48.23364" lon="7.36304">
        <ele>271.3</ele>
        <time>2021-06-23T13:46:08Z</time>
      </trkpt>
      <trkpt lat="48.23346" lon="7.36371">
        <ele>269.1</ele>
        <time>2021-06-23T13:46:09Z</time>
      </trkpt>
      <trkpt lat="48.23304" lon="7.36459">
        <ele>262.5</ele>
        <time>2021-06-23T13:46:11Z</time>
      </trkpt>
      <trkpt lat="48.23286" lon="7.36499">
        <ele>260.08</ele>
        <time>2021-06-23T13:46:12Z</time>
      </trkpt>
      <trkpt lat="48.23254" lon="7.36578">
        <ele>252.6</ele>
        <time>2021-06-23T13:46:13Z</time>
      </trkpt>
      <trkpt lat="48.23229" lon="7.36645">
        <ele>250.44</ele>
        <time>2021-06-23T13:46:15Z</time>
      </trkpt>
      <trkpt lat="48.2322" lon="7.36677">
        <ele>248.94</ele>
        <time>2021-06-23T13:46:16Z</time>
      </trkpt>
      <trkpt lat="48.23214" lon="7.36691">
        <ele>248.47</ele>
        <time>2021-06-23T13:46:18Z</time>
      </trkpt>
      <trkpt lat="48.23205" lon="7.36681">
        <ele>248.29</ele>
        <time>2021-06-23T13:46:19Z</time>
      </trkpt>
      <trkpt lat="48.23205" lon="7.36681">
        <ele>248.29</ele>
        <time>2021-06-23T13:46:19Z</time>
      </trkpt>
      <trkpt lat="48.23152" lon="7.3662">
        <ele>248.11</ele>
        <time>2021-06-23T13:46:22Z</time>
      </trkpt>
      <trkpt lat="48.23051" lon="7.3655">
        <ele>245.86</ele>
        <time>2021-06-23T13:46:24Z</time>
      </trkpt>
      <trkpt lat="48.22971" lon="7.36521">
        <ele>244.13</ele>
        <time>2021-06-23T13:46:27Z</time>
      </trkpt>
      <trkpt lat="48.22926" lon="7.36516">
        <ele>242.21</ele>
        <time>2021-06-23T13:46:30Z</time>
      </trkpt>
      <trkpt lat="48.22873" lon="7.36503">
        <ele>242.64</ele>
        <time>2021-06-23T13:46:32Z</time>
      </trkpt>
      <trkpt lat="48.22847" lon="7.36494">
        <ele>241.76</ele>
        <time>2021-06-23T13:46:35Z</time>
      </trkpt>
      <trkpt lat="48.22802" lon="7.36459">
        <ele>238.99</ele>
        <time>2021-06-23T13:46:38Z</time>
      </trkpt>
      <trkpt lat="48.22783" lon="7.36442">
        <ele>237.71</ele>
        <time>2021-06-23T13:46:40Z</time>
      </trkpt>
      <trkpt lat="48.2274" lon="7.36389">
        <ele>233.55</ele>
        <time>2021-06-23T13:46:43Z</time>
      </trkpt>
      <trkpt lat="48.22679" lon="7.36306">
        <ele>229.87</ele>
        <time>2021-06-23T13:46:46Z</time>
      </trkpt>
      <trkpt lat="48.22654" lon="7.36279">
        <ele>229.16</ele>
        <time>2021-06-23T13:46:48Z</time>
      </trkpt>
      <trkpt lat="48.22637" lon="7.36264">
        <ele>226.66</ele>
        <time>2021-06-23T13:46:51Z</time>
      </trkpt>
      <trkpt lat="48.22613" lon="7.36252">
        <ele>223.21</ele>
        <time>2021-06-23T13:46:54Z</time>
      </trkpt>
      <trkpt lat="48.22592" lon="7.36245">
        <ele>221.72</ele>
        <time>2021-06-23T13:46:56Z</time>
      </trkpt>
      <trkpt lat="48.22556" lon="7.36244">
        <ele>222</ele>
        <time>2021-06-23T13:46:59Z</time>
      </trkpt>
      <trkpt lat="48.22554" lon="7.36237">
        <ele>222.11</ele>
        <time>2021-06-23T13:47:02Z</time>
      </trkpt>
      <trkpt lat="48.22551" lon="7.36232">
        <ele>222.4</ele>
        <time>2021-06-23T13:47:05Z</time>
      </trkpt>
      <trkpt lat="48.22546" lon="7.36229">
        <ele>222.85</ele>
        <time>2021-06-23T13:47:09Z</time>
      </trkpt>
      <trkpt lat="48.22541" lon="7.36229">
        <ele>223.29</ele>
        <time>2021-06-23T13:47:12Z</time>
      </trkpt>
      <trkpt lat="48.22537" lon="7.36231">
        <ele>223.57</ele>
        <time>2021-06-23T13:47:15Z</time>
      </trkpt>
      <trkpt lat="48.22534" lon="7.36236">
        <ele>223.57</ele>
        <time>2021-06-23T13:47:19Z</time>
      </trkpt>
      <trkpt lat="48.22532" lon="7.36243">
        <ele>223.29</ele>
        <time>2021-06-23T13:47:22Z</time>
      </trkpt>
      <trkpt lat="48.22532" lon="7.3625">
        <ele>222.85</ele>
        <time>2021-06-23T13:47:25Z</time>
      </trkpt>
      <trkpt lat="48.22405" lon="7.363">
        <ele>224.64</ele>
        <time>2021-06-23T13:47:28Z</time>
      </trkpt>
      <trkpt lat="48.2237" lon="7.3631">
        <ele>226.38</ele>
        <time>2021-06-23T13:47:32Z</time>
      </trkpt>
      <trkpt lat="48.2225" lon="7.36322">
        <ele>234.42</ele>
        <time>2021-06-23T13:47:35Z</time>
      </trkpt>
      <trkpt lat="48.22182" lon="7.36341">
        <ele>237.58</ele>
        <time>2021-06-23T13:47:38Z</time>
      </trkpt>
      <trkpt lat="48.22137" lon="7.36358">
        <ele>240.31</ele>
        <time>2021-06-23T13:47:41Z</time>
      </trkpt>
      <trkpt lat="48.22111" lon="7.36364">
        <ele>240.64</ele>
        <time>2021-06-23T13:47:45Z</time>
      </trkpt>
      <trkpt lat="48.22078" lon="7.36367">
        <ele>239.02</ele>
        <time>2021-06-23T13:47:48Z</time>
      </trkpt>
      <trkpt lat="48.22042" lon="7.36362">
        <ele>238.42</ele>
        <time>2021-06-23T13:47:51Z</time>
      </trkpt>
      <trkpt lat="48.22008" lon="7.36351">
        <ele>238.68</ele>
        <time>2021-06-23T13:47:54Z</time>
      </trkpt>
      <trkpt lat="48.21974" lon="7.36335">
        <ele>238.94</ele>
        <time>2021-06-23T13:47:58Z</time>
      </trkpt>
      <trkpt lat="48.21927" lon="7.36303">
        <ele>243.57</ele>
        <time>2021-06-23T13:48:01Z</time>
      </trkpt>
      <trkpt lat="48.21866" lon="7.36257">
        <ele>241.47</ele>
        <time>2021-06-23T13:48:04Z</time>
      </trkpt>
      <trkpt lat="48.21849" lon="7.36247">
        <ele>240.27</ele>
        <time>2021-06-23T13:48:08Z</time>
      </trkpt>
      <trkpt lat="48.21832" lon="7.36243">
        <ele>239.18</ele>
        <time>2021-06-23T13:48:11Z</time>
      </trkpt>
      <trkpt lat="48.21762" lon="7.36259">
        <ele>236.85</ele>
        <time>2021-06-23T13:48:14Z</time>
      </trkpt>
      <trkpt lat="48.21745" lon="7.36261">
        <ele>235.81</ele>
        <time>2021-06-23T13:48:17Z</time>
      </trkpt>
      <trkpt lat="48.21649" lon="7.36235">
        <ele>237.43</ele>
        <time>2021-06-23T13:48:21Z</time>
      </trkpt>
      <trkpt lat="48.21639" lon="7.36234">
        <ele>237.16</ele>
        <time>2021-06-23T13:48:24Z</time>
      </trkpt>
      <trkpt lat="48.21557" lon="7.36283">
        <ele>237.1</ele>
        <time>2021-06-23T13:48:27Z</time>
      </trkpt>
      <trkpt lat="48.21528" lon="7.36298">
        <ele>238.58</ele>
        <time>2021-06-23T13:48:30Z</time>
      </trkpt>
      <trkpt lat="48.21486" lon="7.3631">
        <ele>238.16</ele>
        <time>2021-06-23T13:48:34Z</time>
      </trkpt>
      <trkpt lat="48.2137" lon="7.36331">
        <ele>238.94</ele>
        <time>2021-06-23T13:48:37Z</time>
      </trkpt>
      <trkpt lat="48.21321" lon="7.36327">
        <ele>240.09</ele>
        <time>2021-06-23T13:48:40Z</time>
      </trkpt>
      <trkpt lat="48.2129" lon="7.36318">
        <ele>238.25</ele>
        <time>2021-06-23T13:48:43Z</time>
      </trkpt>
      <trkpt lat="48.2129" lon="7.36318">
        <ele>238.25</ele>
        <time>2021-06-23T13:48:43Z</time>
      </trkpt>
      <trkpt lat="48.21102" lon="7.36229">
        <ele>234.19</ele>
        <time>2021-06-23T13:48:46Z</time>
      </trkpt>
      <trkpt lat="48.21014" lon="7.36166">
        <ele>234.01</ele>
        <time>2021-06-23T13:48:48Z</time>
      </trkpt>
      <trkpt lat="48.20987" lon="7.3615">
        <ele>233.81</ele>
        <time>2021-06-23T13:48:50Z</time>
      </trkpt>
      <trkpt lat="48.20961" lon="7.3614">
        <ele>233.1</ele>
        <time>2021-06-23T13:48:52Z</time>
      </trkpt>
      <trkpt lat="48.20896" lon="7.36121">
        <ele>225.35</ele>
        <time>2021-06-23T13:48:55Z</time>
      </trkpt>
      <trkpt lat="48.20829" lon="7.36092">
        <ele>221.09</ele>
        <time>2021-06-23T13:48:57Z</time>
      </trkpt>
      <trkpt lat="48.2078" lon="7.36066">
        <ele>217.74</ele>
        <time>2021-06-23T13:48:59Z</time>
      </trkpt>
      <trkpt lat="48.20756" lon="7.36051">
        <ele>215.84</ele>
        <time>2021-06-23T13:49:01Z</time>
      </trkpt>
      <trkpt lat="48.20745" lon="7.36038">
        <ele>215.21</ele>
        <time>2021-06-23T13:49:03Z</time>
      </trkpt>
      <trkpt lat="48.2073" lon="7.36005">
        <ele>216.19</ele>
        <time>2021-06-23T13:49:06Z</time>
      </trkpt>
      <trkpt lat="48.20727" lon="7.35992">
        <ele>216.33</ele>
        <time>2021-06-23T13:49:08Z</time>
      </trkpt>
      <trkpt lat="48.20724" lon="7.35974">
        <ele>216.16</ele>
        <time>2021-06-23T13:49:10Z</time>
      </trkpt>
      <trkpt lat="48.20729" lon="7.35876">
        <ele>217.15</ele>
        <time>2021-06-23T13:49:12Z</time>
      </trkpt>
      <trkpt lat="48.20727" lon="7.3585">
        <ele>217.82</ele>
        <time>2021-06-23T13:49:15Z</time>
      </trkpt>
      <trkpt lat="48.2072" lon="7.35826">
        <ele>217.6</ele>
        <time>2021-06-23T13:49:17Z</time>
      </trkpt>
      <trkpt lat="48.20713" lon="7.35809">
        <ele>216.44</ele>
        <time>2021-06-23T13:49:19Z</time>
      </trkpt>
      <trkpt lat="48.20702" lon="7.35793">
        <ele>215.41</ele>
        <time>2021-06-23T13:49:21Z</time>
      </trkpt>
      <trkpt lat="48.20684" lon="7.35775">
        <ele>214.66</ele>
        <time>2021-06-23T13:49:23Z</time>
      </trkpt>
      <trkpt lat="48.20671" lon="7.35771">
        <ele>214.35</ele>
        <time>2021-06-23T13:49:26Z</time>
      </trkpt>
      <trkpt lat="48.20645" lon="7.35771">
        <ele>214.06</ele>
        <time>2021-06-23T13:49:28Z</time>
      </trkpt>
      <trkpt lat="48.20609" lon="7.35781">
        <ele>214.05</ele>
        <time>2021-06-23T13:49:30Z</time>
      </trkpt>
      <trkpt lat="48.20595" lon="7.35781">
        <ele>214.5</ele>
        <time>2021-06-23T13:49:32Z</time>
      </trkpt>
      <trkpt lat="48.20594" lon="7.35774">
        <ele>214.52</ele>
        <time>2021-06-23T13:49:36Z</time>
      </trkpt>
      <trkpt lat="48.2059" lon="7.35768">
        <ele>214.49</ele>
        <time>2021-06-23T13:49:40Z</time>
      </trkpt>
      <trkpt lat="48.20585" lon="7.35767">
        <ele>214.57</ele>
        <time>2021-06-23T13:49:44Z</time>
      </trkpt>
      <trkpt lat="48.20581" lon="7.3577">
        <ele>214.65</ele>
        <time>2021-06-23T13:49:47Z</time>
      </trkpt>
      <trkpt lat="48.20572" lon="7.3576">
        <ele>214.21</ele>
        <time>2021-06-23T13:49:51Z</time>
      </trkpt>
      <trkpt lat="48.20563" lon="7.35755">
        <ele>214.05</ele>
        <time>2021-06-23T13:49:55Z</time>
      </trkpt>
      <trkpt lat="48.20524" lon="7.35704">
        <ele>214</ele>
        <time>2021-06-23T13:49:59Z</time>
      </trkpt>
      <trkpt lat="48.20514" lon="7.35685">
        <ele>214.33</ele>
        <time>2021-06-23T13:50:02Z</time>
      </trkpt>
      <trkpt lat="48.20507" lon="7.35661">
        <ele>215.41</ele>
        <time>2021-06-23T13:50:06Z</time>
      </trkpt>
      <trkpt lat="48.20504" lon="7.35607">
        <ele>219.84</ele>
        <time>2021-06-23T13:50:10Z</time>
      </trkpt>
      <trkpt lat="48.20506" lon="7.35578">
        <ele>220.36</ele>
        <time>2021-06-23T13:50:14Z</time>
      </trkpt>
      <trkpt lat="48.20519" lon="7.35464">
        <ele>218.1</ele>
        <time>2021-06-23T13:50:18Z</time>
      </trkpt>
      <trkpt lat="48.20518" lon="7.35445">
        <ele>218.35</ele>
        <time>2021-06-23T13:50:21Z</time>
      </trkpt>
      <trkpt lat="48.20508" lon="7.35415">
        <ele>218.7</ele>
        <time>2021-06-23T13:50:25Z</time>
      </trkpt>
      <trkpt lat="48.205" lon="7.35398">
        <ele>218.99</ele>
        <time>2021-06-23T13:50:29Z</time>
      </trkpt>
      <trkpt lat="48.20491" lon="7.3537">
        <ele>219.77</ele>
        <time>2021-06-23T13:50:33Z</time>
      </trkpt>
      <trkpt lat="48.20486" lon="7.35343">
        <ele>220.64</ele>
        <time>2021-06-23T13:50:36Z</time>
      </trkpt>
      <trkpt lat="48.20483" lon="7.35305">
        <ele>220.38</ele>
        <time>2021-06-23T13:50:40Z</time>
      </trkpt>
      <trkpt lat="48.20481" lon="7.3517">
        <ele>224.3</ele>
        <time>2021-06-23T13:50:44Z</time>
      </trkpt>
      <trkpt lat="48.20479" lon="7.35134">
        <ele>224.48</ele>
        <time>2021-06-23T13:50:48Z</time>
      </trkpt>
      <trkpt lat="48.2047" lon="7.35087">
        <ele>223.99</ele>
        <time>2021-06-23T13:50:51Z</time>
      </trkpt>
      <trkpt lat="48.2046" lon="7.35063">
        <ele>224.74</ele>
        <time>2021-06-23T13:50:55Z</time>
      </trkpt>
      <trkpt lat="48.20422" lon="7.34999">
        <ele>228.04</ele>
        <time>2021-06-23T13:50:59Z</time>
      </trkpt>
      <trkpt lat="48.2041" lon="7.34964">
        <ele>228.45</ele>
        <time>2021-06-23T13:51:03Z</time>
      </trkpt>
      <trkpt lat="48.20393" lon="7.34906">
        <ele>227.1</ele>
        <time>2021-06-23T13:51:07Z</time>
      </trkpt>
      <trkpt lat="48.20381" lon="7.34875">
        <ele>227.45</ele>
        <time>2021-06-23T13:51:10Z</time>
      </trkpt>
      <trkpt lat="48.20368" lon="7.34851">
        <ele>228.87</ele>
        <time>2021-06-23T13:51:14Z</time>
      </trkpt>
      <trkpt lat="48.20351" lon="7.34827">
        <ele>230.62</ele>
        <time>2021-06-23T13:51:18Z</time>
      </trkpt>
      <trkpt lat="48.20295" lon="7.34772">
        <ele>236.22</ele>
        <time>2021-06-23T13:51:22Z</time>
      </trkpt>
      <trkpt lat="48.20281" lon="7.34756">
        <ele>236.79</ele>
        <time>2021-06-23T13:51:25Z</time>
      </trkpt>
      <trkpt lat="48.2027" lon="7.34738">
        <ele>238.07</ele>
        <time>2021-06-23T13:51:29Z</time>
      </trkpt>
      <trkpt lat="48.20232" lon="7.34668">
        <ele>241.34</ele>
        <time>2021-06-23T13:51:33Z</time>
      </trkpt>
      <trkpt lat="48.20206" lon="7.34604">
        <ele>241.07</ele>
        <time>2021-06-23T13:51:37Z</time>
      </trkpt>
      <trkpt lat="48.20184" lon="7.34533">
        <ele>240.14</ele>
        <time>2021-06-23T13:51:40Z</time>
      </trkpt>
      <trkpt lat="48.20158" lon="7.34462">
        <ele>240.73</ele>
        <time>2021-06-23T13:51:44Z</time>
      </trkpt>
      <trkpt lat="48.2015" lon="7.3443">
        <ele>240.38</ele>
        <time>2021-06-23T13:51:48Z</time>
      </trkpt>
      <trkpt lat="48.20148" lon="7.34397">
        <ele>239.54</ele>
        <time>2021-06-23T13:51:52Z</time>
      </trkpt>
      <trkpt lat="48.20145" lon="7.34297">
        <ele>237.15</ele>
        <time>2021-06-23T13:51:56Z</time>
      </trkpt>
      <trkpt lat="48.20142" lon="7.34247">
        <ele>239.21</ele>
        <time>2021-06-23T13:51:59Z</time>
      </trkpt>
      <trkpt lat="48.20137" lon="7.34184">
        <ele>238.82</ele>
        <time>2021-06-23T13:52:03Z</time>
      </trkpt>
      <trkpt lat="48.20128" lon="7.3411">
        <ele>239.2</ele>
        <time>2021-06-23T13:52:07Z</time>
      </trkpt>
      <trkpt lat="48.20119" lon="7.34078">
        <ele>238.57</ele>
        <time>2021-06-23T13:52:11Z</time>
      </trkpt>
      <trkpt lat="48.20109" lon="7.34054">
        <ele>237.93</ele>
        <time>2021-06-23T13:52:14Z</time>
      </trkpt>
      <trkpt lat="48.20087" lon="7.34019">
        <ele>237.45</ele>
        <time>2021-06-23T13:52:18Z</time>
      </trkpt>
      <trkpt lat="48.20054" lon="7.33975">
        <ele>236.89</ele>
        <time>2021-06-23T13:52:22Z</time>
      </trkpt>
      <trkpt lat="48.20022" lon="7.33932">
        <ele>237.66</ele>
        <time>2021-06-23T13:52:26Z</time>
      </trkpt>
      <trkpt lat="48.20013" lon="7.33916">
        <ele>238.53</ele>
        <time>2021-06-23T13:52:29Z</time>
      </trkpt>
      <trkpt lat="48.19981" lon="7.33841">
        <ele>234.69</ele>
        <time>2021-06-23T13:52:33Z</time>
      </trkpt>
      <trkpt lat="48.19968" lon="7.33819">
        <ele>233.78</ele>
        <time>2021-06-23T13:52:37Z</time>
      </trkpt>
      <trkpt lat="48.19955" lon="7.33803">
        <ele>233.43</ele>
        <time>2021-06-23T13:52:41Z</time>
      </trkpt>
      <trkpt lat="48.19889" lon="7.33751">
        <ele>228.04</ele>
        <time>2021-06-23T13:52:45Z</time>
      </trkpt>
      <trkpt lat="48.19871" lon="7.33726">
        <ele>228.58</ele>
        <time>2021-06-23T13:52:48Z</time>
      </trkpt>
      <trkpt lat="48.19853" lon="7.33694">
        <ele>229.16</ele>
        <time>2021-06-23T13:52:52Z</time>
      </trkpt>
      <trkpt lat="48.19815" lon="7.33608">
        <ele>227.2</ele>
        <time>2021-06-23T13:52:56Z</time>
      </trkpt>
      <trkpt lat="48.19808" lon="7.33587">
        <ele>227.9</ele>
        <time>2021-06-23T13:53:00Z</time>
      </trkpt>
      <trkpt lat="48.19786" lon="7.33488">
        <ele>227.58</ele>
        <time>2021-06-23T13:53:03Z</time>
      </trkpt>
      <trkpt lat="48.19772" lon="7.33453">
        <ele>226.3</ele>
        <time>2021-06-23T13:53:07Z</time>
      </trkpt>
      <trkpt lat="48.19733" lon="7.33397">
        <ele>227.17</ele>
        <time>2021-06-23T13:53:11Z</time>
      </trkpt>
      <trkpt lat="48.19637" lon="7.33279">
        <ele>232.88</ele>
        <time>2021-06-23T13:53:15Z</time>
      </trkpt>
      <trkpt lat="48.1962" lon="7.33253">
        <ele>233.46</ele>
        <time>2021-06-23T13:53:18Z</time>
      </trkpt>
      <trkpt lat="48.19585" lon="7.33185">
        <ele>236.04</ele>
        <time>2021-06-23T13:53:22Z</time>
      </trkpt>
      <trkpt lat="48.19522" lon="7.33081">
        <ele>236.46</ele>
        <time>2021-06-23T13:53:26Z</time>
      </trkpt>
      <trkpt lat="48.195" lon="7.33037">
        <ele>235.68</ele>
        <time>2021-06-23T13:53:30Z</time>
      </trkpt>
      <trkpt lat="48.19475" lon="7.32959">
        <ele>235.72</ele>
        <time>2021-06-23T13:53:33Z</time>
      </trkpt>
      <trkpt lat="48.19466" lon="7.32909">
        <ele>236.57</ele>
        <time>2021-06-23T13:53:37Z</time>
      </trkpt>
      <trkpt lat="48.19454" lon="7.32785">
        <ele>239.09</ele>
        <time>2021-06-23T13:53:41Z</time>
      </trkpt>
      <trkpt lat="48.19448" lon="7.32604">
        <ele>240.45</ele>
        <time>2021-06-23T13:53:45Z</time>
      </trkpt>
      <trkpt lat="48.19445" lon="7.3258">
        <ele>240.01</ele>
        <time>2021-06-23T13:53:49Z</time>
      </trkpt>
      <trkpt lat="48.19439" lon="7.32551">
        <ele>240.27</ele>
        <time>2021-06-23T13:53:52Z</time>
      </trkpt>
      <trkpt lat="48.1943" lon="7.32514">
        <ele>241.19</ele>
        <time>2021-06-23T13:53:56Z</time>
      </trkpt>
      <trkpt lat="48.19427" lon="7.32508">
        <ele>241.18</ele>
        <time>2021-06-23T13:54:00Z</time>
      </trkpt>
      <trkpt lat="48.19418" lon="7.325">
        <ele>241.05</ele>
        <time>2021-06-23T13:54:04Z</time>
      </trkpt>
      <trkpt lat="48.19408" lon="7.32496">
        <ele>240.91</ele>
        <time>2021-06-23T13:54:07Z</time>
      </trkpt>
      <trkpt lat="48.19408" lon="7.32496">
        <ele>240.91</ele>
        <time>2021-06-23T13:54:07Z</time>
      </trkpt>
      <trkpt lat="48.19358" lon="7.32477">
        <ele>240.67</ele>
        <time>2021-06-23T13:54:14Z</time>
      </trkpt>
      <trkpt lat="48.19297" lon="7.32454">
        <ele>241.91</ele>
        <time>2021-06-23T13:54:20Z</time>
      </trkpt>
      <trkpt lat="48.19283" lon="7.32461">
        <ele>241.14</ele>
        <time>2021-06-23T13:54:27Z</time>
      </trkpt>
      <trkpt lat="48.19257" lon="7.32464">
        <ele>240.26</ele>
        <time>2021-06-23T13:54:33Z</time>
      </trkpt>
      <trkpt lat="48.19251" lon="7.32467">
        <ele>240.03</ele>
        <time>2021-06-23T13:54:40Z</time>
      </trkpt>
      <trkpt lat="48.19224" lon="7.32462">
        <ele>238.49</ele>
        <time>2021-06-23T13:54:43Z</time>
      </trkpt>
      <trkpt lat="48.19176" lon="7.32468">
        <ele>238.07</ele>
        <time>2021-06-23T13:54:47Z</time>
      </trkpt>
      <trkpt lat="48.19166" lon="7.32465">
        <ele>238.88</ele>
        <time>2021-06-23T13:54:51Z</time>
      </trkpt>
      <trkpt lat="48.19162" lon="7.3246">
        <ele>239.69</ele>
        <time>2021-06-23T13:54:56Z</time>
      </trkpt>
      <trkpt lat="48.19159" lon="7.32459">
        <ele>240.07</ele>
        <time>2021-06-23T13:55:01Z</time>
      </trkpt>
      <trkpt lat="48.19155" lon="7.32461">
        <ele>240.15</ele>
        <time>2021-06-23T13:55:06Z</time>
      </trkpt>
      <trkpt lat="48.19153" lon="7.32467">
        <ele>239.89</ele>
        <time>2021-06-23T13:55:10Z</time>
      </trkpt>
      <trkpt lat="48.19128" lon="7.3249">
        <ele>241.19</ele>
        <time>2021-06-23T13:55:15Z</time>
      </trkpt>
      <trkpt lat="48.19112" lon="7.32497">
        <ele>242.99</ele>
        <time>2021-06-23T13:55:20Z</time>
      </trkpt>
      <trkpt lat="48.19096" lon="7.32505">
        <ele>243.44</ele>
        <time>2021-06-23T13:55:25Z</time>
      </trkpt>
      <trkpt lat="48.19067" lon="7.32511">
        <ele>244.36</ele>
        <time>2021-06-23T13:55:30Z</time>
      </trkpt>
      <trkpt lat="48.19045" lon="7.3251">
        <ele>245.01</ele>
        <time>2021-06-23T13:55:35Z</time>
      </trkpt>
      <trkpt lat="48.1896" lon="7.32498">
        <ele>248.1</ele>
        <time>2021-06-23T13:55:39Z</time>
      </trkpt>
      <trkpt lat="48.1894" lon="7.32491">
        <ele>249.44</ele>
        <time>2021-06-23T13:55:44Z</time>
      </trkpt>
      <trkpt lat="48.18921" lon="7.3249">
        <ele>248.57</ele>
        <time>2021-06-23T13:55:49Z</time>
      </trkpt>
      <trkpt lat="48.18901" lon="7.32492">
        <ele>247.59</ele>
        <time>2021-06-23T13:55:54Z</time>
      </trkpt>
      <trkpt lat="48.18876" lon="7.32501">
        <ele>245.59</ele>
        <time>2021-06-23T13:55:59Z</time>
      </trkpt>
      <trkpt lat="48.18797" lon="7.32521">
        <ele>243.54</ele>
        <time>2021-06-23T13:56:04Z</time>
      </trkpt>
      <trkpt lat="48.18766" lon="7.32522">
        <ele>244.56</ele>
        <time>2021-06-23T13:56:08Z</time>
      </trkpt>
      <trkpt lat="48.1865" lon="7.32512">
        <ele>241.63</ele>
        <time>2021-06-23T13:56:13Z</time>
      </trkpt>
      <trkpt lat="48.18536" lon="7.32496">
        <ele>242.04</ele>
        <time>2021-06-23T13:56:18Z</time>
      </trkpt>
      <trkpt lat="48.18515" lon="7.32492">
        <ele>241.68</ele>
        <time>2021-06-23T13:56:23Z</time>
      </trkpt>
      <trkpt lat="48.18491" lon="7.32484">
        <ele>241.43</ele>
        <time>2021-06-23T13:56:28Z</time>
      </trkpt>
      <trkpt lat="48.18326" lon="7.3241">
        <ele>237.99</ele>
        <time>2021-06-23T13:56:33Z</time>
      </trkpt>
      <trkpt lat="48.18286" lon="7.32388">
        <ele>237.34</ele>
        <time>2021-06-23T13:56:37Z</time>
      </trkpt>
      <trkpt lat="48.1826" lon="7.3237">
        <ele>236.37</ele>
        <time>2021-06-23T13:56:42Z</time>
      </trkpt>
      <trkpt lat="48.1825" lon="7.3236">
        <ele>236.01</ele>
        <time>2021-06-23T13:56:47Z</time>
      </trkpt>
      <trkpt lat="48.18236" lon="7.32352">
        <ele>234.64</ele>
        <time>2021-06-23T13:56:52Z</time>
      </trkpt>
      <trkpt lat="48.18212" lon="7.32343">
        <ele>233.3</ele>
        <time>2021-06-23T13:56:57Z</time>
      </trkpt>
      <trkpt lat="48.18189" lon="7.3234">
        <ele>232.73</ele>
        <time>2021-06-23T13:57:02Z</time>
      </trkpt>
      <trkpt lat="48.1815" lon="7.32348">
        <ele>231.67</ele>
        <time>2021-06-23T13:57:06Z</time>
      </trkpt>
      <trkpt lat="48.18095" lon="7.32379">
        <ele>228.23</ele>
        <time>2021-06-23T13:57:11Z</time>
      </trkpt>
      <trkpt lat="48.18063" lon="7.32393">
        <ele>226.89</ele>
        <time>2021-06-23T13:57:16Z</time>
      </trkpt>
      <trkpt lat="48.18031" lon="7.32404">
        <ele>227.75</ele>
        <time>2021-06-23T13:57:21Z</time>
      </trkpt>
      <trkpt lat="48.17874" lon="7.32422">
        <ele>234.76</ele>
        <time>2021-06-23T13:57:26Z</time>
      </trkpt>
      <trkpt lat="48.17829" lon="7.32421">
        <ele>236.98</ele>
        <time>2021-06-23T13:57:31Z</time>
      </trkpt>
      <trkpt lat="48.17783" lon="7.32412">
        <ele>239.8</ele>
        <time>2021-06-23T13:57:35Z</time>
      </trkpt>
      <trkpt lat="48.17752" lon="7.32401">
        <ele>242.39</ele>
        <time>2021-06-23T13:57:40Z</time>
      </trkpt>
      <trkpt lat="48.1761" lon="7.3234">
        <ele>256.83</ele>
        <time>2021-06-23T13:57:45Z</time>
      </trkpt>
      <trkpt lat="48.17502" lon="7.32301">
        <ele>265.55</ele>
        <time>2021-06-23T13:57:50Z</time>
      </trkpt>
      <trkpt lat="48.17471" lon="7.32284">
        <ele>266.11</ele>
        <time>2021-06-23T13:57:55Z</time>
      </trkpt>
      <trkpt lat="48.17408" lon="7.32228">
        <ele>271.3</ele>
        <time>2021-06-23T13:58:00Z</time>
      </trkpt>
      <trkpt lat="48.17384" lon="7.32215">
        <ele>271.3</ele>
        <time>2021-06-23T13:58:05Z</time>
      </trkpt>
      <trkpt lat="48.17314" lon="7.32189">
        <ele>269.31</ele>
        <time>2021-06-23T13:58:09Z</time>
      </trkpt>
      <trkpt lat="48.1722" lon="7.32151">
        <ele>266.1</ele>
        <time>2021-06-23T13:58:14Z</time>
      </trkpt>
      <trkpt lat="48.17205" lon="7.32142">
        <ele>266.81</ele>
        <time>2021-06-23T13:58:19Z</time>
      </trkpt>
      <trkpt lat="48.17182" lon="7.32118">
        <ele>267.42</ele>
        <time>2021-06-23T13:58:24Z</time>
      </trkpt>
      <trkpt lat="48.17171" lon="7.32101">
        <ele>267.22</ele>
        <time>2021-06-23T13:58:29Z</time>
      </trkpt>
      <trkpt lat="48.17138" lon="7.32034">
        <ele>267.54</ele>
        <time>2021-06-23T13:58:34Z</time>
      </trkpt>
      <trkpt lat="48.17091" lon="7.31937">
        <ele>267.36</ele>
        <time>2021-06-23T13:58:38Z</time>
      </trkpt>
      <trkpt lat="48.17082" lon="7.31917">
        <ele>266.89</ele>
        <time>2021-06-23T13:58:43Z</time>
      </trkpt>
      <trkpt lat="48.17052" lon="7.31839">
        <ele>265</ele>
        <time>2021-06-23T13:58:48Z</time>
      </trkpt>
      <trkpt lat="48.17024" lon="7.3177">
        <ele>265.23</ele>
        <time>2021-06-23T13:58:53Z</time>
      </trkpt>
      <trkpt lat="48.17006" lon="7.31739">
        <ele>265.62</ele>
        <time>2021-06-23T13:58:58Z</time>
      </trkpt>
      <trkpt lat="48.16985" lon="7.31695">
        <ele>266.99</ele>
        <time>2021-06-23T13:59:03Z</time>
      </trkpt>
      <trkpt lat="48.16956" lon="7.31628">
        <ele>267.46</ele>
        <time>2021-06-23T13:59:07Z</time>
      </trkpt>
      <trkpt lat="48.16934" lon="7.31579">
        <ele>267.88</ele>
        <time>2021-06-23T13:59:12Z</time>
      </trkpt>
      <trkpt lat="48.16913" lon="7.31545">
        <ele>268.57</ele>
        <time>2021-06-23T13:59:17Z</time>
      </trkpt>
      <trkpt lat="48.16889" lon="7.31517">
        <ele>268.83</ele>
        <time>2021-06-23T13:59:22Z</time>
      </trkpt>
      <trkpt lat="48.16809" lon="7.31434">
        <ele>262.92</ele>
        <time>2021-06-23T13:59:27Z</time>
      </trkpt>
      <trkpt lat="48.16782" lon="7.31413">
        <ele>260.32</ele>
        <time>2021-06-23T13:59:32Z</time>
      </trkpt>
      <trkpt lat="48.16761" lon="7.31402">
        <ele>259.72</ele>
        <time>2021-06-23T13:59:36Z</time>
      </trkpt>
      <trkpt lat="48.16741" lon="7.31395">
        <ele>259.72</ele>
        <time>2021-06-23T13:59:41Z</time>
      </trkpt>
      <trkpt lat="48.1658" lon="7.31368">
        <ele>251.97</ele>
        <time>2021-06-23T13:59:46Z</time>
      </trkpt>
      <trkpt lat="48.16541" lon="7.31364">
        <ele>251.5</ele>
        <time>2021-06-23T13:59:51Z</time>
      </trkpt>
      <trkpt lat="48.16541" lon="7.31364">
        <ele>251.5</ele>
        <time>2021-06-23T13:59:51Z</time>
      </trkpt>
      <trkpt lat="48.16529" lon="7.31363">
        <ele>251.04</ele>
        <time>2021-06-23T13:59:54Z</time>
      </trkpt>
      <trkpt lat="48.16492" lon="7.31366">
        <ele>250</ele>
        <time>2021-06-23T13:59:57Z</time>
      </trkpt>
      <trkpt lat="48.16459" lon="7.31375">
        <ele>250.47</ele>
        <time>2021-06-23T14:00:00Z</time>
      </trkpt>
      <trkpt lat="48.16436" lon="7.31387">
        <ele>251</ele>
        <time>2021-06-23T14:00:03Z</time>
      </trkpt>
      <trkpt lat="48.16405" lon="7.31408">
        <ele>251</ele>
        <time>2021-06-23T14:00:06Z</time>
      </trkpt>
      <trkpt lat="48.16379" lon="7.31432">
        <ele>250.45</ele>
        <time>2021-06-23T14:00:09Z</time>
      </trkpt>
      <trkpt lat="48.16363" lon="7.3145">
        <ele>249.79</ele>
        <time>2021-06-23T14:00:12Z</time>
      </trkpt>
      <trkpt lat="48.16186" lon="7.31712">
        <ele>246.27</ele>
        <time>2021-06-23T14:00:15Z</time>
      </trkpt>
      <trkpt lat="48.16155" lon="7.3175">
        <ele>245.17</ele>
        <time>2021-06-23T14:00:18Z</time>
      </trkpt>
      <trkpt lat="48.1614" lon="7.31765">
        <ele>243.5</ele>
        <time>2021-06-23T14:00:21Z</time>
      </trkpt>
      <trkpt lat="48.16113" lon="7.31783">
        <ele>240.9</ele>
        <time>2021-06-23T14:00:24Z</time>
      </trkpt>
      <trkpt lat="48.16088" lon="7.31794">
        <ele>239.21</ele>
        <time>2021-06-23T14:00:27Z</time>
      </trkpt>
      <trkpt lat="48.16043" lon="7.31802">
        <ele>239.45</ele>
        <time>2021-06-23T14:00:30Z</time>
      </trkpt>
      <trkpt lat="48.16026" lon="7.31803">
        <ele>239.92</ele>
        <time>2021-06-23T14:00:33Z</time>
      </trkpt>
      <trkpt lat="48.15985" lon="7.31818">
        <ele>237.42</ele>
        <time>2021-06-23T14:00:36Z</time>
      </trkpt>
      <trkpt lat="48.15968" lon="7.3182">
        <ele>235.65</ele>
        <time>2021-06-23T14:00:39Z</time>
      </trkpt>
      <trkpt lat="48.15961" lon="7.31814">
        <ele>235.07</ele>
        <time>2021-06-23T14:00:44Z</time>
      </trkpt>
      <trkpt lat="48.15949" lon="7.31812">
        <ele>234.09</ele>
        <time>2021-06-23T14:00:50Z</time>
      </trkpt>
      <trkpt lat="48.15937" lon="7.31819">
        <ele>233.77</ele>
        <time>2021-06-23T14:00:56Z</time>
      </trkpt>
      <trkpt lat="48.15929" lon="7.31833">
        <ele>233.56</ele>
        <time>2021-06-23T14:01:01Z</time>
      </trkpt>
      <trkpt lat="48.15926" lon="7.31851">
        <ele>233.24</ele>
        <time>2021-06-23T14:01:07Z</time>
      </trkpt>
      <trkpt lat="48.15922" lon="7.31867">
        <ele>232.83</ele>
        <time>2021-06-23T14:01:13Z</time>
      </trkpt>
      <trkpt lat="48.15916" lon="7.31878">
        <ele>232.4</ele>
        <time>2021-06-23T14:01:19Z</time>
      </trkpt>
      <trkpt lat="48.15892" lon="7.31918">
        <ele>232.05</ele>
        <time>2021-06-23T14:01:24Z</time>
      </trkpt>
      <trkpt lat="48.15872" lon="7.31938">
        <ele>232.16</ele>
        <time>2021-06-23T14:01:30Z</time>
      </trkpt>
      <trkpt lat="48.15844" lon="7.31961">
        <ele>232.89</ele>
        <time>2021-06-23T14:01:36Z</time>
      </trkpt>
      <trkpt lat="48.15815" lon="7.31975">
        <ele>233.57</ele>
        <time>2021-06-23T14:01:41Z</time>
      </trkpt>
      <trkpt lat="48.15802" lon="7.31979">
        <ele>233.31</ele>
        <time>2021-06-23T14:01:47Z</time>
      </trkpt>
      <trkpt lat="48.15767" lon="7.31984">
        <ele>232.26</ele>
        <time>2021-06-23T14:01:53Z</time>
      </trkpt>
      <trkpt lat="48.15616" lon="7.31987">
        <ele>230.1</ele>
        <time>2021-06-23T14:01:58Z</time>
      </trkpt>
      <trkpt lat="48.15539" lon="7.31993">
        <ele>229.77</ele>
        <time>2021-06-23T14:02:04Z</time>
      </trkpt>
      <trkpt lat="48.15492" lon="7.32002">
        <ele>226.02</ele>
        <time>2021-06-23T14:02:10Z</time>
      </trkpt>
      <trkpt lat="48.15441" lon="7.32018">
        <ele>224.5</ele>
        <time>2021-06-23T14:02:16Z</time>
      </trkpt>
      <trkpt lat="48.15319" lon="7.3208">
        <ele>220.28</ele>
        <time>2021-06-23T14:02:21Z</time>
      </trkpt>
      <trkpt lat="48.15264" lon="7.32099">
        <ele>220.96</ele>
        <time>2021-06-23T14:02:27Z</time>
      </trkpt>
      <trkpt lat="48.15247" lon="7.32104">
        <ele>222.14</ele>
        <time>2021-06-23T14:02:33Z</time>
      </trkpt>
      <trkpt lat="48.15235" lon="7.32105">
        <ele>222.65</ele>
        <time>2021-06-23T14:02:38Z</time>
      </trkpt>
      <trkpt lat="48.15184" lon="7.32102">
        <ele>224.21</ele>
        <time>2021-06-23T14:02:44Z</time>
      </trkpt>
      <trkpt lat="48.1513" lon="7.32091">
        <ele>223</ele>
        <time>2021-06-23T14:02:50Z</time>
      </trkpt>
      <trkpt lat="48.15068" lon="7.32075">
        <ele>222.68</ele>
        <time>2021-06-23T14:02:55Z</time>
      </trkpt>
      <trkpt lat="48.15034" lon="7.32075">
        <ele>223.77</ele>
        <time>2021-06-23T14:03:01Z</time>
      </trkpt>
      <trkpt lat="48.1501" lon="7.3208">
        <ele>224.64</ele>
        <time>2021-06-23T14:03:07Z</time>
      </trkpt>
      <trkpt lat="48.14937" lon="7.3212">
        <ele>221.83</ele>
        <time>2021-06-23T14:03:13Z</time>
      </trkpt>
      <trkpt lat="48.14873" lon="7.32165">
        <ele>220.53</ele>
        <time>2021-06-23T14:03:18Z</time>
      </trkpt>
      <trkpt lat="48.14695" lon="7.32303">
        <ele>213.12</ele>
        <time>2021-06-23T14:03:24Z</time>
      </trkpt>
      <trkpt lat="48.14679" lon="7.32314">
        <ele>212.71</ele>
        <time>2021-06-23T14:03:30Z</time>
      </trkpt>
      <trkpt lat="48.14603" lon="7.32359">
        <ele>209.09</ele>
        <time>2021-06-23T14:03:35Z</time>
      </trkpt>
      <trkpt lat="48.1448" lon="7.32427">
        <ele>206.54</ele>
        <time>2021-06-23T14:03:41Z</time>
      </trkpt>
      <trkpt lat="48.14405" lon="7.32458">
        <ele>206.22</ele>
        <time>2021-06-23T14:03:47Z</time>
      </trkpt>
      <trkpt lat="48.1438" lon="7.32465">
        <ele>206.27</ele>
        <time>2021-06-23T14:03:52Z</time>
      </trkpt>
      <trkpt lat="48.13995" lon="7.32525">
        <ele>204.14</ele>
        <time>2021-06-23T14:03:58Z</time>
      </trkpt>
      <trkpt lat="48.13979" lon="7.3253">
        <ele>203.37</ele>
        <time>2021-06-23T14:04:04Z</time>
      </trkpt>
      <trkpt lat="48.13979" lon="7.3253">
        <ele>203.37</ele>
        <time>2021-06-23T14:04:04Z</time>
      </trkpt>
      <trkpt lat="48.13969" lon="7.32533">
        <ele>202.61</ele>
        <time>2021-06-23T14:04:06Z</time>
      </trkpt>
      <trkpt lat="48.13916" lon="7.32508">
        <ele>203.36</ele>
        <time>2021-06-23T14:04:09Z</time>
      </trkpt>
      <trkpt lat="48.13898" lon="7.32494">
        <ele>203.02</ele>
        <time>2021-06-23T14:04:11Z</time>
      </trkpt>
      <trkpt lat="48.13847" lon="7.32446">
        <ele>201.98</ele>
        <time>2021-06-23T14:04:14Z</time>
      </trkpt>
      <trkpt lat="48.13826" lon="7.32422">
        <ele>201.21</ele>
        <time>2021-06-23T14:04:16Z</time>
      </trkpt>
      <trkpt lat="48.13807" lon="7.32395">
        <ele>202.77</ele>
        <time>2021-06-23T14:04:19Z</time>
      </trkpt>
      <trkpt lat="48.13769" lon="7.32319">
        <ele>206</ele>
        <time>2021-06-23T14:04:21Z</time>
      </trkpt>
      <trkpt lat="48.13761" lon="7.32306">
        <ele>206</ele>
        <time>2021-06-23T14:04:24Z</time>
      </trkpt>
      <trkpt lat="48.13736" lon="7.32277">
        <ele>206.54</ele>
        <time>2021-06-23T14:04:26Z</time>
      </trkpt>
      <trkpt lat="48.13677" lon="7.32224">
        <ele>206.29</ele>
        <time>2021-06-23T14:04:29Z</time>
      </trkpt>
      <trkpt lat="48.13658" lon="7.32202">
        <ele>206.19</ele>
        <time>2021-06-23T14:04:31Z</time>
      </trkpt>
      <trkpt lat="48.13581" lon="7.32093">
        <ele>203.56</ele>
        <time>2021-06-23T14:04:34Z</time>
      </trkpt>
      <trkpt lat="48.13495" lon="7.3199">
        <ele>199.55</ele>
        <time>2021-06-23T14:04:36Z</time>
      </trkpt>
      <trkpt lat="48.13432" lon="7.31911">
        <ele>199.76</ele>
        <time>2021-06-23T14:04:39Z</time>
      </trkpt>
      <trkpt lat="48.13412" lon="7.31889">
        <ele>199.8</ele>
        <time>2021-06-23T14:04:41Z</time>
      </trkpt>
      <trkpt lat="48.13386" lon="7.31873">
        <ele>199</ele>
        <time>2021-06-23T14:04:44Z</time>
      </trkpt>
      <trkpt lat="48.13341" lon="7.31852">
        <ele>198.63</ele>
        <time>2021-06-23T14:04:46Z</time>
      </trkpt>
      <trkpt lat="48.13306" lon="7.31828">
        <ele>198.22</ele>
        <time>2021-06-23T14:04:49Z</time>
      </trkpt>
      <trkpt lat="48.13299" lon="7.31816">
        <ele>198.71</ele>
        <time>2021-06-23T14:04:51Z</time>
      </trkpt>
      <trkpt lat="48.13291" lon="7.31799">
        <ele>199.24</ele>
        <time>2021-06-23T14:04:55Z</time>
      </trkpt>
      <trkpt lat="48.13286" lon="7.31794">
        <ele>199.43</ele>
        <time>2021-06-23T14:05:00Z</time>
      </trkpt>
      <trkpt lat="48.13278" lon="7.3179">
        <ele>199.56</ele>
        <time>2021-06-23T14:05:04Z</time>
      </trkpt>
      <trkpt lat="48.13255" lon="7.31795">
        <ele>199.06</ele>
        <time>2021-06-23T14:05:08Z</time>
      </trkpt>
      <trkpt lat="48.13246" lon="7.31792">
        <ele>199</ele>
        <time>2021-06-23T14:05:13Z</time>
      </trkpt>
      <trkpt lat="48.13233" lon="7.31785">
        <ele>199</ele>
        <time>2021-06-23T14:05:17Z</time>
      </trkpt>
      <trkpt lat="48.13195" lon="7.31751">
        <ele>199</ele>
        <time>2021-06-23T14:05:21Z</time>
      </trkpt>
      <trkpt lat="48.13169" lon="7.31722">
        <ele>199</ele>
        <time>2021-06-23T14:05:25Z</time>
      </trkpt>
      <trkpt lat="48.13095" lon="7.31624">
        <ele>203</ele>
        <time>2021-06-23T14:05:30Z</time>
      </trkpt>
      <trkpt lat="48.13043" lon="7.31563">
        <ele>203.07</ele>
        <time>2021-06-23T14:05:34Z</time>
      </trkpt>
      <trkpt lat="48.12935" lon="7.31451">
        <ele>201.79</ele>
        <time>2021-06-23T14:05:38Z</time>
      </trkpt>
      <trkpt lat="48.12901" lon="7.31427">
        <ele>200.44</ele>
        <time>2021-06-23T14:05:43Z</time>
      </trkpt>
      <trkpt lat="48.12872" lon="7.31411">
        <ele>200</ele>
        <time>2021-06-23T14:05:47Z</time>
      </trkpt>
      <trkpt lat="48.12766" lon="7.31377">
        <ele>201</ele>
        <time>2021-06-23T14:05:51Z</time>
      </trkpt>
      <trkpt lat="48.12719" lon="7.31359">
        <ele>200.08</ele>
        <time>2021-06-23T14:05:56Z</time>
      </trkpt>
      <trkpt lat="48.12666" lon="7.31329">
        <ele>200</ele>
        <time>2021-06-23T14:06:00Z</time>
      </trkpt>
      <trkpt lat="48.12487" lon="7.3121">
        <ele>202</ele>
        <time>2021-06-23T14:06:04Z</time>
      </trkpt>
      <trkpt lat="48.12414" lon="7.31162">
        <ele>200.08</ele>
        <time>2021-06-23T14:06:08Z</time>
      </trkpt>
      <trkpt lat="48.12249" lon="7.31063">
        <ele>200.96</ele>
        <time>2021-06-23T14:06:13Z</time>
      </trkpt>
      <trkpt lat="48.12121" lon="7.3098">
        <ele>201</ele>
        <time>2021-06-23T14:06:17Z</time>
      </trkpt>
      <trkpt lat="48.1208" lon="7.30944">
        <ele>200.13</ele>
        <time>2021-06-23T14:06:21Z</time>
      </trkpt>
      <trkpt lat="48.12056" lon="7.30918">
        <ele>200.99</ele>
        <time>2021-06-23T14:06:26Z</time>
      </trkpt>
      <trkpt lat="48.12033" lon="7.30888">
        <ele>201</ele>
        <time>2021-06-23T14:06:30Z</time>
      </trkpt>
      <trkpt lat="48.11975" lon="7.30798">
        <ele>201.26</ele>
        <time>2021-06-23T14:06:34Z</time>
      </trkpt>
      <trkpt lat="48.11947" lon="7.30758">
        <ele>201.75</ele>
        <time>2021-06-23T14:06:39Z</time>
      </trkpt>
      <trkpt lat="48.11896" lon="7.30701">
        <ele>201.75</ele>
        <time>2021-06-23T14:06:43Z</time>
      </trkpt>
      <trkpt lat="48.11844" lon="7.30653">
        <ele>201</ele>
        <time>2021-06-23T14:06:47Z</time>
      </trkpt>
      <trkpt lat="48.11793" lon="7.3062">
        <ele>199.31</ele>
        <time>2021-06-23T14:06:51Z</time>
      </trkpt>
      <trkpt lat="48.11738" lon="7.30593">
        <ele>200.61</ele>
        <time>2021-06-23T14:06:56Z</time>
      </trkpt>
      <trkpt lat="48.11705" lon="7.30583">
        <ele>201.61</ele>
        <time>2021-06-23T14:07:00Z</time>
      </trkpt>
      <trkpt lat="48.11515" lon="7.3054">
        <ele>205</ele>
        <time>2021-06-23T14:07:04Z</time>
      </trkpt>
      <trkpt lat="48.11487" lon="7.30536">
        <ele>204.53</ele>
        <time>2021-06-23T14:07:09Z</time>
      </trkpt>
      <trkpt lat="48.11463" lon="7.30536">
        <ele>204.24</ele>
        <time>2021-06-23T14:07:13Z</time>
      </trkpt>
      <trkpt lat="48.11247" lon="7.3056">
        <ele>203.96</ele>
        <time>2021-06-23T14:07:17Z</time>
      </trkpt>
      <trkpt lat="48.10997" lon="7.30561">
        <ele>205.98</ele>
        <time>2021-06-23T14:07:22Z</time>
      </trkpt>
      <trkpt lat="48.10868" lon="7.30541">
        <ele>206.01</ele>
        <time>2021-06-23T14:07:26Z</time>
      </trkpt>
      <trkpt lat="48.10818" lon="7.30524">
        <ele>206.54</ele>
        <time>2021-06-23T14:07:30Z</time>
      </trkpt>
      <trkpt lat="48.10714" lon="7.3048">
        <ele>206.71</ele>
        <time>2021-06-23T14:07:35Z</time>
      </trkpt>
      <trkpt lat="48.1066" lon="7.30464">
        <ele>205.57</ele>
        <time>2021-06-23T14:07:39Z</time>
      </trkpt>
      <trkpt lat="48.10548" lon="7.30443">
        <ele>209.02</ele>
        <time>2021-06-23T14:07:43Z</time>
      </trkpt>
      <trkpt lat="48.10442" lon="7.30395">
        <ele>207.89</ele>
        <time>2021-06-23T14:07:47Z</time>
      </trkpt>
      <trkpt lat="48.10419" lon="7.30379">
        <ele>209.29</ele>
        <time>2021-06-23T14:07:52Z</time>
      </trkpt>
      <trkpt lat="48.10409" lon="7.30356">
        <ele>210.7</ele>
        <time>2021-06-23T14:07:56Z</time>
      </trkpt>
      <trkpt lat="48.10401" lon="7.30325">
        <ele>212.41</ele>
        <time>2021-06-23T14:08:00Z</time>
      </trkpt>
      <trkpt lat="48.10403" lon="7.30315">
        <ele>212.66</ele>
        <time>2021-06-23T14:08:04Z</time>
      </trkpt>
      <trkpt lat="48.10403" lon="7.30303">
        <ele>213.02</ele>
        <time>2021-06-23T14:08:07Z</time>
      </trkpt>
      <trkpt lat="48.10398" lon="7.30288">
        <ele>213.32</ele>
        <time>2021-06-23T14:08:10Z</time>
      </trkpt>
      <trkpt lat="48.10394" lon="7.3028">
        <ele>213.64</ele>
        <time>2021-06-23T14:08:13Z</time>
      </trkpt>
      <trkpt lat="48.10387" lon="7.30274">
        <ele>213.99</ele>
        <time>2021-06-23T14:08:17Z</time>
      </trkpt>
      <trkpt lat="48.10374" lon="7.3027">
        <ele>213.84</ele>
        <time>2021-06-23T14:08:20Z</time>
      </trkpt>
      <trkpt lat="48.10366" lon="7.30273">
        <ele>213.86</ele>
        <time>2021-06-23T14:08:23Z</time>
      </trkpt>
      <trkpt lat="48.10358" lon="7.3028">
        <ele>213.78</ele>
        <time>2021-06-23T14:08:26Z</time>
      </trkpt>
      <trkpt lat="48.10324" lon="7.3028">
        <ele>211.67</ele>
        <time>2021-06-23T14:08:29Z</time>
      </trkpt>
      <trkpt lat="48.10307" lon="7.30283">
        <ele>211.05</ele>
        <time>2021-06-23T14:08:33Z</time>
      </trkpt>
      <trkpt lat="48.10281" lon="7.30298">
        <ele>211.9</ele>
        <time>2021-06-23T14:08:36Z</time>
      </trkpt>
      <trkpt lat="48.10268" lon="7.30301">
        <ele>212.34</ele>
        <time>2021-06-23T14:08:39Z</time>
      </trkpt>
      <trkpt lat="48.10256" lon="7.30301">
        <ele>212.77</ele>
        <time>2021-06-23T14:08:42Z</time>
      </trkpt>
      <trkpt lat="48.10187" lon="7.30276">
        <ele>214</ele>
        <time>2021-06-23T14:08:46Z</time>
      </trkpt>
      <trkpt lat="48.10129" lon="7.30266">
        <ele>214.95</ele>
        <time>2021-06-23T14:08:49Z</time>
      </trkpt>
      <trkpt lat="48.10062" lon="7.30259">
        <ele>218.44</ele>
        <time>2021-06-23T14:08:52Z</time>
      </trkpt>
      <trkpt lat="48.09953" lon="7.30245">
        <ele>219.05</ele>
        <time>2021-06-23T14:08:55Z</time>
      </trkpt>
      <trkpt lat="48.09908" lon="7.30243">
        <ele>217.7</ele>
        <time>2021-06-23T14:08:59Z</time>
      </trkpt>
      <trkpt lat="48.09888" lon="7.30245">
        <ele>217</ele>
        <time>2021-06-23T14:09:02Z</time>
      </trkpt>
      <trkpt lat="48.09842" lon="7.30251">
        <ele>217.67</ele>
        <time>2021-06-23T14:09:12Z</time>
      </trkpt>
      <trkpt lat="48.09771" lon="7.3025">
        <ele>218</ele>
        <time>2021-06-23T14:09:22Z</time>
      </trkpt>
      <trkpt lat="48.09742" lon="7.30254">
        <ele>218.29</ele>
        <time>2021-06-23T14:09:32Z</time>
      </trkpt>
      <trkpt lat="48.09729" lon="7.30258">
        <ele>218.77</ele>
        <time>2021-06-23T14:09:42Z</time>
      </trkpt>
      <trkpt lat="48.09711" lon="7.3027">
        <ele>219.42</ele>
        <time>2021-06-23T14:09:52Z</time>
      </trkpt>
      <trkpt lat="48.09699" lon="7.30284">
        <ele>219.84</ele>
        <time>2021-06-23T14:10:02Z</time>
      </trkpt>
      <trkpt lat="48.09616" lon="7.30385">
        <ele>218.02</ele>
        <time>2021-06-23T14:10:12Z</time>
      </trkpt>
      <trkpt lat="48.09611" lon="7.30366">
        <ele>218.19</ele>
        <time>2021-06-23T14:10:13Z</time>
      </trkpt>
      <trkpt lat="48.09611" lon="7.30366">
        <ele>218.19</ele>
        <time>2021-06-23T14:10:13Z</time>
      </trkpt>
      <trkpt lat="48.09592" lon="7.30231">
        <ele>218.93</ele>
        <time>2021-06-23T14:10:16Z</time>
      </trkpt>
      <trkpt lat="48.09592" lon="7.30207">
        <ele>219.92</ele>
        <time>2021-06-23T14:10:19Z</time>
      </trkpt>
      <trkpt lat="48.09596" lon="7.3018">
        <ele>220.12</ele>
        <time>2021-06-23T14:10:22Z</time>
      </trkpt>
      <trkpt lat="48.09601" lon="7.30158">
        <ele>219.9</ele>
        <time>2021-06-23T14:10:24Z</time>
      </trkpt>
      <trkpt lat="48.0961" lon="7.30137">
        <ele>220.04</ele>
        <time>2021-06-23T14:10:27Z</time>
      </trkpt>
      <trkpt lat="48.09619" lon="7.30121">
        <ele>219.62</ele>
        <time>2021-06-23T14:10:30Z</time>
      </trkpt>
      <trkpt lat="48.09639" lon="7.30094">
        <ele>219.6</ele>
        <time>2021-06-23T14:10:33Z</time>
      </trkpt>
      <trkpt lat="48.09661" lon="7.30081">
        <ele>220.07</ele>
        <time>2021-06-23T14:10:36Z</time>
      </trkpt>
      <trkpt lat="48.0972" lon="7.30062">
        <ele>221.73</ele>
        <time>2021-06-23T14:10:39Z</time>
      </trkpt>
      <trkpt lat="48.09743" lon="7.3005">
        <ele>222.79</ele>
        <time>2021-06-23T14:10:42Z</time>
      </trkpt>
      <trkpt lat="48.09748" lon="7.30041">
        <ele>222.96</ele>
        <time>2021-06-23T14:10:44Z</time>
      </trkpt>
      <trkpt lat="48.09796" lon="7.29924">
        <ele>224.73</ele>
        <time>2021-06-23T14:10:47Z</time>
      </trkpt>
      <trkpt lat="48.09798" lon="7.29916">
        <ele>225.01</ele>
        <time>2021-06-23T14:10:50Z</time>
      </trkpt>
      <trkpt lat="48.09799" lon="7.29905">
        <ele>225.1</ele>
        <time>2021-06-23T14:10:53Z</time>
      </trkpt>
      <trkpt lat="48.09804" lon="7.2978">
        <ele>225.29</ele>
        <time>2021-06-23T14:10:56Z</time>
      </trkpt>
      <trkpt lat="48.09821" lon="7.29602">
        <ele>229.85</ele>
        <time>2021-06-23T14:10:59Z</time>
      </trkpt>
      <trkpt lat="48.09827" lon="7.29548">
        <ele>231.49</ele>
        <time>2021-06-23T14:11:01Z</time>
      </trkpt>
      <trkpt lat="48.09835" lon="7.29507">
        <ele>232.8</ele>
        <time>2021-06-23T14:11:04Z</time>
      </trkpt>
      <trkpt lat="48.09845" lon="7.29471">
        <ele>234.45</ele>
        <time>2021-06-23T14:11:07Z</time>
      </trkpt>
      <trkpt lat="48.09858" lon="7.29427">
        <ele>236.54</ele>
        <time>2021-06-23T14:11:10Z</time>
      </trkpt>
      <trkpt lat="48.09993" lon="7.29054">
        <ele>251.07</ele>
        <time>2021-06-23T14:11:13Z</time>
      </trkpt>
      <trkpt lat="48.10033" lon="7.28941">
        <ele>254.47</ele>
        <time>2021-06-23T14:11:16Z</time>
      </trkpt>
      <trkpt lat="48.10041" lon="7.28905">
        <ele>253.52</ele>
        <time>2021-06-23T14:11:18Z</time>
      </trkpt>
      <trkpt lat="48.10061" lon="7.2878">
        <ele>254.6</ele>
        <time>2021-06-23T14:11:21Z</time>
      </trkpt>
      <trkpt lat="48.10063" lon="7.28741">
        <ele>255.91</ele>
        <time>2021-06-23T14:11:24Z</time>
      </trkpt>
      <trkpt lat="48.10061" lon="7.28553">
        <ele>260.67</ele>
        <time>2021-06-23T14:11:27Z</time>
      </trkpt>
      <trkpt lat="48.10057" lon="7.28514">
        <ele>261.75</ele>
        <time>2021-06-23T14:11:30Z</time>
      </trkpt>
      <trkpt lat="48.10051" lon="7.28483">
        <ele>262.89</ele>
        <time>2021-06-23T14:11:33Z</time>
      </trkpt>
      <trkpt lat="48.10043" lon="7.28459">
        <ele>263.54</ele>
        <time>2021-06-23T14:11:36Z</time>
      </trkpt>
      <trkpt lat="48.10031" lon="7.28436">
        <ele>263.3</ele>
        <time>2021-06-23T14:11:38Z</time>
      </trkpt>
      <trkpt lat="48.10001" lon="7.28378">
        <ele>265.39</ele>
        <time>2021-06-23T14:11:41Z</time>
      </trkpt>
      <trkpt lat="48.09975" lon="7.28343">
        <ele>267.64</ele>
        <time>2021-06-23T14:11:44Z</time>
      </trkpt>
      <trkpt lat="48.09942" lon="7.28302">
        <ele>270.19</ele>
        <time>2021-06-23T14:11:47Z</time>
      </trkpt>
      <trkpt lat="48.09931" lon="7.28284">
        <ele>271.38</ele>
        <time>2021-06-23T14:11:50Z</time>
      </trkpt>
      <trkpt lat="48.09919" lon="7.28248">
        <ele>272.99</ele>
        <time>2021-06-23T14:11:53Z</time>
      </trkpt>
      <trkpt lat="48.09914" lon="7.28198">
        <ele>275.86</ele>
        <time>2021-06-23T14:11:55Z</time>
      </trkpt>
      <trkpt lat="48.09917" lon="7.28037">
        <ele>281.65</ele>
        <time>2021-06-23T14:11:58Z</time>
      </trkpt>
      <trkpt lat="48.0992" lon="7.27995">
        <ele>283.26</ele>
        <time>2021-06-23T14:12:01Z</time>
      </trkpt>
      <trkpt lat="48.09931" lon="7.27892">
        <ele>287.4</ele>
        <time>2021-06-23T14:12:04Z</time>
      </trkpt>
      <trkpt lat="48.09963" lon="7.27794">
        <ele>292.14</ele>
        <time>2021-06-23T14:12:07Z</time>
      </trkpt>
      <trkpt lat="48.09969" lon="7.27767">
        <ele>294.55</ele>
        <time>2021-06-23T14:12:10Z</time>
      </trkpt>
      <trkpt lat="48.09978" lon="7.27669">
        <ele>295.7</ele>
        <time>2021-06-23T14:12:13Z</time>
      </trkpt>
      <trkpt lat="48.09979" lon="7.27634">
        <ele>297.86</ele>
        <time>2021-06-23T14:12:15Z</time>
      </trkpt>
      <trkpt lat="48.09971" lon="7.2759">
        <ele>302.44</ele>
        <time>2021-06-23T14:12:18Z</time>
      </trkpt>
      <trkpt lat="48.0997" lon="7.27556">
        <ele>307.02</ele>
        <time>2021-06-23T14:12:21Z</time>
      </trkpt>
      <trkpt lat="48.09973" lon="7.27439">
        <ele>311.3</ele>
        <time>2021-06-23T14:12:24Z</time>
      </trkpt>
      <trkpt lat="48.09976" lon="7.2741">
        <ele>312.61</ele>
        <time>2021-06-23T14:12:27Z</time>
      </trkpt>
      <trkpt lat="48.09977" lon="7.27359">
        <ele>312.34</ele>
        <time>2021-06-23T14:12:30Z</time>
      </trkpt>
      <trkpt lat="48.09973" lon="7.27325">
        <ele>312.59</ele>
        <time>2021-06-23T14:12:32Z</time>
      </trkpt>
      <trkpt lat="48.09971" lon="7.27244">
        <ele>312.04</ele>
        <time>2021-06-23T14:12:35Z</time>
      </trkpt>
      <trkpt lat="48.09974" lon="7.27219">
        <ele>312.11</ele>
        <time>2021-06-23T14:12:38Z</time>
      </trkpt>
      <trkpt lat="48.09998" lon="7.27131">
        <ele>317.99</ele>
        <time>2021-06-23T14:12:41Z</time>
      </trkpt>
      <trkpt lat="48.10032" lon="7.27026">
        <ele>323.72</ele>
        <time>2021-06-23T14:12:44Z</time>
      </trkpt>
      <trkpt lat="48.10048" lon="7.26993">
        <ele>325.27</ele>
        <time>2021-06-23T14:12:47Z</time>
      </trkpt>
      <trkpt lat="48.10072" lon="7.26958">
        <ele>325.68</ele>
        <time>2021-06-23T14:12:50Z</time>
      </trkpt>
      <trkpt lat="48.10109" lon="7.26879">
        <ele>329.34</ele>
        <time>2021-06-23T14:12:52Z</time>
      </trkpt>
      <trkpt lat="48.10114" lon="7.26866">
        <ele>330.16</ele>
        <time>2021-06-23T14:12:55Z</time>
      </trkpt>
      <trkpt lat="48.1012" lon="7.26839">
        <ele>332.08</ele>
        <time>2021-06-23T14:12:58Z</time>
      </trkpt>
      <trkpt lat="48.10127" lon="7.26791">
        <ele>336.47</ele>
        <time>2021-06-23T14:13:01Z</time>
      </trkpt>
      <trkpt lat="48.10128" lon="7.26736">
        <ele>344.14</ele>
        <time>2021-06-23T14:13:04Z</time>
      </trkpt>
      <trkpt lat="48.10123" lon="7.26593">
        <ele>355.47</ele>
        <time>2021-06-23T14:13:07Z</time>
      </trkpt>
      <trkpt lat="48.10118" lon="7.26517">
        <ele>360.24</ele>
        <time>2021-06-23T14:13:09Z</time>
      </trkpt>
      <trkpt lat="48.10094" lon="7.2633">
        <ele>366.23</ele>
        <time>2021-06-23T14:13:12Z</time>
      </trkpt>
      <trkpt lat="48.10075" lon="7.26137">
        <ele>373.34</ele>
        <time>2021-06-23T14:13:15Z</time>
      </trkpt>
      <trkpt lat="48.10069" lon="7.26096">
        <ele>370.86</ele>
        <time>2021-06-23T14:13:18Z</time>
      </trkpt>
      <trkpt lat="48.10065" lon="7.26081">
        <ele>370.39</ele>
        <time>2021-06-23T14:13:21Z</time>
      </trkpt>
      <trkpt lat="48.10059" lon="7.26067">
        <ele>371.44</ele>
        <time>2021-06-23T14:13:24Z</time>
      </trkpt>
      <trkpt lat="48.10028" lon="7.26007">
        <ele>379.17</ele>
        <time>2021-06-23T14:13:26Z</time>
      </trkpt>
      <trkpt lat="48.10026" lon="7.26001">
        <ele>379.59</ele>
        <time>2021-06-23T14:13:29Z</time>
      </trkpt>
      <trkpt lat="48.10025" lon="7.25988">
        <ele>381.17</ele>
        <time>2021-06-23T14:13:32Z</time>
      </trkpt>
      <trkpt lat="48.10027" lon="7.25966">
        <ele>383.43</ele>
        <time>2021-06-23T14:13:35Z</time>
      </trkpt>
      <trkpt lat="48.10046" lon="7.25908">
        <ele>392.96</ele>
        <time>2021-06-23T14:13:38Z</time>
      </trkpt>
      <trkpt lat="48.10055" lon="7.25864">
        <ele>396.77</ele>
        <time>2021-06-23T14:13:41Z</time>
      </trkpt>
      <trkpt lat="48.10057" lon="7.25844">
        <ele>398.17</ele>
        <time>2021-06-23T14:13:44Z</time>
      </trkpt>
      <trkpt lat="48.10064" lon="7.25813">
        <ele>399.58</ele>
        <time>2021-06-23T14:13:46Z</time>
      </trkpt>
      <trkpt lat="48.10067" lon="7.25804">
        <ele>399.46</ele>
        <time>2021-06-23T14:13:49Z</time>
      </trkpt>
      <trkpt lat="48.10079" lon="7.25783">
        <ele>398</ele>
        <time>2021-06-23T14:13:52Z</time>
      </trkpt>
      <trkpt lat="48.10101" lon="7.25755">
        <ele>399.37</ele>
        <time>2021-06-23T14:13:55Z</time>
      </trkpt>
      <trkpt lat="48.10115" lon="7.25732">
        <ele>400.44</ele>
        <time>2021-06-23T14:13:58Z</time>
      </trkpt>
      <trkpt lat="48.1012" lon="7.25721">
        <ele>400.93</ele>
        <time>2021-06-23T14:14:01Z</time>
      </trkpt>
      <trkpt lat="48.10125" lon="7.25701">
        <ele>401.83</ele>
        <time>2021-06-23T14:14:03Z</time>
      </trkpt>
      <trkpt lat="48.10128" lon="7.25681">
        <ele>402.76</ele>
        <time>2021-06-23T14:14:06Z</time>
      </trkpt>
      <trkpt lat="48.10143" lon="7.25515">
        <ele>412.99</ele>
        <time>2021-06-23T14:14:09Z</time>
      </trkpt>
      <trkpt lat="48.10135" lon="7.25445">
        <ele>416.92</ele>
        <time>2021-06-23T14:14:12Z</time>
      </trkpt>
      <trkpt lat="48.10135" lon="7.25402">
        <ele>427.1</ele>
        <time>2021-06-23T14:14:15Z</time>
      </trkpt>
      <trkpt lat="48.10133" lon="7.2539">
        <ele>429.28</ele>
        <time>2021-06-23T14:14:18Z</time>
      </trkpt>
      <trkpt lat="48.10127" lon="7.25382">
        <ele>430.05</ele>
        <time>2021-06-23T14:14:21Z</time>
      </trkpt>
      <trkpt lat="48.1012" lon="7.25381">
        <ele>429.55</ele>
        <time>2021-06-23T14:14:23Z</time>
      </trkpt>
      <trkpt lat="48.10113" lon="7.25384">
        <ele>428.57</ele>
        <time>2021-06-23T14:14:26Z</time>
      </trkpt>
      <trkpt lat="48.1011" lon="7.25393">
        <ele>428.17</ele>
        <time>2021-06-23T14:14:29Z</time>
      </trkpt>
      <trkpt lat="48.10109" lon="7.25409">
        <ele>427</ele>
        <time>2021-06-23T14:14:32Z</time>
      </trkpt>
      <trkpt lat="48.10117" lon="7.25439">
        <ele>422.16</ele>
        <time>2021-06-23T14:14:35Z</time>
      </trkpt>
      <trkpt lat="48.10123" lon="7.25482">
        <ele>417.72</ele>
        <time>2021-06-23T14:14:38Z</time>
      </trkpt>
      <trkpt lat="48.10121" lon="7.25509">
        <ele>418.73</ele>
        <time>2021-06-23T14:14:40Z</time>
      </trkpt>
      <trkpt lat="48.10114" lon="7.2553">
        <ele>420.19</ele>
        <time>2021-06-23T14:14:43Z</time>
      </trkpt>
      <trkpt lat="48.10101" lon="7.25554">
        <ele>424.56</ele>
        <time>2021-06-23T14:14:46Z</time>
      </trkpt>
      <trkpt lat="48.1006" lon="7.25612">
        <ele>437.38</ele>
        <time>2021-06-23T14:14:49Z</time>
      </trkpt>
      <trkpt lat="48.10021" lon="7.25691">
        <ele>435.88</ele>
        <time>2021-06-23T14:14:52Z</time>
      </trkpt>
      <trkpt lat="48.09993" lon="7.25755">
        <ele>433.25</ele>
        <time>2021-06-23T14:14:55Z</time>
      </trkpt>
      <trkpt lat="48.09979" lon="7.25782">
        <ele>432.82</ele>
        <time>2021-06-23T14:14:57Z</time>
      </trkpt>
      <trkpt lat="48.09973" lon="7.25788">
        <ele>432.72</ele>
        <time>2021-06-23T14:15:00Z</time>
      </trkpt>
      <trkpt lat="48.09962" lon="7.25789">
        <ele>433.64</ele>
        <time>2021-06-23T14:15:03Z</time>
      </trkpt>
      <trkpt lat="48.09956" lon="7.25787">
        <ele>434.86</ele>
        <time>2021-06-23T14:15:06Z</time>
      </trkpt>
      <trkpt lat="48.09923" lon="7.25761">
        <ele>442.75</ele>
        <time>2021-06-23T14:15:09Z</time>
      </trkpt>
      <trkpt lat="48.09891" lon="7.25739">
        <ele>454.36</ele>
        <time>2021-06-23T14:15:12Z</time>
      </trkpt>
      <trkpt lat="48.09878" lon="7.25734">
        <ele>457.17</ele>
        <time>2021-06-23T14:15:15Z</time>
      </trkpt>
      <trkpt lat="48.09863" lon="7.25734">
        <ele>457.73</ele>
        <time>2021-06-23T14:15:17Z</time>
      </trkpt>
      <trkpt lat="48.09835" lon="7.25741">
        <ele>458.46</ele>
        <time>2021-06-23T14:15:20Z</time>
      </trkpt>
      <trkpt lat="48.0982" lon="7.25753">
        <ele>458.33</ele>
        <time>2021-06-23T14:15:23Z</time>
      </trkpt>
      <trkpt lat="48.09804" lon="7.25782">
        <ele>459.39</ele>
        <time>2021-06-23T14:15:26Z</time>
      </trkpt>
      <trkpt lat="48.09791" lon="7.25816">
        <ele>463.24</ele>
        <time>2021-06-23T14:15:29Z</time>
      </trkpt>
      <trkpt lat="48.09786" lon="7.25843">
        <ele>465.08</ele>
        <time>2021-06-23T14:15:32Z</time>
      </trkpt>
      <trkpt lat="48.09779" lon="7.26072">
        <ele>466.9</ele>
        <time>2021-06-23T14:15:34Z</time>
      </trkpt>
      <trkpt lat="48.09776" lon="7.26105">
        <ele>465.24</ele>
        <time>2021-06-23T14:15:37Z</time>
      </trkpt>
      <trkpt lat="48.09758" lon="7.26163">
        <ele>463.1</ele>
        <time>2021-06-23T14:15:40Z</time>
      </trkpt>
      <trkpt lat="48.09754" lon="7.26171">
        <ele>463.42</ele>
        <time>2021-06-23T14:15:43Z</time>
      </trkpt>
      <trkpt lat="48.09746" lon="7.26178">
        <ele>464.48</ele>
        <time>2021-06-23T14:15:46Z</time>
      </trkpt>
      <trkpt lat="48.0974" lon="7.26178">
        <ele>465.55</ele>
        <time>2021-06-23T14:15:49Z</time>
      </trkpt>
      <trkpt lat="48.09735" lon="7.26175">
        <ele>466.7</ele>
        <time>2021-06-23T14:15:52Z</time>
      </trkpt>
      <trkpt lat="48.09731" lon="7.2617">
        <ele>467.97</ele>
        <time>2021-06-23T14:15:54Z</time>
      </trkpt>
      <trkpt lat="48.0973" lon="7.26164">
        <ele>468.97</ele>
        <time>2021-06-23T14:15:57Z</time>
      </trkpt>
      <trkpt lat="48.0973" lon="7.26149">
        <ele>470.58</ele>
        <time>2021-06-23T14:16:00Z</time>
      </trkpt>
      <trkpt lat="48.09737" lon="7.26126">
        <ele>471.99</ele>
        <time>2021-06-23T14:16:03Z</time>
      </trkpt>
      <trkpt lat="48.09741" lon="7.26105">
        <ele>473.54</ele>
        <time>2021-06-23T14:16:06Z</time>
      </trkpt>
      <trkpt lat="48.09743" lon="7.26087">
        <ele>474.17</ele>
        <time>2021-06-23T14:16:09Z</time>
      </trkpt>
      <trkpt lat="48.09727" lon="7.25857">
        <ele>489.33</ele>
        <time>2021-06-23T14:16:11Z</time>
      </trkpt>
      <trkpt lat="48.09724" lon="7.25834">
        <ele>492.09</ele>
        <time>2021-06-23T14:16:14Z</time>
      </trkpt>
      <trkpt lat="48.09711" lon="7.25762">
        <ele>492.5</ele>
        <time>2021-06-23T14:16:17Z</time>
      </trkpt>
      <trkpt lat="48.09696" lon="7.25701">
        <ele>494.77</ele>
        <time>2021-06-23T14:16:20Z</time>
      </trkpt>
      <trkpt lat="48.09693" lon="7.25682">
        <ele>495.88</ele>
        <time>2021-06-23T14:16:23Z</time>
      </trkpt>
      <trkpt lat="48.09694" lon="7.25664">
        <ele>497.33</ele>
        <time>2021-06-23T14:16:26Z</time>
      </trkpt>
      <trkpt lat="48.09696" lon="7.25655">
        <ele>498.63</ele>
        <time>2021-06-23T14:16:28Z</time>
      </trkpt>
      <trkpt lat="48.09702" lon="7.25641">
        <ele>500.43</ele>
        <time>2021-06-23T14:16:31Z</time>
      </trkpt>
      <trkpt lat="48.09709" lon="7.25632">
        <ele>502.17</ele>
        <time>2021-06-23T14:16:34Z</time>
      </trkpt>
      <trkpt lat="48.09758" lon="7.25587">
        <ele>509.17</ele>
        <time>2021-06-23T14:16:37Z</time>
      </trkpt>
      <trkpt lat="48.09778" lon="7.25575">
        <ele>513.43</ele>
        <time>2021-06-23T14:16:40Z</time>
      </trkpt>
      <trkpt lat="48.09802" lon="7.25567">
        <ele>514.99</ele>
        <time>2021-06-23T14:16:43Z</time>
      </trkpt>
      <trkpt lat="48.09864" lon="7.25557">
        <ele>514.66</ele>
        <time>2021-06-23T14:16:46Z</time>
      </trkpt>
      <trkpt lat="48.09881" lon="7.25552">
        <ele>511.14</ele>
        <time>2021-06-23T14:16:48Z</time>
      </trkpt>
      <trkpt lat="48.09894" lon="7.25541">
        <ele>510.24</ele>
        <time>2021-06-23T14:16:51Z</time>
      </trkpt>
      <trkpt lat="48.09908" lon="7.25515">
        <ele>511.43</ele>
        <time>2021-06-23T14:16:54Z</time>
      </trkpt>
      <trkpt lat="48.09918" lon="7.25481">
        <ele>514.29</ele>
        <time>2021-06-23T14:16:57Z</time>
      </trkpt>
      <trkpt lat="48.0992" lon="7.25454">
        <ele>516.95</ele>
        <time>2021-06-23T14:17:00Z</time>
      </trkpt>
      <trkpt lat="48.09919" lon="7.25414">
        <ele>519.89</ele>
        <time>2021-06-23T14:17:03Z</time>
      </trkpt>
      <trkpt lat="48.09915" lon="7.25385">
        <ele>523.92</ele>
        <time>2021-06-23T14:17:05Z</time>
      </trkpt>
      <trkpt lat="48.09878" lon="7.25256">
        <ele>538.81</ele>
        <time>2021-06-23T14:17:08Z</time>
      </trkpt>
      <trkpt lat="48.09868" lon="7.25207">
        <ele>538.95</ele>
        <time>2021-06-23T14:17:11Z</time>
      </trkpt>
      <trkpt lat="48.09862" lon="7.25156">
        <ele>541.64</ele>
        <time>2021-06-23T14:17:14Z</time>
      </trkpt>
      <trkpt lat="48.09855" lon="7.2507">
        <ele>540.35</ele>
        <time>2021-06-23T14:17:17Z</time>
      </trkpt>
      <trkpt lat="48.09852" lon="7.24985">
        <ele>541.37</ele>
        <time>2021-06-23T14:17:20Z</time>
      </trkpt>
      <trkpt lat="48.09843" lon="7.24939">
        <ele>547.22</ele>
        <time>2021-06-23T14:17:23Z</time>
      </trkpt>
      <trkpt lat="48.09813" lon="7.24814">
        <ele>553.39</ele>
        <time>2021-06-23T14:17:25Z</time>
      </trkpt>
      <trkpt lat="48.09803" lon="7.24731">
        <ele>557.93</ele>
        <time>2021-06-23T14:17:28Z</time>
      </trkpt>
      <trkpt lat="48.0979" lon="7.24564">
        <ele>567.04</ele>
        <time>2021-06-23T14:17:31Z</time>
      </trkpt>
      <trkpt lat="48.09792" lon="7.24546">
        <ele>568.16</ele>
        <time>2021-06-23T14:17:34Z</time>
      </trkpt>
      <trkpt lat="48.09796" lon="7.24527">
        <ele>570.24</ele>
        <time>2021-06-23T14:17:37Z</time>
      </trkpt>
      <trkpt lat="48.09805" lon="7.24508">
        <ele>570.88</ele>
        <time>2021-06-23T14:17:40Z</time>
      </trkpt>
      <trkpt lat="48.09849" lon="7.24445">
        <ele>569.97</ele>
        <time>2021-06-23T14:17:42Z</time>
      </trkpt>
      <trkpt lat="48.09864" lon="7.24404">
        <ele>573.84</ele>
        <time>2021-06-23T14:17:45Z</time>
      </trkpt>
      <trkpt lat="48.09879" lon="7.24352">
        <ele>577.16</ele>
        <time>2021-06-23T14:17:48Z</time>
      </trkpt>
      <trkpt lat="48.09888" lon="7.24275">
        <ele>576.14</ele>
        <time>2021-06-23T14:17:51Z</time>
      </trkpt>
      <trkpt lat="48.09887" lon="7.24226">
        <ele>574.59</ele>
        <time>2021-06-23T14:17:54Z</time>
      </trkpt>
      <trkpt lat="48.09884" lon="7.24206">
        <ele>575.28</ele>
        <time>2021-06-23T14:17:57Z</time>
      </trkpt>
      <trkpt lat="48.09868" lon="7.24146">
        <ele>581.14</ele>
        <time>2021-06-23T14:18:00Z</time>
      </trkpt>
      <trkpt lat="48.09867" lon="7.24134">
        <ele>581.47</ele>
        <time>2021-06-23T14:18:02Z</time>
      </trkpt>
      <trkpt lat="48.09869" lon="7.24103">
        <ele>581.81</ele>
        <time>2021-06-23T14:18:05Z</time>
      </trkpt>
      <trkpt lat="48.09875" lon="7.2407">
        <ele>582.24</ele>
        <time>2021-06-23T14:18:08Z</time>
      </trkpt>
      <trkpt lat="48.09885" lon="7.24025">
        <ele>584.7</ele>
        <time>2021-06-23T14:18:11Z</time>
      </trkpt>
      <trkpt lat="48.09886" lon="7.24009">
        <ele>586</ele>
        <time>2021-06-23T14:18:14Z</time>
      </trkpt>
      <trkpt lat="48.09883" lon="7.23989">
        <ele>587.75</ele>
        <time>2021-06-23T14:18:17Z</time>
      </trkpt>
      <trkpt lat="48.09867" lon="7.23958">
        <ele>589.98</ele>
        <time>2021-06-23T14:18:19Z</time>
      </trkpt>
      <trkpt lat="48.09859" lon="7.23934">
        <ele>590.88</ele>
        <time>2021-06-23T14:18:22Z</time>
      </trkpt>
      <trkpt lat="48.09858" lon="7.23918">
        <ele>591.73</ele>
        <time>2021-06-23T14:18:25Z</time>
      </trkpt>
      <trkpt lat="48.09859" lon="7.23894">
        <ele>593.26</ele>
        <time>2021-06-23T14:18:28Z</time>
      </trkpt>
      <trkpt lat="48.09866" lon="7.23847">
        <ele>596.41</ele>
        <time>2021-06-23T14:18:31Z</time>
      </trkpt>
      <trkpt lat="48.09873" lon="7.23829">
        <ele>598.3</ele>
        <time>2021-06-23T14:18:34Z</time>
      </trkpt>
      <trkpt lat="48.0989" lon="7.23798">
        <ele>601.92</ele>
        <time>2021-06-23T14:18:36Z</time>
      </trkpt>
      <trkpt lat="48.09924" lon="7.23752">
        <ele>606.05</ele>
        <time>2021-06-23T14:18:39Z</time>
      </trkpt>
      <trkpt lat="48.09943" lon="7.2373">
        <ele>610.24</ele>
        <time>2021-06-23T14:18:42Z</time>
      </trkpt>
      <trkpt lat="48.09949" lon="7.23721">
        <ele>611.85</ele>
        <time>2021-06-23T14:18:45Z</time>
      </trkpt>
      <trkpt lat="48.09954" lon="7.23702">
        <ele>613.99</ele>
        <time>2021-06-23T14:18:48Z</time>
      </trkpt>
      <trkpt lat="48.09955" lon="7.23671">
        <ele>619.53</ele>
        <time>2021-06-23T14:18:51Z</time>
      </trkpt>
      <trkpt lat="48.09952" lon="7.23657">
        <ele>621.45</ele>
        <time>2021-06-23T14:18:54Z</time>
      </trkpt>
      <trkpt lat="48.09946" lon="7.23641">
        <ele>622.41</ele>
        <time>2021-06-23T14:18:56Z</time>
      </trkpt>
      <trkpt lat="48.09935" lon="7.23615">
        <ele>623.88</ele>
        <time>2021-06-23T14:18:59Z</time>
      </trkpt>
      <trkpt lat="48.09924" lon="7.23596">
        <ele>624.48</ele>
        <time>2021-06-23T14:19:02Z</time>
      </trkpt>
      <trkpt lat="48.09866" lon="7.23531">
        <ele>622.18</ele>
        <time>2021-06-23T14:19:05Z</time>
      </trkpt>
      <trkpt lat="48.09826" lon="7.23494">
        <ele>621.53</ele>
        <time>2021-06-23T14:19:08Z</time>
      </trkpt>
      <trkpt lat="48.09812" lon="7.23475">
        <ele>621.74</ele>
        <time>2021-06-23T14:19:11Z</time>
      </trkpt>
      <trkpt lat="48.0981" lon="7.23463">
        <ele>622.63</ele>
        <time>2021-06-23T14:19:13Z</time>
      </trkpt>
      <trkpt lat="48.0981" lon="7.23457">
        <ele>623.31</ele>
        <time>2021-06-23T14:19:16Z</time>
      </trkpt>
      <trkpt lat="48.09815" lon="7.23445">
        <ele>625.21</ele>
        <time>2021-06-23T14:19:19Z</time>
      </trkpt>
      <trkpt lat="48.0982" lon="7.23438">
        <ele>626.02</ele>
        <time>2021-06-23T14:19:22Z</time>
      </trkpt>
      <trkpt lat="48.09828" lon="7.23452">
        <ele>626.42</ele>
        <time>2021-06-23T14:19:25Z</time>
      </trkpt>
      <trkpt lat="48.09839" lon="7.23463">
        <ele>626.56</ele>
        <time>2021-06-23T14:19:27Z</time>
      </trkpt>
      <trkpt lat="48.09845" lon="7.23466">
        <ele>626.85</ele>
        <time>2021-06-23T14:19:30Z</time>
      </trkpt>
      <trkpt lat="48.09856" lon="7.23468">
        <ele>627.74</ele>
        <time>2021-06-23T14:19:32Z</time>
      </trkpt>
      <trkpt lat="48.09869" lon="7.23462">
        <ele>630.14</ele>
        <time>2021-06-23T14:19:35Z</time>
      </trkpt>
      <trkpt lat="48.09877" lon="7.23455">
        <ele>632.12</ele>
        <time>2021-06-23T14:19:37Z</time>
      </trkpt>
      <trkpt lat="48.09881" lon="7.23446">
        <ele>633.58</ele>
        <time>2021-06-23T14:19:40Z</time>
      </trkpt>
      <trkpt lat="48.09885" lon="7.23425">
        <ele>634.37</ele>
        <time>2021-06-23T14:19:42Z</time>
      </trkpt>
      <trkpt lat="48.09892" lon="7.23352">
        <ele>631.43</ele>
        <time>2021-06-23T14:19:45Z</time>
      </trkpt>
      <trkpt lat="48.09896" lon="7.2334">
        <ele>632.2</ele>
        <time>2021-06-23T14:19:47Z</time>
      </trkpt>
      <trkpt lat="48.09905" lon="7.23333">
        <ele>634.04</ele>
        <time>2021-06-23T14:19:50Z</time>
      </trkpt>
      <trkpt lat="48.09916" lon="7.23339">
        <ele>637.13</ele>
        <time>2021-06-23T14:19:52Z</time>
      </trkpt>
      <trkpt lat="48.0992" lon="7.23348">
        <ele>639.09</ele>
        <time>2021-06-23T14:19:55Z</time>
      </trkpt>
      <trkpt lat="48.0992" lon="7.23354">
        <ele>639.71</ele>
        <time>2021-06-23T14:19:57Z</time>
      </trkpt>
      <trkpt lat="48.09917" lon="7.23399">
        <ele>641.13</ele>
        <time>2021-06-23T14:20:00Z</time>
      </trkpt>
      <trkpt lat="48.0992" lon="7.23421">
        <ele>641.97</ele>
        <time>2021-06-23T14:20:02Z</time>
      </trkpt>
      <trkpt lat="48.09927" lon="7.23446">
        <ele>645.25</ele>
        <time>2021-06-23T14:20:05Z</time>
      </trkpt>
      <trkpt lat="48.09931" lon="7.23451">
        <ele>646.8</ele>
        <time>2021-06-23T14:20:07Z</time>
      </trkpt>
      <trkpt lat="48.09936" lon="7.23453">
        <ele>648.55</ele>
        <time>2021-06-23T14:20:10Z</time>
      </trkpt>
      <trkpt lat="48.09942" lon="7.23449">
        <ele>650.09</ele>
        <time>2021-06-23T14:20:12Z</time>
      </trkpt>
      <trkpt lat="48.09943" lon="7.23438">
        <ele>650.21</ele>
        <time>2021-06-23T14:20:15Z</time>
      </trkpt>
      <trkpt lat="48.09932" lon="7.23403">
        <ele>645</ele>
        <time>2021-06-23T14:20:17Z</time>
      </trkpt>
      <trkpt lat="48.09931" lon="7.23391">
        <ele>644.54</ele>
        <time>2021-06-23T14:20:20Z</time>
      </trkpt>
      <trkpt lat="48.09932" lon="7.23375">
        <ele>644.36</ele>
        <time>2021-06-23T14:20:22Z</time>
      </trkpt>
      <trkpt lat="48.09937" lon="7.23358">
        <ele>645.46</ele>
        <time>2021-06-23T14:20:25Z</time>
      </trkpt>
      <trkpt lat="48.09974" lon="7.2328">
        <ele>654.6</ele>
        <time>2021-06-23T14:20:27Z</time>
      </trkpt>
      <trkpt lat="48.09983" lon="7.23243">
        <ele>653.95</ele>
        <time>2021-06-23T14:20:30Z</time>
      </trkpt>
      <trkpt lat="48.09984" lon="7.23175">
        <ele>655.07</ele>
        <time>2021-06-23T14:20:32Z</time>
      </trkpt>
      <trkpt lat="48.0998" lon="7.23141">
        <ele>657.16</ele>
        <time>2021-06-23T14:20:35Z</time>
      </trkpt>
      <trkpt lat="48.09977" lon="7.23122">
        <ele>657.78</ele>
        <time>2021-06-23T14:20:37Z</time>
      </trkpt>
      <trkpt lat="48.09964" lon="7.23073">
        <ele>660.66</ele>
        <time>2021-06-23T14:20:40Z</time>
      </trkpt>
      <trkpt lat="48.09953" lon="7.23043">
        <ele>661.73</ele>
        <time>2021-06-23T14:20:42Z</time>
      </trkpt>
      <trkpt lat="48.0994" lon="7.23028">
        <ele>661.72</ele>
        <time>2021-06-23T14:20:45Z</time>
      </trkpt>
      <trkpt lat="48.09927" lon="7.23019">
        <ele>661.36</ele>
        <time>2021-06-23T14:20:47Z</time>
      </trkpt>
      <trkpt lat="48.09856" lon="7.22984">
        <ele>660.57</ele>
        <time>2021-06-23T14:20:50Z</time>
      </trkpt>
      <trkpt lat="48.09811" lon="7.22949">
        <ele>671.69</ele>
        <time>2021-06-23T14:20:52Z</time>
      </trkpt>
      <trkpt lat="48.09753" lon="7.22892">
        <ele>677.43</ele>
        <time>2021-06-23T14:20:55Z</time>
      </trkpt>
      <trkpt lat="48.09743" lon="7.2288">
        <ele>675.68</ele>
        <time>2021-06-23T14:20:57Z</time>
      </trkpt>
      <trkpt lat="48.09737" lon="7.22863">
        <ele>674.7</ele>
        <time>2021-06-23T14:21:00Z</time>
      </trkpt>
      <trkpt lat="48.09734" lon="7.22842">
        <ele>675.67</ele>
        <time>2021-06-23T14:21:02Z</time>
      </trkpt>
      <trkpt lat="48.09737" lon="7.22816">
        <ele>677.65</ele>
        <time>2021-06-23T14:21:05Z</time>
      </trkpt>
      <trkpt lat="48.09761" lon="7.22757">
        <ele>679.65</ele>
        <time>2021-06-23T14:21:07Z</time>
      </trkpt>
      <trkpt lat="48.09786" lon="7.22688">
        <ele>676.5</ele>
        <time>2021-06-23T14:21:10Z</time>
      </trkpt>
      <trkpt lat="48.09796" lon="7.22653">
        <ele>677.12</ele>
        <time>2021-06-23T14:21:12Z</time>
      </trkpt>
      <trkpt lat="48.09801" lon="7.22621">
        <ele>677.61</ele>
        <time>2021-06-23T14:21:15Z</time>
      </trkpt>
      <trkpt lat="48.09805" lon="7.2257">
        <ele>678.93</ele>
        <time>2021-06-23T14:21:17Z</time>
      </trkpt>
      <trkpt lat="48.09808" lon="7.22495">
        <ele>678.54</ele>
        <time>2021-06-23T14:21:20Z</time>
      </trkpt>
      <trkpt lat="48.09811" lon="7.22455">
        <ele>678.61</ele>
        <time>2021-06-23T14:21:22Z</time>
      </trkpt>
      <trkpt lat="48.09816" lon="7.22426">
        <ele>679.9</ele>
        <time>2021-06-23T14:21:25Z</time>
      </trkpt>
      <trkpt lat="48.09836" lon="7.22343">
        <ele>681.32</ele>
        <time>2021-06-23T14:21:28Z</time>
      </trkpt>
      <trkpt lat="48.09845" lon="7.22296">
        <ele>683.57</ele>
        <time>2021-06-23T14:21:30Z</time>
      </trkpt>
      <trkpt lat="48.09843" lon="7.22265">
        <ele>683.28</ele>
        <time>2021-06-23T14:21:33Z</time>
      </trkpt>
      <trkpt lat="48.09831" lon="7.22209">
        <ele>681.58</ele>
        <time>2021-06-23T14:21:35Z</time>
      </trkpt>
      <trkpt lat="48.09822" lon="7.22148">
        <ele>683.18</ele>
        <time>2021-06-23T14:21:38Z</time>
      </trkpt>
      <trkpt lat="48.0982" lon="7.2212">
        <ele>685.53</ele>
        <time>2021-06-23T14:21:40Z</time>
      </trkpt>
      <trkpt lat="48.09818" lon="7.22052">
        <ele>687.45</ele>
        <time>2021-06-23T14:21:43Z</time>
      </trkpt>
      <trkpt lat="48.09812" lon="7.2198">
        <ele>688.51</ele>
        <time>2021-06-23T14:21:45Z</time>
      </trkpt>
      <trkpt lat="48.09807" lon="7.2195">
        <ele>688.17</ele>
        <time>2021-06-23T14:21:48Z</time>
      </trkpt>
      <trkpt lat="48.09797" lon="7.2192">
        <ele>687.43</ele>
        <time>2021-06-23T14:21:50Z</time>
      </trkpt>
      <trkpt lat="48.09782" lon="7.21882">
        <ele>687.45</ele>
        <time>2021-06-23T14:21:53Z</time>
      </trkpt>
      <trkpt lat="48.09771" lon="7.21846">
        <ele>687.73</ele>
        <time>2021-06-23T14:21:55Z</time>
      </trkpt>
      <trkpt lat="48.09764" lon="7.21814">
        <ele>688.83</ele>
        <time>2021-06-23T14:21:58Z</time>
      </trkpt>
      <trkpt lat="48.09762" lon="7.21793">
        <ele>689.45</ele>
        <time>2021-06-23T14:22:00Z</time>
      </trkpt>
      <trkpt lat="48.09761" lon="7.21756">
        <ele>691.63</ele>
        <time>2021-06-23T14:22:03Z</time>
      </trkpt>
      <trkpt lat="48.09766" lon="7.21715">
        <ele>694.64</ele>
        <time>2021-06-23T14:22:05Z</time>
      </trkpt>
      <trkpt lat="48.09775" lon="7.2168">
        <ele>695.39</ele>
        <time>2021-06-23T14:22:08Z</time>
      </trkpt>
      <trkpt lat="48.098" lon="7.21599">
        <ele>701.47</ele>
        <time>2021-06-23T14:22:10Z</time>
      </trkpt>
      <trkpt lat="48.09806" lon="7.21584">
        <ele>704.81</ele>
        <time>2021-06-23T14:22:13Z</time>
      </trkpt>
      <trkpt lat="48.09812" lon="7.21574">
        <ele>707.56</ele>
        <time>2021-06-23T14:22:15Z</time>
      </trkpt>
      <trkpt lat="48.09822" lon="7.21566">
        <ele>708.74</ele>
        <time>2021-06-23T14:22:18Z</time>
      </trkpt>
      <trkpt lat="48.09832" lon="7.21565">
        <ele>707.86</ele>
        <time>2021-06-23T14:22:20Z</time>
      </trkpt>
      <trkpt lat="48.09845" lon="7.21571">
        <ele>705.85</ele>
        <time>2021-06-23T14:22:23Z</time>
      </trkpt>
      <trkpt lat="48.09899" lon="7.2162">
        <ele>707.12</ele>
        <time>2021-06-23T14:22:25Z</time>
      </trkpt>
      <trkpt lat="48.09915" lon="7.21631">
        <ele>708.81</ele>
        <time>2021-06-23T14:22:28Z</time>
      </trkpt>
      <trkpt lat="48.09927" lon="7.21635">
        <ele>709.47</ele>
        <time>2021-06-23T14:22:30Z</time>
      </trkpt>
      <trkpt lat="48.09937" lon="7.21635">
        <ele>709.92</ele>
        <time>2021-06-23T14:22:33Z</time>
      </trkpt>
      <trkpt lat="48.09949" lon="7.21632">
        <ele>710.69</ele>
        <time>2021-06-23T14:22:35Z</time>
      </trkpt>
      <trkpt lat="48.0998" lon="7.21614">
        <ele>712.55</ele>
        <time>2021-06-23T14:22:38Z</time>
      </trkpt>
      <trkpt lat="48.1001" lon="7.21585">
        <ele>712.22</ele>
        <time>2021-06-23T14:22:40Z</time>
      </trkpt>
      <trkpt lat="48.10021" lon="7.2157">
        <ele>711.5</ele>
        <time>2021-06-23T14:22:43Z</time>
      </trkpt>
      <trkpt lat="48.10025" lon="7.21561">
        <ele>711.23</ele>
        <time>2021-06-23T14:22:45Z</time>
      </trkpt>
      <trkpt lat="48.10028" lon="7.2154">
        <ele>710.99</ele>
        <time>2021-06-23T14:22:48Z</time>
      </trkpt>
      <trkpt lat="48.10025" lon="7.21517">
        <ele>711.57</ele>
        <time>2021-06-23T14:22:50Z</time>
      </trkpt>
      <trkpt lat="48.10019" lon="7.21503">
        <ele>712.24</ele>
        <time>2021-06-23T14:22:53Z</time>
      </trkpt>
      <trkpt lat="48.09986" lon="7.21433">
        <ele>715.35</ele>
        <time>2021-06-23T14:22:55Z</time>
      </trkpt>
      <trkpt lat="48.09976" lon="7.21396">
        <ele>717.62</ele>
        <time>2021-06-23T14:22:58Z</time>
      </trkpt>
      <trkpt lat="48.09948" lon="7.21199">
        <ele>728.07</ele>
        <time>2021-06-23T14:23:00Z</time>
      </trkpt>
      <trkpt lat="48.09921" lon="7.21079">
        <ele>736.91</ele>
        <time>2021-06-23T14:23:03Z</time>
      </trkpt>
      <trkpt lat="48.09912" lon="7.21047">
        <ele>739.36</ele>
        <time>2021-06-23T14:23:05Z</time>
      </trkpt>
      <trkpt lat="48.09881" lon="7.20983">
        <ele>740.54</ele>
        <time>2021-06-23T14:23:08Z</time>
      </trkpt>
      <trkpt lat="48.0987" lon="7.20957">
        <ele>739.83</ele>
        <time>2021-06-23T14:23:10Z</time>
      </trkpt>
      <trkpt lat="48.09863" lon="7.20931">
        <ele>739.29</ele>
        <time>2021-06-23T14:23:13Z</time>
      </trkpt>
      <trkpt lat="48.09845" lon="7.20774">
        <ele>739.32</ele>
        <time>2021-06-23T14:23:15Z</time>
      </trkpt>
      <trkpt lat="48.09841" lon="7.20666">
        <ele>741.53</ele>
        <time>2021-06-23T14:23:18Z</time>
      </trkpt>
      <trkpt lat="48.09835" lon="7.20578">
        <ele>744.88</ele>
        <time>2021-06-23T14:23:20Z</time>
      </trkpt>
      <trkpt lat="48.0983" lon="7.20532">
        <ele>746.32</ele>
        <time>2021-06-23T14:23:23Z</time>
      </trkpt>
      <trkpt lat="48.09827" lon="7.20519">
        <ele>746.85</ele>
        <time>2021-06-23T14:23:25Z</time>
      </trkpt>
      <trkpt lat="48.0982" lon="7.20507">
        <ele>747.53</ele>
        <time>2021-06-23T14:23:28Z</time>
      </trkpt>
      <trkpt lat="48.09806" lon="7.20489">
        <ele>748.58</ele>
        <time>2021-06-23T14:23:30Z</time>
      </trkpt>
      <trkpt lat="48.09796" lon="7.20483">
        <ele>748.53</ele>
        <time>2021-06-23T14:23:33Z</time>
      </trkpt>
      <trkpt lat="48.0967" lon="7.20443">
        <ele>750.78</ele>
        <time>2021-06-23T14:23:35Z</time>
      </trkpt>
      <trkpt lat="48.09582" lon="7.20425">
        <ele>751.64</ele>
        <time>2021-06-23T14:23:38Z</time>
      </trkpt>
      <trkpt lat="48.09542" lon="7.20401">
        <ele>753.41</ele>
        <time>2021-06-23T14:23:40Z</time>
      </trkpt>
      <trkpt lat="48.09532" lon="7.20403">
        <ele>754.59</ele>
        <time>2021-06-23T14:23:42Z</time>
      </trkpt>
      <trkpt lat="48.09519" lon="7.20397">
        <ele>756.05</ele>
        <time>2021-06-23T14:23:43Z</time>
      </trkpt>
      <trkpt lat="48.09472" lon="7.20366">
        <ele>763.92</ele>
        <time>2021-06-23T14:23:45Z</time>
      </trkpt>
      <trkpt lat="48.09461" lon="7.20363">
        <ele>765.89</ele>
        <time>2021-06-23T14:23:47Z</time>
      </trkpt>
      <trkpt lat="48.09457" lon="7.20367">
        <ele>766.52</ele>
        <time>2021-06-23T14:23:49Z</time>
      </trkpt>
      <trkpt lat="48.09452" lon="7.2038">
        <ele>767.01</ele>
        <time>2021-06-23T14:23:52Z</time>
      </trkpt>
      <trkpt lat="48.0944" lon="7.2043">
        <ele>765.78</ele>
        <time>2021-06-23T14:23:54Z</time>
      </trkpt>
      <trkpt lat="48.09436" lon="7.20436">
        <ele>765.88</ele>
        <time>2021-06-23T14:23:57Z</time>
      </trkpt>
      <trkpt lat="48.09429" lon="7.2044">
        <ele>766.71</ele>
        <time>2021-06-23T14:23:59Z</time>
      </trkpt>
      <trkpt lat="48.09419" lon="7.20437">
        <ele>768.42</ele>
        <time>2021-06-23T14:24:02Z</time>
      </trkpt>
      <trkpt lat="48.09324" lon="7.20388">
        <ele>779.09</ele>
        <time>2021-06-23T14:24:04Z</time>
      </trkpt>
      <trkpt lat="48.09272" lon="7.20344">
        <ele>782.28</ele>
        <time>2021-06-23T14:24:07Z</time>
      </trkpt>
      <trkpt lat="48.09234" lon="7.20309">
        <ele>784.76</ele>
        <time>2021-06-23T14:24:10Z</time>
      </trkpt>
      <trkpt lat="48.09224" lon="7.20297">
        <ele>785.61</ele>
        <time>2021-06-23T14:24:12Z</time>
      </trkpt>
      <trkpt lat="48.09211" lon="7.20277">
        <ele>785.87</ele>
        <time>2021-06-23T14:24:15Z</time>
      </trkpt>
      <trkpt lat="48.09182" lon="7.2021">
        <ele>788.02</ele>
        <time>2021-06-23T14:24:17Z</time>
      </trkpt>
      <trkpt lat="48.09174" lon="7.20189">
        <ele>788.55</ele>
        <time>2021-06-23T14:24:20Z</time>
      </trkpt>
      <trkpt lat="48.09163" lon="7.20144">
        <ele>788.48</ele>
        <time>2021-06-23T14:24:22Z</time>
      </trkpt>
      <trkpt lat="48.09157" lon="7.20105">
        <ele>787</ele>
        <time>2021-06-23T14:24:25Z</time>
      </trkpt>
      <trkpt lat="48.09156" lon="7.2008">
        <ele>786.91</ele>
        <time>2021-06-23T14:24:28Z</time>
      </trkpt>
      <trkpt lat="48.09156" lon="7.19955">
        <ele>786.47</ele>
        <time>2021-06-23T14:24:30Z</time>
      </trkpt>
      <trkpt lat="48.09152" lon="7.19927">
        <ele>786.39</ele>
        <time>2021-06-23T14:24:33Z</time>
      </trkpt>
      <trkpt lat="48.09132" lon="7.19853">
        <ele>786.47</ele>
        <time>2021-06-23T14:24:35Z</time>
      </trkpt>
      <trkpt lat="48.09111" lon="7.1979">
        <ele>787.48</ele>
        <time>2021-06-23T14:24:38Z</time>
      </trkpt>
      <trkpt lat="48.09103" lon="7.19748">
        <ele>787.6</ele>
        <time>2021-06-23T14:24:40Z</time>
      </trkpt>
      <trkpt lat="48.09098" lon="7.19712">
        <ele>788.79</ele>
        <time>2021-06-23T14:24:43Z</time>
      </trkpt>
      <trkpt lat="48.09089" lon="7.19667">
        <ele>792.33</ele>
        <time>2021-06-23T14:24:45Z</time>
      </trkpt>
      <trkpt lat="48.09079" lon="7.19639">
        <ele>794.33</ele>
        <time>2021-06-23T14:24:48Z</time>
      </trkpt>
      <trkpt lat="48.0907" lon="7.19622">
        <ele>796.18</ele>
        <time>2021-06-23T14:24:51Z</time>
      </trkpt>
      <trkpt lat="48.09062" lon="7.19598">
        <ele>797.66</ele>
        <time>2021-06-23T14:24:53Z</time>
      </trkpt>
      <trkpt lat="48.09038" lon="7.19493">
        <ele>798.27</ele>
        <time>2021-06-23T14:24:56Z</time>
      </trkpt>
      <trkpt lat="48.0903" lon="7.19466">
        <ele>801.19</ele>
        <time>2021-06-23T14:24:58Z</time>
      </trkpt>
      <trkpt lat="48.09017" lon="7.19447">
        <ele>805.01</ele>
        <time>2021-06-23T14:25:01Z</time>
      </trkpt>
      <trkpt lat="48.08986" lon="7.19416">
        <ele>813.68</ele>
        <time>2021-06-23T14:25:03Z</time>
      </trkpt>
      <trkpt lat="48.08962" lon="7.19399">
        <ele>818.68</ele>
        <time>2021-06-23T14:25:06Z</time>
      </trkpt>
      <trkpt lat="48.08893" lon="7.1937">
        <ele>820.97</ele>
        <time>2021-06-23T14:25:09Z</time>
      </trkpt>
      <trkpt lat="48.08884" lon="7.19368">
        <ele>822.76</ele>
        <time>2021-06-23T14:25:11Z</time>
      </trkpt>
      <trkpt lat="48.0887" lon="7.19368">
        <ele>824.93</ele>
        <time>2021-06-23T14:25:14Z</time>
      </trkpt>
      <trkpt lat="48.08857" lon="7.19376">
        <ele>824.28</ele>
        <time>2021-06-23T14:25:16Z</time>
      </trkpt>
      <trkpt lat="48.08792" lon="7.19468">
        <ele>828.59</ele>
        <time>2021-06-23T14:25:19Z</time>
      </trkpt>
      <trkpt lat="48.08754" lon="7.19514">
        <ele>830.61</ele>
        <time>2021-06-23T14:25:21Z</time>
      </trkpt>
      <trkpt lat="48.08738" lon="7.19529">
        <ele>832.82</ele>
        <time>2021-06-23T14:25:24Z</time>
      </trkpt>
      <trkpt lat="48.08717" lon="7.19544">
        <ele>835.63</ele>
        <time>2021-06-23T14:25:27Z</time>
      </trkpt>
      <trkpt lat="48.0863" lon="7.19595">
        <ele>838.1</ele>
        <time>2021-06-23T14:25:29Z</time>
      </trkpt>
      <trkpt lat="48.08571" lon="7.19614">
        <ele>840.16</ele>
        <time>2021-06-23T14:25:32Z</time>
      </trkpt>
      <trkpt lat="48.0851" lon="7.19618">
        <ele>846.77</ele>
        <time>2021-06-23T14:25:34Z</time>
      </trkpt>
      <trkpt lat="48.08428" lon="7.19607">
        <ele>846.24</ele>
        <time>2021-06-23T14:25:37Z</time>
      </trkpt>
      <trkpt lat="48.08407" lon="7.196">
        <ele>847.58</ele>
        <time>2021-06-23T14:25:39Z</time>
      </trkpt>
      <trkpt lat="48.08377" lon="7.19588">
        <ele>849.82</ele>
        <time>2021-06-23T14:25:42Z</time>
      </trkpt>
      <trkpt lat="48.08347" lon="7.19569">
        <ele>852.62</ele>
        <time>2021-06-23T14:25:44Z</time>
      </trkpt>
      <trkpt lat="48.08329" lon="7.19552">
        <ele>854.29</ele>
        <time>2021-06-23T14:25:47Z</time>
      </trkpt>
      <trkpt lat="48.08313" lon="7.1953">
        <ele>861.03</ele>
        <time>2021-06-23T14:25:50Z</time>
      </trkpt>
      <trkpt lat="48.08305" lon="7.19516">
        <ele>863.94</ele>
        <time>2021-06-23T14:25:52Z</time>
      </trkpt>
      <trkpt lat="48.08299" lon="7.195">
        <ele>866.77</ele>
        <time>2021-06-23T14:25:55Z</time>
      </trkpt>
      <trkpt lat="48.08286" lon="7.19443">
        <ele>868.09</ele>
        <time>2021-06-23T14:25:57Z</time>
      </trkpt>
      <trkpt lat="48.08282" lon="7.19419">
        <ele>867.41</ele>
        <time>2021-06-23T14:26:00Z</time>
      </trkpt>
      <trkpt lat="48.08271" lon="7.19319">
        <ele>868.73</ele>
        <time>2021-06-23T14:26:02Z</time>
      </trkpt>
      <trkpt lat="48.08269" lon="7.19295">
        <ele>869.38</ele>
        <time>2021-06-23T14:26:05Z</time>
      </trkpt>
      <trkpt lat="48.08271" lon="7.1924">
        <ele>871.42</ele>
        <time>2021-06-23T14:26:08Z</time>
      </trkpt>
      <trkpt lat="48.08272" lon="7.19212">
        <ele>872.04</ele>
        <time>2021-06-23T14:26:10Z</time>
      </trkpt>
      <trkpt lat="48.08279" lon="7.1917">
        <ele>875.46</ele>
        <time>2021-06-23T14:26:13Z</time>
      </trkpt>
      <trkpt lat="48.08287" lon="7.19143">
        <ele>877.6</ele>
        <time>2021-06-23T14:26:15Z</time>
      </trkpt>
      <trkpt lat="48.08311" lon="7.19093">
        <ele>881.89</ele>
        <time>2021-06-23T14:26:18Z</time>
      </trkpt>
      <trkpt lat="48.08332" lon="7.1906">
        <ele>882.46</ele>
        <time>2021-06-23T14:26:20Z</time>
      </trkpt>
      <trkpt lat="48.08402" lon="7.18982">
        <ele>888.18</ele>
        <time>2021-06-23T14:26:23Z</time>
      </trkpt>
      <trkpt lat="48.08414" lon="7.18964">
        <ele>889.46</ele>
        <time>2021-06-23T14:26:25Z</time>
      </trkpt>
      <trkpt lat="48.08424" lon="7.18942">
        <ele>889.35</ele>
        <time>2021-06-23T14:26:28Z</time>
      </trkpt>
      <trkpt lat="48.08428" lon="7.18924">
        <ele>888.74</ele>
        <time>2021-06-23T14:26:31Z</time>
      </trkpt>
      <trkpt lat="48.08438" lon="7.18867">
        <ele>887.85</ele>
        <time>2021-06-23T14:26:33Z</time>
      </trkpt>
      <trkpt lat="48.0845" lon="7.18809">
        <ele>889.37</ele>
        <time>2021-06-23T14:26:36Z</time>
      </trkpt>
      <trkpt lat="48.0846" lon="7.18735">
        <ele>889.68</ele>
        <time>2021-06-23T14:26:38Z</time>
      </trkpt>
      <trkpt lat="48.08468" lon="7.1863">
        <ele>896.74</ele>
        <time>2021-06-23T14:26:41Z</time>
      </trkpt>
      <trkpt lat="48.08477" lon="7.18599">
        <ele>899.56</ele>
        <time>2021-06-23T14:26:43Z</time>
      </trkpt>
      <trkpt lat="48.08491" lon="7.18564">
        <ele>899.35</ele>
        <time>2021-06-23T14:26:46Z</time>
      </trkpt>
      <trkpt lat="48.08493" lon="7.18553">
        <ele>898.92</ele>
        <time>2021-06-23T14:26:49Z</time>
      </trkpt>
      <trkpt lat="48.08496" lon="7.18514">
        <ele>897.74</ele>
        <time>2021-06-23T14:26:51Z</time>
      </trkpt>
      <trkpt lat="48.08495" lon="7.18467">
        <ele>896.41</ele>
        <time>2021-06-23T14:26:54Z</time>
      </trkpt>
      <trkpt lat="48.08489" lon="7.18418">
        <ele>893.8</ele>
        <time>2021-06-23T14:26:56Z</time>
      </trkpt>
      <trkpt lat="48.08481" lon="7.18364">
        <ele>892.01</ele>
        <time>2021-06-23T14:26:59Z</time>
      </trkpt>
      <trkpt lat="48.08468" lon="7.18306">
        <ele>889.02</ele>
        <time>2021-06-23T14:27:01Z</time>
      </trkpt>
      <trkpt lat="48.08447" lon="7.1822">
        <ele>891.08</ele>
        <time>2021-06-23T14:27:04Z</time>
      </trkpt>
      <trkpt lat="48.08432" lon="7.1815">
        <ele>891.3</ele>
        <time>2021-06-23T14:27:06Z</time>
      </trkpt>
      <trkpt lat="48.08414" lon="7.18029">
        <ele>892.59</ele>
        <time>2021-06-23T14:27:09Z</time>
      </trkpt>
      <trkpt lat="48.08409" lon="7.17979">
        <ele>893.1</ele>
        <time>2021-06-23T14:27:12Z</time>
      </trkpt>
      <trkpt lat="48.08398" lon="7.17915">
        <ele>893.92</ele>
        <time>2021-06-23T14:27:14Z</time>
      </trkpt>
      <trkpt lat="48.08386" lon="7.17857">
        <ele>892</ele>
        <time>2021-06-23T14:27:17Z</time>
      </trkpt>
      <trkpt lat="48.0838" lon="7.17834">
        <ele>889.21</ele>
        <time>2021-06-23T14:27:19Z</time>
      </trkpt>
      <trkpt lat="48.0837" lon="7.17813">
        <ele>888.95</ele>
        <time>2021-06-23T14:27:22Z</time>
      </trkpt>
      <trkpt lat="48.0836" lon="7.17794">
        <ele>889.39</ele>
        <time>2021-06-23T14:27:24Z</time>
      </trkpt>
      <trkpt lat="48.08342" lon="7.17771">
        <ele>891.27</ele>
        <time>2021-06-23T14:27:27Z</time>
      </trkpt>
      <trkpt lat="48.08296" lon="7.17717">
        <ele>897.95</ele>
        <time>2021-06-23T14:27:30Z</time>
      </trkpt>
      <trkpt lat="48.0826" lon="7.17662">
        <ele>898.54</ele>
        <time>2021-06-23T14:27:32Z</time>
      </trkpt>
      <trkpt lat="48.08247" lon="7.17638">
        <ele>898.96</ele>
        <time>2021-06-23T14:27:35Z</time>
      </trkpt>
      <trkpt lat="48.0824" lon="7.17612">
        <ele>901.16</ele>
        <time>2021-06-23T14:27:37Z</time>
      </trkpt>
      <trkpt lat="48.08232" lon="7.17504">
        <ele>903.46</ele>
        <time>2021-06-23T14:27:40Z</time>
      </trkpt>
      <trkpt lat="48.08208" lon="7.17374">
        <ele>911.46</ele>
        <time>2021-06-23T14:27:42Z</time>
      </trkpt>
      <trkpt lat="48.08195" lon="7.17293">
        <ele>912.33</ele>
        <time>2021-06-23T14:27:45Z</time>
      </trkpt>
      <trkpt lat="48.08186" lon="7.17267">
        <ele>913.49</ele>
        <time>2021-06-23T14:27:47Z</time>
      </trkpt>
      <trkpt lat="48.08179" lon="7.17254">
        <ele>914.64</ele>
        <time>2021-06-23T14:27:50Z</time>
      </trkpt>
      <trkpt lat="48.08169" lon="7.17243">
        <ele>916.74</ele>
        <time>2021-06-23T14:27:53Z</time>
      </trkpt>
      <trkpt lat="48.08159" lon="7.17235">
        <ele>919.13</ele>
        <time>2021-06-23T14:27:55Z</time>
      </trkpt>
      <trkpt lat="48.08143" lon="7.17214">
        <ele>921.81</ele>
        <time>2021-06-23T14:27:58Z</time>
      </trkpt>
      <trkpt lat="48.08133" lon="7.17195">
        <ele>921.3</ele>
        <time>2021-06-23T14:28:00Z</time>
      </trkpt>
      <trkpt lat="48.08128" lon="7.17178">
        <ele>920.94</ele>
        <time>2021-06-23T14:28:03Z</time>
      </trkpt>
      <trkpt lat="48.0812" lon="7.17161">
        <ele>920.96</ele>
        <time>2021-06-23T14:28:05Z</time>
      </trkpt>
      <trkpt lat="48.08083" lon="7.1711">
        <ele>925.08</ele>
        <time>2021-06-23T14:28:08Z</time>
      </trkpt>
      <trkpt lat="48.08073" lon="7.1709">
        <ele>926.21</ele>
        <time>2021-06-23T14:28:11Z</time>
      </trkpt>
      <trkpt lat="48.08054" lon="7.17034">
        <ele>929.97</ele>
        <time>2021-06-23T14:28:13Z</time>
      </trkpt>
      <trkpt lat="48.07965" lon="7.16795">
        <ele>938.04</ele>
        <time>2021-06-23T14:28:16Z</time>
      </trkpt>
      <trkpt lat="48.07957" lon="7.16757">
        <ele>941.37</ele>
        <time>2021-06-23T14:28:18Z</time>
      </trkpt>
      <trkpt lat="48.07953" lon="7.16718">
        <ele>942.86</ele>
        <time>2021-06-23T14:28:21Z</time>
      </trkpt>
      <trkpt lat="48.07952" lon="7.16663">
        <ele>941.24</ele>
        <time>2021-06-23T14:28:23Z</time>
      </trkpt>
      <trkpt lat="48.07954" lon="7.16591">
        <ele>947.52</ele>
        <time>2021-06-23T14:28:26Z</time>
      </trkpt>
      <trkpt lat="48.07956" lon="7.1657">
        <ele>949.1</ele>
        <time>2021-06-23T14:28:28Z</time>
      </trkpt>
      <trkpt lat="48.07973" lon="7.16468">
        <ele>956.18</ele>
        <time>2021-06-23T14:28:31Z</time>
      </trkpt>
      <trkpt lat="48.07982" lon="7.16432">
        <ele>957.47</ele>
        <time>2021-06-23T14:28:34Z</time>
      </trkpt>
      <trkpt lat="48.0799" lon="7.16417">
        <ele>958.1</ele>
        <time>2021-06-23T14:28:36Z</time>
      </trkpt>
      <trkpt lat="48.07994" lon="7.16413">
        <ele>958.18</ele>
        <time>2021-06-23T14:28:39Z</time>
      </trkpt>
      <trkpt lat="48.08005" lon="7.16408">
        <ele>957.83</ele>
        <time>2021-06-23T14:28:41Z</time>
      </trkpt>
      <trkpt lat="48.08045" lon="7.16412">
        <ele>955.06</ele>
        <time>2021-06-23T14:28:44Z</time>
      </trkpt>
      <trkpt lat="48.08107" lon="7.16403">
        <ele>956.96</ele>
        <time>2021-06-23T14:28:46Z</time>
      </trkpt>
      <trkpt lat="48.08132" lon="7.16396">
        <ele>956.84</ele>
        <time>2021-06-23T14:28:49Z</time>
      </trkpt>
      <trkpt lat="48.08145" lon="7.16391">
        <ele>956.27</ele>
        <time>2021-06-23T14:28:52Z</time>
      </trkpt>
      <trkpt lat="48.08155" lon="7.16383">
        <ele>955.86</ele>
        <time>2021-06-23T14:28:54Z</time>
      </trkpt>
      <trkpt lat="48.08179" lon="7.16358">
        <ele>956.38</ele>
        <time>2021-06-23T14:28:57Z</time>
      </trkpt>
      <trkpt lat="48.08207" lon="7.16314">
        <ele>959.05</ele>
        <time>2021-06-23T14:28:59Z</time>
      </trkpt>
      <trkpt lat="48.08216" lon="7.16292">
        <ele>959.84</ele>
        <time>2021-06-23T14:29:02Z</time>
      </trkpt>
      <trkpt lat="48.08219" lon="7.16276">
        <ele>960.27</ele>
        <time>2021-06-23T14:29:04Z</time>
      </trkpt>
      <trkpt lat="48.0822" lon="7.16261">
        <ele>960.72</ele>
        <time>2021-06-23T14:29:07Z</time>
      </trkpt>
      <trkpt lat="48.08219" lon="7.16238">
        <ele>961.54</ele>
        <time>2021-06-23T14:29:09Z</time>
      </trkpt>
      <trkpt lat="48.08214" lon="7.16212">
        <ele>962.57</ele>
        <time>2021-06-23T14:29:12Z</time>
      </trkpt>
      <trkpt lat="48.08207" lon="7.16193">
        <ele>962.96</ele>
        <time>2021-06-23T14:29:15Z</time>
      </trkpt>
      <trkpt lat="48.08182" lon="7.16137">
        <ele>959.82</ele>
        <time>2021-06-23T14:29:17Z</time>
      </trkpt>
      <trkpt lat="48.08147" lon="7.16035">
        <ele>961.09</ele>
        <time>2021-06-23T14:29:20Z</time>
      </trkpt>
      <trkpt lat="48.08137" lon="7.15998">
        <ele>962.45</ele>
        <time>2021-06-23T14:29:22Z</time>
      </trkpt>
      <trkpt lat="48.08123" lon="7.15937">
        <ele>960.83</ele>
        <time>2021-06-23T14:29:25Z</time>
      </trkpt>
      <trkpt lat="48.08118" lon="7.15923">
        <ele>959.89</ele>
        <time>2021-06-23T14:29:27Z</time>
      </trkpt>
      <trkpt lat="48.08053" lon="7.15802">
        <ele>959.31</ele>
        <time>2021-06-23T14:29:30Z</time>
      </trkpt>
      <trkpt lat="48.08037" lon="7.15768">
        <ele>960.48</ele>
        <time>2021-06-23T14:29:33Z</time>
      </trkpt>
      <trkpt lat="48.08006" lon="7.15693">
        <ele>962.58</ele>
        <time>2021-06-23T14:29:35Z</time>
      </trkpt>
      <trkpt lat="48.07964" lon="7.15614">
        <ele>963.23</ele>
        <time>2021-06-23T14:29:38Z</time>
      </trkpt>
      <trkpt lat="48.07959" lon="7.15598">
        <ele>964.65</ele>
        <time>2021-06-23T14:29:40Z</time>
      </trkpt>
      <trkpt lat="48.07958" lon="7.15567">
        <ele>966.73</ele>
        <time>2021-06-23T14:29:43Z</time>
      </trkpt>
      <trkpt lat="48.07968" lon="7.15531">
        <ele>968.92</ele>
        <time>2021-06-23T14:29:45Z</time>
      </trkpt>
      <trkpt lat="48.07981" lon="7.15504">
        <ele>972.2</ele>
        <time>2021-06-23T14:29:48Z</time>
      </trkpt>
      <trkpt lat="48.07988" lon="7.15491">
        <ele>973.94</ele>
        <time>2021-06-23T14:29:50Z</time>
      </trkpt>
      <trkpt lat="48.08004" lon="7.15477">
        <ele>975.95</ele>
        <time>2021-06-23T14:29:53Z</time>
      </trkpt>
      <trkpt lat="48.08019" lon="7.15472">
        <ele>975.67</ele>
        <time>2021-06-23T14:29:56Z</time>
      </trkpt>
      <trkpt lat="48.0807" lon="7.15464">
        <ele>968.96</ele>
        <time>2021-06-23T14:29:58Z</time>
      </trkpt>
      <trkpt lat="48.08119" lon="7.15451">
        <ele>969.96</ele>
        <time>2021-06-23T14:30:01Z</time>
      </trkpt>
      <trkpt lat="48.08169" lon="7.15441">
        <ele>965.62</ele>
        <time>2021-06-23T14:30:03Z</time>
      </trkpt>
      <trkpt lat="48.08196" lon="7.15433">
        <ele>965.6</ele>
        <time>2021-06-23T14:30:06Z</time>
      </trkpt>
      <trkpt lat="48.08244" lon="7.15413">
        <ele>962.82</ele>
        <time>2021-06-23T14:30:08Z</time>
      </trkpt>
      <trkpt lat="48.08278" lon="7.15389">
        <ele>958.97</ele>
        <time>2021-06-23T14:30:11Z</time>
      </trkpt>
      <trkpt lat="48.08291" lon="7.15372">
        <ele>958.19</ele>
        <time>2021-06-23T14:30:14Z</time>
      </trkpt>
      <trkpt lat="48.08295" lon="7.15361">
        <ele>958.11</ele>
        <time>2021-06-23T14:30:16Z</time>
      </trkpt>
      <trkpt lat="48.08297" lon="7.1535">
        <ele>958.16</ele>
        <time>2021-06-23T14:30:19Z</time>
      </trkpt>
      <trkpt lat="48.08297" lon="7.15339">
        <ele>958.5</ele>
        <time>2021-06-23T14:30:21Z</time>
      </trkpt>
      <trkpt lat="48.08291" lon="7.15319">
        <ele>959.08</ele>
        <time>2021-06-23T14:30:24Z</time>
      </trkpt>
      <trkpt lat="48.08239" lon="7.15223">
        <ele>968.51</ele>
        <time>2021-06-23T14:30:26Z</time>
      </trkpt>
      <trkpt lat="48.08231" lon="7.15198">
        <ele>970.59</ele>
        <time>2021-06-23T14:30:29Z</time>
      </trkpt>
      <trkpt lat="48.08229" lon="7.15184">
        <ele>971.17</ele>
        <time>2021-06-23T14:30:31Z</time>
      </trkpt>
      <trkpt lat="48.0823" lon="7.15149">
        <ele>971.5</ele>
        <time>2021-06-23T14:30:34Z</time>
      </trkpt>
      <trkpt lat="48.08236" lon="7.1511">
        <ele>972.51</ele>
        <time>2021-06-23T14:30:37Z</time>
      </trkpt>
      <trkpt lat="48.08241" lon="7.15094">
        <ele>973.12</ele>
        <time>2021-06-23T14:30:39Z</time>
      </trkpt>
      <trkpt lat="48.08252" lon="7.15079">
        <ele>973.87</ele>
        <time>2021-06-23T14:30:42Z</time>
      </trkpt>
      <trkpt lat="48.08263" lon="7.15072">
        <ele>972.59</ele>
        <time>2021-06-23T14:30:44Z</time>
      </trkpt>
      <trkpt lat="48.08359" lon="7.15034">
        <ele>956.99</ele>
        <time>2021-06-23T14:30:47Z</time>
      </trkpt>
      <trkpt lat="48.08394" lon="7.15016">
        <ele>950.8</ele>
        <time>2021-06-23T14:30:49Z</time>
      </trkpt>
      <trkpt lat="48.08405" lon="7.15008">
        <ele>949.19</ele>
        <time>2021-06-23T14:30:52Z</time>
      </trkpt>
      <trkpt lat="48.08414" lon="7.14995">
        <ele>948.79</ele>
        <time>2021-06-23T14:30:55Z</time>
      </trkpt>
      <trkpt lat="48.08418" lon="7.14979">
        <ele>949.37</ele>
        <time>2021-06-23T14:30:57Z</time>
      </trkpt>
      <trkpt lat="48.08417" lon="7.14959">
        <ele>950.45</ele>
        <time>2021-06-23T14:31:00Z</time>
      </trkpt>
      <trkpt lat="48.08413" lon="7.14946">
        <ele>951.38</ele>
        <time>2021-06-23T14:31:02Z</time>
      </trkpt>
      <trkpt lat="48.08399" lon="7.14924">
        <ele>952.37</ele>
        <time>2021-06-23T14:31:05Z</time>
      </trkpt>
      <trkpt lat="48.0832" lon="7.14834">
        <ele>963.04</ele>
        <time>2021-06-23T14:31:07Z</time>
      </trkpt>
      <trkpt lat="48.08298" lon="7.14815">
        <ele>964.62</ele>
        <time>2021-06-23T14:31:10Z</time>
      </trkpt>
      <trkpt lat="48.08225" lon="7.14762">
        <ele>967.3</ele>
        <time>2021-06-23T14:31:13Z</time>
      </trkpt>
      <trkpt lat="48.08199" lon="7.14747">
        <ele>968.1</ele>
        <time>2021-06-23T14:31:15Z</time>
      </trkpt>
      <trkpt lat="48.0815" lon="7.14726">
        <ele>971.81</ele>
        <time>2021-06-23T14:31:18Z</time>
      </trkpt>
      <trkpt lat="48.08128" lon="7.14712">
        <ele>973.25</ele>
        <time>2021-06-23T14:31:20Z</time>
      </trkpt>
      <trkpt lat="48.08101" lon="7.14689">
        <ele>975.34</ele>
        <time>2021-06-23T14:31:23Z</time>
      </trkpt>
      <trkpt lat="48.07996" lon="7.14564">
        <ele>979.44</ele>
        <time>2021-06-23T14:31:25Z</time>
      </trkpt>
      <trkpt lat="48.07981" lon="7.14538">
        <ele>980.25</ele>
        <time>2021-06-23T14:31:28Z</time>
      </trkpt>
      <trkpt lat="48.07954" lon="7.14476">
        <ele>981.17</ele>
        <time>2021-06-23T14:31:30Z</time>
      </trkpt>
      <trkpt lat="48.07923" lon="7.14397">
        <ele>977.43</ele>
        <time>2021-06-23T14:31:33Z</time>
      </trkpt>
      <trkpt lat="48.0792" lon="7.14382">
        <ele>977.36</ele>
        <time>2021-06-23T14:31:36Z</time>
      </trkpt>
      <trkpt lat="48.0792" lon="7.14372">
        <ele>977.73</ele>
        <time>2021-06-23T14:31:38Z</time>
      </trkpt>
      <trkpt lat="48.07923" lon="7.14353">
        <ele>979.05</ele>
        <time>2021-06-23T14:31:41Z</time>
      </trkpt>
      <trkpt lat="48.07928" lon="7.14339">
        <ele>980.84</ele>
        <time>2021-06-23T14:31:43Z</time>
      </trkpt>
      <trkpt lat="48.0794" lon="7.14316">
        <ele>984.92</ele>
        <time>2021-06-23T14:31:46Z</time>
      </trkpt>
      <trkpt lat="48.07953" lon="7.14303">
        <ele>986.84</ele>
        <time>2021-06-23T14:31:48Z</time>
      </trkpt>
      <trkpt lat="48.08016" lon="7.14276">
        <ele>987.1</ele>
        <time>2021-06-23T14:31:51Z</time>
      </trkpt>
      <trkpt lat="48.08028" lon="7.14268">
        <ele>987.31</ele>
        <time>2021-06-23T14:31:54Z</time>
      </trkpt>
      <trkpt lat="48.08046" lon="7.14248">
        <ele>988.31</ele>
        <time>2021-06-23T14:31:56Z</time>
      </trkpt>
      <trkpt lat="48.08052" lon="7.14235">
        <ele>989.13</ele>
        <time>2021-06-23T14:31:59Z</time>
      </trkpt>
      <trkpt lat="48.08057" lon="7.1422">
        <ele>990.21</ele>
        <time>2021-06-23T14:32:01Z</time>
      </trkpt>
      <trkpt lat="48.08073" lon="7.14136">
        <ele>994.17</ele>
        <time>2021-06-23T14:32:04Z</time>
      </trkpt>
      <trkpt lat="48.08081" lon="7.14107">
        <ele>993.67</ele>
        <time>2021-06-23T14:32:06Z</time>
      </trkpt>
      <trkpt lat="48.08089" lon="7.14084">
        <ele>995.2</ele>
        <time>2021-06-23T14:32:09Z</time>
      </trkpt>
      <trkpt lat="48.08101" lon="7.14064">
        <ele>996.4</ele>
        <time>2021-06-23T14:32:11Z</time>
      </trkpt>
      <trkpt lat="48.08117" lon="7.14043">
        <ele>997.67</ele>
        <time>2021-06-23T14:32:14Z</time>
      </trkpt>
      <trkpt lat="48.08138" lon="7.14022">
        <ele>998.1</ele>
        <time>2021-06-23T14:32:17Z</time>
      </trkpt>
      <trkpt lat="48.08157" lon="7.14008">
        <ele>997.88</ele>
        <time>2021-06-23T14:32:19Z</time>
      </trkpt>
      <trkpt lat="48.08171" lon="7.14001">
        <ele>997.53</ele>
        <time>2021-06-23T14:32:22Z</time>
      </trkpt>
      <trkpt lat="48.08222" lon="7.13988">
        <ele>998.21</ele>
        <time>2021-06-23T14:32:24Z</time>
      </trkpt>
      <trkpt lat="48.08234" lon="7.13987">
        <ele>997.77</ele>
        <time>2021-06-23T14:32:27Z</time>
      </trkpt>
      <trkpt lat="48.08261" lon="7.1399">
        <ele>995.44</ele>
        <time>2021-06-23T14:32:29Z</time>
      </trkpt>
      <trkpt lat="48.08306" lon="7.14002">
        <ele>991.53</ele>
        <time>2021-06-23T14:32:32Z</time>
      </trkpt>
      <trkpt lat="48.08323" lon="7.14002">
        <ele>987.55</ele>
        <time>2021-06-23T14:32:35Z</time>
      </trkpt>
      <trkpt lat="48.08335" lon="7.13992">
        <ele>985.04</ele>
        <time>2021-06-23T14:32:37Z</time>
      </trkpt>
      <trkpt lat="48.08341" lon="7.13979">
        <ele>984.14</ele>
        <time>2021-06-23T14:32:40Z</time>
      </trkpt>
      <trkpt lat="48.08343" lon="7.13966">
        <ele>983.79</ele>
        <time>2021-06-23T14:32:42Z</time>
      </trkpt>
      <trkpt lat="48.08341" lon="7.13949">
        <ele>984.1</ele>
        <time>2021-06-23T14:32:45Z</time>
      </trkpt>
      <trkpt lat="48.08336" lon="7.13936">
        <ele>984.21</ele>
        <time>2021-06-23T14:32:47Z</time>
      </trkpt>
      <trkpt lat="48.08322" lon="7.13912">
        <ele>984.39</ele>
        <time>2021-06-23T14:32:50Z</time>
      </trkpt>
      <trkpt lat="48.08226" lon="7.13761">
        <ele>984.78</ele>
        <time>2021-06-23T14:32:52Z</time>
      </trkpt>
      <trkpt lat="48.08214" lon="7.13738">
        <ele>985.79</ele>
        <time>2021-06-23T14:32:55Z</time>
      </trkpt>
      <trkpt lat="48.08202" lon="7.13714">
        <ele>985.67</ele>
        <time>2021-06-23T14:32:58Z</time>
      </trkpt>
      <trkpt lat="48.08179" lon="7.13647">
        <ele>977.46</ele>
        <time>2021-06-23T14:33:00Z</time>
      </trkpt>
      <trkpt lat="48.08091" lon="7.13467">
        <ele>970.06</ele>
        <time>2021-06-23T14:33:03Z</time>
      </trkpt>
      <trkpt lat="48.08074" lon="7.1344">
        <ele>969.89</ele>
        <time>2021-06-23T14:33:05Z</time>
      </trkpt>
      <trkpt lat="48.08035" lon="7.1339">
        <ele>968.12</ele>
        <time>2021-06-23T14:33:08Z</time>
      </trkpt>
      <trkpt lat="48.07948" lon="7.1323">
        <ele>955.74</ele>
        <time>2021-06-23T14:33:10Z</time>
      </trkpt>
      <trkpt lat="48.07942" lon="7.13215">
        <ele>954.56</ele>
        <time>2021-06-23T14:33:13Z</time>
      </trkpt>
      <trkpt lat="48.0794" lon="7.13205">
        <ele>954.03</ele>
        <time>2021-06-23T14:33:16Z</time>
      </trkpt>
      <trkpt lat="48.07939" lon="7.13185">
        <ele>952.79</ele>
        <time>2021-06-23T14:33:18Z</time>
      </trkpt>
      <trkpt lat="48.07941" lon="7.13158">
        <ele>950.75</ele>
        <time>2021-06-23T14:33:21Z</time>
      </trkpt>
      <trkpt lat="48.07964" lon="7.13092">
        <ele>945.6</ele>
        <time>2021-06-23T14:33:23Z</time>
      </trkpt>
      <trkpt lat="48.0797" lon="7.1307">
        <ele>944.85</ele>
        <time>2021-06-23T14:33:26Z</time>
      </trkpt>
      <trkpt lat="48.07977" lon="7.13023">
        <ele>943.11</ele>
        <time>2021-06-23T14:33:28Z</time>
      </trkpt>
      <trkpt lat="48.07982" lon="7.12968">
        <ele>942.78</ele>
        <time>2021-06-23T14:33:31Z</time>
      </trkpt>
      <trkpt lat="48.07986" lon="7.12954">
        <ele>942.82</ele>
        <time>2021-06-23T14:33:33Z</time>
      </trkpt>
      <trkpt lat="48.07992" lon="7.12939">
        <ele>943.05</ele>
        <time>2021-06-23T14:33:36Z</time>
      </trkpt>
      <trkpt lat="48.08024" lon="7.12891">
        <ele>941.76</ele>
        <time>2021-06-23T14:33:39Z</time>
      </trkpt>
      <trkpt lat="48.0804" lon="7.12864">
        <ele>939.47</ele>
        <time>2021-06-23T14:33:41Z</time>
      </trkpt>
      <trkpt lat="48.08048" lon="7.12841">
        <ele>938.82</ele>
        <time>2021-06-23T14:33:44Z</time>
      </trkpt>
      <trkpt lat="48.08053" lon="7.12811">
        <ele>939.18</ele>
        <time>2021-06-23T14:33:46Z</time>
      </trkpt>
      <trkpt lat="48.0806" lon="7.12739">
        <ele>936.41</ele>
        <time>2021-06-23T14:33:49Z</time>
      </trkpt>
      <trkpt lat="48.08059" lon="7.127">
        <ele>935.45</ele>
        <time>2021-06-23T14:33:51Z</time>
      </trkpt>
      <trkpt lat="48.08052" lon="7.1265">
        <ele>936.13</ele>
        <time>2021-06-23T14:33:54Z</time>
      </trkpt>
      <trkpt lat="48.08052" lon="7.12627">
        <ele>936.39</ele>
        <time>2021-06-23T14:33:57Z</time>
      </trkpt>
      <trkpt lat="48.08057" lon="7.12609">
        <ele>935.83</ele>
        <time>2021-06-23T14:33:59Z</time>
      </trkpt>
      <trkpt lat="48.08062" lon="7.126">
        <ele>935.03</ele>
        <time>2021-06-23T14:34:02Z</time>
      </trkpt>
      <trkpt lat="48.08068" lon="7.12594">
        <ele>934.36</ele>
        <time>2021-06-23T14:34:04Z</time>
      </trkpt>
      <trkpt lat="48.0808" lon="7.1259">
        <ele>933.29</ele>
        <time>2021-06-23T14:34:07Z</time>
      </trkpt>
      <trkpt lat="48.08097" lon="7.12591">
        <ele>932.74</ele>
        <time>2021-06-23T14:34:09Z</time>
      </trkpt>
      <trkpt lat="48.08191" lon="7.12603">
        <ele>926.98</ele>
        <time>2021-06-23T14:34:12Z</time>
      </trkpt>
      <trkpt lat="48.082" lon="7.12602">
        <ele>926.9</ele>
        <time>2021-06-23T14:34:14Z</time>
      </trkpt>
      <trkpt lat="48.08213" lon="7.12594">
        <ele>927.54</ele>
        <time>2021-06-23T14:34:17Z</time>
      </trkpt>
      <trkpt lat="48.08246" lon="7.12567">
        <ele>933.64</ele>
        <time>2021-06-23T14:34:20Z</time>
      </trkpt>
      <trkpt lat="48.08267" lon="7.12562">
        <ele>937.37</ele>
        <time>2021-06-23T14:34:22Z</time>
      </trkpt>
      <trkpt lat="48.08281" lon="7.12565">
        <ele>938.71</ele>
        <time>2021-06-23T14:34:25Z</time>
      </trkpt>
      <trkpt lat="48.08295" lon="7.12573">
        <ele>937.8</ele>
        <time>2021-06-23T14:34:27Z</time>
      </trkpt>
      <trkpt lat="48.08333" lon="7.12602">
        <ele>934</ele>
        <time>2021-06-23T14:34:30Z</time>
      </trkpt>
      <trkpt lat="48.08351" lon="7.12608">
        <ele>933.92</ele>
        <time>2021-06-23T14:34:32Z</time>
      </trkpt>
      <trkpt lat="48.08361" lon="7.12609">
        <ele>934.24</ele>
        <time>2021-06-23T14:34:35Z</time>
      </trkpt>
      <trkpt lat="48.08425" lon="7.12594">
        <ele>933.27</ele>
        <time>2021-06-23T14:34:38Z</time>
      </trkpt>
      <trkpt lat="48.08532" lon="7.12545">
        <ele>930.7</ele>
        <time>2021-06-23T14:34:40Z</time>
      </trkpt>
      <trkpt lat="48.08557" lon="7.12525">
        <ele>929.12</ele>
        <time>2021-06-23T14:34:43Z</time>
      </trkpt>
      <trkpt lat="48.08576" lon="7.12499">
        <ele>928.08</ele>
        <time>2021-06-23T14:34:45Z</time>
      </trkpt>
      <trkpt lat="48.08586" lon="7.1248">
        <ele>927.17</ele>
        <time>2021-06-23T14:34:48Z</time>
      </trkpt>
      <trkpt lat="48.08595" lon="7.12457">
        <ele>925.41</ele>
        <time>2021-06-23T14:34:50Z</time>
      </trkpt>
      <trkpt lat="48.0861" lon="7.12409">
        <ele>923.6</ele>
        <time>2021-06-23T14:34:53Z</time>
      </trkpt>
      <trkpt lat="48.08616" lon="7.12337">
        <ele>921.98</ele>
        <time>2021-06-23T14:34:55Z</time>
      </trkpt>
      <trkpt lat="48.08626" lon="7.12292">
        <ele>918.09</ele>
        <time>2021-06-23T14:34:58Z</time>
      </trkpt>
      <trkpt lat="48.08629" lon="7.12266">
        <ele>916.4</ele>
        <time>2021-06-23T14:35:01Z</time>
      </trkpt>
      <trkpt lat="48.08633" lon="7.122">
        <ele>915.37</ele>
        <time>2021-06-23T14:35:03Z</time>
      </trkpt>
      <trkpt lat="48.08629" lon="7.12111">
        <ele>911.39</ele>
        <time>2021-06-23T14:35:06Z</time>
      </trkpt>
      <trkpt lat="48.08635" lon="7.12045">
        <ele>909.45</ele>
        <time>2021-06-23T14:35:08Z</time>
      </trkpt>
      <trkpt lat="48.08622" lon="7.1192">
        <ele>904.99</ele>
        <time>2021-06-23T14:35:11Z</time>
      </trkpt>
      <trkpt lat="48.08623" lon="7.11902">
        <ele>904.21</ele>
        <time>2021-06-23T14:35:13Z</time>
      </trkpt>
      <trkpt lat="48.08627" lon="7.11878">
        <ele>903.44</ele>
        <time>2021-06-23T14:35:16Z</time>
      </trkpt>
      <trkpt lat="48.08634" lon="7.11856">
        <ele>902.82</ele>
        <time>2021-06-23T14:35:19Z</time>
      </trkpt>
      <trkpt lat="48.08698" lon="7.11726">
        <ele>895.12</ele>
        <time>2021-06-23T14:35:21Z</time>
      </trkpt>
      <trkpt lat="48.08713" lon="7.117">
        <ele>892.97</ele>
        <time>2021-06-23T14:35:24Z</time>
      </trkpt>
      <trkpt lat="48.08749" lon="7.11655">
        <ele>888.26</ele>
        <time>2021-06-23T14:35:26Z</time>
      </trkpt>
      <trkpt lat="48.08772" lon="7.11634">
        <ele>886.13</ele>
        <time>2021-06-23T14:35:29Z</time>
      </trkpt>
      <trkpt lat="48.08792" lon="7.11619">
        <ele>887.37</ele>
        <time>2021-06-23T14:35:32Z</time>
      </trkpt>
      <trkpt lat="48.08774" lon="7.11528">
        <ele>885.24</ele>
        <time>2021-06-23T14:35:34Z</time>
      </trkpt>
      <trkpt lat="48.08771" lon="7.11489">
        <ele>882.08</ele>
        <time>2021-06-23T14:35:36Z</time>
      </trkpt>
      <trkpt lat="48.08772" lon="7.11456">
        <ele>878.43</ele>
        <time>2021-06-23T14:35:38Z</time>
      </trkpt>
      <trkpt lat="48.08786" lon="7.11352">
        <ele>875.24</ele>
        <time>2021-06-23T14:35:40Z</time>
      </trkpt>
      <trkpt lat="48.08786" lon="7.11352">
        <ele>875.24</ele>
        <time>2021-06-23T14:35:40Z</time>
      </trkpt>
      <trkpt lat="48.08788" lon="7.11322">
        <ele>872.26</ele>
        <time>2021-06-23T14:35:42Z</time>
      </trkpt>
      <trkpt lat="48.08784" lon="7.11306">
        <ele>871.58</ele>
        <time>2021-06-23T14:35:43Z</time>
      </trkpt>
      <trkpt lat="48.08779" lon="7.113">
        <ele>870.73</ele>
        <time>2021-06-23T14:35:45Z</time>
      </trkpt>
      <trkpt lat="48.08774" lon="7.11298">
        <ele>869.55</ele>
        <time>2021-06-23T14:35:46Z</time>
      </trkpt>
      <trkpt lat="48.08763" lon="7.11302">
        <ele>867.03</ele>
        <time>2021-06-23T14:35:48Z</time>
      </trkpt>
      <trkpt lat="48.08756" lon="7.11315">
        <ele>865.55</ele>
        <time>2021-06-23T14:35:50Z</time>
      </trkpt>
      <trkpt lat="48.08744" lon="7.11364">
        <ele>865.17</ele>
        <time>2021-06-23T14:35:51Z</time>
      </trkpt>
      <trkpt lat="48.08733" lon="7.11383">
        <ele>864.29</ele>
        <time>2021-06-23T14:35:53Z</time>
      </trkpt>
      <trkpt lat="48.08715" lon="7.11397">
        <ele>863.11</ele>
        <time>2021-06-23T14:35:54Z</time>
      </trkpt>
      <trkpt lat="48.08692" lon="7.114">
        <ele>862.26</ele>
        <time>2021-06-23T14:35:56Z</time>
      </trkpt>
      <trkpt lat="48.08677" lon="7.11398">
        <ele>861.93</ele>
        <time>2021-06-23T14:35:57Z</time>
      </trkpt>
      <trkpt lat="48.0864" lon="7.11378">
        <ele>857.32</ele>
        <time>2021-06-23T14:35:59Z</time>
      </trkpt>
      <trkpt lat="48.0862" lon="7.11371">
        <ele>855.61</ele>
        <time>2021-06-23T14:36:01Z</time>
      </trkpt>
      <trkpt lat="48.08534" lon="7.11354">
        <ele>849.51</ele>
        <time>2021-06-23T14:36:02Z</time>
      </trkpt>
      <trkpt lat="48.08453" lon="7.11348">
        <ele>842.74</ele>
        <time>2021-06-23T14:36:04Z</time>
      </trkpt>
      <trkpt lat="48.08388" lon="7.11339">
        <ele>836.2</ele>
        <time>2021-06-23T14:36:05Z</time>
      </trkpt>
      <trkpt lat="48.08347" lon="7.11339">
        <ele>834.83</ele>
        <time>2021-06-23T14:36:07Z</time>
      </trkpt>
      <trkpt lat="48.08291" lon="7.11325">
        <ele>831.63</ele>
        <time>2021-06-23T14:36:08Z</time>
      </trkpt>
      <trkpt lat="48.0827" lon="7.11323">
        <ele>830.86</ele>
        <time>2021-06-23T14:36:10Z</time>
      </trkpt>
      <trkpt lat="48.0821" lon="7.11328">
        <ele>827.39</ele>
        <time>2021-06-23T14:36:12Z</time>
      </trkpt>
      <trkpt lat="48.08171" lon="7.11324">
        <ele>823.22</ele>
        <time>2021-06-23T14:36:13Z</time>
      </trkpt>
      <trkpt lat="48.08118" lon="7.11323">
        <ele>818.96</ele>
        <time>2021-06-23T14:36:15Z</time>
      </trkpt>
      <trkpt lat="48.08091" lon="7.11316">
        <ele>815.69</ele>
        <time>2021-06-23T14:36:16Z</time>
      </trkpt>
      <trkpt lat="48.08061" lon="7.11299">
        <ele>809.63</ele>
        <time>2021-06-23T14:36:18Z</time>
      </trkpt>
      <trkpt lat="48.08053" lon="7.11287">
        <ele>807.87</ele>
        <time>2021-06-23T14:36:19Z</time>
      </trkpt>
      <trkpt lat="48.0805" lon="7.11271">
        <ele>806.82</ele>
        <time>2021-06-23T14:36:21Z</time>
      </trkpt>
      <trkpt lat="48.08054" lon="7.11257">
        <ele>807.05</ele>
        <time>2021-06-23T14:36:23Z</time>
      </trkpt>
      <trkpt lat="48.08063" lon="7.1125">
        <ele>807.24</ele>
        <time>2021-06-23T14:36:24Z</time>
      </trkpt>
      <trkpt lat="48.08071" lon="7.11249">
        <ele>807.48</ele>
        <time>2021-06-23T14:36:26Z</time>
      </trkpt>
      <trkpt lat="48.08092" lon="7.11261">
        <ele>809.14</ele>
        <time>2021-06-23T14:36:27Z</time>
      </trkpt>
      <trkpt lat="48.08103" lon="7.11264">
        <ele>809.48</ele>
        <time>2021-06-23T14:36:29Z</time>
      </trkpt>
      <trkpt lat="48.08114" lon="7.11263">
        <ele>809.54</ele>
        <time>2021-06-23T14:36:30Z</time>
      </trkpt>
      <trkpt lat="48.08128" lon="7.11258">
        <ele>809.68</ele>
        <time>2021-06-23T14:36:32Z</time>
      </trkpt>
      <trkpt lat="48.08159" lon="7.11242">
        <ele>807.55</ele>
        <time>2021-06-23T14:36:34Z</time>
      </trkpt>
      <trkpt lat="48.08176" lon="7.11236">
        <ele>806.76</ele>
        <time>2021-06-23T14:36:35Z</time>
      </trkpt>
      <trkpt lat="48.08237" lon="7.11225">
        <ele>804.46</ele>
        <time>2021-06-23T14:36:37Z</time>
      </trkpt>
      <trkpt lat="48.08266" lon="7.11221">
        <ele>800.92</ele>
        <time>2021-06-23T14:36:38Z</time>
      </trkpt>
      <trkpt lat="48.08301" lon="7.11222">
        <ele>797.35</ele>
        <time>2021-06-23T14:36:40Z</time>
      </trkpt>
      <trkpt lat="48.08348" lon="7.11229">
        <ele>798.72</ele>
        <time>2021-06-23T14:36:41Z</time>
      </trkpt>
      <trkpt lat="48.08364" lon="7.11227">
        <ele>797.36</ele>
        <time>2021-06-23T14:36:43Z</time>
      </trkpt>
      <trkpt lat="48.08393" lon="7.11218">
        <ele>794.09</ele>
        <time>2021-06-23T14:36:45Z</time>
      </trkpt>
      <trkpt lat="48.08454" lon="7.11193">
        <ele>795.28</ele>
        <time>2021-06-23T14:36:46Z</time>
      </trkpt>
      <trkpt lat="48.08463" lon="7.11186">
        <ele>796.82</ele>
        <time>2021-06-23T14:36:48Z</time>
      </trkpt>
      <trkpt lat="48.08469" lon="7.11175">
        <ele>797.15</ele>
        <time>2021-06-23T14:36:49Z</time>
      </trkpt>
      <trkpt lat="48.0847" lon="7.11165">
        <ele>796.45</ele>
        <time>2021-06-23T14:36:51Z</time>
      </trkpt>
      <trkpt lat="48.08467" lon="7.11156">
        <ele>795.35</ele>
        <time>2021-06-23T14:36:53Z</time>
      </trkpt>
      <trkpt lat="48.08462" lon="7.1115">
        <ele>793.88</ele>
        <time>2021-06-23T14:36:54Z</time>
      </trkpt>
      <trkpt lat="48.08455" lon="7.11149">
        <ele>792.05</ele>
        <time>2021-06-23T14:36:56Z</time>
      </trkpt>
      <trkpt lat="48.08433" lon="7.11171">
        <ele>788.51</ele>
        <time>2021-06-23T14:36:57Z</time>
      </trkpt>
      <trkpt lat="48.0842" lon="7.11177">
        <ele>787.47</ele>
        <time>2021-06-23T14:36:59Z</time>
      </trkpt>
      <trkpt lat="48.0838" lon="7.11184">
        <ele>784.53</ele>
        <time>2021-06-23T14:37:00Z</time>
      </trkpt>
      <trkpt lat="48.0836" lon="7.11184">
        <ele>784.15</ele>
        <time>2021-06-23T14:37:02Z</time>
      </trkpt>
      <trkpt lat="48.08343" lon="7.1118">
        <ele>783.73</ele>
        <time>2021-06-23T14:37:04Z</time>
      </trkpt>
      <trkpt lat="48.08326" lon="7.11168">
        <ele>781.04</ele>
        <time>2021-06-23T14:37:05Z</time>
      </trkpt>
      <trkpt lat="48.08239" lon="7.11093">
        <ele>769.74</ele>
        <time>2021-06-23T14:37:07Z</time>
      </trkpt>
      <trkpt lat="48.08147" lon="7.10991">
        <ele>763.88</ele>
        <time>2021-06-23T14:37:08Z</time>
      </trkpt>
      <trkpt lat="48.08082" lon="7.10909">
        <ele>754.75</ele>
        <time>2021-06-23T14:37:10Z</time>
      </trkpt>
      <trkpt lat="48.08052" lon="7.10879">
        <ele>752.74</ele>
        <time>2021-06-23T14:37:11Z</time>
      </trkpt>
      <trkpt lat="48.08011" lon="7.10849">
        <ele>748.16</ele>
        <time>2021-06-23T14:37:13Z</time>
      </trkpt>
      <trkpt lat="48.07953" lon="7.10812">
        <ele>745.26</ele>
        <time>2021-06-23T14:37:15Z</time>
      </trkpt>
      <trkpt lat="48.079" lon="7.10753">
        <ele>740.54</ele>
        <time>2021-06-23T14:37:16Z</time>
      </trkpt>
      <trkpt lat="48.07871" lon="7.10727">
        <ele>738.8</ele>
        <time>2021-06-23T14:37:18Z</time>
      </trkpt>
      <trkpt lat="48.07758" lon="7.10669">
        <ele>727.75</ele>
        <time>2021-06-23T14:37:19Z</time>
      </trkpt>
      <trkpt lat="48.07747" lon="7.10658">
        <ele>726.25</ele>
        <time>2021-06-23T14:37:21Z</time>
      </trkpt>
      <trkpt lat="48.07742" lon="7.10645">
        <ele>725.34</ele>
        <time>2021-06-23T14:37:22Z</time>
      </trkpt>
      <trkpt lat="48.07744" lon="7.10631">
        <ele>724.54</ele>
        <time>2021-06-23T14:37:24Z</time>
      </trkpt>
      <trkpt lat="48.07747" lon="7.10625">
        <ele>724.25</ele>
        <time>2021-06-23T14:37:26Z</time>
      </trkpt>
      <trkpt lat="48.07757" lon="7.10618">
        <ele>724.5</ele>
        <time>2021-06-23T14:37:27Z</time>
      </trkpt>
      <trkpt lat="48.0777" lon="7.10613">
        <ele>725.39</ele>
        <time>2021-06-23T14:37:29Z</time>
      </trkpt>
      <trkpt lat="48.07818" lon="7.10609">
        <ele>723.12</ele>
        <time>2021-06-23T14:37:30Z</time>
      </trkpt>
      <trkpt lat="48.07838" lon="7.10611">
        <ele>721.36</ele>
        <time>2021-06-23T14:37:32Z</time>
      </trkpt>
      <trkpt lat="48.07918" lon="7.10631">
        <ele>717.43</ele>
        <time>2021-06-23T14:37:33Z</time>
      </trkpt>
      <trkpt lat="48.07947" lon="7.10629">
        <ele>718.19</ele>
        <time>2021-06-23T14:37:35Z</time>
      </trkpt>
      <trkpt lat="48.07999" lon="7.10603">
        <ele>713.48</ele>
        <time>2021-06-23T14:37:37Z</time>
      </trkpt>
      <trkpt lat="48.0801" lon="7.10603">
        <ele>713.46</ele>
        <time>2021-06-23T14:37:38Z</time>
      </trkpt>
      <trkpt lat="48.08032" lon="7.10613">
        <ele>714.8</ele>
        <time>2021-06-23T14:37:40Z</time>
      </trkpt>
      <trkpt lat="48.08038" lon="7.10612">
        <ele>714.02</ele>
        <time>2021-06-23T14:37:41Z</time>
      </trkpt>
      <trkpt lat="48.08044" lon="7.10606">
        <ele>712.2</ele>
        <time>2021-06-23T14:37:43Z</time>
      </trkpt>
      <trkpt lat="48.08047" lon="7.10596">
        <ele>710.04</ele>
        <time>2021-06-23T14:37:44Z</time>
      </trkpt>
      <trkpt lat="48.08046" lon="7.10586">
        <ele>708.25</ele>
        <time>2021-06-23T14:37:46Z</time>
      </trkpt>
      <trkpt lat="48.0804" lon="7.10575">
        <ele>706.15</ele>
        <time>2021-06-23T14:37:48Z</time>
      </trkpt>
      <trkpt lat="48.08036" lon="7.10573">
        <ele>705.86</ele>
        <time>2021-06-23T14:37:49Z</time>
      </trkpt>
      <trkpt lat="48.08018" lon="7.10572">
        <ele>706.35</ele>
        <time>2021-06-23T14:37:51Z</time>
      </trkpt>
      <trkpt lat="48.08" lon="7.10572">
        <ele>707.15</ele>
        <time>2021-06-23T14:37:52Z</time>
      </trkpt>
      <trkpt lat="48.07958" lon="7.10565">
        <ele>704.77</ele>
        <time>2021-06-23T14:37:54Z</time>
      </trkpt>
      <trkpt lat="48.07934" lon="7.10559">
        <ele>701.95</ele>
        <time>2021-06-23T14:37:56Z</time>
      </trkpt>
      <trkpt lat="48.0792" lon="7.10553">
        <ele>699.66</ele>
        <time>2021-06-23T14:37:57Z</time>
      </trkpt>
      <trkpt lat="48.07845" lon="7.10507">
        <ele>694.69</ele>
        <time>2021-06-23T14:37:59Z</time>
      </trkpt>
      <trkpt lat="48.07727" lon="7.10447">
        <ele>688.82</ele>
        <time>2021-06-23T14:38:00Z</time>
      </trkpt>
      <trkpt lat="48.07659" lon="7.10381">
        <ele>682.33</ele>
        <time>2021-06-23T14:38:02Z</time>
      </trkpt>
      <trkpt lat="48.07641" lon="7.10373">
        <ele>680.63</ele>
        <time>2021-06-23T14:38:03Z</time>
      </trkpt>
      <trkpt lat="48.07526" lon="7.10348">
        <ele>670.91</ele>
        <time>2021-06-23T14:38:05Z</time>
      </trkpt>
      <trkpt lat="48.07434" lon="7.10335">
        <ele>669.6</ele>
        <time>2021-06-23T14:38:07Z</time>
      </trkpt>
      <trkpt lat="48.07404" lon="7.10334">
        <ele>667.64</ele>
        <time>2021-06-23T14:38:08Z</time>
      </trkpt>
      <trkpt lat="48.07387" lon="7.10341">
        <ele>668.09</ele>
        <time>2021-06-23T14:38:10Z</time>
      </trkpt>
      <trkpt lat="48.07359" lon="7.10366">
        <ele>667.81</ele>
        <time>2021-06-23T14:38:11Z</time>
      </trkpt>
      <trkpt lat="48.07354" lon="7.10366">
        <ele>666.09</ele>
        <time>2021-06-23T14:38:13Z</time>
      </trkpt>
      <trkpt lat="48.0735" lon="7.10362">
        <ele>664.89</ele>
        <time>2021-06-23T14:38:14Z</time>
      </trkpt>
      <trkpt lat="48.07346" lon="7.1035">
        <ele>662.26</ele>
        <time>2021-06-23T14:38:16Z</time>
      </trkpt>
      <trkpt lat="48.07346" lon="7.10338">
        <ele>660.77</ele>
        <time>2021-06-23T14:38:18Z</time>
      </trkpt>
      <trkpt lat="48.07351" lon="7.10326">
        <ele>660.15</ele>
        <time>2021-06-23T14:38:19Z</time>
      </trkpt>
      <trkpt lat="48.07362" lon="7.10319">
        <ele>660.38</ele>
        <time>2021-06-23T14:38:21Z</time>
      </trkpt>
      <trkpt lat="48.07388" lon="7.10307">
        <ele>659.34</ele>
        <time>2021-06-23T14:38:22Z</time>
      </trkpt>
      <trkpt lat="48.07444" lon="7.10289">
        <ele>656.66</ele>
        <time>2021-06-23T14:38:24Z</time>
      </trkpt>
      <trkpt lat="48.07518" lon="7.10281">
        <ele>653.78</ele>
        <time>2021-06-23T14:38:25Z</time>
      </trkpt>
      <trkpt lat="48.07603" lon="7.10267">
        <ele>648.64</ele>
        <time>2021-06-23T14:38:27Z</time>
      </trkpt>
      <trkpt lat="48.07682" lon="7.10261">
        <ele>644.83</ele>
        <time>2021-06-23T14:38:29Z</time>
      </trkpt>
      <trkpt lat="48.07843" lon="7.10255">
        <ele>637.59</ele>
        <time>2021-06-23T14:38:30Z</time>
      </trkpt>
      <trkpt lat="48.07852" lon="7.10253">
        <ele>636.82</ele>
        <time>2021-06-23T14:38:32Z</time>
      </trkpt>
      <trkpt lat="48.07859" lon="7.10246">
        <ele>636.17</ele>
        <time>2021-06-23T14:38:33Z</time>
      </trkpt>
      <trkpt lat="48.07862" lon="7.10236">
        <ele>636.7</ele>
        <time>2021-06-23T14:38:35Z</time>
      </trkpt>
      <trkpt lat="48.07862" lon="7.10223">
        <ele>637.17</ele>
        <time>2021-06-23T14:38:36Z</time>
      </trkpt>
      <trkpt lat="48.07833" lon="7.10017">
        <ele>628.9</ele>
        <time>2021-06-23T14:38:38Z</time>
      </trkpt>
      <trkpt lat="48.07829" lon="7.09931">
        <ele>629.01</ele>
        <time>2021-06-23T14:38:40Z</time>
      </trkpt>
      <trkpt lat="48.07832" lon="7.09893">
        <ele>627.83</ele>
        <time>2021-06-23T14:38:41Z</time>
      </trkpt>
      <trkpt lat="48.07831" lon="7.09879">
        <ele>626.64</ele>
        <time>2021-06-23T14:38:43Z</time>
      </trkpt>
      <trkpt lat="48.07826" lon="7.09862">
        <ele>624.8</ele>
        <time>2021-06-23T14:38:44Z</time>
      </trkpt>
      <trkpt lat="48.07819" lon="7.09849">
        <ele>624.14</ele>
        <time>2021-06-23T14:38:46Z</time>
      </trkpt>
      <trkpt lat="48.0781" lon="7.09838">
        <ele>623.35</ele>
        <time>2021-06-23T14:38:47Z</time>
      </trkpt>
      <trkpt lat="48.078" lon="7.09833">
        <ele>623.04</ele>
        <time>2021-06-23T14:38:49Z</time>
      </trkpt>
      <trkpt lat="48.07791" lon="7.09833">
        <ele>623.01</ele>
        <time>2021-06-23T14:38:51Z</time>
      </trkpt>
      <trkpt lat="48.07783" lon="7.09836">
        <ele>622.79</ele>
        <time>2021-06-23T14:38:52Z</time>
      </trkpt>
      <trkpt lat="48.07775" lon="7.09842">
        <ele>622.63</ele>
        <time>2021-06-23T14:38:54Z</time>
      </trkpt>
      <trkpt lat="48.07767" lon="7.09853">
        <ele>622.49</ele>
        <time>2021-06-23T14:38:55Z</time>
      </trkpt>
      <trkpt lat="48.07725" lon="7.0993">
        <ele>618.52</ele>
        <time>2021-06-23T14:38:57Z</time>
      </trkpt>
      <trkpt lat="48.07713" lon="7.09946">
        <ele>618.27</ele>
        <time>2021-06-23T14:38:59Z</time>
      </trkpt>
      <trkpt lat="48.07647" lon="7.10004">
        <ele>616.58</ele>
        <time>2021-06-23T14:39:00Z</time>
      </trkpt>
      <trkpt lat="48.07622" lon="7.10023">
        <ele>615.46</ele>
        <time>2021-06-23T14:39:02Z</time>
      </trkpt>
      <trkpt lat="48.07593" lon="7.10036">
        <ele>613</ele>
        <time>2021-06-23T14:39:03Z</time>
      </trkpt>
      <trkpt lat="48.07514" lon="7.10044">
        <ele>603.68</ele>
        <time>2021-06-23T14:39:05Z</time>
      </trkpt>
      <trkpt lat="48.07444" lon="7.10071">
        <ele>597.59</ele>
        <time>2021-06-23T14:39:06Z</time>
      </trkpt>
      <trkpt lat="48.07435" lon="7.10073">
        <ele>596.47</ele>
        <time>2021-06-23T14:39:08Z</time>
      </trkpt>
      <trkpt lat="48.07338" lon="7.10067">
        <ele>587.86</ele>
        <time>2021-06-23T14:39:10Z</time>
      </trkpt>
      <trkpt lat="48.07292" lon="7.10058">
        <ele>582.72</ele>
        <time>2021-06-23T14:39:11Z</time>
      </trkpt>
      <trkpt lat="48.07292" lon="7.10045">
        <ele>582.89</ele>
        <time>2021-06-23T14:39:13Z</time>
      </trkpt>
      <trkpt lat="48.07284" lon="7.10026">
        <ele>583.58</ele>
        <time>2021-06-23T14:39:15Z</time>
      </trkpt>
      <trkpt lat="48.0725" lon="7.09999">
        <ele>586.61</ele>
        <time>2021-06-23T14:39:17Z</time>
      </trkpt>
      <trkpt lat="48.07237" lon="7.09985">
        <ele>589.72</ele>
        <time>2021-06-23T14:39:19Z</time>
      </trkpt>
      <trkpt lat="48.07202" lon="7.09931">
        <ele>597.67</ele>
        <time>2021-06-23T14:39:21Z</time>
      </trkpt>
      <trkpt lat="48.07189" lon="7.09917">
        <ele>597.99</ele>
        <time>2021-06-23T14:39:22Z</time>
      </trkpt>
      <trkpt lat="48.07174" lon="7.09906">
        <ele>597.95</ele>
        <time>2021-06-23T14:39:24Z</time>
      </trkpt>
      <trkpt lat="48.07142" lon="7.09891">
        <ele>597.52</ele>
        <time>2021-06-23T14:39:26Z</time>
      </trkpt>
      <trkpt lat="48.07117" lon="7.09886">
        <ele>595.38</ele>
        <time>2021-06-23T14:39:28Z</time>
      </trkpt>
      <trkpt lat="48.07087" lon="7.09887">
        <ele>593.42</ele>
        <time>2021-06-23T14:39:30Z</time>
      </trkpt>
      <trkpt lat="48.06894" lon="7.09909">
        <ele>604.15</ele>
        <time>2021-06-23T14:39:32Z</time>
      </trkpt>
      <trkpt lat="48.06873" lon="7.09909">
        <ele>604.21</ele>
        <time>2021-06-23T14:39:34Z</time>
      </trkpt>
      <trkpt lat="48.06854" lon="7.09905">
        <ele>604.78</ele>
        <time>2021-06-23T14:39:36Z</time>
      </trkpt>
      <trkpt lat="48.06777" lon="7.09865">
        <ele>614.09</ele>
        <time>2021-06-23T14:39:37Z</time>
      </trkpt>
      <trkpt lat="48.06761" lon="7.09862">
        <ele>614.74</ele>
        <time>2021-06-23T14:39:39Z</time>
      </trkpt>
      <trkpt lat="48.06745" lon="7.09864">
        <ele>614.22</ele>
        <time>2021-06-23T14:39:41Z</time>
      </trkpt>
      <trkpt lat="48.06698" lon="7.09878">
        <ele>613.84</ele>
        <time>2021-06-23T14:39:43Z</time>
      </trkpt>
      <trkpt lat="48.06676" lon="7.09882">
        <ele>614.81</ele>
        <time>2021-06-23T14:39:45Z</time>
      </trkpt>
      <trkpt lat="48.06664" lon="7.09881">
        <ele>615.67</ele>
        <time>2021-06-23T14:39:47Z</time>
      </trkpt>
      <trkpt lat="48.06649" lon="7.09871">
        <ele>616.29</ele>
        <time>2021-06-23T14:39:49Z</time>
      </trkpt>
      <trkpt lat="48.06642" lon="7.09862">
        <ele>617.14</ele>
        <time>2021-06-23T14:39:50Z</time>
      </trkpt>
      <trkpt lat="48.06637" lon="7.09848">
        <ele>617.92</ele>
        <time>2021-06-23T14:39:52Z</time>
      </trkpt>
      <trkpt lat="48.06635" lon="7.09833">
        <ele>618.83</ele>
        <time>2021-06-23T14:39:54Z</time>
      </trkpt>
      <trkpt lat="48.06635" lon="7.0982">
        <ele>618.54</ele>
        <time>2021-06-23T14:39:56Z</time>
      </trkpt>
      <trkpt lat="48.06638" lon="7.09809">
        <ele>618.79</ele>
        <time>2021-06-23T14:39:58Z</time>
      </trkpt>
      <trkpt lat="48.06645" lon="7.0979">
        <ele>620.24</ele>
        <time>2021-06-23T14:40:00Z</time>
      </trkpt>
      <trkpt lat="48.06659" lon="7.09765">
        <ele>621.96</ele>
        <time>2021-06-23T14:40:02Z</time>
      </trkpt>
      <trkpt lat="48.06667" lon="7.09742">
        <ele>622.83</ele>
        <time>2021-06-23T14:40:04Z</time>
      </trkpt>
      <trkpt lat="48.06675" lon="7.09711">
        <ele>623.67</ele>
        <time>2021-06-23T14:40:05Z</time>
      </trkpt>
      <trkpt lat="48.06679" lon="7.09676">
        <ele>625.66</ele>
        <time>2021-06-23T14:40:07Z</time>
      </trkpt>
      <trkpt lat="48.06679" lon="7.09644">
        <ele>626.17</ele>
        <time>2021-06-23T14:40:09Z</time>
      </trkpt>
      <trkpt lat="48.06658" lon="7.09445">
        <ele>633.87</ele>
        <time>2021-06-23T14:40:11Z</time>
      </trkpt>
      <trkpt lat="48.06656" lon="7.09432">
        <ele>636.73</ele>
        <time>2021-06-23T14:40:13Z</time>
      </trkpt>
      <trkpt lat="48.0665" lon="7.09419">
        <ele>638.35</ele>
        <time>2021-06-23T14:40:15Z</time>
      </trkpt>
      <trkpt lat="48.06641" lon="7.09408">
        <ele>639.17</ele>
        <time>2021-06-23T14:40:17Z</time>
      </trkpt>
      <trkpt lat="48.06629" lon="7.09401">
        <ele>640.47</ele>
        <time>2021-06-23T14:40:19Z</time>
      </trkpt>
      <trkpt lat="48.06617" lon="7.09402">
        <ele>639.64</ele>
        <time>2021-06-23T14:40:20Z</time>
      </trkpt>
      <trkpt lat="48.06586" lon="7.09419">
        <ele>636.12</ele>
        <time>2021-06-23T14:40:22Z</time>
      </trkpt>
      <trkpt lat="48.06574" lon="7.09422">
        <ele>636.67</ele>
        <time>2021-06-23T14:40:24Z</time>
      </trkpt>
      <trkpt lat="48.06563" lon="7.09418">
        <ele>638.79</ele>
        <time>2021-06-23T14:40:26Z</time>
      </trkpt>
      <trkpt lat="48.06533" lon="7.09399">
        <ele>647.01</ele>
        <time>2021-06-23T14:40:28Z</time>
      </trkpt>
      <trkpt lat="48.06523" lon="7.09394">
        <ele>648.22</ele>
        <time>2021-06-23T14:40:30Z</time>
      </trkpt>
      <trkpt lat="48.06501" lon="7.09393">
        <ele>647.53</ele>
        <time>2021-06-23T14:40:32Z</time>
      </trkpt>
      <trkpt lat="48.0641" lon="7.09434">
        <ele>657</ele>
        <time>2021-06-23T14:40:33Z</time>
      </trkpt>
      <trkpt lat="48.06375" lon="7.09448">
        <ele>657.39</ele>
        <time>2021-06-23T14:40:35Z</time>
      </trkpt>
      <trkpt lat="48.06358" lon="7.09451">
        <ele>655.64</ele>
        <time>2021-06-23T14:40:37Z</time>
      </trkpt>
      <trkpt lat="48.06344" lon="7.0945">
        <ele>654.42</ele>
        <time>2021-06-23T14:40:39Z</time>
      </trkpt>
      <trkpt lat="48.06323" lon="7.09445">
        <ele>653.48</ele>
        <time>2021-06-23T14:40:41Z</time>
      </trkpt>
      <trkpt lat="48.06311" lon="7.09439">
        <ele>653.03</ele>
        <time>2021-06-23T14:40:43Z</time>
      </trkpt>
      <trkpt lat="48.06296" lon="7.09427">
        <ele>653.54</ele>
        <time>2021-06-23T14:40:45Z</time>
      </trkpt>
      <trkpt lat="48.0628" lon="7.09409">
        <ele>654.35</ele>
        <time>2021-06-23T14:40:47Z</time>
      </trkpt>
      <trkpt lat="48.06271" lon="7.09392">
        <ele>655.84</ele>
        <time>2021-06-23T14:40:48Z</time>
      </trkpt>
      <trkpt lat="48.06247" lon="7.09339">
        <ele>663.11</ele>
        <time>2021-06-23T14:40:50Z</time>
      </trkpt>
      <trkpt lat="48.06236" lon="7.09324">
        <ele>664.22</ele>
        <time>2021-06-23T14:40:52Z</time>
      </trkpt>
      <trkpt lat="48.06224" lon="7.09314">
        <ele>664.21</ele>
        <time>2021-06-23T14:40:54Z</time>
      </trkpt>
      <trkpt lat="48.06208" lon="7.09309">
        <ele>664.09</ele>
        <time>2021-06-23T14:40:56Z</time>
      </trkpt>
      <trkpt lat="48.06193" lon="7.09311">
        <ele>662.84</ele>
        <time>2021-06-23T14:40:58Z</time>
      </trkpt>
      <trkpt lat="48.06182" lon="7.09315">
        <ele>662.29</ele>
        <time>2021-06-23T14:41:00Z</time>
      </trkpt>
      <trkpt lat="48.06148" lon="7.09339">
        <ele>660.38</ele>
        <time>2021-06-23T14:41:02Z</time>
      </trkpt>
      <trkpt lat="48.06129" lon="7.09346">
        <ele>660.73</ele>
        <time>2021-06-23T14:41:03Z</time>
      </trkpt>
      <trkpt lat="48.06111" lon="7.09346">
        <ele>662.33</ele>
        <time>2021-06-23T14:41:05Z</time>
      </trkpt>
      <trkpt lat="48.06088" lon="7.09339">
        <ele>664.81</ele>
        <time>2021-06-23T14:41:07Z</time>
      </trkpt>
      <trkpt lat="48.06064" lon="7.09322">
        <ele>667.93</ele>
        <time>2021-06-23T14:41:09Z</time>
      </trkpt>
      <trkpt lat="48.06037" lon="7.09297">
        <ele>670.84</ele>
        <time>2021-06-23T14:41:11Z</time>
      </trkpt>
      <trkpt lat="48.06002" lon="7.09254">
        <ele>672.79</ele>
        <time>2021-06-23T14:41:13Z</time>
      </trkpt>
      <trkpt lat="48.0599" lon="7.0923">
        <ele>674.86</ele>
        <time>2021-06-23T14:41:15Z</time>
      </trkpt>
      <trkpt lat="48.0599" lon="7.0923">
        <ele>674.86</ele>
        <time>2021-06-23T14:41:15Z</time>
      </trkpt>
      <trkpt lat="48.05978" lon="7.09206">
        <ele>676.93</ele>
        <time>2021-06-23T14:41:16Z</time>
      </trkpt>
      <trkpt lat="48.05969" lon="7.09179">
        <ele>679.41</ele>
        <time>2021-06-23T14:41:18Z</time>
      </trkpt>
      <trkpt lat="48.05959" lon="7.09144">
        <ele>681.3</ele>
        <time>2021-06-23T14:41:20Z</time>
      </trkpt>
      <trkpt lat="48.05956" lon="7.09123">
        <ele>680.94</ele>
        <time>2021-06-23T14:41:22Z</time>
      </trkpt>
      <trkpt lat="48.05955" lon="7.09099">
        <ele>680.28</ele>
        <time>2021-06-23T14:41:23Z</time>
      </trkpt>
      <trkpt lat="48.05957" lon="7.09069">
        <ele>680.64</ele>
        <time>2021-06-23T14:41:25Z</time>
      </trkpt>
      <trkpt lat="48.05962" lon="7.09052">
        <ele>682.14</ele>
        <time>2021-06-23T14:41:27Z</time>
      </trkpt>
      <trkpt lat="48.05969" lon="7.09035">
        <ele>684.2</ele>
        <time>2021-06-23T14:41:28Z</time>
      </trkpt>
      <trkpt lat="48.0602" lon="7.08941">
        <ele>693.1</ele>
        <time>2021-06-23T14:41:30Z</time>
      </trkpt>
      <trkpt lat="48.06044" lon="7.0888">
        <ele>696.22</ele>
        <time>2021-06-23T14:41:32Z</time>
      </trkpt>
      <trkpt lat="48.06058" lon="7.08829">
        <ele>700.27</ele>
        <time>2021-06-23T14:41:34Z</time>
      </trkpt>
      <trkpt lat="48.06063" lon="7.08778">
        <ele>700.7</ele>
        <time>2021-06-23T14:41:35Z</time>
      </trkpt>
      <trkpt lat="48.06062" lon="7.08699">
        <ele>701.19</ele>
        <time>2021-06-23T14:41:37Z</time>
      </trkpt>
      <trkpt lat="48.06063" lon="7.08671">
        <ele>702.22</ele>
        <time>2021-06-23T14:41:39Z</time>
      </trkpt>
      <trkpt lat="48.06082" lon="7.08502">
        <ele>706.77</ele>
        <time>2021-06-23T14:41:41Z</time>
      </trkpt>
      <trkpt lat="48.06091" lon="7.08456">
        <ele>706.92</ele>
        <time>2021-06-23T14:41:42Z</time>
      </trkpt>
      <trkpt lat="48.06121" lon="7.0836">
        <ele>709.56</ele>
        <time>2021-06-23T14:41:44Z</time>
      </trkpt>
      <trkpt lat="48.06129" lon="7.08329">
        <ele>711.06</ele>
        <time>2021-06-23T14:41:46Z</time>
      </trkpt>
      <trkpt lat="48.06143" lon="7.08235">
        <ele>711.95</ele>
        <time>2021-06-23T14:41:47Z</time>
      </trkpt>
      <trkpt lat="48.06147" lon="7.08216">
        <ele>711.97</ele>
        <time>2021-06-23T14:41:49Z</time>
      </trkpt>
      <trkpt lat="48.06156" lon="7.082">
        <ele>712.09</ele>
        <time>2021-06-23T14:41:51Z</time>
      </trkpt>
      <trkpt lat="48.0617" lon="7.08184">
        <ele>713.94</ele>
        <time>2021-06-23T14:41:53Z</time>
      </trkpt>
      <trkpt lat="48.06185" lon="7.08171">
        <ele>716.48</ele>
        <time>2021-06-23T14:41:54Z</time>
      </trkpt>
      <trkpt lat="48.06218" lon="7.08151">
        <ele>720.68</ele>
        <time>2021-06-23T14:41:56Z</time>
      </trkpt>
      <trkpt lat="48.06233" lon="7.08145">
        <ele>721.79</ele>
        <time>2021-06-23T14:41:58Z</time>
      </trkpt>
      <trkpt lat="48.06246" lon="7.08143">
        <ele>723.22</ele>
        <time>2021-06-23T14:41:59Z</time>
      </trkpt>
      <trkpt lat="48.06295" lon="7.0815">
        <ele>731.12</ele>
        <time>2021-06-23T14:42:01Z</time>
      </trkpt>
      <trkpt lat="48.06313" lon="7.08146">
        <ele>733.16</ele>
        <time>2021-06-23T14:42:03Z</time>
      </trkpt>
      <trkpt lat="48.06323" lon="7.0814">
        <ele>733.91</ele>
        <time>2021-06-23T14:42:05Z</time>
      </trkpt>
      <trkpt lat="48.06336" lon="7.08127">
        <ele>735.11</ele>
        <time>2021-06-23T14:42:06Z</time>
      </trkpt>
      <trkpt lat="48.06345" lon="7.08114">
        <ele>736.34</ele>
        <time>2021-06-23T14:42:08Z</time>
      </trkpt>
      <trkpt lat="48.06352" lon="7.08094">
        <ele>737.47</ele>
        <time>2021-06-23T14:42:10Z</time>
      </trkpt>
      <trkpt lat="48.06357" lon="7.08073">
        <ele>737.39</ele>
        <time>2021-06-23T14:42:12Z</time>
      </trkpt>
      <trkpt lat="48.06357" lon="7.08058">
        <ele>736.28</ele>
        <time>2021-06-23T14:42:13Z</time>
      </trkpt>
      <trkpt lat="48.06353" lon="7.08011">
        <ele>732.49</ele>
        <time>2021-06-23T14:42:15Z</time>
      </trkpt>
      <trkpt lat="48.06355" lon="7.07989">
        <ele>732.59</ele>
        <time>2021-06-23T14:42:17Z</time>
      </trkpt>
      <trkpt lat="48.06363" lon="7.07949">
        <ele>735.65</ele>
        <time>2021-06-23T14:42:18Z</time>
      </trkpt>
      <trkpt lat="48.06382" lon="7.07873">
        <ele>739.03</ele>
        <time>2021-06-23T14:42:20Z</time>
      </trkpt>
      <trkpt lat="48.06401" lon="7.07805">
        <ele>741.66</ele>
        <time>2021-06-23T14:42:22Z</time>
      </trkpt>
      <trkpt lat="48.06416" lon="7.07776">
        <ele>742.19</ele>
        <time>2021-06-23T14:42:24Z</time>
      </trkpt>
      <trkpt lat="48.06428" lon="7.07763">
        <ele>741.31</ele>
        <time>2021-06-23T14:42:25Z</time>
      </trkpt>
      <trkpt lat="48.06445" lon="7.0775">
        <ele>741.05</ele>
        <time>2021-06-23T14:42:27Z</time>
      </trkpt>
      <trkpt lat="48.06467" lon="7.0774">
        <ele>740.03</ele>
        <time>2021-06-23T14:42:29Z</time>
      </trkpt>
      <trkpt lat="48.06581" lon="7.07708">
        <ele>754.44</ele>
        <time>2021-06-23T14:42:31Z</time>
      </trkpt>
      <trkpt lat="48.06645" lon="7.07675">
        <ele>758.39</ele>
        <time>2021-06-23T14:42:32Z</time>
      </trkpt>
      <trkpt lat="48.0666" lon="7.07664">
        <ele>758.57</ele>
        <time>2021-06-23T14:42:34Z</time>
      </trkpt>
      <trkpt lat="48.06675" lon="7.07649">
        <ele>759.21</ele>
        <time>2021-06-23T14:42:36Z</time>
      </trkpt>
      <trkpt lat="48.06741" lon="7.07559">
        <ele>765.93</ele>
        <time>2021-06-23T14:42:37Z</time>
      </trkpt>
      <trkpt lat="48.0676" lon="7.07544">
        <ele>766.95</ele>
        <time>2021-06-23T14:42:39Z</time>
      </trkpt>
      <trkpt lat="48.06769" lon="7.0754">
        <ele>767.37</ele>
        <time>2021-06-23T14:42:41Z</time>
      </trkpt>
      <trkpt lat="48.06808" lon="7.07533">
        <ele>770.24</ele>
        <time>2021-06-23T14:42:43Z</time>
      </trkpt>
      <trkpt lat="48.0686" lon="7.07537">
        <ele>775.92</ele>
        <time>2021-06-23T14:42:44Z</time>
      </trkpt>
      <trkpt lat="48.06877" lon="7.07535">
        <ele>776.36</ele>
        <time>2021-06-23T14:42:46Z</time>
      </trkpt>
      <trkpt lat="48.06883" lon="7.0753">
        <ele>775.95</ele>
        <time>2021-06-23T14:42:48Z</time>
      </trkpt>
      <trkpt lat="48.06889" lon="7.07522">
        <ele>774.97</ele>
        <time>2021-06-23T14:42:49Z</time>
      </trkpt>
      <trkpt lat="48.06894" lon="7.07509">
        <ele>773.98</ele>
        <time>2021-06-23T14:42:51Z</time>
      </trkpt>
      <trkpt lat="48.06896" lon="7.07488">
        <ele>775.59</ele>
        <time>2021-06-23T14:42:53Z</time>
      </trkpt>
      <trkpt lat="48.06891" lon="7.07468">
        <ele>778.36</ele>
        <time>2021-06-23T14:42:55Z</time>
      </trkpt>
      <trkpt lat="48.06877" lon="7.0744">
        <ele>781.73</ele>
        <time>2021-06-23T14:42:56Z</time>
      </trkpt>
      <trkpt lat="48.06835" lon="7.07346">
        <ele>783.65</ele>
        <time>2021-06-23T14:42:58Z</time>
      </trkpt>
      <trkpt lat="48.06819" lon="7.07317">
        <ele>786.64</ele>
        <time>2021-06-23T14:43:00Z</time>
      </trkpt>
      <trkpt lat="48.06764" lon="7.07255">
        <ele>785.2</ele>
        <time>2021-06-23T14:43:02Z</time>
      </trkpt>
      <trkpt lat="48.06756" lon="7.07232">
        <ele>784.96</ele>
        <time>2021-06-23T14:43:03Z</time>
      </trkpt>
      <trkpt lat="48.06746" lon="7.07192">
        <ele>785.49</ele>
        <time>2021-06-23T14:43:05Z</time>
      </trkpt>
      <trkpt lat="48.06734" lon="7.07085">
        <ele>795.62</ele>
        <time>2021-06-23T14:43:07Z</time>
      </trkpt>
      <trkpt lat="48.06736" lon="7.07044">
        <ele>799.07</ele>
        <time>2021-06-23T14:43:08Z</time>
      </trkpt>
      <trkpt lat="48.06735" lon="7.07031">
        <ele>800.07</ele>
        <time>2021-06-23T14:43:10Z</time>
      </trkpt>
      <trkpt lat="48.06727" lon="7.07007">
        <ele>801.84</ele>
        <time>2021-06-23T14:43:12Z</time>
      </trkpt>
      <trkpt lat="48.0672" lon="7.06997">
        <ele>802.56</ele>
        <time>2021-06-23T14:43:14Z</time>
      </trkpt>
      <trkpt lat="48.06705" lon="7.06991">
        <ele>803.14</ele>
        <time>2021-06-23T14:43:15Z</time>
      </trkpt>
      <trkpt lat="48.06688" lon="7.06999">
        <ele>802.46</ele>
        <time>2021-06-23T14:43:17Z</time>
      </trkpt>
      <trkpt lat="48.06677" lon="7.0701">
        <ele>802.13</ele>
        <time>2021-06-23T14:43:19Z</time>
      </trkpt>
      <trkpt lat="48.06643" lon="7.07055">
        <ele>797.92</ele>
        <time>2021-06-23T14:43:20Z</time>
      </trkpt>
      <trkpt lat="48.06628" lon="7.07065">
        <ele>797.98</ele>
        <time>2021-06-23T14:43:22Z</time>
      </trkpt>
      <trkpt lat="48.06611" lon="7.07066">
        <ele>799.05</ele>
        <time>2021-06-23T14:43:24Z</time>
      </trkpt>
      <trkpt lat="48.066" lon="7.07062">
        <ele>799.09</ele>
        <time>2021-06-23T14:43:26Z</time>
      </trkpt>
      <trkpt lat="48.06531" lon="7.06993">
        <ele>802.7</ele>
        <time>2021-06-23T14:43:27Z</time>
      </trkpt>
      <trkpt lat="48.0649" lon="7.0694">
        <ele>804.82</ele>
        <time>2021-06-23T14:43:29Z</time>
      </trkpt>
      <trkpt lat="48.06472" lon="7.06913">
        <ele>807.55</ele>
        <time>2021-06-23T14:43:31Z</time>
      </trkpt>
      <trkpt lat="48.06461" lon="7.06884">
        <ele>811.08</ele>
        <time>2021-06-23T14:43:33Z</time>
      </trkpt>
      <trkpt lat="48.06459" lon="7.06868">
        <ele>812.79</ele>
        <time>2021-06-23T14:43:34Z</time>
      </trkpt>
      <trkpt lat="48.06454" lon="7.06788">
        <ele>816.6</ele>
        <time>2021-06-23T14:43:36Z</time>
      </trkpt>
      <trkpt lat="48.06451" lon="7.06761">
        <ele>818.66</ele>
        <time>2021-06-23T14:43:38Z</time>
      </trkpt>
      <trkpt lat="48.06441" lon="7.06718">
        <ele>821.67</ele>
        <time>2021-06-23T14:43:39Z</time>
      </trkpt>
      <trkpt lat="48.06376" lon="7.06518">
        <ele>827.73</ele>
        <time>2021-06-23T14:43:41Z</time>
      </trkpt>
      <trkpt lat="48.0636" lon="7.06474">
        <ele>829.58</ele>
        <time>2021-06-23T14:43:43Z</time>
      </trkpt>
      <trkpt lat="48.06339" lon="7.0634">
        <ele>832.12</ele>
        <time>2021-06-23T14:43:45Z</time>
      </trkpt>
      <trkpt lat="48.06337" lon="7.06292">
        <ele>831.52</ele>
        <time>2021-06-23T14:43:46Z</time>
      </trkpt>
      <trkpt lat="48.06339" lon="7.06269">
        <ele>832.91</ele>
        <time>2021-06-23T14:43:48Z</time>
      </trkpt>
      <trkpt lat="48.06342" lon="7.06251">
        <ele>834.75</ele>
        <time>2021-06-23T14:43:50Z</time>
      </trkpt>
      <trkpt lat="48.06361" lon="7.06168">
        <ele>836.97</ele>
        <time>2021-06-23T14:43:52Z</time>
      </trkpt>
      <trkpt lat="48.06381" lon="7.06101">
        <ele>841.92</ele>
        <time>2021-06-23T14:43:53Z</time>
      </trkpt>
      <trkpt lat="48.06401" lon="7.06061">
        <ele>841.89</ele>
        <time>2021-06-23T14:43:55Z</time>
      </trkpt>
      <trkpt lat="48.06423" lon="7.06027">
        <ele>842.86</ele>
        <time>2021-06-23T14:43:57Z</time>
      </trkpt>
      <trkpt lat="48.06445" lon="7.06003">
        <ele>844.58</ele>
        <time>2021-06-23T14:43:58Z</time>
      </trkpt>
      <trkpt lat="48.06462" lon="7.0599">
        <ele>846.47</ele>
        <time>2021-06-23T14:44:00Z</time>
      </trkpt>
      <trkpt lat="48.06481" lon="7.05986">
        <ele>848.35</ele>
        <time>2021-06-23T14:44:02Z</time>
      </trkpt>
      <trkpt lat="48.06512" lon="7.05994">
        <ele>850.41</ele>
        <time>2021-06-23T14:44:04Z</time>
      </trkpt>
      <trkpt lat="48.06595" lon="7.06023">
        <ele>854.89</ele>
        <time>2021-06-23T14:44:05Z</time>
      </trkpt>
      <trkpt lat="48.06614" lon="7.06028">
        <ele>855.19</ele>
        <time>2021-06-23T14:44:07Z</time>
      </trkpt>
      <trkpt lat="48.06649" lon="7.06032">
        <ele>857.8</ele>
        <time>2021-06-23T14:44:09Z</time>
      </trkpt>
      <trkpt lat="48.06671" lon="7.06029">
        <ele>859.76</ele>
        <time>2021-06-23T14:44:10Z</time>
      </trkpt>
      <trkpt lat="48.06694" lon="7.06021">
        <ele>861.25</ele>
        <time>2021-06-23T14:44:12Z</time>
      </trkpt>
      <trkpt lat="48.0675" lon="7.05991">
        <ele>866.37</ele>
        <time>2021-06-23T14:44:14Z</time>
      </trkpt>
      <trkpt lat="48.06771" lon="7.05977">
        <ele>868.69</ele>
        <time>2021-06-23T14:44:16Z</time>
      </trkpt>
      <trkpt lat="48.06778" lon="7.0597">
        <ele>869.07</ele>
        <time>2021-06-23T14:44:17Z</time>
      </trkpt>
      <trkpt lat="48.06784" lon="7.05952">
        <ele>870.68</ele>
        <time>2021-06-23T14:44:19Z</time>
      </trkpt>
      <trkpt lat="48.06784" lon="7.0594">
        <ele>871.22</ele>
        <time>2021-06-23T14:44:21Z</time>
      </trkpt>
      <trkpt lat="48.06781" lon="7.05928">
        <ele>871.7</ele>
        <time>2021-06-23T14:44:23Z</time>
      </trkpt>
      <trkpt lat="48.06768" lon="7.05913">
        <ele>871.06</ele>
        <time>2021-06-23T14:44:24Z</time>
      </trkpt>
      <trkpt lat="48.06745" lon="7.05894">
        <ele>869.68</ele>
        <time>2021-06-23T14:44:26Z</time>
      </trkpt>
      <trkpt lat="48.06716" lon="7.0586">
        <ele>871.04</ele>
        <time>2021-06-23T14:44:28Z</time>
      </trkpt>
      <trkpt lat="48.06694" lon="7.0582">
        <ele>875.42</ele>
        <time>2021-06-23T14:44:29Z</time>
      </trkpt>
      <trkpt lat="48.06686" lon="7.05784">
        <ele>876.86</ele>
        <time>2021-06-23T14:44:31Z</time>
      </trkpt>
      <trkpt lat="48.06684" lon="7.05749">
        <ele>877.29</ele>
        <time>2021-06-23T14:44:33Z</time>
      </trkpt>
      <trkpt lat="48.0669" lon="7.05714">
        <ele>876.52</ele>
        <time>2021-06-23T14:44:35Z</time>
      </trkpt>
      <trkpt lat="48.06734" lon="7.05567">
        <ele>880.85</ele>
        <time>2021-06-23T14:44:36Z</time>
      </trkpt>
      <trkpt lat="48.06743" lon="7.05548">
        <ele>881.1</ele>
        <time>2021-06-23T14:44:38Z</time>
      </trkpt>
      <trkpt lat="48.06775" lon="7.0549">
        <ele>884.68</ele>
        <time>2021-06-23T14:44:40Z</time>
      </trkpt>
      <trkpt lat="48.06792" lon="7.0547">
        <ele>889.96</ele>
        <time>2021-06-23T14:44:42Z</time>
      </trkpt>
      <trkpt lat="48.06804" lon="7.05449">
        <ele>893.45</ele>
        <time>2021-06-23T14:44:43Z</time>
      </trkpt>
      <trkpt lat="48.06838" lon="7.05365">
        <ele>895.04</ele>
        <time>2021-06-23T14:44:45Z</time>
      </trkpt>
      <trkpt lat="48.06845" lon="7.05327">
        <ele>895.53</ele>
        <time>2021-06-23T14:44:47Z</time>
      </trkpt>
      <trkpt lat="48.06859" lon="7.05163">
        <ele>905.01</ele>
        <time>2021-06-23T14:44:48Z</time>
      </trkpt>
      <trkpt lat="48.06868" lon="7.05102">
        <ele>904.98</ele>
        <time>2021-06-23T14:44:50Z</time>
      </trkpt>
      <trkpt lat="48.06911" lon="7.04887">
        <ele>913.06</ele>
        <time>2021-06-23T14:44:52Z</time>
      </trkpt>
      <trkpt lat="48.06913" lon="7.04848">
        <ele>914.73</ele>
        <time>2021-06-23T14:44:54Z</time>
      </trkpt>
      <trkpt lat="48.06911" lon="7.04818">
        <ele>914.9</ele>
        <time>2021-06-23T14:44:55Z</time>
      </trkpt>
      <trkpt lat="48.06906" lon="7.04789">
        <ele>915</ele>
        <time>2021-06-23T14:44:57Z</time>
      </trkpt>
      <trkpt lat="48.06879" lon="7.04729">
        <ele>911.2</ele>
        <time>2021-06-23T14:44:59Z</time>
      </trkpt>
      <trkpt lat="48.06856" lon="7.04709">
        <ele>910.59</ele>
        <time>2021-06-23T14:45:00Z</time>
      </trkpt>
      <trkpt lat="48.06832" lon="7.04704">
        <ele>913.51</ele>
        <time>2021-06-23T14:45:02Z</time>
      </trkpt>
      <trkpt lat="48.06816" lon="7.04709">
        <ele>918.18</ele>
        <time>2021-06-23T14:45:04Z</time>
      </trkpt>
      <trkpt lat="48.06804" lon="7.04719">
        <ele>922.22</ele>
        <time>2021-06-23T14:45:06Z</time>
      </trkpt>
      <trkpt lat="48.06748" lon="7.04794">
        <ele>927.43</ele>
        <time>2021-06-23T14:45:07Z</time>
      </trkpt>
      <trkpt lat="48.06724" lon="7.04813">
        <ele>926.4</ele>
        <time>2021-06-23T14:45:09Z</time>
      </trkpt>
      <trkpt lat="48.06701" lon="7.0482">
        <ele>926.71</ele>
        <time>2021-06-23T14:45:11Z</time>
      </trkpt>
      <trkpt lat="48.06667" lon="7.04809">
        <ele>926.73</ele>
        <time>2021-06-23T14:45:13Z</time>
      </trkpt>
      <trkpt lat="48.06598" lon="7.04767">
        <ele>935.3</ele>
        <time>2021-06-23T14:45:14Z</time>
      </trkpt>
      <trkpt lat="48.06577" lon="7.04763">
        <ele>937.54</ele>
        <time>2021-06-23T14:45:16Z</time>
      </trkpt>
      <trkpt lat="48.06555" lon="7.04768">
        <ele>940.17</ele>
        <time>2021-06-23T14:45:18Z</time>
      </trkpt>
      <trkpt lat="48.06521" lon="7.04801">
        <ele>943.48</ele>
        <time>2021-06-23T14:45:19Z</time>
      </trkpt>
      <trkpt lat="48.06494" lon="7.04834">
        <ele>943.3</ele>
        <time>2021-06-23T14:45:21Z</time>
      </trkpt>
      <trkpt lat="48.06469" lon="7.04852">
        <ele>943.07</ele>
        <time>2021-06-23T14:45:23Z</time>
      </trkpt>
      <trkpt lat="48.06446" lon="7.04857">
        <ele>943.27</ele>
        <time>2021-06-23T14:45:25Z</time>
      </trkpt>
      <trkpt lat="48.06423" lon="7.0485">
        <ele>945.06</ele>
        <time>2021-06-23T14:45:26Z</time>
      </trkpt>
      <trkpt lat="48.06399" lon="7.04828">
        <ele>946.89</ele>
        <time>2021-06-23T14:45:28Z</time>
      </trkpt>
      <trkpt lat="48.06364" lon="7.0475">
        <ele>951.3</ele>
        <time>2021-06-23T14:45:30Z</time>
      </trkpt>
      <trkpt lat="48.06343" lon="7.0473">
        <ele>956.07</ele>
        <time>2021-06-23T14:45:32Z</time>
      </trkpt>
      <trkpt lat="48.06315" lon="7.04723">
        <ele>959.3</ele>
        <time>2021-06-23T14:45:33Z</time>
      </trkpt>
      <trkpt lat="48.06207" lon="7.0472">
        <ele>960.69</ele>
        <time>2021-06-23T14:45:35Z</time>
      </trkpt>
      <trkpt lat="48.06158" lon="7.04725">
        <ele>960.36</ele>
        <time>2021-06-23T14:45:37Z</time>
      </trkpt>
      <trkpt lat="48.06149" lon="7.0472">
        <ele>961.57</ele>
        <time>2021-06-23T14:45:38Z</time>
      </trkpt>
      <trkpt lat="48.06141" lon="7.04707">
        <ele>964.32</ele>
        <time>2021-06-23T14:45:40Z</time>
      </trkpt>
      <trkpt lat="48.06137" lon="7.04687">
        <ele>968.74</ele>
        <time>2021-06-23T14:45:42Z</time>
      </trkpt>
      <trkpt lat="48.0614" lon="7.04672">
        <ele>972.7</ele>
        <time>2021-06-23T14:45:44Z</time>
      </trkpt>
      <trkpt lat="48.06143" lon="7.04665">
        <ele>974.25</ele>
        <time>2021-06-23T14:45:45Z</time>
      </trkpt>
      <trkpt lat="48.06147" lon="7.04662">
        <ele>974.95</ele>
        <time>2021-06-23T14:45:47Z</time>
      </trkpt>
      <trkpt lat="48.06155" lon="7.04659">
        <ele>975.45</ele>
        <time>2021-06-23T14:45:49Z</time>
      </trkpt>
      <trkpt lat="48.06162" lon="7.0466">
        <ele>975.31</ele>
        <time>2021-06-23T14:45:50Z</time>
      </trkpt>
      <trkpt lat="48.06182" lon="7.04668">
        <ele>973.64</ele>
        <time>2021-06-23T14:45:52Z</time>
      </trkpt>
      <trkpt lat="48.06203" lon="7.04683">
        <ele>969.97</ele>
        <time>2021-06-23T14:45:54Z</time>
      </trkpt>
      <trkpt lat="48.06217" lon="7.04689">
        <ele>968.49</ele>
        <time>2021-06-23T14:45:56Z</time>
      </trkpt>
      <trkpt lat="48.0624" lon="7.04689">
        <ele>968.19</ele>
        <time>2021-06-23T14:45:57Z</time>
      </trkpt>
      <trkpt lat="48.06263" lon="7.04686">
        <ele>969.11</ele>
        <time>2021-06-23T14:45:59Z</time>
      </trkpt>
      <trkpt lat="48.06297" lon="7.04675">
        <ele>973.18</ele>
        <time>2021-06-23T14:46:01Z</time>
      </trkpt>
      <trkpt lat="48.06335" lon="7.04667">
        <ele>974.97</ele>
        <time>2021-06-23T14:46:03Z</time>
      </trkpt>
      <trkpt lat="48.0638" lon="7.04666">
        <ele>976.42</ele>
        <time>2021-06-23T14:46:04Z</time>
      </trkpt>
      <trkpt lat="48.06441" lon="7.0468">
        <ele>976.92</ele>
        <time>2021-06-23T14:46:06Z</time>
      </trkpt>
      <trkpt lat="48.06467" lon="7.04678">
        <ele>977.79</ele>
        <time>2021-06-23T14:46:08Z</time>
      </trkpt>
      <trkpt lat="48.06483" lon="7.04669">
        <ele>978.68</ele>
        <time>2021-06-23T14:46:09Z</time>
      </trkpt>
      <trkpt lat="48.06501" lon="7.04653">
        <ele>980.18</ele>
        <time>2021-06-23T14:46:11Z</time>
      </trkpt>
      <trkpt lat="48.06569" lon="7.04577">
        <ele>984.3</ele>
        <time>2021-06-23T14:46:13Z</time>
      </trkpt>
      <trkpt lat="48.06641" lon="7.04465">
        <ele>983.92</ele>
        <time>2021-06-23T14:46:15Z</time>
      </trkpt>
      <trkpt lat="48.06662" lon="7.04425">
        <ele>987.19</ele>
        <time>2021-06-23T14:46:16Z</time>
      </trkpt>
      <trkpt lat="48.06681" lon="7.04372">
        <ele>989.33</ele>
        <time>2021-06-23T14:46:18Z</time>
      </trkpt>
      <trkpt lat="48.06697" lon="7.04306">
        <ele>994.05</ele>
        <time>2021-06-23T14:46:20Z</time>
      </trkpt>
      <trkpt lat="48.06703" lon="7.04285">
        <ele>994.75</ele>
        <time>2021-06-23T14:46:22Z</time>
      </trkpt>
      <trkpt lat="48.06717" lon="7.04253">
        <ele>994.76</ele>
        <time>2021-06-23T14:46:23Z</time>
      </trkpt>
      <trkpt lat="48.06727" lon="7.04235">
        <ele>996.85</ele>
        <time>2021-06-23T14:46:25Z</time>
      </trkpt>
      <trkpt lat="48.06749" lon="7.04204">
        <ele>999.43</ele>
        <time>2021-06-23T14:46:27Z</time>
      </trkpt>
      <trkpt lat="48.0676" lon="7.04186">
        <ele>999.79</ele>
        <time>2021-06-23T14:46:28Z</time>
      </trkpt>
      <trkpt lat="48.06768" lon="7.04169">
        <ele>1000.7</ele>
        <time>2021-06-23T14:46:30Z</time>
      </trkpt>
      <trkpt lat="48.06829" lon="7.03999">
        <ele>1012.6</ele>
        <time>2021-06-23T14:46:32Z</time>
      </trkpt>
      <trkpt lat="48.06863" lon="7.03893">
        <ele>1015.47</ele>
        <time>2021-06-23T14:46:34Z</time>
      </trkpt>
      <trkpt lat="48.06868" lon="7.03868">
        <ele>1014.46</ele>
        <time>2021-06-23T14:46:35Z</time>
      </trkpt>
      <trkpt lat="48.06864" lon="7.03834">
        <ele>1012.51</ele>
        <time>2021-06-23T14:46:37Z</time>
      </trkpt>
      <trkpt lat="48.06864" lon="7.03834">
        <ele>1012.51</ele>
        <time>2021-06-23T14:46:37Z</time>
      </trkpt>
      <trkpt lat="48.0685" lon="7.03809">
        <ele>1011.51</ele>
        <time>2021-06-23T14:46:39Z</time>
      </trkpt>
      <trkpt lat="48.06822" lon="7.03796">
        <ele>1012.49</ele>
        <time>2021-06-23T14:46:41Z</time>
      </trkpt>
      <trkpt lat="48.06797" lon="7.03815">
        <ele>1016.03</ele>
        <time>2021-06-23T14:46:43Z</time>
      </trkpt>
      <trkpt lat="48.06781" lon="7.03857">
        <ele>1018.65</ele>
        <time>2021-06-23T14:46:44Z</time>
      </trkpt>
      <trkpt lat="48.06771" lon="7.03896">
        <ele>1019.55</ele>
        <time>2021-06-23T14:46:46Z</time>
      </trkpt>
      <trkpt lat="48.06764" lon="7.03968">
        <ele>1016.27</ele>
        <time>2021-06-23T14:46:48Z</time>
      </trkpt>
      <trkpt lat="48.06756" lon="7.04006">
        <ele>1014.34</ele>
        <time>2021-06-23T14:46:50Z</time>
      </trkpt>
      <trkpt lat="48.06676" lon="7.04201">
        <ele>1020.15</ele>
        <time>2021-06-23T14:46:52Z</time>
      </trkpt>
      <trkpt lat="48.06665" lon="7.0422">
        <ele>1021.66</ele>
        <time>2021-06-23T14:46:54Z</time>
      </trkpt>
      <trkpt lat="48.06657" lon="7.04226">
        <ele>1022.23</ele>
        <time>2021-06-23T14:46:56Z</time>
      </trkpt>
      <trkpt lat="48.06631" lon="7.04239">
        <ele>1026.7</ele>
        <time>2021-06-23T14:46:57Z</time>
      </trkpt>
      <trkpt lat="48.06622" lon="7.04247">
        <ele>1028.09</ele>
        <time>2021-06-23T14:46:59Z</time>
      </trkpt>
      <trkpt lat="48.06613" lon="7.04257">
        <ele>1029.06</ele>
        <time>2021-06-23T14:47:01Z</time>
      </trkpt>
      <trkpt lat="48.06606" lon="7.04268">
        <ele>1030.09</ele>
        <time>2021-06-23T14:47:03Z</time>
      </trkpt>
      <trkpt lat="48.06579" lon="7.04329">
        <ele>1031.5</ele>
        <time>2021-06-23T14:47:05Z</time>
      </trkpt>
      <trkpt lat="48.06568" lon="7.04349">
        <ele>1031.56</ele>
        <time>2021-06-23T14:47:07Z</time>
      </trkpt>
      <trkpt lat="48.06548" lon="7.04371">
        <ele>1033.28</ele>
        <time>2021-06-23T14:47:08Z</time>
      </trkpt>
      <trkpt lat="48.06535" lon="7.04379">
        <ele>1034.33</ele>
        <time>2021-06-23T14:47:10Z</time>
      </trkpt>
      <trkpt lat="48.06516" lon="7.04382">
        <ele>1035.79</ele>
        <time>2021-06-23T14:47:12Z</time>
      </trkpt>
      <trkpt lat="48.06497" lon="7.04381">
        <ele>1037.49</ele>
        <time>2021-06-23T14:47:14Z</time>
      </trkpt>
      <trkpt lat="48.06466" lon="7.04366">
        <ele>1043.65</ele>
        <time>2021-06-23T14:47:16Z</time>
      </trkpt>
      <trkpt lat="48.06449" lon="7.04359">
        <ele>1045.98</ele>
        <time>2021-06-23T14:47:18Z</time>
      </trkpt>
      <trkpt lat="48.0643" lon="7.04357">
        <ele>1047.46</ele>
        <time>2021-06-23T14:47:20Z</time>
      </trkpt>
      <trkpt lat="48.06341" lon="7.04363">
        <ele>1050.4</ele>
        <time>2021-06-23T14:47:21Z</time>
      </trkpt>
      <trkpt lat="48.06305" lon="7.04363">
        <ele>1050.73</ele>
        <time>2021-06-23T14:47:23Z</time>
      </trkpt>
      <trkpt lat="48.06286" lon="7.0436">
        <ele>1051.86</ele>
        <time>2021-06-23T14:47:25Z</time>
      </trkpt>
      <trkpt lat="48.06262" lon="7.04355">
        <ele>1054.21</ele>
        <time>2021-06-23T14:47:27Z</time>
      </trkpt>
      <trkpt lat="48.06193" lon="7.04329">
        <ele>1058.76</ele>
        <time>2021-06-23T14:47:29Z</time>
      </trkpt>
      <trkpt lat="48.06163" lon="7.04323">
        <ele>1059.95</ele>
        <time>2021-06-23T14:47:31Z</time>
      </trkpt>
      <trkpt lat="48.06118" lon="7.0432">
        <ele>1058.91</ele>
        <time>2021-06-23T14:47:33Z</time>
      </trkpt>
      <trkpt lat="48.06101" lon="7.04315">
        <ele>1057.23</ele>
        <time>2021-06-23T14:47:34Z</time>
      </trkpt>
      <trkpt lat="48.06088" lon="7.04304">
        <ele>1057.67</ele>
        <time>2021-06-23T14:47:36Z</time>
      </trkpt>
      <trkpt lat="48.06082" lon="7.04296">
        <ele>1058.21</ele>
        <time>2021-06-23T14:47:38Z</time>
      </trkpt>
      <trkpt lat="48.06077" lon="7.04285">
        <ele>1059.19</ele>
        <time>2021-06-23T14:47:40Z</time>
      </trkpt>
      <trkpt lat="48.06045" lon="7.04172">
        <ele>1056</ele>
        <time>2021-06-23T14:47:42Z</time>
      </trkpt>
      <trkpt lat="48.06045" lon="7.04161">
        <ele>1054.92</ele>
        <time>2021-06-23T14:47:44Z</time>
      </trkpt>
      <trkpt lat="48.06047" lon="7.04148">
        <ele>1054.28</ele>
        <time>2021-06-23T14:47:45Z</time>
      </trkpt>
      <trkpt lat="48.06052" lon="7.04138">
        <ele>1055.05</ele>
        <time>2021-06-23T14:47:47Z</time>
      </trkpt>
      <trkpt lat="48.06086" lon="7.04115">
        <ele>1065.88</ele>
        <time>2021-06-23T14:47:49Z</time>
      </trkpt>
      <trkpt lat="48.06097" lon="7.04105">
        <ele>1067.17</ele>
        <time>2021-06-23T14:47:51Z</time>
      </trkpt>
      <trkpt lat="48.06108" lon="7.04087">
        <ele>1067.72</ele>
        <time>2021-06-23T14:47:53Z</time>
      </trkpt>
      <trkpt lat="48.0615" lon="7.04002">
        <ele>1073.15</ele>
        <time>2021-06-23T14:47:55Z</time>
      </trkpt>
      <trkpt lat="48.06167" lon="7.03973">
        <ele>1074.36</ele>
        <time>2021-06-23T14:47:57Z</time>
      </trkpt>
      <trkpt lat="48.06231" lon="7.03898">
        <ele>1083.09</ele>
        <time>2021-06-23T14:47:58Z</time>
      </trkpt>
      <trkpt lat="48.06283" lon="7.0382">
        <ele>1087.96</ele>
        <time>2021-06-23T14:48:00Z</time>
      </trkpt>
      <trkpt lat="48.06304" lon="7.03735">
        <ele>1082.4</ele>
        <time>2021-06-23T14:48:02Z</time>
      </trkpt>
      <trkpt lat="48.06307" lon="7.03713">
        <ele>1081.34</ele>
        <time>2021-06-23T14:48:04Z</time>
      </trkpt>
      <trkpt lat="48.06308" lon="7.03686">
        <ele>1078.65</ele>
        <time>2021-06-23T14:48:06Z</time>
      </trkpt>
      <trkpt lat="48.06314" lon="7.03665">
        <ele>1079.53</ele>
        <time>2021-06-23T14:48:08Z</time>
      </trkpt>
      <trkpt lat="48.06363" lon="7.03582">
        <ele>1094.68</ele>
        <time>2021-06-23T14:48:10Z</time>
      </trkpt>
      <trkpt lat="48.0637" lon="7.03566">
        <ele>1096.01</ele>
        <time>2021-06-23T14:48:11Z</time>
      </trkpt>
      <trkpt lat="48.06378" lon="7.03538">
        <ele>1098.32</ele>
        <time>2021-06-23T14:48:13Z</time>
      </trkpt>
      <trkpt lat="48.06379" lon="7.03512">
        <ele>1099.41</ele>
        <time>2021-06-23T14:48:15Z</time>
      </trkpt>
      <trkpt lat="48.06377" lon="7.03462">
        <ele>1102.54</ele>
        <time>2021-06-23T14:48:17Z</time>
      </trkpt>
      <trkpt lat="48.06373" lon="7.03447">
        <ele>1101.54</ele>
        <time>2021-06-23T14:48:19Z</time>
      </trkpt>
      <trkpt lat="48.06359" lon="7.03417">
        <ele>1096.27</ele>
        <time>2021-06-23T14:48:21Z</time>
      </trkpt>
      <trkpt lat="48.06354" lon="7.03404">
        <ele>1093.2</ele>
        <time>2021-06-23T14:48:22Z</time>
      </trkpt>
      <trkpt lat="48.06353" lon="7.03386">
        <ele>1093.42</ele>
        <time>2021-06-23T14:48:24Z</time>
      </trkpt>
      <trkpt lat="48.06364" lon="7.03264">
        <ele>1100.3</ele>
        <time>2021-06-23T14:48:26Z</time>
      </trkpt>
      <trkpt lat="48.06373" lon="7.03217">
        <ele>1105.44</ele>
        <time>2021-06-23T14:48:28Z</time>
      </trkpt>
      <trkpt lat="48.06389" lon="7.03162">
        <ele>1120.28</ele>
        <time>2021-06-23T14:48:30Z</time>
      </trkpt>
      <trkpt lat="48.06391" lon="7.03148">
        <ele>1124.86</ele>
        <time>2021-06-23T14:48:32Z</time>
      </trkpt>
      <trkpt lat="48.06389" lon="7.03124">
        <ele>1124.59</ele>
        <time>2021-06-23T14:48:34Z</time>
      </trkpt>
      <trkpt lat="48.06372" lon="7.03034">
        <ele>1102.67</ele>
        <time>2021-06-23T14:48:35Z</time>
      </trkpt>
      <trkpt lat="48.06373" lon="7.03017">
        <ele>1099.51</ele>
        <time>2021-06-23T14:48:37Z</time>
      </trkpt>
      <trkpt lat="48.0638" lon="7.02999">
        <ele>1099.18</ele>
        <time>2021-06-23T14:48:39Z</time>
      </trkpt>
      <trkpt lat="48.06392" lon="7.02973">
        <ele>1103.88</ele>
        <time>2021-06-23T14:48:41Z</time>
      </trkpt>
      <trkpt lat="48.06399" lon="7.02954">
        <ele>1110.98</ele>
        <time>2021-06-23T14:48:43Z</time>
      </trkpt>
      <trkpt lat="48.0642" lon="7.02843">
        <ele>1132.3</ele>
        <time>2021-06-23T14:48:45Z</time>
      </trkpt>
      <trkpt lat="48.06423" lon="7.02826">
        <ele>1133.41</ele>
        <time>2021-06-23T14:48:46Z</time>
      </trkpt>
      <trkpt lat="48.06423" lon="7.02807">
        <ele>1132.03</ele>
        <time>2021-06-23T14:48:48Z</time>
      </trkpt>
      <trkpt lat="48.06411" lon="7.02646">
        <ele>1138.16</ele>
        <time>2021-06-23T14:48:50Z</time>
      </trkpt>
      <trkpt lat="48.06409" lon="7.02632">
        <ele>1139.09</ele>
        <time>2021-06-23T14:48:52Z</time>
      </trkpt>
      <trkpt lat="48.06399" lon="7.02597">
        <ele>1137.56</ele>
        <time>2021-06-23T14:48:54Z</time>
      </trkpt>
      <trkpt lat="48.06392" lon="7.0254">
        <ele>1139.66</ele>
        <time>2021-06-23T14:48:56Z</time>
      </trkpt>
      <trkpt lat="48.0637" lon="7.02466">
        <ele>1139.92</ele>
        <time>2021-06-23T14:48:58Z</time>
      </trkpt>
      <trkpt lat="48.06367" lon="7.02448">
        <ele>1142.46</ele>
        <time>2021-06-23T14:48:59Z</time>
      </trkpt>
      <trkpt lat="48.06367" lon="7.02431">
        <ele>1144.51</ele>
        <time>2021-06-23T14:49:01Z</time>
      </trkpt>
      <trkpt lat="48.06371" lon="7.02413">
        <ele>1146.22</ele>
        <time>2021-06-23T14:49:03Z</time>
      </trkpt>
      <trkpt lat="48.06377" lon="7.02397">
        <ele>1146.56</ele>
        <time>2021-06-23T14:49:05Z</time>
      </trkpt>
      <trkpt lat="48.06408" lon="7.02343">
        <ele>1145.41</ele>
        <time>2021-06-23T14:49:07Z</time>
      </trkpt>
      <trkpt lat="48.06413" lon="7.02329">
        <ele>1144.97</ele>
        <time>2021-06-23T14:49:09Z</time>
      </trkpt>
      <trkpt lat="48.06419" lon="7.02296">
        <ele>1142.53</ele>
        <time>2021-06-23T14:49:11Z</time>
      </trkpt>
      <trkpt lat="48.06417" lon="7.02281">
        <ele>1141.31</ele>
        <time>2021-06-23T14:49:12Z</time>
      </trkpt>
      <trkpt lat="48.06415" lon="7.02269">
        <ele>1140.39</ele>
        <time>2021-06-23T14:49:14Z</time>
      </trkpt>
      <trkpt lat="48.0641" lon="7.02258">
        <ele>1139.74</ele>
        <time>2021-06-23T14:49:16Z</time>
      </trkpt>
      <trkpt lat="48.06371" lon="7.02215">
        <ele>1137.82</ele>
        <time>2021-06-23T14:49:18Z</time>
      </trkpt>
      <trkpt lat="48.06361" lon="7.02202">
        <ele>1138</ele>
        <time>2021-06-23T14:49:20Z</time>
      </trkpt>
      <trkpt lat="48.06318" lon="7.02134">
        <ele>1135.73</ele>
        <time>2021-06-23T14:49:22Z</time>
      </trkpt>
      <trkpt lat="48.06298" lon="7.02108">
        <ele>1135.4</ele>
        <time>2021-06-23T14:49:23Z</time>
      </trkpt>
      <trkpt lat="48.06289" lon="7.02098">
        <ele>1135.76</ele>
        <time>2021-06-23T14:49:25Z</time>
      </trkpt>
      <trkpt lat="48.06282" lon="7.02094">
        <ele>1136.1</ele>
        <time>2021-06-23T14:49:27Z</time>
      </trkpt>
      <trkpt lat="48.06252" lon="7.0209">
        <ele>1138.07</ele>
        <time>2021-06-23T14:49:29Z</time>
      </trkpt>
      <trkpt lat="48.06243" lon="7.0208">
        <ele>1139.33</ele>
        <time>2021-06-23T14:49:31Z</time>
      </trkpt>
      <trkpt lat="48.0624" lon="7.02071">
        <ele>1140.05</ele>
        <time>2021-06-23T14:49:33Z</time>
      </trkpt>
      <trkpt lat="48.06239" lon="7.02055">
        <ele>1140.49</ele>
        <time>2021-06-23T14:49:35Z</time>
      </trkpt>
      <trkpt lat="48.0624" lon="7.02048">
        <ele>1140.6</ele>
        <time>2021-06-23T14:49:36Z</time>
      </trkpt>
      <trkpt lat="48.06251" lon="7.02028">
        <ele>1138.88</ele>
        <time>2021-06-23T14:49:38Z</time>
      </trkpt>
      <trkpt lat="48.06265" lon="7.02009">
        <ele>1137.58</ele>
        <time>2021-06-23T14:49:40Z</time>
      </trkpt>
      <trkpt lat="48.06272" lon="7.01993">
        <ele>1137.51</ele>
        <time>2021-06-23T14:49:42Z</time>
      </trkpt>
      <trkpt lat="48.06278" lon="7.01975">
        <ele>1137.88</ele>
        <time>2021-06-23T14:49:44Z</time>
      </trkpt>
      <trkpt lat="48.06283" lon="7.01926">
        <ele>1138.39</ele>
        <time>2021-06-23T14:49:46Z</time>
      </trkpt>
      <trkpt lat="48.06286" lon="7.01852">
        <ele>1138.62</ele>
        <time>2021-06-23T14:49:48Z</time>
      </trkpt>
      <trkpt lat="48.06284" lon="7.01814">
        <ele>1137.14</ele>
        <time>2021-06-23T14:49:49Z</time>
      </trkpt>
      <trkpt lat="48.06281" lon="7.01781">
        <ele>1136.62</ele>
        <time>2021-06-23T14:49:51Z</time>
      </trkpt>
      <trkpt lat="48.06274" lon="7.01745">
        <ele>1138.7</ele>
        <time>2021-06-23T14:49:53Z</time>
      </trkpt>
      <trkpt lat="48.06243" lon="7.01613">
        <ele>1134.06</ele>
        <time>2021-06-23T14:49:55Z</time>
      </trkpt>
      <trkpt lat="48.06231" lon="7.01571">
        <ele>1133.83</ele>
        <time>2021-06-23T14:49:57Z</time>
      </trkpt>
      <trkpt lat="48.06194" lon="7.01482">
        <ele>1135.36</ele>
        <time>2021-06-23T14:49:59Z</time>
      </trkpt>
      <trkpt lat="48.06171" lon="7.01441">
        <ele>1133.98</ele>
        <time>2021-06-23T14:50:00Z</time>
      </trkpt>
      <trkpt lat="48.06153" lon="7.01417">
        <ele>1131.7</ele>
        <time>2021-06-23T14:50:02Z</time>
      </trkpt>
      <trkpt lat="48.06078" lon="7.01348">
        <ele>1133.16</ele>
        <time>2021-06-23T14:50:04Z</time>
      </trkpt>
      <trkpt lat="48.06011" lon="7.01274">
        <ele>1131.76</ele>
        <time>2021-06-23T14:50:06Z</time>
      </trkpt>
      <trkpt lat="48.05986" lon="7.01249">
        <ele>1129.84</ele>
        <time>2021-06-23T14:50:08Z</time>
      </trkpt>
      <trkpt lat="48.05933" lon="7.01204">
        <ele>1129</ele>
        <time>2021-06-23T14:50:10Z</time>
      </trkpt>
      <trkpt lat="48.05914" lon="7.01191">
        <ele>1128.44</ele>
        <time>2021-06-23T14:50:12Z</time>
      </trkpt>
      <trkpt lat="48.05819" lon="7.01141">
        <ele>1123.12</ele>
        <time>2021-06-23T14:50:13Z</time>
      </trkpt>
      <trkpt lat="48.05802" lon="7.01133">
        <ele>1123.15</ele>
        <time>2021-06-23T14:50:15Z</time>
      </trkpt>
      <trkpt lat="48.05787" lon="7.01129">
        <ele>1123.76</ele>
        <time>2021-06-23T14:50:17Z</time>
      </trkpt>
      <trkpt lat="48.05759" lon="7.01128">
        <ele>1126.31</ele>
        <time>2021-06-23T14:50:19Z</time>
      </trkpt>
      <trkpt lat="48.05747" lon="7.01125">
        <ele>1127.33</ele>
        <time>2021-06-23T14:50:21Z</time>
      </trkpt>
      <trkpt lat="48.05729" lon="7.01109">
        <ele>1131.04</ele>
        <time>2021-06-23T14:50:23Z</time>
      </trkpt>
      <trkpt lat="48.05718" lon="7.01089">
        <ele>1132.01</ele>
        <time>2021-06-23T14:50:24Z</time>
      </trkpt>
      <trkpt lat="48.05714" lon="7.01073">
        <ele>1131.68</ele>
        <time>2021-06-23T14:50:26Z</time>
      </trkpt>
      <trkpt lat="48.05712" lon="7.01054">
        <ele>1129.76</ele>
        <time>2021-06-23T14:50:28Z</time>
      </trkpt>
      <trkpt lat="48.05711" lon="7.01001">
        <ele>1123.5</ele>
        <time>2021-06-23T14:50:30Z</time>
      </trkpt>
      <trkpt lat="48.05702" lon="7.00941">
        <ele>1123.53</ele>
        <time>2021-06-23T14:50:32Z</time>
      </trkpt>
      <trkpt lat="48.05683" lon="7.00844">
        <ele>1118.73</ele>
        <time>2021-06-23T14:50:34Z</time>
      </trkpt>
      <trkpt lat="48.05675" lon="7.00816">
        <ele>1118.46</ele>
        <time>2021-06-23T14:50:36Z</time>
      </trkpt>
      <trkpt lat="48.05663" lon="7.00787">
        <ele>1118.08</ele>
        <time>2021-06-23T14:50:37Z</time>
      </trkpt>
      <trkpt lat="48.05656" lon="7.00774">
        <ele>1118.19</ele>
        <time>2021-06-23T14:50:39Z</time>
      </trkpt>
      <trkpt lat="48.05536" lon="7.00613">
        <ele>1122.61</ele>
        <time>2021-06-23T14:50:41Z</time>
      </trkpt>
      <trkpt lat="48.05491" lon="7.00548">
        <ele>1116.01</ele>
        <time>2021-06-23T14:50:43Z</time>
      </trkpt>
      <trkpt lat="48.05426" lon="7.00439">
        <ele>1109.46</ele>
        <time>2021-06-23T14:50:45Z</time>
      </trkpt>
      <trkpt lat="48.054" lon="7.0046">
        <ele>1107.78</ele>
        <time>2021-06-23T14:50:47Z</time>
      </trkpt>
      <trkpt lat="48.05359" lon="7.005">
        <ele>1106.92</ele>
        <time>2021-06-23T14:50:50Z</time>
      </trkpt>
      <trkpt lat="48.05347" lon="7.0051">
        <ele>1107.29</ele>
        <time>2021-06-23T14:50:53Z</time>
      </trkpt>
      <trkpt lat="48.05336" lon="7.00515">
        <ele>1107.23</ele>
        <time>2021-06-23T14:50:55Z</time>
      </trkpt>
      <trkpt lat="48.05325" lon="7.0051">
        <ele>1107.23</ele>
        <time>2021-06-23T14:50:58Z</time>
      </trkpt>
      <trkpt lat="48.05289" lon="7.00452">
        <ele>1101.38</ele>
        <time>2021-06-23T14:51:00Z</time>
      </trkpt>
      <trkpt lat="48.05248" lon="7.00408">
        <ele>1098.33</ele>
        <time>2021-06-23T14:51:03Z</time>
      </trkpt>
      <trkpt lat="48.05215" lon="7.00379">
        <ele>1093.05</ele>
        <time>2021-06-23T14:51:06Z</time>
      </trkpt>
      <trkpt lat="48.05114" lon="7.00312">
        <ele>1081.92</ele>
        <time>2021-06-23T14:51:08Z</time>
      </trkpt>
      <trkpt lat="48.05099" lon="7.00296">
        <ele>1080.98</ele>
        <time>2021-06-23T14:51:11Z</time>
      </trkpt>
      <trkpt lat="48.05085" lon="7.00272">
        <ele>1078.49</ele>
        <time>2021-06-23T14:51:13Z</time>
      </trkpt>
      <trkpt lat="48.05037" lon="7.0012">
        <ele>1064</ele>
        <time>2021-06-23T14:51:16Z</time>
      </trkpt>
      <trkpt lat="48.05024" lon="7.00093">
        <ele>1063.21</ele>
        <time>2021-06-23T14:51:19Z</time>
      </trkpt>
      <trkpt lat="48.05" lon="7.00068">
        <ele>1060.89</ele>
        <time>2021-06-23T14:51:21Z</time>
      </trkpt>
      <trkpt lat="48.04987" lon="7.00062">
        <ele>1058.81</ele>
        <time>2021-06-23T14:51:24Z</time>
      </trkpt>
      <trkpt lat="48.04974" lon="7.00063">
        <ele>1057.27</ele>
        <time>2021-06-23T14:51:26Z</time>
      </trkpt>
      <trkpt lat="48.04958" lon="7.00073">
        <ele>1055.22</ele>
        <time>2021-06-23T14:51:29Z</time>
      </trkpt>
      <trkpt lat="48.04923" lon="7.00104">
        <ele>1054.85</ele>
        <time>2021-06-23T14:51:31Z</time>
      </trkpt>
      <trkpt lat="48.04886" lon="7.00152">
        <ele>1056.12</ele>
        <time>2021-06-23T14:51:34Z</time>
      </trkpt>
      <trkpt lat="48.04854" lon="7.00185">
        <ele>1052.83</ele>
        <time>2021-06-23T14:51:37Z</time>
      </trkpt>
      <trkpt lat="48.04816" lon="7.00207">
        <ele>1049.34</ele>
        <time>2021-06-23T14:51:39Z</time>
      </trkpt>
      <trkpt lat="48.04786" lon="7.00251">
        <ele>1047.03</ele>
        <time>2021-06-23T14:51:42Z</time>
      </trkpt>
      <trkpt lat="48.0476" lon="7.00279">
        <ele>1047.31</ele>
        <time>2021-06-23T14:51:44Z</time>
      </trkpt>
      <trkpt lat="48.04728" lon="7.00285">
        <ele>1041.11</ele>
        <time>2021-06-23T14:51:47Z</time>
      </trkpt>
      <trkpt lat="48.04689" lon="7.00275">
        <ele>1036.12</ele>
        <time>2021-06-23T14:51:50Z</time>
      </trkpt>
      <trkpt lat="48.04641" lon="7.00245">
        <ele>1034.61</ele>
        <time>2021-06-23T14:51:52Z</time>
      </trkpt>
      <trkpt lat="48.04597" lon="7.00195">
        <ele>1030.77</ele>
        <time>2021-06-23T14:51:55Z</time>
      </trkpt>
      <trkpt lat="48.04566" lon="7.00119">
        <ele>1023.74</ele>
        <time>2021-06-23T14:51:57Z</time>
      </trkpt>
      <trkpt lat="48.04552" lon="7.00066">
        <ele>1017.26</ele>
        <time>2021-06-23T14:52:00Z</time>
      </trkpt>
      <trkpt lat="48.04538" lon="7">
        <ele>1017.09</ele>
        <time>2021-06-23T14:52:03Z</time>
      </trkpt>
      <trkpt lat="48.04536" lon="6.99948">
        <ele>1014.24</ele>
        <time>2021-06-23T14:52:05Z</time>
      </trkpt>
      <trkpt lat="48.04536" lon="6.99948">
        <ele>1014.24</ele>
        <time>2021-06-23T14:52:05Z</time>
      </trkpt>
      <trkpt lat="48.04535" lon="6.99916">
        <ele>1011.39</ele>
        <time>2021-06-23T14:52:08Z</time>
      </trkpt>
      <trkpt lat="48.04551" lon="6.99847">
        <ele>1009.19</ele>
        <time>2021-06-23T14:52:10Z</time>
      </trkpt>
      <trkpt lat="48.04597" lon="6.99754">
        <ele>997.57</ele>
        <time>2021-06-23T14:52:12Z</time>
      </trkpt>
      <trkpt lat="48.04616" lon="6.99703">
        <ele>996.72</ele>
        <time>2021-06-23T14:52:15Z</time>
      </trkpt>
      <trkpt lat="48.0466" lon="6.99645">
        <ele>989.73</ele>
        <time>2021-06-23T14:52:17Z</time>
      </trkpt>
      <trkpt lat="48.04762" lon="6.99463">
        <ele>973.91</ele>
        <time>2021-06-23T14:52:19Z</time>
      </trkpt>
      <trkpt lat="48.04775" lon="6.99451">
        <ele>972.78</ele>
        <time>2021-06-23T14:52:22Z</time>
      </trkpt>
      <trkpt lat="48.04814" lon="6.99427">
        <ele>966.85</ele>
        <time>2021-06-23T14:52:24Z</time>
      </trkpt>
      <trkpt lat="48.04827" lon="6.9941">
        <ele>964.8</ele>
        <time>2021-06-23T14:52:27Z</time>
      </trkpt>
      <trkpt lat="48.04832" lon="6.99373">
        <ele>962.68</ele>
        <time>2021-06-23T14:52:29Z</time>
      </trkpt>
      <trkpt lat="48.04826" lon="6.99289">
        <ele>957.37</ele>
        <time>2021-06-23T14:52:31Z</time>
      </trkpt>
      <trkpt lat="48.04826" lon="6.99274">
        <ele>956.2</ele>
        <time>2021-06-23T14:52:34Z</time>
      </trkpt>
      <trkpt lat="48.04849" lon="6.99215">
        <ele>950.88</ele>
        <time>2021-06-23T14:52:36Z</time>
      </trkpt>
      <trkpt lat="48.04856" lon="6.99177">
        <ele>950.66</ele>
        <time>2021-06-23T14:52:39Z</time>
      </trkpt>
      <trkpt lat="48.04858" lon="6.99132">
        <ele>950</ele>
        <time>2021-06-23T14:52:41Z</time>
      </trkpt>
      <trkpt lat="48.04853" lon="6.99081">
        <ele>948.66</ele>
        <time>2021-06-23T14:52:43Z</time>
      </trkpt>
      <trkpt lat="48.04853" lon="6.99068">
        <ele>948.11</ele>
        <time>2021-06-23T14:52:46Z</time>
      </trkpt>
      <trkpt lat="48.04856" lon="6.99055">
        <ele>947.16</ele>
        <time>2021-06-23T14:52:48Z</time>
      </trkpt>
      <trkpt lat="48.04888" lon="6.98997">
        <ele>942.11</ele>
        <time>2021-06-23T14:52:50Z</time>
      </trkpt>
      <trkpt lat="48.04892" lon="6.98984">
        <ele>940.38</ele>
        <time>2021-06-23T14:52:53Z</time>
      </trkpt>
      <trkpt lat="48.04893" lon="6.9897">
        <ele>939.3</ele>
        <time>2021-06-23T14:52:55Z</time>
      </trkpt>
      <trkpt lat="48.0489" lon="6.98919">
        <ele>937.58</ele>
        <time>2021-06-23T14:52:58Z</time>
      </trkpt>
      <trkpt lat="48.04885" lon="6.98902">
        <ele>939.36</ele>
        <time>2021-06-23T14:53:00Z</time>
      </trkpt>
      <trkpt lat="48.04885" lon="6.98883">
        <ele>940.02</ele>
        <time>2021-06-23T14:53:02Z</time>
      </trkpt>
      <trkpt lat="48.04888" lon="6.98864">
        <ele>940.16</ele>
        <time>2021-06-23T14:53:05Z</time>
      </trkpt>
      <trkpt lat="48.04903" lon="6.98833">
        <ele>939.98</ele>
        <time>2021-06-23T14:53:07Z</time>
      </trkpt>
      <trkpt lat="48.0498" lon="6.98743">
        <ele>921.17</ele>
        <time>2021-06-23T14:53:10Z</time>
      </trkpt>
      <trkpt lat="48.04991" lon="6.98716">
        <ele>921.07</ele>
        <time>2021-06-23T14:53:12Z</time>
      </trkpt>
      <trkpt lat="48.04995" lon="6.98719">
        <ele>917.57</ele>
        <time>2021-06-23T14:53:14Z</time>
      </trkpt>
      <trkpt lat="48.05002" lon="6.98719">
        <ele>913.92</ele>
        <time>2021-06-23T14:53:17Z</time>
      </trkpt>
      <trkpt lat="48.05006" lon="6.98716">
        <ele>912.84</ele>
        <time>2021-06-23T14:53:20Z</time>
      </trkpt>
      <trkpt lat="48.05011" lon="6.9871">
        <ele>912.28</ele>
        <time>2021-06-23T14:53:22Z</time>
      </trkpt>
      <trkpt lat="48.05014" lon="6.98699">
        <ele>912.52</ele>
        <time>2021-06-23T14:53:25Z</time>
      </trkpt>
      <trkpt lat="48.05014" lon="6.98688">
        <ele>913.43</ele>
        <time>2021-06-23T14:53:27Z</time>
      </trkpt>
      <trkpt lat="48.05012" lon="6.98665">
        <ele>916.62</ele>
        <time>2021-06-23T14:53:30Z</time>
      </trkpt>
      <trkpt lat="48.05012" lon="6.98646">
        <ele>918.17</ele>
        <time>2021-06-23T14:53:32Z</time>
      </trkpt>
      <trkpt lat="48.05017" lon="6.98617">
        <ele>917.06</ele>
        <time>2021-06-23T14:53:35Z</time>
      </trkpt>
      <trkpt lat="48.05022" lon="6.98562">
        <ele>914.55</ele>
        <time>2021-06-23T14:53:37Z</time>
      </trkpt>
      <trkpt lat="48.05026" lon="6.9854">
        <ele>911.91</ele>
        <time>2021-06-23T14:53:40Z</time>
      </trkpt>
      <trkpt lat="48.05037" lon="6.98514">
        <ele>906.83</ele>
        <time>2021-06-23T14:53:42Z</time>
      </trkpt>
      <trkpt lat="48.05041" lon="6.98497">
        <ele>905.96</ele>
        <time>2021-06-23T14:53:45Z</time>
      </trkpt>
      <trkpt lat="48.05042" lon="6.98484">
        <ele>906.93</ele>
        <time>2021-06-23T14:53:47Z</time>
      </trkpt>
      <trkpt lat="48.0504" lon="6.98444">
        <ele>913.54</ele>
        <time>2021-06-23T14:53:50Z</time>
      </trkpt>
      <trkpt lat="48.05042" lon="6.98427">
        <ele>912.66</ele>
        <time>2021-06-23T14:53:53Z</time>
      </trkpt>
      <trkpt lat="48.05047" lon="6.98405">
        <ele>910.06</ele>
        <time>2021-06-23T14:53:55Z</time>
      </trkpt>
      <trkpt lat="48.05054" lon="6.98383">
        <ele>905.08</ele>
        <time>2021-06-23T14:53:58Z</time>
      </trkpt>
      <trkpt lat="48.05074" lon="6.98343">
        <ele>893.27</ele>
        <time>2021-06-23T14:54:00Z</time>
      </trkpt>
      <trkpt lat="48.05083" lon="6.98314">
        <ele>888.11</ele>
        <time>2021-06-23T14:54:03Z</time>
      </trkpt>
      <trkpt lat="48.05086" lon="6.98287">
        <ele>888.59</ele>
        <time>2021-06-23T14:54:05Z</time>
      </trkpt>
      <trkpt lat="48.05086" lon="6.9821">
        <ele>891.83</ele>
        <time>2021-06-23T14:54:08Z</time>
      </trkpt>
      <trkpt lat="48.05091" lon="6.98169">
        <ele>890.76</ele>
        <time>2021-06-23T14:54:10Z</time>
      </trkpt>
      <trkpt lat="48.05129" lon="6.98018">
        <ele>874.18</ele>
        <time>2021-06-23T14:54:13Z</time>
      </trkpt>
      <trkpt lat="48.0517" lon="6.97908">
        <ele>869.71</ele>
        <time>2021-06-23T14:54:15Z</time>
      </trkpt>
      <trkpt lat="48.05175" lon="6.97898">
        <ele>872.59</ele>
        <time>2021-06-23T14:54:18Z</time>
      </trkpt>
      <trkpt lat="48.05181" lon="6.97893">
        <ele>873.72</ele>
        <time>2021-06-23T14:54:20Z</time>
      </trkpt>
      <trkpt lat="48.05194" lon="6.97892">
        <ele>872.16</ele>
        <time>2021-06-23T14:54:23Z</time>
      </trkpt>
      <trkpt lat="48.05198" lon="6.97897">
        <ele>870.59</ele>
        <time>2021-06-23T14:54:26Z</time>
      </trkpt>
      <trkpt lat="48.052" lon="6.97902">
        <ele>869.22</ele>
        <time>2021-06-23T14:54:28Z</time>
      </trkpt>
      <trkpt lat="48.05202" lon="6.97913">
        <ele>866.18</ele>
        <time>2021-06-23T14:54:31Z</time>
      </trkpt>
      <trkpt lat="48.05202" lon="6.97924">
        <ele>863.93</ele>
        <time>2021-06-23T14:54:33Z</time>
      </trkpt>
      <trkpt lat="48.05186" lon="6.97974">
        <ele>860.31</ele>
        <time>2021-06-23T14:54:36Z</time>
      </trkpt>
      <trkpt lat="48.0518" lon="6.98011">
        <ele>857.24</ele>
        <time>2021-06-23T14:54:38Z</time>
      </trkpt>
      <trkpt lat="48.05181" lon="6.98032">
        <ele>855.5</ele>
        <time>2021-06-23T14:54:41Z</time>
      </trkpt>
      <trkpt lat="48.05193" lon="6.98112">
        <ele>855.25</ele>
        <time>2021-06-23T14:54:43Z</time>
      </trkpt>
      <trkpt lat="48.05192" lon="6.98141">
        <ele>855.26</ele>
        <time>2021-06-23T14:54:46Z</time>
      </trkpt>
      <trkpt lat="48.05182" lon="6.98229">
        <ele>853.65</ele>
        <time>2021-06-23T14:54:48Z</time>
      </trkpt>
      <trkpt lat="48.05179" lon="6.98335">
        <ele>852.08</ele>
        <time>2021-06-23T14:54:51Z</time>
      </trkpt>
      <trkpt lat="48.05176" lon="6.98362">
        <ele>850.34</ele>
        <time>2021-06-23T14:54:53Z</time>
      </trkpt>
      <trkpt lat="48.05172" lon="6.9838">
        <ele>850.77</ele>
        <time>2021-06-23T14:54:56Z</time>
      </trkpt>
      <trkpt lat="48.05163" lon="6.9841">
        <ele>851.06</ele>
        <time>2021-06-23T14:54:59Z</time>
      </trkpt>
      <trkpt lat="48.0516" lon="6.98428">
        <ele>851.42</ele>
        <time>2021-06-23T14:55:01Z</time>
      </trkpt>
      <trkpt lat="48.05159" lon="6.98508">
        <ele>850.84</ele>
        <time>2021-06-23T14:55:04Z</time>
      </trkpt>
      <trkpt lat="48.05165" lon="6.98587">
        <ele>839.06</ele>
        <time>2021-06-23T14:55:06Z</time>
      </trkpt>
      <trkpt lat="48.05173" lon="6.98642">
        <ele>837.28</ele>
        <time>2021-06-23T14:55:09Z</time>
      </trkpt>
      <trkpt lat="48.05186" lon="6.98697">
        <ele>831.27</ele>
        <time>2021-06-23T14:55:11Z</time>
      </trkpt>
      <trkpt lat="48.05189" lon="6.98717">
        <ele>830.29</ele>
        <time>2021-06-23T14:55:14Z</time>
      </trkpt>
      <trkpt lat="48.05189" lon="6.98768">
        <ele>830.34</ele>
        <time>2021-06-23T14:55:16Z</time>
      </trkpt>
      <trkpt lat="48.05191" lon="6.98793">
        <ele>828.85</ele>
        <time>2021-06-23T14:55:19Z</time>
      </trkpt>
      <trkpt lat="48.05197" lon="6.98815">
        <ele>826.46</ele>
        <time>2021-06-23T14:55:21Z</time>
      </trkpt>
      <trkpt lat="48.05205" lon="6.98835">
        <ele>824.39</ele>
        <time>2021-06-23T14:55:24Z</time>
      </trkpt>
      <trkpt lat="48.05246" lon="6.98884">
        <ele>822.05</ele>
        <time>2021-06-23T14:55:26Z</time>
      </trkpt>
      <trkpt lat="48.05256" lon="6.98893">
        <ele>821.9</ele>
        <time>2021-06-23T14:55:29Z</time>
      </trkpt>
      <trkpt lat="48.05269" lon="6.98899">
        <ele>821.6</ele>
        <time>2021-06-23T14:55:32Z</time>
      </trkpt>
      <trkpt lat="48.0535" lon="6.98899">
        <ele>815.42</ele>
        <time>2021-06-23T14:55:34Z</time>
      </trkpt>
      <trkpt lat="48.05378" lon="6.98894">
        <ele>813.17</ele>
        <time>2021-06-23T14:55:37Z</time>
      </trkpt>
      <trkpt lat="48.05392" lon="6.98887">
        <ele>811.84</ele>
        <time>2021-06-23T14:55:39Z</time>
      </trkpt>
      <trkpt lat="48.05408" lon="6.98877">
        <ele>810.99</ele>
        <time>2021-06-23T14:55:42Z</time>
      </trkpt>
      <trkpt lat="48.05425" lon="6.98861">
        <ele>810.15</ele>
        <time>2021-06-23T14:55:44Z</time>
      </trkpt>
      <trkpt lat="48.05474" lon="6.98796">
        <ele>800.24</ele>
        <time>2021-06-23T14:55:47Z</time>
      </trkpt>
      <trkpt lat="48.05493" lon="6.98776">
        <ele>795.49</ele>
        <time>2021-06-23T14:55:49Z</time>
      </trkpt>
      <trkpt lat="48.05505" lon="6.98766">
        <ele>794.76</ele>
        <time>2021-06-23T14:55:52Z</time>
      </trkpt>
      <trkpt lat="48.05518" lon="6.98761">
        <ele>795.07</ele>
        <time>2021-06-23T14:55:54Z</time>
      </trkpt>
      <trkpt lat="48.05538" lon="6.98758">
        <ele>795.9</ele>
        <time>2021-06-23T14:55:57Z</time>
      </trkpt>
      <trkpt lat="48.05582" lon="6.98757">
        <ele>797.57</ele>
        <time>2021-06-23T14:55:59Z</time>
      </trkpt>
      <trkpt lat="48.05606" lon="6.98747">
        <ele>797.73</ele>
        <time>2021-06-23T14:56:02Z</time>
      </trkpt>
      <trkpt lat="48.05649" lon="6.98704">
        <ele>791.68</ele>
        <time>2021-06-23T14:56:05Z</time>
      </trkpt>
      <trkpt lat="48.05695" lon="6.98663">
        <ele>784.46</ele>
        <time>2021-06-23T14:56:07Z</time>
      </trkpt>
      <trkpt lat="48.05731" lon="6.98624">
        <ele>783.68</ele>
        <time>2021-06-23T14:56:10Z</time>
      </trkpt>
      <trkpt lat="48.05775" lon="6.9858">
        <ele>782.42</ele>
        <time>2021-06-23T14:56:12Z</time>
      </trkpt>
      <trkpt lat="48.05825" lon="6.98536">
        <ele>786.16</ele>
        <time>2021-06-23T14:56:15Z</time>
      </trkpt>
      <trkpt lat="48.05846" lon="6.98514">
        <ele>787.01</ele>
        <time>2021-06-23T14:56:17Z</time>
      </trkpt>
      <trkpt lat="48.05864" lon="6.98493">
        <ele>789.93</ele>
        <time>2021-06-23T14:56:20Z</time>
      </trkpt>
      <trkpt lat="48.05898" lon="6.98446">
        <ele>795.08</ele>
        <time>2021-06-23T14:56:22Z</time>
      </trkpt>
      <trkpt lat="48.05905" lon="6.98428">
        <ele>794.7</ele>
        <time>2021-06-23T14:56:25Z</time>
      </trkpt>
      <trkpt lat="48.05909" lon="6.98411">
        <ele>794.01</ele>
        <time>2021-06-23T14:56:27Z</time>
      </trkpt>
      <trkpt lat="48.05913" lon="6.9839">
        <ele>793.22</ele>
        <time>2021-06-23T14:56:30Z</time>
      </trkpt>
      <trkpt lat="48.05915" lon="6.98366">
        <ele>793.53</ele>
        <time>2021-06-23T14:56:32Z</time>
      </trkpt>
      <trkpt lat="48.05914" lon="6.98352">
        <ele>793.74</ele>
        <time>2021-06-23T14:56:35Z</time>
      </trkpt>
      <trkpt lat="48.05912" lon="6.9834">
        <ele>793.86</ele>
        <time>2021-06-23T14:56:38Z</time>
      </trkpt>
      <trkpt lat="48.05907" lon="6.98327">
        <ele>793.34</ele>
        <time>2021-06-23T14:56:40Z</time>
      </trkpt>
      <trkpt lat="48.0588" lon="6.9829">
        <ele>791</ele>
        <time>2021-06-23T14:56:43Z</time>
      </trkpt>
      <trkpt lat="48.05878" lon="6.98282">
        <ele>790.68</ele>
        <time>2021-06-23T14:56:45Z</time>
      </trkpt>
      <trkpt lat="48.05877" lon="6.98272">
        <ele>790.26</ele>
        <time>2021-06-23T14:56:48Z</time>
      </trkpt>
      <trkpt lat="48.05882" lon="6.98255">
        <ele>789.33</ele>
        <time>2021-06-23T14:56:50Z</time>
      </trkpt>
      <trkpt lat="48.05892" lon="6.98242">
        <ele>788.96</ele>
        <time>2021-06-23T14:56:53Z</time>
      </trkpt>
      <trkpt lat="48.05928" lon="6.98219">
        <ele>794.65</ele>
        <time>2021-06-23T14:56:55Z</time>
      </trkpt>
      <trkpt lat="48.05944" lon="6.98202">
        <ele>794.37</ele>
        <time>2021-06-23T14:56:58Z</time>
      </trkpt>
      <trkpt lat="48.05968" lon="6.98161">
        <ele>789.64</ele>
        <time>2021-06-23T14:57:00Z</time>
      </trkpt>
      <trkpt lat="48.0598" lon="6.98132">
        <ele>786.02</ele>
        <time>2021-06-23T14:57:03Z</time>
      </trkpt>
      <trkpt lat="48.05991" lon="6.9811">
        <ele>783.19</ele>
        <time>2021-06-23T14:57:05Z</time>
      </trkpt>
      <trkpt lat="48.06034" lon="6.98073">
        <ele>784.13</ele>
        <time>2021-06-23T14:57:08Z</time>
      </trkpt>
      <trkpt lat="48.06043" lon="6.98061">
        <ele>784.41</ele>
        <time>2021-06-23T14:57:11Z</time>
      </trkpt>
      <trkpt lat="48.06052" lon="6.98045">
        <ele>783.54</ele>
        <time>2021-06-23T14:57:13Z</time>
      </trkpt>
      <trkpt lat="48.0606" lon="6.9801">
        <ele>779.84</ele>
        <time>2021-06-23T14:57:16Z</time>
      </trkpt>
      <trkpt lat="48.06078" lon="6.97913">
        <ele>771.74</ele>
        <time>2021-06-23T14:57:18Z</time>
      </trkpt>
      <trkpt lat="48.061" lon="6.97844">
        <ele>771.07</ele>
        <time>2021-06-23T14:57:21Z</time>
      </trkpt>
      <trkpt lat="48.06106" lon="6.97813">
        <ele>770.85</ele>
        <time>2021-06-23T14:57:23Z</time>
      </trkpt>
      <trkpt lat="48.0611" lon="6.97782">
        <ele>769.07</ele>
        <time>2021-06-23T14:57:26Z</time>
      </trkpt>
      <trkpt lat="48.06113" lon="6.97732">
        <ele>768.81</ele>
        <time>2021-06-23T14:57:28Z</time>
      </trkpt>
      <trkpt lat="48.06113" lon="6.97682">
        <ele>770.9</ele>
        <time>2021-06-23T14:57:31Z</time>
      </trkpt>
      <trkpt lat="48.06116" lon="6.97647">
        <ele>772.04</ele>
        <time>2021-06-23T14:57:33Z</time>
      </trkpt>
      <trkpt lat="48.06122" lon="6.97614">
        <ele>772.58</ele>
        <time>2021-06-23T14:57:36Z</time>
      </trkpt>
      <trkpt lat="48.06145" lon="6.9754">
        <ele>772.36</ele>
        <time>2021-06-23T14:57:38Z</time>
      </trkpt>
      <trkpt lat="48.06151" lon="6.97517">
        <ele>773.89</ele>
        <time>2021-06-23T14:57:41Z</time>
      </trkpt>
      <trkpt lat="48.06154" lon="6.97493">
        <ele>775.03</ele>
        <time>2021-06-23T14:57:44Z</time>
      </trkpt>
      <trkpt lat="48.06155" lon="6.97428">
        <ele>774.84</ele>
        <time>2021-06-23T14:57:46Z</time>
      </trkpt>
      <trkpt lat="48.06152" lon="6.97363">
        <ele>775.43</ele>
        <time>2021-06-23T14:57:49Z</time>
      </trkpt>
      <trkpt lat="48.06159" lon="6.97283">
        <ele>768.1</ele>
        <time>2021-06-23T14:57:51Z</time>
      </trkpt>
      <trkpt lat="48.06166" lon="6.97185">
        <ele>764.75</ele>
        <time>2021-06-23T14:57:54Z</time>
      </trkpt>
      <trkpt lat="48.06171" lon="6.97144">
        <ele>764.89</ele>
        <time>2021-06-23T14:57:56Z</time>
      </trkpt>
      <trkpt lat="48.06178" lon="6.97116">
        <ele>763.91</ele>
        <time>2021-06-23T14:57:59Z</time>
      </trkpt>
      <trkpt lat="48.062" lon="6.97049">
        <ele>762.13</ele>
        <time>2021-06-23T14:58:01Z</time>
      </trkpt>
      <trkpt lat="48.06243" lon="6.96937">
        <ele>757.12</ele>
        <time>2021-06-23T14:58:04Z</time>
      </trkpt>
      <trkpt lat="48.06272" lon="6.96855">
        <ele>756.97</ele>
        <time>2021-06-23T14:58:06Z</time>
      </trkpt>
      <trkpt lat="48.0628" lon="6.96825">
        <ele>756.78</ele>
        <time>2021-06-23T14:58:09Z</time>
      </trkpt>
      <trkpt lat="48.06284" lon="6.96799">
        <ele>756.12</ele>
        <time>2021-06-23T14:58:11Z</time>
      </trkpt>
      <trkpt lat="48.06295" lon="6.96707">
        <ele>757.6</ele>
        <time>2021-06-23T14:58:14Z</time>
      </trkpt>
      <trkpt lat="48.06295" lon="6.96681">
        <ele>756.09</ele>
        <time>2021-06-23T14:58:17Z</time>
      </trkpt>
      <trkpt lat="48.06292" lon="6.96639">
        <ele>753.55</ele>
        <time>2021-06-23T14:58:19Z</time>
      </trkpt>
      <trkpt lat="48.06292" lon="6.96578">
        <ele>753.3</ele>
        <time>2021-06-23T14:58:22Z</time>
      </trkpt>
      <trkpt lat="48.06295" lon="6.96548">
        <ele>752.42</ele>
        <time>2021-06-23T14:58:24Z</time>
      </trkpt>
      <trkpt lat="48.06306" lon="6.9649">
        <ele>752.67</ele>
        <time>2021-06-23T14:58:27Z</time>
      </trkpt>
      <trkpt lat="48.06315" lon="6.96456">
        <ele>752.21</ele>
        <time>2021-06-23T14:58:29Z</time>
      </trkpt>
      <trkpt lat="48.0634" lon="6.96388">
        <ele>749.63</ele>
        <time>2021-06-23T14:58:32Z</time>
      </trkpt>
      <trkpt lat="48.06367" lon="6.96339">
        <ele>747.04</ele>
        <time>2021-06-23T14:58:34Z</time>
      </trkpt>
      <trkpt lat="48.06417" lon="6.96252">
        <ele>745.23</ele>
        <time>2021-06-23T14:58:37Z</time>
      </trkpt>
      <trkpt lat="48.06461" lon="6.96183">
        <ele>744.48</ele>
        <time>2021-06-23T14:58:39Z</time>
      </trkpt>
      <trkpt lat="48.06526" lon="6.96102">
        <ele>747.38</ele>
        <time>2021-06-23T14:58:42Z</time>
      </trkpt>
      <trkpt lat="48.06551" lon="6.96063">
        <ele>749.28</ele>
        <time>2021-06-23T14:58:44Z</time>
      </trkpt>
      <trkpt lat="48.06577" lon="6.9603">
        <ele>752.65</ele>
        <time>2021-06-23T14:58:47Z</time>
      </trkpt>
      <trkpt lat="48.06602" lon="6.96001">
        <ele>751.13</ele>
        <time>2021-06-23T14:58:50Z</time>
      </trkpt>
      <trkpt lat="48.06656" lon="6.95956">
        <ele>749.92</ele>
        <time>2021-06-23T14:58:52Z</time>
      </trkpt>
      <trkpt lat="48.06668" lon="6.95942">
        <ele>748.97</ele>
        <time>2021-06-23T14:58:55Z</time>
      </trkpt>
      <trkpt lat="48.06743" lon="6.95817">
        <ele>750.13</ele>
        <time>2021-06-23T14:58:57Z</time>
      </trkpt>
      <trkpt lat="48.06786" lon="6.95756">
        <ele>749.17</ele>
        <time>2021-06-23T14:59:00Z</time>
      </trkpt>
      <trkpt lat="48.06839" lon="6.95696">
        <ele>748.33</ele>
        <time>2021-06-23T14:59:02Z</time>
      </trkpt>
      <trkpt lat="48.06858" lon="6.95665">
        <ele>747.5</ele>
        <time>2021-06-23T14:59:05Z</time>
      </trkpt>
      <trkpt lat="48.06876" lon="6.95642">
        <ele>750.86</ele>
        <time>2021-06-23T14:59:07Z</time>
      </trkpt>
      <trkpt lat="48.06928" lon="6.956">
        <ele>752.45</ele>
        <time>2021-06-23T14:59:10Z</time>
      </trkpt>
      <trkpt lat="48.06989" lon="6.95537">
        <ele>754.38</ele>
        <time>2021-06-23T14:59:12Z</time>
      </trkpt>
      <trkpt lat="48.0707" lon="6.95435">
        <ele>756.71</ele>
        <time>2021-06-23T14:59:15Z</time>
      </trkpt>
      <trkpt lat="48.07237" lon="6.95275">
        <ele>755.99</ele>
        <time>2021-06-23T14:59:17Z</time>
      </trkpt>
      <trkpt lat="48.07274" lon="6.95228">
        <ele>752.99</ele>
        <time>2021-06-23T14:59:20Z</time>
      </trkpt>
      <trkpt lat="48.07289" lon="6.95217">
        <ele>753.76</ele>
        <time>2021-06-23T14:59:22Z</time>
      </trkpt>
      <trkpt lat="48.07408" lon="6.95138">
        <ele>748.93</ele>
        <time>2021-06-23T14:59:25Z</time>
      </trkpt>
      <trkpt lat="48.0744" lon="6.95124">
        <ele>754.49</ele>
        <time>2021-06-23T14:59:28Z</time>
      </trkpt>
      <trkpt lat="48.07483" lon="6.9509">
        <ele>751.54</ele>
        <time>2021-06-23T14:59:30Z</time>
      </trkpt>
      <trkpt lat="48.07514" lon="6.9508">
        <ele>750</ele>
        <time>2021-06-23T14:59:33Z</time>
      </trkpt>
      <trkpt lat="48.07554" lon="6.95085">
        <ele>750.75</ele>
        <time>2021-06-23T14:59:35Z</time>
      </trkpt>
      <trkpt lat="48.07587" lon="6.95078">
        <ele>749.13</ele>
        <time>2021-06-23T14:59:38Z</time>
      </trkpt>
      <trkpt lat="48.07635" lon="6.95055">
        <ele>749.78</ele>
        <time>2021-06-23T14:59:40Z</time>
      </trkpt>
      <trkpt lat="48.07678" lon="6.95042">
        <ele>757.22</ele>
        <time>2021-06-23T14:59:43Z</time>
      </trkpt>
      <trkpt lat="48.07723" lon="6.95022">
        <ele>756</ele>
        <time>2021-06-23T14:59:45Z</time>
      </trkpt>
      <trkpt lat="48.07771" lon="6.95005">
        <ele>757.71</ele>
        <time>2021-06-23T14:59:48Z</time>
      </trkpt>
      <trkpt lat="48.07811" lon="6.94984">
        <ele>754.74</ele>
        <time>2021-06-23T14:59:50Z</time>
      </trkpt>
      <trkpt lat="48.07833" lon="6.9497">
        <ele>753.61</ele>
        <time>2021-06-23T14:59:53Z</time>
      </trkpt>
      <trkpt lat="48.07862" lon="6.94943">
        <ele>750.78</ele>
        <time>2021-06-23T14:59:55Z</time>
      </trkpt>
      <trkpt lat="48.07927" lon="6.94896">
        <ele>752.06</ele>
        <time>2021-06-23T14:59:58Z</time>
      </trkpt>
      <trkpt lat="48.08012" lon="6.9481">
        <ele>750.21</ele>
        <time>2021-06-23T15:00:01Z</time>
      </trkpt>
      <trkpt lat="48.08029" lon="6.94795">
        <ele>749.87</ele>
        <time>2021-06-23T15:00:03Z</time>
      </trkpt>
      <trkpt lat="48.08048" lon="6.94785">
        <ele>749.86</ele>
        <time>2021-06-23T15:00:06Z</time>
      </trkpt>
      <trkpt lat="48.08222" lon="6.94716">
        <ele>744.79</ele>
        <time>2021-06-23T15:00:08Z</time>
      </trkpt>
      <trkpt lat="48.08234" lon="6.94716">
        <ele>744.77</ele>
        <time>2021-06-23T15:00:11Z</time>
      </trkpt>
      <trkpt lat="48.08246" lon="6.94726">
        <ele>745.39</ele>
        <time>2021-06-23T15:00:13Z</time>
      </trkpt>
      <trkpt lat="48.08255" lon="6.94747">
        <ele>747.8</ele>
        <time>2021-06-23T15:00:16Z</time>
      </trkpt>
      <trkpt lat="48.08257" lon="6.94755">
        <ele>748.99</ele>
        <time>2021-06-23T15:00:18Z</time>
      </trkpt>
      <trkpt lat="48.08268" lon="6.94746">
        <ele>748.13</ele>
        <time>2021-06-23T15:00:20Z</time>
      </trkpt>
      <trkpt lat="48.08292" lon="6.94719">
        <ele>745.82</ele>
        <time>2021-06-23T15:00:22Z</time>
      </trkpt>
      <trkpt lat="48.08306" lon="6.94697">
        <ele>745.2</ele>
        <time>2021-06-23T15:00:24Z</time>
      </trkpt>
      <trkpt lat="48.08317" lon="6.94662">
        <ele>745.37</ele>
        <time>2021-06-23T15:00:25Z</time>
      </trkpt>
      <trkpt lat="48.08321" lon="6.94642">
        <ele>746.08</ele>
        <time>2021-06-23T15:00:27Z</time>
      </trkpt>
      <trkpt lat="48.08323" lon="6.94645">
        <ele>747</ele>
        <time>2021-06-23T15:00:28Z</time>
      </trkpt>
      <trkpt lat="48.08323" lon="6.94645">
        <ele>747</ele>
        <time>2021-06-23T15:00:28Z</time>
      </trkpt>
      <trkpt lat="48.08321" lon="6.94642">
        <ele>746.08</ele>
        <time>2021-06-23T15:00:28Z</time>
      </trkpt>
      <trkpt lat="48.08323" lon="6.94598">
        <ele>746.53</ele>
        <time>2021-06-23T15:00:41Z</time>
      </trkpt>
      <trkpt lat="48.0831" lon="6.94487">
        <ele>748.52</ele>
        <time>2021-06-23T15:00:53Z</time>
      </trkpt>
      <trkpt lat="48.08312" lon="6.94414">
        <ele>747.72</ele>
        <time>2021-06-23T15:01:06Z</time>
      </trkpt>
      <trkpt lat="48.0835" lon="6.9373">
        <ele>733.76</ele>
        <time>2021-06-23T15:01:18Z</time>
      </trkpt>
      <trkpt lat="48.08381" lon="6.93299">
        <ele>726.28</ele>
        <time>2021-06-23T15:01:30Z</time>
      </trkpt>
      <trkpt lat="48.08392" lon="6.93125">
        <ele>730.16</ele>
        <time>2021-06-23T15:01:43Z</time>
      </trkpt>
      <trkpt lat="48.08399" lon="6.92975">
        <ele>726.57</ele>
        <time>2021-06-23T15:01:55Z</time>
      </trkpt>
      <trkpt lat="48.08399" lon="6.92929">
        <ele>725.7</ele>
        <time>2021-06-23T15:02:08Z</time>
      </trkpt>
      <trkpt lat="48.08396" lon="6.9288">
        <ele>724.47</ele>
        <time>2021-06-23T15:02:20Z</time>
      </trkpt>
      <trkpt lat="48.0839" lon="6.92817">
        <ele>723.16</ele>
        <time>2021-06-23T15:02:33Z</time>
      </trkpt>
      <trkpt lat="48.08385" lon="6.92705">
        <ele>723.7</ele>
        <time>2021-06-23T15:02:45Z</time>
      </trkpt>
      <trkpt lat="48.08377" lon="6.92651">
        <ele>721.84</ele>
        <time>2021-06-23T15:02:58Z</time>
      </trkpt>
      <trkpt lat="48.08433" lon="6.92655">
        <ele>728.55</ele>
        <time>2021-06-23T15:03:01Z</time>
      </trkpt>
      <trkpt lat="48.08468" lon="6.92661">
        <ele>730.8</ele>
        <time>2021-06-23T15:03:05Z</time>
      </trkpt>
      <trkpt lat="48.08474" lon="6.92658">
        <ele>731.13</ele>
        <time>2021-06-23T15:03:09Z</time>
      </trkpt>
      <trkpt lat="48.08478" lon="6.92652">
        <ele>731.41</ele>
        <time>2021-06-23T15:03:12Z</time>
      </trkpt>
      <trkpt lat="48.0848" lon="6.92644">
        <ele>731.57</ele>
        <time>2021-06-23T15:03:16Z</time>
      </trkpt>
      <trkpt lat="48.08479" lon="6.92636">
        <ele>731.81</ele>
        <time>2021-06-23T15:03:20Z</time>
      </trkpt>
      <trkpt lat="48.08476" lon="6.9263">
        <ele>732.3</ele>
        <time>2021-06-23T15:03:23Z</time>
      </trkpt>
      <trkpt lat="48.08459" lon="6.9261">
        <ele>732.73</ele>
        <time>2021-06-23T15:03:27Z</time>
      </trkpt>
      <trkpt lat="48.08457" lon="6.92599">
        <ele>733.86</ele>
        <time>2021-06-23T15:03:31Z</time>
      </trkpt>
      <trkpt lat="48.08458" lon="6.9259">
        <ele>735.16</ele>
        <time>2021-06-23T15:03:34Z</time>
      </trkpt>
      <trkpt lat="48.08462" lon="6.92582">
        <ele>736.5</ele>
        <time>2021-06-23T15:03:38Z</time>
      </trkpt>
      <trkpt lat="48.08473" lon="6.92568">
        <ele>738.06</ele>
        <time>2021-06-23T15:03:42Z</time>
      </trkpt>
      <trkpt lat="48.08482" lon="6.92561">
        <ele>739.02</ele>
        <time>2021-06-23T15:03:45Z</time>
      </trkpt>
      <trkpt lat="48.08555" lon="6.92534">
        <ele>743.43</ele>
        <time>2021-06-23T15:03:49Z</time>
      </trkpt>
      <trkpt lat="48.08589" lon="6.92528">
        <ele>747.19</ele>
        <time>2021-06-23T15:03:53Z</time>
      </trkpt>
      <trkpt lat="48.08609" lon="6.92541">
        <ele>752.4</ele>
        <time>2021-06-23T15:03:56Z</time>
      </trkpt>
      <trkpt lat="48.08618" lon="6.92552">
        <ele>753.75</ele>
        <time>2021-06-23T15:03:59Z</time>
      </trkpt>
    </trkseg>
  </trk>
  <trk>
    <name><![CDATA[2021-06-17_09-10_Thu]]></name>
    <extensions>
      <line xmlns="http://www.topografix.com/GPX/gpx_style/0/2">
        <color>00FF00</color>
        <width>4</width>
      </line>
    </extensions>
    <trkseg>
      <trkpt lat="48.08643" lon="6.92477">
        <ele>774.16</ele>
        <time>2021-06-23T09:52:30Z</time>
      </trkpt>
      <trkpt lat="48.08643" lon="6.92477">
        <ele>774.16</ele>
        <time>2021-06-23T09:52:30Z</time>
      </trkpt>
      <trkpt lat="48.08616" lon="6.92453">
        <ele>766.98</ele>
        <time>2021-06-23T09:52:35Z</time>
      </trkpt>
      <trkpt lat="48.08601" lon="6.92437">
        <ele>765.54</ele>
        <time>2021-06-23T09:52:39Z</time>
      </trkpt>
      <trkpt lat="48.08582" lon="6.9241">
        <ele>767.64</ele>
        <time>2021-06-23T09:52:44Z</time>
      </trkpt>
      <trkpt lat="48.0859" lon="6.9252">
        <ele>747.62</ele>
        <time>2021-06-23T09:52:52Z</time>
      </trkpt>
      <trkpt lat="48.08589" lon="6.92528">
        <ele>747.19</ele>
        <time>2021-06-23T09:52:59Z</time>
      </trkpt>
      <trkpt lat="48.08555" lon="6.92534">
        <ele>743.43</ele>
        <time>2021-06-23T09:53:03Z</time>
      </trkpt>
      <trkpt lat="48.08482" lon="6.92561">
        <ele>739.02</ele>
        <time>2021-06-23T09:53:07Z</time>
      </trkpt>
      <trkpt lat="48.08473" lon="6.92568">
        <ele>738.06</ele>
        <time>2021-06-23T09:53:10Z</time>
      </trkpt>
      <trkpt lat="48.08462" lon="6.92582">
        <ele>736.5</ele>
        <time>2021-06-23T09:53:14Z</time>
      </trkpt>
      <trkpt lat="48.08458" lon="6.9259">
        <ele>735.16</ele>
        <time>2021-06-23T09:53:17Z</time>
      </trkpt>
      <trkpt lat="48.08457" lon="6.92599">
        <ele>733.86</ele>
        <time>2021-06-23T09:53:21Z</time>
      </trkpt>
      <trkpt lat="48.08459" lon="6.9261">
        <ele>732.73</ele>
        <time>2021-06-23T09:53:25Z</time>
      </trkpt>
      <trkpt lat="48.08476" lon="6.9263">
        <ele>732.3</ele>
        <time>2021-06-23T09:53:28Z</time>
      </trkpt>
      <trkpt lat="48.08479" lon="6.92636">
        <ele>731.81</ele>
        <time>2021-06-23T09:53:32Z</time>
      </trkpt>
      <trkpt lat="48.0848" lon="6.92644">
        <ele>731.57</ele>
        <time>2021-06-23T09:53:36Z</time>
      </trkpt>
      <trkpt lat="48.08478" lon="6.92652">
        <ele>731.41</ele>
        <time>2021-06-23T09:53:39Z</time>
      </trkpt>
      <trkpt lat="48.08474" lon="6.92658">
        <ele>731.13</ele>
        <time>2021-06-23T09:53:43Z</time>
      </trkpt>
      <trkpt lat="48.08468" lon="6.92661">
        <ele>730.8</ele>
        <time>2021-06-23T09:53:47Z</time>
      </trkpt>
      <trkpt lat="48.08433" lon="6.92655">
        <ele>728.55</ele>
        <time>2021-06-23T09:53:50Z</time>
      </trkpt>
      <trkpt lat="48.08377" lon="6.92651">
        <ele>721.84</ele>
        <time>2021-06-23T09:53:54Z</time>
      </trkpt>
      <trkpt lat="48.08385" lon="6.92705">
        <ele>723.7</ele>
        <time>2021-06-23T09:54:04Z</time>
      </trkpt>
      <trkpt lat="48.0839" lon="6.92817">
        <ele>723.16</ele>
        <time>2021-06-23T09:54:15Z</time>
      </trkpt>
      <trkpt lat="48.08396" lon="6.9288">
        <ele>724.47</ele>
        <time>2021-06-23T09:54:25Z</time>
      </trkpt>
      <trkpt lat="48.08399" lon="6.92929">
        <ele>725.7</ele>
        <time>2021-06-23T09:54:35Z</time>
      </trkpt>
      <trkpt lat="48.08399" lon="6.92975">
        <ele>726.57</ele>
        <time>2021-06-23T09:54:46Z</time>
      </trkpt>
      <trkpt lat="48.08392" lon="6.93125">
        <ele>730.16</ele>
        <time>2021-06-23T09:54:56Z</time>
      </trkpt>
      <trkpt lat="48.08381" lon="6.93299">
        <ele>726.28</ele>
        <time>2021-06-23T09:55:06Z</time>
      </trkpt>
      <trkpt lat="48.0835" lon="6.9373">
        <ele>733.76</ele>
        <time>2021-06-23T09:55:17Z</time>
      </trkpt>
      <trkpt lat="48.08312" lon="6.94414">
        <ele>747.72</ele>
        <time>2021-06-23T09:55:27Z</time>
      </trkpt>
      <trkpt lat="48.0831" lon="6.94487">
        <ele>748.52</ele>
        <time>2021-06-23T09:55:37Z</time>
      </trkpt>
      <trkpt lat="48.08323" lon="6.94598">
        <ele>746.53</ele>
        <time>2021-06-23T09:55:48Z</time>
      </trkpt>
      <trkpt lat="48.08321" lon="6.94642">
        <ele>746.08</ele>
        <time>2021-06-23T09:55:58Z</time>
      </trkpt>
      <trkpt lat="48.08317" lon="6.94662">
        <ele>745.37</ele>
        <time>2021-06-23T09:56:08Z</time>
      </trkpt>
      <trkpt lat="48.08306" lon="6.94697">
        <ele>745.2</ele>
        <time>2021-06-23T09:56:19Z</time>
      </trkpt>
      <trkpt lat="48.08292" lon="6.94719">
        <ele>745.82</ele>
        <time>2021-06-23T09:56:29Z</time>
      </trkpt>
      <trkpt lat="48.08284" lon="6.94723">
        <ele>745.65</ele>
        <time>2021-06-23T09:56:30Z</time>
      </trkpt>
      <trkpt lat="48.08284" lon="6.94723">
        <ele>745.65</ele>
        <time>2021-06-23T09:56:30Z</time>
      </trkpt>
      <trkpt lat="48.08281" lon="6.94724">
        <ele>745.49</ele>
        <time>2021-06-23T09:56:33Z</time>
      </trkpt>
      <trkpt lat="48.08262" lon="6.94723">
        <ele>745.08</ele>
        <time>2021-06-23T09:56:37Z</time>
      </trkpt>
      <trkpt lat="48.08257" lon="6.94719">
        <ele>744.84</ele>
        <time>2021-06-23T09:56:41Z</time>
      </trkpt>
      <trkpt lat="48.08242" lon="6.94714">
        <ele>744.72</ele>
        <time>2021-06-23T09:56:45Z</time>
      </trkpt>
      <trkpt lat="48.08222" lon="6.94716">
        <ele>744.79</ele>
        <time>2021-06-23T09:56:49Z</time>
      </trkpt>
      <trkpt lat="48.08048" lon="6.94785">
        <ele>749.86</ele>
        <time>2021-06-23T09:56:52Z</time>
      </trkpt>
      <trkpt lat="48.08029" lon="6.94795">
        <ele>749.87</ele>
        <time>2021-06-23T09:56:56Z</time>
      </trkpt>
      <trkpt lat="48.08012" lon="6.9481">
        <ele>750.21</ele>
        <time>2021-06-23T09:57:00Z</time>
      </trkpt>
      <trkpt lat="48.07927" lon="6.94896">
        <ele>752.06</ele>
        <time>2021-06-23T09:57:04Z</time>
      </trkpt>
      <trkpt lat="48.07862" lon="6.94943">
        <ele>750.78</ele>
        <time>2021-06-23T09:57:07Z</time>
      </trkpt>
      <trkpt lat="48.07833" lon="6.9497">
        <ele>753.61</ele>
        <time>2021-06-23T09:57:11Z</time>
      </trkpt>
      <trkpt lat="48.07811" lon="6.94984">
        <ele>754.74</ele>
        <time>2021-06-23T09:57:15Z</time>
      </trkpt>
      <trkpt lat="48.07771" lon="6.95005">
        <ele>757.71</ele>
        <time>2021-06-23T09:57:19Z</time>
      </trkpt>
      <trkpt lat="48.07723" lon="6.95022">
        <ele>756</ele>
        <time>2021-06-23T09:57:22Z</time>
      </trkpt>
      <trkpt lat="48.07678" lon="6.95042">
        <ele>757.22</ele>
        <time>2021-06-23T09:57:26Z</time>
      </trkpt>
      <trkpt lat="48.07635" lon="6.95055">
        <ele>749.78</ele>
        <time>2021-06-23T09:57:30Z</time>
      </trkpt>
      <trkpt lat="48.07587" lon="6.95078">
        <ele>749.13</ele>
        <time>2021-06-23T09:57:34Z</time>
      </trkpt>
      <trkpt lat="48.07554" lon="6.95085">
        <ele>750.75</ele>
        <time>2021-06-23T09:57:38Z</time>
      </trkpt>
      <trkpt lat="48.07514" lon="6.9508">
        <ele>750</ele>
        <time>2021-06-23T09:57:41Z</time>
      </trkpt>
      <trkpt lat="48.07483" lon="6.9509">
        <ele>751.54</ele>
        <time>2021-06-23T09:57:45Z</time>
      </trkpt>
      <trkpt lat="48.0744" lon="6.95124">
        <ele>754.49</ele>
        <time>2021-06-23T09:57:49Z</time>
      </trkpt>
      <trkpt lat="48.07408" lon="6.95138">
        <ele>748.93</ele>
        <time>2021-06-23T09:57:53Z</time>
      </trkpt>
      <trkpt lat="48.07289" lon="6.95217">
        <ele>753.76</ele>
        <time>2021-06-23T09:57:56Z</time>
      </trkpt>
      <trkpt lat="48.07274" lon="6.95228">
        <ele>752.99</ele>
        <time>2021-06-23T09:58:00Z</time>
      </trkpt>
      <trkpt lat="48.07237" lon="6.95275">
        <ele>755.99</ele>
        <time>2021-06-23T09:58:04Z</time>
      </trkpt>
      <trkpt lat="48.0707" lon="6.95435">
        <ele>756.71</ele>
        <time>2021-06-23T09:58:08Z</time>
      </trkpt>
      <trkpt lat="48.06989" lon="6.95537">
        <ele>754.38</ele>
        <time>2021-06-23T09:58:12Z</time>
      </trkpt>
      <trkpt lat="48.06928" lon="6.956">
        <ele>752.45</ele>
        <time>2021-06-23T09:58:15Z</time>
      </trkpt>
      <trkpt lat="48.06876" lon="6.95642">
        <ele>750.86</ele>
        <time>2021-06-23T09:58:19Z</time>
      </trkpt>
      <trkpt lat="48.06858" lon="6.95665">
        <ele>747.5</ele>
        <time>2021-06-23T09:58:23Z</time>
      </trkpt>
      <trkpt lat="48.06839" lon="6.95696">
        <ele>748.33</ele>
        <time>2021-06-23T09:58:27Z</time>
      </trkpt>
      <trkpt lat="48.06786" lon="6.95756">
        <ele>749.17</ele>
        <time>2021-06-23T09:58:30Z</time>
      </trkpt>
      <trkpt lat="48.06743" lon="6.95817">
        <ele>750.13</ele>
        <time>2021-06-23T09:58:34Z</time>
      </trkpt>
      <trkpt lat="48.06668" lon="6.95942">
        <ele>748.97</ele>
        <time>2021-06-23T09:58:38Z</time>
      </trkpt>
      <trkpt lat="48.06656" lon="6.95956">
        <ele>749.92</ele>
        <time>2021-06-23T09:58:42Z</time>
      </trkpt>
      <trkpt lat="48.06602" lon="6.96001">
        <ele>751.13</ele>
        <time>2021-06-23T09:58:46Z</time>
      </trkpt>
      <trkpt lat="48.06577" lon="6.9603">
        <ele>752.65</ele>
        <time>2021-06-23T09:58:49Z</time>
      </trkpt>
      <trkpt lat="48.06551" lon="6.96063">
        <ele>749.28</ele>
        <time>2021-06-23T09:58:53Z</time>
      </trkpt>
      <trkpt lat="48.06526" lon="6.96102">
        <ele>747.38</ele>
        <time>2021-06-23T09:58:57Z</time>
      </trkpt>
      <trkpt lat="48.06461" lon="6.96183">
        <ele>744.48</ele>
        <time>2021-06-23T09:59:01Z</time>
      </trkpt>
      <trkpt lat="48.06419" lon="6.9625">
        <ele>744.85</ele>
        <time>2021-06-23T09:59:04Z</time>
      </trkpt>
      <trkpt lat="48.06419" lon="6.9625">
        <ele>744.85</ele>
        <time>2021-06-23T09:59:04Z</time>
      </trkpt>
      <trkpt lat="48.06367" lon="6.96339">
        <ele>747.04</ele>
        <time>2021-06-23T09:59:07Z</time>
      </trkpt>
      <trkpt lat="48.0634" lon="6.96388">
        <ele>749.63</ele>
        <time>2021-06-23T09:59:09Z</time>
      </trkpt>
      <trkpt lat="48.06317" lon="6.96436">
        <ele>751.03</ele>
        <time>2021-06-23T09:59:11Z</time>
      </trkpt>
      <trkpt lat="48.06299" lon="6.9648">
        <ele>750.35</ele>
        <time>2021-06-23T09:59:14Z</time>
      </trkpt>
      <trkpt lat="48.06291" lon="6.96509">
        <ele>749.26</ele>
        <time>2021-06-23T09:59:16Z</time>
      </trkpt>
      <trkpt lat="48.06289" lon="6.96541">
        <ele>750.17</ele>
        <time>2021-06-23T09:59:18Z</time>
      </trkpt>
      <trkpt lat="48.06289" lon="6.96608">
        <ele>753.43</ele>
        <time>2021-06-23T09:59:21Z</time>
      </trkpt>
      <trkpt lat="48.06295" lon="6.96681">
        <ele>756.09</ele>
        <time>2021-06-23T09:59:23Z</time>
      </trkpt>
      <trkpt lat="48.06295" lon="6.96707">
        <ele>757.6</ele>
        <time>2021-06-23T09:59:25Z</time>
      </trkpt>
      <trkpt lat="48.06284" lon="6.96799">
        <ele>756.12</ele>
        <time>2021-06-23T09:59:28Z</time>
      </trkpt>
      <trkpt lat="48.0628" lon="6.96825">
        <ele>756.78</ele>
        <time>2021-06-23T09:59:30Z</time>
      </trkpt>
      <trkpt lat="48.06272" lon="6.96855">
        <ele>756.97</ele>
        <time>2021-06-23T09:59:32Z</time>
      </trkpt>
      <trkpt lat="48.06243" lon="6.96937">
        <ele>757.12</ele>
        <time>2021-06-23T09:59:35Z</time>
      </trkpt>
      <trkpt lat="48.062" lon="6.97049">
        <ele>762.13</ele>
        <time>2021-06-23T09:59:37Z</time>
      </trkpt>
      <trkpt lat="48.06178" lon="6.97116">
        <ele>763.91</ele>
        <time>2021-06-23T09:59:39Z</time>
      </trkpt>
      <trkpt lat="48.06171" lon="6.97144">
        <ele>764.89</ele>
        <time>2021-06-23T09:59:42Z</time>
      </trkpt>
      <trkpt lat="48.06166" lon="6.97185">
        <ele>764.75</ele>
        <time>2021-06-23T09:59:44Z</time>
      </trkpt>
      <trkpt lat="48.06159" lon="6.97283">
        <ele>768.1</ele>
        <time>2021-06-23T09:59:46Z</time>
      </trkpt>
      <trkpt lat="48.06152" lon="6.97363">
        <ele>775.43</ele>
        <time>2021-06-23T09:59:49Z</time>
      </trkpt>
      <trkpt lat="48.06155" lon="6.97428">
        <ele>774.84</ele>
        <time>2021-06-23T09:59:51Z</time>
      </trkpt>
      <trkpt lat="48.06154" lon="6.97493">
        <ele>775.03</ele>
        <time>2021-06-23T09:59:53Z</time>
      </trkpt>
      <trkpt lat="48.06151" lon="6.97517">
        <ele>773.89</ele>
        <time>2021-06-23T09:59:56Z</time>
      </trkpt>
      <trkpt lat="48.06145" lon="6.9754">
        <ele>772.36</ele>
        <time>2021-06-23T09:59:58Z</time>
      </trkpt>
      <trkpt lat="48.06122" lon="6.97614">
        <ele>772.58</ele>
        <time>2021-06-23T10:00:00Z</time>
      </trkpt>
      <trkpt lat="48.06116" lon="6.97647">
        <ele>772.04</ele>
        <time>2021-06-23T10:00:03Z</time>
      </trkpt>
      <trkpt lat="48.06113" lon="6.97682">
        <ele>770.9</ele>
        <time>2021-06-23T10:00:05Z</time>
      </trkpt>
      <trkpt lat="48.06113" lon="6.97732">
        <ele>768.81</ele>
        <time>2021-06-23T10:00:07Z</time>
      </trkpt>
      <trkpt lat="48.0611" lon="6.97782">
        <ele>769.07</ele>
        <time>2021-06-23T10:00:10Z</time>
      </trkpt>
      <trkpt lat="48.06106" lon="6.97813">
        <ele>770.85</ele>
        <time>2021-06-23T10:00:12Z</time>
      </trkpt>
      <trkpt lat="48.061" lon="6.97844">
        <ele>771.07</ele>
        <time>2021-06-23T10:00:14Z</time>
      </trkpt>
      <trkpt lat="48.06078" lon="6.97913">
        <ele>771.74</ele>
        <time>2021-06-23T10:00:17Z</time>
      </trkpt>
      <trkpt lat="48.0606" lon="6.9801">
        <ele>779.84</ele>
        <time>2021-06-23T10:00:19Z</time>
      </trkpt>
      <trkpt lat="48.06052" lon="6.98045">
        <ele>783.54</ele>
        <time>2021-06-23T10:00:21Z</time>
      </trkpt>
      <trkpt lat="48.06043" lon="6.98061">
        <ele>784.41</ele>
        <time>2021-06-23T10:00:24Z</time>
      </trkpt>
      <trkpt lat="48.06034" lon="6.98073">
        <ele>784.13</ele>
        <time>2021-06-23T10:00:26Z</time>
      </trkpt>
      <trkpt lat="48.05991" lon="6.9811">
        <ele>783.19</ele>
        <time>2021-06-23T10:00:28Z</time>
      </trkpt>
      <trkpt lat="48.0598" lon="6.98132">
        <ele>786.02</ele>
        <time>2021-06-23T10:00:31Z</time>
      </trkpt>
      <trkpt lat="48.05968" lon="6.98161">
        <ele>789.64</ele>
        <time>2021-06-23T10:00:33Z</time>
      </trkpt>
      <trkpt lat="48.05944" lon="6.98202">
        <ele>794.37</ele>
        <time>2021-06-23T10:00:35Z</time>
      </trkpt>
      <trkpt lat="48.05928" lon="6.98219">
        <ele>794.65</ele>
        <time>2021-06-23T10:00:38Z</time>
      </trkpt>
      <trkpt lat="48.05892" lon="6.98242">
        <ele>788.96</ele>
        <time>2021-06-23T10:00:40Z</time>
      </trkpt>
      <trkpt lat="48.05882" lon="6.98255">
        <ele>789.33</ele>
        <time>2021-06-23T10:00:42Z</time>
      </trkpt>
      <trkpt lat="48.05877" lon="6.98272">
        <ele>790.26</ele>
        <time>2021-06-23T10:00:45Z</time>
      </trkpt>
      <trkpt lat="48.05878" lon="6.98282">
        <ele>790.68</ele>
        <time>2021-06-23T10:00:47Z</time>
      </trkpt>
      <trkpt lat="48.0588" lon="6.9829">
        <ele>791</ele>
        <time>2021-06-23T10:00:49Z</time>
      </trkpt>
      <trkpt lat="48.05907" lon="6.98327">
        <ele>793.34</ele>
        <time>2021-06-23T10:00:52Z</time>
      </trkpt>
      <trkpt lat="48.05912" lon="6.9834">
        <ele>793.86</ele>
        <time>2021-06-23T10:00:54Z</time>
      </trkpt>
      <trkpt lat="48.05914" lon="6.98352">
        <ele>793.74</ele>
        <time>2021-06-23T10:00:56Z</time>
      </trkpt>
      <trkpt lat="48.05915" lon="6.98366">
        <ele>793.53</ele>
        <time>2021-06-23T10:00:59Z</time>
      </trkpt>
      <trkpt lat="48.05913" lon="6.9839">
        <ele>793.22</ele>
        <time>2021-06-23T10:01:01Z</time>
      </trkpt>
      <trkpt lat="48.05909" lon="6.98411">
        <ele>794.01</ele>
        <time>2021-06-23T10:01:03Z</time>
      </trkpt>
      <trkpt lat="48.05905" lon="6.98428">
        <ele>794.7</ele>
        <time>2021-06-23T10:01:06Z</time>
      </trkpt>
      <trkpt lat="48.05898" lon="6.98446">
        <ele>795.08</ele>
        <time>2021-06-23T10:01:08Z</time>
      </trkpt>
      <trkpt lat="48.05864" lon="6.98493">
        <ele>789.93</ele>
        <time>2021-06-23T10:01:10Z</time>
      </trkpt>
      <trkpt lat="48.05846" lon="6.98514">
        <ele>787.01</ele>
        <time>2021-06-23T10:01:13Z</time>
      </trkpt>
      <trkpt lat="48.05825" lon="6.98536">
        <ele>786.16</ele>
        <time>2021-06-23T10:01:15Z</time>
      </trkpt>
      <trkpt lat="48.05775" lon="6.9858">
        <ele>782.42</ele>
        <time>2021-06-23T10:01:17Z</time>
      </trkpt>
      <trkpt lat="48.05731" lon="6.98624">
        <ele>783.68</ele>
        <time>2021-06-23T10:01:20Z</time>
      </trkpt>
      <trkpt lat="48.05695" lon="6.98663">
        <ele>784.46</ele>
        <time>2021-06-23T10:01:22Z</time>
      </trkpt>
      <trkpt lat="48.05649" lon="6.98704">
        <ele>791.68</ele>
        <time>2021-06-23T10:01:24Z</time>
      </trkpt>
      <trkpt lat="48.05606" lon="6.98747">
        <ele>797.73</ele>
        <time>2021-06-23T10:01:27Z</time>
      </trkpt>
      <trkpt lat="48.05582" lon="6.98757">
        <ele>797.57</ele>
        <time>2021-06-23T10:01:29Z</time>
      </trkpt>
      <trkpt lat="48.05538" lon="6.98758">
        <ele>795.9</ele>
        <time>2021-06-23T10:01:31Z</time>
      </trkpt>
      <trkpt lat="48.05518" lon="6.98761">
        <ele>795.07</ele>
        <time>2021-06-23T10:01:34Z</time>
      </trkpt>
      <trkpt lat="48.05505" lon="6.98766">
        <ele>794.76</ele>
        <time>2021-06-23T10:01:36Z</time>
      </trkpt>
      <trkpt lat="48.05493" lon="6.98776">
        <ele>795.49</ele>
        <time>2021-06-23T10:01:38Z</time>
      </trkpt>
      <trkpt lat="48.05474" lon="6.98796">
        <ele>800.24</ele>
        <time>2021-06-23T10:01:41Z</time>
      </trkpt>
      <trkpt lat="48.05425" lon="6.98861">
        <ele>810.15</ele>
        <time>2021-06-23T10:01:43Z</time>
      </trkpt>
      <trkpt lat="48.05408" lon="6.98877">
        <ele>810.99</ele>
        <time>2021-06-23T10:01:45Z</time>
      </trkpt>
      <trkpt lat="48.0539" lon="6.98888">
        <ele>812.51</ele>
        <time>2021-06-23T10:01:48Z</time>
      </trkpt>
      <trkpt lat="48.0539" lon="6.98888">
        <ele>812.51</ele>
        <time>2021-06-23T10:01:48Z</time>
      </trkpt>
      <trkpt lat="48.05378" lon="6.98894">
        <ele>813.17</ele>
        <time>2021-06-23T10:01:50Z</time>
      </trkpt>
      <trkpt lat="48.0535" lon="6.98899">
        <ele>815.42</ele>
        <time>2021-06-23T10:01:52Z</time>
      </trkpt>
      <trkpt lat="48.05265" lon="6.98897">
        <ele>821.72</ele>
        <time>2021-06-23T10:01:53Z</time>
      </trkpt>
      <trkpt lat="48.05256" lon="6.98893">
        <ele>821.9</ele>
        <time>2021-06-23T10:01:55Z</time>
      </trkpt>
      <trkpt lat="48.05246" lon="6.98884">
        <ele>822.05</ele>
        <time>2021-06-23T10:01:57Z</time>
      </trkpt>
      <trkpt lat="48.05205" lon="6.98835">
        <ele>824.39</ele>
        <time>2021-06-23T10:01:59Z</time>
      </trkpt>
      <trkpt lat="48.05197" lon="6.98815">
        <ele>826.46</ele>
        <time>2021-06-23T10:02:01Z</time>
      </trkpt>
      <trkpt lat="48.05191" lon="6.98793">
        <ele>828.85</ele>
        <time>2021-06-23T10:02:03Z</time>
      </trkpt>
      <trkpt lat="48.05189" lon="6.98768">
        <ele>830.34</ele>
        <time>2021-06-23T10:02:05Z</time>
      </trkpt>
      <trkpt lat="48.05189" lon="6.98717">
        <ele>830.29</ele>
        <time>2021-06-23T10:02:07Z</time>
      </trkpt>
      <trkpt lat="48.05186" lon="6.98697">
        <ele>831.27</ele>
        <time>2021-06-23T10:02:09Z</time>
      </trkpt>
      <trkpt lat="48.05173" lon="6.98642">
        <ele>837.28</ele>
        <time>2021-06-23T10:02:11Z</time>
      </trkpt>
      <trkpt lat="48.05165" lon="6.98587">
        <ele>839.06</ele>
        <time>2021-06-23T10:02:13Z</time>
      </trkpt>
      <trkpt lat="48.05159" lon="6.98508">
        <ele>850.84</ele>
        <time>2021-06-23T10:02:15Z</time>
      </trkpt>
      <trkpt lat="48.0516" lon="6.98428">
        <ele>851.42</ele>
        <time>2021-06-23T10:02:17Z</time>
      </trkpt>
      <trkpt lat="48.05163" lon="6.9841">
        <ele>851.06</ele>
        <time>2021-06-23T10:02:18Z</time>
      </trkpt>
      <trkpt lat="48.05172" lon="6.9838">
        <ele>850.77</ele>
        <time>2021-06-23T10:02:20Z</time>
      </trkpt>
      <trkpt lat="48.05176" lon="6.98362">
        <ele>850.34</ele>
        <time>2021-06-23T10:02:22Z</time>
      </trkpt>
      <trkpt lat="48.05179" lon="6.98335">
        <ele>852.08</ele>
        <time>2021-06-23T10:02:24Z</time>
      </trkpt>
      <trkpt lat="48.05182" lon="6.98229">
        <ele>853.65</ele>
        <time>2021-06-23T10:02:26Z</time>
      </trkpt>
      <trkpt lat="48.05192" lon="6.98141">
        <ele>855.26</ele>
        <time>2021-06-23T10:02:28Z</time>
      </trkpt>
      <trkpt lat="48.05193" lon="6.98112">
        <ele>855.25</ele>
        <time>2021-06-23T10:02:30Z</time>
      </trkpt>
      <trkpt lat="48.05181" lon="6.98032">
        <ele>855.5</ele>
        <time>2021-06-23T10:02:32Z</time>
      </trkpt>
      <trkpt lat="48.0518" lon="6.98011">
        <ele>857.24</ele>
        <time>2021-06-23T10:02:34Z</time>
      </trkpt>
      <trkpt lat="48.05186" lon="6.97974">
        <ele>860.31</ele>
        <time>2021-06-23T10:02:36Z</time>
      </trkpt>
      <trkpt lat="48.05202" lon="6.97924">
        <ele>863.93</ele>
        <time>2021-06-23T10:02:38Z</time>
      </trkpt>
      <trkpt lat="48.05202" lon="6.97913">
        <ele>866.18</ele>
        <time>2021-06-23T10:02:40Z</time>
      </trkpt>
      <trkpt lat="48.05198" lon="6.97897">
        <ele>870.59</ele>
        <time>2021-06-23T10:02:42Z</time>
      </trkpt>
      <trkpt lat="48.05194" lon="6.97892">
        <ele>872.16</ele>
        <time>2021-06-23T10:02:44Z</time>
      </trkpt>
      <trkpt lat="48.05181" lon="6.97893">
        <ele>873.72</ele>
        <time>2021-06-23T10:02:45Z</time>
      </trkpt>
      <trkpt lat="48.05175" lon="6.97898">
        <ele>872.59</ele>
        <time>2021-06-23T10:02:47Z</time>
      </trkpt>
      <trkpt lat="48.0517" lon="6.97908">
        <ele>869.71</ele>
        <time>2021-06-23T10:02:49Z</time>
      </trkpt>
      <trkpt lat="48.05129" lon="6.98018">
        <ele>874.18</ele>
        <time>2021-06-23T10:02:51Z</time>
      </trkpt>
      <trkpt lat="48.05091" lon="6.98169">
        <ele>890.76</ele>
        <time>2021-06-23T10:02:53Z</time>
      </trkpt>
      <trkpt lat="48.05086" lon="6.9821">
        <ele>891.83</ele>
        <time>2021-06-23T10:02:55Z</time>
      </trkpt>
      <trkpt lat="48.05086" lon="6.98287">
        <ele>888.59</ele>
        <time>2021-06-23T10:02:57Z</time>
      </trkpt>
      <trkpt lat="48.05083" lon="6.98314">
        <ele>888.11</ele>
        <time>2021-06-23T10:02:59Z</time>
      </trkpt>
      <trkpt lat="48.05074" lon="6.98343">
        <ele>893.27</ele>
        <time>2021-06-23T10:03:01Z</time>
      </trkpt>
      <trkpt lat="48.05054" lon="6.98383">
        <ele>905.08</ele>
        <time>2021-06-23T10:03:03Z</time>
      </trkpt>
      <trkpt lat="48.05047" lon="6.98405">
        <ele>910.06</ele>
        <time>2021-06-23T10:03:05Z</time>
      </trkpt>
      <trkpt lat="48.05042" lon="6.98427">
        <ele>912.66</ele>
        <time>2021-06-23T10:03:07Z</time>
      </trkpt>
      <trkpt lat="48.0504" lon="6.98444">
        <ele>913.54</ele>
        <time>2021-06-23T10:03:09Z</time>
      </trkpt>
      <trkpt lat="48.05042" lon="6.98484">
        <ele>906.93</ele>
        <time>2021-06-23T10:03:10Z</time>
      </trkpt>
      <trkpt lat="48.05041" lon="6.98497">
        <ele>905.96</ele>
        <time>2021-06-23T10:03:12Z</time>
      </trkpt>
      <trkpt lat="48.05037" lon="6.98514">
        <ele>906.83</ele>
        <time>2021-06-23T10:03:14Z</time>
      </trkpt>
      <trkpt lat="48.05026" lon="6.9854">
        <ele>911.91</ele>
        <time>2021-06-23T10:03:16Z</time>
      </trkpt>
      <trkpt lat="48.05022" lon="6.98562">
        <ele>914.55</ele>
        <time>2021-06-23T10:03:18Z</time>
      </trkpt>
      <trkpt lat="48.05017" lon="6.98617">
        <ele>917.06</ele>
        <time>2021-06-23T10:03:20Z</time>
      </trkpt>
      <trkpt lat="48.05012" lon="6.98646">
        <ele>918.17</ele>
        <time>2021-06-23T10:03:22Z</time>
      </trkpt>
      <trkpt lat="48.05012" lon="6.98665">
        <ele>916.62</ele>
        <time>2021-06-23T10:03:24Z</time>
      </trkpt>
      <trkpt lat="48.05014" lon="6.98688">
        <ele>913.43</ele>
        <time>2021-06-23T10:03:26Z</time>
      </trkpt>
      <trkpt lat="48.05014" lon="6.98699">
        <ele>912.52</ele>
        <time>2021-06-23T10:03:28Z</time>
      </trkpt>
      <trkpt lat="48.05011" lon="6.9871">
        <ele>912.28</ele>
        <time>2021-06-23T10:03:30Z</time>
      </trkpt>
      <trkpt lat="48.05006" lon="6.98716">
        <ele>912.84</ele>
        <time>2021-06-23T10:03:32Z</time>
      </trkpt>
      <trkpt lat="48.05002" lon="6.98719">
        <ele>913.92</ele>
        <time>2021-06-23T10:03:34Z</time>
      </trkpt>
      <trkpt lat="48.04995" lon="6.98719">
        <ele>917.57</ele>
        <time>2021-06-23T10:03:35Z</time>
      </trkpt>
      <trkpt lat="48.04991" lon="6.98716">
        <ele>921.07</ele>
        <time>2021-06-23T10:03:37Z</time>
      </trkpt>
      <trkpt lat="48.04995" lon="6.98689">
        <ele>923.49</ele>
        <time>2021-06-23T10:03:40Z</time>
      </trkpt>
      <trkpt lat="48.05004" lon="6.98552">
        <ele>929.08</ele>
        <time>2021-06-23T10:03:42Z</time>
      </trkpt>
      <trkpt lat="48.05012" lon="6.98503">
        <ele>925.12</ele>
        <time>2021-06-23T10:03:44Z</time>
      </trkpt>
      <trkpt lat="48.05012" lon="6.98485">
        <ele>926.31</ele>
        <time>2021-06-23T10:03:46Z</time>
      </trkpt>
      <trkpt lat="48.05007" lon="6.98442">
        <ele>937.31</ele>
        <time>2021-06-23T10:03:49Z</time>
      </trkpt>
      <trkpt lat="48.05007" lon="6.9842">
        <ele>940.9</ele>
        <time>2021-06-23T10:03:51Z</time>
      </trkpt>
      <trkpt lat="48.05012" lon="6.98385">
        <ele>937.27</ele>
        <time>2021-06-23T10:03:53Z</time>
      </trkpt>
      <trkpt lat="48.05022" lon="6.98349">
        <ele>929.3</ele>
        <time>2021-06-23T10:03:55Z</time>
      </trkpt>
      <trkpt lat="48.05026" lon="6.98327">
        <ele>926.85</ele>
        <time>2021-06-23T10:03:57Z</time>
      </trkpt>
      <trkpt lat="48.05027" lon="6.98299">
        <ele>925.51</ele>
        <time>2021-06-23T10:04:00Z</time>
      </trkpt>
      <trkpt lat="48.05022" lon="6.98264">
        <ele>928.18</ele>
        <time>2021-06-23T10:04:02Z</time>
      </trkpt>
      <trkpt lat="48.04996" lon="6.98154">
        <ele>942.18</ele>
        <time>2021-06-23T10:04:04Z</time>
      </trkpt>
      <trkpt lat="48.04992" lon="6.98107">
        <ele>941.76</ele>
        <time>2021-06-23T10:04:06Z</time>
      </trkpt>
      <trkpt lat="48.04989" lon="6.98085">
        <ele>941.12</ele>
        <time>2021-06-23T10:04:09Z</time>
      </trkpt>
      <trkpt lat="48.04983" lon="6.98058">
        <ele>941.65</ele>
        <time>2021-06-23T10:04:11Z</time>
      </trkpt>
      <trkpt lat="48.04946" lon="6.97934">
        <ele>944.42</ele>
        <time>2021-06-23T10:04:13Z</time>
      </trkpt>
      <trkpt lat="48.04926" lon="6.97888">
        <ele>946.71</ele>
        <time>2021-06-23T10:04:15Z</time>
      </trkpt>
      <trkpt lat="48.04874" lon="6.97798">
        <ele>957.53</ele>
        <time>2021-06-23T10:04:17Z</time>
      </trkpt>
      <trkpt lat="48.04851" lon="6.97703">
        <ele>954.43</ele>
        <time>2021-06-23T10:04:20Z</time>
      </trkpt>
      <trkpt lat="48.04838" lon="6.97677">
        <ele>959.04</ele>
        <time>2021-06-23T10:04:22Z</time>
      </trkpt>
      <trkpt lat="48.04813" lon="6.97638">
        <ele>966.35</ele>
        <time>2021-06-23T10:04:24Z</time>
      </trkpt>
      <trkpt lat="48.04786" lon="6.97601">
        <ele>962.11</ele>
        <time>2021-06-23T10:04:26Z</time>
      </trkpt>
      <trkpt lat="48.04777" lon="6.97591">
        <ele>960.11</ele>
        <time>2021-06-23T10:04:28Z</time>
      </trkpt>
      <trkpt lat="48.04761" lon="6.9758">
        <ele>957.5</ele>
        <time>2021-06-23T10:04:31Z</time>
      </trkpt>
      <trkpt lat="48.04736" lon="6.97569">
        <ele>955.87</ele>
        <time>2021-06-23T10:04:33Z</time>
      </trkpt>
      <trkpt lat="48.04711" lon="6.97564">
        <ele>954.52</ele>
        <time>2021-06-23T10:04:35Z</time>
      </trkpt>
      <trkpt lat="48.04698" lon="6.97565">
        <ele>953.96</ele>
        <time>2021-06-23T10:04:37Z</time>
      </trkpt>
      <trkpt lat="48.04633" lon="6.97588">
        <ele>954.76</ele>
        <time>2021-06-23T10:04:40Z</time>
      </trkpt>
      <trkpt lat="48.04531" lon="6.97611">
        <ele>954.23</ele>
        <time>2021-06-23T10:04:42Z</time>
      </trkpt>
      <trkpt lat="48.04446" lon="6.97613">
        <ele>949.05</ele>
        <time>2021-06-23T10:04:44Z</time>
      </trkpt>
      <trkpt lat="48.04334" lon="6.97618">
        <ele>954.65</ele>
        <time>2021-06-23T10:04:46Z</time>
      </trkpt>
      <trkpt lat="48.04311" lon="6.97617">
        <ele>954.7</ele>
        <time>2021-06-23T10:04:48Z</time>
      </trkpt>
      <trkpt lat="48.0429" lon="6.97613">
        <ele>957.93</ele>
        <time>2021-06-23T10:04:51Z</time>
      </trkpt>
      <trkpt lat="48.04229" lon="6.97581">
        <ele>947.41</ele>
        <time>2021-06-23T10:04:53Z</time>
      </trkpt>
      <trkpt lat="48.04146" lon="6.97545">
        <ele>940.42</ele>
        <time>2021-06-23T10:04:55Z</time>
      </trkpt>
      <trkpt lat="48.04111" lon="6.97534">
        <ele>941.42</ele>
        <time>2021-06-23T10:04:57Z</time>
      </trkpt>
      <trkpt lat="48.04075" lon="6.9752">
        <ele>944.36</ele>
        <time>2021-06-23T10:05:00Z</time>
      </trkpt>
      <trkpt lat="48.04051" lon="6.97504">
        <ele>940.78</ele>
        <time>2021-06-23T10:05:02Z</time>
      </trkpt>
      <trkpt lat="48.04024" lon="6.9748">
        <ele>934.62</ele>
        <time>2021-06-23T10:05:04Z</time>
      </trkpt>
      <trkpt lat="48.04004" lon="6.97455">
        <ele>929.21</ele>
        <time>2021-06-23T10:05:06Z</time>
      </trkpt>
      <trkpt lat="48.03987" lon="6.97423">
        <ele>926.79</ele>
        <time>2021-06-23T10:05:08Z</time>
      </trkpt>
      <trkpt lat="48.03979" lon="6.97398">
        <ele>926.43</ele>
        <time>2021-06-23T10:05:11Z</time>
      </trkpt>
      <trkpt lat="48.03975" lon="6.97376">
        <ele>927.67</ele>
        <time>2021-06-23T10:05:13Z</time>
      </trkpt>
      <trkpt lat="48.03976" lon="6.97363">
        <ele>928.3</ele>
        <time>2021-06-23T10:05:14Z</time>
      </trkpt>
      <trkpt lat="48.03975" lon="6.97357">
        <ele>928.59</ele>
        <time>2021-06-23T10:05:16Z</time>
      </trkpt>
      <trkpt lat="48.03962" lon="6.97338">
        <ele>927.61</ele>
        <time>2021-06-23T10:05:17Z</time>
      </trkpt>
      <trkpt lat="48.03953" lon="6.97305">
        <ele>923.25</ele>
        <time>2021-06-23T10:05:19Z</time>
      </trkpt>
      <trkpt lat="48.03949" lon="6.9728">
        <ele>920.67</ele>
        <time>2021-06-23T10:05:20Z</time>
      </trkpt>
      <trkpt lat="48.03942" lon="6.9726">
        <ele>919.62</ele>
        <time>2021-06-23T10:05:22Z</time>
      </trkpt>
      <trkpt lat="48.03933" lon="6.97243">
        <ele>918.97</ele>
        <time>2021-06-23T10:05:23Z</time>
      </trkpt>
      <trkpt lat="48.03913" lon="6.97216">
        <ele>918.53</ele>
        <time>2021-06-23T10:05:25Z</time>
      </trkpt>
      <trkpt lat="48.03835" lon="6.97151">
        <ele>914.24</ele>
        <time>2021-06-23T10:05:26Z</time>
      </trkpt>
      <trkpt lat="48.03814" lon="6.97127">
        <ele>910.59</ele>
        <time>2021-06-23T10:05:28Z</time>
      </trkpt>
      <trkpt lat="48.03782" lon="6.97074">
        <ele>907.28</ele>
        <time>2021-06-23T10:05:29Z</time>
      </trkpt>
      <trkpt lat="48.03758" lon="6.97025">
        <ele>904.19</ele>
        <time>2021-06-23T10:05:31Z</time>
      </trkpt>
      <trkpt lat="48.03724" lon="6.9697">
        <ele>898.65</ele>
        <time>2021-06-23T10:05:32Z</time>
      </trkpt>
      <trkpt lat="48.03677" lon="6.96903">
        <ele>892.55</ele>
        <time>2021-06-23T10:05:34Z</time>
      </trkpt>
      <trkpt lat="48.03676" lon="6.96896">
        <ele>892.28</ele>
        <time>2021-06-23T10:05:37Z</time>
      </trkpt>
      <trkpt lat="48.03672" lon="6.96886">
        <ele>891.63</ele>
        <time>2021-06-23T10:05:40Z</time>
      </trkpt>
      <trkpt lat="48.03662" lon="6.96881">
        <ele>891.59</ele>
        <time>2021-06-23T10:05:43Z</time>
      </trkpt>
      <trkpt lat="48.03653" lon="6.9687">
        <ele>891.82</ele>
        <time>2021-06-23T10:05:46Z</time>
      </trkpt>
      <trkpt lat="48.03627" lon="6.9683">
        <ele>891.25</ele>
        <time>2021-06-23T10:05:49Z</time>
      </trkpt>
      <trkpt lat="48.03612" lon="6.968">
        <ele>890.79</ele>
        <time>2021-06-23T10:05:52Z</time>
      </trkpt>
      <trkpt lat="48.03563" lon="6.9669">
        <ele>889.15</ele>
        <time>2021-06-23T10:05:56Z</time>
      </trkpt>
      <trkpt lat="48.03529" lon="6.96618">
        <ele>890.32</ele>
        <time>2021-06-23T10:05:59Z</time>
      </trkpt>
      <trkpt lat="48.03468" lon="6.96527">
        <ele>886.5</ele>
        <time>2021-06-23T10:06:02Z</time>
      </trkpt>
      <trkpt lat="48.03438" lon="6.96493">
        <ele>887.76</ele>
        <time>2021-06-23T10:06:05Z</time>
      </trkpt>
      <trkpt lat="48.03386" lon="6.96449">
        <ele>883.95</ele>
        <time>2021-06-23T10:06:08Z</time>
      </trkpt>
      <trkpt lat="48.03307" lon="6.96371">
        <ele>888.81</ele>
        <time>2021-06-23T10:06:11Z</time>
      </trkpt>
      <trkpt lat="48.03239" lon="6.96321">
        <ele>888.38</ele>
        <time>2021-06-23T10:06:14Z</time>
      </trkpt>
      <trkpt lat="48.03101" lon="6.96243">
        <ele>888.2</ele>
        <time>2021-06-23T10:06:17Z</time>
      </trkpt>
      <trkpt lat="48.03051" lon="6.96212">
        <ele>883.79</ele>
        <time>2021-06-23T10:06:21Z</time>
      </trkpt>
      <trkpt lat="48.02917" lon="6.96173">
        <ele>873.88</ele>
        <time>2021-06-23T10:06:24Z</time>
      </trkpt>
      <trkpt lat="48.02846" lon="6.96149">
        <ele>870.73</ele>
        <time>2021-06-23T10:06:27Z</time>
      </trkpt>
      <trkpt lat="48.02819" lon="6.96137">
        <ele>870.36</ele>
        <time>2021-06-23T10:06:30Z</time>
      </trkpt>
      <trkpt lat="48.02772" lon="6.96098">
        <ele>862.78</ele>
        <time>2021-06-23T10:06:33Z</time>
      </trkpt>
      <trkpt lat="48.02715" lon="6.96064">
        <ele>859.56</ele>
        <time>2021-06-23T10:06:36Z</time>
      </trkpt>
      <trkpt lat="48.02693" lon="6.96048">
        <ele>855.54</ele>
        <time>2021-06-23T10:06:39Z</time>
      </trkpt>
      <trkpt lat="48.02646" lon="6.96008">
        <ele>849.05</ele>
        <time>2021-06-23T10:06:43Z</time>
      </trkpt>
      <trkpt lat="48.02599" lon="6.95983">
        <ele>848.49</ele>
        <time>2021-06-23T10:06:46Z</time>
      </trkpt>
      <trkpt lat="48.02521" lon="6.95957">
        <ele>841.84</ele>
        <time>2021-06-23T10:06:49Z</time>
      </trkpt>
      <trkpt lat="48.02496" lon="6.95938">
        <ele>839.67</ele>
        <time>2021-06-23T10:06:52Z</time>
      </trkpt>
      <trkpt lat="48.02471" lon="6.95912">
        <ele>838.55</ele>
        <time>2021-06-23T10:06:55Z</time>
      </trkpt>
      <trkpt lat="48.02439" lon="6.95863">
        <ele>831.32</ele>
        <time>2021-06-23T10:06:58Z</time>
      </trkpt>
      <trkpt lat="48.0242" lon="6.95827">
        <ele>831.35</ele>
        <time>2021-06-23T10:07:01Z</time>
      </trkpt>
      <trkpt lat="48.02392" lon="6.95745">
        <ele>831.88</ele>
        <time>2021-06-23T10:07:04Z</time>
      </trkpt>
      <trkpt lat="48.0234" lon="6.95617">
        <ele>822.07</ele>
        <time>2021-06-23T10:07:08Z</time>
      </trkpt>
      <trkpt lat="48.02324" lon="6.95573">
        <ele>819.83</ele>
        <time>2021-06-23T10:07:11Z</time>
      </trkpt>
      <trkpt lat="48.02291" lon="6.95435">
        <ele>814.17</ele>
        <time>2021-06-23T10:07:14Z</time>
      </trkpt>
      <trkpt lat="48.02278" lon="6.95398">
        <ele>813.31</ele>
        <time>2021-06-23T10:07:17Z</time>
      </trkpt>
      <trkpt lat="48.02254" lon="6.95355">
        <ele>808.43</ele>
        <time>2021-06-23T10:07:20Z</time>
      </trkpt>
      <trkpt lat="48.02195" lon="6.95291">
        <ele>798.51</ele>
        <time>2021-06-23T10:07:23Z</time>
      </trkpt>
      <trkpt lat="48.0218" lon="6.9527">
        <ele>797.92</ele>
        <time>2021-06-23T10:07:26Z</time>
      </trkpt>
      <trkpt lat="48.02169" lon="6.95248">
        <ele>798.3</ele>
        <time>2021-06-23T10:07:29Z</time>
      </trkpt>
      <trkpt lat="48.02153" lon="6.95208">
        <ele>800.27</ele>
        <time>2021-06-23T10:07:33Z</time>
      </trkpt>
      <trkpt lat="48.02149" lon="6.9519">
        <ele>800.06</ele>
        <time>2021-06-23T10:07:36Z</time>
      </trkpt>
      <trkpt lat="48.02134" lon="6.95202">
        <ele>800.09</ele>
        <time>2021-06-23T10:07:37Z</time>
      </trkpt>
      <trkpt lat="48.02134" lon="6.95202">
        <ele>800.09</ele>
        <time>2021-06-23T10:07:37Z</time>
      </trkpt>
      <trkpt lat="48.02126" lon="6.95203">
        <ele>800.15</ele>
        <time>2021-06-23T10:07:38Z</time>
      </trkpt>
      <trkpt lat="48.02114" lon="6.95195">
        <ele>800</ele>
        <time>2021-06-23T10:07:41Z</time>
      </trkpt>
      <trkpt lat="48.02094" lon="6.95191">
        <ele>800.34</ele>
        <time>2021-06-23T10:07:44Z</time>
      </trkpt>
      <trkpt lat="48.02034" lon="6.95186">
        <ele>803.66</ele>
        <time>2021-06-23T10:07:46Z</time>
      </trkpt>
      <trkpt lat="48.02021" lon="6.95179">
        <ele>805.15</ele>
        <time>2021-06-23T10:07:49Z</time>
      </trkpt>
      <trkpt lat="48.02012" lon="6.95172">
        <ele>806.32</ele>
        <time>2021-06-23T10:07:51Z</time>
      </trkpt>
      <trkpt lat="48.01969" lon="6.95111">
        <ele>807.04</ele>
        <time>2021-06-23T10:07:54Z</time>
      </trkpt>
      <trkpt lat="48.01936" lon="6.95087">
        <ele>806.07</ele>
        <time>2021-06-23T10:07:57Z</time>
      </trkpt>
      <trkpt lat="48.01921" lon="6.9507">
        <ele>803.67</ele>
        <time>2021-06-23T10:07:59Z</time>
      </trkpt>
      <trkpt lat="48.01892" lon="6.95029">
        <ele>801.69</ele>
        <time>2021-06-23T10:08:02Z</time>
      </trkpt>
      <trkpt lat="48.01875" lon="6.95014">
        <ele>804.11</ele>
        <time>2021-06-23T10:08:05Z</time>
      </trkpt>
      <trkpt lat="48.01818" lon="6.94987">
        <ele>811.16</ele>
        <time>2021-06-23T10:08:07Z</time>
      </trkpt>
      <trkpt lat="48.01678" lon="6.94895">
        <ele>819.35</ele>
        <time>2021-06-23T10:08:10Z</time>
      </trkpt>
      <trkpt lat="48.01594" lon="6.94847">
        <ele>820.91</ele>
        <time>2021-06-23T10:08:12Z</time>
      </trkpt>
      <trkpt lat="48.01516" lon="6.94813">
        <ele>823.14</ele>
        <time>2021-06-23T10:08:15Z</time>
      </trkpt>
      <trkpt lat="48.01498" lon="6.94808">
        <ele>823.62</ele>
        <time>2021-06-23T10:08:18Z</time>
      </trkpt>
      <trkpt lat="48.0148" lon="6.94806">
        <ele>823.21</ele>
        <time>2021-06-23T10:08:20Z</time>
      </trkpt>
      <trkpt lat="48.01455" lon="6.94813">
        <ele>824.82</ele>
        <time>2021-06-23T10:08:23Z</time>
      </trkpt>
      <trkpt lat="48.01423" lon="6.94829">
        <ele>825.55</ele>
        <time>2021-06-23T10:08:26Z</time>
      </trkpt>
      <trkpt lat="48.01385" lon="6.94855">
        <ele>828.27</ele>
        <time>2021-06-23T10:08:28Z</time>
      </trkpt>
      <trkpt lat="48.01341" lon="6.94904">
        <ele>839.49</ele>
        <time>2021-06-23T10:08:31Z</time>
      </trkpt>
      <trkpt lat="48.01332" lon="6.94909">
        <ele>840.51</ele>
        <time>2021-06-23T10:08:33Z</time>
      </trkpt>
      <trkpt lat="48.01323" lon="6.94907">
        <ele>841.09</ele>
        <time>2021-06-23T10:08:36Z</time>
      </trkpt>
      <trkpt lat="48.01317" lon="6.94902">
        <ele>841.48</ele>
        <time>2021-06-23T10:08:39Z</time>
      </trkpt>
      <trkpt lat="48.01313" lon="6.94896">
        <ele>841.83</ele>
        <time>2021-06-23T10:08:41Z</time>
      </trkpt>
      <trkpt lat="48.01311" lon="6.94889">
        <ele>842.22</ele>
        <time>2021-06-23T10:08:44Z</time>
      </trkpt>
      <trkpt lat="48.01311" lon="6.94881">
        <ele>842.59</ele>
        <time>2021-06-23T10:08:47Z</time>
      </trkpt>
      <trkpt lat="48.01325" lon="6.9482">
        <ele>837.59</ele>
        <time>2021-06-23T10:08:49Z</time>
      </trkpt>
      <trkpt lat="48.01327" lon="6.94802">
        <ele>836.79</ele>
        <time>2021-06-23T10:08:52Z</time>
      </trkpt>
      <trkpt lat="48.01325" lon="6.94787">
        <ele>837.68</ele>
        <time>2021-06-23T10:08:55Z</time>
      </trkpt>
      <trkpt lat="48.01321" lon="6.94769">
        <ele>838.87</ele>
        <time>2021-06-23T10:08:57Z</time>
      </trkpt>
      <trkpt lat="48.01312" lon="6.94756">
        <ele>840.2</ele>
        <time>2021-06-23T10:09:00Z</time>
      </trkpt>
      <trkpt lat="48.01308" lon="6.94758">
        <ele>841.56</ele>
        <time>2021-06-23T10:09:02Z</time>
      </trkpt>
      <trkpt lat="48.01302" lon="6.94756">
        <ele>842.99</ele>
        <time>2021-06-23T10:09:04Z</time>
      </trkpt>
      <trkpt lat="48.01222" lon="6.94691">
        <ele>850.01</ele>
        <time>2021-06-23T10:09:07Z</time>
      </trkpt>
      <trkpt lat="48.01196" lon="6.94673">
        <ele>851.02</ele>
        <time>2021-06-23T10:09:09Z</time>
      </trkpt>
      <trkpt lat="48.01178" lon="6.94665">
        <ele>852.64</ele>
        <time>2021-06-23T10:09:12Z</time>
      </trkpt>
      <trkpt lat="48.01094" lon="6.9465">
        <ele>863.13</ele>
        <time>2021-06-23T10:09:14Z</time>
      </trkpt>
      <trkpt lat="48.0099" lon="6.94609">
        <ele>871.79</ele>
        <time>2021-06-23T10:09:16Z</time>
      </trkpt>
      <trkpt lat="48.00939" lon="6.94593">
        <ele>877.56</ele>
        <time>2021-06-23T10:09:19Z</time>
      </trkpt>
      <trkpt lat="48.00835" lon="6.94569">
        <ele>891.24</ele>
        <time>2021-06-23T10:09:21Z</time>
      </trkpt>
      <trkpt lat="48.00776" lon="6.94552">
        <ele>893.91</ele>
        <time>2021-06-23T10:09:23Z</time>
      </trkpt>
      <trkpt lat="48.00746" lon="6.94547">
        <ele>896.06</ele>
        <time>2021-06-23T10:09:26Z</time>
      </trkpt>
      <trkpt lat="48.00729" lon="6.94549">
        <ele>898.74</ele>
        <time>2021-06-23T10:09:28Z</time>
      </trkpt>
      <trkpt lat="48.00599" lon="6.94548">
        <ele>924</ele>
        <time>2021-06-23T10:09:30Z</time>
      </trkpt>
      <trkpt lat="48.00577" lon="6.94541">
        <ele>925.04</ele>
        <time>2021-06-23T10:09:33Z</time>
      </trkpt>
      <trkpt lat="48.00564" lon="6.94527">
        <ele>919.19</ele>
        <time>2021-06-23T10:09:35Z</time>
      </trkpt>
      <trkpt lat="48.00549" lon="6.9452">
        <ele>918.41</ele>
        <time>2021-06-23T10:09:37Z</time>
      </trkpt>
      <trkpt lat="48.00444" lon="6.94521">
        <ele>925.41</ele>
        <time>2021-06-23T10:09:40Z</time>
      </trkpt>
      <trkpt lat="48.00415" lon="6.94525">
        <ele>935.01</ele>
        <time>2021-06-23T10:09:42Z</time>
      </trkpt>
      <trkpt lat="48.00386" lon="6.94522">
        <ele>936.03</ele>
        <time>2021-06-23T10:09:44Z</time>
      </trkpt>
      <trkpt lat="48.00327" lon="6.94501">
        <ele>938.86</ele>
        <time>2021-06-23T10:09:47Z</time>
      </trkpt>
      <trkpt lat="48.00327" lon="6.94501">
        <ele>938.86</ele>
        <time>2021-06-23T10:09:47Z</time>
      </trkpt>
      <trkpt lat="48.00306" lon="6.94502">
        <ele>943.52</ele>
        <time>2021-06-23T10:09:48Z</time>
      </trkpt>
      <trkpt lat="48.0029" lon="6.94507">
        <ele>946.48</ele>
        <time>2021-06-23T10:09:49Z</time>
      </trkpt>
      <trkpt lat="48.0026" lon="6.94522">
        <ele>952.66</ele>
        <time>2021-06-23T10:09:50Z</time>
      </trkpt>
      <trkpt lat="48.0024" lon="6.94535">
        <ele>955.87</ele>
        <time>2021-06-23T10:09:51Z</time>
      </trkpt>
      <trkpt lat="48.00224" lon="6.9454">
        <ele>955.24</ele>
        <time>2021-06-23T10:09:52Z</time>
      </trkpt>
      <trkpt lat="48.00137" lon="6.9454">
        <ele>959.5</ele>
        <time>2021-06-23T10:09:53Z</time>
      </trkpt>
      <trkpt lat="48.0008" lon="6.94534">
        <ele>963.77</ele>
        <time>2021-06-23T10:09:55Z</time>
      </trkpt>
      <trkpt lat="48.0005" lon="6.9454">
        <ele>967.93</ele>
        <time>2021-06-23T10:09:56Z</time>
      </trkpt>
      <trkpt lat="48.00031" lon="6.94552">
        <ele>969.93</ele>
        <time>2021-06-23T10:09:57Z</time>
      </trkpt>
      <trkpt lat="47.99974" lon="6.946">
        <ele>965.47</ele>
        <time>2021-06-23T10:09:58Z</time>
      </trkpt>
      <trkpt lat="47.99961" lon="6.94622">
        <ele>961.67</ele>
        <time>2021-06-23T10:09:59Z</time>
      </trkpt>
      <trkpt lat="47.99947" lon="6.94714">
        <ele>962.88</ele>
        <time>2021-06-23T10:10:00Z</time>
      </trkpt>
      <trkpt lat="47.99938" lon="6.94759">
        <ele>956.14</ele>
        <time>2021-06-23T10:10:01Z</time>
      </trkpt>
      <trkpt lat="47.99923" lon="6.94812">
        <ele>951.56</ele>
        <time>2021-06-23T10:10:02Z</time>
      </trkpt>
      <trkpt lat="47.99913" lon="6.94837">
        <ele>950.15</ele>
        <time>2021-06-23T10:10:03Z</time>
      </trkpt>
      <trkpt lat="47.99869" lon="6.94915">
        <ele>946.02</ele>
        <time>2021-06-23T10:10:04Z</time>
      </trkpt>
      <trkpt lat="47.99839" lon="6.94952">
        <ele>940.27</ele>
        <time>2021-06-23T10:10:06Z</time>
      </trkpt>
      <trkpt lat="47.99829" lon="6.94974">
        <ele>940.07</ele>
        <time>2021-06-23T10:10:07Z</time>
      </trkpt>
      <trkpt lat="47.99819" lon="6.95014">
        <ele>936.76</ele>
        <time>2021-06-23T10:10:08Z</time>
      </trkpt>
      <trkpt lat="47.99818" lon="6.95046">
        <ele>935.92</ele>
        <time>2021-06-23T10:10:09Z</time>
      </trkpt>
      <trkpt lat="47.9982" lon="6.9516">
        <ele>929.6</ele>
        <time>2021-06-23T10:10:10Z</time>
      </trkpt>
      <trkpt lat="47.99811" lon="6.95254">
        <ele>925.63</ele>
        <time>2021-06-23T10:10:11Z</time>
      </trkpt>
      <trkpt lat="47.9981" lon="6.95283">
        <ele>923.74</ele>
        <time>2021-06-23T10:10:12Z</time>
      </trkpt>
      <trkpt lat="47.99814" lon="6.95347">
        <ele>924.99</ele>
        <time>2021-06-23T10:10:13Z</time>
      </trkpt>
      <trkpt lat="47.9981" lon="6.95403">
        <ele>922.8</ele>
        <time>2021-06-23T10:10:14Z</time>
      </trkpt>
      <trkpt lat="47.9981" lon="6.95429">
        <ele>926.93</ele>
        <time>2021-06-23T10:10:15Z</time>
      </trkpt>
      <trkpt lat="47.99806" lon="6.95444">
        <ele>927.16</ele>
        <time>2021-06-23T10:10:17Z</time>
      </trkpt>
      <trkpt lat="47.998" lon="6.95446">
        <ele>921.97</ele>
        <time>2021-06-23T10:10:18Z</time>
      </trkpt>
      <trkpt lat="47.99795" lon="6.9544">
        <ele>916.56</ele>
        <time>2021-06-23T10:10:19Z</time>
      </trkpt>
      <trkpt lat="47.99793" lon="6.95424">
        <ele>912.88</ele>
        <time>2021-06-23T10:10:20Z</time>
      </trkpt>
      <trkpt lat="47.998" lon="6.95354">
        <ele>915.83</ele>
        <time>2021-06-23T10:10:21Z</time>
      </trkpt>
      <trkpt lat="47.9979" lon="6.95272">
        <ele>906.41</ele>
        <time>2021-06-23T10:10:22Z</time>
      </trkpt>
      <trkpt lat="47.99784" lon="6.95214">
        <ele>904.03</ele>
        <time>2021-06-23T10:10:23Z</time>
      </trkpt>
      <trkpt lat="47.99784" lon="6.9517">
        <ele>906.47</ele>
        <time>2021-06-23T10:10:24Z</time>
      </trkpt>
      <trkpt lat="47.9978" lon="6.95147">
        <ele>906.52</ele>
        <time>2021-06-23T10:10:25Z</time>
      </trkpt>
      <trkpt lat="47.99765" lon="6.95108">
        <ele>902.43</ele>
        <time>2021-06-23T10:10:27Z</time>
      </trkpt>
      <trkpt lat="47.99763" lon="6.95092">
        <ele>902.28</ele>
        <time>2021-06-23T10:10:28Z</time>
      </trkpt>
      <trkpt lat="47.99763" lon="6.95061">
        <ele>904.19</ele>
        <time>2021-06-23T10:10:29Z</time>
      </trkpt>
      <trkpt lat="47.9977" lon="6.94985">
        <ele>902.59</ele>
        <time>2021-06-23T10:10:30Z</time>
      </trkpt>
      <trkpt lat="47.99788" lon="6.94911">
        <ele>902.89</ele>
        <time>2021-06-23T10:10:31Z</time>
      </trkpt>
      <trkpt lat="47.99795" lon="6.94851">
        <ele>906.1</ele>
        <time>2021-06-23T10:10:32Z</time>
      </trkpt>
      <trkpt lat="47.99802" lon="6.94811">
        <ele>909.5</ele>
        <time>2021-06-23T10:10:33Z</time>
      </trkpt>
      <trkpt lat="47.99802" lon="6.94802">
        <ele>910.2</ele>
        <time>2021-06-23T10:10:34Z</time>
      </trkpt>
      <trkpt lat="47.99799" lon="6.94795">
        <ele>910.98</ele>
        <time>2021-06-23T10:10:35Z</time>
      </trkpt>
      <trkpt lat="47.99795" lon="6.94792">
        <ele>911.13</ele>
        <time>2021-06-23T10:10:36Z</time>
      </trkpt>
      <trkpt lat="47.99789" lon="6.94793">
        <ele>910.65</ele>
        <time>2021-06-23T10:10:38Z</time>
      </trkpt>
      <trkpt lat="47.99784" lon="6.94798">
        <ele>909.48</ele>
        <time>2021-06-23T10:10:39Z</time>
      </trkpt>
      <trkpt lat="47.99781" lon="6.9481">
        <ele>907.61</ele>
        <time>2021-06-23T10:10:40Z</time>
      </trkpt>
      <trkpt lat="47.99776" lon="6.94865">
        <ele>900.53</ele>
        <time>2021-06-23T10:10:41Z</time>
      </trkpt>
      <trkpt lat="47.99767" lon="6.94901">
        <ele>896.85</ele>
        <time>2021-06-23T10:10:42Z</time>
      </trkpt>
      <trkpt lat="47.99759" lon="6.94925">
        <ele>893.12</ele>
        <time>2021-06-23T10:10:43Z</time>
      </trkpt>
      <trkpt lat="47.99733" lon="6.9498">
        <ele>882.53</ele>
        <time>2021-06-23T10:10:44Z</time>
      </trkpt>
      <trkpt lat="47.99723" lon="6.95012">
        <ele>879.07</ele>
        <time>2021-06-23T10:10:45Z</time>
      </trkpt>
      <trkpt lat="47.99717" lon="6.95057">
        <ele>878.59</ele>
        <time>2021-06-23T10:10:46Z</time>
      </trkpt>
      <trkpt lat="47.99715" lon="6.95086">
        <ele>876.76</ele>
        <time>2021-06-23T10:10:47Z</time>
      </trkpt>
      <trkpt lat="47.99718" lon="6.95103">
        <ele>876.68</ele>
        <time>2021-06-23T10:10:49Z</time>
      </trkpt>
      <trkpt lat="47.99731" lon="6.95144">
        <ele>879.43</ele>
        <time>2021-06-23T10:10:50Z</time>
      </trkpt>
      <trkpt lat="47.99736" lon="6.95173">
        <ele>878.82</ele>
        <time>2021-06-23T10:10:51Z</time>
      </trkpt>
      <trkpt lat="47.99737" lon="6.95204">
        <ele>877.3</ele>
        <time>2021-06-23T10:10:52Z</time>
      </trkpt>
      <trkpt lat="47.99731" lon="6.95275">
        <ele>869.45</ele>
        <time>2021-06-23T10:10:53Z</time>
      </trkpt>
      <trkpt lat="47.99732" lon="6.95318">
        <ele>868.13</ele>
        <time>2021-06-23T10:10:54Z</time>
      </trkpt>
      <trkpt lat="47.99731" lon="6.95337">
        <ele>867.41</ele>
        <time>2021-06-23T10:10:55Z</time>
      </trkpt>
      <trkpt lat="47.99725" lon="6.95377">
        <ele>865.48</ele>
        <time>2021-06-23T10:10:56Z</time>
      </trkpt>
      <trkpt lat="47.99724" lon="6.95414">
        <ele>867.6</ele>
        <time>2021-06-23T10:10:57Z</time>
      </trkpt>
      <trkpt lat="47.99722" lon="6.95423">
        <ele>866.73</ele>
        <time>2021-06-23T10:10:58Z</time>
      </trkpt>
      <trkpt lat="47.99718" lon="6.95428">
        <ele>864.65</ele>
        <time>2021-06-23T10:11:00Z</time>
      </trkpt>
      <trkpt lat="47.99714" lon="6.95428">
        <ele>862.33</ele>
        <time>2021-06-23T10:11:01Z</time>
      </trkpt>
      <trkpt lat="47.9971" lon="6.95425">
        <ele>860.6</ele>
        <time>2021-06-23T10:11:02Z</time>
      </trkpt>
      <trkpt lat="47.99708" lon="6.9542">
        <ele>859.4</ele>
        <time>2021-06-23T10:11:03Z</time>
      </trkpt>
      <trkpt lat="47.99707" lon="6.95413">
        <ele>858.9</ele>
        <time>2021-06-23T10:11:04Z</time>
      </trkpt>
      <trkpt lat="47.99718" lon="6.95331">
        <ele>859.6</ele>
        <time>2021-06-23T10:11:05Z</time>
      </trkpt>
      <trkpt lat="47.99714" lon="6.95278">
        <ele>860.69</ele>
        <time>2021-06-23T10:11:06Z</time>
      </trkpt>
      <trkpt lat="47.99706" lon="6.95227">
        <ele>863.13</ele>
        <time>2021-06-23T10:11:07Z</time>
      </trkpt>
      <trkpt lat="47.99697" lon="6.95188">
        <ele>863.54</ele>
        <time>2021-06-23T10:11:08Z</time>
      </trkpt>
      <trkpt lat="47.99692" lon="6.95174">
        <ele>863.71</ele>
        <time>2021-06-23T10:11:10Z</time>
      </trkpt>
      <trkpt lat="47.99689" lon="6.95169">
        <ele>863.64</ele>
        <time>2021-06-23T10:11:11Z</time>
      </trkpt>
      <trkpt lat="47.9968" lon="6.95168">
        <ele>862.11</ele>
        <time>2021-06-23T10:11:12Z</time>
      </trkpt>
      <trkpt lat="47.99673" lon="6.95178">
        <ele>859.34</ele>
        <time>2021-06-23T10:11:13Z</time>
      </trkpt>
      <trkpt lat="47.99673" lon="6.95184">
        <ele>858.38</ele>
        <time>2021-06-23T10:11:14Z</time>
      </trkpt>
      <trkpt lat="47.99674" lon="6.95191">
        <ele>857.44</ele>
        <time>2021-06-23T10:11:15Z</time>
      </trkpt>
      <trkpt lat="47.9969" lon="6.95233">
        <ele>855.96</ele>
        <time>2021-06-23T10:11:16Z</time>
      </trkpt>
      <trkpt lat="47.99693" lon="6.95248">
        <ele>855.41</ele>
        <time>2021-06-23T10:11:17Z</time>
      </trkpt>
      <trkpt lat="47.99695" lon="6.95279">
        <ele>850.79</ele>
        <time>2021-06-23T10:11:18Z</time>
      </trkpt>
      <trkpt lat="47.99693" lon="6.95311">
        <ele>846.7</ele>
        <time>2021-06-23T10:11:19Z</time>
      </trkpt>
      <trkpt lat="47.99688" lon="6.95351">
        <ele>847.16</ele>
        <time>2021-06-23T10:11:21Z</time>
      </trkpt>
      <trkpt lat="47.99678" lon="6.95392">
        <ele>846.54</ele>
        <time>2021-06-23T10:11:22Z</time>
      </trkpt>
      <trkpt lat="47.99634" lon="6.95539">
        <ele>836.99</ele>
        <time>2021-06-23T10:11:23Z</time>
      </trkpt>
      <trkpt lat="47.99622" lon="6.95563">
        <ele>835.66</ele>
        <time>2021-06-23T10:11:24Z</time>
      </trkpt>
      <trkpt lat="47.99584" lon="6.9562">
        <ele>834.95</ele>
        <time>2021-06-23T10:11:25Z</time>
      </trkpt>
      <trkpt lat="47.99579" lon="6.95627">
        <ele>834.51</ele>
        <time>2021-06-23T10:11:26Z</time>
      </trkpt>
      <trkpt lat="47.99572" lon="6.95627">
        <ele>831.84</ele>
        <time>2021-06-23T10:11:27Z</time>
      </trkpt>
      <trkpt lat="47.99568" lon="6.95622">
        <ele>829.58</ele>
        <time>2021-06-23T10:11:28Z</time>
      </trkpt>
      <trkpt lat="47.9957" lon="6.95604">
        <ele>826.84</ele>
        <time>2021-06-23T10:11:29Z</time>
      </trkpt>
      <trkpt lat="47.99575" lon="6.95593">
        <ele>826.15</ele>
        <time>2021-06-23T10:11:30Z</time>
      </trkpt>
      <trkpt lat="47.99605" lon="6.95549">
        <ele>826.68</ele>
        <time>2021-06-23T10:11:32Z</time>
      </trkpt>
      <trkpt lat="47.99613" lon="6.9553">
        <ele>827.64</ele>
        <time>2021-06-23T10:11:33Z</time>
      </trkpt>
      <trkpt lat="47.99616" lon="6.95507">
        <ele>829</ele>
        <time>2021-06-23T10:11:34Z</time>
      </trkpt>
      <trkpt lat="47.99616" lon="6.95438">
        <ele>827.61</ele>
        <time>2021-06-23T10:11:35Z</time>
      </trkpt>
      <trkpt lat="47.99614" lon="6.95389">
        <ele>823.1</ele>
        <time>2021-06-23T10:11:36Z</time>
      </trkpt>
      <trkpt lat="47.99611" lon="6.95367">
        <ele>822.76</ele>
        <time>2021-06-23T10:11:37Z</time>
      </trkpt>
      <trkpt lat="47.99605" lon="6.95355">
        <ele>823.17</ele>
        <time>2021-06-23T10:11:38Z</time>
      </trkpt>
      <trkpt lat="47.996" lon="6.95352">
        <ele>823.47</ele>
        <time>2021-06-23T10:11:39Z</time>
      </trkpt>
      <trkpt lat="47.99588" lon="6.95356">
        <ele>823.03</ele>
        <time>2021-06-23T10:11:40Z</time>
      </trkpt>
      <trkpt lat="47.99564" lon="6.95376">
        <ele>821.18</ele>
        <time>2021-06-23T10:11:42Z</time>
      </trkpt>
      <trkpt lat="47.9952" lon="6.95422">
        <ele>819.61</ele>
        <time>2021-06-23T10:11:43Z</time>
      </trkpt>
      <trkpt lat="47.99485" lon="6.95453">
        <ele>817.7</ele>
        <time>2021-06-23T10:11:44Z</time>
      </trkpt>
      <trkpt lat="47.99479" lon="6.95462">
        <ele>816.23</ele>
        <time>2021-06-23T10:11:45Z</time>
      </trkpt>
      <trkpt lat="47.99477" lon="6.95474">
        <ele>813.59</ele>
        <time>2021-06-23T10:11:46Z</time>
      </trkpt>
      <trkpt lat="47.99482" lon="6.95483">
        <ele>811.8</ele>
        <time>2021-06-23T10:11:47Z</time>
      </trkpt>
      <trkpt lat="47.99486" lon="6.95483">
        <ele>811.54</ele>
        <time>2021-06-23T10:11:48Z</time>
      </trkpt>
      <trkpt lat="47.99497" lon="6.95477">
        <ele>812.01</ele>
        <time>2021-06-23T10:11:49Z</time>
      </trkpt>
      <trkpt lat="47.99519" lon="6.95456">
        <ele>814.45</ele>
        <time>2021-06-23T10:11:50Z</time>
      </trkpt>
      <trkpt lat="47.99531" lon="6.95455">
        <ele>814</ele>
        <time>2021-06-23T10:11:51Z</time>
      </trkpt>
      <trkpt lat="47.99539" lon="6.9546">
        <ele>814.02</ele>
        <time>2021-06-23T10:11:53Z</time>
      </trkpt>
      <trkpt lat="47.99542" lon="6.95465">
        <ele>813.71</ele>
        <time>2021-06-23T10:11:54Z</time>
      </trkpt>
      <trkpt lat="47.99543" lon="6.95469">
        <ele>813.43</ele>
        <time>2021-06-23T10:11:55Z</time>
      </trkpt>
      <trkpt lat="47.99543" lon="6.95481">
        <ele>812.83</ele>
        <time>2021-06-23T10:11:56Z</time>
      </trkpt>
      <trkpt lat="47.9948" lon="6.95628">
        <ele>803.21</ele>
        <time>2021-06-23T10:11:57Z</time>
      </trkpt>
      <trkpt lat="47.99474" lon="6.95645">
        <ele>803.52</ele>
        <time>2021-06-23T10:11:58Z</time>
      </trkpt>
      <trkpt lat="47.99465" lon="6.95694">
        <ele>805.69</ele>
        <time>2021-06-23T10:11:59Z</time>
      </trkpt>
      <trkpt lat="47.99461" lon="6.95709">
        <ele>803.88</ele>
        <time>2021-06-23T10:12:00Z</time>
      </trkpt>
      <trkpt lat="47.99438" lon="6.95763">
        <ele>794.29</ele>
        <time>2021-06-23T10:12:01Z</time>
      </trkpt>
      <trkpt lat="47.99421" lon="6.9583">
        <ele>790.71</ele>
        <time>2021-06-23T10:12:02Z</time>
      </trkpt>
      <trkpt lat="47.99396" lon="6.95892">
        <ele>792.23</ele>
        <time>2021-06-23T10:12:04Z</time>
      </trkpt>
      <trkpt lat="47.99389" lon="6.95918">
        <ele>792.72</ele>
        <time>2021-06-23T10:12:05Z</time>
      </trkpt>
      <trkpt lat="47.99384" lon="6.95924">
        <ele>791.02</ele>
        <time>2021-06-23T10:12:06Z</time>
      </trkpt>
      <trkpt lat="47.99378" lon="6.95922">
        <ele>787.88</ele>
        <time>2021-06-23T10:12:07Z</time>
      </trkpt>
      <trkpt lat="47.99374" lon="6.95917">
        <ele>785.26</ele>
        <time>2021-06-23T10:12:08Z</time>
      </trkpt>
      <trkpt lat="47.99374" lon="6.95911">
        <ele>784.07</ele>
        <time>2021-06-23T10:12:09Z</time>
      </trkpt>
      <trkpt lat="47.99375" lon="6.95902">
        <ele>783.37</ele>
        <time>2021-06-23T10:12:10Z</time>
      </trkpt>
      <trkpt lat="47.99392" lon="6.95855">
        <ele>783.49</ele>
        <time>2021-06-23T10:12:11Z</time>
      </trkpt>
      <trkpt lat="47.994" lon="6.95813">
        <ele>781.56</ele>
        <time>2021-06-23T10:12:12Z</time>
      </trkpt>
      <trkpt lat="47.99405" lon="6.95756">
        <ele>780.97</ele>
        <time>2021-06-23T10:12:14Z</time>
      </trkpt>
      <trkpt lat="47.99405" lon="6.9575">
        <ele>781</ele>
        <time>2021-06-23T10:12:15Z</time>
      </trkpt>
      <trkpt lat="47.99402" lon="6.95746">
        <ele>780.81</ele>
        <time>2021-06-23T10:12:16Z</time>
      </trkpt>
      <trkpt lat="47.99398" lon="6.95743">
        <ele>780.24</ele>
        <time>2021-06-23T10:12:17Z</time>
      </trkpt>
      <trkpt lat="47.99393" lon="6.95743">
        <ele>778.98</ele>
        <time>2021-06-23T10:12:18Z</time>
      </trkpt>
      <trkpt lat="47.9939" lon="6.95748">
        <ele>777.54</ele>
        <time>2021-06-23T10:12:19Z</time>
      </trkpt>
      <trkpt lat="47.99386" lon="6.95784">
        <ele>775.8</ele>
        <time>2021-06-23T10:12:20Z</time>
      </trkpt>
      <trkpt lat="47.9938" lon="6.95813">
        <ele>776.12</ele>
        <time>2021-06-23T10:12:21Z</time>
      </trkpt>
      <trkpt lat="47.99347" lon="6.95897">
        <ele>771.57</ele>
        <time>2021-06-23T10:12:22Z</time>
      </trkpt>
      <trkpt lat="47.99339" lon="6.95911">
        <ele>769.44</ele>
        <time>2021-06-23T10:12:23Z</time>
      </trkpt>
      <trkpt lat="47.99305" lon="6.95945">
        <ele>761.9</ele>
        <time>2021-06-23T10:12:25Z</time>
      </trkpt>
      <trkpt lat="47.99296" lon="6.95959">
        <ele>760.13</ele>
        <time>2021-06-23T10:12:26Z</time>
      </trkpt>
      <trkpt lat="47.99293" lon="6.95969">
        <ele>759.69</ele>
        <time>2021-06-23T10:12:27Z</time>
      </trkpt>
      <trkpt lat="47.99291" lon="6.95988">
        <ele>759.33</ele>
        <time>2021-06-23T10:12:28Z</time>
      </trkpt>
      <trkpt lat="47.99302" lon="6.96068">
        <ele>757.41</ele>
        <time>2021-06-23T10:12:29Z</time>
      </trkpt>
      <trkpt lat="47.99303" lon="6.96094">
        <ele>755.18</ele>
        <time>2021-06-23T10:12:30Z</time>
      </trkpt>
      <trkpt lat="47.99299" lon="6.96155">
        <ele>756.11</ele>
        <time>2021-06-23T10:12:31Z</time>
      </trkpt>
      <trkpt lat="47.99293" lon="6.96179">
        <ele>756.97</ele>
        <time>2021-06-23T10:12:32Z</time>
      </trkpt>
      <trkpt lat="47.99274" lon="6.96223">
        <ele>758.09</ele>
        <time>2021-06-23T10:12:33Z</time>
      </trkpt>
      <trkpt lat="47.9927" lon="6.96229">
        <ele>758.71</ele>
        <time>2021-06-23T10:12:34Z</time>
      </trkpt>
      <trkpt lat="47.99266" lon="6.96231">
        <ele>757.74</ele>
        <time>2021-06-23T10:12:36Z</time>
      </trkpt>
      <trkpt lat="47.99258" lon="6.96227">
        <ele>753.45</ele>
        <time>2021-06-23T10:12:37Z</time>
      </trkpt>
      <trkpt lat="47.99254" lon="6.96223">
        <ele>750.93</ele>
        <time>2021-06-23T10:12:38Z</time>
      </trkpt>
      <trkpt lat="47.99254" lon="6.96217">
        <ele>749.01</ele>
        <time>2021-06-23T10:12:39Z</time>
      </trkpt>
      <trkpt lat="47.99256" lon="6.96207">
        <ele>746.91</ele>
        <time>2021-06-23T10:12:40Z</time>
      </trkpt>
      <trkpt lat="47.99275" lon="6.96169">
        <ele>745.71</ele>
        <time>2021-06-23T10:12:41Z</time>
      </trkpt>
      <trkpt lat="47.9928" lon="6.96145">
        <ele>744.76</ele>
        <time>2021-06-23T10:12:42Z</time>
      </trkpt>
      <trkpt lat="47.9928" lon="6.96132">
        <ele>743.28</ele>
        <time>2021-06-23T10:12:43Z</time>
      </trkpt>
      <trkpt lat="47.99274" lon="6.96094">
        <ele>740.31</ele>
        <time>2021-06-23T10:12:44Z</time>
      </trkpt>
      <trkpt lat="47.99257" lon="6.96034">
        <ele>745.92</ele>
        <time>2021-06-23T10:12:45Z</time>
      </trkpt>
      <trkpt lat="47.99253" lon="6.96023">
        <ele>747.05</ele>
        <time>2021-06-23T10:12:47Z</time>
      </trkpt>
      <trkpt lat="47.99249" lon="6.96018">
        <ele>746.92</ele>
        <time>2021-06-23T10:12:48Z</time>
      </trkpt>
      <trkpt lat="47.99246" lon="6.96016">
        <ele>746.63</ele>
        <time>2021-06-23T10:12:49Z</time>
      </trkpt>
      <trkpt lat="47.99242" lon="6.96016">
        <ele>746.01</ele>
        <time>2021-06-23T10:12:50Z</time>
      </trkpt>
      <trkpt lat="47.99238" lon="6.9602">
        <ele>744.83</ele>
        <time>2021-06-23T10:12:51Z</time>
      </trkpt>
      <trkpt lat="47.99235" lon="6.96024">
        <ele>743.82</ele>
        <time>2021-06-23T10:12:52Z</time>
      </trkpt>
      <trkpt lat="47.99234" lon="6.96036">
        <ele>741.47</ele>
        <time>2021-06-23T10:12:53Z</time>
      </trkpt>
      <trkpt lat="47.99249" lon="6.96086">
        <ele>734.79</ele>
        <time>2021-06-23T10:12:54Z</time>
      </trkpt>
      <trkpt lat="47.99252" lon="6.96107">
        <ele>734.49</ele>
        <time>2021-06-23T10:12:55Z</time>
      </trkpt>
      <trkpt lat="47.9925" lon="6.96131">
        <ele>734.67</ele>
        <time>2021-06-23T10:12:57Z</time>
      </trkpt>
      <trkpt lat="47.99241" lon="6.96153">
        <ele>734.84</ele>
        <time>2021-06-23T10:12:58Z</time>
      </trkpt>
      <trkpt lat="47.99182" lon="6.96234">
        <ele>733.13</ele>
        <time>2021-06-23T10:12:59Z</time>
      </trkpt>
      <trkpt lat="47.99157" lon="6.96275">
        <ele>729.68</ele>
        <time>2021-06-23T10:13:00Z</time>
      </trkpt>
      <trkpt lat="47.99129" lon="6.96341">
        <ele>723.8</ele>
        <time>2021-06-23T10:13:01Z</time>
      </trkpt>
      <trkpt lat="47.99124" lon="6.96355">
        <ele>721.82</ele>
        <time>2021-06-23T10:13:02Z</time>
      </trkpt>
      <trkpt lat="47.99123" lon="6.96371">
        <ele>720.29</ele>
        <time>2021-06-23T10:13:03Z</time>
      </trkpt>
      <trkpt lat="47.99124" lon="6.96384">
        <ele>719.75</ele>
        <time>2021-06-23T10:13:04Z</time>
      </trkpt>
      <trkpt lat="47.99136" lon="6.96445">
        <ele>714.42</ele>
        <time>2021-06-23T10:13:05Z</time>
      </trkpt>
      <trkpt lat="47.9915" lon="6.96494">
        <ele>712.66</ele>
        <time>2021-06-23T10:13:06Z</time>
      </trkpt>
      <trkpt lat="47.99182" lon="6.96566">
        <ele>717.46</ele>
        <time>2021-06-23T10:13:08Z</time>
      </trkpt>
      <trkpt lat="47.99184" lon="6.96583">
        <ele>718.36</ele>
        <time>2021-06-23T10:13:09Z</time>
      </trkpt>
      <trkpt lat="47.99183" lon="6.96592">
        <ele>719.29</ele>
        <time>2021-06-23T10:13:10Z</time>
      </trkpt>
      <trkpt lat="47.99179" lon="6.96604">
        <ele>719.5</ele>
        <time>2021-06-23T10:13:11Z</time>
      </trkpt>
      <trkpt lat="47.99167" lon="6.9663">
        <ele>718.43</ele>
        <time>2021-06-23T10:13:12Z</time>
      </trkpt>
      <trkpt lat="47.99151" lon="6.96645">
        <ele>717.29</ele>
        <time>2021-06-23T10:13:13Z</time>
      </trkpt>
      <trkpt lat="47.99107" lon="6.96657">
        <ele>711.39</ele>
        <time>2021-06-23T10:13:14Z</time>
      </trkpt>
      <trkpt lat="47.99107" lon="6.96657">
        <ele>711.39</ele>
        <time>2021-06-23T10:13:14Z</time>
      </trkpt>
      <trkpt lat="47.99042" lon="6.96674">
        <ele>706.78</ele>
        <time>2021-06-23T10:13:18Z</time>
      </trkpt>
      <trkpt lat="47.98879" lon="6.96684">
        <ele>694.97</ele>
        <time>2021-06-23T10:13:21Z</time>
      </trkpt>
      <trkpt lat="47.98833" lon="6.96689">
        <ele>696.01</ele>
        <time>2021-06-23T10:13:24Z</time>
      </trkpt>
      <trkpt lat="47.98779" lon="6.96692">
        <ele>688.79</ele>
        <time>2021-06-23T10:13:27Z</time>
      </trkpt>
      <trkpt lat="47.98717" lon="6.96693">
        <ele>681.13</ele>
        <time>2021-06-23T10:13:31Z</time>
      </trkpt>
      <trkpt lat="47.98574" lon="6.96666">
        <ele>681.01</ele>
        <time>2021-06-23T10:13:34Z</time>
      </trkpt>
      <trkpt lat="47.98531" lon="6.96664">
        <ele>677.45</ele>
        <time>2021-06-23T10:13:37Z</time>
      </trkpt>
      <trkpt lat="47.98486" lon="6.96657">
        <ele>667.8</ele>
        <time>2021-06-23T10:13:41Z</time>
      </trkpt>
      <trkpt lat="47.9832" lon="6.966">
        <ele>664.02</ele>
        <time>2021-06-23T10:13:44Z</time>
      </trkpt>
      <trkpt lat="47.98284" lon="6.96591">
        <ele>667.17</ele>
        <time>2021-06-23T10:13:47Z</time>
      </trkpt>
      <trkpt lat="47.98279" lon="6.96584">
        <ele>665.24</ele>
        <time>2021-06-23T10:13:50Z</time>
      </trkpt>
      <trkpt lat="47.98278" lon="6.96579">
        <ele>663.36</ele>
        <time>2021-06-23T10:13:54Z</time>
      </trkpt>
      <trkpt lat="47.9828" lon="6.96571">
        <ele>660.21</ele>
        <time>2021-06-23T10:13:57Z</time>
      </trkpt>
      <trkpt lat="47.98293" lon="6.96569">
        <ele>657.87</ele>
        <time>2021-06-23T10:14:00Z</time>
      </trkpt>
      <trkpt lat="47.9834" lon="6.96587">
        <ele>657.38</ele>
        <time>2021-06-23T10:14:04Z</time>
      </trkpt>
      <trkpt lat="47.98387" lon="6.96597">
        <ele>656.09</ele>
        <time>2021-06-23T10:14:07Z</time>
      </trkpt>
      <trkpt lat="47.9847" lon="6.9661">
        <ele>647.87</ele>
        <time>2021-06-23T10:14:10Z</time>
      </trkpt>
      <trkpt lat="47.98514" lon="6.96604">
        <ele>647.62</ele>
        <time>2021-06-23T10:14:13Z</time>
      </trkpt>
      <trkpt lat="47.98563" lon="6.96594">
        <ele>648.22</ele>
        <time>2021-06-23T10:14:17Z</time>
      </trkpt>
      <trkpt lat="47.98695" lon="6.96606">
        <ele>657.05</ele>
        <time>2021-06-23T10:14:20Z</time>
      </trkpt>
      <trkpt lat="47.98707" lon="6.96605">
        <ele>657.72</ele>
        <time>2021-06-23T10:14:23Z</time>
      </trkpt>
      <trkpt lat="47.98714" lon="6.96599">
        <ele>656.89</ele>
        <time>2021-06-23T10:14:26Z</time>
      </trkpt>
      <trkpt lat="47.98717" lon="6.96594">
        <ele>655.76</ele>
        <time>2021-06-23T10:14:30Z</time>
      </trkpt>
      <trkpt lat="47.98718" lon="6.96587">
        <ele>653.94</ele>
        <time>2021-06-23T10:14:33Z</time>
      </trkpt>
      <trkpt lat="47.98717" lon="6.9658">
        <ele>651.87</ele>
        <time>2021-06-23T10:14:36Z</time>
      </trkpt>
      <trkpt lat="47.98709" lon="6.96572">
        <ele>648.47</ele>
        <time>2021-06-23T10:14:40Z</time>
      </trkpt>
      <trkpt lat="47.98697" lon="6.96566">
        <ele>644.74</ele>
        <time>2021-06-23T10:14:43Z</time>
      </trkpt>
      <trkpt lat="47.98564" lon="6.96543">
        <ele>633.34</ele>
        <time>2021-06-23T10:14:46Z</time>
      </trkpt>
      <trkpt lat="47.98446" lon="6.96511">
        <ele>623.64</ele>
        <time>2021-06-23T10:14:49Z</time>
      </trkpt>
      <trkpt lat="47.98368" lon="6.9648">
        <ele>625.62</ele>
        <time>2021-06-23T10:14:53Z</time>
      </trkpt>
      <trkpt lat="47.98323" lon="6.9645">
        <ele>622.23</ele>
        <time>2021-06-23T10:14:56Z</time>
      </trkpt>
      <trkpt lat="47.9829" lon="6.96417">
        <ele>612</ele>
        <time>2021-06-23T10:14:59Z</time>
      </trkpt>
      <trkpt lat="47.98273" lon="6.96391">
        <ele>613.1</ele>
        <time>2021-06-23T10:15:03Z</time>
      </trkpt>
      <trkpt lat="47.98256" lon="6.96369">
        <ele>612.68</ele>
        <time>2021-06-23T10:15:06Z</time>
      </trkpt>
      <trkpt lat="47.98235" lon="6.9635">
        <ele>610.59</ele>
        <time>2021-06-23T10:15:09Z</time>
      </trkpt>
      <trkpt lat="47.981" lon="6.96286">
        <ele>594.25</ele>
        <time>2021-06-23T10:15:12Z</time>
      </trkpt>
      <trkpt lat="47.98008" lon="6.96247">
        <ele>599.07</ele>
        <time>2021-06-23T10:15:16Z</time>
      </trkpt>
      <trkpt lat="47.97994" lon="6.96237">
        <ele>598.08</ele>
        <time>2021-06-23T10:15:19Z</time>
      </trkpt>
      <trkpt lat="47.97982" lon="6.96224">
        <ele>594.34</ele>
        <time>2021-06-23T10:15:22Z</time>
      </trkpt>
      <trkpt lat="47.97943" lon="6.96173">
        <ele>583.18</ele>
        <time>2021-06-23T10:15:26Z</time>
      </trkpt>
      <trkpt lat="47.97912" lon="6.9614">
        <ele>577.39</ele>
        <time>2021-06-23T10:15:29Z</time>
      </trkpt>
      <trkpt lat="47.97893" lon="6.96133">
        <ele>578.56</ele>
        <time>2021-06-23T10:15:32Z</time>
      </trkpt>
      <trkpt lat="47.97829" lon="6.96119">
        <ele>574.3</ele>
        <time>2021-06-23T10:15:35Z</time>
      </trkpt>
      <trkpt lat="47.9779" lon="6.96136">
        <ele>570.81</ele>
        <time>2021-06-23T10:15:39Z</time>
      </trkpt>
      <trkpt lat="47.97779" lon="6.96138">
        <ele>570.05</ele>
        <time>2021-06-23T10:15:42Z</time>
      </trkpt>
      <trkpt lat="47.97675" lon="6.96106">
        <ele>569.15</ele>
        <time>2021-06-23T10:15:45Z</time>
      </trkpt>
      <trkpt lat="47.97597" lon="6.96089">
        <ele>570.49</ele>
        <time>2021-06-23T10:15:49Z</time>
      </trkpt>
      <trkpt lat="47.97545" lon="6.96075">
        <ele>565.18</ele>
        <time>2021-06-23T10:15:52Z</time>
      </trkpt>
      <trkpt lat="47.97531" lon="6.96074">
        <ele>564.18</ele>
        <time>2021-06-23T10:15:55Z</time>
      </trkpt>
      <trkpt lat="47.97502" lon="6.96078">
        <ele>565.51</ele>
        <time>2021-06-23T10:15:58Z</time>
      </trkpt>
      <trkpt lat="47.97463" lon="6.9608">
        <ele>571.94</ele>
        <time>2021-06-23T10:16:02Z</time>
      </trkpt>
      <trkpt lat="47.97446" lon="6.96076">
        <ele>574.1</ele>
        <time>2021-06-23T10:16:05Z</time>
      </trkpt>
      <trkpt lat="47.97321" lon="6.96018">
        <ele>567.35</ele>
        <time>2021-06-23T10:16:08Z</time>
      </trkpt>
      <trkpt lat="47.97236" lon="6.96001">
        <ele>562.04</ele>
        <time>2021-06-23T10:16:12Z</time>
      </trkpt>
      <trkpt lat="47.97191" lon="6.9597">
        <ele>559.87</ele>
        <time>2021-06-23T10:16:15Z</time>
      </trkpt>
      <trkpt lat="47.97179" lon="6.95965">
        <ele>559.46</ele>
        <time>2021-06-23T10:16:18Z</time>
      </trkpt>
      <trkpt lat="47.97093" lon="6.95952">
        <ele>561.65</ele>
        <time>2021-06-23T10:16:21Z</time>
      </trkpt>
      <trkpt lat="47.97021" lon="6.95959">
        <ele>561.04</ele>
        <time>2021-06-23T10:16:25Z</time>
      </trkpt>
      <trkpt lat="47.97003" lon="6.95955">
        <ele>561.76</ele>
        <time>2021-06-23T10:16:28Z</time>
      </trkpt>
      <trkpt lat="47.96833" lon="6.95898">
        <ele>570.47</ele>
        <time>2021-06-23T10:16:31Z</time>
      </trkpt>
      <trkpt lat="47.96778" lon="6.95883">
        <ele>563.96</ele>
        <time>2021-06-23T10:16:35Z</time>
      </trkpt>
      <trkpt lat="47.96684" lon="6.95878">
        <ele>564.32</ele>
        <time>2021-06-23T10:16:38Z</time>
      </trkpt>
      <trkpt lat="47.96573" lon="6.95894">
        <ele>563.17</ele>
        <time>2021-06-23T10:16:41Z</time>
      </trkpt>
      <trkpt lat="47.96502" lon="6.95918">
        <ele>552.87</ele>
        <time>2021-06-23T10:16:44Z</time>
      </trkpt>
      <trkpt lat="47.96434" lon="6.95948">
        <ele>552.96</ele>
        <time>2021-06-23T10:16:48Z</time>
      </trkpt>
      <trkpt lat="47.96409" lon="6.95966">
        <ele>555.38</ele>
        <time>2021-06-23T10:16:51Z</time>
      </trkpt>
      <trkpt lat="47.96389" lon="6.95983">
        <ele>556.24</ele>
        <time>2021-06-23T10:16:54Z</time>
      </trkpt>
      <trkpt lat="47.96339" lon="6.9604">
        <ele>562.71</ele>
        <time>2021-06-23T10:16:58Z</time>
      </trkpt>
      <trkpt lat="47.96309" lon="6.96082">
        <ele>562.91</ele>
        <time>2021-06-23T10:17:01Z</time>
      </trkpt>
      <trkpt lat="47.96285" lon="6.96108">
        <ele>560.8</ele>
        <time>2021-06-23T10:17:04Z</time>
      </trkpt>
      <trkpt lat="47.96266" lon="6.96122">
        <ele>558.99</ele>
        <time>2021-06-23T10:17:07Z</time>
      </trkpt>
      <trkpt lat="47.96247" lon="6.96132">
        <ele>556.32</ele>
        <time>2021-06-23T10:17:11Z</time>
      </trkpt>
      <trkpt lat="47.96226" lon="6.96138">
        <ele>556.13</ele>
        <time>2021-06-23T10:17:14Z</time>
      </trkpt>
      <trkpt lat="47.96112" lon="6.96145">
        <ele>555.91</ele>
        <time>2021-06-23T10:17:17Z</time>
      </trkpt>
      <trkpt lat="47.96064" lon="6.96151">
        <ele>556.59</ele>
        <time>2021-06-23T10:17:21Z</time>
      </trkpt>
      <trkpt lat="47.95976" lon="6.96167">
        <ele>558.99</ele>
        <time>2021-06-23T10:17:24Z</time>
      </trkpt>
      <trkpt lat="47.95851" lon="6.9617">
        <ele>554.96</ele>
        <time>2021-06-23T10:17:27Z</time>
      </trkpt>
      <trkpt lat="47.95711" lon="6.96186">
        <ele>561.44</ele>
        <time>2021-06-23T10:17:30Z</time>
      </trkpt>
      <trkpt lat="47.95596" lon="6.96185">
        <ele>558.18</ele>
        <time>2021-06-23T10:17:34Z</time>
      </trkpt>
      <trkpt lat="47.9555" lon="6.96177">
        <ele>553.9</ele>
        <time>2021-06-23T10:17:37Z</time>
      </trkpt>
      <trkpt lat="47.95512" lon="6.96161">
        <ele>552.63</ele>
        <time>2021-06-23T10:17:40Z</time>
      </trkpt>
      <trkpt lat="47.95464" lon="6.96134">
        <ele>552.9</ele>
        <time>2021-06-23T10:17:44Z</time>
      </trkpt>
      <trkpt lat="47.95413" lon="6.96115">
        <ele>554.29</ele>
        <time>2021-06-23T10:17:47Z</time>
      </trkpt>
      <trkpt lat="47.95388" lon="6.9611">
        <ele>555.77</ele>
        <time>2021-06-23T10:17:50Z</time>
      </trkpt>
      <trkpt lat="47.95346" lon="6.96106">
        <ele>561.32</ele>
        <time>2021-06-23T10:17:53Z</time>
      </trkpt>
      <trkpt lat="47.95159" lon="6.96104">
        <ele>544.17</ele>
        <time>2021-06-23T10:17:57Z</time>
      </trkpt>
      <trkpt lat="47.95047" lon="6.96099">
        <ele>543.99</ele>
        <time>2021-06-23T10:18:00Z</time>
      </trkpt>
      <trkpt lat="47.95008" lon="6.96106">
        <ele>540.38</ele>
        <time>2021-06-23T10:18:03Z</time>
      </trkpt>
      <trkpt lat="47.94923" lon="6.96139">
        <ele>551.35</ele>
        <time>2021-06-23T10:18:07Z</time>
      </trkpt>
      <trkpt lat="47.94886" lon="6.96147">
        <ele>556.75</ele>
        <time>2021-06-23T10:18:10Z</time>
      </trkpt>
      <trkpt lat="47.94829" lon="6.96148">
        <ele>547.97</ele>
        <time>2021-06-23T10:18:13Z</time>
      </trkpt>
      <trkpt lat="47.94701" lon="6.96122">
        <ele>538.77</ele>
        <time>2021-06-23T10:18:16Z</time>
      </trkpt>
      <trkpt lat="47.94644" lon="6.96113">
        <ele>534.78</ele>
        <time>2021-06-23T10:18:20Z</time>
      </trkpt>
      <trkpt lat="47.94469" lon="6.96121">
        <ele>527.33</ele>
        <time>2021-06-23T10:18:23Z</time>
      </trkpt>
      <trkpt lat="47.94443" lon="6.96128">
        <ele>525.67</ele>
        <time>2021-06-23T10:18:26Z</time>
      </trkpt>
      <trkpt lat="47.94306" lon="6.96181">
        <ele>508.99</ele>
        <time>2021-06-23T10:18:30Z</time>
      </trkpt>
      <trkpt lat="47.94272" lon="6.9619">
        <ele>506.26</ele>
        <time>2021-06-23T10:18:33Z</time>
      </trkpt>
      <trkpt lat="47.94239" lon="6.96194">
        <ele>504.61</ele>
        <time>2021-06-23T10:18:36Z</time>
      </trkpt>
      <trkpt lat="47.942" lon="6.96192">
        <ele>503.03</ele>
        <time>2021-06-23T10:18:39Z</time>
      </trkpt>
      <trkpt lat="47.941" lon="6.96158">
        <ele>502.97</ele>
        <time>2021-06-23T10:18:43Z</time>
      </trkpt>
      <trkpt lat="47.94052" lon="6.9615">
        <ele>501.31</ele>
        <time>2021-06-23T10:18:46Z</time>
      </trkpt>
      <trkpt lat="47.94011" lon="6.96153">
        <ele>498.22</ele>
        <time>2021-06-23T10:18:49Z</time>
      </trkpt>
      <trkpt lat="47.94011" lon="6.96153">
        <ele>498.22</ele>
        <time>2021-06-23T10:18:49Z</time>
      </trkpt>
      <trkpt lat="47.93958" lon="6.96164">
        <ele>496.11</ele>
        <time>2021-06-23T10:18:54Z</time>
      </trkpt>
      <trkpt lat="47.93874" lon="6.96198">
        <ele>497</ele>
        <time>2021-06-23T10:19:00Z</time>
      </trkpt>
      <trkpt lat="47.93845" lon="6.96208">
        <ele>497.58</ele>
        <time>2021-06-23T10:19:05Z</time>
      </trkpt>
      <trkpt lat="47.93774" lon="6.96211">
        <ele>499.35</ele>
        <time>2021-06-23T10:19:10Z</time>
      </trkpt>
      <trkpt lat="47.93573" lon="6.96275">
        <ele>496.96</ele>
        <time>2021-06-23T10:19:15Z</time>
      </trkpt>
      <trkpt lat="47.93506" lon="6.96293">
        <ele>498.53</ele>
        <time>2021-06-23T10:19:20Z</time>
      </trkpt>
      <trkpt lat="47.93444" lon="6.96357">
        <ele>498.98</ele>
        <time>2021-06-23T10:19:26Z</time>
      </trkpt>
      <trkpt lat="47.9339" lon="6.96403">
        <ele>498.51</ele>
        <time>2021-06-23T10:19:31Z</time>
      </trkpt>
      <trkpt lat="47.93376" lon="6.96417">
        <ele>498.54</ele>
        <time>2021-06-23T10:19:36Z</time>
      </trkpt>
      <trkpt lat="47.9336" lon="6.96439">
        <ele>498</ele>
        <time>2021-06-23T10:19:41Z</time>
      </trkpt>
      <trkpt lat="47.93309" lon="6.96533">
        <ele>498.9</ele>
        <time>2021-06-23T10:19:46Z</time>
      </trkpt>
      <trkpt lat="47.93298" lon="6.96544">
        <ele>499</ele>
        <time>2021-06-23T10:19:51Z</time>
      </trkpt>
      <trkpt lat="47.93263" lon="6.96569">
        <ele>498.48</ele>
        <time>2021-06-23T10:19:57Z</time>
      </trkpt>
      <trkpt lat="47.93243" lon="6.96581">
        <ele>497.49</ele>
        <time>2021-06-23T10:20:02Z</time>
      </trkpt>
      <trkpt lat="47.9323" lon="6.96583">
        <ele>496.57</ele>
        <time>2021-06-23T10:20:07Z</time>
      </trkpt>
      <trkpt lat="47.93224" lon="6.96581">
        <ele>496.14</ele>
        <time>2021-06-23T10:20:12Z</time>
      </trkpt>
      <trkpt lat="47.93208" lon="6.96568">
        <ele>495.77</ele>
        <time>2021-06-23T10:20:17Z</time>
      </trkpt>
      <trkpt lat="47.93161" lon="6.96522">
        <ele>496</ele>
        <time>2021-06-23T10:20:22Z</time>
      </trkpt>
      <trkpt lat="47.93143" lon="6.96514">
        <ele>496</ele>
        <time>2021-06-23T10:20:28Z</time>
      </trkpt>
      <trkpt lat="47.93082" lon="6.965">
        <ele>493.93</ele>
        <time>2021-06-23T10:20:33Z</time>
      </trkpt>
      <trkpt lat="47.93022" lon="6.965">
        <ele>490.79</ele>
        <time>2021-06-23T10:20:38Z</time>
      </trkpt>
      <trkpt lat="47.92966" lon="6.96503">
        <ele>488.92</ele>
        <time>2021-06-23T10:20:43Z</time>
      </trkpt>
      <trkpt lat="47.92949" lon="6.9651">
        <ele>488.85</ele>
        <time>2021-06-23T10:20:48Z</time>
      </trkpt>
      <trkpt lat="47.92933" lon="6.9653">
        <ele>489.19</ele>
        <time>2021-06-23T10:20:53Z</time>
      </trkpt>
      <trkpt lat="47.92925" lon="6.96547">
        <ele>488.59</ele>
        <time>2021-06-23T10:20:59Z</time>
      </trkpt>
      <trkpt lat="47.92921" lon="6.96559">
        <ele>488.21</ele>
        <time>2021-06-23T10:21:04Z</time>
      </trkpt>
      <trkpt lat="47.92916" lon="6.96596">
        <ele>486.49</ele>
        <time>2021-06-23T10:21:09Z</time>
      </trkpt>
      <trkpt lat="47.92907" lon="6.96672">
        <ele>486.94</ele>
        <time>2021-06-23T10:21:14Z</time>
      </trkpt>
      <trkpt lat="47.92901" lon="6.96696">
        <ele>487.96</ele>
        <time>2021-06-23T10:21:19Z</time>
      </trkpt>
      <trkpt lat="47.9289" lon="6.96712">
        <ele>488.89</ele>
        <time>2021-06-23T10:21:24Z</time>
      </trkpt>
      <trkpt lat="47.92835" lon="6.96778">
        <ele>493.17</ele>
        <time>2021-06-23T10:21:30Z</time>
      </trkpt>
      <trkpt lat="47.92814" lon="6.96798">
        <ele>493.15</ele>
        <time>2021-06-23T10:21:35Z</time>
      </trkpt>
      <trkpt lat="47.92771" lon="6.96816">
        <ele>487.45</ele>
        <time>2021-06-23T10:21:40Z</time>
      </trkpt>
      <trkpt lat="47.92742" lon="6.9682">
        <ele>484.06</ele>
        <time>2021-06-23T10:21:45Z</time>
      </trkpt>
      <trkpt lat="47.9264" lon="6.96811">
        <ele>485.56</ele>
        <time>2021-06-23T10:21:50Z</time>
      </trkpt>
      <trkpt lat="47.92567" lon="6.96833">
        <ele>482.8</ele>
        <time>2021-06-23T10:21:55Z</time>
      </trkpt>
      <trkpt lat="47.92506" lon="6.96843">
        <ele>481.36</ele>
        <time>2021-06-23T10:22:01Z</time>
      </trkpt>
      <trkpt lat="47.92497" lon="6.96848">
        <ele>481.49</ele>
        <time>2021-06-23T10:22:06Z</time>
      </trkpt>
      <trkpt lat="47.92489" lon="6.96858">
        <ele>481.82</ele>
        <time>2021-06-23T10:22:11Z</time>
      </trkpt>
      <trkpt lat="47.92459" lon="6.96904">
        <ele>482.58</ele>
        <time>2021-06-23T10:22:16Z</time>
      </trkpt>
      <trkpt lat="47.92449" lon="6.96916">
        <ele>480.91</ele>
        <time>2021-06-23T10:22:21Z</time>
      </trkpt>
      <trkpt lat="47.92429" lon="6.96935">
        <ele>481.04</ele>
        <time>2021-06-23T10:22:26Z</time>
      </trkpt>
      <trkpt lat="47.92413" lon="6.96944">
        <ele>480.83</ele>
        <time>2021-06-23T10:22:32Z</time>
      </trkpt>
      <trkpt lat="47.92209" lon="6.9701">
        <ele>477.21</ele>
        <time>2021-06-23T10:22:37Z</time>
      </trkpt>
      <trkpt lat="47.91995" lon="6.97071">
        <ele>471.67</ele>
        <time>2021-06-23T10:22:42Z</time>
      </trkpt>
      <trkpt lat="47.91957" lon="6.97085">
        <ele>471.95</ele>
        <time>2021-06-23T10:22:47Z</time>
      </trkpt>
      <trkpt lat="47.91942" lon="6.97092">
        <ele>471.06</ele>
        <time>2021-06-23T10:22:52Z</time>
      </trkpt>
      <trkpt lat="47.91911" lon="6.9711">
        <ele>468.99</ele>
        <time>2021-06-23T10:22:57Z</time>
      </trkpt>
      <trkpt lat="47.91789" lon="6.97209">
        <ele>469.27</ele>
        <time>2021-06-23T10:23:03Z</time>
      </trkpt>
      <trkpt lat="47.91743" lon="6.97255">
        <ele>466.44</ele>
        <time>2021-06-23T10:23:08Z</time>
      </trkpt>
      <trkpt lat="47.9171" lon="6.97294">
        <ele>468.33</ele>
        <time>2021-06-23T10:23:13Z</time>
      </trkpt>
      <trkpt lat="47.91684" lon="6.97318">
        <ele>468.27</ele>
        <time>2021-06-23T10:23:18Z</time>
      </trkpt>
      <trkpt lat="47.91674" lon="6.97326">
        <ele>468.18</ele>
        <time>2021-06-23T10:23:23Z</time>
      </trkpt>
      <trkpt lat="47.91655" lon="6.97337">
        <ele>467.56</ele>
        <time>2021-06-23T10:23:28Z</time>
      </trkpt>
      <trkpt lat="47.91614" lon="6.97355">
        <ele>465.92</ele>
        <time>2021-06-23T10:23:34Z</time>
      </trkpt>
      <trkpt lat="47.91582" lon="6.97374">
        <ele>467.89</ele>
        <time>2021-06-23T10:23:39Z</time>
      </trkpt>
      <trkpt lat="47.91551" lon="6.97393">
        <ele>468.71</ele>
        <time>2021-06-23T10:23:44Z</time>
      </trkpt>
      <trkpt lat="47.91524" lon="6.97405">
        <ele>466.07</ele>
        <time>2021-06-23T10:23:49Z</time>
      </trkpt>
      <trkpt lat="47.91402" lon="6.97421">
        <ele>465.14</ele>
        <time>2021-06-23T10:23:54Z</time>
      </trkpt>
      <trkpt lat="47.91317" lon="6.97436">
        <ele>466.42</ele>
        <time>2021-06-23T10:23:59Z</time>
      </trkpt>
      <trkpt lat="47.91263" lon="6.97451">
        <ele>466.23</ele>
        <time>2021-06-23T10:24:05Z</time>
      </trkpt>
      <trkpt lat="47.91139" lon="6.97493">
        <ele>467.73</ele>
        <time>2021-06-23T10:24:10Z</time>
      </trkpt>
      <trkpt lat="47.91079" lon="6.975">
        <ele>466.85</ele>
        <time>2021-06-23T10:24:15Z</time>
      </trkpt>
      <trkpt lat="47.91053" lon="6.97506">
        <ele>465.62</ele>
        <time>2021-06-23T10:24:20Z</time>
      </trkpt>
      <trkpt lat="47.9096" lon="6.97544">
        <ele>461.57</ele>
        <time>2021-06-23T10:24:25Z</time>
      </trkpt>
      <trkpt lat="47.90949" lon="6.97551">
        <ele>461.17</ele>
        <time>2021-06-23T10:24:30Z</time>
      </trkpt>
      <trkpt lat="47.90911" lon="6.97588">
        <ele>461.2</ele>
        <time>2021-06-23T10:24:36Z</time>
      </trkpt>
      <trkpt lat="47.90879" lon="6.97602">
        <ele>462.57</ele>
        <time>2021-06-23T10:24:41Z</time>
      </trkpt>
      <trkpt lat="47.90869" lon="6.97604">
        <ele>463.02</ele>
        <time>2021-06-23T10:24:46Z</time>
      </trkpt>
      <trkpt lat="47.90837" lon="6.97608">
        <ele>465.2</ele>
        <time>2021-06-23T10:24:51Z</time>
      </trkpt>
      <trkpt lat="47.90817" lon="6.97602">
        <ele>464.83</ele>
        <time>2021-06-23T10:24:56Z</time>
      </trkpt>
      <trkpt lat="47.90785" lon="6.97589">
        <ele>463.36</ele>
        <time>2021-06-23T10:25:01Z</time>
      </trkpt>
      <trkpt lat="47.90717" lon="6.97552">
        <ele>459.05</ele>
        <time>2021-06-23T10:25:07Z</time>
      </trkpt>
      <trkpt lat="47.90602" lon="6.97466">
        <ele>453.18</ele>
        <time>2021-06-23T10:25:12Z</time>
      </trkpt>
      <trkpt lat="47.90591" lon="6.97461">
        <ele>453.62</ele>
        <time>2021-06-23T10:25:17Z</time>
      </trkpt>
      <trkpt lat="47.90501" lon="6.97473">
        <ele>453.26</ele>
        <time>2021-06-23T10:25:22Z</time>
      </trkpt>
      <trkpt lat="47.90469" lon="6.97484">
        <ele>451.49</ele>
        <time>2021-06-23T10:25:27Z</time>
      </trkpt>
      <trkpt lat="47.90446" lon="6.97499">
        <ele>451.03</ele>
        <time>2021-06-23T10:25:33Z</time>
      </trkpt>
      <trkpt lat="47.90417" lon="6.97522">
        <ele>450.8</ele>
        <time>2021-06-23T10:25:38Z</time>
      </trkpt>
      <trkpt lat="47.90392" lon="6.97546">
        <ele>450.81</ele>
        <time>2021-06-23T10:25:43Z</time>
      </trkpt>
      <trkpt lat="47.90351" lon="6.97592">
        <ele>452.16</ele>
        <time>2021-06-23T10:25:48Z</time>
      </trkpt>
      <trkpt lat="47.90241" lon="6.97691">
        <ele>447.72</ele>
        <time>2021-06-23T10:25:53Z</time>
      </trkpt>
      <trkpt lat="47.90224" lon="6.97701">
        <ele>447.13</ele>
        <time>2021-06-23T10:25:58Z</time>
      </trkpt>
      <trkpt lat="47.90185" lon="6.97714">
        <ele>445.96</ele>
        <time>2021-06-23T10:26:04Z</time>
      </trkpt>
      <trkpt lat="47.90158" lon="6.97727">
        <ele>444.88</ele>
        <time>2021-06-23T10:26:09Z</time>
      </trkpt>
      <trkpt lat="47.90138" lon="6.97739">
        <ele>443.75</ele>
        <time>2021-06-23T10:26:14Z</time>
      </trkpt>
      <trkpt lat="47.90112" lon="6.97762">
        <ele>442.46</ele>
        <time>2021-06-23T10:26:19Z</time>
      </trkpt>
      <trkpt lat="47.90098" lon="6.97779">
        <ele>443.04</ele>
        <time>2021-06-23T10:26:24Z</time>
      </trkpt>
      <trkpt lat="47.90023" lon="6.9789">
        <ele>446.02</ele>
        <time>2021-06-23T10:26:29Z</time>
      </trkpt>
      <trkpt lat="47.89949" lon="6.97986">
        <ele>443.17</ele>
        <time>2021-06-23T10:26:35Z</time>
      </trkpt>
      <trkpt lat="47.8993" lon="6.98011">
        <ele>443</ele>
        <time>2021-06-23T10:26:40Z</time>
      </trkpt>
      <trkpt lat="47.8989" lon="6.98074">
        <ele>442.98</ele>
        <time>2021-06-23T10:26:45Z</time>
      </trkpt>
      <trkpt lat="47.89879" lon="6.98087">
        <ele>442.56</ele>
        <time>2021-06-23T10:26:50Z</time>
      </trkpt>
      <trkpt lat="47.89777" lon="6.98244">
        <ele>441.05</ele>
        <time>2021-06-23T10:26:55Z</time>
      </trkpt>
      <trkpt lat="47.89769" lon="6.98261">
        <ele>441.89</ele>
        <time>2021-06-23T10:27:00Z</time>
      </trkpt>
      <trkpt lat="47.89735" lon="6.98406">
        <ele>442.47</ele>
        <time>2021-06-23T10:27:06Z</time>
      </trkpt>
      <trkpt lat="47.89707" lon="6.98473">
        <ele>440.45</ele>
        <time>2021-06-23T10:27:11Z</time>
      </trkpt>
      <trkpt lat="47.89689" lon="6.9845">
        <ele>440</ele>
        <time>2021-06-23T10:27:16Z</time>
      </trkpt>
      <trkpt lat="47.89667" lon="6.98414">
        <ele>440</ele>
        <time>2021-06-23T10:27:22Z</time>
      </trkpt>
      <trkpt lat="47.8965" lon="6.98382">
        <ele>440</ele>
        <time>2021-06-23T10:27:27Z</time>
      </trkpt>
      <trkpt lat="47.8963" lon="6.98337">
        <ele>439.96</ele>
        <time>2021-06-23T10:27:32Z</time>
      </trkpt>
      <trkpt lat="47.89616" lon="6.98287">
        <ele>440.17</ele>
        <time>2021-06-23T10:27:38Z</time>
      </trkpt>
      <trkpt lat="47.8961" lon="6.98274">
        <ele>439.78</ele>
        <time>2021-06-23T10:27:43Z</time>
      </trkpt>
      <trkpt lat="47.89566" lon="6.98248">
        <ele>435.76</ele>
        <time>2021-06-23T10:27:49Z</time>
      </trkpt>
      <trkpt lat="47.89535" lon="6.98219">
        <ele>434.48</ele>
        <time>2021-06-23T10:27:54Z</time>
      </trkpt>
      <trkpt lat="47.89523" lon="6.98212">
        <ele>434.87</ele>
        <time>2021-06-23T10:28:00Z</time>
      </trkpt>
      <trkpt lat="47.89517" lon="6.98211">
        <ele>435.06</ele>
        <time>2021-06-23T10:28:05Z</time>
      </trkpt>
      <trkpt lat="47.89331" lon="6.98245">
        <ele>436.84</ele>
        <time>2021-06-23T10:28:10Z</time>
      </trkpt>
      <trkpt lat="47.89308" lon="6.98247">
        <ele>435.27</ele>
        <time>2021-06-23T10:28:16Z</time>
      </trkpt>
      <trkpt lat="47.89296" lon="6.98243">
        <ele>435.87</ele>
        <time>2021-06-23T10:28:21Z</time>
      </trkpt>
      <trkpt lat="47.8929" lon="6.98239">
        <ele>436.32</ele>
        <time>2021-06-23T10:28:27Z</time>
      </trkpt>
      <trkpt lat="47.89225" lon="6.98173">
        <ele>439.7</ele>
        <time>2021-06-23T10:28:32Z</time>
      </trkpt>
      <trkpt lat="47.89211" lon="6.98169">
        <ele>439.91</ele>
        <time>2021-06-23T10:28:37Z</time>
      </trkpt>
      <trkpt lat="47.89192" lon="6.98169">
        <ele>439.83</ele>
        <time>2021-06-23T10:28:43Z</time>
      </trkpt>
      <trkpt lat="47.89171" lon="6.9817">
        <ele>439.01</ele>
        <time>2021-06-23T10:28:48Z</time>
      </trkpt>
      <trkpt lat="47.89169" lon="6.98152">
        <ele>441.01</ele>
        <time>2021-06-23T10:28:50Z</time>
      </trkpt>
      <trkpt lat="47.89169" lon="6.98152">
        <ele>441.01</ele>
        <time>2021-06-23T10:28:50Z</time>
      </trkpt>
      <trkpt lat="47.89166" lon="6.98108">
        <ele>443.01</ele>
        <time>2021-06-23T10:28:54Z</time>
      </trkpt>
      <trkpt lat="47.89158" lon="6.98057">
        <ele>444.26</ele>
        <time>2021-06-23T10:28:59Z</time>
      </trkpt>
      <trkpt lat="47.89136" lon="6.97921">
        <ele>447.34</ele>
        <time>2021-06-23T10:29:04Z</time>
      </trkpt>
      <trkpt lat="47.89123" lon="6.97822">
        <ele>450.95</ele>
        <time>2021-06-23T10:29:09Z</time>
      </trkpt>
      <trkpt lat="47.89108" lon="6.9773">
        <ele>450.05</ele>
        <time>2021-06-23T10:29:14Z</time>
      </trkpt>
      <trkpt lat="47.8909" lon="6.97672">
        <ele>450.98</ele>
        <time>2021-06-23T10:29:19Z</time>
      </trkpt>
      <trkpt lat="47.89068" lon="6.97619">
        <ele>459.88</ele>
        <time>2021-06-23T10:29:24Z</time>
      </trkpt>
      <trkpt lat="47.89034" lon="6.97557">
        <ele>462.74</ele>
        <time>2021-06-23T10:29:28Z</time>
      </trkpt>
      <trkpt lat="47.88954" lon="6.97402">
        <ele>458.57</ele>
        <time>2021-06-23T10:29:33Z</time>
      </trkpt>
      <trkpt lat="47.88918" lon="6.97325">
        <ele>456.33</ele>
        <time>2021-06-23T10:29:38Z</time>
      </trkpt>
      <trkpt lat="47.88893" lon="6.9728">
        <ele>456.09</ele>
        <time>2021-06-23T10:29:43Z</time>
      </trkpt>
      <trkpt lat="47.88874" lon="6.97251">
        <ele>458.23</ele>
        <time>2021-06-23T10:29:48Z</time>
      </trkpt>
      <trkpt lat="47.88859" lon="6.97225">
        <ele>457.57</ele>
        <time>2021-06-23T10:29:53Z</time>
      </trkpt>
      <trkpt lat="47.88847" lon="6.97198">
        <ele>457.46</ele>
        <time>2021-06-23T10:29:57Z</time>
      </trkpt>
      <trkpt lat="47.888" lon="6.97081">
        <ele>448.24</ele>
        <time>2021-06-23T10:30:02Z</time>
      </trkpt>
      <trkpt lat="47.88777" lon="6.97011">
        <ele>455.5</ele>
        <time>2021-06-23T10:30:07Z</time>
      </trkpt>
      <trkpt lat="47.88751" lon="6.96914">
        <ele>451.49</ele>
        <time>2021-06-23T10:30:12Z</time>
      </trkpt>
      <trkpt lat="47.88742" lon="6.96891">
        <ele>454.01</ele>
        <time>2021-06-23T10:30:17Z</time>
      </trkpt>
      <trkpt lat="47.88693" lon="6.96803">
        <ele>454.32</ele>
        <time>2021-06-23T10:30:22Z</time>
      </trkpt>
      <trkpt lat="47.88682" lon="6.96782">
        <ele>457.2</ele>
        <time>2021-06-23T10:30:27Z</time>
      </trkpt>
      <trkpt lat="47.88674" lon="6.96762">
        <ele>457.49</ele>
        <time>2021-06-23T10:30:31Z</time>
      </trkpt>
      <trkpt lat="47.88659" lon="6.96717">
        <ele>458.76</ele>
        <time>2021-06-23T10:30:36Z</time>
      </trkpt>
      <trkpt lat="47.8864" lon="6.96637">
        <ele>452.57</ele>
        <time>2021-06-23T10:30:41Z</time>
      </trkpt>
      <trkpt lat="47.88624" lon="6.96589">
        <ele>458</ele>
        <time>2021-06-23T10:30:46Z</time>
      </trkpt>
      <trkpt lat="47.88598" lon="6.96528">
        <ele>452.78</ele>
        <time>2021-06-23T10:30:51Z</time>
      </trkpt>
      <trkpt lat="47.88497" lon="6.9631">
        <ele>453.09</ele>
        <time>2021-06-23T10:30:56Z</time>
      </trkpt>
      <trkpt lat="47.88473" lon="6.96245">
        <ele>449.45</ele>
        <time>2021-06-23T10:31:01Z</time>
      </trkpt>
      <trkpt lat="47.88446" lon="6.96157">
        <ele>447.55</ele>
        <time>2021-06-23T10:31:05Z</time>
      </trkpt>
      <trkpt lat="47.88404" lon="6.96017">
        <ele>448.18</ele>
        <time>2021-06-23T10:31:10Z</time>
      </trkpt>
      <trkpt lat="47.88286" lon="6.95612">
        <ele>453.73</ele>
        <time>2021-06-23T10:31:15Z</time>
      </trkpt>
      <trkpt lat="47.88251" lon="6.95511">
        <ele>455.93</ele>
        <time>2021-06-23T10:31:20Z</time>
      </trkpt>
      <trkpt lat="47.88246" lon="6.95482">
        <ele>455.94</ele>
        <time>2021-06-23T10:31:25Z</time>
      </trkpt>
      <trkpt lat="47.88244" lon="6.95459">
        <ele>456</ele>
        <time>2021-06-23T10:31:30Z</time>
      </trkpt>
      <trkpt lat="47.88246" lon="6.95408">
        <ele>456.14</ele>
        <time>2021-06-23T10:31:34Z</time>
      </trkpt>
      <trkpt lat="47.88246" lon="6.95347">
        <ele>453.84</ele>
        <time>2021-06-23T10:31:39Z</time>
      </trkpt>
      <trkpt lat="47.88243" lon="6.95303">
        <ele>451.75</ele>
        <time>2021-06-23T10:31:44Z</time>
      </trkpt>
      <trkpt lat="47.88233" lon="6.95235">
        <ele>452.6</ele>
        <time>2021-06-23T10:31:49Z</time>
      </trkpt>
      <trkpt lat="47.88222" lon="6.95169">
        <ele>453.19</ele>
        <time>2021-06-23T10:31:54Z</time>
      </trkpt>
      <trkpt lat="47.88157" lon="6.94946">
        <ele>462.31</ele>
        <time>2021-06-23T10:31:59Z</time>
      </trkpt>
      <trkpt lat="47.88149" lon="6.94916">
        <ele>465.76</ele>
        <time>2021-06-23T10:32:04Z</time>
      </trkpt>
      <trkpt lat="47.88142" lon="6.94898">
        <ele>467.01</ele>
        <time>2021-06-23T10:32:08Z</time>
      </trkpt>
      <trkpt lat="47.88104" lon="6.94816">
        <ele>475.66</ele>
        <time>2021-06-23T10:32:13Z</time>
      </trkpt>
      <trkpt lat="47.88065" lon="6.94665">
        <ele>478.13</ele>
        <time>2021-06-23T10:32:18Z</time>
      </trkpt>
      <trkpt lat="47.88021" lon="6.9452">
        <ele>490.01</ele>
        <time>2021-06-23T10:32:23Z</time>
      </trkpt>
      <trkpt lat="47.88002" lon="6.94473">
        <ele>491.32</ele>
        <time>2021-06-23T10:32:28Z</time>
      </trkpt>
      <trkpt lat="47.87993" lon="6.94441">
        <ele>493.02</ele>
        <time>2021-06-23T10:32:33Z</time>
      </trkpt>
      <trkpt lat="47.87882" lon="6.93921">
        <ele>512.78</ele>
        <time>2021-06-23T10:32:38Z</time>
      </trkpt>
      <trkpt lat="47.87877" lon="6.9388">
        <ele>513.6</ele>
        <time>2021-06-23T10:32:42Z</time>
      </trkpt>
      <trkpt lat="47.87872" lon="6.93812">
        <ele>512.78</ele>
        <time>2021-06-23T10:32:47Z</time>
      </trkpt>
      <trkpt lat="47.87868" lon="6.93785">
        <ele>513.62</ele>
        <time>2021-06-23T10:32:52Z</time>
      </trkpt>
      <trkpt lat="47.87859" lon="6.93756">
        <ele>515.97</ele>
        <time>2021-06-23T10:32:57Z</time>
      </trkpt>
      <trkpt lat="47.87843" lon="6.93724">
        <ele>520.81</ele>
        <time>2021-06-23T10:33:02Z</time>
      </trkpt>
      <trkpt lat="47.87811" lon="6.93663">
        <ele>526.59</ele>
        <time>2021-06-23T10:33:07Z</time>
      </trkpt>
      <trkpt lat="47.87792" lon="6.93616">
        <ele>531.74</ele>
        <time>2021-06-23T10:33:11Z</time>
      </trkpt>
      <trkpt lat="47.87785" lon="6.93592">
        <ele>532.8</ele>
        <time>2021-06-23T10:33:16Z</time>
      </trkpt>
      <trkpt lat="47.87772" lon="6.93517">
        <ele>534.53</ele>
        <time>2021-06-23T10:33:21Z</time>
      </trkpt>
      <trkpt lat="47.87755" lon="6.93447">
        <ele>537.62</ele>
        <time>2021-06-23T10:33:26Z</time>
      </trkpt>
      <trkpt lat="47.87753" lon="6.93417">
        <ele>536.37</ele>
        <time>2021-06-23T10:33:31Z</time>
      </trkpt>
      <trkpt lat="47.87757" lon="6.93385">
        <ele>542.15</ele>
        <time>2021-06-23T10:33:36Z</time>
      </trkpt>
      <trkpt lat="47.87757" lon="6.93385">
        <ele>542.15</ele>
        <time>2021-06-23T10:33:36Z</time>
      </trkpt>
      <trkpt lat="47.87763" lon="6.93365">
        <ele>544.69</ele>
        <time>2021-06-23T10:33:38Z</time>
      </trkpt>
      <trkpt lat="47.8777" lon="6.9335">
        <ele>547.69</ele>
        <time>2021-06-23T10:33:40Z</time>
      </trkpt>
      <trkpt lat="47.87858" lon="6.93207">
        <ele>561.66</ele>
        <time>2021-06-23T10:33:43Z</time>
      </trkpt>
      <trkpt lat="47.87934" lon="6.93076">
        <ele>563.25</ele>
        <time>2021-06-23T10:33:45Z</time>
      </trkpt>
      <trkpt lat="47.87981" lon="6.93014">
        <ele>566.95</ele>
        <time>2021-06-23T10:33:47Z</time>
      </trkpt>
      <trkpt lat="47.87987" lon="6.93002">
        <ele>569.06</ele>
        <time>2021-06-23T10:33:50Z</time>
      </trkpt>
      <trkpt lat="47.87999" lon="6.92977">
        <ele>571.52</ele>
        <time>2021-06-23T10:33:52Z</time>
      </trkpt>
      <trkpt lat="47.88026" lon="6.92889">
        <ele>578.71</ele>
        <time>2021-06-23T10:33:54Z</time>
      </trkpt>
      <trkpt lat="47.88064" lon="6.92816">
        <ele>583.94</ele>
        <time>2021-06-23T10:33:57Z</time>
      </trkpt>
      <trkpt lat="47.88101" lon="6.92714">
        <ele>583.18</ele>
        <time>2021-06-23T10:33:59Z</time>
      </trkpt>
      <trkpt lat="47.88146" lon="6.92618">
        <ele>585.38</ele>
        <time>2021-06-23T10:34:01Z</time>
      </trkpt>
      <trkpt lat="47.88158" lon="6.92574">
        <ele>588.44</ele>
        <time>2021-06-23T10:34:03Z</time>
      </trkpt>
      <trkpt lat="47.88172" lon="6.92501">
        <ele>592.98</ele>
        <time>2021-06-23T10:34:06Z</time>
      </trkpt>
      <trkpt lat="47.88174" lon="6.92455">
        <ele>598.68</ele>
        <time>2021-06-23T10:34:08Z</time>
      </trkpt>
      <trkpt lat="47.88172" lon="6.92423">
        <ele>602.72</ele>
        <time>2021-06-23T10:34:10Z</time>
      </trkpt>
      <trkpt lat="47.88168" lon="6.9241">
        <ele>605.07</ele>
        <time>2021-06-23T10:34:13Z</time>
      </trkpt>
      <trkpt lat="47.88162" lon="6.92401">
        <ele>607.73</ele>
        <time>2021-06-23T10:34:15Z</time>
      </trkpt>
      <trkpt lat="47.88153" lon="6.92397">
        <ele>609.95</ele>
        <time>2021-06-23T10:34:17Z</time>
      </trkpt>
      <trkpt lat="47.88145" lon="6.92398">
        <ele>611.34</ele>
        <time>2021-06-23T10:34:20Z</time>
      </trkpt>
      <trkpt lat="47.88137" lon="6.92405">
        <ele>611.84</ele>
        <time>2021-06-23T10:34:22Z</time>
      </trkpt>
      <trkpt lat="47.8813" lon="6.92423">
        <ele>612.24</ele>
        <time>2021-06-23T10:34:24Z</time>
      </trkpt>
      <trkpt lat="47.88129" lon="6.92436">
        <ele>612</ele>
        <time>2021-06-23T10:34:27Z</time>
      </trkpt>
      <trkpt lat="47.8814" lon="6.92551">
        <ele>593.57</ele>
        <time>2021-06-23T10:34:29Z</time>
      </trkpt>
      <trkpt lat="47.8814" lon="6.92567">
        <ele>592.03</ele>
        <time>2021-06-23T10:34:31Z</time>
      </trkpt>
      <trkpt lat="47.88138" lon="6.92577">
        <ele>591.99</ele>
        <time>2021-06-23T10:34:34Z</time>
      </trkpt>
      <trkpt lat="47.88134" lon="6.92583">
        <ele>593.12</ele>
        <time>2021-06-23T10:34:36Z</time>
      </trkpt>
      <trkpt lat="47.88127" lon="6.92589">
        <ele>595.84</ele>
        <time>2021-06-23T10:34:38Z</time>
      </trkpt>
      <trkpt lat="47.88118" lon="6.92588">
        <ele>599.99</ele>
        <time>2021-06-23T10:34:41Z</time>
      </trkpt>
      <trkpt lat="47.88111" lon="6.92581">
        <ele>604.78</ele>
        <time>2021-06-23T10:34:43Z</time>
      </trkpt>
      <trkpt lat="47.88108" lon="6.92575">
        <ele>607.17</ele>
        <time>2021-06-23T10:34:45Z</time>
      </trkpt>
      <trkpt lat="47.88106" lon="6.92562">
        <ele>610.18</ele>
        <time>2021-06-23T10:34:47Z</time>
      </trkpt>
      <trkpt lat="47.88113" lon="6.92509">
        <ele>614.65</ele>
        <time>2021-06-23T10:34:50Z</time>
      </trkpt>
      <trkpt lat="47.88112" lon="6.92472">
        <ele>618.47</ele>
        <time>2021-06-23T10:34:52Z</time>
      </trkpt>
      <trkpt lat="47.88106" lon="6.92423">
        <ele>623.16</ele>
        <time>2021-06-23T10:34:54Z</time>
      </trkpt>
      <trkpt lat="47.8809" lon="6.92342">
        <ele>633.93</ele>
        <time>2021-06-23T10:34:57Z</time>
      </trkpt>
      <trkpt lat="47.8809" lon="6.92322">
        <ele>635.7</ele>
        <time>2021-06-23T10:34:59Z</time>
      </trkpt>
      <trkpt lat="47.88093" lon="6.9231">
        <ele>635.3</ele>
        <time>2021-06-23T10:35:01Z</time>
      </trkpt>
      <trkpt lat="47.88096" lon="6.92303">
        <ele>634.14</ele>
        <time>2021-06-23T10:35:04Z</time>
      </trkpt>
      <trkpt lat="47.88106" lon="6.92292">
        <ele>630.53</ele>
        <time>2021-06-23T10:35:06Z</time>
      </trkpt>
      <trkpt lat="47.88147" lon="6.92276">
        <ele>626.81</ele>
        <time>2021-06-23T10:35:08Z</time>
      </trkpt>
      <trkpt lat="47.88179" lon="6.92246">
        <ele>628.72</ele>
        <time>2021-06-23T10:35:11Z</time>
      </trkpt>
      <trkpt lat="47.88189" lon="6.92239">
        <ele>629.65</ele>
        <time>2021-06-23T10:35:13Z</time>
      </trkpt>
      <trkpt lat="47.88199" lon="6.92237">
        <ele>629.93</ele>
        <time>2021-06-23T10:35:15Z</time>
      </trkpt>
      <trkpt lat="47.88212" lon="6.92238">
        <ele>629.73</ele>
        <time>2021-06-23T10:35:18Z</time>
      </trkpt>
      <trkpt lat="47.88219" lon="6.9224">
        <ele>629.15</ele>
        <time>2021-06-23T10:35:20Z</time>
      </trkpt>
      <trkpt lat="47.88247" lon="6.92258">
        <ele>624.04</ele>
        <time>2021-06-23T10:35:22Z</time>
      </trkpt>
      <trkpt lat="47.88257" lon="6.9226">
        <ele>623.82</ele>
        <time>2021-06-23T10:35:24Z</time>
      </trkpt>
      <trkpt lat="47.88268" lon="6.92256">
        <ele>624.28</ele>
        <time>2021-06-23T10:35:27Z</time>
      </trkpt>
      <trkpt lat="47.88274" lon="6.92249">
        <ele>625.06</ele>
        <time>2021-06-23T10:35:29Z</time>
      </trkpt>
      <trkpt lat="47.88278" lon="6.92238">
        <ele>626.71</ele>
        <time>2021-06-23T10:35:31Z</time>
      </trkpt>
      <trkpt lat="47.88279" lon="6.92226">
        <ele>628.48</ele>
        <time>2021-06-23T10:35:34Z</time>
      </trkpt>
      <trkpt lat="47.88275" lon="6.92214">
        <ele>631.29</ele>
        <time>2021-06-23T10:35:36Z</time>
      </trkpt>
      <trkpt lat="47.88265" lon="6.92203">
        <ele>634.55</ele>
        <time>2021-06-23T10:35:38Z</time>
      </trkpt>
      <trkpt lat="47.88256" lon="6.92199">
        <ele>635.68</ele>
        <time>2021-06-23T10:35:41Z</time>
      </trkpt>
      <trkpt lat="47.8822" lon="6.922">
        <ele>636.16</ele>
        <time>2021-06-23T10:35:43Z</time>
      </trkpt>
      <trkpt lat="47.8821" lon="6.92197">
        <ele>636.66</ele>
        <time>2021-06-23T10:35:45Z</time>
      </trkpt>
      <trkpt lat="47.88201" lon="6.9219">
        <ele>637.35</ele>
        <time>2021-06-23T10:35:48Z</time>
      </trkpt>
      <trkpt lat="47.88196" lon="6.9218">
        <ele>638.06</ele>
        <time>2021-06-23T10:35:50Z</time>
      </trkpt>
      <trkpt lat="47.88195" lon="6.92165">
        <ele>639.19</ele>
        <time>2021-06-23T10:35:52Z</time>
      </trkpt>
      <trkpt lat="47.88195" lon="6.92158">
        <ele>640.29</ele>
        <time>2021-06-23T10:35:55Z</time>
      </trkpt>
      <trkpt lat="47.88197" lon="6.92148">
        <ele>641.48</ele>
        <time>2021-06-23T10:35:57Z</time>
      </trkpt>
      <trkpt lat="47.88206" lon="6.92131">
        <ele>642.78</ele>
        <time>2021-06-23T10:35:59Z</time>
      </trkpt>
      <trkpt lat="47.88219" lon="6.92121">
        <ele>642.38</ele>
        <time>2021-06-23T10:36:01Z</time>
      </trkpt>
      <trkpt lat="47.88309" lon="6.92079">
        <ele>647.23</ele>
        <time>2021-06-23T10:36:04Z</time>
      </trkpt>
      <trkpt lat="47.88335" lon="6.92056">
        <ele>646.67</ele>
        <time>2021-06-23T10:36:06Z</time>
      </trkpt>
      <trkpt lat="47.88352" lon="6.92047">
        <ele>645.52</ele>
        <time>2021-06-23T10:36:08Z</time>
      </trkpt>
      <trkpt lat="47.88372" lon="6.92045">
        <ele>644.93</ele>
        <time>2021-06-23T10:36:11Z</time>
      </trkpt>
      <trkpt lat="47.88416" lon="6.92054">
        <ele>646.14</ele>
        <time>2021-06-23T10:36:13Z</time>
      </trkpt>
      <trkpt lat="47.88428" lon="6.92052">
        <ele>646.23</ele>
        <time>2021-06-23T10:36:15Z</time>
      </trkpt>
      <trkpt lat="47.88439" lon="6.92041">
        <ele>647.68</ele>
        <time>2021-06-23T10:36:18Z</time>
      </trkpt>
      <trkpt lat="47.88444" lon="6.92029">
        <ele>649.74</ele>
        <time>2021-06-23T10:36:20Z</time>
      </trkpt>
      <trkpt lat="47.88446" lon="6.92022">
        <ele>650.63</ele>
        <time>2021-06-23T10:36:22Z</time>
      </trkpt>
      <trkpt lat="47.88445" lon="6.92005">
        <ele>652.47</ele>
        <time>2021-06-23T10:36:25Z</time>
      </trkpt>
      <trkpt lat="47.88442" lon="6.91995">
        <ele>653.47</ele>
        <time>2021-06-23T10:36:27Z</time>
      </trkpt>
      <trkpt lat="47.88435" lon="6.91984">
        <ele>655.45</ele>
        <time>2021-06-23T10:36:29Z</time>
      </trkpt>
      <trkpt lat="47.88427" lon="6.91979">
        <ele>657.64</ele>
        <time>2021-06-23T10:36:32Z</time>
      </trkpt>
      <trkpt lat="47.88418" lon="6.91977">
        <ele>659.51</ele>
        <time>2021-06-23T10:36:34Z</time>
      </trkpt>
      <trkpt lat="47.88406" lon="6.91983">
        <ele>658.9</ele>
        <time>2021-06-23T10:36:36Z</time>
      </trkpt>
      <trkpt lat="47.88384" lon="6.92001">
        <ele>655.13</ele>
        <time>2021-06-23T10:36:39Z</time>
      </trkpt>
      <trkpt lat="47.88373" lon="6.92004">
        <ele>655.01</ele>
        <time>2021-06-23T10:36:41Z</time>
      </trkpt>
      <trkpt lat="47.88339" lon="6.92007">
        <ele>656.92</ele>
        <time>2021-06-23T10:36:43Z</time>
      </trkpt>
      <trkpt lat="47.88325" lon="6.92012">
        <ele>656</ele>
        <time>2021-06-23T10:36:45Z</time>
      </trkpt>
      <trkpt lat="47.88297" lon="6.92028">
        <ele>653.7</ele>
        <time>2021-06-23T10:36:48Z</time>
      </trkpt>
      <trkpt lat="47.88282" lon="6.92032">
        <ele>654.05</ele>
        <time>2021-06-23T10:36:50Z</time>
      </trkpt>
      <trkpt lat="47.88157" lon="6.92025">
        <ele>660.34</ele>
        <time>2021-06-23T10:36:52Z</time>
      </trkpt>
      <trkpt lat="47.88136" lon="6.92032">
        <ele>659.84</ele>
        <time>2021-06-23T10:36:55Z</time>
      </trkpt>
      <trkpt lat="47.88099" lon="6.92056">
        <ele>657.42</ele>
        <time>2021-06-23T10:36:57Z</time>
      </trkpt>
      <trkpt lat="47.88088" lon="6.92058">
        <ele>657.84</ele>
        <time>2021-06-23T10:36:59Z</time>
      </trkpt>
      <trkpt lat="47.88076" lon="6.92055">
        <ele>659.22</ele>
        <time>2021-06-23T10:37:02Z</time>
      </trkpt>
      <trkpt lat="47.88065" lon="6.92042">
        <ele>662.82</ele>
        <time>2021-06-23T10:37:04Z</time>
      </trkpt>
      <trkpt lat="47.88063" lon="6.92032">
        <ele>664.54</ele>
        <time>2021-06-23T10:37:06Z</time>
      </trkpt>
      <trkpt lat="47.88062" lon="6.92012">
        <ele>672.76</ele>
        <time>2021-06-23T10:37:09Z</time>
      </trkpt>
      <trkpt lat="47.88068" lon="6.91994">
        <ele>681.77</ele>
        <time>2021-06-23T10:37:11Z</time>
      </trkpt>
      <trkpt lat="47.88071" lon="6.91989">
        <ele>684.28</ele>
        <time>2021-06-23T10:37:13Z</time>
      </trkpt>
      <trkpt lat="47.88078" lon="6.91984">
        <ele>686.83</ele>
        <time>2021-06-23T10:37:16Z</time>
      </trkpt>
      <trkpt lat="47.88088" lon="6.91981">
        <ele>687.99</ele>
        <time>2021-06-23T10:37:18Z</time>
      </trkpt>
      <trkpt lat="47.88108" lon="6.91982">
        <ele>686.21</ele>
        <time>2021-06-23T10:37:20Z</time>
      </trkpt>
      <trkpt lat="47.88181" lon="6.91992">
        <ele>671.64</ele>
        <time>2021-06-23T10:37:22Z</time>
      </trkpt>
      <trkpt lat="47.88216" lon="6.92003">
        <ele>664.36</ele>
        <time>2021-06-23T10:37:25Z</time>
      </trkpt>
      <trkpt lat="47.88229" lon="6.92004">
        <ele>664</ele>
        <time>2021-06-23T10:37:27Z</time>
      </trkpt>
      <trkpt lat="47.88262" lon="6.91989">
        <ele>672.54</ele>
        <time>2021-06-23T10:37:29Z</time>
      </trkpt>
      <trkpt lat="47.88297" lon="6.91965">
        <ele>681.1</ele>
        <time>2021-06-23T10:37:32Z</time>
      </trkpt>
      <trkpt lat="47.8833" lon="6.9194">
        <ele>685.37</ele>
        <time>2021-06-23T10:37:34Z</time>
      </trkpt>
      <trkpt lat="47.88364" lon="6.91904">
        <ele>683.97</ele>
        <time>2021-06-23T10:37:36Z</time>
      </trkpt>
      <trkpt lat="47.88381" lon="6.91882">
        <ele>685.25</ele>
        <time>2021-06-23T10:37:39Z</time>
      </trkpt>
      <trkpt lat="47.8841" lon="6.91835">
        <ele>686.12</ele>
        <time>2021-06-23T10:37:41Z</time>
      </trkpt>
      <trkpt lat="47.88434" lon="6.91804">
        <ele>689.55</ele>
        <time>2021-06-23T10:37:43Z</time>
      </trkpt>
      <trkpt lat="47.88462" lon="6.91776">
        <ele>691.54</ele>
        <time>2021-06-23T10:37:46Z</time>
      </trkpt>
      <trkpt lat="47.88569" lon="6.91687">
        <ele>684.96</ele>
        <time>2021-06-23T10:37:48Z</time>
      </trkpt>
      <trkpt lat="47.88596" lon="6.91655">
        <ele>687.33</ele>
        <time>2021-06-23T10:37:50Z</time>
      </trkpt>
      <trkpt lat="47.88611" lon="6.91631">
        <ele>687.14</ele>
        <time>2021-06-23T10:37:53Z</time>
      </trkpt>
      <trkpt lat="47.88625" lon="6.91602">
        <ele>688.55</ele>
        <time>2021-06-23T10:37:55Z</time>
      </trkpt>
      <trkpt lat="47.88637" lon="6.91566">
        <ele>688.06</ele>
        <time>2021-06-23T10:37:57Z</time>
      </trkpt>
      <trkpt lat="47.88647" lon="6.91524">
        <ele>688.7</ele>
        <time>2021-06-23T10:38:00Z</time>
      </trkpt>
      <trkpt lat="47.8866" lon="6.91443">
        <ele>693.97</ele>
        <time>2021-06-23T10:38:02Z</time>
      </trkpt>
      <trkpt lat="47.88673" lon="6.91384">
        <ele>698.15</ele>
        <time>2021-06-23T10:38:04Z</time>
      </trkpt>
      <trkpt lat="47.8871" lon="6.91265">
        <ele>699.19</ele>
        <time>2021-06-23T10:38:06Z</time>
      </trkpt>
      <trkpt lat="47.88718" lon="6.91221">
        <ele>698.41</ele>
        <time>2021-06-23T10:38:09Z</time>
      </trkpt>
      <trkpt lat="47.88724" lon="6.9118">
        <ele>701.31</ele>
        <time>2021-06-23T10:38:11Z</time>
      </trkpt>
      <trkpt lat="47.88734" lon="6.9104">
        <ele>710.09</ele>
        <time>2021-06-23T10:38:13Z</time>
      </trkpt>
      <trkpt lat="47.88739" lon="6.90994">
        <ele>708.7</ele>
        <time>2021-06-23T10:38:16Z</time>
      </trkpt>
      <trkpt lat="47.88746" lon="6.90948">
        <ele>709.51</ele>
        <time>2021-06-23T10:38:18Z</time>
      </trkpt>
      <trkpt lat="47.8876" lon="6.90902">
        <ele>708.83</ele>
        <time>2021-06-23T10:38:20Z</time>
      </trkpt>
      <trkpt lat="47.88793" lon="6.90803">
        <ele>710.3</ele>
        <time>2021-06-23T10:38:23Z</time>
      </trkpt>
      <trkpt lat="47.88802" lon="6.90771">
        <ele>708.13</ele>
        <time>2021-06-23T10:38:25Z</time>
      </trkpt>
      <trkpt lat="47.88811" lon="6.90716">
        <ele>711.54</ele>
        <time>2021-06-23T10:38:27Z</time>
      </trkpt>
      <trkpt lat="47.88812" lon="6.90684">
        <ele>714.4</ele>
        <time>2021-06-23T10:38:30Z</time>
      </trkpt>
      <trkpt lat="47.88812" lon="6.90636">
        <ele>715.66</ele>
        <time>2021-06-23T10:38:32Z</time>
      </trkpt>
      <trkpt lat="47.88804" lon="6.90518">
        <ele>718.13</ele>
        <time>2021-06-23T10:38:34Z</time>
      </trkpt>
      <trkpt lat="47.88803" lon="6.90477">
        <ele>720.12</ele>
        <time>2021-06-23T10:38:37Z</time>
      </trkpt>
      <trkpt lat="47.88806" lon="6.90439">
        <ele>718.96</ele>
        <time>2021-06-23T10:38:39Z</time>
      </trkpt>
      <trkpt lat="47.88814" lon="6.90376">
        <ele>716.86</ele>
        <time>2021-06-23T10:38:41Z</time>
      </trkpt>
      <trkpt lat="47.88827" lon="6.90311">
        <ele>716.71</ele>
        <time>2021-06-23T10:38:43Z</time>
      </trkpt>
      <trkpt lat="47.8889" lon="6.90093">
        <ele>723.1</ele>
        <time>2021-06-23T10:38:46Z</time>
      </trkpt>
      <trkpt lat="47.88916" lon="6.89996">
        <ele>716.9</ele>
        <time>2021-06-23T10:38:48Z</time>
      </trkpt>
      <trkpt lat="47.88932" lon="6.89925">
        <ele>731.13</ele>
        <time>2021-06-23T10:38:50Z</time>
      </trkpt>
      <trkpt lat="47.88948" lon="6.89812">
        <ele>743.8</ele>
        <time>2021-06-23T10:38:53Z</time>
      </trkpt>
      <trkpt lat="47.88952" lon="6.89772">
        <ele>752.55</ele>
        <time>2021-06-23T10:38:55Z</time>
      </trkpt>
      <trkpt lat="47.88951" lon="6.89714">
        <ele>753.2</ele>
        <time>2021-06-23T10:38:57Z</time>
      </trkpt>
      <trkpt lat="47.88945" lon="6.8952">
        <ele>742.56</ele>
        <time>2021-06-23T10:39:00Z</time>
      </trkpt>
      <trkpt lat="47.88941" lon="6.89473">
        <ele>739.91</ele>
        <time>2021-06-23T10:39:02Z</time>
      </trkpt>
      <trkpt lat="47.88926" lon="6.89366">
        <ele>717.92</ele>
        <time>2021-06-23T10:39:04Z</time>
      </trkpt>
      <trkpt lat="47.88913" lon="6.89238">
        <ele>715.12</ele>
        <time>2021-06-23T10:39:07Z</time>
      </trkpt>
      <trkpt lat="47.88913" lon="6.89164">
        <ele>712.74</ele>
        <time>2021-06-23T10:39:09Z</time>
      </trkpt>
      <trkpt lat="47.88924" lon="6.89016">
        <ele>709.32</ele>
        <time>2021-06-23T10:39:11Z</time>
      </trkpt>
      <trkpt lat="47.88924" lon="6.88966">
        <ele>708.85</ele>
        <time>2021-06-23T10:39:14Z</time>
      </trkpt>
      <trkpt lat="47.88918" lon="6.88913">
        <ele>705.57</ele>
        <time>2021-06-23T10:39:16Z</time>
      </trkpt>
      <trkpt lat="47.88911" lon="6.88876">
        <ele>710.82</ele>
        <time>2021-06-23T10:39:18Z</time>
      </trkpt>
      <trkpt lat="47.88903" lon="6.88845">
        <ele>711.96</ele>
        <time>2021-06-23T10:39:20Z</time>
      </trkpt>
      <trkpt lat="47.88813" lon="6.88565">
        <ele>694.98</ele>
        <time>2021-06-23T10:39:23Z</time>
      </trkpt>
      <trkpt lat="47.88788" lon="6.88483">
        <ele>694.46</ele>
        <time>2021-06-23T10:39:25Z</time>
      </trkpt>
      <trkpt lat="47.88776" lon="6.88426">
        <ele>692.12</ele>
        <time>2021-06-23T10:39:27Z</time>
      </trkpt>
      <trkpt lat="47.88768" lon="6.88366">
        <ele>686.98</ele>
        <time>2021-06-23T10:39:30Z</time>
      </trkpt>
      <trkpt lat="47.88764" lon="6.88318">
        <ele>681.41</ele>
        <time>2021-06-23T10:39:32Z</time>
      </trkpt>
      <trkpt lat="47.88764" lon="6.88284">
        <ele>678.69</ele>
        <time>2021-06-23T10:39:34Z</time>
      </trkpt>
      <trkpt lat="47.88771" lon="6.88183">
        <ele>672.73</ele>
        <time>2021-06-23T10:39:37Z</time>
      </trkpt>
      <trkpt lat="47.88775" lon="6.88136">
        <ele>665.4</ele>
        <time>2021-06-23T10:39:39Z</time>
      </trkpt>
      <trkpt lat="47.88803" lon="6.87872">
        <ele>660.27</ele>
        <time>2021-06-23T10:39:41Z</time>
      </trkpt>
      <trkpt lat="47.88817" lon="6.87773">
        <ele>661.76</ele>
        <time>2021-06-23T10:39:44Z</time>
      </trkpt>
      <trkpt lat="47.88833" lon="6.87716">
        <ele>664.49</ele>
        <time>2021-06-23T10:39:46Z</time>
      </trkpt>
      <trkpt lat="47.88853" lon="6.87661">
        <ele>664.97</ele>
        <time>2021-06-23T10:39:48Z</time>
      </trkpt>
      <trkpt lat="47.88945" lon="6.87491">
        <ele>654.77</ele>
        <time>2021-06-23T10:39:51Z</time>
      </trkpt>
      <trkpt lat="47.88976" lon="6.8741">
        <ele>653.18</ele>
        <time>2021-06-23T10:39:53Z</time>
      </trkpt>
      <trkpt lat="47.88992" lon="6.87355">
        <ele>650.48</ele>
        <time>2021-06-23T10:39:55Z</time>
      </trkpt>
      <trkpt lat="47.89007" lon="6.8728">
        <ele>646.87</ele>
        <time>2021-06-23T10:39:58Z</time>
      </trkpt>
      <trkpt lat="47.89017" lon="6.87205">
        <ele>644.51</ele>
        <time>2021-06-23T10:40:00Z</time>
      </trkpt>
      <trkpt lat="47.89021" lon="6.87137">
        <ele>640.58</ele>
        <time>2021-06-23T10:40:02Z</time>
      </trkpt>
      <trkpt lat="47.89021" lon="6.87067">
        <ele>634.16</ele>
        <time>2021-06-23T10:40:04Z</time>
      </trkpt>
      <trkpt lat="47.89016" lon="6.87013">
        <ele>632.55</ele>
        <time>2021-06-23T10:40:07Z</time>
      </trkpt>
      <trkpt lat="47.89007" lon="6.86955">
        <ele>630.43</ele>
        <time>2021-06-23T10:40:09Z</time>
      </trkpt>
      <trkpt lat="47.89007" lon="6.86955">
        <ele>630.43</ele>
        <time>2021-06-23T10:40:09Z</time>
      </trkpt>
      <trkpt lat="47.88985" lon="6.86814">
        <ele>628.31</ele>
        <time>2021-06-23T10:40:17Z</time>
      </trkpt>
      <trkpt lat="47.88972" lon="6.86745">
        <ele>625.85</ele>
        <time>2021-06-23T10:40:24Z</time>
      </trkpt>
      <trkpt lat="47.88958" lon="6.86682">
        <ele>626.07</ele>
        <time>2021-06-23T10:40:31Z</time>
      </trkpt>
      <trkpt lat="47.88889" lon="6.86447">
        <ele>623.08</ele>
        <time>2021-06-23T10:40:38Z</time>
      </trkpt>
      <trkpt lat="47.88844" lon="6.86246">
        <ele>614.6</ele>
        <time>2021-06-23T10:40:46Z</time>
      </trkpt>
      <trkpt lat="47.88833" lon="6.86204">
        <ele>613.73</ele>
        <time>2021-06-23T10:40:53Z</time>
      </trkpt>
      <trkpt lat="47.88819" lon="6.86161">
        <ele>614.28</ele>
        <time>2021-06-23T10:41:00Z</time>
      </trkpt>
      <trkpt lat="47.88803" lon="6.86121">
        <ele>614.08</ele>
        <time>2021-06-23T10:41:07Z</time>
      </trkpt>
      <trkpt lat="47.8876" lon="6.86024">
        <ele>607.11</ele>
        <time>2021-06-23T10:41:15Z</time>
      </trkpt>
      <trkpt lat="47.88688" lon="6.85853">
        <ele>597.93</ele>
        <time>2021-06-23T10:41:22Z</time>
      </trkpt>
      <trkpt lat="47.88664" lon="6.85778">
        <ele>599.1</ele>
        <time>2021-06-23T10:41:29Z</time>
      </trkpt>
      <trkpt lat="47.88655" lon="6.85735">
        <ele>600</ele>
        <time>2021-06-23T10:41:37Z</time>
      </trkpt>
      <trkpt lat="47.88648" lon="6.85698">
        <ele>599.13</ele>
        <time>2021-06-23T10:41:44Z</time>
      </trkpt>
      <trkpt lat="47.88634" lon="6.85641">
        <ele>597.83</ele>
        <time>2021-06-23T10:41:51Z</time>
      </trkpt>
      <trkpt lat="47.88609" lon="6.85547">
        <ele>597.62</ele>
        <time>2021-06-23T10:41:58Z</time>
      </trkpt>
      <trkpt lat="47.88588" lon="6.85492">
        <ele>595.29</ele>
        <time>2021-06-23T10:42:06Z</time>
      </trkpt>
      <trkpt lat="47.88562" lon="6.8543">
        <ele>595</ele>
        <time>2021-06-23T10:42:13Z</time>
      </trkpt>
      <trkpt lat="47.88542" lon="6.85388">
        <ele>595.48</ele>
        <time>2021-06-23T10:42:20Z</time>
      </trkpt>
      <trkpt lat="47.88526" lon="6.85359">
        <ele>596.15</ele>
        <time>2021-06-23T10:42:27Z</time>
      </trkpt>
      <trkpt lat="47.88519" lon="6.8535">
        <ele>596.59</ele>
        <time>2021-06-23T10:42:35Z</time>
      </trkpt>
      <trkpt lat="47.885" lon="6.85337">
        <ele>597</ele>
        <time>2021-06-23T10:42:42Z</time>
      </trkpt>
      <trkpt lat="47.88328" lon="6.85274">
        <ele>597.03</ele>
        <time>2021-06-23T10:42:49Z</time>
      </trkpt>
      <trkpt lat="47.88298" lon="6.85271">
        <ele>595.96</ele>
        <time>2021-06-23T10:42:57Z</time>
      </trkpt>
      <trkpt lat="47.8819" lon="6.85267">
        <ele>595.17</ele>
        <time>2021-06-23T10:43:04Z</time>
      </trkpt>
      <trkpt lat="47.88159" lon="6.85262">
        <ele>593.47</ele>
        <time>2021-06-23T10:43:11Z</time>
      </trkpt>
      <trkpt lat="47.88138" lon="6.8525">
        <ele>591.97</ele>
        <time>2021-06-23T10:43:18Z</time>
      </trkpt>
      <trkpt lat="47.87935" lon="6.84996">
        <ele>587.49</ele>
        <time>2021-06-23T10:43:26Z</time>
      </trkpt>
      <trkpt lat="47.87845" lon="6.84887">
        <ele>588.52</ele>
        <time>2021-06-23T10:43:33Z</time>
      </trkpt>
      <trkpt lat="47.87691" lon="6.84693">
        <ele>584.93</ele>
        <time>2021-06-23T10:43:40Z</time>
      </trkpt>
      <trkpt lat="47.87666" lon="6.84651">
        <ele>584.56</ele>
        <time>2021-06-23T10:43:48Z</time>
      </trkpt>
      <trkpt lat="47.87658" lon="6.8463">
        <ele>585.04</ele>
        <time>2021-06-23T10:43:55Z</time>
      </trkpt>
      <trkpt lat="47.87583" lon="6.84345">
        <ele>579.4</ele>
        <time>2021-06-23T10:44:02Z</time>
      </trkpt>
      <trkpt lat="47.87549" lon="6.84231">
        <ele>579.52</ele>
        <time>2021-06-23T10:44:09Z</time>
      </trkpt>
      <trkpt lat="47.87392" lon="6.83731">
        <ele>580.1</ele>
        <time>2021-06-23T10:44:17Z</time>
      </trkpt>
      <trkpt lat="47.87364" lon="6.83648">
        <ele>578.34</ele>
        <time>2021-06-23T10:44:24Z</time>
      </trkpt>
      <trkpt lat="47.87353" lon="6.83625">
        <ele>578.76</ele>
        <time>2021-06-23T10:44:31Z</time>
      </trkpt>
      <trkpt lat="47.87338" lon="6.836">
        <ele>579.79</ele>
        <time>2021-06-23T10:44:38Z</time>
      </trkpt>
      <trkpt lat="47.87121" lon="6.83367">
        <ele>569.44</ele>
        <time>2021-06-23T10:44:46Z</time>
      </trkpt>
      <trkpt lat="47.86996" lon="6.83219">
        <ele>568.36</ele>
        <time>2021-06-23T10:44:53Z</time>
      </trkpt>
      <trkpt lat="47.86996" lon="6.83219">
        <ele>568.36</ele>
        <time>2021-06-23T10:44:53Z</time>
      </trkpt>
      <trkpt lat="47.86949" lon="6.83163">
        <ele>567.28</ele>
        <time>2021-06-23T10:44:58Z</time>
      </trkpt>
      <trkpt lat="47.86922" lon="6.83135">
        <ele>568.13</ele>
        <time>2021-06-23T10:45:03Z</time>
      </trkpt>
      <trkpt lat="47.86885" lon="6.83108">
        <ele>570.22</ele>
        <time>2021-06-23T10:45:08Z</time>
      </trkpt>
      <trkpt lat="47.86817" lon="6.83048">
        <ele>571.55</ele>
        <time>2021-06-23T10:45:13Z</time>
      </trkpt>
      <trkpt lat="47.8669" lon="6.82897">
        <ele>567.39</ele>
        <time>2021-06-23T10:45:18Z</time>
      </trkpt>
      <trkpt lat="47.86664" lon="6.82873">
        <ele>566.23</ele>
        <time>2021-06-23T10:45:23Z</time>
      </trkpt>
      <trkpt lat="47.86643" lon="6.82862">
        <ele>562.93</ele>
        <time>2021-06-23T10:45:28Z</time>
      </trkpt>
      <trkpt lat="47.86565" lon="6.82831">
        <ele>563.8</ele>
        <time>2021-06-23T10:45:33Z</time>
      </trkpt>
      <trkpt lat="47.86545" lon="6.82814">
        <ele>562.25</ele>
        <time>2021-06-23T10:45:38Z</time>
      </trkpt>
      <trkpt lat="47.86525" lon="6.82795">
        <ele>561</ele>
        <time>2021-06-23T10:45:43Z</time>
      </trkpt>
      <trkpt lat="47.86499" lon="6.82761">
        <ele>561.61</ele>
        <time>2021-06-23T10:45:48Z</time>
      </trkpt>
      <trkpt lat="47.86461" lon="6.82706">
        <ele>561.7</ele>
        <time>2021-06-23T10:45:53Z</time>
      </trkpt>
      <trkpt lat="47.86442" lon="6.82686">
        <ele>561.42</ele>
        <time>2021-06-23T10:45:58Z</time>
      </trkpt>
      <trkpt lat="47.86428" lon="6.82676">
        <ele>560.98</ele>
        <time>2021-06-23T10:46:03Z</time>
      </trkpt>
      <trkpt lat="47.86378" lon="6.82654">
        <ele>557.8</ele>
        <time>2021-06-23T10:46:08Z</time>
      </trkpt>
      <trkpt lat="47.86228" lon="6.82614">
        <ele>559.19</ele>
        <time>2021-06-23T10:46:13Z</time>
      </trkpt>
      <trkpt lat="47.86188" lon="6.82601">
        <ele>559.76</ele>
        <time>2021-06-23T10:46:18Z</time>
      </trkpt>
      <trkpt lat="47.8609" lon="6.82558">
        <ele>558.63</ele>
        <time>2021-06-23T10:46:23Z</time>
      </trkpt>
      <trkpt lat="47.86008" lon="6.82517">
        <ele>553.97</ele>
        <time>2021-06-23T10:46:28Z</time>
      </trkpt>
      <trkpt lat="47.85837" lon="6.82338">
        <ele>550.88</ele>
        <time>2021-06-23T10:46:33Z</time>
      </trkpt>
      <trkpt lat="47.85825" lon="6.82321">
        <ele>552.21</ele>
        <time>2021-06-23T10:46:38Z</time>
      </trkpt>
      <trkpt lat="47.85767" lon="6.82201">
        <ele>552.33</ele>
        <time>2021-06-23T10:46:43Z</time>
      </trkpt>
      <trkpt lat="47.85732" lon="6.82158">
        <ele>552.51</ele>
        <time>2021-06-23T10:46:48Z</time>
      </trkpt>
      <trkpt lat="47.857" lon="6.82126">
        <ele>554.02</ele>
        <time>2021-06-23T10:46:53Z</time>
      </trkpt>
      <trkpt lat="47.85643" lon="6.82084">
        <ele>554.32</ele>
        <time>2021-06-23T10:46:58Z</time>
      </trkpt>
      <trkpt lat="47.8562" lon="6.82061">
        <ele>551.82</ele>
        <time>2021-06-23T10:47:03Z</time>
      </trkpt>
      <trkpt lat="47.85538" lon="6.8196">
        <ele>548</ele>
        <time>2021-06-23T10:47:08Z</time>
      </trkpt>
      <trkpt lat="47.85538" lon="6.8196">
        <ele>548</ele>
        <time>2021-06-23T10:47:08Z</time>
      </trkpt>
      <trkpt lat="47.85539" lon="6.81962">
        <ele>549.76</ele>
        <time>2021-06-23T10:47:08Z</time>
      </trkpt>
      <trkpt lat="47.85532" lon="6.81975">
        <ele>550.73</ele>
        <time>2021-06-23T10:47:10Z</time>
      </trkpt>
      <trkpt lat="47.85526" lon="6.81994">
        <ele>551.02</ele>
        <time>2021-06-23T10:47:12Z</time>
      </trkpt>
      <trkpt lat="47.85525" lon="6.82092">
        <ele>554.15</ele>
        <time>2021-06-23T10:47:15Z</time>
      </trkpt>
      <trkpt lat="47.85526" lon="6.82117">
        <ele>554.53</ele>
        <time>2021-06-23T10:47:17Z</time>
      </trkpt>
      <trkpt lat="47.85538" lon="6.82182">
        <ele>557.37</ele>
        <time>2021-06-23T10:47:19Z</time>
      </trkpt>
      <trkpt lat="47.85538" lon="6.8219">
        <ele>557.98</ele>
        <time>2021-06-23T10:47:21Z</time>
      </trkpt>
      <trkpt lat="47.85531" lon="6.82239">
        <ele>564.69</ele>
        <time>2021-06-23T10:47:23Z</time>
      </trkpt>
      <trkpt lat="47.85532" lon="6.82248">
        <ele>566.13</ele>
        <time>2021-06-23T10:47:26Z</time>
      </trkpt>
      <trkpt lat="47.8554" lon="6.82267">
        <ele>568.45</ele>
        <time>2021-06-23T10:47:28Z</time>
      </trkpt>
      <trkpt lat="47.8555" lon="6.82279">
        <ele>568.92</ele>
        <time>2021-06-23T10:47:30Z</time>
      </trkpt>
      <trkpt lat="47.85656" lon="6.82383">
        <ele>571.98</ele>
        <time>2021-06-23T10:47:32Z</time>
      </trkpt>
      <trkpt lat="47.85665" lon="6.82395">
        <ele>572.23</ele>
        <time>2021-06-23T10:47:34Z</time>
      </trkpt>
      <trkpt lat="47.85671" lon="6.82408">
        <ele>572.4</ele>
        <time>2021-06-23T10:47:37Z</time>
      </trkpt>
      <trkpt lat="47.85676" lon="6.82424">
        <ele>573.22</ele>
        <time>2021-06-23T10:47:39Z</time>
      </trkpt>
      <trkpt lat="47.85688" lon="6.82492">
        <ele>578.85</ele>
        <time>2021-06-23T10:47:41Z</time>
      </trkpt>
      <trkpt lat="47.85686" lon="6.82513">
        <ele>580.68</ele>
        <time>2021-06-23T10:47:43Z</time>
      </trkpt>
      <trkpt lat="47.85683" lon="6.82519">
        <ele>581.43</ele>
        <time>2021-06-23T10:47:45Z</time>
      </trkpt>
      <trkpt lat="47.85678" lon="6.82524">
        <ele>582.28</ele>
        <time>2021-06-23T10:47:48Z</time>
      </trkpt>
      <trkpt lat="47.85673" lon="6.82525">
        <ele>583.18</ele>
        <time>2021-06-23T10:47:50Z</time>
      </trkpt>
      <trkpt lat="47.85668" lon="6.82524">
        <ele>583.9</ele>
        <time>2021-06-23T10:47:52Z</time>
      </trkpt>
      <trkpt lat="47.85665" lon="6.8252">
        <ele>584.48</ele>
        <time>2021-06-23T10:47:54Z</time>
      </trkpt>
      <trkpt lat="47.85653" lon="6.82493">
        <ele>585.35</ele>
        <time>2021-06-23T10:47:56Z</time>
      </trkpt>
      <trkpt lat="47.8564" lon="6.82471">
        <ele>584.74</ele>
        <time>2021-06-23T10:47:59Z</time>
      </trkpt>
      <trkpt lat="47.85628" lon="6.82457">
        <ele>584.63</ele>
        <time>2021-06-23T10:48:01Z</time>
      </trkpt>
      <trkpt lat="47.85574" lon="6.82424">
        <ele>585.72</ele>
        <time>2021-06-23T10:48:03Z</time>
      </trkpt>
      <trkpt lat="47.85551" lon="6.82413">
        <ele>588.1</ele>
        <time>2021-06-23T10:48:05Z</time>
      </trkpt>
      <trkpt lat="47.85537" lon="6.8241">
        <ele>590.36</ele>
        <time>2021-06-23T10:48:07Z</time>
      </trkpt>
      <trkpt lat="47.85528" lon="6.82411">
        <ele>592.17</ele>
        <time>2021-06-23T10:48:10Z</time>
      </trkpt>
      <trkpt lat="47.85522" lon="6.82414">
        <ele>593.71</ele>
        <time>2021-06-23T10:48:12Z</time>
      </trkpt>
      <trkpt lat="47.85519" lon="6.82422">
        <ele>595.18</ele>
        <time>2021-06-23T10:48:14Z</time>
      </trkpt>
      <trkpt lat="47.85519" lon="6.8243">
        <ele>596.06</ele>
        <time>2021-06-23T10:48:16Z</time>
      </trkpt>
      <trkpt lat="47.85523" lon="6.82438">
        <ele>596.34</ele>
        <time>2021-06-23T10:48:18Z</time>
      </trkpt>
      <trkpt lat="47.85537" lon="6.82455">
        <ele>596.4</ele>
        <time>2021-06-23T10:48:20Z</time>
      </trkpt>
      <trkpt lat="47.85549" lon="6.82474">
        <ele>597.28</ele>
        <time>2021-06-23T10:48:23Z</time>
      </trkpt>
      <trkpt lat="47.85562" lon="6.82505">
        <ele>598.82</ele>
        <time>2021-06-23T10:48:25Z</time>
      </trkpt>
      <trkpt lat="47.85574" lon="6.82549">
        <ele>600.34</ele>
        <time>2021-06-23T10:48:27Z</time>
      </trkpt>
      <trkpt lat="47.85576" lon="6.82565">
        <ele>601.13</ele>
        <time>2021-06-23T10:48:29Z</time>
      </trkpt>
      <trkpt lat="47.85575" lon="6.82574">
        <ele>602.34</ele>
        <time>2021-06-23T10:48:31Z</time>
      </trkpt>
      <trkpt lat="47.85572" lon="6.82581">
        <ele>604</ele>
        <time>2021-06-23T10:48:34Z</time>
      </trkpt>
      <trkpt lat="47.8557" lon="6.82583">
        <ele>604.95</ele>
        <time>2021-06-23T10:48:36Z</time>
      </trkpt>
      <trkpt lat="47.85562" lon="6.82581">
        <ele>606.97</ele>
        <time>2021-06-23T10:48:38Z</time>
      </trkpt>
      <trkpt lat="47.85556" lon="6.82573">
        <ele>607.59</ele>
        <time>2021-06-23T10:48:40Z</time>
      </trkpt>
      <trkpt lat="47.85521" lon="6.82497">
        <ele>606.58</ele>
        <time>2021-06-23T10:48:42Z</time>
      </trkpt>
      <trkpt lat="47.85515" lon="6.8249">
        <ele>606.76</ele>
        <time>2021-06-23T10:48:45Z</time>
      </trkpt>
      <trkpt lat="47.8551" lon="6.82486">
        <ele>607.25</ele>
        <time>2021-06-23T10:48:47Z</time>
      </trkpt>
      <trkpt lat="47.855" lon="6.82487">
        <ele>610.07</ele>
        <time>2021-06-23T10:48:49Z</time>
      </trkpt>
      <trkpt lat="47.85497" lon="6.8249">
        <ele>611.79</ele>
        <time>2021-06-23T10:48:51Z</time>
      </trkpt>
      <trkpt lat="47.85493" lon="6.82503">
        <ele>615.69</ele>
        <time>2021-06-23T10:48:53Z</time>
      </trkpt>
      <trkpt lat="47.85502" lon="6.82543">
        <ele>618.63</ele>
        <time>2021-06-23T10:48:56Z</time>
      </trkpt>
      <trkpt lat="47.85508" lon="6.82592">
        <ele>619.12</ele>
        <time>2021-06-23T10:48:58Z</time>
      </trkpt>
      <trkpt lat="47.85507" lon="6.82646">
        <ele>621.08</ele>
        <time>2021-06-23T10:49:00Z</time>
      </trkpt>
      <trkpt lat="47.85506" lon="6.82661">
        <ele>621.51</ele>
        <time>2021-06-23T10:49:02Z</time>
      </trkpt>
      <trkpt lat="47.85501" lon="6.82682">
        <ele>621.91</ele>
        <time>2021-06-23T10:49:04Z</time>
      </trkpt>
      <trkpt lat="47.8547" lon="6.8276">
        <ele>625.38</ele>
        <time>2021-06-23T10:49:07Z</time>
      </trkpt>
      <trkpt lat="47.8546" lon="6.82782">
        <ele>627.04</ele>
        <time>2021-06-23T10:49:09Z</time>
      </trkpt>
      <trkpt lat="47.85444" lon="6.82805">
        <ele>629.14</ele>
        <time>2021-06-23T10:49:11Z</time>
      </trkpt>
      <trkpt lat="47.8536" lon="6.82914">
        <ele>636.41</ele>
        <time>2021-06-23T10:49:13Z</time>
      </trkpt>
      <trkpt lat="47.8534" lon="6.82944">
        <ele>641.14</ele>
        <time>2021-06-23T10:49:15Z</time>
      </trkpt>
      <trkpt lat="47.85304" lon="6.83006">
        <ele>644.05</ele>
        <time>2021-06-23T10:49:17Z</time>
      </trkpt>
      <trkpt lat="47.85304" lon="6.83006">
        <ele>644.05</ele>
        <time>2021-06-23T10:49:17Z</time>
      </trkpt>
      <trkpt lat="47.85293" lon="6.83021">
        <ele>647.78</ele>
        <time>2021-06-23T10:49:20Z</time>
      </trkpt>
      <trkpt lat="47.85284" lon="6.8302">
        <ele>649.34</ele>
        <time>2021-06-23T10:49:22Z</time>
      </trkpt>
      <trkpt lat="47.8528" lon="6.83011">
        <ele>650.9</ele>
        <time>2021-06-23T10:49:24Z</time>
      </trkpt>
      <trkpt lat="47.85279" lon="6.83003">
        <ele>651.62</ele>
        <time>2021-06-23T10:49:27Z</time>
      </trkpt>
      <trkpt lat="47.8528" lon="6.82957">
        <ele>651.7</ele>
        <time>2021-06-23T10:49:29Z</time>
      </trkpt>
      <trkpt lat="47.85278" lon="6.82926">
        <ele>651.34</ele>
        <time>2021-06-23T10:49:31Z</time>
      </trkpt>
      <trkpt lat="47.85272" lon="6.82901">
        <ele>651.99</ele>
        <time>2021-06-23T10:49:33Z</time>
      </trkpt>
      <trkpt lat="47.8525" lon="6.82837">
        <ele>654.78</ele>
        <time>2021-06-23T10:49:36Z</time>
      </trkpt>
      <trkpt lat="47.8524" lon="6.82794">
        <ele>657.3</ele>
        <time>2021-06-23T10:49:38Z</time>
      </trkpt>
      <trkpt lat="47.85233" lon="6.82781">
        <ele>657.9</ele>
        <time>2021-06-23T10:49:40Z</time>
      </trkpt>
      <trkpt lat="47.8522" lon="6.82773">
        <ele>659.06</ele>
        <time>2021-06-23T10:49:42Z</time>
      </trkpt>
      <trkpt lat="47.85206" lon="6.82774">
        <ele>659.51</ele>
        <time>2021-06-23T10:49:45Z</time>
      </trkpt>
      <trkpt lat="47.85144" lon="6.82794">
        <ele>663.47</ele>
        <time>2021-06-23T10:49:47Z</time>
      </trkpt>
      <trkpt lat="47.85106" lon="6.8281">
        <ele>667.41</ele>
        <time>2021-06-23T10:49:49Z</time>
      </trkpt>
      <trkpt lat="47.85064" lon="6.82844">
        <ele>671.96</ele>
        <time>2021-06-23T10:49:51Z</time>
      </trkpt>
      <trkpt lat="47.85054" lon="6.82849">
        <ele>672.4</ele>
        <time>2021-06-23T10:49:54Z</time>
      </trkpt>
      <trkpt lat="47.85022" lon="6.82856">
        <ele>671.36</ele>
        <time>2021-06-23T10:49:56Z</time>
      </trkpt>
      <trkpt lat="47.85015" lon="6.82859">
        <ele>671.78</ele>
        <time>2021-06-23T10:49:58Z</time>
      </trkpt>
      <trkpt lat="47.85009" lon="6.82866">
        <ele>672.68</ele>
        <time>2021-06-23T10:50:01Z</time>
      </trkpt>
      <trkpt lat="47.85003" lon="6.82876">
        <ele>674.04</ele>
        <time>2021-06-23T10:50:03Z</time>
      </trkpt>
      <trkpt lat="47.84976" lon="6.82952">
        <ele>681.11</ele>
        <time>2021-06-23T10:50:05Z</time>
      </trkpt>
      <trkpt lat="47.84939" lon="6.83043">
        <ele>687.29</ele>
        <time>2021-06-23T10:50:07Z</time>
      </trkpt>
      <trkpt lat="47.84927" lon="6.83067">
        <ele>689.42</ele>
        <time>2021-06-23T10:50:10Z</time>
      </trkpt>
      <trkpt lat="47.84897" lon="6.83116">
        <ele>693.74</ele>
        <time>2021-06-23T10:50:12Z</time>
      </trkpt>
      <trkpt lat="47.8487" lon="6.83164">
        <ele>698.4</ele>
        <time>2021-06-23T10:50:14Z</time>
      </trkpt>
      <trkpt lat="47.84855" lon="6.83179">
        <ele>699.86</ele>
        <time>2021-06-23T10:50:16Z</time>
      </trkpt>
      <trkpt lat="47.84808" lon="6.83209">
        <ele>704.39</ele>
        <time>2021-06-23T10:50:19Z</time>
      </trkpt>
      <trkpt lat="47.84751" lon="6.83232">
        <ele>711.67</ele>
        <time>2021-06-23T10:50:21Z</time>
      </trkpt>
      <trkpt lat="47.84732" lon="6.83236">
        <ele>712.74</ele>
        <time>2021-06-23T10:50:23Z</time>
      </trkpt>
      <trkpt lat="47.84691" lon="6.83238">
        <ele>714.51</ele>
        <time>2021-06-23T10:50:25Z</time>
      </trkpt>
      <trkpt lat="47.84648" lon="6.8325">
        <ele>721.89</ele>
        <time>2021-06-23T10:50:28Z</time>
      </trkpt>
      <trkpt lat="47.84617" lon="6.83253">
        <ele>725.57</ele>
        <time>2021-06-23T10:50:30Z</time>
      </trkpt>
      <trkpt lat="47.84593" lon="6.8326">
        <ele>727.37</ele>
        <time>2021-06-23T10:50:32Z</time>
      </trkpt>
      <trkpt lat="47.84541" lon="6.83295">
        <ele>734.27</ele>
        <time>2021-06-23T10:50:34Z</time>
      </trkpt>
      <trkpt lat="47.84493" lon="6.83321">
        <ele>741.12</ele>
        <time>2021-06-23T10:50:37Z</time>
      </trkpt>
      <trkpt lat="47.84434" lon="6.83383">
        <ele>754.1</ele>
        <time>2021-06-23T10:50:39Z</time>
      </trkpt>
      <trkpt lat="47.84407" lon="6.83405">
        <ele>755.86</ele>
        <time>2021-06-23T10:50:41Z</time>
      </trkpt>
      <trkpt lat="47.84328" lon="6.83437">
        <ele>757.47</ele>
        <time>2021-06-23T10:50:44Z</time>
      </trkpt>
      <trkpt lat="47.84304" lon="6.8346">
        <ele>759.98</ele>
        <time>2021-06-23T10:50:46Z</time>
      </trkpt>
      <trkpt lat="47.84287" lon="6.83479">
        <ele>761.87</ele>
        <time>2021-06-23T10:50:48Z</time>
      </trkpt>
      <trkpt lat="47.84263" lon="6.83509">
        <ele>764.68</ele>
        <time>2021-06-23T10:50:50Z</time>
      </trkpt>
      <trkpt lat="47.84236" lon="6.8355">
        <ele>767.19</ele>
        <time>2021-06-23T10:50:53Z</time>
      </trkpt>
      <trkpt lat="47.84227" lon="6.8356">
        <ele>767.93</ele>
        <time>2021-06-23T10:50:55Z</time>
      </trkpt>
      <trkpt lat="47.84187" lon="6.83603">
        <ele>774.74</ele>
        <time>2021-06-23T10:50:57Z</time>
      </trkpt>
      <trkpt lat="47.8417" lon="6.83615">
        <ele>776.8</ele>
        <time>2021-06-23T10:50:59Z</time>
      </trkpt>
      <trkpt lat="47.84163" lon="6.83614">
        <ele>777.19</ele>
        <time>2021-06-23T10:51:02Z</time>
      </trkpt>
      <trkpt lat="47.84163" lon="6.83614">
        <ele>777.19</ele>
        <time>2021-06-23T10:51:02Z</time>
      </trkpt>
      <trkpt lat="47.84158" lon="6.83609">
        <ele>778.03</ele>
        <time>2021-06-23T10:51:04Z</time>
      </trkpt>
      <trkpt lat="47.84153" lon="6.83599">
        <ele>778.67</ele>
        <time>2021-06-23T10:51:07Z</time>
      </trkpt>
      <trkpt lat="47.84152" lon="6.8359">
        <ele>778.77</ele>
        <time>2021-06-23T10:51:09Z</time>
      </trkpt>
      <trkpt lat="47.84152" lon="6.83572">
        <ele>779.03</ele>
        <time>2021-06-23T10:51:11Z</time>
      </trkpt>
      <trkpt lat="47.84157" lon="6.83531">
        <ele>778.84</ele>
        <time>2021-06-23T10:51:14Z</time>
      </trkpt>
      <trkpt lat="47.8418" lon="6.83387">
        <ele>787.81</ele>
        <time>2021-06-23T10:51:16Z</time>
      </trkpt>
      <trkpt lat="47.84184" lon="6.83358">
        <ele>789.23</ele>
        <time>2021-06-23T10:51:19Z</time>
      </trkpt>
      <trkpt lat="47.84184" lon="6.83326">
        <ele>787.74</ele>
        <time>2021-06-23T10:51:21Z</time>
      </trkpt>
      <trkpt lat="47.84181" lon="6.83311">
        <ele>787.3</ele>
        <time>2021-06-23T10:51:23Z</time>
      </trkpt>
      <trkpt lat="47.84174" lon="6.83294">
        <ele>787.47</ele>
        <time>2021-06-23T10:51:26Z</time>
      </trkpt>
      <trkpt lat="47.84165" lon="6.83285">
        <ele>788.22</ele>
        <time>2021-06-23T10:51:28Z</time>
      </trkpt>
      <trkpt lat="47.84128" lon="6.83266">
        <ele>787.6</ele>
        <time>2021-06-23T10:51:31Z</time>
      </trkpt>
      <trkpt lat="47.84108" lon="6.83249">
        <ele>787.68</ele>
        <time>2021-06-23T10:51:33Z</time>
      </trkpt>
      <trkpt lat="47.84077" lon="6.83215">
        <ele>789.51</ele>
        <time>2021-06-23T10:51:35Z</time>
      </trkpt>
      <trkpt lat="47.84053" lon="6.83194">
        <ele>789.66</ele>
        <time>2021-06-23T10:51:38Z</time>
      </trkpt>
      <trkpt lat="47.84041" lon="6.83179">
        <ele>790.52</ele>
        <time>2021-06-23T10:51:40Z</time>
      </trkpt>
      <trkpt lat="47.84006" lon="6.83122">
        <ele>794.56</ele>
        <time>2021-06-23T10:51:43Z</time>
      </trkpt>
      <trkpt lat="47.83975" lon="6.83066">
        <ele>799.76</ele>
        <time>2021-06-23T10:51:45Z</time>
      </trkpt>
      <trkpt lat="47.83914" lon="6.8292">
        <ele>811.75</ele>
        <time>2021-06-23T10:51:48Z</time>
      </trkpt>
      <trkpt lat="47.839" lon="6.82895">
        <ele>814.05</ele>
        <time>2021-06-23T10:51:50Z</time>
      </trkpt>
      <trkpt lat="47.83796" lon="6.82733">
        <ele>828.51</ele>
        <time>2021-06-23T10:51:52Z</time>
      </trkpt>
      <trkpt lat="47.83747" lon="6.82667">
        <ele>833.75</ele>
        <time>2021-06-23T10:51:55Z</time>
      </trkpt>
      <trkpt lat="47.83728" lon="6.82651">
        <ele>836.97</ele>
        <time>2021-06-23T10:51:57Z</time>
      </trkpt>
      <trkpt lat="47.83712" lon="6.82642">
        <ele>839.59</ele>
        <time>2021-06-23T10:52:00Z</time>
      </trkpt>
      <trkpt lat="47.83695" lon="6.82633">
        <ele>841.24</ele>
        <time>2021-06-23T10:52:02Z</time>
      </trkpt>
      <trkpt lat="47.83684" lon="6.8263">
        <ele>841.64</ele>
        <time>2021-06-23T10:52:04Z</time>
      </trkpt>
      <trkpt lat="47.83666" lon="6.82629">
        <ele>842.58</ele>
        <time>2021-06-23T10:52:07Z</time>
      </trkpt>
      <trkpt lat="47.83653" lon="6.82633">
        <ele>842.62</ele>
        <time>2021-06-23T10:52:09Z</time>
      </trkpt>
      <trkpt lat="47.83604" lon="6.82654">
        <ele>844.43</ele>
        <time>2021-06-23T10:52:12Z</time>
      </trkpt>
      <trkpt lat="47.83604" lon="6.82654">
        <ele>844.43</ele>
        <time>2021-06-23T10:52:12Z</time>
      </trkpt>
      <trkpt lat="47.836" lon="6.82657">
        <ele>844.49</ele>
        <time>2021-06-23T10:52:14Z</time>
      </trkpt>
      <trkpt lat="47.83594" lon="6.82668">
        <ele>845.6</ele>
        <time>2021-06-23T10:52:16Z</time>
      </trkpt>
      <trkpt lat="47.83593" lon="6.82676">
        <ele>846.34</ele>
        <time>2021-06-23T10:52:17Z</time>
      </trkpt>
      <trkpt lat="47.83596" lon="6.82682">
        <ele>847.42</ele>
        <time>2021-06-23T10:52:19Z</time>
      </trkpt>
      <trkpt lat="47.836" lon="6.82687">
        <ele>848.68</ele>
        <time>2021-06-23T10:52:21Z</time>
      </trkpt>
      <trkpt lat="47.83607" lon="6.82687">
        <ele>850.03</ele>
        <time>2021-06-23T10:52:23Z</time>
      </trkpt>
      <trkpt lat="47.83632" lon="6.82666">
        <ele>847.05</ele>
        <time>2021-06-23T10:52:25Z</time>
      </trkpt>
      <trkpt lat="47.83645" lon="6.82663">
        <ele>846.45</ele>
        <time>2021-06-23T10:52:27Z</time>
      </trkpt>
      <trkpt lat="47.83656" lon="6.82666">
        <ele>846.95</ele>
        <time>2021-06-23T10:52:29Z</time>
      </trkpt>
      <trkpt lat="47.83666" lon="6.82674">
        <ele>848.06</ele>
        <time>2021-06-23T10:52:31Z</time>
      </trkpt>
      <trkpt lat="47.83698" lon="6.82726">
        <ele>850.57</ele>
        <time>2021-06-23T10:52:33Z</time>
      </trkpt>
      <trkpt lat="47.83726" lon="6.8279">
        <ele>855.99</ele>
        <time>2021-06-23T10:52:35Z</time>
      </trkpt>
      <trkpt lat="47.83774" lon="6.82937">
        <ele>862.99</ele>
        <time>2021-06-23T10:52:37Z</time>
      </trkpt>
      <trkpt lat="47.83791" lon="6.83002">
        <ele>867.97</ele>
        <time>2021-06-23T10:52:39Z</time>
      </trkpt>
      <trkpt lat="47.83814" lon="6.83145">
        <ele>876.21</ele>
        <time>2021-06-23T10:52:41Z</time>
      </trkpt>
      <trkpt lat="47.83824" lon="6.83202">
        <ele>878.53</ele>
        <time>2021-06-23T10:52:43Z</time>
      </trkpt>
      <trkpt lat="47.83833" lon="6.8327">
        <ele>879.1</ele>
        <time>2021-06-23T10:52:45Z</time>
      </trkpt>
      <trkpt lat="47.83844" lon="6.83346">
        <ele>879.85</ele>
        <time>2021-06-23T10:52:46Z</time>
      </trkpt>
      <trkpt lat="47.83843" lon="6.83411">
        <ele>884.63</ele>
        <time>2021-06-23T10:52:48Z</time>
      </trkpt>
      <trkpt lat="47.83846" lon="6.83442">
        <ele>884.45</ele>
        <time>2021-06-23T10:52:50Z</time>
      </trkpt>
      <trkpt lat="47.83854" lon="6.83484">
        <ele>882.26</ele>
        <time>2021-06-23T10:52:52Z</time>
      </trkpt>
      <trkpt lat="47.83852" lon="6.835">
        <ele>882.03</ele>
        <time>2021-06-23T10:52:54Z</time>
      </trkpt>
      <trkpt lat="47.83848" lon="6.83505">
        <ele>882.47</ele>
        <time>2021-06-23T10:52:56Z</time>
      </trkpt>
      <trkpt lat="47.83838" lon="6.83504">
        <ele>884.7</ele>
        <time>2021-06-23T10:52:58Z</time>
      </trkpt>
      <trkpt lat="47.83833" lon="6.83499">
        <ele>886.09</ele>
        <time>2021-06-23T10:53:00Z</time>
      </trkpt>
      <trkpt lat="47.83806" lon="6.83408">
        <ele>896.7</ele>
        <time>2021-06-23T10:53:02Z</time>
      </trkpt>
      <trkpt lat="47.83792" lon="6.83374">
        <ele>899.37</ele>
        <time>2021-06-23T10:53:04Z</time>
      </trkpt>
      <trkpt lat="47.83747" lon="6.83309">
        <ele>907.6</ele>
        <time>2021-06-23T10:53:06Z</time>
      </trkpt>
      <trkpt lat="47.83739" lon="6.83288">
        <ele>908.41</ele>
        <time>2021-06-23T10:53:08Z</time>
      </trkpt>
      <trkpt lat="47.83734" lon="6.83267">
        <ele>909.67</ele>
        <time>2021-06-23T10:53:10Z</time>
      </trkpt>
      <trkpt lat="47.83726" lon="6.83221">
        <ele>911.68</ele>
        <time>2021-06-23T10:53:12Z</time>
      </trkpt>
      <trkpt lat="47.83716" lon="6.8318">
        <ele>912.68</ele>
        <time>2021-06-23T10:53:13Z</time>
      </trkpt>
      <trkpt lat="47.83706" lon="6.8316">
        <ele>913.67</ele>
        <time>2021-06-23T10:53:15Z</time>
      </trkpt>
      <trkpt lat="47.83697" lon="6.83145">
        <ele>914.85</ele>
        <time>2021-06-23T10:53:17Z</time>
      </trkpt>
      <trkpt lat="47.83677" lon="6.83127">
        <ele>916.84</ele>
        <time>2021-06-23T10:53:19Z</time>
      </trkpt>
      <trkpt lat="47.83654" lon="6.83122">
        <ele>919.24</ele>
        <time>2021-06-23T10:53:21Z</time>
      </trkpt>
      <trkpt lat="47.83644" lon="6.83124">
        <ele>921.15</ele>
        <time>2021-06-23T10:53:23Z</time>
      </trkpt>
      <trkpt lat="47.83625" lon="6.83133">
        <ele>923.38</ele>
        <time>2021-06-23T10:53:25Z</time>
      </trkpt>
      <trkpt lat="47.836" lon="6.83151">
        <ele>924.8</ele>
        <time>2021-06-23T10:53:27Z</time>
      </trkpt>
      <trkpt lat="47.83594" lon="6.83158">
        <ele>925.93</ele>
        <time>2021-06-23T10:53:29Z</time>
      </trkpt>
      <trkpt lat="47.83589" lon="6.83167">
        <ele>928.08</ele>
        <time>2021-06-23T10:53:31Z</time>
      </trkpt>
      <trkpt lat="47.83588" lon="6.83173">
        <ele>929.33</ele>
        <time>2021-06-23T10:53:33Z</time>
      </trkpt>
      <trkpt lat="47.83588" lon="6.8318">
        <ele>930.87</ele>
        <time>2021-06-23T10:53:35Z</time>
      </trkpt>
      <trkpt lat="47.83595" lon="6.83188">
        <ele>932.37</ele>
        <time>2021-06-23T10:53:37Z</time>
      </trkpt>
      <trkpt lat="47.83615" lon="6.83185">
        <ele>931.1</ele>
        <time>2021-06-23T10:53:39Z</time>
      </trkpt>
      <trkpt lat="47.83632" lon="6.83189">
        <ele>930.91</ele>
        <time>2021-06-23T10:53:40Z</time>
      </trkpt>
      <trkpt lat="47.83639" lon="6.83194">
        <ele>931.02</ele>
        <time>2021-06-23T10:53:42Z</time>
      </trkpt>
      <trkpt lat="47.83645" lon="6.83205">
        <ele>930.04</ele>
        <time>2021-06-23T10:53:44Z</time>
      </trkpt>
      <trkpt lat="47.8365" lon="6.83219">
        <ele>929.24</ele>
        <time>2021-06-23T10:53:46Z</time>
      </trkpt>
      <trkpt lat="47.83653" lon="6.83237">
        <ele>929.98</ele>
        <time>2021-06-23T10:53:48Z</time>
      </trkpt>
      <trkpt lat="47.83654" lon="6.83315">
        <ele>935.29</ele>
        <time>2021-06-23T10:53:50Z</time>
      </trkpt>
      <trkpt lat="47.83664" lon="6.83435">
        <ele>933.22</ele>
        <time>2021-06-23T10:53:52Z</time>
      </trkpt>
      <trkpt lat="47.83663" lon="6.83447">
        <ele>934.02</ele>
        <time>2021-06-23T10:53:54Z</time>
      </trkpt>
      <trkpt lat="47.83658" lon="6.83461">
        <ele>938.19</ele>
        <time>2021-06-23T10:53:56Z</time>
      </trkpt>
      <trkpt lat="47.83649" lon="6.8346">
        <ele>942.47</ele>
        <time>2021-06-23T10:53:58Z</time>
      </trkpt>
      <trkpt lat="47.83646" lon="6.83455">
        <ele>943.77</ele>
        <time>2021-06-23T10:54:00Z</time>
      </trkpt>
      <trkpt lat="47.83643" lon="6.83447">
        <ele>944.82</ele>
        <time>2021-06-23T10:54:02Z</time>
      </trkpt>
      <trkpt lat="47.83634" lon="6.83401">
        <ele>945.54</ele>
        <time>2021-06-23T10:54:04Z</time>
      </trkpt>
      <trkpt lat="47.83629" lon="6.83384">
        <ele>946.26</ele>
        <time>2021-06-23T10:54:06Z</time>
      </trkpt>
      <trkpt lat="47.83617" lon="6.83355">
        <ele>948.68</ele>
        <time>2021-06-23T10:54:07Z</time>
      </trkpt>
      <trkpt lat="47.836" lon="6.83329">
        <ele>951.43</ele>
        <time>2021-06-23T10:54:09Z</time>
      </trkpt>
      <trkpt lat="47.8359" lon="6.83322">
        <ele>952.94</ele>
        <time>2021-06-23T10:54:11Z</time>
      </trkpt>
      <trkpt lat="47.83494" lon="6.83286">
        <ele>963.53</ele>
        <time>2021-06-23T10:54:13Z</time>
      </trkpt>
      <trkpt lat="47.83455" lon="6.83278">
        <ele>964.58</ele>
        <time>2021-06-23T10:54:15Z</time>
      </trkpt>
      <trkpt lat="47.83409" lon="6.83272">
        <ele>966.89</ele>
        <time>2021-06-23T10:54:17Z</time>
      </trkpt>
      <trkpt lat="47.83388" lon="6.83263">
        <ele>966.87</ele>
        <time>2021-06-23T10:54:19Z</time>
      </trkpt>
      <trkpt lat="47.83339" lon="6.83227">
        <ele>971.56</ele>
        <time>2021-06-23T10:54:21Z</time>
      </trkpt>
      <trkpt lat="47.83295" lon="6.83212">
        <ele>974.82</ele>
        <time>2021-06-23T10:54:23Z</time>
      </trkpt>
      <trkpt lat="47.83281" lon="6.83212">
        <ele>975.91</ele>
        <time>2021-06-23T10:54:25Z</time>
      </trkpt>
      <trkpt lat="47.83267" lon="6.83216">
        <ele>977.31</ele>
        <time>2021-06-23T10:54:27Z</time>
      </trkpt>
      <trkpt lat="47.83233" lon="6.83237">
        <ele>980.69</ele>
        <time>2021-06-23T10:54:29Z</time>
      </trkpt>
      <trkpt lat="47.83214" lon="6.83245">
        <ele>981.84</ele>
        <time>2021-06-23T10:54:31Z</time>
      </trkpt>
      <trkpt lat="47.83177" lon="6.83259">
        <ele>987.33</ele>
        <time>2021-06-23T10:54:33Z</time>
      </trkpt>
      <trkpt lat="47.83165" lon="6.8326">
        <ele>988.32</ele>
        <time>2021-06-23T10:54:35Z</time>
      </trkpt>
      <trkpt lat="47.83152" lon="6.83267">
        <ele>987.63</ele>
        <time>2021-06-23T10:54:36Z</time>
      </trkpt>
      <trkpt lat="47.83147" lon="6.83273">
        <ele>987.24</ele>
        <time>2021-06-23T10:54:38Z</time>
      </trkpt>
      <trkpt lat="47.83144" lon="6.83283">
        <ele>986.87</ele>
        <time>2021-06-23T10:54:40Z</time>
      </trkpt>
      <trkpt lat="47.83146" lon="6.83293">
        <ele>987.18</ele>
        <time>2021-06-23T10:54:42Z</time>
      </trkpt>
      <trkpt lat="47.83152" lon="6.83299">
        <ele>988.8</ele>
        <time>2021-06-23T10:54:44Z</time>
      </trkpt>
      <trkpt lat="47.83206" lon="6.83303">
        <ele>996.68</ele>
        <time>2021-06-23T10:54:46Z</time>
      </trkpt>
      <trkpt lat="47.83232" lon="6.83311">
        <ele>1000.14</ele>
        <time>2021-06-23T10:54:48Z</time>
      </trkpt>
      <trkpt lat="47.83259" lon="6.83324">
        <ele>1004.49</ele>
        <time>2021-06-23T10:54:50Z</time>
      </trkpt>
      <trkpt lat="47.83318" lon="6.83356">
        <ele>1009.23</ele>
        <time>2021-06-23T10:54:52Z</time>
      </trkpt>
      <trkpt lat="47.83379" lon="6.83408">
        <ele>1007.94</ele>
        <time>2021-06-23T10:54:54Z</time>
      </trkpt>
      <trkpt lat="47.83395" lon="6.83426">
        <ele>1008.55</ele>
        <time>2021-06-23T10:54:56Z</time>
      </trkpt>
      <trkpt lat="47.83417" lon="6.83459">
        <ele>1012.13</ele>
        <time>2021-06-23T10:54:58Z</time>
      </trkpt>
      <trkpt lat="47.83422" lon="6.83472">
        <ele>1012.95</ele>
        <time>2021-06-23T10:55:00Z</time>
      </trkpt>
      <trkpt lat="47.8343" lon="6.83498">
        <ele>1014.41</ele>
        <time>2021-06-23T10:55:02Z</time>
      </trkpt>
      <trkpt lat="47.83445" lon="6.83595">
        <ele>1025.57</ele>
        <time>2021-06-23T10:55:03Z</time>
      </trkpt>
      <trkpt lat="47.83448" lon="6.83656">
        <ele>1032.72</ele>
        <time>2021-06-23T10:55:05Z</time>
      </trkpt>
      <trkpt lat="47.83454" lon="6.83716">
        <ele>1035.64</ele>
        <time>2021-06-23T10:55:07Z</time>
      </trkpt>
      <trkpt lat="47.83456" lon="6.83778">
        <ele>1039.19</ele>
        <time>2021-06-23T10:55:09Z</time>
      </trkpt>
      <trkpt lat="47.83455" lon="6.83839">
        <ele>1043.61</ele>
        <time>2021-06-23T10:55:11Z</time>
      </trkpt>
      <trkpt lat="47.83463" lon="6.83926">
        <ele>1045.39</ele>
        <time>2021-06-23T10:55:13Z</time>
      </trkpt>
      <trkpt lat="47.83467" lon="6.84008">
        <ele>1045.04</ele>
        <time>2021-06-23T10:55:15Z</time>
      </trkpt>
      <trkpt lat="47.83472" lon="6.84044">
        <ele>1042.82</ele>
        <time>2021-06-23T10:55:17Z</time>
      </trkpt>
      <trkpt lat="47.83471" lon="6.84061">
        <ele>1041.63</ele>
        <time>2021-06-23T10:55:19Z</time>
      </trkpt>
      <trkpt lat="47.83468" lon="6.84068">
        <ele>1041.34</ele>
        <time>2021-06-23T10:55:21Z</time>
      </trkpt>
      <trkpt lat="47.83465" lon="6.84071">
        <ele>1041.35</ele>
        <time>2021-06-23T10:55:23Z</time>
      </trkpt>
      <trkpt lat="47.83465" lon="6.84071">
        <ele>1041.35</ele>
        <time>2021-06-23T10:55:23Z</time>
      </trkpt>
      <trkpt lat="47.83459" lon="6.84072">
        <ele>1041.57</ele>
        <time>2021-06-23T10:55:25Z</time>
      </trkpt>
      <trkpt lat="47.83452" lon="6.84068">
        <ele>1042.13</ele>
        <time>2021-06-23T10:55:27Z</time>
      </trkpt>
      <trkpt lat="47.83447" lon="6.84052">
        <ele>1043.18</ele>
        <time>2021-06-23T10:55:30Z</time>
      </trkpt>
      <trkpt lat="47.83443" lon="6.84023">
        <ele>1045.69</ele>
        <time>2021-06-23T10:55:32Z</time>
      </trkpt>
      <trkpt lat="47.83438" lon="6.84005">
        <ele>1047.76</ele>
        <time>2021-06-23T10:55:34Z</time>
      </trkpt>
      <trkpt lat="47.83423" lon="6.83957">
        <ele>1051.22</ele>
        <time>2021-06-23T10:55:37Z</time>
      </trkpt>
      <trkpt lat="47.83412" lon="6.8393">
        <ele>1052.96</ele>
        <time>2021-06-23T10:55:39Z</time>
      </trkpt>
      <trkpt lat="47.83395" lon="6.83894">
        <ele>1056.89</ele>
        <time>2021-06-23T10:55:41Z</time>
      </trkpt>
      <trkpt lat="47.83385" lon="6.83876">
        <ele>1057.5</ele>
        <time>2021-06-23T10:55:44Z</time>
      </trkpt>
      <trkpt lat="47.83371" lon="6.83861">
        <ele>1057.92</ele>
        <time>2021-06-23T10:55:46Z</time>
      </trkpt>
      <trkpt lat="47.83358" lon="6.83859">
        <ele>1058.93</ele>
        <time>2021-06-23T10:55:48Z</time>
      </trkpt>
      <trkpt lat="47.83353" lon="6.83862">
        <ele>1059.68</ele>
        <time>2021-06-23T10:55:51Z</time>
      </trkpt>
      <trkpt lat="47.83348" lon="6.83869">
        <ele>1060.24</ele>
        <time>2021-06-23T10:55:53Z</time>
      </trkpt>
      <trkpt lat="47.83345" lon="6.83881">
        <ele>1060.77</ele>
        <time>2021-06-23T10:55:55Z</time>
      </trkpt>
      <trkpt lat="47.83342" lon="6.83899">
        <ele>1061.25</ele>
        <time>2021-06-23T10:55:58Z</time>
      </trkpt>
      <trkpt lat="47.83338" lon="6.83967">
        <ele>1063.23</ele>
        <time>2021-06-23T10:56:00Z</time>
      </trkpt>
      <trkpt lat="47.83334" lon="6.83983">
        <ele>1064.24</ele>
        <time>2021-06-23T10:56:02Z</time>
      </trkpt>
      <trkpt lat="47.83324" lon="6.84004">
        <ele>1065.6</ele>
        <time>2021-06-23T10:56:05Z</time>
      </trkpt>
      <trkpt lat="47.83316" lon="6.84014">
        <ele>1065.97</ele>
        <time>2021-06-23T10:56:07Z</time>
      </trkpt>
      <trkpt lat="47.83307" lon="6.8402">
        <ele>1067.08</ele>
        <time>2021-06-23T10:56:09Z</time>
      </trkpt>
      <trkpt lat="47.83294" lon="6.84025">
        <ele>1068.31</ele>
        <time>2021-06-23T10:56:12Z</time>
      </trkpt>
      <trkpt lat="47.83277" lon="6.84025">
        <ele>1069.96</ele>
        <time>2021-06-23T10:56:14Z</time>
      </trkpt>
      <trkpt lat="47.83253" lon="6.84021">
        <ele>1071.34</ele>
        <time>2021-06-23T10:56:16Z</time>
      </trkpt>
      <trkpt lat="47.83237" lon="6.84014">
        <ele>1071.21</ele>
        <time>2021-06-23T10:56:19Z</time>
      </trkpt>
      <trkpt lat="47.83178" lon="6.83977">
        <ele>1075.52</ele>
        <time>2021-06-23T10:56:21Z</time>
      </trkpt>
      <trkpt lat="47.83153" lon="6.83964">
        <ele>1077.97</ele>
        <time>2021-06-23T10:56:23Z</time>
      </trkpt>
      <trkpt lat="47.83077" lon="6.83937">
        <ele>1083.65</ele>
        <time>2021-06-23T10:56:26Z</time>
      </trkpt>
      <trkpt lat="47.83044" lon="6.83915">
        <ele>1089.41</ele>
        <time>2021-06-23T10:56:28Z</time>
      </trkpt>
      <trkpt lat="47.83013" lon="6.83886">
        <ele>1091.9</ele>
        <time>2021-06-23T10:56:30Z</time>
      </trkpt>
      <trkpt lat="47.82923" lon="6.83791">
        <ele>1107.87</ele>
        <time>2021-06-23T10:56:33Z</time>
      </trkpt>
      <trkpt lat="47.82902" lon="6.83774">
        <ele>1110.08</ele>
        <time>2021-06-23T10:56:35Z</time>
      </trkpt>
      <trkpt lat="47.82829" lon="6.83728">
        <ele>1117.33</ele>
        <time>2021-06-23T10:56:37Z</time>
      </trkpt>
      <trkpt lat="47.82802" lon="6.83713">
        <ele>1119.82</ele>
        <time>2021-06-23T10:56:40Z</time>
      </trkpt>
      <trkpt lat="47.82783" lon="6.83699">
        <ele>1120.1</ele>
        <time>2021-06-23T10:56:42Z</time>
      </trkpt>
      <trkpt lat="47.82761" lon="6.8368">
        <ele>1122.43</ele>
        <time>2021-06-23T10:56:44Z</time>
      </trkpt>
      <trkpt lat="47.82667" lon="6.83587">
        <ele>1131.25</ele>
        <time>2021-06-23T10:56:47Z</time>
      </trkpt>
      <trkpt lat="47.82586" lon="6.83522">
        <ele>1137.66</ele>
        <time>2021-06-23T10:56:49Z</time>
      </trkpt>
      <trkpt lat="47.82566" lon="6.83509">
        <ele>1138.28</ele>
        <time>2021-06-23T10:56:51Z</time>
      </trkpt>
      <trkpt lat="47.8255" lon="6.83501">
        <ele>1139.24</ele>
        <time>2021-06-23T10:56:54Z</time>
      </trkpt>
      <trkpt lat="47.82498" lon="6.83485">
        <ele>1143.91</ele>
        <time>2021-06-23T10:56:56Z</time>
      </trkpt>
      <trkpt lat="47.82436" lon="6.83487">
        <ele>1148.19</ele>
        <time>2021-06-23T10:56:58Z</time>
      </trkpt>
      <trkpt lat="47.82383" lon="6.83481">
        <ele>1151.51</ele>
        <time>2021-06-23T10:57:01Z</time>
      </trkpt>
      <trkpt lat="47.82319" lon="6.83468">
        <ele>1155.83</ele>
        <time>2021-06-23T10:57:03Z</time>
      </trkpt>
      <trkpt lat="47.82255" lon="6.83452">
        <ele>1162.71</ele>
        <time>2021-06-23T10:57:05Z</time>
      </trkpt>
      <trkpt lat="47.82187" lon="6.83443">
        <ele>1166.61</ele>
        <time>2021-06-23T10:57:08Z</time>
      </trkpt>
      <trkpt lat="47.82156" lon="6.83429">
        <ele>1168.33</ele>
        <time>2021-06-23T10:57:10Z</time>
      </trkpt>
      <trkpt lat="47.82143" lon="6.83425">
        <ele>1169.93</ele>
        <time>2021-06-23T10:57:12Z</time>
      </trkpt>
      <trkpt lat="47.82127" lon="6.83427">
        <ele>1170.98</ele>
        <time>2021-06-23T10:57:15Z</time>
      </trkpt>
      <trkpt lat="47.82118" lon="6.83431">
        <ele>1171.38</ele>
        <time>2021-06-23T10:57:17Z</time>
      </trkpt>
      <trkpt lat="47.82092" lon="6.83446">
        <ele>1171.34</ele>
        <time>2021-06-23T10:57:19Z</time>
      </trkpt>
      <trkpt lat="47.82092" lon="6.83446">
        <ele>1171.34</ele>
        <time>2021-06-23T10:57:19Z</time>
      </trkpt>
      <trkpt lat="47.82054" lon="6.83469">
        <ele>1170.87</ele>
        <time>2021-06-23T10:57:22Z</time>
      </trkpt>
      <trkpt lat="47.82038" lon="6.83486">
        <ele>1171.18</ele>
        <time>2021-06-23T10:57:25Z</time>
      </trkpt>
      <trkpt lat="47.82036" lon="6.83495">
        <ele>1171.24</ele>
        <time>2021-06-23T10:57:28Z</time>
      </trkpt>
      <trkpt lat="47.82037" lon="6.83506">
        <ele>1171.1</ele>
        <time>2021-06-23T10:57:31Z</time>
      </trkpt>
      <trkpt lat="47.82067" lon="6.83599">
        <ele>1168.84</ele>
        <time>2021-06-23T10:57:34Z</time>
      </trkpt>
      <trkpt lat="47.82083" lon="6.83666">
        <ele>1171.92</ele>
        <time>2021-06-23T10:57:37Z</time>
      </trkpt>
      <trkpt lat="47.82086" lon="6.83692">
        <ele>1171.44</ele>
        <time>2021-06-23T10:57:40Z</time>
      </trkpt>
      <trkpt lat="47.82087" lon="6.83717">
        <ele>1170.7</ele>
        <time>2021-06-23T10:57:43Z</time>
      </trkpt>
      <trkpt lat="47.8208" lon="6.83817">
        <ele>1169.84</ele>
        <time>2021-06-23T10:57:46Z</time>
      </trkpt>
      <trkpt lat="47.82071" lon="6.8387">
        <ele>1169.08</ele>
        <time>2021-06-23T10:57:49Z</time>
      </trkpt>
      <trkpt lat="47.82059" lon="6.83914">
        <ele>1167.42</ele>
        <time>2021-06-23T10:57:52Z</time>
      </trkpt>
      <trkpt lat="47.82031" lon="6.83978">
        <ele>1166.43</ele>
        <time>2021-06-23T10:57:55Z</time>
      </trkpt>
      <trkpt lat="47.82005" lon="6.84012">
        <ele>1167.12</ele>
        <time>2021-06-23T10:57:58Z</time>
      </trkpt>
      <trkpt lat="47.81985" lon="6.84031">
        <ele>1166.68</ele>
        <time>2021-06-23T10:58:01Z</time>
      </trkpt>
      <trkpt lat="47.81909" lon="6.84094">
        <ele>1163.78</ele>
        <time>2021-06-23T10:58:04Z</time>
      </trkpt>
      <trkpt lat="47.81865" lon="6.84129">
        <ele>1158.2</ele>
        <time>2021-06-23T10:58:07Z</time>
      </trkpt>
      <trkpt lat="47.81818" lon="6.8416">
        <ele>1154.75</ele>
        <time>2021-06-23T10:58:10Z</time>
      </trkpt>
      <trkpt lat="47.81736" lon="6.84202">
        <ele>1147.87</ele>
        <time>2021-06-23T10:58:13Z</time>
      </trkpt>
      <trkpt lat="47.81689" lon="6.84219">
        <ele>1145.43</ele>
        <time>2021-06-23T10:58:16Z</time>
      </trkpt>
      <trkpt lat="47.81627" lon="6.84228">
        <ele>1140.04</ele>
        <time>2021-06-23T10:58:19Z</time>
      </trkpt>
      <trkpt lat="47.81491" lon="6.84238">
        <ele>1131.13</ele>
        <time>2021-06-23T10:58:22Z</time>
      </trkpt>
      <trkpt lat="47.81467" lon="6.84235">
        <ele>1131.88</ele>
        <time>2021-06-23T10:58:25Z</time>
      </trkpt>
      <trkpt lat="47.81456" lon="6.84231">
        <ele>1132.63</ele>
        <time>2021-06-23T10:58:28Z</time>
      </trkpt>
      <trkpt lat="47.8144" lon="6.84221">
        <ele>1133</ele>
        <time>2021-06-23T10:58:31Z</time>
      </trkpt>
      <trkpt lat="47.81426" lon="6.84209">
        <ele>1133</ele>
        <time>2021-06-23T10:58:34Z</time>
      </trkpt>
      <trkpt lat="47.81365" lon="6.84144">
        <ele>1136.01</ele>
        <time>2021-06-23T10:58:37Z</time>
      </trkpt>
      <trkpt lat="47.81252" lon="6.84036">
        <ele>1134.8</ele>
        <time>2021-06-23T10:58:40Z</time>
      </trkpt>
      <trkpt lat="47.81221" lon="6.84004">
        <ele>1133.49</ele>
        <time>2021-06-23T10:58:43Z</time>
      </trkpt>
      <trkpt lat="47.81199" lon="6.83984">
        <ele>1132.09</ele>
        <time>2021-06-23T10:58:46Z</time>
      </trkpt>
      <trkpt lat="47.81145" lon="6.83949">
        <ele>1126.06</ele>
        <time>2021-06-23T10:58:49Z</time>
      </trkpt>
      <trkpt lat="47.81121" lon="6.83938">
        <ele>1124.44</ele>
        <time>2021-06-23T10:58:52Z</time>
      </trkpt>
      <trkpt lat="47.81095" lon="6.83933">
        <ele>1123.32</ele>
        <time>2021-06-23T10:58:55Z</time>
      </trkpt>
      <trkpt lat="47.81069" lon="6.8393">
        <ele>1121.95</ele>
        <time>2021-06-23T10:58:58Z</time>
      </trkpt>
      <trkpt lat="47.81049" lon="6.83932">
        <ele>1121.36</ele>
        <time>2021-06-23T10:59:01Z</time>
      </trkpt>
      <trkpt lat="47.81032" lon="6.83939">
        <ele>1121.52</ele>
        <time>2021-06-23T10:59:04Z</time>
      </trkpt>
      <trkpt lat="47.80971" lon="6.83974">
        <ele>1112.93</ele>
        <time>2021-06-23T10:59:07Z</time>
      </trkpt>
      <trkpt lat="47.8096" lon="6.8399">
        <ele>1111.82</ele>
        <time>2021-06-23T10:59:10Z</time>
      </trkpt>
      <trkpt lat="47.80951" lon="6.84016">
        <ele>1111.68</ele>
        <time>2021-06-23T10:59:13Z</time>
      </trkpt>
      <trkpt lat="47.80947" lon="6.84045">
        <ele>1113.2</ele>
        <time>2021-06-23T10:59:16Z</time>
      </trkpt>
      <trkpt lat="47.80946" lon="6.84062">
        <ele>1114.03</ele>
        <time>2021-06-23T10:59:19Z</time>
      </trkpt>
      <trkpt lat="47.80953" lon="6.84114">
        <ele>1111.43</ele>
        <time>2021-06-23T10:59:22Z</time>
      </trkpt>
      <trkpt lat="47.80962" lon="6.84147">
        <ele>1109.96</ele>
        <time>2021-06-23T10:59:25Z</time>
      </trkpt>
      <trkpt lat="47.80974" lon="6.8417">
        <ele>1108.69</ele>
        <time>2021-06-23T10:59:28Z</time>
      </trkpt>
      <trkpt lat="47.80981" lon="6.84177">
        <ele>1108.72</ele>
        <time>2021-06-23T10:59:31Z</time>
      </trkpt>
      <trkpt lat="47.81019" lon="6.84201">
        <ele>1110.88</ele>
        <time>2021-06-23T10:59:34Z</time>
      </trkpt>
      <trkpt lat="47.81024" lon="6.84213">
        <ele>1110.9</ele>
        <time>2021-06-23T10:59:37Z</time>
      </trkpt>
      <trkpt lat="47.81025" lon="6.84235">
        <ele>1110.72</ele>
        <time>2021-06-23T10:59:40Z</time>
      </trkpt>
      <trkpt lat="47.81023" lon="6.84285">
        <ele>1109.08</ele>
        <time>2021-06-23T10:59:43Z</time>
      </trkpt>
      <trkpt lat="47.81032" lon="6.844">
        <ele>1104.3</ele>
        <time>2021-06-23T10:59:46Z</time>
      </trkpt>
      <trkpt lat="47.81033" lon="6.84433">
        <ele>1103.88</ele>
        <time>2021-06-23T10:59:49Z</time>
      </trkpt>
      <trkpt lat="47.8103" lon="6.84499">
        <ele>1100.77</ele>
        <time>2021-06-23T10:59:52Z</time>
      </trkpt>
      <trkpt lat="47.81019" lon="6.84605">
        <ele>1086.06</ele>
        <time>2021-06-23T10:59:55Z</time>
      </trkpt>
      <trkpt lat="47.81017" lon="6.84617">
        <ele>1085.7</ele>
        <time>2021-06-23T10:59:58Z</time>
      </trkpt>
      <trkpt lat="47.81003" lon="6.84649">
        <ele>1084.27</ele>
        <time>2021-06-23T11:00:01Z</time>
      </trkpt>
      <trkpt lat="47.80985" lon="6.84674">
        <ele>1084.54</ele>
        <time>2021-06-23T11:00:04Z</time>
      </trkpt>
      <trkpt lat="47.80975" lon="6.84683">
        <ele>1084.71</ele>
        <time>2021-06-23T11:00:07Z</time>
      </trkpt>
      <trkpt lat="47.80964" lon="6.84689">
        <ele>1084.82</ele>
        <time>2021-06-23T11:00:10Z</time>
      </trkpt>
      <trkpt lat="47.80896" lon="6.84706">
        <ele>1082.75</ele>
        <time>2021-06-23T11:00:13Z</time>
      </trkpt>
      <trkpt lat="47.80822" lon="6.84747">
        <ele>1076.92</ele>
        <time>2021-06-23T11:00:16Z</time>
      </trkpt>
      <trkpt lat="47.80787" lon="6.84754">
        <ele>1075.79</ele>
        <time>2021-06-23T11:00:19Z</time>
      </trkpt>
      <trkpt lat="47.80765" lon="6.84753">
        <ele>1074.81</ele>
        <time>2021-06-23T11:00:22Z</time>
      </trkpt>
      <trkpt lat="47.80765" lon="6.84753">
        <ele>1074.81</ele>
        <time>2021-06-23T11:00:22Z</time>
      </trkpt>
      <trkpt lat="47.80743" lon="6.84752">
        <ele>1073.84</ele>
        <time>2021-06-23T11:00:24Z</time>
      </trkpt>
      <trkpt lat="47.80718" lon="6.84747">
        <ele>1074.36</ele>
        <time>2021-06-23T11:00:26Z</time>
      </trkpt>
      <trkpt lat="47.80685" lon="6.84737">
        <ele>1073.45</ele>
        <time>2021-06-23T11:00:28Z</time>
      </trkpt>
      <trkpt lat="47.80642" lon="6.84711">
        <ele>1068.63</ele>
        <time>2021-06-23T11:00:30Z</time>
      </trkpt>
      <trkpt lat="47.80604" lon="6.84691">
        <ele>1062.92</ele>
        <time>2021-06-23T11:00:32Z</time>
      </trkpt>
      <trkpt lat="47.80584" lon="6.84683">
        <ele>1062.61</ele>
        <time>2021-06-23T11:00:34Z</time>
      </trkpt>
      <trkpt lat="47.80529" lon="6.84666">
        <ele>1062.84</ele>
        <time>2021-06-23T11:00:37Z</time>
      </trkpt>
      <trkpt lat="47.80524" lon="6.84662">
        <ele>1062.67</ele>
        <time>2021-06-23T11:00:39Z</time>
      </trkpt>
      <trkpt lat="47.80522" lon="6.84657">
        <ele>1061.69</ele>
        <time>2021-06-23T11:00:41Z</time>
      </trkpt>
      <trkpt lat="47.80524" lon="6.84645">
        <ele>1058.44</ele>
        <time>2021-06-23T11:00:43Z</time>
      </trkpt>
      <trkpt lat="47.80528" lon="6.84641">
        <ele>1056.47</ele>
        <time>2021-06-23T11:00:45Z</time>
      </trkpt>
      <trkpt lat="47.80532" lon="6.84639">
        <ele>1055.47</ele>
        <time>2021-06-23T11:00:47Z</time>
      </trkpt>
      <trkpt lat="47.80572" lon="6.84656">
        <ele>1055.93</ele>
        <time>2021-06-23T11:00:49Z</time>
      </trkpt>
      <trkpt lat="47.80592" lon="6.84662">
        <ele>1056.31</ele>
        <time>2021-06-23T11:00:51Z</time>
      </trkpt>
      <trkpt lat="47.80634" lon="6.84669">
        <ele>1056.59</ele>
        <time>2021-06-23T11:00:53Z</time>
      </trkpt>
      <trkpt lat="47.80671" lon="6.8467">
        <ele>1057.72</ele>
        <time>2021-06-23T11:00:55Z</time>
      </trkpt>
      <trkpt lat="47.80724" lon="6.84666">
        <ele>1053.64</ele>
        <time>2021-06-23T11:00:57Z</time>
      </trkpt>
      <trkpt lat="47.80755" lon="6.84659">
        <ele>1050.4</ele>
        <time>2021-06-23T11:00:59Z</time>
      </trkpt>
      <trkpt lat="47.80777" lon="6.84648">
        <ele>1048.78</ele>
        <time>2021-06-23T11:01:02Z</time>
      </trkpt>
      <trkpt lat="47.8079" lon="6.84635">
        <ele>1048.42</ele>
        <time>2021-06-23T11:01:04Z</time>
      </trkpt>
      <trkpt lat="47.80818" lon="6.84595">
        <ele>1043.67</ele>
        <time>2021-06-23T11:01:06Z</time>
      </trkpt>
      <trkpt lat="47.80859" lon="6.84548">
        <ele>1042.39</ele>
        <time>2021-06-23T11:01:08Z</time>
      </trkpt>
      <trkpt lat="47.809" lon="6.8449">
        <ele>1046.11</ele>
        <time>2021-06-23T11:01:10Z</time>
      </trkpt>
      <trkpt lat="47.80903" lon="6.84482">
        <ele>1047.26</ele>
        <time>2021-06-23T11:01:12Z</time>
      </trkpt>
      <trkpt lat="47.80903" lon="6.84473">
        <ele>1047.03</ele>
        <time>2021-06-23T11:01:14Z</time>
      </trkpt>
      <trkpt lat="47.80898" lon="6.84462">
        <ele>1044.1</ele>
        <time>2021-06-23T11:01:16Z</time>
      </trkpt>
      <trkpt lat="47.80893" lon="6.8446">
        <ele>1042.2</ele>
        <time>2021-06-23T11:01:18Z</time>
      </trkpt>
      <trkpt lat="47.80885" lon="6.84463">
        <ele>1039.14</ele>
        <time>2021-06-23T11:01:20Z</time>
      </trkpt>
      <trkpt lat="47.8087" lon="6.84498">
        <ele>1036.91</ele>
        <time>2021-06-23T11:01:22Z</time>
      </trkpt>
      <trkpt lat="47.80862" lon="6.84511">
        <ele>1036.88</ele>
        <time>2021-06-23T11:01:25Z</time>
      </trkpt>
      <trkpt lat="47.80853" lon="6.84523">
        <ele>1036.98</ele>
        <time>2021-06-23T11:01:27Z</time>
      </trkpt>
      <trkpt lat="47.80801" lon="6.84561">
        <ele>1030.14</ele>
        <time>2021-06-23T11:01:29Z</time>
      </trkpt>
      <trkpt lat="47.80771" lon="6.84592">
        <ele>1032.29</ele>
        <time>2021-06-23T11:01:31Z</time>
      </trkpt>
      <trkpt lat="47.80756" lon="6.84599">
        <ele>1034.07</ele>
        <time>2021-06-23T11:01:33Z</time>
      </trkpt>
      <trkpt lat="47.80739" lon="6.84599">
        <ele>1033.82</ele>
        <time>2021-06-23T11:01:35Z</time>
      </trkpt>
      <trkpt lat="47.80651" lon="6.84574">
        <ele>1022.49</ele>
        <time>2021-06-23T11:01:37Z</time>
      </trkpt>
      <trkpt lat="47.80631" lon="6.84565">
        <ele>1022.23</ele>
        <time>2021-06-23T11:01:39Z</time>
      </trkpt>
      <trkpt lat="47.80582" lon="6.84535">
        <ele>1020.4</ele>
        <time>2021-06-23T11:01:41Z</time>
      </trkpt>
      <trkpt lat="47.80481" lon="6.84452">
        <ele>1014.32</ele>
        <time>2021-06-23T11:01:43Z</time>
      </trkpt>
      <trkpt lat="47.80444" lon="6.8443">
        <ele>1011.82</ele>
        <time>2021-06-23T11:01:45Z</time>
      </trkpt>
      <trkpt lat="47.80387" lon="6.84409">
        <ele>1007.06</ele>
        <time>2021-06-23T11:01:47Z</time>
      </trkpt>
      <trkpt lat="47.80366" lon="6.84405">
        <ele>1004.79</ele>
        <time>2021-06-23T11:01:50Z</time>
      </trkpt>
      <trkpt lat="47.80308" lon="6.844">
        <ele>1004.76</ele>
        <time>2021-06-23T11:01:52Z</time>
      </trkpt>
      <trkpt lat="47.8028" lon="6.84395">
        <ele>1006.01</ele>
        <time>2021-06-23T11:01:54Z</time>
      </trkpt>
      <trkpt lat="47.80248" lon="6.8438">
        <ele>1003.98</ele>
        <time>2021-06-23T11:01:56Z</time>
      </trkpt>
      <trkpt lat="47.80201" lon="6.84353">
        <ele>996.65</ele>
        <time>2021-06-23T11:01:58Z</time>
      </trkpt>
      <trkpt lat="47.80188" lon="6.84351">
        <ele>993.8</ele>
        <time>2021-06-23T11:02:00Z</time>
      </trkpt>
      <trkpt lat="47.80177" lon="6.84353">
        <ele>991.29</ele>
        <time>2021-06-23T11:02:02Z</time>
      </trkpt>
      <trkpt lat="47.80167" lon="6.84359">
        <ele>989.61</ele>
        <time>2021-06-23T11:02:04Z</time>
      </trkpt>
      <trkpt lat="47.8016" lon="6.84365">
        <ele>988.37</ele>
        <time>2021-06-23T11:02:06Z</time>
      </trkpt>
      <trkpt lat="47.80146" lon="6.84387">
        <ele>987.48</ele>
        <time>2021-06-23T11:02:08Z</time>
      </trkpt>
      <trkpt lat="47.80125" lon="6.8444">
        <ele>988.66</ele>
        <time>2021-06-23T11:02:10Z</time>
      </trkpt>
      <trkpt lat="47.80102" lon="6.84502">
        <ele>987.9</ele>
        <time>2021-06-23T11:02:13Z</time>
      </trkpt>
      <trkpt lat="47.80096" lon="6.84515">
        <ele>988.58</ele>
        <time>2021-06-23T11:02:15Z</time>
      </trkpt>
      <trkpt lat="47.80084" lon="6.84532">
        <ele>988.98</ele>
        <time>2021-06-23T11:02:17Z</time>
      </trkpt>
      <trkpt lat="47.80065" lon="6.84546">
        <ele>987.34</ele>
        <time>2021-06-23T11:02:19Z</time>
      </trkpt>
      <trkpt lat="47.80033" lon="6.84556">
        <ele>981.57</ele>
        <time>2021-06-23T11:02:21Z</time>
      </trkpt>
      <trkpt lat="47.80004" lon="6.84563">
        <ele>983.23</ele>
        <time>2021-06-23T11:02:23Z</time>
      </trkpt>
      <trkpt lat="47.79976" lon="6.84565">
        <ele>984.53</ele>
        <time>2021-06-23T11:02:25Z</time>
      </trkpt>
      <trkpt lat="47.79954" lon="6.8456">
        <ele>985.01</ele>
        <time>2021-06-23T11:02:27Z</time>
      </trkpt>
      <trkpt lat="47.79936" lon="6.84549">
        <ele>985.51</ele>
        <time>2021-06-23T11:02:29Z</time>
      </trkpt>
      <trkpt lat="47.79812" lon="6.84389">
        <ele>974</ele>
        <time>2021-06-23T11:02:31Z</time>
      </trkpt>
      <trkpt lat="47.79798" lon="6.84377">
        <ele>973.01</ele>
        <time>2021-06-23T11:02:33Z</time>
      </trkpt>
      <trkpt lat="47.79766" lon="6.8436">
        <ele>971.94</ele>
        <time>2021-06-23T11:02:35Z</time>
      </trkpt>
      <trkpt lat="47.79714" lon="6.84319">
        <ele>966.72</ele>
        <time>2021-06-23T11:02:38Z</time>
      </trkpt>
      <trkpt lat="47.79684" lon="6.843">
        <ele>967.22</ele>
        <time>2021-06-23T11:02:40Z</time>
      </trkpt>
      <trkpt lat="47.79667" lon="6.84286">
        <ele>966.35</ele>
        <time>2021-06-23T11:02:42Z</time>
      </trkpt>
      <trkpt lat="47.79646" lon="6.8426">
        <ele>968.59</ele>
        <time>2021-06-23T11:02:44Z</time>
      </trkpt>
      <trkpt lat="47.79646" lon="6.8426">
        <ele>968.59</ele>
        <time>2021-06-23T11:02:44Z</time>
      </trkpt>
      <trkpt lat="47.79644" lon="6.84255">
        <ele>968.8</ele>
        <time>2021-06-23T11:02:46Z</time>
      </trkpt>
      <trkpt lat="47.79642" lon="6.84244">
        <ele>967.08</ele>
        <time>2021-06-23T11:02:48Z</time>
      </trkpt>
      <trkpt lat="47.79644" lon="6.84235">
        <ele>964.42</ele>
        <time>2021-06-23T11:02:50Z</time>
      </trkpt>
      <trkpt lat="47.79649" lon="6.84229">
        <ele>960.26</ele>
        <time>2021-06-23T11:02:52Z</time>
      </trkpt>
      <trkpt lat="47.79655" lon="6.84228">
        <ele>957.13</ele>
        <time>2021-06-23T11:02:54Z</time>
      </trkpt>
      <trkpt lat="47.7966" lon="6.84231">
        <ele>955.03</ele>
        <time>2021-06-23T11:02:56Z</time>
      </trkpt>
      <trkpt lat="47.79674" lon="6.84254">
        <ele>955.94</ele>
        <time>2021-06-23T11:02:58Z</time>
      </trkpt>
      <trkpt lat="47.79684" lon="6.84268">
        <ele>958.09</ele>
        <time>2021-06-23T11:03:00Z</time>
      </trkpt>
      <trkpt lat="47.79696" lon="6.84278">
        <ele>958.96</ele>
        <time>2021-06-23T11:03:02Z</time>
      </trkpt>
      <trkpt lat="47.79778" lon="6.84314">
        <ele>960.02</ele>
        <time>2021-06-23T11:03:04Z</time>
      </trkpt>
      <trkpt lat="47.79811" lon="6.84319">
        <ele>953.38</ele>
        <time>2021-06-23T11:03:06Z</time>
      </trkpt>
      <trkpt lat="47.79838" lon="6.84329">
        <ele>949.63</ele>
        <time>2021-06-23T11:03:08Z</time>
      </trkpt>
      <trkpt lat="47.79867" lon="6.84347">
        <ele>947.33</ele>
        <time>2021-06-23T11:03:10Z</time>
      </trkpt>
      <trkpt lat="47.79955" lon="6.84425">
        <ele>944.71</ele>
        <time>2021-06-23T11:03:12Z</time>
      </trkpt>
      <trkpt lat="47.79967" lon="6.8443">
        <ele>944.63</ele>
        <time>2021-06-23T11:03:14Z</time>
      </trkpt>
      <trkpt lat="47.79994" lon="6.84433">
        <ele>945.39</ele>
        <time>2021-06-23T11:03:16Z</time>
      </trkpt>
      <trkpt lat="47.80019" lon="6.8443">
        <ele>949.54</ele>
        <time>2021-06-23T11:03:18Z</time>
      </trkpt>
      <trkpt lat="47.80028" lon="6.84425">
        <ele>950.76</ele>
        <time>2021-06-23T11:03:20Z</time>
      </trkpt>
      <trkpt lat="47.80032" lon="6.84421">
        <ele>951.53</ele>
        <time>2021-06-23T11:03:22Z</time>
      </trkpt>
      <trkpt lat="47.80036" lon="6.84405">
        <ele>950.04</ele>
        <time>2021-06-23T11:03:24Z</time>
      </trkpt>
      <trkpt lat="47.80054" lon="6.84292">
        <ele>931.63</ele>
        <time>2021-06-23T11:03:26Z</time>
      </trkpt>
      <trkpt lat="47.80061" lon="6.84262">
        <ele>926.61</ele>
        <time>2021-06-23T11:03:28Z</time>
      </trkpt>
      <trkpt lat="47.80072" lon="6.84229">
        <ele>924.58</ele>
        <time>2021-06-23T11:03:30Z</time>
      </trkpt>
      <trkpt lat="47.8008" lon="6.84213">
        <ele>925.07</ele>
        <time>2021-06-23T11:03:32Z</time>
      </trkpt>
      <trkpt lat="47.80087" lon="6.84202">
        <ele>925.96</ele>
        <time>2021-06-23T11:03:34Z</time>
      </trkpt>
      <trkpt lat="47.80145" lon="6.8414">
        <ele>923.17</ele>
        <time>2021-06-23T11:03:36Z</time>
      </trkpt>
      <trkpt lat="47.80158" lon="6.84131">
        <ele>922.23</ele>
        <time>2021-06-23T11:03:38Z</time>
      </trkpt>
      <trkpt lat="47.8018" lon="6.84125">
        <ele>920.19</ele>
        <time>2021-06-23T11:03:40Z</time>
      </trkpt>
      <trkpt lat="47.80195" lon="6.84123">
        <ele>918.97</ele>
        <time>2021-06-23T11:03:42Z</time>
      </trkpt>
      <trkpt lat="47.8021" lon="6.84125">
        <ele>919.05</ele>
        <time>2021-06-23T11:03:44Z</time>
      </trkpt>
      <trkpt lat="47.8029" lon="6.84157">
        <ele>921.79</ele>
        <time>2021-06-23T11:03:46Z</time>
      </trkpt>
      <trkpt lat="47.80403" lon="6.8416">
        <ele>902.52</ele>
        <time>2021-06-23T11:03:48Z</time>
      </trkpt>
      <trkpt lat="47.80493" lon="6.84179">
        <ele>903.08</ele>
        <time>2021-06-23T11:03:50Z</time>
      </trkpt>
      <trkpt lat="47.8053" lon="6.84197">
        <ele>918.05</ele>
        <time>2021-06-23T11:03:52Z</time>
      </trkpt>
      <trkpt lat="47.80537" lon="6.84196">
        <ele>916.88</ele>
        <time>2021-06-23T11:03:54Z</time>
      </trkpt>
      <trkpt lat="47.80541" lon="6.8419">
        <ele>914.31</ele>
        <time>2021-06-23T11:03:56Z</time>
      </trkpt>
      <trkpt lat="47.80541" lon="6.8419">
        <ele>914.31</ele>
        <time>2021-06-23T11:03:56Z</time>
      </trkpt>
      <trkpt lat="47.80543" lon="6.84187">
        <ele>913.45</ele>
        <time>2021-06-23T11:03:57Z</time>
      </trkpt>
      <trkpt lat="47.80544" lon="6.84175">
        <ele>909.38</ele>
        <time>2021-06-23T11:03:59Z</time>
      </trkpt>
      <trkpt lat="47.80537" lon="6.84164">
        <ele>904.68</ele>
        <time>2021-06-23T11:04:00Z</time>
      </trkpt>
      <trkpt lat="47.80407" lon="6.84123">
        <ele>885.72</ele>
        <time>2021-06-23T11:04:02Z</time>
      </trkpt>
      <trkpt lat="47.80374" lon="6.84107">
        <ele>889.61</ele>
        <time>2021-06-23T11:04:03Z</time>
      </trkpt>
      <trkpt lat="47.80337" lon="6.84085">
        <ele>888.17</ele>
        <time>2021-06-23T11:04:05Z</time>
      </trkpt>
      <trkpt lat="47.80288" lon="6.8407">
        <ele>891.11</ele>
        <time>2021-06-23T11:04:06Z</time>
      </trkpt>
      <trkpt lat="47.80263" lon="6.84056">
        <ele>889.81</ele>
        <time>2021-06-23T11:04:08Z</time>
      </trkpt>
      <trkpt lat="47.8023" lon="6.84028">
        <ele>878.71</ele>
        <time>2021-06-23T11:04:09Z</time>
      </trkpt>
      <trkpt lat="47.80204" lon="6.84017">
        <ele>876.96</ele>
        <time>2021-06-23T11:04:11Z</time>
      </trkpt>
      <trkpt lat="47.80189" lon="6.84013">
        <ele>876.39</ele>
        <time>2021-06-23T11:04:12Z</time>
      </trkpt>
      <trkpt lat="47.80094" lon="6.84006">
        <ele>865.84</ele>
        <time>2021-06-23T11:04:14Z</time>
      </trkpt>
      <trkpt lat="47.80079" lon="6.84006">
        <ele>862.97</ele>
        <time>2021-06-23T11:04:15Z</time>
      </trkpt>
      <trkpt lat="47.80064" lon="6.84011">
        <ele>861.42</ele>
        <time>2021-06-23T11:04:17Z</time>
      </trkpt>
      <trkpt lat="47.80054" lon="6.84017">
        <ele>862.04</ele>
        <time>2021-06-23T11:04:18Z</time>
      </trkpt>
      <trkpt lat="47.80031" lon="6.84044">
        <ele>864.84</ele>
        <time>2021-06-23T11:04:20Z</time>
      </trkpt>
      <trkpt lat="47.80026" lon="6.84046">
        <ele>864.18</ele>
        <time>2021-06-23T11:04:21Z</time>
      </trkpt>
      <trkpt lat="47.79995" lon="6.84046">
        <ele>855.15</ele>
        <time>2021-06-23T11:04:23Z</time>
      </trkpt>
      <trkpt lat="47.79989" lon="6.84051">
        <ele>855.74</ele>
        <time>2021-06-23T11:04:25Z</time>
      </trkpt>
      <trkpt lat="47.79985" lon="6.84058">
        <ele>856.86</ele>
        <time>2021-06-23T11:04:26Z</time>
      </trkpt>
      <trkpt lat="47.7998" lon="6.8407">
        <ele>858.39</ele>
        <time>2021-06-23T11:04:28Z</time>
      </trkpt>
      <trkpt lat="47.79974" lon="6.84101">
        <ele>862.72</ele>
        <time>2021-06-23T11:04:29Z</time>
      </trkpt>
      <trkpt lat="47.7997" lon="6.84111">
        <ele>864.16</ele>
        <time>2021-06-23T11:04:31Z</time>
      </trkpt>
      <trkpt lat="47.79964" lon="6.84115">
        <ele>865.71</ele>
        <time>2021-06-23T11:04:32Z</time>
      </trkpt>
      <trkpt lat="47.79958" lon="6.84115">
        <ele>866.26</ele>
        <time>2021-06-23T11:04:34Z</time>
      </trkpt>
      <trkpt lat="47.79953" lon="6.8411">
        <ele>865.88</ele>
        <time>2021-06-23T11:04:35Z</time>
      </trkpt>
      <trkpt lat="47.79947" lon="6.841">
        <ele>864.81</ele>
        <time>2021-06-23T11:04:37Z</time>
      </trkpt>
      <trkpt lat="47.79936" lon="6.84075">
        <ele>862.93</ele>
        <time>2021-06-23T11:04:38Z</time>
      </trkpt>
      <trkpt lat="47.79918" lon="6.84044">
        <ele>859.5</ele>
        <time>2021-06-23T11:04:40Z</time>
      </trkpt>
      <trkpt lat="47.79898" lon="6.84021">
        <ele>855.67</ele>
        <time>2021-06-23T11:04:41Z</time>
      </trkpt>
      <trkpt lat="47.79878" lon="6.84008">
        <ele>853.13</ele>
        <time>2021-06-23T11:04:43Z</time>
      </trkpt>
      <trkpt lat="47.79868" lon="6.84004">
        <ele>851.67</ele>
        <time>2021-06-23T11:04:44Z</time>
      </trkpt>
      <trkpt lat="47.79858" lon="6.84002">
        <ele>851.14</ele>
        <time>2021-06-23T11:04:46Z</time>
      </trkpt>
      <trkpt lat="47.79828" lon="6.84002">
        <ele>856.26</ele>
        <time>2021-06-23T11:04:47Z</time>
      </trkpt>
      <trkpt lat="47.79822" lon="6.84">
        <ele>856.41</ele>
        <time>2021-06-23T11:04:49Z</time>
      </trkpt>
      <trkpt lat="47.79814" lon="6.83991">
        <ele>854.78</ele>
        <time>2021-06-23T11:04:50Z</time>
      </trkpt>
      <trkpt lat="47.79801" lon="6.83958">
        <ele>844.19</ele>
        <time>2021-06-23T11:04:52Z</time>
      </trkpt>
      <trkpt lat="47.79793" lon="6.83944">
        <ele>840.19</ele>
        <time>2021-06-23T11:04:53Z</time>
      </trkpt>
      <trkpt lat="47.79786" lon="6.83938">
        <ele>838.84</ele>
        <time>2021-06-23T11:04:55Z</time>
      </trkpt>
      <trkpt lat="47.7977" lon="6.8393">
        <ele>838.18</ele>
        <time>2021-06-23T11:04:57Z</time>
      </trkpt>
      <trkpt lat="47.7975" lon="6.8393">
        <ele>842.72</ele>
        <time>2021-06-23T11:04:58Z</time>
      </trkpt>
      <trkpt lat="47.79731" lon="6.83935">
        <ele>846.44</ele>
        <time>2021-06-23T11:05:00Z</time>
      </trkpt>
      <trkpt lat="47.7972" lon="6.83933">
        <ele>846.32</ele>
        <time>2021-06-23T11:05:01Z</time>
      </trkpt>
      <trkpt lat="47.79715" lon="6.83928">
        <ele>844.66</ele>
        <time>2021-06-23T11:05:03Z</time>
      </trkpt>
      <trkpt lat="47.79713" lon="6.83922">
        <ele>842.38</ele>
        <time>2021-06-23T11:05:04Z</time>
      </trkpt>
      <trkpt lat="47.79714" lon="6.83908">
        <ele>837.31</ele>
        <time>2021-06-23T11:05:06Z</time>
      </trkpt>
      <trkpt lat="47.79719" lon="6.83901">
        <ele>834.65</ele>
        <time>2021-06-23T11:05:07Z</time>
      </trkpt>
      <trkpt lat="47.79729" lon="6.839">
        <ele>833.13</ele>
        <time>2021-06-23T11:05:09Z</time>
      </trkpt>
      <trkpt lat="47.79748" lon="6.83905">
        <ele>832.67</ele>
        <time>2021-06-23T11:05:10Z</time>
      </trkpt>
      <trkpt lat="47.79794" lon="6.83913">
        <ele>826.92</ele>
        <time>2021-06-23T11:05:12Z</time>
      </trkpt>
      <trkpt lat="47.79811" lon="6.83919">
        <ele>827.58</ele>
        <time>2021-06-23T11:05:13Z</time>
      </trkpt>
      <trkpt lat="47.79832" lon="6.83942">
        <ele>832.64</ele>
        <time>2021-06-23T11:05:15Z</time>
      </trkpt>
      <trkpt lat="47.79838" lon="6.83944">
        <ele>832.79</ele>
        <time>2021-06-23T11:05:16Z</time>
      </trkpt>
      <trkpt lat="47.79867" lon="6.83938">
        <ele>830.28</ele>
        <time>2021-06-23T11:05:18Z</time>
      </trkpt>
      <trkpt lat="47.79891" lon="6.83938">
        <ele>831.55</ele>
        <time>2021-06-23T11:05:19Z</time>
      </trkpt>
      <trkpt lat="47.79907" lon="6.83944">
        <ele>831.27</ele>
        <time>2021-06-23T11:05:21Z</time>
      </trkpt>
      <trkpt lat="47.79921" lon="6.83953">
        <ele>831.44</ele>
        <time>2021-06-23T11:05:22Z</time>
      </trkpt>
      <trkpt lat="47.7993" lon="6.83955">
        <ele>828.84</ele>
        <time>2021-06-23T11:05:24Z</time>
      </trkpt>
      <trkpt lat="47.79943" lon="6.83951">
        <ele>824.29</ele>
        <time>2021-06-23T11:05:26Z</time>
      </trkpt>
      <trkpt lat="47.79955" lon="6.83939">
        <ele>821.04</ele>
        <time>2021-06-23T11:05:27Z</time>
      </trkpt>
      <trkpt lat="47.80002" lon="6.83884">
        <ele>817.29</ele>
        <time>2021-06-23T11:05:29Z</time>
      </trkpt>
      <trkpt lat="47.80011" lon="6.83878">
        <ele>817.16</ele>
        <time>2021-06-23T11:05:30Z</time>
      </trkpt>
      <trkpt lat="47.8016" lon="6.83836">
        <ele>797.62</ele>
        <time>2021-06-23T11:05:32Z</time>
      </trkpt>
      <trkpt lat="47.80172" lon="6.83826">
        <ele>794.62</ele>
        <time>2021-06-23T11:05:33Z</time>
      </trkpt>
      <trkpt lat="47.80176" lon="6.83816">
        <ele>794.09</ele>
        <time>2021-06-23T11:05:35Z</time>
      </trkpt>
      <trkpt lat="47.8018" lon="6.83793">
        <ele>793.68</ele>
        <time>2021-06-23T11:05:36Z</time>
      </trkpt>
      <trkpt lat="47.80179" lon="6.8377">
        <ele>794.33</ele>
        <time>2021-06-23T11:05:38Z</time>
      </trkpt>
      <trkpt lat="47.80177" lon="6.83754">
        <ele>795.14</ele>
        <time>2021-06-23T11:05:39Z</time>
      </trkpt>
      <trkpt lat="47.80163" lon="6.83721">
        <ele>795.57</ele>
        <time>2021-06-23T11:05:41Z</time>
      </trkpt>
      <trkpt lat="47.80157" lon="6.83702">
        <ele>793.75</ele>
        <time>2021-06-23T11:05:42Z</time>
      </trkpt>
      <trkpt lat="47.80152" lon="6.8366">
        <ele>790.32</ele>
        <time>2021-06-23T11:05:44Z</time>
      </trkpt>
      <trkpt lat="47.80138" lon="6.83601">
        <ele>782.79</ele>
        <time>2021-06-23T11:05:45Z</time>
      </trkpt>
      <trkpt lat="47.8012" lon="6.83489">
        <ele>778.38</ele>
        <time>2021-06-23T11:05:47Z</time>
      </trkpt>
      <trkpt lat="47.80121" lon="6.83466">
        <ele>779.93</ele>
        <time>2021-06-23T11:05:48Z</time>
      </trkpt>
      <trkpt lat="47.80123" lon="6.83451">
        <ele>782.27</ele>
        <time>2021-06-23T11:05:50Z</time>
      </trkpt>
      <trkpt lat="47.80131" lon="6.8343">
        <ele>786.71</ele>
        <time>2021-06-23T11:05:51Z</time>
      </trkpt>
      <trkpt lat="47.80138" lon="6.83415">
        <ele>790.66</ele>
        <time>2021-06-23T11:05:53Z</time>
      </trkpt>
      <trkpt lat="47.80139" lon="6.83399">
        <ele>790.4</ele>
        <time>2021-06-23T11:05:54Z</time>
      </trkpt>
      <trkpt lat="47.80134" lon="6.83391">
        <ele>788.28</ele>
        <time>2021-06-23T11:05:56Z</time>
      </trkpt>
      <trkpt lat="47.80131" lon="6.8339">
        <ele>786.71</ele>
        <time>2021-06-23T11:05:58Z</time>
      </trkpt>
      <trkpt lat="47.80122" lon="6.83396">
        <ele>783.46</ele>
        <time>2021-06-23T11:05:59Z</time>
      </trkpt>
      <trkpt lat="47.80106" lon="6.83423">
        <ele>776.95</ele>
        <time>2021-06-23T11:06:01Z</time>
      </trkpt>
      <trkpt lat="47.80065" lon="6.83464">
        <ele>767.43</ele>
        <time>2021-06-23T11:06:02Z</time>
      </trkpt>
      <trkpt lat="47.80052" lon="6.83484">
        <ele>764.85</ele>
        <time>2021-06-23T11:06:04Z</time>
      </trkpt>
      <trkpt lat="47.80046" lon="6.83507">
        <ele>763.23</ele>
        <time>2021-06-23T11:06:05Z</time>
      </trkpt>
      <trkpt lat="47.80043" lon="6.83535">
        <ele>763.84</ele>
        <time>2021-06-23T11:06:07Z</time>
      </trkpt>
      <trkpt lat="47.80043" lon="6.83556">
        <ele>766.04</ele>
        <time>2021-06-23T11:06:08Z</time>
      </trkpt>
      <trkpt lat="47.8005" lon="6.83595">
        <ele>769.46</ele>
        <time>2021-06-23T11:06:10Z</time>
      </trkpt>
      <trkpt lat="47.80051" lon="6.83615">
        <ele>769.66</ele>
        <time>2021-06-23T11:06:11Z</time>
      </trkpt>
      <trkpt lat="47.80047" lon="6.83646">
        <ele>769.11</ele>
        <time>2021-06-23T11:06:13Z</time>
      </trkpt>
      <trkpt lat="47.80043" lon="6.83657">
        <ele>768.96</ele>
        <time>2021-06-23T11:06:14Z</time>
      </trkpt>
      <trkpt lat="47.80037" lon="6.83668">
        <ele>768.82</ele>
        <time>2021-06-23T11:06:16Z</time>
      </trkpt>
      <trkpt lat="47.80031" lon="6.83674">
        <ele>769.07</ele>
        <time>2021-06-23T11:06:17Z</time>
      </trkpt>
      <trkpt lat="47.80025" lon="6.83678">
        <ele>768.79</ele>
        <time>2021-06-23T11:06:19Z</time>
      </trkpt>
      <trkpt lat="47.80005" lon="6.83679">
        <ele>766.35</ele>
        <time>2021-06-23T11:06:20Z</time>
      </trkpt>
      <trkpt lat="47.79998" lon="6.83682">
        <ele>765.75</ele>
        <time>2021-06-23T11:06:22Z</time>
      </trkpt>
      <trkpt lat="47.79974" lon="6.83708">
        <ele>766.23</ele>
        <time>2021-06-23T11:06:23Z</time>
      </trkpt>
      <trkpt lat="47.79964" lon="6.83713">
        <ele>765.58</ele>
        <time>2021-06-23T11:06:25Z</time>
      </trkpt>
      <trkpt lat="47.79953" lon="6.83714">
        <ele>763.46</ele>
        <time>2021-06-23T11:06:27Z</time>
      </trkpt>
      <trkpt lat="47.79923" lon="6.83713">
        <ele>758.29</ele>
        <time>2021-06-23T11:06:28Z</time>
      </trkpt>
      <trkpt lat="47.79899" lon="6.83707">
        <ele>755.97</ele>
        <time>2021-06-23T11:06:30Z</time>
      </trkpt>
      <trkpt lat="47.79849" lon="6.83684">
        <ele>751.33</ele>
        <time>2021-06-23T11:06:31Z</time>
      </trkpt>
      <trkpt lat="47.79834" lon="6.83681">
        <ele>750.97</ele>
        <time>2021-06-23T11:06:33Z</time>
      </trkpt>
      <trkpt lat="47.79737" lon="6.8368">
        <ele>740.73</ele>
        <time>2021-06-23T11:06:34Z</time>
      </trkpt>
      <trkpt lat="47.7973" lon="6.83674">
        <ele>740.73</ele>
        <time>2021-06-23T11:06:36Z</time>
      </trkpt>
      <trkpt lat="47.79728" lon="6.83663">
        <ele>737.6</ele>
        <time>2021-06-23T11:06:37Z</time>
      </trkpt>
      <trkpt lat="47.79731" lon="6.83652">
        <ele>733.11</ele>
        <time>2021-06-23T11:06:39Z</time>
      </trkpt>
      <trkpt lat="47.79735" lon="6.83648">
        <ele>730.67</ele>
        <time>2021-06-23T11:06:40Z</time>
      </trkpt>
      <trkpt lat="47.79773" lon="6.83642">
        <ele>729.75</ele>
        <time>2021-06-23T11:06:42Z</time>
      </trkpt>
      <trkpt lat="47.79799" lon="6.83633">
        <ele>731.49</ele>
        <time>2021-06-23T11:06:43Z</time>
      </trkpt>
      <trkpt lat="47.79834" lon="6.83614">
        <ele>729.03</ele>
        <time>2021-06-23T11:06:45Z</time>
      </trkpt>
      <trkpt lat="47.79872" lon="6.83597">
        <ele>727.82</ele>
        <time>2021-06-23T11:06:46Z</time>
      </trkpt>
      <trkpt lat="47.79882" lon="6.8359">
        <ele>727.25</ele>
        <time>2021-06-23T11:06:48Z</time>
      </trkpt>
      <trkpt lat="47.79889" lon="6.83582">
        <ele>726.52</ele>
        <time>2021-06-23T11:06:49Z</time>
      </trkpt>
      <trkpt lat="47.79896" lon="6.83569">
        <ele>725.49</ele>
        <time>2021-06-23T11:06:51Z</time>
      </trkpt>
      <trkpt lat="47.79897" lon="6.83559">
        <ele>724.66</ele>
        <time>2021-06-23T11:06:52Z</time>
      </trkpt>
      <trkpt lat="47.79897" lon="6.83508">
        <ele>717.98</ele>
        <time>2021-06-23T11:06:54Z</time>
      </trkpt>
      <trkpt lat="47.79899" lon="6.83489">
        <ele>716.12</ele>
        <time>2021-06-23T11:06:55Z</time>
      </trkpt>
      <trkpt lat="47.79918" lon="6.83417">
        <ele>719.53</ele>
        <time>2021-06-23T11:06:57Z</time>
      </trkpt>
      <trkpt lat="47.79929" lon="6.83388">
        <ele>718.58</ele>
        <time>2021-06-23T11:06:59Z</time>
      </trkpt>
      <trkpt lat="47.79935" lon="6.83377">
        <ele>718.29</ele>
        <time>2021-06-23T11:07:00Z</time>
      </trkpt>
      <trkpt lat="47.80002" lon="6.83306">
        <ele>720.66</ele>
        <time>2021-06-23T11:07:02Z</time>
      </trkpt>
      <trkpt lat="47.8001" lon="6.83292">
        <ele>720.21</ele>
        <time>2021-06-23T11:07:03Z</time>
      </trkpt>
      <trkpt lat="47.80013" lon="6.83275">
        <ele>718.95</ele>
        <time>2021-06-23T11:07:05Z</time>
      </trkpt>
      <trkpt lat="47.80013" lon="6.83255">
        <ele>716.82</ele>
        <time>2021-06-23T11:07:06Z</time>
      </trkpt>
      <trkpt lat="47.80008" lon="6.83238">
        <ele>713.71</ele>
        <time>2021-06-23T11:07:08Z</time>
      </trkpt>
      <trkpt lat="47.7999" lon="6.83206">
        <ele>709.31</ele>
        <time>2021-06-23T11:07:09Z</time>
      </trkpt>
      <trkpt lat="47.79982" lon="6.83195">
        <ele>708.6</ele>
        <time>2021-06-23T11:07:11Z</time>
      </trkpt>
      <trkpt lat="47.79966" lon="6.83181">
        <ele>708.71</ele>
        <time>2021-06-23T11:07:12Z</time>
      </trkpt>
      <trkpt lat="47.79966" lon="6.83181">
        <ele>708.71</ele>
        <time>2021-06-23T11:07:12Z</time>
      </trkpt>
      <trkpt lat="47.79945" lon="6.83172">
        <ele>708.23</ele>
        <time>2021-06-23T11:07:15Z</time>
      </trkpt>
      <trkpt lat="47.79925" lon="6.83171">
        <ele>707.86</ele>
        <time>2021-06-23T11:07:18Z</time>
      </trkpt>
      <trkpt lat="47.79917" lon="6.83174">
        <ele>706.78</ele>
        <time>2021-06-23T11:07:20Z</time>
      </trkpt>
      <trkpt lat="47.79887" lon="6.83223">
        <ele>696.52</ele>
        <time>2021-06-23T11:07:23Z</time>
      </trkpt>
      <trkpt lat="47.79876" lon="6.83234">
        <ele>692.77</ele>
        <time>2021-06-23T11:07:26Z</time>
      </trkpt>
      <trkpt lat="47.79868" lon="6.83234">
        <ele>692.49</ele>
        <time>2021-06-23T11:07:28Z</time>
      </trkpt>
      <trkpt lat="47.79798" lon="6.83215">
        <ele>693.53</ele>
        <time>2021-06-23T11:07:31Z</time>
      </trkpt>
      <trkpt lat="47.79775" lon="6.83209">
        <ele>695.52</ele>
        <time>2021-06-23T11:07:33Z</time>
      </trkpt>
      <trkpt lat="47.79738" lon="6.83189">
        <ele>700.33</ele>
        <time>2021-06-23T11:07:36Z</time>
      </trkpt>
      <trkpt lat="47.79729" lon="6.83188">
        <ele>699.51</ele>
        <time>2021-06-23T11:07:39Z</time>
      </trkpt>
      <trkpt lat="47.79704" lon="6.83191">
        <ele>693.6</ele>
        <time>2021-06-23T11:07:41Z</time>
      </trkpt>
      <trkpt lat="47.79691" lon="6.83189">
        <ele>691.52</ele>
        <time>2021-06-23T11:07:44Z</time>
      </trkpt>
      <trkpt lat="47.7961" lon="6.83144">
        <ele>687.64</ele>
        <time>2021-06-23T11:07:47Z</time>
      </trkpt>
      <trkpt lat="47.79572" lon="6.83112">
        <ele>697.09</ele>
        <time>2021-06-23T11:07:49Z</time>
      </trkpt>
      <trkpt lat="47.79566" lon="6.8311">
        <ele>696.65</ele>
        <time>2021-06-23T11:07:52Z</time>
      </trkpt>
      <trkpt lat="47.79544" lon="6.83111">
        <ele>690.73</ele>
        <time>2021-06-23T11:07:55Z</time>
      </trkpt>
      <trkpt lat="47.79487" lon="6.83125">
        <ele>674.24</ele>
        <time>2021-06-23T11:07:57Z</time>
      </trkpt>
      <trkpt lat="47.79476" lon="6.83126">
        <ele>672.44</ele>
        <time>2021-06-23T11:08:00Z</time>
      </trkpt>
      <trkpt lat="47.79465" lon="6.83125">
        <ele>671.22</ele>
        <time>2021-06-23T11:08:03Z</time>
      </trkpt>
      <trkpt lat="47.79447" lon="6.83114">
        <ele>672.21</ele>
        <time>2021-06-23T11:08:05Z</time>
      </trkpt>
      <trkpt lat="47.79415" lon="6.83081">
        <ele>681.36</ele>
        <time>2021-06-23T11:08:08Z</time>
      </trkpt>
      <trkpt lat="47.79401" lon="6.83074">
        <ele>679.89</ele>
        <time>2021-06-23T11:08:10Z</time>
      </trkpt>
      <trkpt lat="47.79365" lon="6.83061">
        <ele>673.15</ele>
        <time>2021-06-23T11:08:13Z</time>
      </trkpt>
      <trkpt lat="47.79332" lon="6.83057">
        <ele>665.47</ele>
        <time>2021-06-23T11:08:16Z</time>
      </trkpt>
      <trkpt lat="47.79321" lon="6.83052">
        <ele>664.59</ele>
        <time>2021-06-23T11:08:18Z</time>
      </trkpt>
      <trkpt lat="47.79312" lon="6.83043">
        <ele>664.83</ele>
        <time>2021-06-23T11:08:21Z</time>
      </trkpt>
      <trkpt lat="47.79267" lon="6.82979">
        <ele>662.38</ele>
        <time>2021-06-23T11:08:24Z</time>
      </trkpt>
      <trkpt lat="47.79215" lon="6.82897">
        <ele>674.28</ele>
        <time>2021-06-23T11:08:26Z</time>
      </trkpt>
      <trkpt lat="47.79205" lon="6.82888">
        <ele>675.4</ele>
        <time>2021-06-23T11:08:29Z</time>
      </trkpt>
      <trkpt lat="47.792" lon="6.82887">
        <ele>675.84</ele>
        <time>2021-06-23T11:08:32Z</time>
      </trkpt>
      <trkpt lat="47.7919" lon="6.82887">
        <ele>676.69</ele>
        <time>2021-06-23T11:08:34Z</time>
      </trkpt>
      <trkpt lat="47.79184" lon="6.8289">
        <ele>677.29</ele>
        <time>2021-06-23T11:08:37Z</time>
      </trkpt>
      <trkpt lat="47.79146" lon="6.82925">
        <ele>661.87</ele>
        <time>2021-06-23T11:08:40Z</time>
      </trkpt>
      <trkpt lat="47.79085" lon="6.82965">
        <ele>649.44</ele>
        <time>2021-06-23T11:08:42Z</time>
      </trkpt>
      <trkpt lat="47.79078" lon="6.82967">
        <ele>648.69</ele>
        <time>2021-06-23T11:08:45Z</time>
      </trkpt>
      <trkpt lat="47.79065" lon="6.82966">
        <ele>649.19</ele>
        <time>2021-06-23T11:08:47Z</time>
      </trkpt>
      <trkpt lat="47.79031" lon="6.82947">
        <ele>655.18</ele>
        <time>2021-06-23T11:08:50Z</time>
      </trkpt>
      <trkpt lat="47.79024" lon="6.82945">
        <ele>655.86</ele>
        <time>2021-06-23T11:08:53Z</time>
      </trkpt>
      <trkpt lat="47.79017" lon="6.82944">
        <ele>656.42</ele>
        <time>2021-06-23T11:08:55Z</time>
      </trkpt>
      <trkpt lat="47.78985" lon="6.82947">
        <ele>655.83</ele>
        <time>2021-06-23T11:08:58Z</time>
      </trkpt>
      <trkpt lat="47.78927" lon="6.82965">
        <ele>658.67</ele>
        <time>2021-06-23T11:09:01Z</time>
      </trkpt>
      <trkpt lat="47.78895" lon="6.82979">
        <ele>655.96</ele>
        <time>2021-06-23T11:09:03Z</time>
      </trkpt>
      <trkpt lat="47.78789" lon="6.83051">
        <ele>643.32</ele>
        <time>2021-06-23T11:09:06Z</time>
      </trkpt>
      <trkpt lat="47.78773" lon="6.83064">
        <ele>641.93</ele>
        <time>2021-06-23T11:09:09Z</time>
      </trkpt>
      <trkpt lat="47.78629" lon="6.83201">
        <ele>631.88</ele>
        <time>2021-06-23T11:09:11Z</time>
      </trkpt>
      <trkpt lat="47.78611" lon="6.83221">
        <ele>627.56</ele>
        <time>2021-06-23T11:09:14Z</time>
      </trkpt>
      <trkpt lat="47.78591" lon="6.83248">
        <ele>622.04</ele>
        <time>2021-06-23T11:09:17Z</time>
      </trkpt>
      <trkpt lat="47.78544" lon="6.83322">
        <ele>612.41</ele>
        <time>2021-06-23T11:09:19Z</time>
      </trkpt>
      <trkpt lat="47.78498" lon="6.83388">
        <ele>596.46</ele>
        <time>2021-06-23T11:09:22Z</time>
      </trkpt>
      <trkpt lat="47.78491" lon="6.83395">
        <ele>596.64</ele>
        <time>2021-06-23T11:09:25Z</time>
      </trkpt>
      <trkpt lat="47.78482" lon="6.834">
        <ele>597.42</ele>
        <time>2021-06-23T11:09:27Z</time>
      </trkpt>
      <trkpt lat="47.78457" lon="6.83405">
        <ele>598.81</ele>
        <time>2021-06-23T11:09:30Z</time>
      </trkpt>
      <trkpt lat="47.78418" lon="6.83409">
        <ele>594.72</ele>
        <time>2021-06-23T11:09:32Z</time>
      </trkpt>
      <trkpt lat="47.78322" lon="6.83418">
        <ele>591.05</ele>
        <time>2021-06-23T11:09:35Z</time>
      </trkpt>
      <trkpt lat="47.78305" lon="6.83412">
        <ele>591.28</ele>
        <time>2021-06-23T11:09:38Z</time>
      </trkpt>
      <trkpt lat="47.78228" lon="6.83357">
        <ele>586.08</ele>
        <time>2021-06-23T11:09:40Z</time>
      </trkpt>
      <trkpt lat="47.78184" lon="6.83318">
        <ele>596.01</ele>
        <time>2021-06-23T11:09:43Z</time>
      </trkpt>
      <trkpt lat="47.78165" lon="6.83314">
        <ele>597.59</ele>
        <time>2021-06-23T11:09:46Z</time>
      </trkpt>
      <trkpt lat="47.78157" lon="6.83315">
        <ele>597.32</ele>
        <time>2021-06-23T11:09:48Z</time>
      </trkpt>
      <trkpt lat="47.78141" lon="6.83323">
        <ele>594.97</ele>
        <time>2021-06-23T11:09:51Z</time>
      </trkpt>
      <trkpt lat="47.78091" lon="6.83355">
        <ele>586.26</ele>
        <time>2021-06-23T11:09:54Z</time>
      </trkpt>
      <trkpt lat="47.78015" lon="6.83389">
        <ele>579.01</ele>
        <time>2021-06-23T11:09:56Z</time>
      </trkpt>
      <trkpt lat="47.77958" lon="6.83388">
        <ele>581</ele>
        <time>2021-06-23T11:09:59Z</time>
      </trkpt>
      <trkpt lat="47.77946" lon="6.8339">
        <ele>580.2</ele>
        <time>2021-06-23T11:10:02Z</time>
      </trkpt>
      <trkpt lat="47.77897" lon="6.83408">
        <ele>572.38</ele>
        <time>2021-06-23T11:10:04Z</time>
      </trkpt>
      <trkpt lat="47.77874" lon="6.83419">
        <ele>567.41</ele>
        <time>2021-06-23T11:10:07Z</time>
      </trkpt>
      <trkpt lat="47.7786" lon="6.83434">
        <ele>566.05</ele>
        <time>2021-06-23T11:10:09Z</time>
      </trkpt>
      <trkpt lat="47.77849" lon="6.83456">
        <ele>566.51</ele>
        <time>2021-06-23T11:10:12Z</time>
      </trkpt>
      <trkpt lat="47.77844" lon="6.8347">
        <ele>567.5</ele>
        <time>2021-06-23T11:10:15Z</time>
      </trkpt>
      <trkpt lat="47.7784" lon="6.83483">
        <ele>568.19</ele>
        <time>2021-06-23T11:10:17Z</time>
      </trkpt>
      <trkpt lat="47.77835" lon="6.83511">
        <ele>569.58</ele>
        <time>2021-06-23T11:10:20Z</time>
      </trkpt>
      <trkpt lat="47.77831" lon="6.83557">
        <ele>573.47</ele>
        <time>2021-06-23T11:10:23Z</time>
      </trkpt>
      <trkpt lat="47.77825" lon="6.83571">
        <ele>574.96</ele>
        <time>2021-06-23T11:10:25Z</time>
      </trkpt>
      <trkpt lat="47.77815" lon="6.83578">
        <ele>572.08</ele>
        <time>2021-06-23T11:10:28Z</time>
      </trkpt>
      <trkpt lat="47.7781" lon="6.83578">
        <ele>569.54</ele>
        <time>2021-06-23T11:10:31Z</time>
      </trkpt>
      <trkpt lat="47.77762" lon="6.83555">
        <ele>560.29</ele>
        <time>2021-06-23T11:10:33Z</time>
      </trkpt>
      <trkpt lat="47.77762" lon="6.83555">
        <ele>560.29</ele>
        <time>2021-06-23T11:10:33Z</time>
      </trkpt>
      <trkpt lat="47.77725" lon="6.83536">
        <ele>559.32</ele>
        <time>2021-06-23T11:10:38Z</time>
      </trkpt>
      <trkpt lat="47.77716" lon="6.83528">
        <ele>557.34</ele>
        <time>2021-06-23T11:10:42Z</time>
      </trkpt>
      <trkpt lat="47.77667" lon="6.8346">
        <ele>546.11</ele>
        <time>2021-06-23T11:10:46Z</time>
      </trkpt>
      <trkpt lat="47.77638" lon="6.83424">
        <ele>545.27</ele>
        <time>2021-06-23T11:10:50Z</time>
      </trkpt>
      <trkpt lat="47.77552" lon="6.83323">
        <ele>544.72</ele>
        <time>2021-06-23T11:10:54Z</time>
      </trkpt>
      <trkpt lat="47.77522" lon="6.83281">
        <ele>547.45</ele>
        <time>2021-06-23T11:10:59Z</time>
      </trkpt>
      <trkpt lat="47.77504" lon="6.83247">
        <ele>544.68</ele>
        <time>2021-06-23T11:11:03Z</time>
      </trkpt>
      <trkpt lat="47.77433" lon="6.83067">
        <ele>539.6</ele>
        <time>2021-06-23T11:11:07Z</time>
      </trkpt>
      <trkpt lat="47.7739" lon="6.82981">
        <ele>533.89</ele>
        <time>2021-06-23T11:11:11Z</time>
      </trkpt>
      <trkpt lat="47.7737" lon="6.82953">
        <ele>533.11</ele>
        <time>2021-06-23T11:11:15Z</time>
      </trkpt>
      <trkpt lat="47.7735" lon="6.82933">
        <ele>533.21</ele>
        <time>2021-06-23T11:11:20Z</time>
      </trkpt>
      <trkpt lat="47.77315" lon="6.82911">
        <ele>532.63</ele>
        <time>2021-06-23T11:11:24Z</time>
      </trkpt>
      <trkpt lat="47.77303" lon="6.82906">
        <ele>532.27</ele>
        <time>2021-06-23T11:11:28Z</time>
      </trkpt>
      <trkpt lat="47.77277" lon="6.82903">
        <ele>532.05</ele>
        <time>2021-06-23T11:11:32Z</time>
      </trkpt>
      <trkpt lat="47.77233" lon="6.82906">
        <ele>533.25</ele>
        <time>2021-06-23T11:11:36Z</time>
      </trkpt>
      <trkpt lat="47.77209" lon="6.82906">
        <ele>533.88</ele>
        <time>2021-06-23T11:11:41Z</time>
      </trkpt>
      <trkpt lat="47.77198" lon="6.82903">
        <ele>533.93</ele>
        <time>2021-06-23T11:11:45Z</time>
      </trkpt>
      <trkpt lat="47.77171" lon="6.82889">
        <ele>533.87</ele>
        <time>2021-06-23T11:11:49Z</time>
      </trkpt>
      <trkpt lat="47.77102" lon="6.8285">
        <ele>533.56</ele>
        <time>2021-06-23T11:11:53Z</time>
      </trkpt>
      <trkpt lat="47.76954" lon="6.82803">
        <ele>524.78</ele>
        <time>2021-06-23T11:11:58Z</time>
      </trkpt>
      <trkpt lat="47.76931" lon="6.82791">
        <ele>524.42</ele>
        <time>2021-06-23T11:12:02Z</time>
      </trkpt>
      <trkpt lat="47.76909" lon="6.82774">
        <ele>523.74</ele>
        <time>2021-06-23T11:12:06Z</time>
      </trkpt>
      <trkpt lat="47.76826" lon="6.82676">
        <ele>525.85</ele>
        <time>2021-06-23T11:12:10Z</time>
      </trkpt>
      <trkpt lat="47.76746" lon="6.82615">
        <ele>525.42</ele>
        <time>2021-06-23T11:12:14Z</time>
      </trkpt>
      <trkpt lat="47.76708" lon="6.8259">
        <ele>526.97</ele>
        <time>2021-06-23T11:12:19Z</time>
      </trkpt>
      <trkpt lat="47.76699" lon="6.8258">
        <ele>527.29</ele>
        <time>2021-06-23T11:12:23Z</time>
      </trkpt>
      <trkpt lat="47.76676" lon="6.82541">
        <ele>524.46</ele>
        <time>2021-06-23T11:12:27Z</time>
      </trkpt>
      <trkpt lat="47.76666" lon="6.82529">
        <ele>523.14</ele>
        <time>2021-06-23T11:12:31Z</time>
      </trkpt>
      <trkpt lat="47.76652" lon="6.82519">
        <ele>521.39</ele>
        <time>2021-06-23T11:12:35Z</time>
      </trkpt>
      <trkpt lat="47.76607" lon="6.82502">
        <ele>520.87</ele>
        <time>2021-06-23T11:12:40Z</time>
      </trkpt>
      <trkpt lat="47.76547" lon="6.82473">
        <ele>520.8</ele>
        <time>2021-06-23T11:12:44Z</time>
      </trkpt>
      <trkpt lat="47.76525" lon="6.82458">
        <ele>519.35</ele>
        <time>2021-06-23T11:12:48Z</time>
      </trkpt>
      <trkpt lat="47.76509" lon="6.82439">
        <ele>515.63</ele>
        <time>2021-06-23T11:12:52Z</time>
      </trkpt>
      <trkpt lat="47.76493" lon="6.82409">
        <ele>512.55</ele>
        <time>2021-06-23T11:12:56Z</time>
      </trkpt>
      <trkpt lat="47.76476" lon="6.82361">
        <ele>510.85</ele>
        <time>2021-06-23T11:13:01Z</time>
      </trkpt>
      <trkpt lat="47.76462" lon="6.82325">
        <ele>510.92</ele>
        <time>2021-06-23T11:13:05Z</time>
      </trkpt>
      <trkpt lat="47.76443" lon="6.82297">
        <ele>511.7</ele>
        <time>2021-06-23T11:13:09Z</time>
      </trkpt>
      <trkpt lat="47.7643" lon="6.82285">
        <ele>511.64</ele>
        <time>2021-06-23T11:13:13Z</time>
      </trkpt>
      <trkpt lat="47.76407" lon="6.82269">
        <ele>511</ele>
        <time>2021-06-23T11:13:18Z</time>
      </trkpt>
      <trkpt lat="47.76351" lon="6.82234">
        <ele>507.43</ele>
        <time>2021-06-23T11:13:22Z</time>
      </trkpt>
      <trkpt lat="47.76337" lon="6.82228">
        <ele>507.21</ele>
        <time>2021-06-23T11:13:26Z</time>
      </trkpt>
      <trkpt lat="47.76256" lon="6.82202">
        <ele>504.42</ele>
        <time>2021-06-23T11:13:30Z</time>
      </trkpt>
      <trkpt lat="47.76243" lon="6.82194">
        <ele>503.73</ele>
        <time>2021-06-23T11:13:34Z</time>
      </trkpt>
      <trkpt lat="47.76195" lon="6.82155">
        <ele>501.58</ele>
        <time>2021-06-23T11:13:39Z</time>
      </trkpt>
      <trkpt lat="47.76173" lon="6.82139">
        <ele>501.77</ele>
        <time>2021-06-23T11:13:43Z</time>
      </trkpt>
      <trkpt lat="47.76148" lon="6.82123">
        <ele>502.79</ele>
        <time>2021-06-23T11:13:47Z</time>
      </trkpt>
      <trkpt lat="47.76065" lon="6.82074">
        <ele>502.45</ele>
        <time>2021-06-23T11:13:51Z</time>
      </trkpt>
      <trkpt lat="47.75998" lon="6.82031">
        <ele>502.23</ele>
        <time>2021-06-23T11:13:55Z</time>
      </trkpt>
      <trkpt lat="47.75946" lon="6.82009">
        <ele>502.63</ele>
        <time>2021-06-23T11:14:00Z</time>
      </trkpt>
      <trkpt lat="47.75898" lon="6.81986">
        <ele>502.63</ele>
        <time>2021-06-23T11:14:04Z</time>
      </trkpt>
      <trkpt lat="47.75876" lon="6.81969">
        <ele>500.97</ele>
        <time>2021-06-23T11:14:08Z</time>
      </trkpt>
      <trkpt lat="47.75841" lon="6.81935">
        <ele>499.33</ele>
        <time>2021-06-23T11:14:12Z</time>
      </trkpt>
      <trkpt lat="47.75806" lon="6.81929">
        <ele>500.56</ele>
        <time>2021-06-23T11:14:17Z</time>
      </trkpt>
      <trkpt lat="47.75738" lon="6.81905">
        <ele>499.43</ele>
        <time>2021-06-23T11:14:21Z</time>
      </trkpt>
      <trkpt lat="47.75703" lon="6.81898">
        <ele>499.9</ele>
        <time>2021-06-23T11:14:25Z</time>
      </trkpt>
      <trkpt lat="47.75647" lon="6.81898">
        <ele>500.32</ele>
        <time>2021-06-23T11:14:29Z</time>
      </trkpt>
      <trkpt lat="47.75619" lon="6.81902">
        <ele>499.77</ele>
        <time>2021-06-23T11:14:33Z</time>
      </trkpt>
      <trkpt lat="47.75511" lon="6.81937">
        <ele>500.72</ele>
        <time>2021-06-23T11:14:38Z</time>
      </trkpt>
      <trkpt lat="47.75485" lon="6.81938">
        <ele>499.66</ele>
        <time>2021-06-23T11:14:42Z</time>
      </trkpt>
      <trkpt lat="47.75475" lon="6.81935">
        <ele>498.84</ele>
        <time>2021-06-23T11:14:46Z</time>
      </trkpt>
      <trkpt lat="47.75456" lon="6.81923">
        <ele>496.21</ele>
        <time>2021-06-23T11:14:50Z</time>
      </trkpt>
      <trkpt lat="47.75425" lon="6.81894">
        <ele>494.97</ele>
        <time>2021-06-23T11:14:54Z</time>
      </trkpt>
      <trkpt lat="47.75416" lon="6.81889">
        <ele>494.95</ele>
        <time>2021-06-23T11:14:59Z</time>
      </trkpt>
      <trkpt lat="47.75396" lon="6.81884">
        <ele>494.37</ele>
        <time>2021-06-23T11:15:03Z</time>
      </trkpt>
      <trkpt lat="47.75343" lon="6.81886">
        <ele>494.43</ele>
        <time>2021-06-23T11:15:07Z</time>
      </trkpt>
      <trkpt lat="47.75327" lon="6.8189">
        <ele>494</ele>
        <time>2021-06-23T11:15:11Z</time>
      </trkpt>
      <trkpt lat="47.75224" lon="6.81948">
        <ele>496.94</ele>
        <time>2021-06-23T11:15:15Z</time>
      </trkpt>
      <trkpt lat="47.75178" lon="6.8197">
        <ele>494.25</ele>
        <time>2021-06-23T11:15:20Z</time>
      </trkpt>
      <trkpt lat="47.75164" lon="6.81972">
        <ele>493</ele>
        <time>2021-06-23T11:15:24Z</time>
      </trkpt>
      <trkpt lat="47.75152" lon="6.81971">
        <ele>493.06</ele>
        <time>2021-06-23T11:15:28Z</time>
      </trkpt>
      <trkpt lat="47.75099" lon="6.81948">
        <ele>493.42</ele>
        <time>2021-06-23T11:15:32Z</time>
      </trkpt>
      <trkpt lat="47.75083" lon="6.81944">
        <ele>493.03</ele>
        <time>2021-06-23T11:15:37Z</time>
      </trkpt>
      <trkpt lat="47.75057" lon="6.81943">
        <ele>494</ele>
        <time>2021-06-23T11:15:41Z</time>
      </trkpt>
      <trkpt lat="47.75026" lon="6.81952">
        <ele>494.04</ele>
        <time>2021-06-23T11:15:45Z</time>
      </trkpt>
      <trkpt lat="47.75017" lon="6.81956">
        <ele>494.22</ele>
        <time>2021-06-23T11:15:49Z</time>
      </trkpt>
      <trkpt lat="47.74996" lon="6.81972">
        <ele>494.17</ele>
        <time>2021-06-23T11:15:53Z</time>
      </trkpt>
      <trkpt lat="47.74971" lon="6.81989">
        <ele>494.52</ele>
        <time>2021-06-23T11:15:58Z</time>
      </trkpt>
      <trkpt lat="47.74965" lon="6.81996">
        <ele>494.65</ele>
        <time>2021-06-23T11:16:02Z</time>
      </trkpt>
      <trkpt lat="47.7488" lon="6.82065">
        <ele>492.43</ele>
        <time>2021-06-23T11:16:06Z</time>
      </trkpt>
      <trkpt lat="47.7482" lon="6.8213">
        <ele>493.15</ele>
        <time>2021-06-23T11:16:10Z</time>
      </trkpt>
      <trkpt lat="47.74733" lon="6.82239">
        <ele>491.61</ele>
        <time>2021-06-23T11:16:14Z</time>
      </trkpt>
      <trkpt lat="47.7468" lon="6.82297">
        <ele>493.37</ele>
        <time>2021-06-23T11:16:19Z</time>
      </trkpt>
      <trkpt lat="47.74641" lon="6.82355">
        <ele>493.17</ele>
        <time>2021-06-23T11:16:23Z</time>
      </trkpt>
      <trkpt lat="47.74622" lon="6.8238">
        <ele>491.47</ele>
        <time>2021-06-23T11:16:27Z</time>
      </trkpt>
      <trkpt lat="47.74609" lon="6.82391">
        <ele>490.66</ele>
        <time>2021-06-23T11:16:31Z</time>
      </trkpt>
      <trkpt lat="47.74591" lon="6.82407">
        <ele>488.05</ele>
        <time>2021-06-23T11:16:36Z</time>
      </trkpt>
      <trkpt lat="47.74567" lon="6.82422">
        <ele>487.22</ele>
        <time>2021-06-23T11:16:40Z</time>
      </trkpt>
      <trkpt lat="47.74517" lon="6.82446">
        <ele>484.66</ele>
        <time>2021-06-23T11:16:44Z</time>
      </trkpt>
      <trkpt lat="47.74457" lon="6.82469">
        <ele>482.67</ele>
        <time>2021-06-23T11:16:48Z</time>
      </trkpt>
      <trkpt lat="47.74424" lon="6.82477">
        <ele>482.88</ele>
        <time>2021-06-23T11:16:52Z</time>
      </trkpt>
      <trkpt lat="47.74435" lon="6.82429">
        <ele>483.85</ele>
        <time>2021-06-23T11:17:01Z</time>
      </trkpt>
      <trkpt lat="47.74449" lon="6.82343">
        <ele>485.64</ele>
        <time>2021-06-23T11:17:10Z</time>
      </trkpt>
      <trkpt lat="47.7444" lon="6.8234">
        <ele>485.76</ele>
        <time>2021-06-23T11:17:12Z</time>
      </trkpt>
      <trkpt lat="47.74436" lon="6.82341">
        <ele>485.73</ele>
        <time>2021-06-23T11:17:13Z</time>
      </trkpt>
      <trkpt lat="47.74421" lon="6.82357">
        <ele>485.13</ele>
        <time>2021-06-23T11:17:15Z</time>
      </trkpt>
      <trkpt lat="47.74406" lon="6.82345">
        <ele>486.14</ele>
        <time>2021-06-23T11:17:19Z</time>
      </trkpt>
      <trkpt lat="47.74414" lon="6.82237">
        <ele>488.91</ele>
        <time>2021-06-23T11:17:25Z</time>
      </trkpt>
      <trkpt lat="47.74411" lon="6.82219">
        <ele>489.92</ele>
        <time>2021-06-23T11:17:32Z</time>
      </trkpt>
      <trkpt lat="47.74373" lon="6.82149">
        <ele>489.23</ele>
        <time>2021-06-23T11:17:39Z</time>
      </trkpt>
      <trkpt lat="47.74362" lon="6.82131">
        <ele>489.3</ele>
        <time>2021-06-23T11:17:45Z</time>
      </trkpt>
      <trkpt lat="47.74356" lon="6.82107">
        <ele>490.09</ele>
        <time>2021-06-23T11:17:52Z</time>
      </trkpt>
      <trkpt lat="47.74341" lon="6.82106">
        <ele>489.61</ele>
        <time>2021-06-23T11:17:55Z</time>
      </trkpt>
      <trkpt lat="47.74339" lon="6.82099">
        <ele>490.06</ele>
        <time>2021-06-23T11:18:00Z</time>
      </trkpt>
      <trkpt lat="47.74337" lon="6.82089">
        <ele>490.73</ele>
        <time>2021-06-23T11:18:05Z</time>
      </trkpt>
      <trkpt lat="47.74333" lon="6.82075">
        <ele>491.61</ele>
        <time>2021-06-23T11:18:10Z</time>
      </trkpt>
      <trkpt lat="47.74325" lon="6.82057">
        <ele>492.33</ele>
        <time>2021-06-23T11:18:16Z</time>
      </trkpt>
      <trkpt lat="47.74319" lon="6.8205">
        <ele>492.06</ele>
        <time>2021-06-23T11:18:21Z</time>
      </trkpt>
      <trkpt lat="47.74289" lon="6.81989">
        <ele>490.74</ele>
        <time>2021-06-23T11:18:26Z</time>
      </trkpt>
      <trkpt lat="47.74272" lon="6.8193">
        <ele>492.61</ele>
        <time>2021-06-23T11:18:31Z</time>
      </trkpt>
      <trkpt lat="47.74261" lon="6.81903">
        <ele>493.79</ele>
        <time>2021-06-23T11:18:37Z</time>
      </trkpt>
      <trkpt lat="47.74246" lon="6.81878">
        <ele>494.11</ele>
        <time>2021-06-23T11:18:42Z</time>
      </trkpt>
      <trkpt lat="47.7424" lon="6.81872">
        <ele>493.9</ele>
        <time>2021-06-23T11:18:47Z</time>
      </trkpt>
      <trkpt lat="47.74239" lon="6.81867">
        <ele>493.98</ele>
        <time>2021-06-23T11:18:52Z</time>
      </trkpt>
      <trkpt lat="47.7421" lon="6.81824">
        <ele>496.35</ele>
        <time>2021-06-23T11:18:58Z</time>
      </trkpt>
      <trkpt lat="47.74171" lon="6.81785">
        <ele>497.36</ele>
        <time>2021-06-23T11:19:03Z</time>
      </trkpt>
      <trkpt lat="47.74143" lon="6.81724">
        <ele>505.17</ele>
        <time>2021-06-23T11:19:08Z</time>
      </trkpt>
      <trkpt lat="47.74143" lon="6.81724">
        <ele>505.17</ele>
        <time>2021-06-23T11:19:08Z</time>
      </trkpt>
      <trkpt lat="47.74124" lon="6.81683">
        <ele>505.52</ele>
        <time>2021-06-23T11:19:10Z</time>
      </trkpt>
      <trkpt lat="47.74117" lon="6.81673">
        <ele>505.36</ele>
        <time>2021-06-23T11:19:12Z</time>
      </trkpt>
      <trkpt lat="47.74116" lon="6.81666">
        <ele>505.65</ele>
        <time>2021-06-23T11:19:14Z</time>
      </trkpt>
      <trkpt lat="47.7409" lon="6.8161">
        <ele>509.93</ele>
        <time>2021-06-23T11:19:17Z</time>
      </trkpt>
      <trkpt lat="47.74082" lon="6.8159">
        <ele>510.52</ele>
        <time>2021-06-23T11:19:19Z</time>
      </trkpt>
      <trkpt lat="47.74079" lon="6.81568">
        <ele>511.31</ele>
        <time>2021-06-23T11:19:21Z</time>
      </trkpt>
      <trkpt lat="47.7408" lon="6.81548">
        <ele>511.8</ele>
        <time>2021-06-23T11:19:23Z</time>
      </trkpt>
      <trkpt lat="47.74084" lon="6.81528">
        <ele>512.02</ele>
        <time>2021-06-23T11:19:25Z</time>
      </trkpt>
      <trkpt lat="47.74142" lon="6.81335">
        <ele>518.2</ele>
        <time>2021-06-23T11:19:27Z</time>
      </trkpt>
      <trkpt lat="47.74144" lon="6.81309">
        <ele>517.65</ele>
        <time>2021-06-23T11:19:29Z</time>
      </trkpt>
      <trkpt lat="47.74141" lon="6.81244">
        <ele>518.29</ele>
        <time>2021-06-23T11:19:31Z</time>
      </trkpt>
      <trkpt lat="47.7413" lon="6.81122">
        <ele>524.36</ele>
        <time>2021-06-23T11:19:34Z</time>
      </trkpt>
      <trkpt lat="47.74129" lon="6.81101">
        <ele>524.64</ele>
        <time>2021-06-23T11:19:36Z</time>
      </trkpt>
      <trkpt lat="47.74135" lon="6.81054">
        <ele>523.48</ele>
        <time>2021-06-23T11:19:38Z</time>
      </trkpt>
      <trkpt lat="47.74171" lon="6.80858">
        <ele>519.94</ele>
        <time>2021-06-23T11:19:40Z</time>
      </trkpt>
      <trkpt lat="47.74172" lon="6.80836">
        <ele>521.06</ele>
        <time>2021-06-23T11:19:42Z</time>
      </trkpt>
      <trkpt lat="47.7416" lon="6.80743">
        <ele>530.57</ele>
        <time>2021-06-23T11:19:44Z</time>
      </trkpt>
      <trkpt lat="47.74152" lon="6.80548">
        <ele>522.68</ele>
        <time>2021-06-23T11:19:46Z</time>
      </trkpt>
      <trkpt lat="47.74148" lon="6.80521">
        <ele>521.79</ele>
        <time>2021-06-23T11:19:48Z</time>
      </trkpt>
      <trkpt lat="47.74136" lon="6.80476">
        <ele>522.23</ele>
        <time>2021-06-23T11:19:50Z</time>
      </trkpt>
      <trkpt lat="47.74125" lon="6.80446">
        <ele>523.4</ele>
        <time>2021-06-23T11:19:53Z</time>
      </trkpt>
      <trkpt lat="47.74119" lon="6.8042">
        <ele>524.58</ele>
        <time>2021-06-23T11:19:55Z</time>
      </trkpt>
      <trkpt lat="47.7411" lon="6.80358">
        <ele>522.85</ele>
        <time>2021-06-23T11:19:57Z</time>
      </trkpt>
      <trkpt lat="47.74106" lon="6.8031">
        <ele>523.22</ele>
        <time>2021-06-23T11:19:59Z</time>
      </trkpt>
      <trkpt lat="47.74107" lon="6.8026">
        <ele>524.37</ele>
        <time>2021-06-23T11:20:01Z</time>
      </trkpt>
      <trkpt lat="47.74114" lon="6.80204">
        <ele>526.34</ele>
        <time>2021-06-23T11:20:03Z</time>
      </trkpt>
      <trkpt lat="47.74149" lon="6.80063">
        <ele>525.89</ele>
        <time>2021-06-23T11:20:05Z</time>
      </trkpt>
      <trkpt lat="47.7416" lon="6.80027">
        <ele>523.14</ele>
        <time>2021-06-23T11:20:07Z</time>
      </trkpt>
      <trkpt lat="47.74188" lon="6.79963">
        <ele>526.82</ele>
        <time>2021-06-23T11:20:10Z</time>
      </trkpt>
      <trkpt lat="47.74196" lon="6.79936">
        <ele>528.79</ele>
        <time>2021-06-23T11:20:12Z</time>
      </trkpt>
      <trkpt lat="47.74198" lon="6.79923">
        <ele>529.43</ele>
        <time>2021-06-23T11:20:14Z</time>
      </trkpt>
      <trkpt lat="47.74198" lon="6.79912">
        <ele>529.65</ele>
        <time>2021-06-23T11:20:16Z</time>
      </trkpt>
      <trkpt lat="47.74195" lon="6.79899">
        <ele>530.02</ele>
        <time>2021-06-23T11:20:18Z</time>
      </trkpt>
      <trkpt lat="47.74189" lon="6.7989">
        <ele>530.64</ele>
        <time>2021-06-23T11:20:20Z</time>
      </trkpt>
      <trkpt lat="47.74177" lon="6.79882">
        <ele>531.84</ele>
        <time>2021-06-23T11:20:22Z</time>
      </trkpt>
      <trkpt lat="47.74115" lon="6.79886">
        <ele>530.82</ele>
        <time>2021-06-23T11:20:24Z</time>
      </trkpt>
      <trkpt lat="47.74104" lon="6.79883">
        <ele>530.12</ele>
        <time>2021-06-23T11:20:26Z</time>
      </trkpt>
      <trkpt lat="47.74087" lon="6.7987">
        <ele>530.99</ele>
        <time>2021-06-23T11:20:29Z</time>
      </trkpt>
      <trkpt lat="47.74075" lon="6.79854">
        <ele>533.92</ele>
        <time>2021-06-23T11:20:31Z</time>
      </trkpt>
      <trkpt lat="47.74031" lon="6.79762">
        <ele>545.96</ele>
        <time>2021-06-23T11:20:33Z</time>
      </trkpt>
      <trkpt lat="47.74018" lon="6.7974">
        <ele>547.22</ele>
        <time>2021-06-23T11:20:35Z</time>
      </trkpt>
      <trkpt lat="47.73978" lon="6.79688">
        <ele>545.29</ele>
        <time>2021-06-23T11:20:37Z</time>
      </trkpt>
      <trkpt lat="47.73967" lon="6.7967">
        <ele>544.66</ele>
        <time>2021-06-23T11:20:39Z</time>
      </trkpt>
      <trkpt lat="47.73959" lon="6.79651">
        <ele>545.4</ele>
        <time>2021-06-23T11:20:41Z</time>
      </trkpt>
      <trkpt lat="47.7395" lon="6.79613">
        <ele>546.48</ele>
        <time>2021-06-23T11:20:43Z</time>
      </trkpt>
      <trkpt lat="47.73923" lon="6.79465">
        <ele>541.41</ele>
        <time>2021-06-23T11:20:46Z</time>
      </trkpt>
      <trkpt lat="47.73913" lon="6.79418">
        <ele>541.4</ele>
        <time>2021-06-23T11:20:48Z</time>
      </trkpt>
      <trkpt lat="47.73904" lon="6.79393">
        <ele>541.42</ele>
        <time>2021-06-23T11:20:50Z</time>
      </trkpt>
      <trkpt lat="47.7386" lon="6.79299">
        <ele>535.04</ele>
        <time>2021-06-23T11:20:52Z</time>
      </trkpt>
      <trkpt lat="47.73837" lon="6.79244">
        <ele>534.88</ele>
        <time>2021-06-23T11:20:54Z</time>
      </trkpt>
      <trkpt lat="47.73819" lon="6.79196">
        <ele>532.91</ele>
        <time>2021-06-23T11:20:56Z</time>
      </trkpt>
      <trkpt lat="47.73809" lon="6.79161">
        <ele>531.65</ele>
        <time>2021-06-23T11:20:58Z</time>
      </trkpt>
      <trkpt lat="47.73802" lon="6.79119">
        <ele>530.05</ele>
        <time>2021-06-23T11:21:00Z</time>
      </trkpt>
      <trkpt lat="47.7378" lon="6.78951">
        <ele>520.7</ele>
        <time>2021-06-23T11:21:02Z</time>
      </trkpt>
      <trkpt lat="47.73762" lon="6.7884">
        <ele>522.03</ele>
        <time>2021-06-23T11:21:05Z</time>
      </trkpt>
      <trkpt lat="47.73748" lon="6.78778">
        <ele>523.19</ele>
        <time>2021-06-23T11:21:07Z</time>
      </trkpt>
      <trkpt lat="47.73706" lon="6.78621">
        <ele>519.21</ele>
        <time>2021-06-23T11:21:09Z</time>
      </trkpt>
      <trkpt lat="47.7368" lon="6.78529">
        <ele>516.8</ele>
        <time>2021-06-23T11:21:11Z</time>
      </trkpt>
      <trkpt lat="47.73674" lon="6.78513">
        <ele>516.58</ele>
        <time>2021-06-23T11:21:13Z</time>
      </trkpt>
      <trkpt lat="47.73662" lon="6.78492">
        <ele>515.41</ele>
        <time>2021-06-23T11:21:15Z</time>
      </trkpt>
      <trkpt lat="47.73639" lon="6.78456">
        <ele>511.62</ele>
        <time>2021-06-23T11:21:17Z</time>
      </trkpt>
      <trkpt lat="47.7362" lon="6.78423">
        <ele>509.08</ele>
        <time>2021-06-23T11:21:19Z</time>
      </trkpt>
      <trkpt lat="47.73605" lon="6.78402">
        <ele>507.79</ele>
        <time>2021-06-23T11:21:22Z</time>
      </trkpt>
      <trkpt lat="47.73599" lon="6.78396">
        <ele>507.29</ele>
        <time>2021-06-23T11:21:24Z</time>
      </trkpt>
      <trkpt lat="47.73569" lon="6.78351">
        <ele>506.18</ele>
        <time>2021-06-23T11:21:26Z</time>
      </trkpt>
      <trkpt lat="47.7355" lon="6.78329">
        <ele>505.86</ele>
        <time>2021-06-23T11:21:28Z</time>
      </trkpt>
      <trkpt lat="47.7354" lon="6.78323">
        <ele>505.43</ele>
        <time>2021-06-23T11:21:30Z</time>
      </trkpt>
      <trkpt lat="47.73526" lon="6.78322">
        <ele>504.32</ele>
        <time>2021-06-23T11:21:32Z</time>
      </trkpt>
      <trkpt lat="47.73512" lon="6.78324">
        <ele>503.56</ele>
        <time>2021-06-23T11:21:34Z</time>
      </trkpt>
      <trkpt lat="47.73494" lon="6.78331">
        <ele>503</ele>
        <time>2021-06-23T11:21:36Z</time>
      </trkpt>
      <trkpt lat="47.73481" lon="6.78344">
        <ele>502.22</ele>
        <time>2021-06-23T11:21:38Z</time>
      </trkpt>
      <trkpt lat="47.73475" lon="6.78356">
        <ele>501.39</ele>
        <time>2021-06-23T11:21:41Z</time>
      </trkpt>
      <trkpt lat="47.73457" lon="6.78412">
        <ele>498.36</ele>
        <time>2021-06-23T11:21:43Z</time>
      </trkpt>
      <trkpt lat="47.73448" lon="6.78426">
        <ele>497.92</ele>
        <time>2021-06-23T11:21:45Z</time>
      </trkpt>
      <trkpt lat="47.73441" lon="6.78432">
        <ele>498.05</ele>
        <time>2021-06-23T11:21:47Z</time>
      </trkpt>
      <trkpt lat="47.73425" lon="6.78439">
        <ele>498.14</ele>
        <time>2021-06-23T11:21:49Z</time>
      </trkpt>
      <trkpt lat="47.73386" lon="6.78446">
        <ele>497.11</ele>
        <time>2021-06-23T11:21:51Z</time>
      </trkpt>
      <trkpt lat="47.73364" lon="6.78442">
        <ele>497.91</ele>
        <time>2021-06-23T11:21:54Z</time>
      </trkpt>
      <trkpt lat="47.73357" lon="6.78438">
        <ele>498.16</ele>
        <time>2021-06-23T11:21:56Z</time>
      </trkpt>
      <trkpt lat="47.73346" lon="6.78423">
        <ele>498.53</ele>
        <time>2021-06-23T11:21:58Z</time>
      </trkpt>
      <trkpt lat="47.7334" lon="6.78404">
        <ele>498.87</ele>
        <time>2021-06-23T11:22:01Z</time>
      </trkpt>
      <trkpt lat="47.73336" lon="6.7838">
        <ele>499.3</ele>
        <time>2021-06-23T11:22:03Z</time>
      </trkpt>
      <trkpt lat="47.73339" lon="6.78326">
        <ele>499.69</ele>
        <time>2021-06-23T11:22:06Z</time>
      </trkpt>
      <trkpt lat="47.73338" lon="6.78295">
        <ele>497.72</ele>
        <time>2021-06-23T11:22:08Z</time>
      </trkpt>
      <trkpt lat="47.73322" lon="6.78216">
        <ele>487.51</ele>
        <time>2021-06-23T11:22:11Z</time>
      </trkpt>
      <trkpt lat="47.73325" lon="6.78207">
        <ele>486.9</ele>
        <time>2021-06-23T11:22:13Z</time>
      </trkpt>
      <trkpt lat="47.73324" lon="6.78202">
        <ele>486.66</ele>
        <time>2021-06-23T11:22:16Z</time>
      </trkpt>
      <trkpt lat="47.73321" lon="6.78193">
        <ele>486.47</ele>
        <time>2021-06-23T11:22:19Z</time>
      </trkpt>
      <trkpt lat="47.73316" lon="6.78189">
        <ele>486.69</ele>
        <time>2021-06-23T11:22:22Z</time>
      </trkpt>
      <trkpt lat="47.73311" lon="6.7819">
        <ele>486.85</ele>
        <time>2021-06-23T11:22:25Z</time>
      </trkpt>
      <trkpt lat="47.73309" lon="6.78179">
        <ele>486.95</ele>
        <time>2021-06-23T11:22:28Z</time>
      </trkpt>
      <trkpt lat="47.73305" lon="6.78122">
        <ele>487.99</ele>
        <time>2021-06-23T11:22:31Z</time>
      </trkpt>
      <trkpt lat="47.73307" lon="6.78094">
        <ele>488.04</ele>
        <time>2021-06-23T11:22:34Z</time>
      </trkpt>
      <trkpt lat="47.73311" lon="6.78064">
        <ele>487.61</ele>
        <time>2021-06-23T11:22:37Z</time>
      </trkpt>
      <trkpt lat="47.73322" lon="6.78026">
        <ele>487.56</ele>
        <time>2021-06-23T11:22:40Z</time>
      </trkpt>
      <trkpt lat="47.73393" lon="6.77847">
        <ele>492.18</ele>
        <time>2021-06-23T11:22:43Z</time>
      </trkpt>
      <trkpt lat="47.73438" lon="6.77713">
        <ele>494.92</ele>
        <time>2021-06-23T11:22:46Z</time>
      </trkpt>
      <trkpt lat="47.73446" lon="6.77679">
        <ele>495</ele>
        <time>2021-06-23T11:22:48Z</time>
      </trkpt>
      <trkpt lat="47.73448" lon="6.77648">
        <ele>495</ele>
        <time>2021-06-23T11:22:51Z</time>
      </trkpt>
      <trkpt lat="47.73445" lon="6.7762">
        <ele>495.67</ele>
        <time>2021-06-23T11:22:54Z</time>
      </trkpt>
      <trkpt lat="47.73439" lon="6.77601">
        <ele>495.98</ele>
        <time>2021-06-23T11:22:57Z</time>
      </trkpt>
      <trkpt lat="47.73427" lon="6.77576">
        <ele>495.86</ele>
        <time>2021-06-23T11:23:00Z</time>
      </trkpt>
      <trkpt lat="47.73363" lon="6.77498">
        <ele>493.31</ele>
        <time>2021-06-23T11:23:03Z</time>
      </trkpt>
      <trkpt lat="47.73349" lon="6.77466">
        <ele>493.67</ele>
        <time>2021-06-23T11:23:06Z</time>
      </trkpt>
      <trkpt lat="47.73341" lon="6.77435">
        <ele>494.09</ele>
        <time>2021-06-23T11:23:09Z</time>
      </trkpt>
      <trkpt lat="47.7331" lon="6.7723">
        <ele>497.71</ele>
        <time>2021-06-23T11:23:12Z</time>
      </trkpt>
      <trkpt lat="47.73303" lon="6.77195">
        <ele>499.64</ele>
        <time>2021-06-23T11:23:15Z</time>
      </trkpt>
      <trkpt lat="47.7324" lon="6.76966">
        <ele>508.85</ele>
        <time>2021-06-23T11:23:18Z</time>
      </trkpt>
      <trkpt lat="47.73221" lon="6.7689">
        <ele>511.86</ele>
        <time>2021-06-23T11:23:21Z</time>
      </trkpt>
      <trkpt lat="47.73201" lon="6.76824">
        <ele>516.32</ele>
        <time>2021-06-23T11:23:23Z</time>
      </trkpt>
      <trkpt lat="47.7319" lon="6.76796">
        <ele>516.83</ele>
        <time>2021-06-23T11:23:26Z</time>
      </trkpt>
      <trkpt lat="47.73183" lon="6.76781">
        <ele>516.57</ele>
        <time>2021-06-23T11:23:29Z</time>
      </trkpt>
      <trkpt lat="47.73163" lon="6.76731">
        <ele>514.7</ele>
        <time>2021-06-23T11:23:32Z</time>
      </trkpt>
      <trkpt lat="47.73135" lon="6.76667">
        <ele>513.66</ele>
        <time>2021-06-23T11:23:35Z</time>
      </trkpt>
      <trkpt lat="47.73081" lon="6.76571">
        <ele>510.93</ele>
        <time>2021-06-23T11:23:38Z</time>
      </trkpt>
      <trkpt lat="47.73073" lon="6.76559">
        <ele>508.44</ele>
        <time>2021-06-23T11:23:41Z</time>
      </trkpt>
      <trkpt lat="47.73065" lon="6.76551">
        <ele>506.25</ele>
        <time>2021-06-23T11:23:44Z</time>
      </trkpt>
      <trkpt lat="47.73056" lon="6.76545">
        <ele>504.14</ele>
        <time>2021-06-23T11:23:47Z</time>
      </trkpt>
      <trkpt lat="47.73047" lon="6.76543">
        <ele>502.77</ele>
        <time>2021-06-23T11:23:50Z</time>
      </trkpt>
      <trkpt lat="47.73036" lon="6.76542">
        <ele>501.23</ele>
        <time>2021-06-23T11:23:53Z</time>
      </trkpt>
      <trkpt lat="47.72972" lon="6.76559">
        <ele>499.4</ele>
        <time>2021-06-23T11:23:56Z</time>
      </trkpt>
      <trkpt lat="47.72955" lon="6.76558">
        <ele>499.98</ele>
        <time>2021-06-23T11:23:58Z</time>
      </trkpt>
      <trkpt lat="47.72934" lon="6.76548">
        <ele>501.87</ele>
        <time>2021-06-23T11:24:01Z</time>
      </trkpt>
      <trkpt lat="47.72925" lon="6.7654">
        <ele>502.64</ele>
        <time>2021-06-23T11:24:04Z</time>
      </trkpt>
      <trkpt lat="47.72913" lon="6.76522">
        <ele>502.16</ele>
        <time>2021-06-23T11:24:07Z</time>
      </trkpt>
      <trkpt lat="47.72902" lon="6.76496">
        <ele>500.53</ele>
        <time>2021-06-23T11:24:10Z</time>
      </trkpt>
      <trkpt lat="47.72881" lon="6.76442">
        <ele>497.23</ele>
        <time>2021-06-23T11:24:13Z</time>
      </trkpt>
      <trkpt lat="47.72859" lon="6.76374">
        <ele>495.66</ele>
        <time>2021-06-23T11:24:16Z</time>
      </trkpt>
      <trkpt lat="47.72839" lon="6.7629">
        <ele>493.02</ele>
        <time>2021-06-23T11:24:19Z</time>
      </trkpt>
      <trkpt lat="47.72827" lon="6.76229">
        <ele>487.69</ele>
        <time>2021-06-23T11:24:22Z</time>
      </trkpt>
      <trkpt lat="47.728" lon="6.76111">
        <ele>478.73</ele>
        <time>2021-06-23T11:24:25Z</time>
      </trkpt>
      <trkpt lat="47.72783" lon="6.7605">
        <ele>476.45</ele>
        <time>2021-06-23T11:24:28Z</time>
      </trkpt>
      <trkpt lat="47.7277" lon="6.76008">
        <ele>473.97</ele>
        <time>2021-06-23T11:24:31Z</time>
      </trkpt>
      <trkpt lat="47.72754" lon="6.75966">
        <ele>471.87</ele>
        <time>2021-06-23T11:24:33Z</time>
      </trkpt>
      <trkpt lat="47.72716" lon="6.75875">
        <ele>470.05</ele>
        <time>2021-06-23T11:24:36Z</time>
      </trkpt>
      <trkpt lat="47.72701" lon="6.75845">
        <ele>468.11</ele>
        <time>2021-06-23T11:24:39Z</time>
      </trkpt>
      <trkpt lat="47.7269" lon="6.75828">
        <ele>466.08</ele>
        <time>2021-06-23T11:24:42Z</time>
      </trkpt>
      <trkpt lat="47.72673" lon="6.7581">
        <ele>464.16</ele>
        <time>2021-06-23T11:24:45Z</time>
      </trkpt>
      <trkpt lat="47.72655" lon="6.75797">
        <ele>462.29</ele>
        <time>2021-06-23T11:24:48Z</time>
      </trkpt>
      <trkpt lat="47.72628" lon="6.75783">
        <ele>460.3</ele>
        <time>2021-06-23T11:24:51Z</time>
      </trkpt>
      <trkpt lat="47.72613" lon="6.75777">
        <ele>459.86</ele>
        <time>2021-06-23T11:24:54Z</time>
      </trkpt>
      <trkpt lat="47.72578" lon="6.75772">
        <ele>461.83</ele>
        <time>2021-06-23T11:24:57Z</time>
      </trkpt>
      <trkpt lat="47.7256" lon="6.75763">
        <ele>462.73</ele>
        <time>2021-06-23T11:25:00Z</time>
      </trkpt>
      <trkpt lat="47.72533" lon="6.75742">
        <ele>462.73</ele>
        <time>2021-06-23T11:25:03Z</time>
      </trkpt>
      <trkpt lat="47.72514" lon="6.75717">
        <ele>459.01</ele>
        <time>2021-06-23T11:25:06Z</time>
      </trkpt>
      <trkpt lat="47.72497" lon="6.75685">
        <ele>453.66</ele>
        <time>2021-06-23T11:25:08Z</time>
      </trkpt>
      <trkpt lat="47.72491" lon="6.75671">
        <ele>451.86</ele>
        <time>2021-06-23T11:25:11Z</time>
      </trkpt>
      <trkpt lat="47.72487" lon="6.75647">
        <ele>450.03</ele>
        <time>2021-06-23T11:25:14Z</time>
      </trkpt>
      <trkpt lat="47.7249" lon="6.75618">
        <ele>448.17</ele>
        <time>2021-06-23T11:25:17Z</time>
      </trkpt>
      <trkpt lat="47.72506" lon="6.75543">
        <ele>449.07</ele>
        <time>2021-06-23T11:25:20Z</time>
      </trkpt>
      <trkpt lat="47.72508" lon="6.75525">
        <ele>449.99</ele>
        <time>2021-06-23T11:25:23Z</time>
      </trkpt>
      <trkpt lat="47.72509" lon="6.75487">
        <ele>451.82</ele>
        <time>2021-06-23T11:25:26Z</time>
      </trkpt>
      <trkpt lat="47.72502" lon="6.75441">
        <ele>451.27</ele>
        <time>2021-06-23T11:25:29Z</time>
      </trkpt>
      <trkpt lat="47.72443" lon="6.75202">
        <ele>449.28</ele>
        <time>2021-06-23T11:25:32Z</time>
      </trkpt>
      <trkpt lat="47.72436" lon="6.75165">
        <ele>449.47</ele>
        <time>2021-06-23T11:25:35Z</time>
      </trkpt>
      <trkpt lat="47.72406" lon="6.74966">
        <ele>442.17</ele>
        <time>2021-06-23T11:25:38Z</time>
      </trkpt>
      <trkpt lat="47.72402" lon="6.74913">
        <ele>440.31</ele>
        <time>2021-06-23T11:25:41Z</time>
      </trkpt>
      <trkpt lat="47.72403" lon="6.74887">
        <ele>439.49</ele>
        <time>2021-06-23T11:25:43Z</time>
      </trkpt>
      <trkpt lat="47.72406" lon="6.74853">
        <ele>440.17</ele>
        <time>2021-06-23T11:25:46Z</time>
      </trkpt>
      <trkpt lat="47.72422" lon="6.74743">
        <ele>439.93</ele>
        <time>2021-06-23T11:25:49Z</time>
      </trkpt>
      <trkpt lat="47.72424" lon="6.74713">
        <ele>438.93</ele>
        <time>2021-06-23T11:25:52Z</time>
      </trkpt>
      <trkpt lat="47.72423" lon="6.74692">
        <ele>438.18</ele>
        <time>2021-06-23T11:25:55Z</time>
      </trkpt>
      <trkpt lat="47.72419" lon="6.74672">
        <ele>437.42</ele>
        <time>2021-06-23T11:25:58Z</time>
      </trkpt>
      <trkpt lat="47.72412" lon="6.74647">
        <ele>436.77</ele>
        <time>2021-06-23T11:26:01Z</time>
      </trkpt>
      <trkpt lat="47.72286" lon="6.74307">
        <ele>437.44</ele>
        <time>2021-06-23T11:26:04Z</time>
      </trkpt>
      <trkpt lat="47.72286" lon="6.74307">
        <ele>437.44</ele>
        <time>2021-06-23T11:26:04Z</time>
      </trkpt>
      <trkpt lat="47.72243" lon="6.74191">
        <ele>436.9</ele>
        <time>2021-06-23T11:26:06Z</time>
      </trkpt>
      <trkpt lat="47.72227" lon="6.7416">
        <ele>435.09</ele>
        <time>2021-06-23T11:26:09Z</time>
      </trkpt>
      <trkpt lat="47.72096" lon="6.7398">
        <ele>430.01</ele>
        <time>2021-06-23T11:26:11Z</time>
      </trkpt>
      <trkpt lat="47.72076" lon="6.73956">
        <ele>433.14</ele>
        <time>2021-06-23T11:26:13Z</time>
      </trkpt>
      <trkpt lat="47.72064" lon="6.73947">
        <ele>433</ele>
        <time>2021-06-23T11:26:16Z</time>
      </trkpt>
      <trkpt lat="47.72053" lon="6.73941">
        <ele>432.44</ele>
        <time>2021-06-23T11:26:18Z</time>
      </trkpt>
      <trkpt lat="47.72041" lon="6.73939">
        <ele>432.34</ele>
        <time>2021-06-23T11:26:21Z</time>
      </trkpt>
      <trkpt lat="47.71967" lon="6.73939">
        <ele>429.22</ele>
        <time>2021-06-23T11:26:23Z</time>
      </trkpt>
      <trkpt lat="47.71932" lon="6.73934">
        <ele>428.57</ele>
        <time>2021-06-23T11:26:26Z</time>
      </trkpt>
      <trkpt lat="47.71899" lon="6.73926">
        <ele>428.67</ele>
        <time>2021-06-23T11:26:28Z</time>
      </trkpt>
      <trkpt lat="47.71883" lon="6.73915">
        <ele>428.6</ele>
        <time>2021-06-23T11:26:30Z</time>
      </trkpt>
      <trkpt lat="47.71866" lon="6.73899">
        <ele>427.48</ele>
        <time>2021-06-23T11:26:33Z</time>
      </trkpt>
      <trkpt lat="47.71779" lon="6.73792">
        <ele>427.51</ele>
        <time>2021-06-23T11:26:35Z</time>
      </trkpt>
      <trkpt lat="47.71765" lon="6.7377">
        <ele>427.39</ele>
        <time>2021-06-23T11:26:38Z</time>
      </trkpt>
      <trkpt lat="47.71752" lon="6.73745">
        <ele>426.83</ele>
        <time>2021-06-23T11:26:40Z</time>
      </trkpt>
      <trkpt lat="47.7174" lon="6.73711">
        <ele>425.85</ele>
        <time>2021-06-23T11:26:42Z</time>
      </trkpt>
      <trkpt lat="47.71731" lon="6.73667">
        <ele>424.99</ele>
        <time>2021-06-23T11:26:45Z</time>
      </trkpt>
      <trkpt lat="47.71731" lon="6.73638">
        <ele>424.32</ele>
        <time>2021-06-23T11:26:47Z</time>
      </trkpt>
      <trkpt lat="47.71735" lon="6.73629">
        <ele>424.3</ele>
        <time>2021-06-23T11:26:52Z</time>
      </trkpt>
      <trkpt lat="47.71733" lon="6.73619">
        <ele>424.11</ele>
        <time>2021-06-23T11:26:58Z</time>
      </trkpt>
      <trkpt lat="47.7173" lon="6.73615">
        <ele>424.04</ele>
        <time>2021-06-23T11:27:03Z</time>
      </trkpt>
      <trkpt lat="47.71724" lon="6.73614">
        <ele>424.01</ele>
        <time>2021-06-23T11:27:08Z</time>
      </trkpt>
      <trkpt lat="47.71718" lon="6.73619">
        <ele>423.76</ele>
        <time>2021-06-23T11:27:13Z</time>
      </trkpt>
      <trkpt lat="47.71704" lon="6.73623">
        <ele>422.96</ele>
        <time>2021-06-23T11:27:19Z</time>
      </trkpt>
      <trkpt lat="47.71672" lon="6.73623">
        <ele>421.3</ele>
        <time>2021-06-23T11:27:24Z</time>
      </trkpt>
      <trkpt lat="47.71647" lon="6.73629">
        <ele>420.3</ele>
        <time>2021-06-23T11:27:29Z</time>
      </trkpt>
      <trkpt lat="47.71634" lon="6.73628">
        <ele>419.81</ele>
        <time>2021-06-23T11:27:35Z</time>
      </trkpt>
      <trkpt lat="47.71619" lon="6.7362">
        <ele>419.28</ele>
        <time>2021-06-23T11:27:40Z</time>
      </trkpt>
      <trkpt lat="47.71543" lon="6.73536">
        <ele>420.7</ele>
        <time>2021-06-23T11:27:45Z</time>
      </trkpt>
      <trkpt lat="47.71518" lon="6.73517">
        <ele>421.75</ele>
        <time>2021-06-23T11:27:50Z</time>
      </trkpt>
      <trkpt lat="47.71491" lon="6.73507">
        <ele>422.76</ele>
        <time>2021-06-23T11:27:56Z</time>
      </trkpt>
      <trkpt lat="47.71456" lon="6.73472">
        <ele>422.39</ele>
        <time>2021-06-23T11:28:01Z</time>
      </trkpt>
      <trkpt lat="47.71444" lon="6.73463">
        <ele>421.63</ele>
        <time>2021-06-23T11:28:06Z</time>
      </trkpt>
      <trkpt lat="47.71398" lon="6.73446">
        <ele>418.65</ele>
        <time>2021-06-23T11:28:11Z</time>
      </trkpt>
      <trkpt lat="47.71382" lon="6.73436">
        <ele>418.3</ele>
        <time>2021-06-23T11:28:17Z</time>
      </trkpt>
      <trkpt lat="47.71279" lon="6.73356">
        <ele>421.2</ele>
        <time>2021-06-23T11:28:22Z</time>
      </trkpt>
      <trkpt lat="47.71258" lon="6.73335">
        <ele>421.92</ele>
        <time>2021-06-23T11:28:27Z</time>
      </trkpt>
      <trkpt lat="47.7119" lon="6.73247">
        <ele>422.88</ele>
        <time>2021-06-23T11:28:32Z</time>
      </trkpt>
      <trkpt lat="47.7117" lon="6.73216">
        <ele>422.89</ele>
        <time>2021-06-23T11:28:38Z</time>
      </trkpt>
      <trkpt lat="47.71107" lon="6.7311">
        <ele>419.37</ele>
        <time>2021-06-23T11:28:43Z</time>
      </trkpt>
      <trkpt lat="47.71065" lon="6.73033">
        <ele>415.77</ele>
        <time>2021-06-23T11:28:48Z</time>
      </trkpt>
      <trkpt lat="47.71019" lon="6.72952">
        <ele>413.58</ele>
        <time>2021-06-23T11:28:54Z</time>
      </trkpt>
      <trkpt lat="47.70892" lon="6.72736">
        <ele>409</ele>
        <time>2021-06-23T11:28:59Z</time>
      </trkpt>
      <trkpt lat="47.70877" lon="6.72704">
        <ele>408.2</ele>
        <time>2021-06-23T11:29:04Z</time>
      </trkpt>
      <trkpt lat="47.70872" lon="6.72682">
        <ele>408</ele>
        <time>2021-06-23T11:29:09Z</time>
      </trkpt>
      <trkpt lat="47.70871" lon="6.72673">
        <ele>408</ele>
        <time>2021-06-23T11:29:11Z</time>
      </trkpt>
      <trkpt lat="47.70868" lon="6.72665">
        <ele>407.95</ele>
        <time>2021-06-23T11:29:14Z</time>
      </trkpt>
      <trkpt lat="47.70861" lon="6.72661">
        <ele>407.78</ele>
        <time>2021-06-23T11:29:16Z</time>
      </trkpt>
      <trkpt lat="47.70857" lon="6.72661">
        <ele>407.78</ele>
        <time>2021-06-23T11:29:18Z</time>
      </trkpt>
      <trkpt lat="47.70849" lon="6.72652">
        <ele>407.46</ele>
        <time>2021-06-23T11:29:20Z</time>
      </trkpt>
      <trkpt lat="47.7083" lon="6.72624">
        <ele>407.19</ele>
        <time>2021-06-23T11:29:22Z</time>
      </trkpt>
      <trkpt lat="47.70645" lon="6.72294">
        <ele>403.48</ele>
        <time>2021-06-23T11:29:24Z</time>
      </trkpt>
      <trkpt lat="47.70606" lon="6.72228">
        <ele>403.32</ele>
        <time>2021-06-23T11:29:27Z</time>
      </trkpt>
      <trkpt lat="47.7059" lon="6.72208">
        <ele>405.62</ele>
        <time>2021-06-23T11:29:29Z</time>
      </trkpt>
      <trkpt lat="47.70576" lon="6.72201">
        <ele>407.21</ele>
        <time>2021-06-23T11:29:31Z</time>
      </trkpt>
      <trkpt lat="47.70518" lon="6.72193">
        <ele>407.28</ele>
        <time>2021-06-23T11:29:33Z</time>
      </trkpt>
      <trkpt lat="47.70503" lon="6.72186">
        <ele>407.24</ele>
        <time>2021-06-23T11:29:35Z</time>
      </trkpt>
      <trkpt lat="47.7049" lon="6.72175">
        <ele>407.14</ele>
        <time>2021-06-23T11:29:37Z</time>
      </trkpt>
      <trkpt lat="47.70476" lon="6.72151">
        <ele>408.24</ele>
        <time>2021-06-23T11:29:40Z</time>
      </trkpt>
      <trkpt lat="47.7046" lon="6.72112">
        <ele>410.43</ele>
        <time>2021-06-23T11:29:42Z</time>
      </trkpt>
      <trkpt lat="47.7042" lon="6.71946">
        <ele>415.48</ele>
        <time>2021-06-23T11:29:44Z</time>
      </trkpt>
      <trkpt lat="47.70416" lon="6.7192">
        <ele>405.11</ele>
        <time>2021-06-23T11:29:46Z</time>
      </trkpt>
      <trkpt lat="47.70416" lon="6.7192">
        <ele>405.11</ele>
        <time>2021-06-23T11:29:46Z</time>
      </trkpt>
      <trkpt lat="47.70335" lon="6.71459">
        <ele>394.74</ele>
        <time>2021-06-23T11:29:53Z</time>
      </trkpt>
      <trkpt lat="47.70287" lon="6.71191">
        <ele>391.46</ele>
        <time>2021-06-23T11:30:00Z</time>
      </trkpt>
      <trkpt lat="47.70279" lon="6.71106">
        <ele>391.02</ele>
        <time>2021-06-23T11:30:07Z</time>
      </trkpt>
      <trkpt lat="47.70287" lon="6.70681">
        <ele>387.67</ele>
        <time>2021-06-23T11:30:14Z</time>
      </trkpt>
      <trkpt lat="47.70288" lon="6.70507">
        <ele>387.91</ele>
        <time>2021-06-23T11:30:21Z</time>
      </trkpt>
      <trkpt lat="47.7029" lon="6.70441">
        <ele>389.37</ele>
        <time>2021-06-23T11:30:27Z</time>
      </trkpt>
      <trkpt lat="47.70298" lon="6.70358">
        <ele>387</ele>
        <time>2021-06-23T11:30:34Z</time>
      </trkpt>
      <trkpt lat="47.703" lon="6.70316">
        <ele>387</ele>
        <time>2021-06-23T11:30:41Z</time>
      </trkpt>
      <trkpt lat="47.703" lon="6.7029">
        <ele>387</ele>
        <time>2021-06-23T11:30:48Z</time>
      </trkpt>
      <trkpt lat="47.7028" lon="6.70143">
        <ele>385.39</ele>
        <time>2021-06-23T11:30:55Z</time>
      </trkpt>
      <trkpt lat="47.70279" lon="6.701">
        <ele>384.02</ele>
        <time>2021-06-23T11:31:02Z</time>
      </trkpt>
      <trkpt lat="47.70281" lon="6.70078">
        <ele>384</ele>
        <time>2021-06-23T11:31:09Z</time>
      </trkpt>
      <trkpt lat="47.70288" lon="6.70054">
        <ele>384</ele>
        <time>2021-06-23T11:31:16Z</time>
      </trkpt>
      <trkpt lat="47.70297" lon="6.70029">
        <ele>384</ele>
        <time>2021-06-23T11:31:23Z</time>
      </trkpt>
      <trkpt lat="47.70302" lon="6.70001">
        <ele>384.97</ele>
        <time>2021-06-23T11:31:30Z</time>
      </trkpt>
      <trkpt lat="47.70323" lon="6.69349">
        <ele>378.39</ele>
        <time>2021-06-23T11:31:36Z</time>
      </trkpt>
      <trkpt lat="47.70327" lon="6.69312">
        <ele>378.23</ele>
        <time>2021-06-23T11:31:43Z</time>
      </trkpt>
      <trkpt lat="47.70421" lon="6.68933">
        <ele>376.17</ele>
        <time>2021-06-23T11:31:50Z</time>
      </trkpt>
      <trkpt lat="47.70484" lon="6.68799">
        <ele>375.19</ele>
        <time>2021-06-23T11:31:57Z</time>
      </trkpt>
      <trkpt lat="47.70498" lon="6.68761">
        <ele>374.37</ele>
        <time>2021-06-23T11:32:04Z</time>
      </trkpt>
      <trkpt lat="47.70544" lon="6.68619">
        <ele>373.71</ele>
        <time>2021-06-23T11:32:11Z</time>
      </trkpt>
      <trkpt lat="47.70552" lon="6.68588">
        <ele>373.14</ele>
        <time>2021-06-23T11:32:18Z</time>
      </trkpt>
      <trkpt lat="47.7056" lon="6.68519">
        <ele>373</ele>
        <time>2021-06-23T11:32:25Z</time>
      </trkpt>
      <trkpt lat="47.70557" lon="6.68491">
        <ele>373</ele>
        <time>2021-06-23T11:32:32Z</time>
      </trkpt>
      <trkpt lat="47.70537" lon="6.68447">
        <ele>371.42</ele>
        <time>2021-06-23T11:32:39Z</time>
      </trkpt>
      <trkpt lat="47.70531" lon="6.68429">
        <ele>371.05</ele>
        <time>2021-06-23T11:32:46Z</time>
      </trkpt>
      <trkpt lat="47.70515" lon="6.68317">
        <ele>369</ele>
        <time>2021-06-23T11:32:52Z</time>
      </trkpt>
      <trkpt lat="47.70512" lon="6.68281">
        <ele>369</ele>
        <time>2021-06-23T11:32:59Z</time>
      </trkpt>
      <trkpt lat="47.70513" lon="6.68251">
        <ele>368.02</ele>
        <time>2021-06-23T11:33:06Z</time>
      </trkpt>
      <trkpt lat="47.70512" lon="6.68239">
        <ele>367.41</ele>
        <time>2021-06-23T11:33:13Z</time>
      </trkpt>
      <trkpt lat="47.70509" lon="6.68229">
        <ele>366.98</ele>
        <time>2021-06-23T11:33:20Z</time>
      </trkpt>
      <trkpt lat="47.70498" lon="6.68213">
        <ele>367.06</ele>
        <time>2021-06-23T11:33:27Z</time>
      </trkpt>
      <trkpt lat="47.70397" lon="6.68129">
        <ele>368.19</ele>
        <time>2021-06-23T11:33:34Z</time>
      </trkpt>
      <trkpt lat="47.70371" lon="6.68103">
        <ele>367.25</ele>
        <time>2021-06-23T11:33:41Z</time>
      </trkpt>
      <trkpt lat="47.7034" lon="6.6807">
        <ele>366.63</ele>
        <time>2021-06-23T11:33:48Z</time>
      </trkpt>
      <trkpt lat="47.70334" lon="6.68055">
        <ele>366.04</ele>
        <time>2021-06-23T11:33:55Z</time>
      </trkpt>
      <trkpt lat="47.70332" lon="6.68038">
        <ele>366.02</ele>
        <time>2021-06-23T11:34:01Z</time>
      </trkpt>
      <trkpt lat="47.70331" lon="6.67981">
        <ele>367.69</ele>
        <time>2021-06-23T11:34:08Z</time>
      </trkpt>
      <trkpt lat="47.70335" lon="6.67814">
        <ele>367.71</ele>
        <time>2021-06-23T11:34:15Z</time>
      </trkpt>
      <trkpt lat="47.70348" lon="6.67489">
        <ele>363.52</ele>
        <time>2021-06-23T11:34:22Z</time>
      </trkpt>
      <trkpt lat="47.70351" lon="6.67489">
        <ele>363.64</ele>
        <time>2021-06-23T11:34:27Z</time>
      </trkpt>
      <trkpt lat="47.7036" lon="6.67483">
        <ele>363.95</ele>
        <time>2021-06-23T11:34:32Z</time>
      </trkpt>
      <trkpt lat="47.70363" lon="6.67474">
        <ele>364.01</ele>
        <time>2021-06-23T11:34:36Z</time>
      </trkpt>
      <trkpt lat="47.70363" lon="6.67463">
        <ele>363.66</ele>
        <time>2021-06-23T11:34:41Z</time>
      </trkpt>
      <trkpt lat="47.70357" lon="6.67453">
        <ele>363.16</ele>
        <time>2021-06-23T11:34:46Z</time>
      </trkpt>
      <trkpt lat="47.70352" lon="6.6745">
        <ele>362.9</ele>
        <time>2021-06-23T11:34:50Z</time>
      </trkpt>
      <trkpt lat="47.7036" lon="6.67258">
        <ele>358.62</ele>
        <time>2021-06-23T11:34:55Z</time>
      </trkpt>
      <trkpt lat="47.70359" lon="6.67201">
        <ele>359.86</ele>
        <time>2021-06-23T11:35:00Z</time>
      </trkpt>
      <trkpt lat="47.7035" lon="6.67127">
        <ele>359.38</ele>
        <time>2021-06-23T11:35:04Z</time>
      </trkpt>
      <trkpt lat="47.70338" lon="6.6707">
        <ele>360.13</ele>
        <time>2021-06-23T11:35:09Z</time>
      </trkpt>
      <trkpt lat="47.70296" lon="6.66934">
        <ele>361.2</ele>
        <time>2021-06-23T11:35:14Z</time>
      </trkpt>
      <trkpt lat="47.70249" lon="6.66805">
        <ele>362</ele>
        <time>2021-06-23T11:35:19Z</time>
      </trkpt>
      <trkpt lat="47.70226" lon="6.66711">
        <ele>360</ele>
        <time>2021-06-23T11:35:23Z</time>
      </trkpt>
      <trkpt lat="47.70216" lon="6.66648">
        <ele>360.79</ele>
        <time>2021-06-23T11:35:28Z</time>
      </trkpt>
      <trkpt lat="47.70175" lon="6.66443">
        <ele>359.23</ele>
        <time>2021-06-23T11:35:33Z</time>
      </trkpt>
      <trkpt lat="47.7016" lon="6.66388">
        <ele>358.86</ele>
        <time>2021-06-23T11:35:37Z</time>
      </trkpt>
      <trkpt lat="47.70103" lon="6.66227">
        <ele>355.71</ele>
        <time>2021-06-23T11:35:42Z</time>
      </trkpt>
      <trkpt lat="47.7007" lon="6.66131">
        <ele>355.21</ele>
        <time>2021-06-23T11:35:47Z</time>
      </trkpt>
      <trkpt lat="47.70057" lon="6.66053">
        <ele>356.04</ele>
        <time>2021-06-23T11:35:51Z</time>
      </trkpt>
      <trkpt lat="47.70045" lon="6.65949">
        <ele>355.93</ele>
        <time>2021-06-23T11:35:56Z</time>
      </trkpt>
      <trkpt lat="47.70023" lon="6.65807">
        <ele>356</ele>
        <time>2021-06-23T11:36:01Z</time>
      </trkpt>
      <trkpt lat="47.70003" lon="6.65733">
        <ele>355.89</ele>
        <time>2021-06-23T11:36:06Z</time>
      </trkpt>
      <trkpt lat="47.69938" lon="6.65574">
        <ele>356.17</ele>
        <time>2021-06-23T11:36:10Z</time>
      </trkpt>
      <trkpt lat="47.69925" lon="6.65529">
        <ele>353.06</ele>
        <time>2021-06-23T11:36:15Z</time>
      </trkpt>
      <trkpt lat="47.69909" lon="6.65453">
        <ele>351.29</ele>
        <time>2021-06-23T11:36:20Z</time>
      </trkpt>
      <trkpt lat="47.69766" lon="6.64759">
        <ele>348.41</ele>
        <time>2021-06-23T11:36:24Z</time>
      </trkpt>
      <trkpt lat="47.69724" lon="6.64361">
        <ele>345.02</ele>
        <time>2021-06-23T11:36:29Z</time>
      </trkpt>
      <trkpt lat="47.69723" lon="6.64344">
        <ele>345.61</ele>
        <time>2021-06-23T11:36:34Z</time>
      </trkpt>
      <trkpt lat="47.69725" lon="6.64314">
        <ele>346.63</ele>
        <time>2021-06-23T11:36:39Z</time>
      </trkpt>
      <trkpt lat="47.69728" lon="6.64292">
        <ele>346.33</ele>
        <time>2021-06-23T11:36:43Z</time>
      </trkpt>
      <trkpt lat="47.69728" lon="6.64277">
        <ele>345.79</ele>
        <time>2021-06-23T11:36:48Z</time>
      </trkpt>
      <trkpt lat="47.69725" lon="6.64262">
        <ele>345.4</ele>
        <time>2021-06-23T11:36:53Z</time>
      </trkpt>
      <trkpt lat="47.6971" lon="6.64232">
        <ele>345.16</ele>
        <time>2021-06-23T11:36:57Z</time>
      </trkpt>
      <trkpt lat="47.697" lon="6.64218">
        <ele>345</ele>
        <time>2021-06-23T11:37:02Z</time>
      </trkpt>
      <trkpt lat="47.6976" lon="6.63936">
        <ele>342.68</ele>
        <time>2021-06-23T11:37:13Z</time>
      </trkpt>
      <trkpt lat="47.69846" lon="6.63543">
        <ele>340.46</ele>
        <time>2021-06-23T11:37:25Z</time>
      </trkpt>
      <trkpt lat="47.69874" lon="6.63405">
        <ele>342.8</ele>
        <time>2021-06-23T11:37:36Z</time>
      </trkpt>
      <trkpt lat="47.69884" lon="6.63369">
        <ele>342.19</ele>
        <time>2021-06-23T11:37:47Z</time>
      </trkpt>
      <trkpt lat="47.69893" lon="6.63348">
        <ele>341.86</ele>
        <time>2021-06-23T11:37:59Z</time>
      </trkpt>
      <trkpt lat="47.69901" lon="6.63334">
        <ele>341.55</ele>
        <time>2021-06-23T11:38:10Z</time>
      </trkpt>
      <trkpt lat="47.69913" lon="6.63324">
        <ele>341.14</ele>
        <time>2021-06-23T11:38:21Z</time>
      </trkpt>
      <trkpt lat="47.69969" lon="6.63296">
        <ele>341.22</ele>
        <time>2021-06-23T11:38:33Z</time>
      </trkpt>
      <trkpt lat="47.70039" lon="6.63274">
        <ele>347.78</ele>
        <time>2021-06-23T11:38:44Z</time>
      </trkpt>
      <trkpt lat="47.70041" lon="6.6326">
        <ele>347.94</ele>
        <time>2021-06-23T11:38:50Z</time>
      </trkpt>
      <trkpt lat="47.70028" lon="6.6316">
        <ele>345.76</ele>
        <time>2021-06-23T11:38:57Z</time>
      </trkpt>
      <trkpt lat="47.70023" lon="6.63055">
        <ele>344</ele>
        <time>2021-06-23T11:39:04Z</time>
      </trkpt>
      <trkpt lat="47.7007" lon="6.63055">
        <ele>346.55</ele>
        <time>2021-06-23T11:39:07Z</time>
      </trkpt>
      <trkpt lat="47.70084" lon="6.63059">
        <ele>347.89</ele>
        <time>2021-06-23T11:39:11Z</time>
      </trkpt>
      <trkpt lat="47.70113" lon="6.63086">
        <ele>348.94</ele>
        <time>2021-06-23T11:39:15Z</time>
      </trkpt>
      <trkpt lat="47.70123" lon="6.63089">
        <ele>349.41</ele>
        <time>2021-06-23T11:39:18Z</time>
      </trkpt>
      <trkpt lat="47.70135" lon="6.63088">
        <ele>350.43</ele>
        <time>2021-06-23T11:39:22Z</time>
      </trkpt>
      <trkpt lat="47.70158" lon="6.63071">
        <ele>353.55</ele>
        <time>2021-06-23T11:39:26Z</time>
      </trkpt>
      <trkpt lat="47.70246" lon="6.62984">
        <ele>367.26</ele>
        <time>2021-06-23T11:39:30Z</time>
      </trkpt>
      <trkpt lat="47.70268" lon="6.62954">
        <ele>371.2</ele>
        <time>2021-06-23T11:39:33Z</time>
      </trkpt>
      <trkpt lat="47.70335" lon="6.62874">
        <ele>380.21</ele>
        <time>2021-06-23T11:39:37Z</time>
      </trkpt>
      <trkpt lat="47.70395" lon="6.62817">
        <ele>395.39</ele>
        <time>2021-06-23T11:39:41Z</time>
      </trkpt>
      <trkpt lat="47.70431" lon="6.62783">
        <ele>403.24</ele>
        <time>2021-06-23T11:39:44Z</time>
      </trkpt>
      <trkpt lat="47.70521" lon="6.62712">
        <ele>417.45</ele>
        <time>2021-06-23T11:39:48Z</time>
      </trkpt>
      <trkpt lat="47.7055" lon="6.62684">
        <ele>421.35</ele>
        <time>2021-06-23T11:39:52Z</time>
      </trkpt>
      <trkpt lat="47.70574" lon="6.6265">
        <ele>425.36</ele>
        <time>2021-06-23T11:39:56Z</time>
      </trkpt>
      <trkpt lat="47.70604" lon="6.62596">
        <ele>432.76</ele>
        <time>2021-06-23T11:39:59Z</time>
      </trkpt>
      <trkpt lat="47.70616" lon="6.62549">
        <ele>432.93</ele>
        <time>2021-06-23T11:40:03Z</time>
      </trkpt>
      <trkpt lat="47.70617" lon="6.62521">
        <ele>431.96</ele>
        <time>2021-06-23T11:40:07Z</time>
      </trkpt>
      <trkpt lat="47.70616" lon="6.62483">
        <ele>430.69</ele>
        <time>2021-06-23T11:40:10Z</time>
      </trkpt>
      <trkpt lat="47.70608" lon="6.62455">
        <ele>428.72</ele>
        <time>2021-06-23T11:40:14Z</time>
      </trkpt>
      <trkpt lat="47.70603" lon="6.62424">
        <ele>426.52</ele>
        <time>2021-06-23T11:40:18Z</time>
      </trkpt>
      <trkpt lat="47.70606" lon="6.62358">
        <ele>427.14</ele>
        <time>2021-06-23T11:40:22Z</time>
      </trkpt>
      <trkpt lat="47.70603" lon="6.62337">
        <ele>428.33</ele>
        <time>2021-06-23T11:40:25Z</time>
      </trkpt>
      <trkpt lat="47.70564" lon="6.62234">
        <ele>438.2</ele>
        <time>2021-06-23T11:40:29Z</time>
      </trkpt>
      <trkpt lat="47.70553" lon="6.62223">
        <ele>441.36</ele>
        <time>2021-06-23T11:40:33Z</time>
      </trkpt>
      <trkpt lat="47.70514" lon="6.62208">
        <ele>447.03</ele>
        <time>2021-06-23T11:40:36Z</time>
      </trkpt>
      <trkpt lat="47.7043" lon="6.62189">
        <ele>454.23</ele>
        <time>2021-06-23T11:40:40Z</time>
      </trkpt>
      <trkpt lat="47.7041" lon="6.6218">
        <ele>455.07</ele>
        <time>2021-06-23T11:40:44Z</time>
      </trkpt>
      <trkpt lat="47.70327" lon="6.6208">
        <ele>449.46</ele>
        <time>2021-06-23T11:40:48Z</time>
      </trkpt>
      <trkpt lat="47.70299" lon="6.62054">
        <ele>447.69</ele>
        <time>2021-06-23T11:40:51Z</time>
      </trkpt>
      <trkpt lat="47.70298" lon="6.62052">
        <ele>447.2</ele>
        <time>2021-06-23T11:40:55Z</time>
      </trkpt>
      <trkpt lat="47.70298" lon="6.62052">
        <ele>447.2</ele>
        <time>2021-06-23T11:40:55Z</time>
      </trkpt>
      <trkpt lat="47.70299" lon="6.62054">
        <ele>447.69</ele>
        <time>2021-06-23T11:40:59Z</time>
      </trkpt>
      <trkpt lat="47.70327" lon="6.6208">
        <ele>449.46</ele>
        <time>2021-06-23T11:41:02Z</time>
      </trkpt>
      <trkpt lat="47.7041" lon="6.6218">
        <ele>455.07</ele>
        <time>2021-06-23T11:41:06Z</time>
      </trkpt>
      <trkpt lat="47.7043" lon="6.62189">
        <ele>454.23</ele>
        <time>2021-06-23T11:41:10Z</time>
      </trkpt>
      <trkpt lat="47.70514" lon="6.62208">
        <ele>447.03</ele>
        <time>2021-06-23T11:41:14Z</time>
      </trkpt>
      <trkpt lat="47.70553" lon="6.62223">
        <ele>441.36</ele>
        <time>2021-06-23T11:41:17Z</time>
      </trkpt>
      <trkpt lat="47.70564" lon="6.62234">
        <ele>438.2</ele>
        <time>2021-06-23T11:41:21Z</time>
      </trkpt>
      <trkpt lat="47.70603" lon="6.62337">
        <ele>428.33</ele>
        <time>2021-06-23T11:41:25Z</time>
      </trkpt>
      <trkpt lat="47.70606" lon="6.62358">
        <ele>427.14</ele>
        <time>2021-06-23T11:41:28Z</time>
      </trkpt>
      <trkpt lat="47.70603" lon="6.62424">
        <ele>426.52</ele>
        <time>2021-06-23T11:41:32Z</time>
      </trkpt>
      <trkpt lat="47.70608" lon="6.62455">
        <ele>428.72</ele>
        <time>2021-06-23T11:41:36Z</time>
      </trkpt>
      <trkpt lat="47.70616" lon="6.62483">
        <ele>430.69</ele>
        <time>2021-06-23T11:41:40Z</time>
      </trkpt>
      <trkpt lat="47.70617" lon="6.62521">
        <ele>431.96</ele>
        <time>2021-06-23T11:41:43Z</time>
      </trkpt>
      <trkpt lat="47.70616" lon="6.62549">
        <ele>432.93</ele>
        <time>2021-06-23T11:41:47Z</time>
      </trkpt>
      <trkpt lat="47.70604" lon="6.62596">
        <ele>432.76</ele>
        <time>2021-06-23T11:41:51Z</time>
      </trkpt>
      <trkpt lat="47.70574" lon="6.6265">
        <ele>425.36</ele>
        <time>2021-06-23T11:41:55Z</time>
      </trkpt>
      <trkpt lat="47.7055" lon="6.62684">
        <ele>421.35</ele>
        <time>2021-06-23T11:41:58Z</time>
      </trkpt>
      <trkpt lat="47.70521" lon="6.62712">
        <ele>417.45</ele>
        <time>2021-06-23T11:42:02Z</time>
      </trkpt>
      <trkpt lat="47.70431" lon="6.62783">
        <ele>403.24</ele>
        <time>2021-06-23T11:42:06Z</time>
      </trkpt>
      <trkpt lat="47.70395" lon="6.62817">
        <ele>395.39</ele>
        <time>2021-06-23T11:42:09Z</time>
      </trkpt>
      <trkpt lat="47.70335" lon="6.62874">
        <ele>380.21</ele>
        <time>2021-06-23T11:42:13Z</time>
      </trkpt>
      <trkpt lat="47.70268" lon="6.62954">
        <ele>371.2</ele>
        <time>2021-06-23T11:42:17Z</time>
      </trkpt>
      <trkpt lat="47.70246" lon="6.62984">
        <ele>367.26</ele>
        <time>2021-06-23T11:42:21Z</time>
      </trkpt>
      <trkpt lat="47.70158" lon="6.63071">
        <ele>353.55</ele>
        <time>2021-06-23T11:42:24Z</time>
      </trkpt>
      <trkpt lat="47.70135" lon="6.63088">
        <ele>350.43</ele>
        <time>2021-06-23T11:42:28Z</time>
      </trkpt>
      <trkpt lat="47.70123" lon="6.63089">
        <ele>349.41</ele>
        <time>2021-06-23T11:42:32Z</time>
      </trkpt>
      <trkpt lat="47.70113" lon="6.63086">
        <ele>348.94</ele>
        <time>2021-06-23T11:42:35Z</time>
      </trkpt>
      <trkpt lat="47.70084" lon="6.63059">
        <ele>347.89</ele>
        <time>2021-06-23T11:42:39Z</time>
      </trkpt>
      <trkpt lat="47.7007" lon="6.63055">
        <ele>346.55</ele>
        <time>2021-06-23T11:42:43Z</time>
      </trkpt>
      <trkpt lat="47.70023" lon="6.63055">
        <ele>344</ele>
        <time>2021-06-23T11:42:47Z</time>
      </trkpt>
      <trkpt lat="47.70028" lon="6.6316">
        <ele>345.76</ele>
        <time>2021-06-23T11:42:53Z</time>
      </trkpt>
      <trkpt lat="47.70041" lon="6.6326">
        <ele>347.94</ele>
        <time>2021-06-23T11:43:00Z</time>
      </trkpt>
      <trkpt lat="47.70039" lon="6.63274">
        <ele>347.78</ele>
        <time>2021-06-23T11:43:06Z</time>
      </trkpt>
      <trkpt lat="47.69969" lon="6.63296">
        <ele>341.22</ele>
        <time>2021-06-23T11:43:18Z</time>
      </trkpt>
      <trkpt lat="47.69913" lon="6.63324">
        <ele>341.14</ele>
        <time>2021-06-23T11:43:29Z</time>
      </trkpt>
      <trkpt lat="47.69901" lon="6.63334">
        <ele>341.55</ele>
        <time>2021-06-23T11:43:40Z</time>
      </trkpt>
      <trkpt lat="47.69893" lon="6.63348">
        <ele>341.86</ele>
        <time>2021-06-23T11:43:52Z</time>
      </trkpt>
      <trkpt lat="47.69884" lon="6.63369">
        <ele>342.19</ele>
        <time>2021-06-23T11:44:03Z</time>
      </trkpt>
      <trkpt lat="47.69874" lon="6.63405">
        <ele>342.8</ele>
        <time>2021-06-23T11:44:15Z</time>
      </trkpt>
      <trkpt lat="47.69846" lon="6.63543">
        <ele>340.46</ele>
        <time>2021-06-23T11:44:26Z</time>
      </trkpt>
      <trkpt lat="47.6976" lon="6.63936">
        <ele>342.68</ele>
        <time>2021-06-23T11:44:38Z</time>
      </trkpt>
      <trkpt lat="47.69698" lon="6.64227">
        <ele>345.16</ele>
        <time>2021-06-23T11:44:49Z</time>
      </trkpt>
      <trkpt lat="47.69699" lon="6.64235">
        <ele>345.4</ele>
        <time>2021-06-23T11:44:54Z</time>
      </trkpt>
      <trkpt lat="47.69702" lon="6.64243">
        <ele>345.55</ele>
        <time>2021-06-23T11:45:00Z</time>
      </trkpt>
      <trkpt lat="47.69706" lon="6.64248">
        <ele>345.53</ele>
        <time>2021-06-23T11:45:05Z</time>
      </trkpt>
      <trkpt lat="47.6972" lon="6.64271">
        <ele>345.78</ele>
        <time>2021-06-23T11:45:10Z</time>
      </trkpt>
      <trkpt lat="47.69722" lon="6.6428">
        <ele>346.08</ele>
        <time>2021-06-23T11:45:16Z</time>
      </trkpt>
      <trkpt lat="47.69725" lon="6.64314">
        <ele>346.63</ele>
        <time>2021-06-23T11:45:21Z</time>
      </trkpt>
      <trkpt lat="47.69723" lon="6.64344">
        <ele>345.61</ele>
        <time>2021-06-23T11:45:27Z</time>
      </trkpt>
      <trkpt lat="47.69724" lon="6.64361">
        <ele>345.02</ele>
        <time>2021-06-23T11:45:32Z</time>
      </trkpt>
      <trkpt lat="47.69766" lon="6.64759">
        <ele>348.41</ele>
        <time>2021-06-23T11:45:37Z</time>
      </trkpt>
      <trkpt lat="47.69909" lon="6.65453">
        <ele>351.29</ele>
        <time>2021-06-23T11:45:43Z</time>
      </trkpt>
      <trkpt lat="47.69925" lon="6.65529">
        <ele>353.06</ele>
        <time>2021-06-23T11:45:48Z</time>
      </trkpt>
      <trkpt lat="47.69938" lon="6.65574">
        <ele>356.17</ele>
        <time>2021-06-23T11:45:53Z</time>
      </trkpt>
      <trkpt lat="47.70003" lon="6.65733">
        <ele>355.89</ele>
        <time>2021-06-23T11:45:59Z</time>
      </trkpt>
      <trkpt lat="47.70023" lon="6.65807">
        <ele>356</ele>
        <time>2021-06-23T11:46:04Z</time>
      </trkpt>
      <trkpt lat="47.70045" lon="6.65949">
        <ele>355.93</ele>
        <time>2021-06-23T11:46:10Z</time>
      </trkpt>
      <trkpt lat="47.70057" lon="6.66053">
        <ele>356.04</ele>
        <time>2021-06-23T11:46:15Z</time>
      </trkpt>
      <trkpt lat="47.7007" lon="6.66131">
        <ele>355.21</ele>
        <time>2021-06-23T11:46:20Z</time>
      </trkpt>
      <trkpt lat="47.70103" lon="6.66227">
        <ele>355.71</ele>
        <time>2021-06-23T11:46:26Z</time>
      </trkpt>
      <trkpt lat="47.7016" lon="6.66388">
        <ele>358.86</ele>
        <time>2021-06-23T11:46:31Z</time>
      </trkpt>
      <trkpt lat="47.70175" lon="6.66443">
        <ele>359.23</ele>
        <time>2021-06-23T11:46:36Z</time>
      </trkpt>
      <trkpt lat="47.70216" lon="6.66648">
        <ele>360.79</ele>
        <time>2021-06-23T11:46:42Z</time>
      </trkpt>
      <trkpt lat="47.70226" lon="6.66711">
        <ele>360</ele>
        <time>2021-06-23T11:46:47Z</time>
      </trkpt>
      <trkpt lat="47.70249" lon="6.66805">
        <ele>362</ele>
        <time>2021-06-23T11:46:53Z</time>
      </trkpt>
      <trkpt lat="47.70296" lon="6.66934">
        <ele>361.2</ele>
        <time>2021-06-23T11:46:58Z</time>
      </trkpt>
      <trkpt lat="47.70338" lon="6.6707">
        <ele>360.13</ele>
        <time>2021-06-23T11:47:03Z</time>
      </trkpt>
      <trkpt lat="47.7035" lon="6.67127">
        <ele>359.38</ele>
        <time>2021-06-23T11:47:09Z</time>
      </trkpt>
      <trkpt lat="47.70359" lon="6.67201">
        <ele>359.86</ele>
        <time>2021-06-23T11:47:14Z</time>
      </trkpt>
      <trkpt lat="47.7036" lon="6.67258">
        <ele>358.62</ele>
        <time>2021-06-23T11:47:19Z</time>
      </trkpt>
      <trkpt lat="47.70352" lon="6.6745">
        <ele>362.9</ele>
        <time>2021-06-23T11:47:25Z</time>
      </trkpt>
      <trkpt lat="47.70347" lon="6.67451">
        <ele>362.73</ele>
        <time>2021-06-23T11:47:31Z</time>
      </trkpt>
      <trkpt lat="47.70339" lon="6.6746">
        <ele>362.76</ele>
        <time>2021-06-23T11:47:37Z</time>
      </trkpt>
      <trkpt lat="47.70337" lon="6.6747">
        <ele>363.05</ele>
        <time>2021-06-23T11:47:42Z</time>
      </trkpt>
      <trkpt lat="47.70338" lon="6.67477">
        <ele>363.17</ele>
        <time>2021-06-23T11:47:48Z</time>
      </trkpt>
      <trkpt lat="47.70344" lon="6.67486">
        <ele>363.37</ele>
        <time>2021-06-23T11:47:54Z</time>
      </trkpt>
      <trkpt lat="47.70348" lon="6.67489">
        <ele>363.52</ele>
        <time>2021-06-23T11:48:00Z</time>
      </trkpt>
      <trkpt lat="47.70335" lon="6.67814">
        <ele>367.71</ele>
        <time>2021-06-23T11:48:06Z</time>
      </trkpt>
      <trkpt lat="47.70331" lon="6.67981">
        <ele>367.69</ele>
        <time>2021-06-23T11:48:12Z</time>
      </trkpt>
      <trkpt lat="47.70332" lon="6.68038">
        <ele>366.02</ele>
        <time>2021-06-23T11:48:17Z</time>
      </trkpt>
      <trkpt lat="47.70334" lon="6.68055">
        <ele>366.04</ele>
        <time>2021-06-23T11:48:23Z</time>
      </trkpt>
      <trkpt lat="47.7034" lon="6.6807">
        <ele>366.63</ele>
        <time>2021-06-23T11:48:29Z</time>
      </trkpt>
      <trkpt lat="47.70371" lon="6.68103">
        <ele>367.25</ele>
        <time>2021-06-23T11:48:35Z</time>
      </trkpt>
      <trkpt lat="47.70397" lon="6.68129">
        <ele>368.19</ele>
        <time>2021-06-23T11:48:41Z</time>
      </trkpt>
      <trkpt lat="47.70498" lon="6.68213">
        <ele>367.06</ele>
        <time>2021-06-23T11:48:47Z</time>
      </trkpt>
      <trkpt lat="47.70509" lon="6.68229">
        <ele>366.98</ele>
        <time>2021-06-23T11:48:52Z</time>
      </trkpt>
      <trkpt lat="47.70512" lon="6.68239">
        <ele>367.41</ele>
        <time>2021-06-23T11:48:58Z</time>
      </trkpt>
      <trkpt lat="47.70513" lon="6.68251">
        <ele>368.02</ele>
        <time>2021-06-23T11:49:04Z</time>
      </trkpt>
      <trkpt lat="47.70512" lon="6.68281">
        <ele>369</ele>
        <time>2021-06-23T11:49:10Z</time>
      </trkpt>
      <trkpt lat="47.70515" lon="6.68317">
        <ele>369</ele>
        <time>2021-06-23T11:49:16Z</time>
      </trkpt>
      <trkpt lat="47.70531" lon="6.68429">
        <ele>371.05</ele>
        <time>2021-06-23T11:49:22Z</time>
      </trkpt>
      <trkpt lat="47.70537" lon="6.68447">
        <ele>371.42</ele>
        <time>2021-06-23T11:49:27Z</time>
      </trkpt>
      <trkpt lat="47.70557" lon="6.68491">
        <ele>373</ele>
        <time>2021-06-23T11:49:33Z</time>
      </trkpt>
      <trkpt lat="47.7056" lon="6.68519">
        <ele>373</ele>
        <time>2021-06-23T11:49:39Z</time>
      </trkpt>
      <trkpt lat="47.70552" lon="6.68588">
        <ele>373.14</ele>
        <time>2021-06-23T11:49:45Z</time>
      </trkpt>
      <trkpt lat="47.70544" lon="6.68619">
        <ele>373.71</ele>
        <time>2021-06-23T11:49:51Z</time>
      </trkpt>
      <trkpt lat="47.70498" lon="6.68761">
        <ele>374.37</ele>
        <time>2021-06-23T11:49:57Z</time>
      </trkpt>
      <trkpt lat="47.70484" lon="6.68799">
        <ele>375.19</ele>
        <time>2021-06-23T11:50:02Z</time>
      </trkpt>
      <trkpt lat="47.70421" lon="6.68933">
        <ele>376.17</ele>
        <time>2021-06-23T11:50:08Z</time>
      </trkpt>
      <trkpt lat="47.70327" lon="6.69312">
        <ele>378.23</ele>
        <time>2021-06-23T11:50:14Z</time>
      </trkpt>
      <trkpt lat="47.70323" lon="6.69349">
        <ele>378.39</ele>
        <time>2021-06-23T11:50:20Z</time>
      </trkpt>
      <trkpt lat="47.70302" lon="6.70001">
        <ele>384.97</ele>
        <time>2021-06-23T11:50:26Z</time>
      </trkpt>
      <trkpt lat="47.70297" lon="6.70029">
        <ele>384</ele>
        <time>2021-06-23T11:50:32Z</time>
      </trkpt>
      <trkpt lat="47.70288" lon="6.70054">
        <ele>384</ele>
        <time>2021-06-23T11:50:38Z</time>
      </trkpt>
      <trkpt lat="47.70281" lon="6.70078">
        <ele>384</ele>
        <time>2021-06-23T11:50:43Z</time>
      </trkpt>
      <trkpt lat="47.70279" lon="6.701">
        <ele>384.02</ele>
        <time>2021-06-23T11:50:49Z</time>
      </trkpt>
      <trkpt lat="47.7028" lon="6.70143">
        <ele>385.39</ele>
        <time>2021-06-23T11:50:55Z</time>
      </trkpt>
      <trkpt lat="47.703" lon="6.7029">
        <ele>387</ele>
        <time>2021-06-23T11:51:01Z</time>
      </trkpt>
      <trkpt lat="47.703" lon="6.70316">
        <ele>387</ele>
        <time>2021-06-23T11:51:07Z</time>
      </trkpt>
      <trkpt lat="47.70298" lon="6.70358">
        <ele>387</ele>
        <time>2021-06-23T11:51:13Z</time>
      </trkpt>
      <trkpt lat="47.7029" lon="6.70441">
        <ele>389.37</ele>
        <time>2021-06-23T11:51:18Z</time>
      </trkpt>
      <trkpt lat="47.70288" lon="6.70532">
        <ele>387.65</ele>
        <time>2021-06-23T11:51:24Z</time>
      </trkpt>
      <trkpt lat="47.70287" lon="6.70681">
        <ele>387.67</ele>
        <time>2021-06-23T11:51:30Z</time>
      </trkpt>
      <trkpt lat="47.7028" lon="6.71047">
        <ele>389.34</ele>
        <time>2021-06-23T11:51:36Z</time>
      </trkpt>
      <trkpt lat="47.7028" lon="6.71047">
        <ele>389.34</ele>
        <time>2021-06-23T11:51:36Z</time>
      </trkpt>
      <trkpt lat="47.70279" lon="6.71106">
        <ele>391.02</ele>
        <time>2021-06-23T11:51:40Z</time>
      </trkpt>
      <trkpt lat="47.70287" lon="6.71191">
        <ele>391.46</ele>
        <time>2021-06-23T11:51:44Z</time>
      </trkpt>
      <trkpt lat="47.70335" lon="6.71459">
        <ele>394.74</ele>
        <time>2021-06-23T11:51:48Z</time>
      </trkpt>
      <trkpt lat="47.7042" lon="6.71946">
        <ele>415.48</ele>
        <time>2021-06-23T11:51:51Z</time>
      </trkpt>
      <trkpt lat="47.7046" lon="6.72112">
        <ele>410.43</ele>
        <time>2021-06-23T11:51:55Z</time>
      </trkpt>
      <trkpt lat="47.70476" lon="6.72151">
        <ele>408.24</ele>
        <time>2021-06-23T11:51:59Z</time>
      </trkpt>
      <trkpt lat="47.7049" lon="6.72175">
        <ele>407.14</ele>
        <time>2021-06-23T11:52:03Z</time>
      </trkpt>
      <trkpt lat="47.70503" lon="6.72186">
        <ele>407.24</ele>
        <time>2021-06-23T11:52:07Z</time>
      </trkpt>
      <trkpt lat="47.70518" lon="6.72193">
        <ele>407.28</ele>
        <time>2021-06-23T11:52:11Z</time>
      </trkpt>
      <trkpt lat="47.70576" lon="6.72201">
        <ele>407.21</ele>
        <time>2021-06-23T11:52:15Z</time>
      </trkpt>
      <trkpt lat="47.7059" lon="6.72208">
        <ele>405.62</ele>
        <time>2021-06-23T11:52:19Z</time>
      </trkpt>
      <trkpt lat="47.70606" lon="6.72228">
        <ele>403.32</ele>
        <time>2021-06-23T11:52:23Z</time>
      </trkpt>
      <trkpt lat="47.70645" lon="6.72294">
        <ele>403.48</ele>
        <time>2021-06-23T11:52:26Z</time>
      </trkpt>
      <trkpt lat="47.7083" lon="6.72624">
        <ele>407.19</ele>
        <time>2021-06-23T11:52:30Z</time>
      </trkpt>
      <trkpt lat="47.70843" lon="6.72657">
        <ele>407.65</ele>
        <time>2021-06-23T11:52:34Z</time>
      </trkpt>
      <trkpt lat="47.70848" lon="6.72672">
        <ele>408</ele>
        <time>2021-06-23T11:52:38Z</time>
      </trkpt>
      <trkpt lat="47.70847" lon="6.72678">
        <ele>408</ele>
        <time>2021-06-23T11:52:43Z</time>
      </trkpt>
      <trkpt lat="47.70848" lon="6.72689">
        <ele>408</ele>
        <time>2021-06-23T11:52:49Z</time>
      </trkpt>
      <trkpt lat="47.70851" lon="6.72694">
        <ele>408</ele>
        <time>2021-06-23T11:52:54Z</time>
      </trkpt>
      <trkpt lat="47.70859" lon="6.72698">
        <ele>407.99</ele>
        <time>2021-06-23T11:52:59Z</time>
      </trkpt>
      <trkpt lat="47.70862" lon="6.72698">
        <ele>408</ele>
        <time>2021-06-23T11:53:05Z</time>
      </trkpt>
      <trkpt lat="47.70872" lon="6.72709">
        <ele>408.21</ele>
        <time>2021-06-23T11:53:10Z</time>
      </trkpt>
      <trkpt lat="47.70892" lon="6.72736">
        <ele>409</ele>
        <time>2021-06-23T11:53:15Z</time>
      </trkpt>
      <trkpt lat="47.71019" lon="6.72952">
        <ele>413.58</ele>
        <time>2021-06-23T11:53:20Z</time>
      </trkpt>
      <trkpt lat="47.71065" lon="6.73033">
        <ele>415.77</ele>
        <time>2021-06-23T11:53:26Z</time>
      </trkpt>
      <trkpt lat="47.71107" lon="6.7311">
        <ele>419.37</ele>
        <time>2021-06-23T11:53:31Z</time>
      </trkpt>
      <trkpt lat="47.7117" lon="6.73216">
        <ele>422.89</ele>
        <time>2021-06-23T11:53:36Z</time>
      </trkpt>
      <trkpt lat="47.7119" lon="6.73247">
        <ele>422.88</ele>
        <time>2021-06-23T11:53:42Z</time>
      </trkpt>
      <trkpt lat="47.71258" lon="6.73335">
        <ele>421.92</ele>
        <time>2021-06-23T11:53:47Z</time>
      </trkpt>
      <trkpt lat="47.71279" lon="6.73356">
        <ele>421.2</ele>
        <time>2021-06-23T11:53:52Z</time>
      </trkpt>
      <trkpt lat="47.713" lon="6.73372">
        <ele>419.75</ele>
        <time>2021-06-23T11:53:58Z</time>
      </trkpt>
      <trkpt lat="47.713" lon="6.73372">
        <ele>419.75</ele>
        <time>2021-06-23T11:53:58Z</time>
      </trkpt>
      <trkpt lat="47.71382" lon="6.73436">
        <ele>418.3</ele>
        <time>2021-06-23T11:54:02Z</time>
      </trkpt>
      <trkpt lat="47.71398" lon="6.73446">
        <ele>418.65</ele>
        <time>2021-06-23T11:54:07Z</time>
      </trkpt>
      <trkpt lat="47.71444" lon="6.73463">
        <ele>421.63</ele>
        <time>2021-06-23T11:54:12Z</time>
      </trkpt>
      <trkpt lat="47.71456" lon="6.73472">
        <ele>422.39</ele>
        <time>2021-06-23T11:54:16Z</time>
      </trkpt>
      <trkpt lat="47.71491" lon="6.73507">
        <ele>422.76</ele>
        <time>2021-06-23T11:54:21Z</time>
      </trkpt>
      <trkpt lat="47.71518" lon="6.73517">
        <ele>421.75</ele>
        <time>2021-06-23T11:54:26Z</time>
      </trkpt>
      <trkpt lat="47.71543" lon="6.73536">
        <ele>420.7</ele>
        <time>2021-06-23T11:54:31Z</time>
      </trkpt>
      <trkpt lat="47.71619" lon="6.7362">
        <ele>419.28</ele>
        <time>2021-06-23T11:54:35Z</time>
      </trkpt>
      <trkpt lat="47.71634" lon="6.73628">
        <ele>419.81</ele>
        <time>2021-06-23T11:54:40Z</time>
      </trkpt>
      <trkpt lat="47.71647" lon="6.73629">
        <ele>420.3</ele>
        <time>2021-06-23T11:54:45Z</time>
      </trkpt>
      <trkpt lat="47.71672" lon="6.73623">
        <ele>421.3</ele>
        <time>2021-06-23T11:54:49Z</time>
      </trkpt>
      <trkpt lat="47.71704" lon="6.73623">
        <ele>422.96</ele>
        <time>2021-06-23T11:54:54Z</time>
      </trkpt>
      <trkpt lat="47.71719" lon="6.73634">
        <ele>423.85</ele>
        <time>2021-06-23T11:54:59Z</time>
      </trkpt>
      <trkpt lat="47.71725" lon="6.73641">
        <ele>424.15</ele>
        <time>2021-06-23T11:55:00Z</time>
      </trkpt>
      <trkpt lat="47.71731" lon="6.73638">
        <ele>424.32</ele>
        <time>2021-06-23T11:55:01Z</time>
      </trkpt>
      <trkpt lat="47.71735" lon="6.73629">
        <ele>424.3</ele>
        <time>2021-06-23T11:55:03Z</time>
      </trkpt>
      <trkpt lat="47.71746" lon="6.73614">
        <ele>424.1</ele>
        <time>2021-06-23T11:55:04Z</time>
      </trkpt>
      <trkpt lat="47.7177" lon="6.73611">
        <ele>424.73</ele>
        <time>2021-06-23T11:55:11Z</time>
      </trkpt>
      <trkpt lat="47.71785" lon="6.73615">
        <ele>425.4</ele>
        <time>2021-06-23T11:55:18Z</time>
      </trkpt>
      <trkpt lat="47.71838" lon="6.73636">
        <ele>426.74</ele>
        <time>2021-06-23T11:55:24Z</time>
      </trkpt>
      <trkpt lat="47.7186" lon="6.73639">
        <ele>426.05</ele>
        <time>2021-06-23T11:55:31Z</time>
      </trkpt>
      <trkpt lat="47.71879" lon="6.73636">
        <ele>426.61</ele>
        <time>2021-06-23T11:55:38Z</time>
      </trkpt>
      <trkpt lat="47.71908" lon="6.73627">
        <ele>428.06</ele>
        <time>2021-06-23T11:55:45Z</time>
      </trkpt>
      <trkpt lat="47.71931" lon="6.73612">
        <ele>429.03</ele>
        <time>2021-06-23T11:55:52Z</time>
      </trkpt>
      <trkpt lat="47.71965" lon="6.73581">
        <ele>430.41</ele>
        <time>2021-06-23T11:55:59Z</time>
      </trkpt>
      <trkpt lat="47.72059" lon="6.7349">
        <ele>429.19</ele>
        <time>2021-06-23T11:56:06Z</time>
      </trkpt>
      <trkpt lat="47.72128" lon="6.73427">
        <ele>431.6</ele>
        <time>2021-06-23T11:56:13Z</time>
      </trkpt>
      <trkpt lat="47.7225" lon="6.73327">
        <ele>435.03</ele>
        <time>2021-06-23T11:56:20Z</time>
      </trkpt>
      <trkpt lat="47.72278" lon="6.73306">
        <ele>433.02</ele>
        <time>2021-06-23T11:56:27Z</time>
      </trkpt>
      <trkpt lat="47.72301" lon="6.73296">
        <ele>432.78</ele>
        <time>2021-06-23T11:56:34Z</time>
      </trkpt>
      <trkpt lat="47.72375" lon="6.73289">
        <ele>435.34</ele>
        <time>2021-06-23T11:56:41Z</time>
      </trkpt>
      <trkpt lat="47.72447" lon="6.73279">
        <ele>440.66</ele>
        <time>2021-06-23T11:56:48Z</time>
      </trkpt>
      <trkpt lat="47.72612" lon="6.73227">
        <ele>443.79</ele>
        <time>2021-06-23T11:56:54Z</time>
      </trkpt>
      <trkpt lat="47.7264" lon="6.73222">
        <ele>442.89</ele>
        <time>2021-06-23T11:57:01Z</time>
      </trkpt>
      <trkpt lat="47.72698" lon="6.73217">
        <ele>443.53</ele>
        <time>2021-06-23T11:57:08Z</time>
      </trkpt>
      <trkpt lat="47.72782" lon="6.73216">
        <ele>441.66</ele>
        <time>2021-06-23T11:57:15Z</time>
      </trkpt>
      <trkpt lat="47.72851" lon="6.73226">
        <ele>440.64</ele>
        <time>2021-06-23T11:57:22Z</time>
      </trkpt>
      <trkpt lat="47.72893" lon="6.73228">
        <ele>442.46</ele>
        <time>2021-06-23T11:57:29Z</time>
      </trkpt>
      <trkpt lat="47.72912" lon="6.7322">
        <ele>443.63</ele>
        <time>2021-06-23T11:57:36Z</time>
      </trkpt>
      <trkpt lat="47.72927" lon="6.7321">
        <ele>444</ele>
        <time>2021-06-23T11:57:43Z</time>
      </trkpt>
      <trkpt lat="47.72948" lon="6.73195">
        <ele>444</ele>
        <time>2021-06-23T11:57:50Z</time>
      </trkpt>
      <trkpt lat="47.72979" lon="6.73168">
        <ele>444.24</ele>
        <time>2021-06-23T11:57:57Z</time>
      </trkpt>
      <trkpt lat="47.73021" lon="6.7314">
        <ele>444.01</ele>
        <time>2021-06-23T11:58:04Z</time>
      </trkpt>
      <trkpt lat="47.73048" lon="6.73115">
        <ele>443.36</ele>
        <time>2021-06-23T11:58:11Z</time>
      </trkpt>
      <trkpt lat="47.73104" lon="6.73045">
        <ele>444</ele>
        <time>2021-06-23T11:58:17Z</time>
      </trkpt>
      <trkpt lat="47.73113" lon="6.73036">
        <ele>444.02</ele>
        <time>2021-06-23T11:58:24Z</time>
      </trkpt>
      <trkpt lat="47.73139" lon="6.73017">
        <ele>444.03</ele>
        <time>2021-06-23T11:58:31Z</time>
      </trkpt>
      <trkpt lat="47.73178" lon="6.72998">
        <ele>445.9</ele>
        <time>2021-06-23T11:58:38Z</time>
      </trkpt>
      <trkpt lat="47.73256" lon="6.72979">
        <ele>447.94</ele>
        <time>2021-06-23T11:58:45Z</time>
      </trkpt>
      <trkpt lat="47.73348" lon="6.72952">
        <ele>451.07</ele>
        <time>2021-06-23T11:58:52Z</time>
      </trkpt>
      <trkpt lat="47.734" lon="6.72927">
        <ele>450.85</ele>
        <time>2021-06-23T11:58:59Z</time>
      </trkpt>
      <trkpt lat="47.73515" lon="6.72859">
        <ele>452.62</ele>
        <time>2021-06-23T11:59:06Z</time>
      </trkpt>
      <trkpt lat="47.73534" lon="6.72856">
        <ele>453.2</ele>
        <time>2021-06-23T11:59:13Z</time>
      </trkpt>
      <trkpt lat="47.73596" lon="6.72867">
        <ele>452.46</ele>
        <time>2021-06-23T11:59:20Z</time>
      </trkpt>
      <trkpt lat="47.73664" lon="6.72863">
        <ele>454.99</ele>
        <time>2021-06-23T11:59:27Z</time>
      </trkpt>
      <trkpt lat="47.73723" lon="6.72835">
        <ele>456</ele>
        <time>2021-06-23T11:59:34Z</time>
      </trkpt>
      <trkpt lat="47.73794" lon="6.72818">
        <ele>457.15</ele>
        <time>2021-06-23T11:59:41Z</time>
      </trkpt>
      <trkpt lat="47.73903" lon="6.72797">
        <ele>460.71</ele>
        <time>2021-06-23T11:59:47Z</time>
      </trkpt>
      <trkpt lat="47.73934" lon="6.72798">
        <ele>461.86</ele>
        <time>2021-06-23T11:59:54Z</time>
      </trkpt>
      <trkpt lat="47.73934" lon="6.72798">
        <ele>461.86</ele>
        <time>2021-06-23T11:59:54Z</time>
      </trkpt>
      <trkpt lat="47.73948" lon="6.72798">
        <ele>463</ele>
        <time>2021-06-23T11:59:59Z</time>
      </trkpt>
      <trkpt lat="47.74088" lon="6.72831">
        <ele>461.92</ele>
        <time>2021-06-23T12:00:04Z</time>
      </trkpt>
      <trkpt lat="47.74286" lon="6.72895">
        <ele>465.47</ele>
        <time>2021-06-23T12:00:09Z</time>
      </trkpt>
      <trkpt lat="47.74298" lon="6.72896">
        <ele>465.7</ele>
        <time>2021-06-23T12:00:14Z</time>
      </trkpt>
      <trkpt lat="47.74316" lon="6.72895">
        <ele>465.83</ele>
        <time>2021-06-23T12:00:19Z</time>
      </trkpt>
      <trkpt lat="47.74343" lon="6.72888">
        <ele>466.36</ele>
        <time>2021-06-23T12:00:24Z</time>
      </trkpt>
      <trkpt lat="47.74357" lon="6.72887">
        <ele>466.83</ele>
        <time>2021-06-23T12:00:29Z</time>
      </trkpt>
      <trkpt lat="47.74394" lon="6.72893">
        <ele>468.24</ele>
        <time>2021-06-23T12:00:34Z</time>
      </trkpt>
      <trkpt lat="47.74472" lon="6.72927">
        <ele>466.01</ele>
        <time>2021-06-23T12:00:39Z</time>
      </trkpt>
      <trkpt lat="47.7449" lon="6.7293">
        <ele>465.35</ele>
        <time>2021-06-23T12:00:44Z</time>
      </trkpt>
      <trkpt lat="47.74508" lon="6.7293">
        <ele>464.84</ele>
        <time>2021-06-23T12:00:49Z</time>
      </trkpt>
      <trkpt lat="47.74535" lon="6.72923">
        <ele>464.23</ele>
        <time>2021-06-23T12:00:54Z</time>
      </trkpt>
      <trkpt lat="47.74556" lon="6.72913">
        <ele>464.01</ele>
        <time>2021-06-23T12:00:59Z</time>
      </trkpt>
      <trkpt lat="47.74584" lon="6.72905">
        <ele>464.61</ele>
        <time>2021-06-23T12:01:04Z</time>
      </trkpt>
      <trkpt lat="47.74598" lon="6.72906">
        <ele>465.32</ele>
        <time>2021-06-23T12:01:09Z</time>
      </trkpt>
      <trkpt lat="47.74612" lon="6.72909">
        <ele>466.05</ele>
        <time>2021-06-23T12:01:14Z</time>
      </trkpt>
      <trkpt lat="47.74646" lon="6.72932">
        <ele>466.87</ele>
        <time>2021-06-23T12:01:19Z</time>
      </trkpt>
      <trkpt lat="47.74741" lon="6.73047">
        <ele>469.16</ele>
        <time>2021-06-23T12:01:24Z</time>
      </trkpt>
      <trkpt lat="47.74752" lon="6.73055">
        <ele>470.05</ele>
        <time>2021-06-23T12:01:29Z</time>
      </trkpt>
      <trkpt lat="47.74761" lon="6.73057">
        <ele>470.43</ele>
        <time>2021-06-23T12:01:34Z</time>
      </trkpt>
      <trkpt lat="47.7478" lon="6.73056">
        <ele>471</ele>
        <time>2021-06-23T12:01:39Z</time>
      </trkpt>
      <trkpt lat="47.74835" lon="6.7304">
        <ele>472.62</ele>
        <time>2021-06-23T12:01:44Z</time>
      </trkpt>
      <trkpt lat="47.74859" lon="6.73038">
        <ele>473.57</ele>
        <time>2021-06-23T12:01:49Z</time>
      </trkpt>
      <trkpt lat="47.74901" lon="6.73043">
        <ele>473.47</ele>
        <time>2021-06-23T12:01:54Z</time>
      </trkpt>
      <trkpt lat="47.74925" lon="6.7305">
        <ele>473.26</ele>
        <time>2021-06-23T12:01:59Z</time>
      </trkpt>
      <trkpt lat="47.74985" lon="6.73074">
        <ele>471.64</ele>
        <time>2021-06-23T12:02:04Z</time>
      </trkpt>
      <trkpt lat="47.75009" lon="6.73078">
        <ele>472.17</ele>
        <time>2021-06-23T12:02:09Z</time>
      </trkpt>
      <trkpt lat="47.75037" lon="6.73077">
        <ele>474.59</ele>
        <time>2021-06-23T12:02:14Z</time>
      </trkpt>
      <trkpt lat="47.7507" lon="6.73083">
        <ele>477.07</ele>
        <time>2021-06-23T12:02:19Z</time>
      </trkpt>
      <trkpt lat="47.75125" lon="6.73107">
        <ele>479.19</ele>
        <time>2021-06-23T12:02:24Z</time>
      </trkpt>
      <trkpt lat="47.75161" lon="6.7313">
        <ele>479.18</ele>
        <time>2021-06-23T12:02:29Z</time>
      </trkpt>
      <trkpt lat="47.75255" lon="6.73215">
        <ele>480.65</ele>
        <time>2021-06-23T12:02:34Z</time>
      </trkpt>
      <trkpt lat="47.75279" lon="6.73231">
        <ele>479.72</ele>
        <time>2021-06-23T12:02:39Z</time>
      </trkpt>
      <trkpt lat="47.75356" lon="6.7327">
        <ele>480.44</ele>
        <time>2021-06-23T12:02:44Z</time>
      </trkpt>
      <trkpt lat="47.75388" lon="6.73293">
        <ele>484.17</ele>
        <time>2021-06-23T12:02:49Z</time>
      </trkpt>
      <trkpt lat="47.75407" lon="6.73312">
        <ele>487.27</ele>
        <time>2021-06-23T12:02:54Z</time>
      </trkpt>
      <trkpt lat="47.75458" lon="6.73397">
        <ele>483.69</ele>
        <time>2021-06-23T12:02:59Z</time>
      </trkpt>
      <trkpt lat="47.7551" lon="6.73477">
        <ele>484.5</ele>
        <time>2021-06-23T12:03:04Z</time>
      </trkpt>
      <trkpt lat="47.75541" lon="6.7355">
        <ele>483.44</ele>
        <time>2021-06-23T12:03:09Z</time>
      </trkpt>
      <trkpt lat="47.75545" lon="6.7357">
        <ele>484.58</ele>
        <time>2021-06-23T12:03:14Z</time>
      </trkpt>
      <trkpt lat="47.75559" lon="6.73712">
        <ele>485.7</ele>
        <time>2021-06-23T12:03:19Z</time>
      </trkpt>
      <trkpt lat="47.75565" lon="6.73748">
        <ele>484.18</ele>
        <time>2021-06-23T12:03:24Z</time>
      </trkpt>
      <trkpt lat="47.75574" lon="6.73764">
        <ele>485.04</ele>
        <time>2021-06-23T12:03:29Z</time>
      </trkpt>
      <trkpt lat="47.75588" lon="6.7378">
        <ele>486.3</ele>
        <time>2021-06-23T12:03:34Z</time>
      </trkpt>
      <trkpt lat="47.75603" lon="6.73792">
        <ele>487.04</ele>
        <time>2021-06-23T12:03:39Z</time>
      </trkpt>
      <trkpt lat="47.75618" lon="6.738">
        <ele>487.68</ele>
        <time>2021-06-23T12:03:44Z</time>
      </trkpt>
      <trkpt lat="47.75707" lon="6.73811">
        <ele>489.81</ele>
        <time>2021-06-23T12:03:49Z</time>
      </trkpt>
      <trkpt lat="47.75719" lon="6.73817">
        <ele>489.58</ele>
        <time>2021-06-23T12:03:54Z</time>
      </trkpt>
      <trkpt lat="47.75737" lon="6.73835">
        <ele>489.51</ele>
        <time>2021-06-23T12:03:59Z</time>
      </trkpt>
      <trkpt lat="47.75778" lon="6.73891">
        <ele>489</ele>
        <time>2021-06-23T12:04:04Z</time>
      </trkpt>
      <trkpt lat="47.75846" lon="6.7397">
        <ele>488.09</ele>
        <time>2021-06-23T12:04:09Z</time>
      </trkpt>
      <trkpt lat="47.75885" lon="6.73992">
        <ele>488</ele>
        <time>2021-06-23T12:04:14Z</time>
      </trkpt>
      <trkpt lat="47.75931" lon="6.74039">
        <ele>490.05</ele>
        <time>2021-06-23T12:04:19Z</time>
      </trkpt>
      <trkpt lat="47.75993" lon="6.74108">
        <ele>492.64</ele>
        <time>2021-06-23T12:04:24Z</time>
      </trkpt>
      <trkpt lat="47.76022" lon="6.7412">
        <ele>493.86</ele>
        <time>2021-06-23T12:04:29Z</time>
      </trkpt>
      <trkpt lat="47.76075" lon="6.7415">
        <ele>494.59</ele>
        <time>2021-06-23T12:04:34Z</time>
      </trkpt>
      <trkpt lat="47.76085" lon="6.7416">
        <ele>495.12</ele>
        <time>2021-06-23T12:04:39Z</time>
      </trkpt>
      <trkpt lat="47.76121" lon="6.74223">
        <ele>497.07</ele>
        <time>2021-06-23T12:04:44Z</time>
      </trkpt>
      <trkpt lat="47.76144" lon="6.74245">
        <ele>501.25</ele>
        <time>2021-06-23T12:04:49Z</time>
      </trkpt>
      <trkpt lat="47.76163" lon="6.74252">
        <ele>503.52</ele>
        <time>2021-06-23T12:04:54Z</time>
      </trkpt>
      <trkpt lat="47.76173" lon="6.74251">
        <ele>502.98</ele>
        <time>2021-06-23T12:04:59Z</time>
      </trkpt>
      <trkpt lat="47.76247" lon="6.74221">
        <ele>498.43</ele>
        <time>2021-06-23T12:05:04Z</time>
      </trkpt>
      <trkpt lat="47.76324" lon="6.74214">
        <ele>502.77</ele>
        <time>2021-06-23T12:05:09Z</time>
      </trkpt>
      <trkpt lat="47.76366" lon="6.74205">
        <ele>500.4</ele>
        <time>2021-06-23T12:05:14Z</time>
      </trkpt>
      <trkpt lat="47.76413" lon="6.74179">
        <ele>499.92</ele>
        <time>2021-06-23T12:05:19Z</time>
      </trkpt>
      <trkpt lat="47.76436" lon="6.74171">
        <ele>500.51</ele>
        <time>2021-06-23T12:05:24Z</time>
      </trkpt>
      <trkpt lat="47.76501" lon="6.74157">
        <ele>503.82</ele>
        <time>2021-06-23T12:05:29Z</time>
      </trkpt>
      <trkpt lat="47.76565" lon="6.74133">
        <ele>506.02</ele>
        <time>2021-06-23T12:05:34Z</time>
      </trkpt>
      <trkpt lat="47.76576" lon="6.74133">
        <ele>504.58</ele>
        <time>2021-06-23T12:05:39Z</time>
      </trkpt>
      <trkpt lat="47.76635" lon="6.74151">
        <ele>502.31</ele>
        <time>2021-06-23T12:05:44Z</time>
      </trkpt>
      <trkpt lat="47.76644" lon="6.74158">
        <ele>501.74</ele>
        <time>2021-06-23T12:05:49Z</time>
      </trkpt>
      <trkpt lat="47.76706" lon="6.74229">
        <ele>502.17</ele>
        <time>2021-06-23T12:05:54Z</time>
      </trkpt>
      <trkpt lat="47.76726" lon="6.74249">
        <ele>503.33</ele>
        <time>2021-06-23T12:05:59Z</time>
      </trkpt>
      <trkpt lat="47.76745" lon="6.74265">
        <ele>504.52</ele>
        <time>2021-06-23T12:06:04Z</time>
      </trkpt>
      <trkpt lat="47.7676" lon="6.74273">
        <ele>505.73</ele>
        <time>2021-06-23T12:06:09Z</time>
      </trkpt>
      <trkpt lat="47.76798" lon="6.74276">
        <ele>507.69</ele>
        <time>2021-06-23T12:06:14Z</time>
      </trkpt>
      <trkpt lat="47.76813" lon="6.7427">
        <ele>507.67</ele>
        <time>2021-06-23T12:06:19Z</time>
      </trkpt>
      <trkpt lat="47.76826" lon="6.74258">
        <ele>508.15</ele>
        <time>2021-06-23T12:06:24Z</time>
      </trkpt>
      <trkpt lat="47.76856" lon="6.74224">
        <ele>510.67</ele>
        <time>2021-06-23T12:06:29Z</time>
      </trkpt>
      <trkpt lat="47.76873" lon="6.74212">
        <ele>511.73</ele>
        <time>2021-06-23T12:06:34Z</time>
      </trkpt>
      <trkpt lat="47.76886" lon="6.74208">
        <ele>512.04</ele>
        <time>2021-06-23T12:06:39Z</time>
      </trkpt>
      <trkpt lat="47.769" lon="6.74207">
        <ele>511.89</ele>
        <time>2021-06-23T12:06:44Z</time>
      </trkpt>
      <trkpt lat="47.76916" lon="6.74209">
        <ele>511.5</ele>
        <time>2021-06-23T12:06:49Z</time>
      </trkpt>
      <trkpt lat="47.76936" lon="6.74215">
        <ele>510.95</ele>
        <time>2021-06-23T12:06:54Z</time>
      </trkpt>
      <trkpt lat="47.76964" lon="6.74227">
        <ele>511.83</ele>
        <time>2021-06-23T12:06:59Z</time>
      </trkpt>
      <trkpt lat="47.77" lon="6.74238">
        <ele>515.82</ele>
        <time>2021-06-23T12:07:04Z</time>
      </trkpt>
      <trkpt lat="47.77024" lon="6.74249">
        <ele>515.36</ele>
        <time>2021-06-23T12:07:09Z</time>
      </trkpt>
      <trkpt lat="47.77024" lon="6.74249">
        <ele>515.36</ele>
        <time>2021-06-23T12:07:09Z</time>
      </trkpt>
      <trkpt lat="47.77034" lon="6.74254">
        <ele>514.9</ele>
        <time>2021-06-23T12:07:11Z</time>
      </trkpt>
      <trkpt lat="47.77046" lon="6.74271">
        <ele>513.69</ele>
        <time>2021-06-23T12:07:14Z</time>
      </trkpt>
      <trkpt lat="47.77058" lon="6.74294">
        <ele>512.74</ele>
        <time>2021-06-23T12:07:16Z</time>
      </trkpt>
      <trkpt lat="47.77062" lon="6.7431">
        <ele>512.49</ele>
        <time>2021-06-23T12:07:19Z</time>
      </trkpt>
      <trkpt lat="47.7707" lon="6.74362">
        <ele>511</ele>
        <time>2021-06-23T12:07:21Z</time>
      </trkpt>
      <trkpt lat="47.77077" lon="6.74386">
        <ele>511</ele>
        <time>2021-06-23T12:07:24Z</time>
      </trkpt>
      <trkpt lat="47.77125" lon="6.74478">
        <ele>517.9</ele>
        <time>2021-06-23T12:07:26Z</time>
      </trkpt>
      <trkpt lat="47.77129" lon="6.74495">
        <ele>519.32</ele>
        <time>2021-06-23T12:07:29Z</time>
      </trkpt>
      <trkpt lat="47.77129" lon="6.74517">
        <ele>520.05</ele>
        <time>2021-06-23T12:07:31Z</time>
      </trkpt>
      <trkpt lat="47.77109" lon="6.74574">
        <ele>521.46</ele>
        <time>2021-06-23T12:07:34Z</time>
      </trkpt>
      <trkpt lat="47.77104" lon="6.74591">
        <ele>523.14</ele>
        <time>2021-06-23T12:07:36Z</time>
      </trkpt>
      <trkpt lat="47.77101" lon="6.74614">
        <ele>525.92</ele>
        <time>2021-06-23T12:07:39Z</time>
      </trkpt>
      <trkpt lat="47.77103" lon="6.74638">
        <ele>528.55</ele>
        <time>2021-06-23T12:07:41Z</time>
      </trkpt>
      <trkpt lat="47.77113" lon="6.74667">
        <ele>529.42</ele>
        <time>2021-06-23T12:07:44Z</time>
      </trkpt>
      <trkpt lat="47.77141" lon="6.74696">
        <ele>525.9</ele>
        <time>2021-06-23T12:07:46Z</time>
      </trkpt>
      <trkpt lat="47.77157" lon="6.74719">
        <ele>526.03</ele>
        <time>2021-06-23T12:07:49Z</time>
      </trkpt>
      <trkpt lat="47.77172" lon="6.74748">
        <ele>527.76</ele>
        <time>2021-06-23T12:07:51Z</time>
      </trkpt>
      <trkpt lat="47.77186" lon="6.74791">
        <ele>530.16</ele>
        <time>2021-06-23T12:07:54Z</time>
      </trkpt>
      <trkpt lat="47.7719" lon="6.74807">
        <ele>531.1</ele>
        <time>2021-06-23T12:07:56Z</time>
      </trkpt>
      <trkpt lat="47.77194" lon="6.74867">
        <ele>537.52</ele>
        <time>2021-06-23T12:07:59Z</time>
      </trkpt>
      <trkpt lat="47.77199" lon="6.74891">
        <ele>537.72</ele>
        <time>2021-06-23T12:08:01Z</time>
      </trkpt>
      <trkpt lat="47.77255" lon="6.75107">
        <ele>541.79</ele>
        <time>2021-06-23T12:08:04Z</time>
      </trkpt>
      <trkpt lat="47.7726" lon="6.75133">
        <ele>542.01</ele>
        <time>2021-06-23T12:08:06Z</time>
      </trkpt>
      <trkpt lat="47.77262" lon="6.75153">
        <ele>542.38</ele>
        <time>2021-06-23T12:08:09Z</time>
      </trkpt>
      <trkpt lat="47.77263" lon="6.75177">
        <ele>544.11</ele>
        <time>2021-06-23T12:08:11Z</time>
      </trkpt>
      <trkpt lat="47.77279" lon="6.75332">
        <ele>551.44</ele>
        <time>2021-06-23T12:08:13Z</time>
      </trkpt>
      <trkpt lat="47.77303" lon="6.75519">
        <ele>569.98</ele>
        <time>2021-06-23T12:08:16Z</time>
      </trkpt>
      <trkpt lat="47.77314" lon="6.75618">
        <ele>576.79</ele>
        <time>2021-06-23T12:08:18Z</time>
      </trkpt>
      <trkpt lat="47.77323" lon="6.75676">
        <ele>588.7</ele>
        <time>2021-06-23T12:08:20Z</time>
      </trkpt>
      <trkpt lat="47.7733" lon="6.75717">
        <ele>593.57</ele>
        <time>2021-06-23T12:08:22Z</time>
      </trkpt>
      <trkpt lat="47.77338" lon="6.75741">
        <ele>592.8</ele>
        <time>2021-06-23T12:08:24Z</time>
      </trkpt>
      <trkpt lat="47.77354" lon="6.75778">
        <ele>591.13</ele>
        <time>2021-06-23T12:08:27Z</time>
      </trkpt>
      <trkpt lat="47.77367" lon="6.75814">
        <ele>592.61</ele>
        <time>2021-06-23T12:08:29Z</time>
      </trkpt>
      <trkpt lat="47.77378" lon="6.75868">
        <ele>596.35</ele>
        <time>2021-06-23T12:08:31Z</time>
      </trkpt>
      <trkpt lat="47.77387" lon="6.75899">
        <ele>597.84</ele>
        <time>2021-06-23T12:08:33Z</time>
      </trkpt>
      <trkpt lat="47.77437" lon="6.76033">
        <ele>611.99</ele>
        <time>2021-06-23T12:08:35Z</time>
      </trkpt>
      <trkpt lat="47.77457" lon="6.7609">
        <ele>619.25</ele>
        <time>2021-06-23T12:08:38Z</time>
      </trkpt>
      <trkpt lat="47.7749" lon="6.76207">
        <ele>631.85</ele>
        <time>2021-06-23T12:08:40Z</time>
      </trkpt>
      <trkpt lat="47.775" lon="6.76235">
        <ele>633.68</ele>
        <time>2021-06-23T12:08:42Z</time>
      </trkpt>
      <trkpt lat="47.77558" lon="6.76364">
        <ele>645.07</ele>
        <time>2021-06-23T12:08:44Z</time>
      </trkpt>
      <trkpt lat="47.77588" lon="6.76442">
        <ele>654.06</ele>
        <time>2021-06-23T12:08:47Z</time>
      </trkpt>
      <trkpt lat="47.77609" lon="6.76518">
        <ele>666.9</ele>
        <time>2021-06-23T12:08:49Z</time>
      </trkpt>
      <trkpt lat="47.77618" lon="6.76534">
        <ele>668.27</ele>
        <time>2021-06-23T12:08:51Z</time>
      </trkpt>
      <trkpt lat="47.77637" lon="6.76555">
        <ele>668.44</ele>
        <time>2021-06-23T12:08:53Z</time>
      </trkpt>
      <trkpt lat="47.77655" lon="6.76589">
        <ele>672.23</ele>
        <time>2021-06-23T12:08:55Z</time>
      </trkpt>
      <trkpt lat="47.77725" lon="6.76686">
        <ele>685.24</ele>
        <time>2021-06-23T12:08:58Z</time>
      </trkpt>
      <trkpt lat="47.77748" lon="6.76705">
        <ele>684.69</ele>
        <time>2021-06-23T12:09:00Z</time>
      </trkpt>
      <trkpt lat="47.7779" lon="6.76734">
        <ele>681.13</ele>
        <time>2021-06-23T12:09:02Z</time>
      </trkpt>
      <trkpt lat="47.77814" lon="6.76755">
        <ele>679.84</ele>
        <time>2021-06-23T12:09:04Z</time>
      </trkpt>
      <trkpt lat="47.77834" lon="6.76784">
        <ele>682.14</ele>
        <time>2021-06-23T12:09:07Z</time>
      </trkpt>
      <trkpt lat="47.77877" lon="6.76854">
        <ele>686.56</ele>
        <time>2021-06-23T12:09:09Z</time>
      </trkpt>
      <trkpt lat="47.7791" lon="6.76869">
        <ele>683.6</ele>
        <time>2021-06-23T12:09:11Z</time>
      </trkpt>
      <trkpt lat="47.77917" lon="6.76877">
        <ele>683.75</ele>
        <time>2021-06-23T12:09:13Z</time>
      </trkpt>
      <trkpt lat="47.77919" lon="6.76888">
        <ele>685.22</ele>
        <time>2021-06-23T12:09:15Z</time>
      </trkpt>
      <trkpt lat="47.77918" lon="6.76893">
        <ele>686.5</ele>
        <time>2021-06-23T12:09:18Z</time>
      </trkpt>
      <trkpt lat="47.77916" lon="6.76897">
        <ele>688.14</ele>
        <time>2021-06-23T12:09:20Z</time>
      </trkpt>
      <trkpt lat="47.77906" lon="6.76902">
        <ele>692.13</ele>
        <time>2021-06-23T12:09:22Z</time>
      </trkpt>
      <trkpt lat="47.77888" lon="6.7689">
        <ele>693.45</ele>
        <time>2021-06-23T12:09:24Z</time>
      </trkpt>
      <trkpt lat="47.77858" lon="6.7686">
        <ele>694.27</ele>
        <time>2021-06-23T12:09:26Z</time>
      </trkpt>
      <trkpt lat="47.77802" lon="6.76794">
        <ele>699.05</ele>
        <time>2021-06-23T12:09:29Z</time>
      </trkpt>
      <trkpt lat="47.77769" lon="6.76762">
        <ele>702.36</ele>
        <time>2021-06-23T12:09:31Z</time>
      </trkpt>
      <trkpt lat="47.77745" lon="6.76749">
        <ele>704.7</ele>
        <time>2021-06-23T12:09:33Z</time>
      </trkpt>
      <trkpt lat="47.77714" lon="6.76736">
        <ele>708.4</ele>
        <time>2021-06-23T12:09:35Z</time>
      </trkpt>
      <trkpt lat="47.77637" lon="6.76697">
        <ele>712.45</ele>
        <time>2021-06-23T12:09:38Z</time>
      </trkpt>
      <trkpt lat="47.77628" lon="6.76693">
        <ele>713.48</ele>
        <time>2021-06-23T12:09:40Z</time>
      </trkpt>
      <trkpt lat="47.77603" lon="6.76689">
        <ele>718.46</ele>
        <time>2021-06-23T12:09:42Z</time>
      </trkpt>
      <trkpt lat="47.77562" lon="6.76667">
        <ele>719.43</ele>
        <time>2021-06-23T12:09:44Z</time>
      </trkpt>
      <trkpt lat="47.77532" lon="6.76665">
        <ele>728.96</ele>
        <time>2021-06-23T12:09:46Z</time>
      </trkpt>
      <trkpt lat="47.77523" lon="6.76661">
        <ele>730.63</ele>
        <time>2021-06-23T12:09:49Z</time>
      </trkpt>
      <trkpt lat="47.77515" lon="6.76655">
        <ele>731.21</ele>
        <time>2021-06-23T12:09:51Z</time>
      </trkpt>
      <trkpt lat="47.7745" lon="6.76571">
        <ele>732.92</ele>
        <time>2021-06-23T12:09:53Z</time>
      </trkpt>
      <trkpt lat="47.7744" lon="6.76562">
        <ele>733.38</ele>
        <time>2021-06-23T12:09:55Z</time>
      </trkpt>
      <trkpt lat="47.77427" lon="6.76558">
        <ele>735.89</ele>
        <time>2021-06-23T12:09:57Z</time>
      </trkpt>
      <trkpt lat="47.77402" lon="6.76564">
        <ele>746.49</ele>
        <time>2021-06-23T12:10:00Z</time>
      </trkpt>
      <trkpt lat="47.77389" lon="6.76562">
        <ele>751.26</ele>
        <time>2021-06-23T12:10:02Z</time>
      </trkpt>
      <trkpt lat="47.77372" lon="6.76543">
        <ele>753.45</ele>
        <time>2021-06-23T12:10:04Z</time>
      </trkpt>
      <trkpt lat="47.77366" lon="6.76531">
        <ele>754.13</ele>
        <time>2021-06-23T12:10:06Z</time>
      </trkpt>
      <trkpt lat="47.77358" lon="6.76513">
        <ele>754.75</ele>
        <time>2021-06-23T12:10:09Z</time>
      </trkpt>
      <trkpt lat="47.77319" lon="6.76413">
        <ele>760.34</ele>
        <time>2021-06-23T12:10:11Z</time>
      </trkpt>
      <trkpt lat="47.77302" lon="6.76353">
        <ele>763.4</ele>
        <time>2021-06-23T12:10:13Z</time>
      </trkpt>
      <trkpt lat="47.77296" lon="6.76304">
        <ele>763.61</ele>
        <time>2021-06-23T12:10:15Z</time>
      </trkpt>
      <trkpt lat="47.77293" lon="6.76295">
        <ele>763.21</ele>
        <time>2021-06-23T12:10:17Z</time>
      </trkpt>
      <trkpt lat="47.7729" lon="6.76288">
        <ele>763.24</ele>
        <time>2021-06-23T12:10:20Z</time>
      </trkpt>
      <trkpt lat="47.77281" lon="6.76277">
        <ele>764.14</ele>
        <time>2021-06-23T12:10:22Z</time>
      </trkpt>
      <trkpt lat="47.77273" lon="6.76277">
        <ele>766.63</ele>
        <time>2021-06-23T12:10:24Z</time>
      </trkpt>
      <trkpt lat="47.7727" lon="6.76281">
        <ele>768.48</ele>
        <time>2021-06-23T12:10:26Z</time>
      </trkpt>
      <trkpt lat="47.7727" lon="6.76296">
        <ele>770.82</ele>
        <time>2021-06-23T12:10:29Z</time>
      </trkpt>
      <trkpt lat="47.77273" lon="6.76337">
        <ele>773.24</ele>
        <time>2021-06-23T12:10:31Z</time>
      </trkpt>
      <trkpt lat="47.77273" lon="6.76511">
        <ele>786.16</ele>
        <time>2021-06-23T12:10:33Z</time>
      </trkpt>
      <trkpt lat="47.77275" lon="6.76585">
        <ele>791.5</ele>
        <time>2021-06-23T12:10:35Z</time>
      </trkpt>
      <trkpt lat="47.77282" lon="6.76676">
        <ele>799.68</ele>
        <time>2021-06-23T12:10:37Z</time>
      </trkpt>
      <trkpt lat="47.77284" lon="6.76692">
        <ele>801.87</ele>
        <time>2021-06-23T12:10:40Z</time>
      </trkpt>
      <trkpt lat="47.7729" lon="6.76704">
        <ele>803.07</ele>
        <time>2021-06-23T12:10:42Z</time>
      </trkpt>
      <trkpt lat="47.7733" lon="6.76764">
        <ele>809.47</ele>
        <time>2021-06-23T12:10:44Z</time>
      </trkpt>
      <trkpt lat="47.77346" lon="6.76792">
        <ele>811.06</ele>
        <time>2021-06-23T12:10:46Z</time>
      </trkpt>
      <trkpt lat="47.77375" lon="6.76865">
        <ele>820.35</ele>
        <time>2021-06-23T12:10:48Z</time>
      </trkpt>
      <trkpt lat="47.7738" lon="6.76886">
        <ele>822.36</ele>
        <time>2021-06-23T12:10:51Z</time>
      </trkpt>
      <trkpt lat="47.77384" lon="6.76978">
        <ele>839.69</ele>
        <time>2021-06-23T12:10:53Z</time>
      </trkpt>
      <trkpt lat="47.77386" lon="6.76998">
        <ele>842.44</ele>
        <time>2021-06-23T12:10:55Z</time>
      </trkpt>
      <trkpt lat="47.77392" lon="6.77021">
        <ele>843.31</ele>
        <time>2021-06-23T12:10:57Z</time>
      </trkpt>
      <trkpt lat="47.77405" lon="6.77055">
        <ele>846.48</ele>
        <time>2021-06-23T12:11:00Z</time>
      </trkpt>
      <trkpt lat="47.77416" lon="6.77082">
        <ele>850.84</ele>
        <time>2021-06-23T12:11:02Z</time>
      </trkpt>
      <trkpt lat="47.77425" lon="6.77099">
        <ele>853.63</ele>
        <time>2021-06-23T12:11:04Z</time>
      </trkpt>
      <trkpt lat="47.77431" lon="6.77105">
        <ele>853.92</ele>
        <time>2021-06-23T12:11:06Z</time>
      </trkpt>
      <trkpt lat="47.77437" lon="6.77106">
        <ele>853.24</ele>
        <time>2021-06-23T12:11:08Z</time>
      </trkpt>
      <trkpt lat="47.7751" lon="6.77099">
        <ele>848.51</ele>
        <time>2021-06-23T12:11:11Z</time>
      </trkpt>
      <trkpt lat="47.77525" lon="6.77104">
        <ele>848.53</ele>
        <time>2021-06-23T12:11:13Z</time>
      </trkpt>
      <trkpt lat="47.77532" lon="6.7711">
        <ele>848.29</ele>
        <time>2021-06-23T12:11:15Z</time>
      </trkpt>
      <trkpt lat="47.77538" lon="6.77119">
        <ele>848.09</ele>
        <time>2021-06-23T12:11:17Z</time>
      </trkpt>
      <trkpt lat="47.77546" lon="6.7714">
        <ele>848.49</ele>
        <time>2021-06-23T12:11:20Z</time>
      </trkpt>
      <trkpt lat="47.77548" lon="6.7715">
        <ele>849.32</ele>
        <time>2021-06-23T12:11:22Z</time>
      </trkpt>
      <trkpt lat="47.77549" lon="6.77173">
        <ele>851.47</ele>
        <time>2021-06-23T12:11:24Z</time>
      </trkpt>
      <trkpt lat="47.77544" lon="6.77194">
        <ele>853.6</ele>
        <time>2021-06-23T12:11:26Z</time>
      </trkpt>
      <trkpt lat="47.77536" lon="6.77214">
        <ele>856.64</ele>
        <time>2021-06-23T12:11:28Z</time>
      </trkpt>
      <trkpt lat="47.77528" lon="6.77227">
        <ele>858.71</ele>
        <time>2021-06-23T12:11:31Z</time>
      </trkpt>
      <trkpt lat="47.7752" lon="6.77237">
        <ele>860.97</ele>
        <time>2021-06-23T12:11:33Z</time>
      </trkpt>
      <trkpt lat="47.77506" lon="6.77248">
        <ele>863.41</ele>
        <time>2021-06-23T12:11:35Z</time>
      </trkpt>
      <trkpt lat="47.77491" lon="6.77254">
        <ele>865.53</ele>
        <time>2021-06-23T12:11:37Z</time>
      </trkpt>
      <trkpt lat="47.77466" lon="6.77251">
        <ele>868.26</ele>
        <time>2021-06-23T12:11:39Z</time>
      </trkpt>
      <trkpt lat="47.77444" lon="6.77241">
        <ele>871</ele>
        <time>2021-06-23T12:11:42Z</time>
      </trkpt>
      <trkpt lat="47.77431" lon="6.77232">
        <ele>875.01</ele>
        <time>2021-06-23T12:11:44Z</time>
      </trkpt>
      <trkpt lat="47.77392" lon="6.77186">
        <ele>877.8</ele>
        <time>2021-06-23T12:11:46Z</time>
      </trkpt>
      <trkpt lat="47.77382" lon="6.77179">
        <ele>879.11</ele>
        <time>2021-06-23T12:11:48Z</time>
      </trkpt>
      <trkpt lat="47.77336" lon="6.77166">
        <ele>886.91</ele>
        <time>2021-06-23T12:11:51Z</time>
      </trkpt>
      <trkpt lat="47.77316" lon="6.7715">
        <ele>889.73</ele>
        <time>2021-06-23T12:11:53Z</time>
      </trkpt>
      <trkpt lat="47.77308" lon="6.77141">
        <ele>890.63</ele>
        <time>2021-06-23T12:11:55Z</time>
      </trkpt>
      <trkpt lat="47.77297" lon="6.77124">
        <ele>890.66</ele>
        <time>2021-06-23T12:11:57Z</time>
      </trkpt>
      <trkpt lat="47.77268" lon="6.77059">
        <ele>890.5</ele>
        <time>2021-06-23T12:11:59Z</time>
      </trkpt>
      <trkpt lat="47.77255" lon="6.77027">
        <ele>892.05</ele>
        <time>2021-06-23T12:12:02Z</time>
      </trkpt>
      <trkpt lat="47.77247" lon="6.77012">
        <ele>892.47</ele>
        <time>2021-06-23T12:12:04Z</time>
      </trkpt>
      <trkpt lat="47.77237" lon="6.77">
        <ele>893.81</ele>
        <time>2021-06-23T12:12:06Z</time>
      </trkpt>
      <trkpt lat="47.77192" lon="6.76964">
        <ele>900.31</ele>
        <time>2021-06-23T12:12:08Z</time>
      </trkpt>
      <trkpt lat="47.77158" lon="6.76943">
        <ele>909.92</ele>
        <time>2021-06-23T12:12:11Z</time>
      </trkpt>
      <trkpt lat="47.77142" lon="6.76931">
        <ele>913.57</ele>
        <time>2021-06-23T12:12:13Z</time>
      </trkpt>
      <trkpt lat="47.77092" lon="6.76878">
        <ele>914.59</ele>
        <time>2021-06-23T12:12:15Z</time>
      </trkpt>
      <trkpt lat="47.77083" lon="6.76863">
        <ele>913.63</ele>
        <time>2021-06-23T12:12:17Z</time>
      </trkpt>
      <trkpt lat="47.77075" lon="6.76843">
        <ele>913.91</ele>
        <time>2021-06-23T12:12:19Z</time>
      </trkpt>
      <trkpt lat="47.77024" lon="6.7668">
        <ele>924.82</ele>
        <time>2021-06-23T12:12:22Z</time>
      </trkpt>
      <trkpt lat="47.77022" lon="6.76663">
        <ele>925.99</ele>
        <time>2021-06-23T12:12:24Z</time>
      </trkpt>
      <trkpt lat="47.77021" lon="6.76628">
        <ele>926.33</ele>
        <time>2021-06-23T12:12:26Z</time>
      </trkpt>
      <trkpt lat="47.77019" lon="6.76614">
        <ele>927.38</ele>
        <time>2021-06-23T12:12:28Z</time>
      </trkpt>
      <trkpt lat="47.77015" lon="6.76601">
        <ele>929.26</ele>
        <time>2021-06-23T12:12:30Z</time>
      </trkpt>
      <trkpt lat="47.7701" lon="6.76592">
        <ele>931.82</ele>
        <time>2021-06-23T12:12:33Z</time>
      </trkpt>
      <trkpt lat="47.77004" lon="6.76587">
        <ele>934.98</ele>
        <time>2021-06-23T12:12:35Z</time>
      </trkpt>
      <trkpt lat="47.76998" lon="6.76587">
        <ele>938.22</ele>
        <time>2021-06-23T12:12:37Z</time>
      </trkpt>
      <trkpt lat="47.76991" lon="6.76593">
        <ele>941.89</ele>
        <time>2021-06-23T12:12:39Z</time>
      </trkpt>
      <trkpt lat="47.76985" lon="6.76606">
        <ele>944.99</ele>
        <time>2021-06-23T12:12:42Z</time>
      </trkpt>
      <trkpt lat="47.76981" lon="6.76633">
        <ele>947.6</ele>
        <time>2021-06-23T12:12:44Z</time>
      </trkpt>
      <trkpt lat="47.76983" lon="6.76662">
        <ele>949.8</ele>
        <time>2021-06-23T12:12:46Z</time>
      </trkpt>
      <trkpt lat="47.76997" lon="6.76797">
        <ele>954.64</ele>
        <time>2021-06-23T12:12:48Z</time>
      </trkpt>
      <trkpt lat="47.77005" lon="6.76932">
        <ele>960.33</ele>
        <time>2021-06-23T12:12:50Z</time>
      </trkpt>
      <trkpt lat="47.77007" lon="6.76951">
        <ele>964.66</ele>
        <time>2021-06-23T12:12:53Z</time>
      </trkpt>
      <trkpt lat="47.77011" lon="6.76971">
        <ele>967.22</ele>
        <time>2021-06-23T12:12:55Z</time>
      </trkpt>
      <trkpt lat="47.77049" lon="6.77061">
        <ele>968.13</ele>
        <time>2021-06-23T12:12:57Z</time>
      </trkpt>
      <trkpt lat="47.77105" lon="6.77175">
        <ele>978.29</ele>
        <time>2021-06-23T12:12:59Z</time>
      </trkpt>
      <trkpt lat="47.77115" lon="6.77203">
        <ele>978.61</ele>
        <time>2021-06-23T12:13:02Z</time>
      </trkpt>
      <trkpt lat="47.77133" lon="6.77277">
        <ele>982.04</ele>
        <time>2021-06-23T12:13:04Z</time>
      </trkpt>
      <trkpt lat="47.77145" lon="6.77313">
        <ele>980.04</ele>
        <time>2021-06-23T12:13:06Z</time>
      </trkpt>
      <trkpt lat="47.77159" lon="6.77339">
        <ele>978.47</ele>
        <time>2021-06-23T12:13:08Z</time>
      </trkpt>
      <trkpt lat="47.77208" lon="6.77412">
        <ele>976.46</ele>
        <time>2021-06-23T12:13:10Z</time>
      </trkpt>
      <trkpt lat="47.7726" lon="6.77485">
        <ele>977.61</ele>
        <time>2021-06-23T12:13:13Z</time>
      </trkpt>
      <trkpt lat="47.773" lon="6.7756">
        <ele>986.01</ele>
        <time>2021-06-23T12:13:15Z</time>
      </trkpt>
      <trkpt lat="47.77352" lon="6.77661">
        <ele>999.53</ele>
        <time>2021-06-23T12:13:17Z</time>
      </trkpt>
      <trkpt lat="47.77379" lon="6.77709">
        <ele>997.85</ele>
        <time>2021-06-23T12:13:19Z</time>
      </trkpt>
      <trkpt lat="47.77402" lon="6.77753">
        <ele>1000.61</ele>
        <time>2021-06-23T12:13:21Z</time>
      </trkpt>
      <trkpt lat="47.77423" lon="6.77786">
        <ele>1001.81</ele>
        <time>2021-06-23T12:13:24Z</time>
      </trkpt>
      <trkpt lat="47.77439" lon="6.778">
        <ele>999.95</ele>
        <time>2021-06-23T12:13:26Z</time>
      </trkpt>
      <trkpt lat="47.77533" lon="6.77863">
        <ele>994.39</ele>
        <time>2021-06-23T12:13:28Z</time>
      </trkpt>
      <trkpt lat="47.77537" lon="6.77872">
        <ele>993.74</ele>
        <time>2021-06-23T12:13:30Z</time>
      </trkpt>
      <trkpt lat="47.77539" lon="6.77894">
        <ele>993.33</ele>
        <time>2021-06-23T12:13:33Z</time>
      </trkpt>
      <trkpt lat="47.77539" lon="6.77894">
        <ele>993.33</ele>
        <time>2021-06-23T12:13:33Z</time>
      </trkpt>
      <trkpt lat="47.77537" lon="6.77872">
        <ele>993.74</ele>
        <time>2021-06-23T12:13:36Z</time>
      </trkpt>
      <trkpt lat="47.77533" lon="6.77863">
        <ele>994.39</ele>
        <time>2021-06-23T12:13:39Z</time>
      </trkpt>
      <trkpt lat="47.77439" lon="6.778">
        <ele>999.95</ele>
        <time>2021-06-23T12:13:42Z</time>
      </trkpt>
      <trkpt lat="47.77423" lon="6.77786">
        <ele>1001.81</ele>
        <time>2021-06-23T12:13:44Z</time>
      </trkpt>
      <trkpt lat="47.77402" lon="6.77753">
        <ele>1000.61</ele>
        <time>2021-06-23T12:13:47Z</time>
      </trkpt>
      <trkpt lat="47.77379" lon="6.77709">
        <ele>997.85</ele>
        <time>2021-06-23T12:13:50Z</time>
      </trkpt>
      <trkpt lat="47.77352" lon="6.77661">
        <ele>999.53</ele>
        <time>2021-06-23T12:13:53Z</time>
      </trkpt>
      <trkpt lat="47.773" lon="6.7756">
        <ele>986.01</ele>
        <time>2021-06-23T12:13:56Z</time>
      </trkpt>
      <trkpt lat="47.7726" lon="6.77485">
        <ele>977.61</ele>
        <time>2021-06-23T12:13:59Z</time>
      </trkpt>
      <trkpt lat="47.77208" lon="6.77412">
        <ele>976.46</ele>
        <time>2021-06-23T12:14:02Z</time>
      </trkpt>
      <trkpt lat="47.77159" lon="6.77339">
        <ele>978.47</ele>
        <time>2021-06-23T12:14:05Z</time>
      </trkpt>
      <trkpt lat="47.77145" lon="6.77313">
        <ele>980.04</ele>
        <time>2021-06-23T12:14:08Z</time>
      </trkpt>
      <trkpt lat="47.77133" lon="6.77277">
        <ele>982.04</ele>
        <time>2021-06-23T12:14:11Z</time>
      </trkpt>
      <trkpt lat="47.77122" lon="6.77233">
        <ele>980.33</ele>
        <time>2021-06-23T12:14:14Z</time>
      </trkpt>
      <trkpt lat="47.77122" lon="6.77233">
        <ele>980.33</ele>
        <time>2021-06-23T12:14:14Z</time>
      </trkpt>
      <trkpt lat="47.77115" lon="6.77203">
        <ele>978.61</ele>
        <time>2021-06-23T12:14:16Z</time>
      </trkpt>
      <trkpt lat="47.77105" lon="6.77175">
        <ele>978.29</ele>
        <time>2021-06-23T12:14:18Z</time>
      </trkpt>
      <trkpt lat="47.77049" lon="6.77061">
        <ele>968.13</ele>
        <time>2021-06-23T12:14:20Z</time>
      </trkpt>
      <trkpt lat="47.77011" lon="6.76971">
        <ele>967.22</ele>
        <time>2021-06-23T12:14:22Z</time>
      </trkpt>
      <trkpt lat="47.77007" lon="6.76951">
        <ele>964.66</ele>
        <time>2021-06-23T12:14:25Z</time>
      </trkpt>
      <trkpt lat="47.77005" lon="6.76932">
        <ele>960.33</ele>
        <time>2021-06-23T12:14:27Z</time>
      </trkpt>
      <trkpt lat="47.76997" lon="6.76797">
        <ele>954.64</ele>
        <time>2021-06-23T12:14:29Z</time>
      </trkpt>
      <trkpt lat="47.76983" lon="6.76662">
        <ele>949.8</ele>
        <time>2021-06-23T12:14:31Z</time>
      </trkpt>
      <trkpt lat="47.76981" lon="6.76633">
        <ele>947.6</ele>
        <time>2021-06-23T12:14:33Z</time>
      </trkpt>
      <trkpt lat="47.76985" lon="6.76606">
        <ele>944.99</ele>
        <time>2021-06-23T12:14:35Z</time>
      </trkpt>
      <trkpt lat="47.76991" lon="6.76593">
        <ele>941.89</ele>
        <time>2021-06-23T12:14:37Z</time>
      </trkpt>
      <trkpt lat="47.76998" lon="6.76587">
        <ele>938.22</ele>
        <time>2021-06-23T12:14:39Z</time>
      </trkpt>
      <trkpt lat="47.77004" lon="6.76587">
        <ele>934.98</ele>
        <time>2021-06-23T12:14:42Z</time>
      </trkpt>
      <trkpt lat="47.7701" lon="6.76592">
        <ele>931.82</ele>
        <time>2021-06-23T12:14:44Z</time>
      </trkpt>
      <trkpt lat="47.77015" lon="6.76601">
        <ele>929.26</ele>
        <time>2021-06-23T12:14:46Z</time>
      </trkpt>
      <trkpt lat="47.77019" lon="6.76614">
        <ele>927.38</ele>
        <time>2021-06-23T12:14:48Z</time>
      </trkpt>
      <trkpt lat="47.77021" lon="6.76628">
        <ele>926.33</ele>
        <time>2021-06-23T12:14:50Z</time>
      </trkpt>
      <trkpt lat="47.77022" lon="6.76663">
        <ele>925.99</ele>
        <time>2021-06-23T12:14:52Z</time>
      </trkpt>
      <trkpt lat="47.77024" lon="6.7668">
        <ele>924.82</ele>
        <time>2021-06-23T12:14:54Z</time>
      </trkpt>
      <trkpt lat="47.77075" lon="6.76843">
        <ele>913.91</ele>
        <time>2021-06-23T12:14:56Z</time>
      </trkpt>
      <trkpt lat="47.77083" lon="6.76863">
        <ele>913.63</ele>
        <time>2021-06-23T12:14:59Z</time>
      </trkpt>
      <trkpt lat="47.77092" lon="6.76878">
        <ele>914.59</ele>
        <time>2021-06-23T12:15:01Z</time>
      </trkpt>
      <trkpt lat="47.77142" lon="6.76931">
        <ele>913.57</ele>
        <time>2021-06-23T12:15:03Z</time>
      </trkpt>
      <trkpt lat="47.77158" lon="6.76943">
        <ele>909.92</ele>
        <time>2021-06-23T12:15:05Z</time>
      </trkpt>
      <trkpt lat="47.77192" lon="6.76964">
        <ele>900.31</ele>
        <time>2021-06-23T12:15:07Z</time>
      </trkpt>
      <trkpt lat="47.77237" lon="6.77">
        <ele>893.81</ele>
        <time>2021-06-23T12:15:09Z</time>
      </trkpt>
      <trkpt lat="47.77247" lon="6.77012">
        <ele>892.47</ele>
        <time>2021-06-23T12:15:11Z</time>
      </trkpt>
      <trkpt lat="47.77255" lon="6.77027">
        <ele>892.05</ele>
        <time>2021-06-23T12:15:13Z</time>
      </trkpt>
      <trkpt lat="47.77268" lon="6.77059">
        <ele>890.5</ele>
        <time>2021-06-23T12:15:16Z</time>
      </trkpt>
      <trkpt lat="47.77297" lon="6.77124">
        <ele>890.66</ele>
        <time>2021-06-23T12:15:18Z</time>
      </trkpt>
      <trkpt lat="47.77308" lon="6.77141">
        <ele>890.63</ele>
        <time>2021-06-23T12:15:20Z</time>
      </trkpt>
      <trkpt lat="47.77316" lon="6.7715">
        <ele>889.73</ele>
        <time>2021-06-23T12:15:22Z</time>
      </trkpt>
      <trkpt lat="47.77336" lon="6.77166">
        <ele>886.91</ele>
        <time>2021-06-23T12:15:24Z</time>
      </trkpt>
      <trkpt lat="47.77382" lon="6.77179">
        <ele>879.11</ele>
        <time>2021-06-23T12:15:26Z</time>
      </trkpt>
      <trkpt lat="47.77392" lon="6.77186">
        <ele>877.8</ele>
        <time>2021-06-23T12:15:28Z</time>
      </trkpt>
      <trkpt lat="47.77431" lon="6.77232">
        <ele>875.01</ele>
        <time>2021-06-23T12:15:30Z</time>
      </trkpt>
      <trkpt lat="47.77444" lon="6.77241">
        <ele>871</ele>
        <time>2021-06-23T12:15:33Z</time>
      </trkpt>
      <trkpt lat="47.77466" lon="6.77251">
        <ele>868.26</ele>
        <time>2021-06-23T12:15:35Z</time>
      </trkpt>
      <trkpt lat="47.77491" lon="6.77254">
        <ele>865.53</ele>
        <time>2021-06-23T12:15:37Z</time>
      </trkpt>
      <trkpt lat="47.77506" lon="6.77248">
        <ele>863.41</ele>
        <time>2021-06-23T12:15:39Z</time>
      </trkpt>
      <trkpt lat="47.7752" lon="6.77237">
        <ele>860.97</ele>
        <time>2021-06-23T12:15:41Z</time>
      </trkpt>
      <trkpt lat="47.77528" lon="6.77227">
        <ele>858.71</ele>
        <time>2021-06-23T12:15:43Z</time>
      </trkpt>
      <trkpt lat="47.77536" lon="6.77214">
        <ele>856.64</ele>
        <time>2021-06-23T12:15:45Z</time>
      </trkpt>
      <trkpt lat="47.77544" lon="6.77194">
        <ele>853.6</ele>
        <time>2021-06-23T12:15:47Z</time>
      </trkpt>
      <trkpt lat="47.77549" lon="6.77173">
        <ele>851.47</ele>
        <time>2021-06-23T12:15:50Z</time>
      </trkpt>
      <trkpt lat="47.77548" lon="6.7715">
        <ele>849.32</ele>
        <time>2021-06-23T12:15:52Z</time>
      </trkpt>
      <trkpt lat="47.77546" lon="6.7714">
        <ele>848.49</ele>
        <time>2021-06-23T12:15:54Z</time>
      </trkpt>
      <trkpt lat="47.77538" lon="6.77119">
        <ele>848.09</ele>
        <time>2021-06-23T12:15:56Z</time>
      </trkpt>
      <trkpt lat="47.77532" lon="6.7711">
        <ele>848.29</ele>
        <time>2021-06-23T12:15:58Z</time>
      </trkpt>
      <trkpt lat="47.77525" lon="6.77104">
        <ele>848.53</ele>
        <time>2021-06-23T12:16:00Z</time>
      </trkpt>
      <trkpt lat="47.7751" lon="6.77099">
        <ele>848.51</ele>
        <time>2021-06-23T12:16:02Z</time>
      </trkpt>
      <trkpt lat="47.77437" lon="6.77106">
        <ele>853.24</ele>
        <time>2021-06-23T12:16:04Z</time>
      </trkpt>
      <trkpt lat="47.77431" lon="6.77105">
        <ele>853.92</ele>
        <time>2021-06-23T12:16:07Z</time>
      </trkpt>
      <trkpt lat="47.77425" lon="6.77099">
        <ele>853.63</ele>
        <time>2021-06-23T12:16:09Z</time>
      </trkpt>
      <trkpt lat="47.77416" lon="6.77082">
        <ele>850.84</ele>
        <time>2021-06-23T12:16:11Z</time>
      </trkpt>
      <trkpt lat="47.77405" lon="6.77055">
        <ele>846.48</ele>
        <time>2021-06-23T12:16:13Z</time>
      </trkpt>
      <trkpt lat="47.77392" lon="6.77021">
        <ele>843.31</ele>
        <time>2021-06-23T12:16:15Z</time>
      </trkpt>
      <trkpt lat="47.77386" lon="6.76998">
        <ele>842.44</ele>
        <time>2021-06-23T12:16:17Z</time>
      </trkpt>
      <trkpt lat="47.77384" lon="6.76978">
        <ele>839.69</ele>
        <time>2021-06-23T12:16:19Z</time>
      </trkpt>
      <trkpt lat="47.7738" lon="6.76886">
        <ele>822.36</ele>
        <time>2021-06-23T12:16:21Z</time>
      </trkpt>
      <trkpt lat="47.77375" lon="6.76865">
        <ele>820.35</ele>
        <time>2021-06-23T12:16:23Z</time>
      </trkpt>
      <trkpt lat="47.77346" lon="6.76792">
        <ele>811.06</ele>
        <time>2021-06-23T12:16:26Z</time>
      </trkpt>
      <trkpt lat="47.7733" lon="6.76764">
        <ele>809.47</ele>
        <time>2021-06-23T12:16:28Z</time>
      </trkpt>
      <trkpt lat="47.7729" lon="6.76704">
        <ele>803.07</ele>
        <time>2021-06-23T12:16:30Z</time>
      </trkpt>
      <trkpt lat="47.77284" lon="6.76692">
        <ele>801.87</ele>
        <time>2021-06-23T12:16:32Z</time>
      </trkpt>
      <trkpt lat="47.77282" lon="6.76676">
        <ele>799.68</ele>
        <time>2021-06-23T12:16:34Z</time>
      </trkpt>
      <trkpt lat="47.77275" lon="6.76585">
        <ele>791.5</ele>
        <time>2021-06-23T12:16:36Z</time>
      </trkpt>
      <trkpt lat="47.77273" lon="6.76511">
        <ele>786.16</ele>
        <time>2021-06-23T12:16:38Z</time>
      </trkpt>
      <trkpt lat="47.77273" lon="6.76337">
        <ele>773.24</ele>
        <time>2021-06-23T12:16:40Z</time>
      </trkpt>
      <trkpt lat="47.7727" lon="6.76296">
        <ele>770.82</ele>
        <time>2021-06-23T12:16:43Z</time>
      </trkpt>
      <trkpt lat="47.7727" lon="6.76281">
        <ele>768.48</ele>
        <time>2021-06-23T12:16:45Z</time>
      </trkpt>
      <trkpt lat="47.77273" lon="6.76277">
        <ele>766.63</ele>
        <time>2021-06-23T12:16:47Z</time>
      </trkpt>
      <trkpt lat="47.77281" lon="6.76277">
        <ele>764.14</ele>
        <time>2021-06-23T12:16:49Z</time>
      </trkpt>
      <trkpt lat="47.7729" lon="6.76288">
        <ele>763.24</ele>
        <time>2021-06-23T12:16:51Z</time>
      </trkpt>
      <trkpt lat="47.77293" lon="6.76295">
        <ele>763.21</ele>
        <time>2021-06-23T12:16:53Z</time>
      </trkpt>
      <trkpt lat="47.77296" lon="6.76304">
        <ele>763.61</ele>
        <time>2021-06-23T12:16:55Z</time>
      </trkpt>
      <trkpt lat="47.77302" lon="6.76353">
        <ele>763.4</ele>
        <time>2021-06-23T12:16:57Z</time>
      </trkpt>
      <trkpt lat="47.77319" lon="6.76413">
        <ele>760.34</ele>
        <time>2021-06-23T12:17:00Z</time>
      </trkpt>
      <trkpt lat="47.77358" lon="6.76513">
        <ele>754.75</ele>
        <time>2021-06-23T12:17:02Z</time>
      </trkpt>
      <trkpt lat="47.77366" lon="6.76531">
        <ele>754.13</ele>
        <time>2021-06-23T12:17:04Z</time>
      </trkpt>
      <trkpt lat="47.77372" lon="6.76543">
        <ele>753.45</ele>
        <time>2021-06-23T12:17:06Z</time>
      </trkpt>
      <trkpt lat="47.77389" lon="6.76562">
        <ele>751.26</ele>
        <time>2021-06-23T12:17:08Z</time>
      </trkpt>
      <trkpt lat="47.77402" lon="6.76564">
        <ele>746.49</ele>
        <time>2021-06-23T12:17:10Z</time>
      </trkpt>
      <trkpt lat="47.77427" lon="6.76558">
        <ele>735.89</ele>
        <time>2021-06-23T12:17:12Z</time>
      </trkpt>
      <trkpt lat="47.7744" lon="6.76562">
        <ele>733.38</ele>
        <time>2021-06-23T12:17:14Z</time>
      </trkpt>
      <trkpt lat="47.7745" lon="6.76571">
        <ele>732.92</ele>
        <time>2021-06-23T12:17:17Z</time>
      </trkpt>
      <trkpt lat="47.77515" lon="6.76655">
        <ele>731.21</ele>
        <time>2021-06-23T12:17:19Z</time>
      </trkpt>
      <trkpt lat="47.77523" lon="6.76661">
        <ele>730.63</ele>
        <time>2021-06-23T12:17:21Z</time>
      </trkpt>
      <trkpt lat="47.77532" lon="6.76665">
        <ele>728.96</ele>
        <time>2021-06-23T12:17:23Z</time>
      </trkpt>
      <trkpt lat="47.77562" lon="6.76667">
        <ele>719.43</ele>
        <time>2021-06-23T12:17:25Z</time>
      </trkpt>
      <trkpt lat="47.77603" lon="6.76689">
        <ele>718.46</ele>
        <time>2021-06-23T12:17:27Z</time>
      </trkpt>
      <trkpt lat="47.77628" lon="6.76693">
        <ele>713.48</ele>
        <time>2021-06-23T12:17:29Z</time>
      </trkpt>
      <trkpt lat="47.77637" lon="6.76697">
        <ele>712.45</ele>
        <time>2021-06-23T12:17:31Z</time>
      </trkpt>
      <trkpt lat="47.77714" lon="6.76736">
        <ele>708.4</ele>
        <time>2021-06-23T12:17:34Z</time>
      </trkpt>
      <trkpt lat="47.77745" lon="6.76749">
        <ele>704.7</ele>
        <time>2021-06-23T12:17:36Z</time>
      </trkpt>
      <trkpt lat="47.77769" lon="6.76762">
        <ele>702.36</ele>
        <time>2021-06-23T12:17:38Z</time>
      </trkpt>
      <trkpt lat="47.77802" lon="6.76794">
        <ele>699.05</ele>
        <time>2021-06-23T12:17:40Z</time>
      </trkpt>
      <trkpt lat="47.77858" lon="6.7686">
        <ele>694.27</ele>
        <time>2021-06-23T12:17:42Z</time>
      </trkpt>
      <trkpt lat="47.77888" lon="6.7689">
        <ele>693.45</ele>
        <time>2021-06-23T12:17:44Z</time>
      </trkpt>
      <trkpt lat="47.77906" lon="6.76902">
        <ele>692.13</ele>
        <time>2021-06-23T12:17:46Z</time>
      </trkpt>
      <trkpt lat="47.77916" lon="6.76897">
        <ele>688.14</ele>
        <time>2021-06-23T12:17:48Z</time>
      </trkpt>
      <trkpt lat="47.77918" lon="6.76893">
        <ele>686.5</ele>
        <time>2021-06-23T12:17:51Z</time>
      </trkpt>
      <trkpt lat="47.77919" lon="6.76888">
        <ele>685.22</ele>
        <time>2021-06-23T12:17:53Z</time>
      </trkpt>
      <trkpt lat="47.77917" lon="6.76877">
        <ele>683.75</ele>
        <time>2021-06-23T12:17:55Z</time>
      </trkpt>
      <trkpt lat="47.7791" lon="6.76869">
        <ele>683.6</ele>
        <time>2021-06-23T12:17:57Z</time>
      </trkpt>
      <trkpt lat="47.77877" lon="6.76854">
        <ele>686.56</ele>
        <time>2021-06-23T12:17:59Z</time>
      </trkpt>
      <trkpt lat="47.77834" lon="6.76784">
        <ele>682.14</ele>
        <time>2021-06-23T12:18:01Z</time>
      </trkpt>
      <trkpt lat="47.77814" lon="6.76755">
        <ele>679.84</ele>
        <time>2021-06-23T12:18:03Z</time>
      </trkpt>
      <trkpt lat="47.7779" lon="6.76734">
        <ele>681.13</ele>
        <time>2021-06-23T12:18:05Z</time>
      </trkpt>
      <trkpt lat="47.77748" lon="6.76705">
        <ele>684.69</ele>
        <time>2021-06-23T12:18:08Z</time>
      </trkpt>
      <trkpt lat="47.77725" lon="6.76686">
        <ele>685.24</ele>
        <time>2021-06-23T12:18:10Z</time>
      </trkpt>
      <trkpt lat="47.77655" lon="6.76589">
        <ele>672.23</ele>
        <time>2021-06-23T12:18:12Z</time>
      </trkpt>
      <trkpt lat="47.77637" lon="6.76555">
        <ele>668.44</ele>
        <time>2021-06-23T12:18:14Z</time>
      </trkpt>
      <trkpt lat="47.77618" lon="6.76534">
        <ele>668.27</ele>
        <time>2021-06-23T12:18:16Z</time>
      </trkpt>
      <trkpt lat="47.77609" lon="6.76518">
        <ele>666.9</ele>
        <time>2021-06-23T12:18:18Z</time>
      </trkpt>
      <trkpt lat="47.77588" lon="6.76442">
        <ele>654.06</ele>
        <time>2021-06-23T12:18:20Z</time>
      </trkpt>
      <trkpt lat="47.77558" lon="6.76364">
        <ele>645.07</ele>
        <time>2021-06-23T12:18:22Z</time>
      </trkpt>
      <trkpt lat="47.775" lon="6.76235">
        <ele>633.68</ele>
        <time>2021-06-23T12:18:25Z</time>
      </trkpt>
      <trkpt lat="47.7749" lon="6.76207">
        <ele>631.85</ele>
        <time>2021-06-23T12:18:27Z</time>
      </trkpt>
      <trkpt lat="47.77457" lon="6.7609">
        <ele>619.25</ele>
        <time>2021-06-23T12:18:29Z</time>
      </trkpt>
      <trkpt lat="47.77437" lon="6.76033">
        <ele>611.99</ele>
        <time>2021-06-23T12:18:31Z</time>
      </trkpt>
      <trkpt lat="47.77387" lon="6.75899">
        <ele>597.84</ele>
        <time>2021-06-23T12:18:33Z</time>
      </trkpt>
      <trkpt lat="47.77378" lon="6.75868">
        <ele>596.35</ele>
        <time>2021-06-23T12:18:35Z</time>
      </trkpt>
      <trkpt lat="47.77367" lon="6.75814">
        <ele>592.61</ele>
        <time>2021-06-23T12:18:37Z</time>
      </trkpt>
      <trkpt lat="47.77354" lon="6.75778">
        <ele>591.13</ele>
        <time>2021-06-23T12:18:39Z</time>
      </trkpt>
      <trkpt lat="47.77338" lon="6.75741">
        <ele>592.8</ele>
        <time>2021-06-23T12:18:42Z</time>
      </trkpt>
      <trkpt lat="47.7733" lon="6.75717">
        <ele>593.57</ele>
        <time>2021-06-23T12:18:44Z</time>
      </trkpt>
      <trkpt lat="47.77323" lon="6.75676">
        <ele>588.7</ele>
        <time>2021-06-23T12:18:46Z</time>
      </trkpt>
      <trkpt lat="47.77314" lon="6.75618">
        <ele>576.79</ele>
        <time>2021-06-23T12:18:48Z</time>
      </trkpt>
      <trkpt lat="47.77303" lon="6.75519">
        <ele>569.98</ele>
        <time>2021-06-23T12:18:50Z</time>
      </trkpt>
      <trkpt lat="47.77279" lon="6.75332">
        <ele>551.44</ele>
        <time>2021-06-23T12:18:52Z</time>
      </trkpt>
      <trkpt lat="47.77263" lon="6.75177">
        <ele>544.11</ele>
        <time>2021-06-23T12:18:54Z</time>
      </trkpt>
      <trkpt lat="47.77262" lon="6.75153">
        <ele>542.38</ele>
        <time>2021-06-23T12:18:56Z</time>
      </trkpt>
      <trkpt lat="47.7726" lon="6.75133">
        <ele>542.01</ele>
        <time>2021-06-23T12:18:59Z</time>
      </trkpt>
      <trkpt lat="47.77255" lon="6.75107">
        <ele>541.79</ele>
        <time>2021-06-23T12:19:02Z</time>
      </trkpt>
      <trkpt lat="47.77199" lon="6.74891">
        <ele>537.72</ele>
        <time>2021-06-23T12:19:04Z</time>
      </trkpt>
      <trkpt lat="47.77194" lon="6.74867">
        <ele>537.52</ele>
        <time>2021-06-23T12:19:07Z</time>
      </trkpt>
      <trkpt lat="47.7719" lon="6.74807">
        <ele>531.1</ele>
        <time>2021-06-23T12:19:09Z</time>
      </trkpt>
      <trkpt lat="47.77186" lon="6.74791">
        <ele>530.16</ele>
        <time>2021-06-23T12:19:12Z</time>
      </trkpt>
      <trkpt lat="47.77172" lon="6.74748">
        <ele>527.76</ele>
        <time>2021-06-23T12:19:15Z</time>
      </trkpt>
      <trkpt lat="47.77157" lon="6.74719">
        <ele>526.03</ele>
        <time>2021-06-23T12:19:17Z</time>
      </trkpt>
      <trkpt lat="47.77141" lon="6.74696">
        <ele>525.9</ele>
        <time>2021-06-23T12:19:20Z</time>
      </trkpt>
      <trkpt lat="47.77113" lon="6.74667">
        <ele>529.42</ele>
        <time>2021-06-23T12:19:22Z</time>
      </trkpt>
      <trkpt lat="47.77103" lon="6.74638">
        <ele>528.55</ele>
        <time>2021-06-23T12:19:25Z</time>
      </trkpt>
      <trkpt lat="47.77101" lon="6.74614">
        <ele>525.92</ele>
        <time>2021-06-23T12:19:28Z</time>
      </trkpt>
      <trkpt lat="47.77104" lon="6.74591">
        <ele>523.14</ele>
        <time>2021-06-23T12:19:30Z</time>
      </trkpt>
      <trkpt lat="47.77109" lon="6.74574">
        <ele>521.46</ele>
        <time>2021-06-23T12:19:33Z</time>
      </trkpt>
      <trkpt lat="47.77129" lon="6.74517">
        <ele>520.05</ele>
        <time>2021-06-23T12:19:36Z</time>
      </trkpt>
      <trkpt lat="47.77129" lon="6.74495">
        <ele>519.32</ele>
        <time>2021-06-23T12:19:38Z</time>
      </trkpt>
      <trkpt lat="47.77125" lon="6.74478">
        <ele>517.9</ele>
        <time>2021-06-23T12:19:41Z</time>
      </trkpt>
      <trkpt lat="47.77077" lon="6.74386">
        <ele>511</ele>
        <time>2021-06-23T12:19:43Z</time>
      </trkpt>
      <trkpt lat="47.7707" lon="6.74362">
        <ele>511</ele>
        <time>2021-06-23T12:19:46Z</time>
      </trkpt>
      <trkpt lat="47.77062" lon="6.7431">
        <ele>512.49</ele>
        <time>2021-06-23T12:19:49Z</time>
      </trkpt>
      <trkpt lat="47.77058" lon="6.74294">
        <ele>512.74</ele>
        <time>2021-06-23T12:19:51Z</time>
      </trkpt>
      <trkpt lat="47.77042" lon="6.74265">
        <ele>514.29</ele>
        <time>2021-06-23T12:19:54Z</time>
      </trkpt>
      <trkpt lat="47.77042" lon="6.74265">
        <ele>514.29</ele>
        <time>2021-06-23T12:19:54Z</time>
      </trkpt>
      <trkpt lat="47.77034" lon="6.74254">
        <ele>514.9</ele>
        <time>2021-06-23T12:19:59Z</time>
      </trkpt>
      <trkpt lat="47.77" lon="6.74238">
        <ele>515.82</ele>
        <time>2021-06-23T12:20:03Z</time>
      </trkpt>
      <trkpt lat="47.76964" lon="6.74227">
        <ele>511.83</ele>
        <time>2021-06-23T12:20:08Z</time>
      </trkpt>
      <trkpt lat="47.76936" lon="6.74215">
        <ele>510.95</ele>
        <time>2021-06-23T12:20:13Z</time>
      </trkpt>
      <trkpt lat="47.76916" lon="6.74209">
        <ele>511.5</ele>
        <time>2021-06-23T12:20:18Z</time>
      </trkpt>
      <trkpt lat="47.769" lon="6.74207">
        <ele>511.89</ele>
        <time>2021-06-23T12:20:23Z</time>
      </trkpt>
      <trkpt lat="47.76886" lon="6.74208">
        <ele>512.04</ele>
        <time>2021-06-23T12:20:28Z</time>
      </trkpt>
      <trkpt lat="47.76873" lon="6.74212">
        <ele>511.73</ele>
        <time>2021-06-23T12:20:33Z</time>
      </trkpt>
      <trkpt lat="47.76856" lon="6.74224">
        <ele>510.67</ele>
        <time>2021-06-23T12:20:37Z</time>
      </trkpt>
      <trkpt lat="47.76826" lon="6.74258">
        <ele>508.15</ele>
        <time>2021-06-23T12:20:42Z</time>
      </trkpt>
      <trkpt lat="47.76813" lon="6.7427">
        <ele>507.67</ele>
        <time>2021-06-23T12:20:47Z</time>
      </trkpt>
      <trkpt lat="47.76798" lon="6.74276">
        <ele>507.69</ele>
        <time>2021-06-23T12:20:52Z</time>
      </trkpt>
      <trkpt lat="47.7676" lon="6.74273">
        <ele>505.73</ele>
        <time>2021-06-23T12:20:57Z</time>
      </trkpt>
      <trkpt lat="47.76745" lon="6.74265">
        <ele>504.52</ele>
        <time>2021-06-23T12:21:02Z</time>
      </trkpt>
      <trkpt lat="47.76726" lon="6.74249">
        <ele>503.33</ele>
        <time>2021-06-23T12:21:07Z</time>
      </trkpt>
      <trkpt lat="47.76706" lon="6.74229">
        <ele>502.17</ele>
        <time>2021-06-23T12:21:12Z</time>
      </trkpt>
      <trkpt lat="47.76644" lon="6.74158">
        <ele>501.74</ele>
        <time>2021-06-23T12:21:16Z</time>
      </trkpt>
      <trkpt lat="47.76635" lon="6.74151">
        <ele>502.31</ele>
        <time>2021-06-23T12:21:21Z</time>
      </trkpt>
      <trkpt lat="47.76576" lon="6.74133">
        <ele>504.58</ele>
        <time>2021-06-23T12:21:26Z</time>
      </trkpt>
      <trkpt lat="47.76565" lon="6.74133">
        <ele>506.02</ele>
        <time>2021-06-23T12:21:31Z</time>
      </trkpt>
      <trkpt lat="47.76501" lon="6.74157">
        <ele>503.82</ele>
        <time>2021-06-23T12:21:36Z</time>
      </trkpt>
      <trkpt lat="47.76436" lon="6.74171">
        <ele>500.51</ele>
        <time>2021-06-23T12:21:41Z</time>
      </trkpt>
      <trkpt lat="47.76413" lon="6.74179">
        <ele>499.92</ele>
        <time>2021-06-23T12:21:46Z</time>
      </trkpt>
      <trkpt lat="47.76366" lon="6.74205">
        <ele>500.4</ele>
        <time>2021-06-23T12:21:50Z</time>
      </trkpt>
      <trkpt lat="47.76324" lon="6.74214">
        <ele>502.77</ele>
        <time>2021-06-23T12:21:55Z</time>
      </trkpt>
      <trkpt lat="47.76247" lon="6.74221">
        <ele>498.43</ele>
        <time>2021-06-23T12:22:00Z</time>
      </trkpt>
      <trkpt lat="47.76173" lon="6.74251">
        <ele>502.98</ele>
        <time>2021-06-23T12:22:05Z</time>
      </trkpt>
      <trkpt lat="47.76163" lon="6.74252">
        <ele>503.52</ele>
        <time>2021-06-23T12:22:10Z</time>
      </trkpt>
      <trkpt lat="47.76144" lon="6.74245">
        <ele>501.25</ele>
        <time>2021-06-23T12:22:15Z</time>
      </trkpt>
      <trkpt lat="47.76121" lon="6.74223">
        <ele>497.07</ele>
        <time>2021-06-23T12:22:20Z</time>
      </trkpt>
      <trkpt lat="47.76085" lon="6.7416">
        <ele>495.12</ele>
        <time>2021-06-23T12:22:24Z</time>
      </trkpt>
      <trkpt lat="47.76075" lon="6.7415">
        <ele>494.59</ele>
        <time>2021-06-23T12:22:29Z</time>
      </trkpt>
      <trkpt lat="47.76022" lon="6.7412">
        <ele>493.86</ele>
        <time>2021-06-23T12:22:34Z</time>
      </trkpt>
      <trkpt lat="47.75993" lon="6.74108">
        <ele>492.64</ele>
        <time>2021-06-23T12:22:39Z</time>
      </trkpt>
      <trkpt lat="47.75931" lon="6.74039">
        <ele>490.05</ele>
        <time>2021-06-23T12:22:44Z</time>
      </trkpt>
      <trkpt lat="47.75885" lon="6.73992">
        <ele>488</ele>
        <time>2021-06-23T12:22:49Z</time>
      </trkpt>
      <trkpt lat="47.75846" lon="6.7397">
        <ele>488.09</ele>
        <time>2021-06-23T12:22:54Z</time>
      </trkpt>
      <trkpt lat="47.75778" lon="6.73891">
        <ele>489</ele>
        <time>2021-06-23T12:22:58Z</time>
      </trkpt>
      <trkpt lat="47.75737" lon="6.73835">
        <ele>489.51</ele>
        <time>2021-06-23T12:23:03Z</time>
      </trkpt>
      <trkpt lat="47.75719" lon="6.73817">
        <ele>489.58</ele>
        <time>2021-06-23T12:23:08Z</time>
      </trkpt>
      <trkpt lat="47.75707" lon="6.73811">
        <ele>489.81</ele>
        <time>2021-06-23T12:23:13Z</time>
      </trkpt>
      <trkpt lat="47.75618" lon="6.738">
        <ele>487.68</ele>
        <time>2021-06-23T12:23:18Z</time>
      </trkpt>
      <trkpt lat="47.75603" lon="6.73792">
        <ele>487.04</ele>
        <time>2021-06-23T12:23:23Z</time>
      </trkpt>
      <trkpt lat="47.75588" lon="6.7378">
        <ele>486.3</ele>
        <time>2021-06-23T12:23:28Z</time>
      </trkpt>
      <trkpt lat="47.75574" lon="6.73764">
        <ele>485.04</ele>
        <time>2021-06-23T12:23:32Z</time>
      </trkpt>
      <trkpt lat="47.75565" lon="6.73748">
        <ele>484.18</ele>
        <time>2021-06-23T12:23:37Z</time>
      </trkpt>
      <trkpt lat="47.75559" lon="6.73712">
        <ele>485.7</ele>
        <time>2021-06-23T12:23:42Z</time>
      </trkpt>
      <trkpt lat="47.75545" lon="6.7357">
        <ele>484.58</ele>
        <time>2021-06-23T12:23:47Z</time>
      </trkpt>
      <trkpt lat="47.75541" lon="6.7355">
        <ele>483.44</ele>
        <time>2021-06-23T12:23:52Z</time>
      </trkpt>
      <trkpt lat="47.7551" lon="6.73477">
        <ele>484.5</ele>
        <time>2021-06-23T12:23:57Z</time>
      </trkpt>
      <trkpt lat="47.75458" lon="6.73397">
        <ele>483.69</ele>
        <time>2021-06-23T12:24:02Z</time>
      </trkpt>
      <trkpt lat="47.75407" lon="6.73312">
        <ele>487.27</ele>
        <time>2021-06-23T12:24:06Z</time>
      </trkpt>
      <trkpt lat="47.75388" lon="6.73293">
        <ele>484.17</ele>
        <time>2021-06-23T12:24:11Z</time>
      </trkpt>
      <trkpt lat="47.75356" lon="6.7327">
        <ele>480.44</ele>
        <time>2021-06-23T12:24:16Z</time>
      </trkpt>
      <trkpt lat="47.75279" lon="6.73231">
        <ele>479.72</ele>
        <time>2021-06-23T12:24:21Z</time>
      </trkpt>
      <trkpt lat="47.75255" lon="6.73215">
        <ele>480.65</ele>
        <time>2021-06-23T12:24:26Z</time>
      </trkpt>
      <trkpt lat="47.75161" lon="6.7313">
        <ele>479.18</ele>
        <time>2021-06-23T12:24:31Z</time>
      </trkpt>
      <trkpt lat="47.75125" lon="6.73107">
        <ele>479.19</ele>
        <time>2021-06-23T12:24:36Z</time>
      </trkpt>
      <trkpt lat="47.7507" lon="6.73083">
        <ele>477.07</ele>
        <time>2021-06-23T12:24:41Z</time>
      </trkpt>
      <trkpt lat="47.75058" lon="6.73079">
        <ele>476.42</ele>
        <time>2021-06-23T12:24:45Z</time>
      </trkpt>
      <trkpt lat="47.75062" lon="6.73053">
        <ele>477.26</ele>
        <time>2021-06-23T12:24:47Z</time>
      </trkpt>
      <trkpt lat="47.75062" lon="6.73053">
        <ele>477.26</ele>
        <time>2021-06-23T12:24:47Z</time>
      </trkpt>
      <trkpt lat="47.75092" lon="6.72886">
        <ele>477.85</ele>
        <time>2021-06-23T12:24:49Z</time>
      </trkpt>
      <trkpt lat="47.75116" lon="6.72794">
        <ele>483.98</ele>
        <time>2021-06-23T12:24:52Z</time>
      </trkpt>
      <trkpt lat="47.75126" lon="6.72781">
        <ele>485.76</ele>
        <time>2021-06-23T12:24:54Z</time>
      </trkpt>
      <trkpt lat="47.75145" lon="6.72766">
        <ele>490.03</ele>
        <time>2021-06-23T12:24:57Z</time>
      </trkpt>
      <trkpt lat="47.7515" lon="6.72757">
        <ele>491.57</ele>
        <time>2021-06-23T12:24:59Z</time>
      </trkpt>
      <trkpt lat="47.75153" lon="6.72743">
        <ele>493.01</ele>
        <time>2021-06-23T12:25:02Z</time>
      </trkpt>
      <trkpt lat="47.75153" lon="6.72733">
        <ele>493.52</ele>
        <time>2021-06-23T12:25:04Z</time>
      </trkpt>
      <trkpt lat="47.75147" lon="6.72695">
        <ele>494.73</ele>
        <time>2021-06-23T12:25:07Z</time>
      </trkpt>
      <trkpt lat="47.75146" lon="6.72677">
        <ele>495.85</ele>
        <time>2021-06-23T12:25:09Z</time>
      </trkpt>
      <trkpt lat="47.75146" lon="6.72666">
        <ele>496.87</ele>
        <time>2021-06-23T12:25:12Z</time>
      </trkpt>
      <trkpt lat="47.75153" lon="6.72624">
        <ele>498.91</ele>
        <time>2021-06-23T12:25:14Z</time>
      </trkpt>
      <trkpt lat="47.75158" lon="6.72602">
        <ele>499.16</ele>
        <time>2021-06-23T12:25:17Z</time>
      </trkpt>
      <trkpt lat="47.75168" lon="6.7258">
        <ele>499.57</ele>
        <time>2021-06-23T12:25:19Z</time>
      </trkpt>
      <trkpt lat="47.75193" lon="6.72556">
        <ele>499.86</ele>
        <time>2021-06-23T12:25:22Z</time>
      </trkpt>
      <trkpt lat="47.75203" lon="6.72541">
        <ele>499.43</ele>
        <time>2021-06-23T12:25:24Z</time>
      </trkpt>
      <trkpt lat="47.75208" lon="6.72526">
        <ele>499.08</ele>
        <time>2021-06-23T12:25:27Z</time>
      </trkpt>
      <trkpt lat="47.75212" lon="6.72499">
        <ele>501.04</ele>
        <time>2021-06-23T12:25:29Z</time>
      </trkpt>
      <trkpt lat="47.75214" lon="6.72468">
        <ele>503.63</ele>
        <time>2021-06-23T12:25:32Z</time>
      </trkpt>
      <trkpt lat="47.75209" lon="6.72433">
        <ele>508.32</ele>
        <time>2021-06-23T12:25:35Z</time>
      </trkpt>
      <trkpt lat="47.75199" lon="6.72411">
        <ele>511.67</ele>
        <time>2021-06-23T12:25:37Z</time>
      </trkpt>
      <trkpt lat="47.75181" lon="6.72386">
        <ele>513.64</ele>
        <time>2021-06-23T12:25:40Z</time>
      </trkpt>
      <trkpt lat="47.75113" lon="6.72344">
        <ele>513.32</ele>
        <time>2021-06-23T12:25:42Z</time>
      </trkpt>
      <trkpt lat="47.751" lon="6.72332">
        <ele>513.23</ele>
        <time>2021-06-23T12:25:45Z</time>
      </trkpt>
      <trkpt lat="47.75093" lon="6.7232">
        <ele>513.41</ele>
        <time>2021-06-23T12:25:47Z</time>
      </trkpt>
      <trkpt lat="47.75088" lon="6.72305">
        <ele>514.96</ele>
        <time>2021-06-23T12:25:50Z</time>
      </trkpt>
      <trkpt lat="47.75083" lon="6.72282">
        <ele>515.6</ele>
        <time>2021-06-23T12:25:52Z</time>
      </trkpt>
      <trkpt lat="47.75081" lon="6.72244">
        <ele>516.81</ele>
        <time>2021-06-23T12:25:55Z</time>
      </trkpt>
      <trkpt lat="47.75083" lon="6.72221">
        <ele>517.95</ele>
        <time>2021-06-23T12:25:57Z</time>
      </trkpt>
      <trkpt lat="47.75093" lon="6.7216">
        <ele>520.21</ele>
        <time>2021-06-23T12:26:00Z</time>
      </trkpt>
      <trkpt lat="47.75103" lon="6.7214">
        <ele>520.46</ele>
        <time>2021-06-23T12:26:02Z</time>
      </trkpt>
      <trkpt lat="47.75119" lon="6.72118">
        <ele>522.88</ele>
        <time>2021-06-23T12:26:05Z</time>
      </trkpt>
      <trkpt lat="47.75152" lon="6.7206">
        <ele>530.13</ele>
        <time>2021-06-23T12:26:07Z</time>
      </trkpt>
      <trkpt lat="47.75164" lon="6.72051">
        <ele>532.22</ele>
        <time>2021-06-23T12:26:10Z</time>
      </trkpt>
      <trkpt lat="47.75172" lon="6.72051">
        <ele>533.42</ele>
        <time>2021-06-23T12:26:12Z</time>
      </trkpt>
      <trkpt lat="47.75182" lon="6.72056">
        <ele>534.67</ele>
        <time>2021-06-23T12:26:15Z</time>
      </trkpt>
      <trkpt lat="47.7519" lon="6.72067">
        <ele>535.72</ele>
        <time>2021-06-23T12:26:17Z</time>
      </trkpt>
      <trkpt lat="47.75194" lon="6.72079">
        <ele>536.1</ele>
        <time>2021-06-23T12:26:20Z</time>
      </trkpt>
      <trkpt lat="47.75196" lon="6.72093">
        <ele>536.5</ele>
        <time>2021-06-23T12:26:22Z</time>
      </trkpt>
      <trkpt lat="47.75199" lon="6.72128">
        <ele>537.31</ele>
        <time>2021-06-23T12:26:25Z</time>
      </trkpt>
      <trkpt lat="47.75206" lon="6.72174">
        <ele>536.7</ele>
        <time>2021-06-23T12:26:27Z</time>
      </trkpt>
      <trkpt lat="47.75216" lon="6.72212">
        <ele>536.78</ele>
        <time>2021-06-23T12:26:30Z</time>
      </trkpt>
      <trkpt lat="47.75223" lon="6.72225">
        <ele>537</ele>
        <time>2021-06-23T12:26:32Z</time>
      </trkpt>
      <trkpt lat="47.7523" lon="6.72234">
        <ele>537</ele>
        <time>2021-06-23T12:26:35Z</time>
      </trkpt>
      <trkpt lat="47.75252" lon="6.72249">
        <ele>536.99</ele>
        <time>2021-06-23T12:26:37Z</time>
      </trkpt>
      <trkpt lat="47.75263" lon="6.72251">
        <ele>536.96</ele>
        <time>2021-06-23T12:26:40Z</time>
      </trkpt>
      <trkpt lat="47.75272" lon="6.72248">
        <ele>536.94</ele>
        <time>2021-06-23T12:26:42Z</time>
      </trkpt>
      <trkpt lat="47.75282" lon="6.72239">
        <ele>536.51</ele>
        <time>2021-06-23T12:26:45Z</time>
      </trkpt>
      <trkpt lat="47.75287" lon="6.72228">
        <ele>536.13</ele>
        <time>2021-06-23T12:26:47Z</time>
      </trkpt>
      <trkpt lat="47.75295" lon="6.72199">
        <ele>536.52</ele>
        <time>2021-06-23T12:26:50Z</time>
      </trkpt>
      <trkpt lat="47.75312" lon="6.72147">
        <ele>540.47</ele>
        <time>2021-06-23T12:26:52Z</time>
      </trkpt>
      <trkpt lat="47.75324" lon="6.72129">
        <ele>542.79</ele>
        <time>2021-06-23T12:26:55Z</time>
      </trkpt>
      <trkpt lat="47.75334" lon="6.72124">
        <ele>544.06</ele>
        <time>2021-06-23T12:26:57Z</time>
      </trkpt>
      <trkpt lat="47.75345" lon="6.72123">
        <ele>546.05</ele>
        <time>2021-06-23T12:27:00Z</time>
      </trkpt>
      <trkpt lat="47.75355" lon="6.72124">
        <ele>547.97</ele>
        <time>2021-06-23T12:27:02Z</time>
      </trkpt>
      <trkpt lat="47.75424" lon="6.72209">
        <ele>560.57</ele>
        <time>2021-06-23T12:27:05Z</time>
      </trkpt>
      <trkpt lat="47.75446" lon="6.72244">
        <ele>561.65</ele>
        <time>2021-06-23T12:27:07Z</time>
      </trkpt>
      <trkpt lat="47.75484" lon="6.72318">
        <ele>563.98</ele>
        <time>2021-06-23T12:27:10Z</time>
      </trkpt>
      <trkpt lat="47.75513" lon="6.72355">
        <ele>565.52</ele>
        <time>2021-06-23T12:27:12Z</time>
      </trkpt>
      <trkpt lat="47.75549" lon="6.72392">
        <ele>565</ele>
        <time>2021-06-23T12:27:15Z</time>
      </trkpt>
      <trkpt lat="47.75572" lon="6.72422">
        <ele>570.66</ele>
        <time>2021-06-23T12:27:17Z</time>
      </trkpt>
      <trkpt lat="47.75582" lon="6.72431">
        <ele>573.57</ele>
        <time>2021-06-23T12:27:20Z</time>
      </trkpt>
      <trkpt lat="47.75587" lon="6.72433">
        <ele>574.46</ele>
        <time>2021-06-23T12:27:22Z</time>
      </trkpt>
      <trkpt lat="47.75602" lon="6.7243">
        <ele>575.29</ele>
        <time>2021-06-23T12:27:25Z</time>
      </trkpt>
      <trkpt lat="47.75618" lon="6.72414">
        <ele>575.85</ele>
        <time>2021-06-23T12:27:27Z</time>
      </trkpt>
      <trkpt lat="47.75622" lon="6.72402">
        <ele>576.07</ele>
        <time>2021-06-23T12:27:30Z</time>
      </trkpt>
      <trkpt lat="47.75624" lon="6.72389">
        <ele>575.9</ele>
        <time>2021-06-23T12:27:32Z</time>
      </trkpt>
      <trkpt lat="47.75624" lon="6.72371">
        <ele>576.17</ele>
        <time>2021-06-23T12:27:35Z</time>
      </trkpt>
      <trkpt lat="47.75609" lon="6.72291">
        <ele>576.81</ele>
        <time>2021-06-23T12:27:37Z</time>
      </trkpt>
      <trkpt lat="47.7559" lon="6.72204">
        <ele>583.73</ele>
        <time>2021-06-23T12:27:40Z</time>
      </trkpt>
      <trkpt lat="47.75577" lon="6.7217">
        <ele>581.94</ele>
        <time>2021-06-23T12:27:43Z</time>
      </trkpt>
      <trkpt lat="47.75559" lon="6.72135">
        <ele>584.86</ele>
        <time>2021-06-23T12:27:45Z</time>
      </trkpt>
      <trkpt lat="47.75535" lon="6.72105">
        <ele>587.63</ele>
        <time>2021-06-23T12:27:48Z</time>
      </trkpt>
      <trkpt lat="47.75499" lon="6.72064">
        <ele>586.56</ele>
        <time>2021-06-23T12:27:50Z</time>
      </trkpt>
      <trkpt lat="47.75485" lon="6.72042">
        <ele>587.31</ele>
        <time>2021-06-23T12:27:53Z</time>
      </trkpt>
      <trkpt lat="47.75472" lon="6.72006">
        <ele>589.14</ele>
        <time>2021-06-23T12:27:55Z</time>
      </trkpt>
      <trkpt lat="47.75465" lon="6.71973">
        <ele>593.87</ele>
        <time>2021-06-23T12:27:58Z</time>
      </trkpt>
      <trkpt lat="47.75459" lon="6.71942">
        <ele>596.97</ele>
        <time>2021-06-23T12:28:00Z</time>
      </trkpt>
      <trkpt lat="47.75456" lon="6.71899">
        <ele>596.03</ele>
        <time>2021-06-23T12:28:03Z</time>
      </trkpt>
      <trkpt lat="47.75459" lon="6.71845">
        <ele>594.52</ele>
        <time>2021-06-23T12:28:05Z</time>
      </trkpt>
      <trkpt lat="47.75489" lon="6.71762">
        <ele>602.58</ele>
        <time>2021-06-23T12:28:08Z</time>
      </trkpt>
      <trkpt lat="47.755" lon="6.71726">
        <ele>605.26</ele>
        <time>2021-06-23T12:28:10Z</time>
      </trkpt>
      <trkpt lat="47.75514" lon="6.71696">
        <ele>607.76</ele>
        <time>2021-06-23T12:28:13Z</time>
      </trkpt>
      <trkpt lat="47.7553" lon="6.71671">
        <ele>611.13</ele>
        <time>2021-06-23T12:28:15Z</time>
      </trkpt>
      <trkpt lat="47.75549" lon="6.71648">
        <ele>616.11</ele>
        <time>2021-06-23T12:28:18Z</time>
      </trkpt>
      <trkpt lat="47.75571" lon="6.71628">
        <ele>619.42</ele>
        <time>2021-06-23T12:28:20Z</time>
      </trkpt>
      <trkpt lat="47.7559" lon="6.71617">
        <ele>620.28</ele>
        <time>2021-06-23T12:28:23Z</time>
      </trkpt>
      <trkpt lat="47.75617" lon="6.71608">
        <ele>617.76</ele>
        <time>2021-06-23T12:28:25Z</time>
      </trkpt>
      <trkpt lat="47.75631" lon="6.71605">
        <ele>614.53</ele>
        <time>2021-06-23T12:28:28Z</time>
      </trkpt>
      <trkpt lat="47.75643" lon="6.71608">
        <ele>611.99</ele>
        <time>2021-06-23T12:28:30Z</time>
      </trkpt>
      <trkpt lat="47.75658" lon="6.71618">
        <ele>609.95</ele>
        <time>2021-06-23T12:28:33Z</time>
      </trkpt>
      <trkpt lat="47.75671" lon="6.71631">
        <ele>608.46</ele>
        <time>2021-06-23T12:28:35Z</time>
      </trkpt>
      <trkpt lat="47.75685" lon="6.71647">
        <ele>606.52</ele>
        <time>2021-06-23T12:28:38Z</time>
      </trkpt>
      <trkpt lat="47.75712" lon="6.717">
        <ele>603.81</ele>
        <time>2021-06-23T12:28:40Z</time>
      </trkpt>
      <trkpt lat="47.7574" lon="6.71744">
        <ele>606.41</ele>
        <time>2021-06-23T12:28:43Z</time>
      </trkpt>
      <trkpt lat="47.75746" lon="6.71749">
        <ele>607.55</ele>
        <time>2021-06-23T12:28:45Z</time>
      </trkpt>
      <trkpt lat="47.75751" lon="6.71752">
        <ele>608.51</ele>
        <time>2021-06-23T12:28:48Z</time>
      </trkpt>
      <trkpt lat="47.75759" lon="6.71752">
        <ele>607.47</ele>
        <time>2021-06-23T12:28:50Z</time>
      </trkpt>
      <trkpt lat="47.75766" lon="6.7175">
        <ele>605.66</ele>
        <time>2021-06-23T12:28:53Z</time>
      </trkpt>
      <trkpt lat="47.75778" lon="6.71739">
        <ele>601.25</ele>
        <time>2021-06-23T12:28:55Z</time>
      </trkpt>
      <trkpt lat="47.75782" lon="6.7173">
        <ele>598.34</ele>
        <time>2021-06-23T12:28:58Z</time>
      </trkpt>
      <trkpt lat="47.75783" lon="6.71712">
        <ele>594.91</ele>
        <time>2021-06-23T12:29:00Z</time>
      </trkpt>
      <trkpt lat="47.75781" lon="6.71701">
        <ele>593.66</ele>
        <time>2021-06-23T12:29:03Z</time>
      </trkpt>
      <trkpt lat="47.75772" lon="6.7168">
        <ele>593.31</ele>
        <time>2021-06-23T12:29:05Z</time>
      </trkpt>
      <trkpt lat="47.75735" lon="6.71623">
        <ele>593.81</ele>
        <time>2021-06-23T12:29:08Z</time>
      </trkpt>
      <trkpt lat="47.75726" lon="6.71603">
        <ele>592.93</ele>
        <time>2021-06-23T12:29:10Z</time>
      </trkpt>
      <trkpt lat="47.75721" lon="6.71589">
        <ele>592.65</ele>
        <time>2021-06-23T12:29:13Z</time>
      </trkpt>
      <trkpt lat="47.7572" lon="6.71577">
        <ele>592.13</ele>
        <time>2021-06-23T12:29:15Z</time>
      </trkpt>
      <trkpt lat="47.75723" lon="6.71563">
        <ele>591.23</ele>
        <time>2021-06-23T12:29:18Z</time>
      </trkpt>
      <trkpt lat="47.75732" lon="6.71533">
        <ele>589.84</ele>
        <time>2021-06-23T12:29:20Z</time>
      </trkpt>
      <trkpt lat="47.75739" lon="6.71496">
        <ele>590.58</ele>
        <time>2021-06-23T12:29:23Z</time>
      </trkpt>
      <trkpt lat="47.75763" lon="6.71335">
        <ele>584.56</ele>
        <time>2021-06-23T12:29:25Z</time>
      </trkpt>
      <trkpt lat="47.75782" lon="6.71238">
        <ele>585.01</ele>
        <time>2021-06-23T12:29:28Z</time>
      </trkpt>
      <trkpt lat="47.75783" lon="6.71215">
        <ele>585.66</ele>
        <time>2021-06-23T12:29:30Z</time>
      </trkpt>
      <trkpt lat="47.75782" lon="6.71146">
        <ele>580.94</ele>
        <time>2021-06-23T12:29:33Z</time>
      </trkpt>
      <trkpt lat="47.75782" lon="6.71135">
        <ele>580.19</ele>
        <time>2021-06-23T12:29:35Z</time>
      </trkpt>
      <trkpt lat="47.75787" lon="6.71121">
        <ele>579.37</ele>
        <time>2021-06-23T12:29:38Z</time>
      </trkpt>
      <trkpt lat="47.75791" lon="6.71115">
        <ele>578.61</ele>
        <time>2021-06-23T12:29:40Z</time>
      </trkpt>
      <trkpt lat="47.75798" lon="6.7111">
        <ele>577.41</ele>
        <time>2021-06-23T12:29:43Z</time>
      </trkpt>
      <trkpt lat="47.75806" lon="6.71107">
        <ele>576</ele>
        <time>2021-06-23T12:29:46Z</time>
      </trkpt>
      <trkpt lat="47.75817" lon="6.71111">
        <ele>573.57</ele>
        <time>2021-06-23T12:29:48Z</time>
      </trkpt>
      <trkpt lat="47.75822" lon="6.71117">
        <ele>572.67</ele>
        <time>2021-06-23T12:29:51Z</time>
      </trkpt>
      <trkpt lat="47.75827" lon="6.71127">
        <ele>571.77</ele>
        <time>2021-06-23T12:29:53Z</time>
      </trkpt>
      <trkpt lat="47.75831" lon="6.71138">
        <ele>571.42</ele>
        <time>2021-06-23T12:29:56Z</time>
      </trkpt>
      <trkpt lat="47.75841" lon="6.71194">
        <ele>573.25</ele>
        <time>2021-06-23T12:29:58Z</time>
      </trkpt>
      <trkpt lat="47.75845" lon="6.71204">
        <ele>573.04</ele>
        <time>2021-06-23T12:30:01Z</time>
      </trkpt>
      <trkpt lat="47.75857" lon="6.71228">
        <ele>572.01</ele>
        <time>2021-06-23T12:30:03Z</time>
      </trkpt>
      <trkpt lat="47.75866" lon="6.71239">
        <ele>572.43</ele>
        <time>2021-06-23T12:30:06Z</time>
      </trkpt>
      <trkpt lat="47.75874" lon="6.71243">
        <ele>573.18</ele>
        <time>2021-06-23T12:30:08Z</time>
      </trkpt>
      <trkpt lat="47.75883" lon="6.71244">
        <ele>573.79</ele>
        <time>2021-06-23T12:30:11Z</time>
      </trkpt>
      <trkpt lat="47.7589" lon="6.71241">
        <ele>574.07</ele>
        <time>2021-06-23T12:30:13Z</time>
      </trkpt>
      <trkpt lat="47.75899" lon="6.71232">
        <ele>574.92</ele>
        <time>2021-06-23T12:30:16Z</time>
      </trkpt>
      <trkpt lat="47.75903" lon="6.71224">
        <ele>574.81</ele>
        <time>2021-06-23T12:30:18Z</time>
      </trkpt>
      <trkpt lat="47.75941" lon="6.71102">
        <ele>567.98</ele>
        <time>2021-06-23T12:30:21Z</time>
      </trkpt>
      <trkpt lat="47.75949" lon="6.71079">
        <ele>565.04</ele>
        <time>2021-06-23T12:30:23Z</time>
      </trkpt>
      <trkpt lat="47.75957" lon="6.71062">
        <ele>563.44</ele>
        <time>2021-06-23T12:30:26Z</time>
      </trkpt>
      <trkpt lat="47.75966" lon="6.71049">
        <ele>562.69</ele>
        <time>2021-06-23T12:30:28Z</time>
      </trkpt>
      <trkpt lat="47.76011" lon="6.71003">
        <ele>561.5</ele>
        <time>2021-06-23T12:30:31Z</time>
      </trkpt>
      <trkpt lat="47.76025" lon="6.70986">
        <ele>559.21</ele>
        <time>2021-06-23T12:30:33Z</time>
      </trkpt>
      <trkpt lat="47.76036" lon="6.7096">
        <ele>557.04</ele>
        <time>2021-06-23T12:30:36Z</time>
      </trkpt>
      <trkpt lat="47.76107" lon="6.70717">
        <ele>557.3</ele>
        <time>2021-06-23T12:30:38Z</time>
      </trkpt>
      <trkpt lat="47.76137" lon="6.70583">
        <ele>546.69</ele>
        <time>2021-06-23T12:30:41Z</time>
      </trkpt>
      <trkpt lat="47.76162" lon="6.70503">
        <ele>546.69</ele>
        <time>2021-06-23T12:30:43Z</time>
      </trkpt>
      <trkpt lat="47.76169" lon="6.70462">
        <ele>547.52</ele>
        <time>2021-06-23T12:30:46Z</time>
      </trkpt>
      <trkpt lat="47.76178" lon="6.70365">
        <ele>542.92</ele>
        <time>2021-06-23T12:30:48Z</time>
      </trkpt>
      <trkpt lat="47.7618" lon="6.70285">
        <ele>536.47</ele>
        <time>2021-06-23T12:30:51Z</time>
      </trkpt>
      <trkpt lat="47.76182" lon="6.70276">
        <ele>535.94</ele>
        <time>2021-06-23T12:30:53Z</time>
      </trkpt>
      <trkpt lat="47.76192" lon="6.70245">
        <ele>534.48</ele>
        <time>2021-06-23T12:30:56Z</time>
      </trkpt>
      <trkpt lat="47.76245" lon="6.70146">
        <ele>530.44</ele>
        <time>2021-06-23T12:30:58Z</time>
      </trkpt>
      <trkpt lat="47.7627" lon="6.7009">
        <ele>528.7</ele>
        <time>2021-06-23T12:31:01Z</time>
      </trkpt>
      <trkpt lat="47.76291" lon="6.70033">
        <ele>535.09</ele>
        <time>2021-06-23T12:31:03Z</time>
      </trkpt>
      <trkpt lat="47.76317" lon="6.69934">
        <ele>535.74</ele>
        <time>2021-06-23T12:31:06Z</time>
      </trkpt>
      <trkpt lat="47.7632" lon="6.69905">
        <ele>534.22</ele>
        <time>2021-06-23T12:31:08Z</time>
      </trkpt>
      <trkpt lat="47.76313" lon="6.69773">
        <ele>530.31</ele>
        <time>2021-06-23T12:31:11Z</time>
      </trkpt>
      <trkpt lat="47.76306" lon="6.69701">
        <ele>528.03</ele>
        <time>2021-06-23T12:31:13Z</time>
      </trkpt>
      <trkpt lat="47.76308" lon="6.69646">
        <ele>527.33</ele>
        <time>2021-06-23T12:31:16Z</time>
      </trkpt>
      <trkpt lat="47.76321" lon="6.69562">
        <ele>525.32</ele>
        <time>2021-06-23T12:31:18Z</time>
      </trkpt>
      <trkpt lat="47.76349" lon="6.69413">
        <ele>522.86</ele>
        <time>2021-06-23T12:31:21Z</time>
      </trkpt>
      <trkpt lat="47.76392" lon="6.6914">
        <ele>523.27</ele>
        <time>2021-06-23T12:31:23Z</time>
      </trkpt>
      <trkpt lat="47.76398" lon="6.69113">
        <ele>526.67</ele>
        <time>2021-06-23T12:31:26Z</time>
      </trkpt>
      <trkpt lat="47.76405" lon="6.69092">
        <ele>528.95</ele>
        <time>2021-06-23T12:31:28Z</time>
      </trkpt>
      <trkpt lat="47.76442" lon="6.69001">
        <ele>520.9</ele>
        <time>2021-06-23T12:31:31Z</time>
      </trkpt>
      <trkpt lat="47.7645" lon="6.6897">
        <ele>519.15</ele>
        <time>2021-06-23T12:31:33Z</time>
      </trkpt>
      <trkpt lat="47.76477" lon="6.68776">
        <ele>520.89</ele>
        <time>2021-06-23T12:31:36Z</time>
      </trkpt>
      <trkpt lat="47.76479" lon="6.68737">
        <ele>521.44</ele>
        <time>2021-06-23T12:31:38Z</time>
      </trkpt>
      <trkpt lat="47.7647" lon="6.68579">
        <ele>527.34</ele>
        <time>2021-06-23T12:31:41Z</time>
      </trkpt>
      <trkpt lat="47.76471" lon="6.68553">
        <ele>529.74</ele>
        <time>2021-06-23T12:31:43Z</time>
      </trkpt>
      <trkpt lat="47.76476" lon="6.68534">
        <ele>529.3</ele>
        <time>2021-06-23T12:31:46Z</time>
      </trkpt>
      <trkpt lat="47.76513" lon="6.68469">
        <ele>522.71</ele>
        <time>2021-06-23T12:31:48Z</time>
      </trkpt>
      <trkpt lat="47.7652" lon="6.68445">
        <ele>523.27</ele>
        <time>2021-06-23T12:31:51Z</time>
      </trkpt>
      <trkpt lat="47.7652" lon="6.68445">
        <ele>523.27</ele>
        <time>2021-06-23T12:31:51Z</time>
      </trkpt>
      <trkpt lat="47.76523" lon="6.68402">
        <ele>524.48</ele>
        <time>2021-06-23T12:31:55Z</time>
      </trkpt>
      <trkpt lat="47.76523" lon="6.68314">
        <ele>523.95</ele>
        <time>2021-06-23T12:31:59Z</time>
      </trkpt>
      <trkpt lat="47.76521" lon="6.68256">
        <ele>525.44</ele>
        <time>2021-06-23T12:32:02Z</time>
      </trkpt>
      <trkpt lat="47.76513" lon="6.68219">
        <ele>524.41</ele>
        <time>2021-06-23T12:32:06Z</time>
      </trkpt>
      <trkpt lat="47.76489" lon="6.68159">
        <ele>522.68</ele>
        <time>2021-06-23T12:32:10Z</time>
      </trkpt>
      <trkpt lat="47.76481" lon="6.68128">
        <ele>521.09</ele>
        <time>2021-06-23T12:32:14Z</time>
      </trkpt>
      <trkpt lat="47.76477" lon="6.68102">
        <ele>520.72</ele>
        <time>2021-06-23T12:32:17Z</time>
      </trkpt>
      <trkpt lat="47.76477" lon="6.68076">
        <ele>520.3</ele>
        <time>2021-06-23T12:32:21Z</time>
      </trkpt>
      <trkpt lat="47.7648" lon="6.68028">
        <ele>519.77</ele>
        <time>2021-06-23T12:32:25Z</time>
      </trkpt>
      <trkpt lat="47.76478" lon="6.67999">
        <ele>518.85</ele>
        <time>2021-06-23T12:32:29Z</time>
      </trkpt>
      <trkpt lat="47.76476" lon="6.67985">
        <ele>517.96</ele>
        <time>2021-06-23T12:32:32Z</time>
      </trkpt>
      <trkpt lat="47.76471" lon="6.67972">
        <ele>517.35</ele>
        <time>2021-06-23T12:32:36Z</time>
      </trkpt>
      <trkpt lat="47.76395" lon="6.67834">
        <ele>505.88</ele>
        <time>2021-06-23T12:32:40Z</time>
      </trkpt>
      <trkpt lat="47.76386" lon="6.67822">
        <ele>506.12</ele>
        <time>2021-06-23T12:32:44Z</time>
      </trkpt>
      <trkpt lat="47.76329" lon="6.67769">
        <ele>508.63</ele>
        <time>2021-06-23T12:32:48Z</time>
      </trkpt>
      <trkpt lat="47.76311" lon="6.67736">
        <ele>507.2</ele>
        <time>2021-06-23T12:32:51Z</time>
      </trkpt>
      <trkpt lat="47.76274" lon="6.67619">
        <ele>498.57</ele>
        <time>2021-06-23T12:32:55Z</time>
      </trkpt>
      <trkpt lat="47.76261" lon="6.67549">
        <ele>492.56</ele>
        <time>2021-06-23T12:32:59Z</time>
      </trkpt>
      <trkpt lat="47.76256" lon="6.6753">
        <ele>491.02</ele>
        <time>2021-06-23T12:33:03Z</time>
      </trkpt>
      <trkpt lat="47.76251" lon="6.6752">
        <ele>490.72</ele>
        <time>2021-06-23T12:33:06Z</time>
      </trkpt>
      <trkpt lat="47.76239" lon="6.67506">
        <ele>490.86</ele>
        <time>2021-06-23T12:33:10Z</time>
      </trkpt>
      <trkpt lat="47.76219" lon="6.67489">
        <ele>490.8</ele>
        <time>2021-06-23T12:33:14Z</time>
      </trkpt>
      <trkpt lat="47.76213" lon="6.67481">
        <ele>491.23</ele>
        <time>2021-06-23T12:33:18Z</time>
      </trkpt>
      <trkpt lat="47.76206" lon="6.67468">
        <ele>491.1</ele>
        <time>2021-06-23T12:33:21Z</time>
      </trkpt>
      <trkpt lat="47.76202" lon="6.67454">
        <ele>490.75</ele>
        <time>2021-06-23T12:33:25Z</time>
      </trkpt>
      <trkpt lat="47.76195" lon="6.6741">
        <ele>488.75</ele>
        <time>2021-06-23T12:33:29Z</time>
      </trkpt>
      <trkpt lat="47.76192" lon="6.67401">
        <ele>488.86</ele>
        <time>2021-06-23T12:33:33Z</time>
      </trkpt>
      <trkpt lat="47.76186" lon="6.6739">
        <ele>489.35</ele>
        <time>2021-06-23T12:33:36Z</time>
      </trkpt>
      <trkpt lat="47.76103" lon="6.67275">
        <ele>492.26</ele>
        <time>2021-06-23T12:33:40Z</time>
      </trkpt>
      <trkpt lat="47.7608" lon="6.67256">
        <ele>492.25</ele>
        <time>2021-06-23T12:33:44Z</time>
      </trkpt>
      <trkpt lat="47.7606" lon="6.67244">
        <ele>491.73</ele>
        <time>2021-06-23T12:33:48Z</time>
      </trkpt>
      <trkpt lat="47.76019" lon="6.67229">
        <ele>491.72</ele>
        <time>2021-06-23T12:33:51Z</time>
      </trkpt>
      <trkpt lat="47.75941" lon="6.67167">
        <ele>487.86</ele>
        <time>2021-06-23T12:33:55Z</time>
      </trkpt>
      <trkpt lat="47.75889" lon="6.67117">
        <ele>488</ele>
        <time>2021-06-23T12:33:59Z</time>
      </trkpt>
      <trkpt lat="47.75864" lon="6.6709">
        <ele>487.3</ele>
        <time>2021-06-23T12:34:03Z</time>
      </trkpt>
      <trkpt lat="47.75813" lon="6.67013">
        <ele>483.72</ele>
        <time>2021-06-23T12:34:07Z</time>
      </trkpt>
      <trkpt lat="47.75798" lon="6.66984">
        <ele>483</ele>
        <time>2021-06-23T12:34:10Z</time>
      </trkpt>
      <trkpt lat="47.75712" lon="6.66786">
        <ele>479.65</ele>
        <time>2021-06-23T12:34:14Z</time>
      </trkpt>
      <trkpt lat="47.75694" lon="6.66735">
        <ele>479.02</ele>
        <time>2021-06-23T12:34:18Z</time>
      </trkpt>
      <trkpt lat="47.75676" lon="6.66677">
        <ele>479.48</ele>
        <time>2021-06-23T12:34:22Z</time>
      </trkpt>
      <trkpt lat="47.75658" lon="6.66587">
        <ele>477.32</ele>
        <time>2021-06-23T12:34:25Z</time>
      </trkpt>
      <trkpt lat="47.7564" lon="6.6647">
        <ele>480.92</ele>
        <time>2021-06-23T12:34:29Z</time>
      </trkpt>
      <trkpt lat="47.75626" lon="6.66363">
        <ele>477.05</ele>
        <time>2021-06-23T12:34:33Z</time>
      </trkpt>
      <trkpt lat="47.75625" lon="6.66339">
        <ele>476.5</ele>
        <time>2021-06-23T12:34:37Z</time>
      </trkpt>
      <trkpt lat="47.75625" lon="6.66339">
        <ele>476.5</ele>
        <time>2021-06-23T12:34:37Z</time>
      </trkpt>
      <trkpt lat="47.75628" lon="6.6629">
        <ele>476</ele>
        <time>2021-06-23T12:34:39Z</time>
      </trkpt>
      <trkpt lat="47.75631" lon="6.66264">
        <ele>476.35</ele>
        <time>2021-06-23T12:34:42Z</time>
      </trkpt>
      <trkpt lat="47.7565" lon="6.66139">
        <ele>474.99</ele>
        <time>2021-06-23T12:34:45Z</time>
      </trkpt>
      <trkpt lat="47.75659" lon="6.66086">
        <ele>474.73</ele>
        <time>2021-06-23T12:34:48Z</time>
      </trkpt>
      <trkpt lat="47.75697" lon="6.65899">
        <ele>471</ele>
        <time>2021-06-23T12:34:51Z</time>
      </trkpt>
      <trkpt lat="47.75703" lon="6.65853">
        <ele>471.08</ele>
        <time>2021-06-23T12:34:53Z</time>
      </trkpt>
      <trkpt lat="47.75712" lon="6.65743">
        <ele>469.32</ele>
        <time>2021-06-23T12:34:56Z</time>
      </trkpt>
      <trkpt lat="47.75716" lon="6.65719">
        <ele>468.07</ele>
        <time>2021-06-23T12:34:59Z</time>
      </trkpt>
      <trkpt lat="47.75726" lon="6.65687">
        <ele>466.45</ele>
        <time>2021-06-23T12:35:02Z</time>
      </trkpt>
      <trkpt lat="47.75768" lon="6.65588">
        <ele>461.52</ele>
        <time>2021-06-23T12:35:05Z</time>
      </trkpt>
      <trkpt lat="47.75811" lon="6.65505">
        <ele>459</ele>
        <time>2021-06-23T12:35:07Z</time>
      </trkpt>
      <trkpt lat="47.75821" lon="6.65484">
        <ele>459</ele>
        <time>2021-06-23T12:35:10Z</time>
      </trkpt>
      <trkpt lat="47.7583" lon="6.65456">
        <ele>459</ele>
        <time>2021-06-23T12:35:13Z</time>
      </trkpt>
      <trkpt lat="47.75833" lon="6.65436">
        <ele>459.31</ele>
        <time>2021-06-23T12:35:16Z</time>
      </trkpt>
      <trkpt lat="47.75834" lon="6.65419">
        <ele>459.99</ele>
        <time>2021-06-23T12:35:18Z</time>
      </trkpt>
      <trkpt lat="47.75833" lon="6.65403">
        <ele>460.99</ele>
        <time>2021-06-23T12:35:21Z</time>
      </trkpt>
      <trkpt lat="47.75824" lon="6.65371">
        <ele>462.07</ele>
        <time>2021-06-23T12:35:24Z</time>
      </trkpt>
      <trkpt lat="47.75819" lon="6.65336">
        <ele>461.44</ele>
        <time>2021-06-23T12:35:27Z</time>
      </trkpt>
      <trkpt lat="47.75819" lon="6.65293">
        <ele>459.51</ele>
        <time>2021-06-23T12:35:30Z</time>
      </trkpt>
      <trkpt lat="47.75821" lon="6.65275">
        <ele>458.98</ele>
        <time>2021-06-23T12:35:32Z</time>
      </trkpt>
      <trkpt lat="47.75825" lon="6.65258">
        <ele>458.67</ele>
        <time>2021-06-23T12:35:35Z</time>
      </trkpt>
      <trkpt lat="47.75889" lon="6.65145">
        <ele>460.2</ele>
        <time>2021-06-23T12:35:38Z</time>
      </trkpt>
      <trkpt lat="47.75904" lon="6.6511">
        <ele>460.54</ele>
        <time>2021-06-23T12:35:41Z</time>
      </trkpt>
      <trkpt lat="47.75906" lon="6.65098">
        <ele>460.63</ele>
        <time>2021-06-23T12:35:44Z</time>
      </trkpt>
      <trkpt lat="47.7591" lon="6.65065">
        <ele>461.41</ele>
        <time>2021-06-23T12:35:46Z</time>
      </trkpt>
      <trkpt lat="47.7591" lon="6.64979">
        <ele>463.74</ele>
        <time>2021-06-23T12:35:49Z</time>
      </trkpt>
      <trkpt lat="47.75915" lon="6.64938">
        <ele>464.25</ele>
        <time>2021-06-23T12:35:52Z</time>
      </trkpt>
      <trkpt lat="47.7593" lon="6.64889">
        <ele>466.47</ele>
        <time>2021-06-23T12:35:55Z</time>
      </trkpt>
      <trkpt lat="47.75952" lon="6.64837">
        <ele>468.9</ele>
        <time>2021-06-23T12:35:58Z</time>
      </trkpt>
      <trkpt lat="47.7596" lon="6.64822">
        <ele>468.83</ele>
        <time>2021-06-23T12:36:00Z</time>
      </trkpt>
      <trkpt lat="47.75983" lon="6.64797">
        <ele>469.77</ele>
        <time>2021-06-23T12:36:03Z</time>
      </trkpt>
      <trkpt lat="47.76009" lon="6.64757">
        <ele>470.97</ele>
        <time>2021-06-23T12:36:06Z</time>
      </trkpt>
      <trkpt lat="47.76033" lon="6.64725">
        <ele>470.4</ele>
        <time>2021-06-23T12:36:09Z</time>
      </trkpt>
      <trkpt lat="47.76102" lon="6.64659">
        <ele>467.79</ele>
        <time>2021-06-23T12:36:12Z</time>
      </trkpt>
      <trkpt lat="47.76138" lon="6.64622">
        <ele>466.35</ele>
        <time>2021-06-23T12:36:14Z</time>
      </trkpt>
      <trkpt lat="47.76177" lon="6.64575">
        <ele>464.54</ele>
        <time>2021-06-23T12:36:17Z</time>
      </trkpt>
      <trkpt lat="47.76208" lon="6.64554">
        <ele>467.95</ele>
        <time>2021-06-23T12:36:20Z</time>
      </trkpt>
      <trkpt lat="47.76262" lon="6.64529">
        <ele>472.47</ele>
        <time>2021-06-23T12:36:23Z</time>
      </trkpt>
      <trkpt lat="47.76309" lon="6.64477">
        <ele>470.71</ele>
        <time>2021-06-23T12:36:25Z</time>
      </trkpt>
      <trkpt lat="47.76359" lon="6.64434">
        <ele>464.49</ele>
        <time>2021-06-23T12:36:28Z</time>
      </trkpt>
      <trkpt lat="47.76368" lon="6.64418">
        <ele>462.71</ele>
        <time>2021-06-23T12:36:31Z</time>
      </trkpt>
      <trkpt lat="47.76376" lon="6.64397">
        <ele>462.44</ele>
        <time>2021-06-23T12:36:34Z</time>
      </trkpt>
      <trkpt lat="47.76381" lon="6.6438">
        <ele>462.63</ele>
        <time>2021-06-23T12:36:37Z</time>
      </trkpt>
      <trkpt lat="47.76386" lon="6.64352">
        <ele>462.31</ele>
        <time>2021-06-23T12:36:39Z</time>
      </trkpt>
      <trkpt lat="47.76386" lon="6.64341">
        <ele>461.96</ele>
        <time>2021-06-23T12:36:42Z</time>
      </trkpt>
      <trkpt lat="47.76384" lon="6.64329">
        <ele>461.15</ele>
        <time>2021-06-23T12:36:45Z</time>
      </trkpt>
      <trkpt lat="47.76378" lon="6.64316">
        <ele>459.49</ele>
        <time>2021-06-23T12:36:48Z</time>
      </trkpt>
      <trkpt lat="47.76338" lon="6.6426">
        <ele>456.81</ele>
        <time>2021-06-23T12:36:51Z</time>
      </trkpt>
      <trkpt lat="47.76324" lon="6.64229">
        <ele>456.41</ele>
        <time>2021-06-23T12:36:53Z</time>
      </trkpt>
      <trkpt lat="47.76315" lon="6.64198">
        <ele>455.64</ele>
        <time>2021-06-23T12:36:56Z</time>
      </trkpt>
      <trkpt lat="47.76303" lon="6.64137">
        <ele>454.66</ele>
        <time>2021-06-23T12:36:59Z</time>
      </trkpt>
      <trkpt lat="47.76288" lon="6.64022">
        <ele>453.34</ele>
        <time>2021-06-23T12:37:02Z</time>
      </trkpt>
      <trkpt lat="47.7628" lon="6.63997">
        <ele>455.38</ele>
        <time>2021-06-23T12:37:05Z</time>
      </trkpt>
      <trkpt lat="47.76267" lon="6.6397">
        <ele>455.89</ele>
        <time>2021-06-23T12:37:07Z</time>
      </trkpt>
      <trkpt lat="47.76257" lon="6.6396">
        <ele>455.26</ele>
        <time>2021-06-23T12:37:10Z</time>
      </trkpt>
      <trkpt lat="47.76209" lon="6.63919">
        <ele>453.42</ele>
        <time>2021-06-23T12:37:13Z</time>
      </trkpt>
      <trkpt lat="47.76186" lon="6.6389">
        <ele>451.51</ele>
        <time>2021-06-23T12:37:16Z</time>
      </trkpt>
      <trkpt lat="47.7617" lon="6.63858">
        <ele>449.71</ele>
        <time>2021-06-23T12:37:18Z</time>
      </trkpt>
      <trkpt lat="47.76158" lon="6.63824">
        <ele>449.36</ele>
        <time>2021-06-23T12:37:21Z</time>
      </trkpt>
      <trkpt lat="47.76154" lon="6.63797">
        <ele>448.92</ele>
        <time>2021-06-23T12:37:24Z</time>
      </trkpt>
      <trkpt lat="47.76153" lon="6.63772">
        <ele>449.8</ele>
        <time>2021-06-23T12:37:27Z</time>
      </trkpt>
      <trkpt lat="47.76149" lon="6.6376">
        <ele>450.34</ele>
        <time>2021-06-23T12:37:30Z</time>
      </trkpt>
      <trkpt lat="47.76146" lon="6.63752">
        <ele>450.86</ele>
        <time>2021-06-23T12:37:32Z</time>
      </trkpt>
      <trkpt lat="47.7614" lon="6.63744">
        <ele>451.41</ele>
        <time>2021-06-23T12:37:35Z</time>
      </trkpt>
      <trkpt lat="47.76122" lon="6.63729">
        <ele>453.74</ele>
        <time>2021-06-23T12:37:38Z</time>
      </trkpt>
      <trkpt lat="47.76105" lon="6.6371">
        <ele>454.88</ele>
        <time>2021-06-23T12:37:41Z</time>
      </trkpt>
      <trkpt lat="47.7609" lon="6.63682">
        <ele>455.57</ele>
        <time>2021-06-23T12:37:44Z</time>
      </trkpt>
      <trkpt lat="47.7608" lon="6.63655">
        <ele>456.71</ele>
        <time>2021-06-23T12:37:46Z</time>
      </trkpt>
      <trkpt lat="47.76064" lon="6.63604">
        <ele>456.08</ele>
        <time>2021-06-23T12:37:49Z</time>
      </trkpt>
      <trkpt lat="47.7606" lon="6.63578">
        <ele>455.19</ele>
        <time>2021-06-23T12:37:52Z</time>
      </trkpt>
      <trkpt lat="47.76057" lon="6.63551">
        <ele>452.18</ele>
        <time>2021-06-23T12:37:55Z</time>
      </trkpt>
      <trkpt lat="47.76064" lon="6.63445">
        <ele>446.64</ele>
        <time>2021-06-23T12:37:58Z</time>
      </trkpt>
      <trkpt lat="47.76073" lon="6.63374">
        <ele>443.76</ele>
        <time>2021-06-23T12:38:00Z</time>
      </trkpt>
      <trkpt lat="47.76087" lon="6.63303">
        <ele>437.73</ele>
        <time>2021-06-23T12:38:03Z</time>
      </trkpt>
      <trkpt lat="47.76094" lon="6.63286">
        <ele>435.25</ele>
        <time>2021-06-23T12:38:06Z</time>
      </trkpt>
      <trkpt lat="47.76102" lon="6.63274">
        <ele>433.23</ele>
        <time>2021-06-23T12:38:09Z</time>
      </trkpt>
      <trkpt lat="47.76112" lon="6.63268">
        <ele>431.81</ele>
        <time>2021-06-23T12:38:12Z</time>
      </trkpt>
      <trkpt lat="47.76119" lon="6.63267">
        <ele>431.1</ele>
        <time>2021-06-23T12:38:14Z</time>
      </trkpt>
      <trkpt lat="47.76133" lon="6.63273">
        <ele>431.33</ele>
        <time>2021-06-23T12:38:17Z</time>
      </trkpt>
      <trkpt lat="47.76142" lon="6.63288">
        <ele>433.15</ele>
        <time>2021-06-23T12:38:20Z</time>
      </trkpt>
      <trkpt lat="47.76194" lon="6.63384">
        <ele>426.34</ele>
        <time>2021-06-23T12:38:23Z</time>
      </trkpt>
      <trkpt lat="47.76204" lon="6.63396">
        <ele>425.42</ele>
        <time>2021-06-23T12:38:25Z</time>
      </trkpt>
      <trkpt lat="47.76239" lon="6.63429">
        <ele>422.23</ele>
        <time>2021-06-23T12:38:28Z</time>
      </trkpt>
      <trkpt lat="47.76254" lon="6.63446">
        <ele>420.9</ele>
        <time>2021-06-23T12:38:31Z</time>
      </trkpt>
      <trkpt lat="47.7626" lon="6.63459">
        <ele>420.97</ele>
        <time>2021-06-23T12:38:34Z</time>
      </trkpt>
      <trkpt lat="47.76265" lon="6.63474">
        <ele>421.06</ele>
        <time>2021-06-23T12:38:37Z</time>
      </trkpt>
      <trkpt lat="47.76274" lon="6.63531">
        <ele>422.34</ele>
        <time>2021-06-23T12:38:39Z</time>
      </trkpt>
      <trkpt lat="47.76298" lon="6.63573">
        <ele>421.89</ele>
        <time>2021-06-23T12:38:42Z</time>
      </trkpt>
      <trkpt lat="47.76318" lon="6.63589">
        <ele>422.31</ele>
        <time>2021-06-23T12:38:45Z</time>
      </trkpt>
      <trkpt lat="47.76325" lon="6.63591">
        <ele>422.36</ele>
        <time>2021-06-23T12:38:48Z</time>
      </trkpt>
      <trkpt lat="47.76333" lon="6.63589">
        <ele>422.22</ele>
        <time>2021-06-23T12:38:51Z</time>
      </trkpt>
      <trkpt lat="47.76361" lon="6.63575">
        <ele>420.69</ele>
        <time>2021-06-23T12:38:53Z</time>
      </trkpt>
      <trkpt lat="47.76383" lon="6.63573">
        <ele>420.92</ele>
        <time>2021-06-23T12:38:56Z</time>
      </trkpt>
      <trkpt lat="47.76418" lon="6.63576">
        <ele>422.02</ele>
        <time>2021-06-23T12:38:59Z</time>
      </trkpt>
      <trkpt lat="47.76429" lon="6.63574">
        <ele>422.14</ele>
        <time>2021-06-23T12:39:02Z</time>
      </trkpt>
      <trkpt lat="47.76436" lon="6.6357">
        <ele>422</ele>
        <time>2021-06-23T12:39:05Z</time>
      </trkpt>
      <trkpt lat="47.76443" lon="6.6356">
        <ele>421.32</ele>
        <time>2021-06-23T12:39:07Z</time>
      </trkpt>
      <trkpt lat="47.76446" lon="6.63544">
        <ele>420.58</ele>
        <time>2021-06-23T12:39:10Z</time>
      </trkpt>
      <trkpt lat="47.76442" lon="6.63526">
        <ele>420</ele>
        <time>2021-06-23T12:39:13Z</time>
      </trkpt>
      <trkpt lat="47.76435" lon="6.63517">
        <ele>419.57</ele>
        <time>2021-06-23T12:39:16Z</time>
      </trkpt>
      <trkpt lat="47.76413" lon="6.63506">
        <ele>419.51</ele>
        <time>2021-06-23T12:39:19Z</time>
      </trkpt>
      <trkpt lat="47.76396" lon="6.63486">
        <ele>419.01</ele>
        <time>2021-06-23T12:39:21Z</time>
      </trkpt>
      <trkpt lat="47.7633" lon="6.63367">
        <ele>411.75</ele>
        <time>2021-06-23T12:39:24Z</time>
      </trkpt>
      <trkpt lat="47.76303" lon="6.63303">
        <ele>408.94</ele>
        <time>2021-06-23T12:39:27Z</time>
      </trkpt>
      <trkpt lat="47.76272" lon="6.63249">
        <ele>409.14</ele>
        <time>2021-06-23T12:39:30Z</time>
      </trkpt>
      <trkpt lat="47.76267" lon="6.63232">
        <ele>410.77</ele>
        <time>2021-06-23T12:39:32Z</time>
      </trkpt>
      <trkpt lat="47.76267" lon="6.632">
        <ele>412.98</ele>
        <time>2021-06-23T12:39:35Z</time>
      </trkpt>
      <trkpt lat="47.76298" lon="6.63126">
        <ele>408.75</ele>
        <time>2021-06-23T12:39:38Z</time>
      </trkpt>
      <trkpt lat="47.76306" lon="6.63109">
        <ele>406.98</ele>
        <time>2021-06-23T12:39:41Z</time>
      </trkpt>
      <trkpt lat="47.76329" lon="6.6307">
        <ele>406.7</ele>
        <time>2021-06-23T12:39:44Z</time>
      </trkpt>
      <trkpt lat="47.7636" lon="6.63042">
        <ele>407.54</ele>
        <time>2021-06-23T12:39:46Z</time>
      </trkpt>
      <trkpt lat="47.76381" lon="6.63017">
        <ele>404.88</ele>
        <time>2021-06-23T12:39:49Z</time>
      </trkpt>
      <trkpt lat="47.76397" lon="6.62987">
        <ele>401.49</ele>
        <time>2021-06-23T12:39:52Z</time>
      </trkpt>
      <trkpt lat="47.76403" lon="6.62968">
        <ele>400.19</ele>
        <time>2021-06-23T12:39:55Z</time>
      </trkpt>
      <trkpt lat="47.76411" lon="6.6291">
        <ele>399.01</ele>
        <time>2021-06-23T12:39:58Z</time>
      </trkpt>
      <trkpt lat="47.76415" lon="6.62861">
        <ele>398.37</ele>
        <time>2021-06-23T12:40:00Z</time>
      </trkpt>
      <trkpt lat="47.76415" lon="6.6284">
        <ele>396.13</ele>
        <time>2021-06-23T12:40:03Z</time>
      </trkpt>
      <trkpt lat="47.76413" lon="6.6282">
        <ele>394.11</ele>
        <time>2021-06-23T12:40:06Z</time>
      </trkpt>
      <trkpt lat="47.76408" lon="6.62804">
        <ele>393.43</ele>
        <time>2021-06-23T12:40:09Z</time>
      </trkpt>
      <trkpt lat="47.76391" lon="6.62767">
        <ele>393.02</ele>
        <time>2021-06-23T12:40:12Z</time>
      </trkpt>
      <trkpt lat="47.76383" lon="6.62744">
        <ele>392.16</ele>
        <time>2021-06-23T12:40:14Z</time>
      </trkpt>
      <trkpt lat="47.7638" lon="6.62691">
        <ele>390.48</ele>
        <time>2021-06-23T12:40:17Z</time>
      </trkpt>
      <trkpt lat="47.76386" lon="6.62628">
        <ele>388.3</ele>
        <time>2021-06-23T12:40:20Z</time>
      </trkpt>
      <trkpt lat="47.76395" lon="6.62595">
        <ele>385.43</ele>
        <time>2021-06-23T12:40:23Z</time>
      </trkpt>
      <trkpt lat="47.76411" lon="6.62545">
        <ele>379.51</ele>
        <time>2021-06-23T12:40:25Z</time>
      </trkpt>
      <trkpt lat="47.76413" lon="6.62523">
        <ele>377.9</ele>
        <time>2021-06-23T12:40:28Z</time>
      </trkpt>
      <trkpt lat="47.76412" lon="6.62501">
        <ele>376.96</ele>
        <time>2021-06-23T12:40:31Z</time>
      </trkpt>
      <trkpt lat="47.76399" lon="6.62435">
        <ele>381.27</ele>
        <time>2021-06-23T12:40:34Z</time>
      </trkpt>
      <trkpt lat="47.76395" lon="6.62379">
        <ele>379.74</ele>
        <time>2021-06-23T12:40:37Z</time>
      </trkpt>
      <trkpt lat="47.76399" lon="6.62318">
        <ele>375.97</ele>
        <time>2021-06-23T12:40:39Z</time>
      </trkpt>
      <trkpt lat="47.76412" lon="6.62225">
        <ele>373.73</ele>
        <time>2021-06-23T12:40:42Z</time>
      </trkpt>
      <trkpt lat="47.76418" lon="6.62155">
        <ele>369.55</ele>
        <time>2021-06-23T12:40:45Z</time>
      </trkpt>
      <trkpt lat="47.76415" lon="6.62084">
        <ele>369.43</ele>
        <time>2021-06-23T12:40:48Z</time>
      </trkpt>
      <trkpt lat="47.76402" lon="6.61957">
        <ele>367.08</ele>
        <time>2021-06-23T12:40:51Z</time>
      </trkpt>
      <trkpt lat="47.76397" lon="6.61858">
        <ele>361.32</ele>
        <time>2021-06-23T12:40:53Z</time>
      </trkpt>
      <trkpt lat="47.76394" lon="6.61826">
        <ele>361.45</ele>
        <time>2021-06-23T12:40:56Z</time>
      </trkpt>
      <trkpt lat="47.76387" lon="6.61797">
        <ele>359.54</ele>
        <time>2021-06-23T12:40:59Z</time>
      </trkpt>
      <trkpt lat="47.76378" lon="6.61776">
        <ele>358.22</ele>
        <time>2021-06-23T12:41:02Z</time>
      </trkpt>
      <trkpt lat="47.76324" lon="6.61684">
        <ele>345.33</ele>
        <time>2021-06-23T12:41:05Z</time>
      </trkpt>
      <trkpt lat="47.76318" lon="6.61667">
        <ele>343.5</ele>
        <time>2021-06-23T12:41:07Z</time>
      </trkpt>
      <trkpt lat="47.76313" lon="6.61644">
        <ele>343.05</ele>
        <time>2021-06-23T12:41:10Z</time>
      </trkpt>
      <trkpt lat="47.76299" lon="6.61576">
        <ele>345.24</ele>
        <time>2021-06-23T12:41:13Z</time>
      </trkpt>
      <trkpt lat="47.76298" lon="6.61547">
        <ele>346.79</ele>
        <time>2021-06-23T12:41:16Z</time>
      </trkpt>
      <trkpt lat="47.76313" lon="6.61296">
        <ele>339.64</ele>
        <time>2021-06-23T12:41:19Z</time>
      </trkpt>
      <trkpt lat="47.76332" lon="6.61235">
        <ele>341.76</ele>
        <time>2021-06-23T12:41:21Z</time>
      </trkpt>
      <trkpt lat="47.76376" lon="6.61138">
        <ele>334.01</ele>
        <time>2021-06-23T12:41:24Z</time>
      </trkpt>
      <trkpt lat="47.76383" lon="6.61115">
        <ele>334.28</ele>
        <time>2021-06-23T12:41:27Z</time>
      </trkpt>
      <trkpt lat="47.76387" lon="6.61093">
        <ele>334.73</ele>
        <time>2021-06-23T12:41:30Z</time>
      </trkpt>
      <trkpt lat="47.76388" lon="6.61059">
        <ele>335.9</ele>
        <time>2021-06-23T12:41:32Z</time>
      </trkpt>
      <trkpt lat="47.76385" lon="6.61012">
        <ele>336.87</ele>
        <time>2021-06-23T12:41:35Z</time>
      </trkpt>
      <trkpt lat="47.76382" lon="6.60986">
        <ele>336.88</ele>
        <time>2021-06-23T12:41:38Z</time>
      </trkpt>
      <trkpt lat="47.76377" lon="6.60966">
        <ele>337</ele>
        <time>2021-06-23T12:41:41Z</time>
      </trkpt>
      <trkpt lat="47.76363" lon="6.60939">
        <ele>336.99</ele>
        <time>2021-06-23T12:41:44Z</time>
      </trkpt>
      <trkpt lat="47.76352" lon="6.60926">
        <ele>337.46</ele>
        <time>2021-06-23T12:41:46Z</time>
      </trkpt>
      <trkpt lat="47.76322" lon="6.60899">
        <ele>337.35</ele>
        <time>2021-06-23T12:41:49Z</time>
      </trkpt>
      <trkpt lat="47.76312" lon="6.60882">
        <ele>337</ele>
        <time>2021-06-23T12:41:52Z</time>
      </trkpt>
      <trkpt lat="47.76308" lon="6.60872">
        <ele>337</ele>
        <time>2021-06-23T12:41:55Z</time>
      </trkpt>
      <trkpt lat="47.76292" lon="6.60822">
        <ele>346.75</ele>
        <time>2021-06-23T12:41:58Z</time>
      </trkpt>
      <trkpt lat="47.76318" lon="6.60803">
        <ele>346.57</ele>
        <time>2021-06-23T12:41:59Z</time>
      </trkpt>
      <trkpt lat="47.76364" lon="6.6076">
        <ele>345.67</ele>
        <time>2021-06-23T12:42:01Z</time>
      </trkpt>
      <trkpt lat="47.76375" lon="6.60753">
        <ele>344.42</ele>
        <time>2021-06-23T12:42:03Z</time>
      </trkpt>
      <trkpt lat="47.76393" lon="6.60749">
        <ele>340.87</ele>
        <time>2021-06-23T12:42:05Z</time>
      </trkpt>
      <trkpt lat="47.76447" lon="6.6075">
        <ele>339.09</ele>
        <time>2021-06-23T12:42:07Z</time>
      </trkpt>
      <trkpt lat="47.76463" lon="6.60747">
        <ele>339.75</ele>
        <time>2021-06-23T12:42:08Z</time>
      </trkpt>
      <trkpt lat="47.76506" lon="6.6073">
        <ele>339.46</ele>
        <time>2021-06-23T12:42:10Z</time>
      </trkpt>
      <trkpt lat="47.76518" lon="6.60727">
        <ele>339.61</ele>
        <time>2021-06-23T12:42:12Z</time>
      </trkpt>
      <trkpt lat="47.76518" lon="6.60727">
        <ele>339.61</ele>
        <time>2021-06-23T12:42:12Z</time>
      </trkpt>
      <trkpt lat="47.76525" lon="6.60726">
        <ele>339.76</ele>
        <time>2021-06-23T12:42:15Z</time>
      </trkpt>
      <trkpt lat="47.7654" lon="6.60731">
        <ele>339.94</ele>
        <time>2021-06-23T12:42:19Z</time>
      </trkpt>
      <trkpt lat="47.76552" lon="6.60742">
        <ele>340.06</ele>
        <time>2021-06-23T12:42:23Z</time>
      </trkpt>
      <trkpt lat="47.76586" lon="6.60784">
        <ele>342.08</ele>
        <time>2021-06-23T12:42:26Z</time>
      </trkpt>
      <trkpt lat="47.7669" lon="6.60883">
        <ele>338.88</ele>
        <time>2021-06-23T12:42:30Z</time>
      </trkpt>
      <trkpt lat="47.76824" lon="6.60997">
        <ele>342</ele>
        <time>2021-06-23T12:42:33Z</time>
      </trkpt>
      <trkpt lat="47.76852" lon="6.61034">
        <ele>340.27</ele>
        <time>2021-06-23T12:42:37Z</time>
      </trkpt>
      <trkpt lat="47.76901" lon="6.61108">
        <ele>341.43</ele>
        <time>2021-06-23T12:42:41Z</time>
      </trkpt>
      <trkpt lat="47.76938" lon="6.61174">
        <ele>340</ele>
        <time>2021-06-23T12:42:44Z</time>
      </trkpt>
      <trkpt lat="47.7704" lon="6.61405">
        <ele>341.82</ele>
        <time>2021-06-23T12:42:48Z</time>
      </trkpt>
      <trkpt lat="47.77149" lon="6.61593">
        <ele>342.28</ele>
        <time>2021-06-23T12:42:51Z</time>
      </trkpt>
      <trkpt lat="47.77364" lon="6.61948">
        <ele>345.86</ele>
        <time>2021-06-23T12:42:55Z</time>
      </trkpt>
      <trkpt lat="47.77396" lon="6.61989">
        <ele>346.56</ele>
        <time>2021-06-23T12:42:58Z</time>
      </trkpt>
      <trkpt lat="47.77504" lon="6.62102">
        <ele>346.94</ele>
        <time>2021-06-23T12:43:02Z</time>
      </trkpt>
      <trkpt lat="47.77576" lon="6.62182">
        <ele>352.88</ele>
        <time>2021-06-23T12:43:06Z</time>
      </trkpt>
      <trkpt lat="47.7778" lon="6.62391">
        <ele>352.95</ele>
        <time>2021-06-23T12:43:09Z</time>
      </trkpt>
      <trkpt lat="47.77798" lon="6.62407">
        <ele>353.33</ele>
        <time>2021-06-23T12:43:13Z</time>
      </trkpt>
      <trkpt lat="47.7782" lon="6.62417">
        <ele>355.05</ele>
        <time>2021-06-23T12:43:16Z</time>
      </trkpt>
      <trkpt lat="47.77856" lon="6.62426">
        <ele>358.83</ele>
        <time>2021-06-23T12:43:20Z</time>
      </trkpt>
      <trkpt lat="47.77892" lon="6.62432">
        <ele>357.59</ele>
        <time>2021-06-23T12:43:24Z</time>
      </trkpt>
      <trkpt lat="47.78002" lon="6.62434">
        <ele>349.68</ele>
        <time>2021-06-23T12:43:27Z</time>
      </trkpt>
      <trkpt lat="47.78039" lon="6.62442">
        <ele>348.08</ele>
        <time>2021-06-23T12:43:31Z</time>
      </trkpt>
      <trkpt lat="47.78063" lon="6.62453">
        <ele>348.24</ele>
        <time>2021-06-23T12:43:34Z</time>
      </trkpt>
      <trkpt lat="47.7828" lon="6.62606">
        <ele>350.34</ele>
        <time>2021-06-23T12:43:38Z</time>
      </trkpt>
      <trkpt lat="47.78307" lon="6.62637">
        <ele>353.2</ele>
        <time>2021-06-23T12:43:41Z</time>
      </trkpt>
      <trkpt lat="47.78322" lon="6.62667">
        <ele>353.16</ele>
        <time>2021-06-23T12:43:45Z</time>
      </trkpt>
      <trkpt lat="47.78346" lon="6.62748">
        <ele>353.48</ele>
        <time>2021-06-23T12:43:49Z</time>
      </trkpt>
      <trkpt lat="47.78365" lon="6.62788">
        <ele>352.39</ele>
        <time>2021-06-23T12:43:52Z</time>
      </trkpt>
      <trkpt lat="47.78386" lon="6.62814">
        <ele>351.86</ele>
        <time>2021-06-23T12:43:56Z</time>
      </trkpt>
      <trkpt lat="47.78433" lon="6.62857">
        <ele>351.41</ele>
        <time>2021-06-23T12:43:59Z</time>
      </trkpt>
      <trkpt lat="47.7845" lon="6.62888">
        <ele>351.77</ele>
        <time>2021-06-23T12:44:03Z</time>
      </trkpt>
      <trkpt lat="47.78497" lon="6.63128">
        <ele>352.4</ele>
        <time>2021-06-23T12:44:07Z</time>
      </trkpt>
      <trkpt lat="47.7851" lon="6.63163">
        <ele>352.04</ele>
        <time>2021-06-23T12:44:10Z</time>
      </trkpt>
      <trkpt lat="47.78555" lon="6.63259">
        <ele>352.67</ele>
        <time>2021-06-23T12:44:14Z</time>
      </trkpt>
      <trkpt lat="47.78565" lon="6.63273">
        <ele>353.06</ele>
        <time>2021-06-23T12:44:17Z</time>
      </trkpt>
      <trkpt lat="47.78579" lon="6.63287">
        <ele>352.6</ele>
        <time>2021-06-23T12:44:21Z</time>
      </trkpt>
      <trkpt lat="47.78593" lon="6.63298">
        <ele>352.48</ele>
        <time>2021-06-23T12:44:25Z</time>
      </trkpt>
      <trkpt lat="47.78668" lon="6.63342">
        <ele>351.81</ele>
        <time>2021-06-23T12:44:28Z</time>
      </trkpt>
      <trkpt lat="47.78682" lon="6.63354">
        <ele>352.34</ele>
        <time>2021-06-23T12:44:32Z</time>
      </trkpt>
      <trkpt lat="47.78694" lon="6.63369">
        <ele>352.65</ele>
        <time>2021-06-23T12:44:35Z</time>
      </trkpt>
      <trkpt lat="47.78701" lon="6.63387">
        <ele>352.29</ele>
        <time>2021-06-23T12:44:39Z</time>
      </trkpt>
      <trkpt lat="47.78718" lon="6.63467">
        <ele>353</ele>
        <time>2021-06-23T12:44:42Z</time>
      </trkpt>
      <trkpt lat="47.78744" lon="6.63605">
        <ele>354.4</ele>
        <time>2021-06-23T12:44:46Z</time>
      </trkpt>
      <trkpt lat="47.78754" lon="6.63633">
        <ele>355.1</ele>
        <time>2021-06-23T12:44:50Z</time>
      </trkpt>
      <trkpt lat="47.78786" lon="6.63682">
        <ele>355.41</ele>
        <time>2021-06-23T12:44:53Z</time>
      </trkpt>
      <trkpt lat="47.7889" lon="6.63806">
        <ele>357.01</ele>
        <time>2021-06-23T12:44:57Z</time>
      </trkpt>
      <trkpt lat="47.78926" lon="6.63855">
        <ele>358.32</ele>
        <time>2021-06-23T12:45:00Z</time>
      </trkpt>
      <trkpt lat="47.78976" lon="6.63935">
        <ele>360.56</ele>
        <time>2021-06-23T12:45:04Z</time>
      </trkpt>
      <trkpt lat="47.78988" lon="6.63963">
        <ele>360.82</ele>
        <time>2021-06-23T12:45:08Z</time>
      </trkpt>
      <trkpt lat="47.79005" lon="6.64012">
        <ele>362.45</ele>
        <time>2021-06-23T12:45:11Z</time>
      </trkpt>
      <trkpt lat="47.79025" lon="6.64091">
        <ele>365.45</ele>
        <time>2021-06-23T12:45:15Z</time>
      </trkpt>
      <trkpt lat="47.79122" lon="6.64295">
        <ele>368.38</ele>
        <time>2021-06-23T12:45:18Z</time>
      </trkpt>
      <trkpt lat="47.79151" lon="6.64347">
        <ele>368.96</ele>
        <time>2021-06-23T12:45:22Z</time>
      </trkpt>
      <trkpt lat="47.7921" lon="6.64444">
        <ele>371</ele>
        <time>2021-06-23T12:45:25Z</time>
      </trkpt>
      <trkpt lat="47.79241" lon="6.64479">
        <ele>369.51</ele>
        <time>2021-06-23T12:45:29Z</time>
      </trkpt>
      <trkpt lat="47.79303" lon="6.64544">
        <ele>367.43</ele>
        <time>2021-06-23T12:45:33Z</time>
      </trkpt>
      <trkpt lat="47.79349" lon="6.64585">
        <ele>368</ele>
        <time>2021-06-23T12:45:36Z</time>
      </trkpt>
      <trkpt lat="47.79395" lon="6.64623">
        <ele>367.43</ele>
        <time>2021-06-23T12:45:40Z</time>
      </trkpt>
      <trkpt lat="47.79462" lon="6.64672">
        <ele>365.79</ele>
        <time>2021-06-23T12:45:43Z</time>
      </trkpt>
      <trkpt lat="47.7957" lon="6.64736">
        <ele>360.49</ele>
        <time>2021-06-23T12:45:47Z</time>
      </trkpt>
      <trkpt lat="47.7959" lon="6.64754">
        <ele>361.54</ele>
        <time>2021-06-23T12:45:51Z</time>
      </trkpt>
      <trkpt lat="47.79603" lon="6.64771">
        <ele>362.1</ele>
        <time>2021-06-23T12:45:54Z</time>
      </trkpt>
      <trkpt lat="47.79629" lon="6.64813">
        <ele>360.79</ele>
        <time>2021-06-23T12:45:58Z</time>
      </trkpt>
      <trkpt lat="47.79645" lon="6.64844">
        <ele>360.6</ele>
        <time>2021-06-23T12:46:01Z</time>
      </trkpt>
      <trkpt lat="47.79657" lon="6.64879">
        <ele>362.11</ele>
        <time>2021-06-23T12:46:05Z</time>
      </trkpt>
      <trkpt lat="47.79664" lon="6.6491">
        <ele>362.83</ele>
        <time>2021-06-23T12:46:09Z</time>
      </trkpt>
      <trkpt lat="47.7967" lon="6.64964">
        <ele>366.96</ele>
        <time>2021-06-23T12:46:12Z</time>
      </trkpt>
      <trkpt lat="47.79644" lon="6.65185">
        <ele>380.74</ele>
        <time>2021-06-23T12:46:16Z</time>
      </trkpt>
      <trkpt lat="47.79647" lon="6.6521">
        <ele>381.14</ele>
        <time>2021-06-23T12:46:19Z</time>
      </trkpt>
      <trkpt lat="47.79661" lon="6.65258">
        <ele>378.48</ele>
        <time>2021-06-23T12:46:23Z</time>
      </trkpt>
      <trkpt lat="47.79686" lon="6.65322">
        <ele>380.26</ele>
        <time>2021-06-23T12:46:26Z</time>
      </trkpt>
      <trkpt lat="47.79693" lon="6.65347">
        <ele>381.53</ele>
        <time>2021-06-23T12:46:30Z</time>
      </trkpt>
      <trkpt lat="47.79698" lon="6.65379">
        <ele>383.46</ele>
        <time>2021-06-23T12:46:34Z</time>
      </trkpt>
      <trkpt lat="47.7971" lon="6.65529">
        <ele>393.85</ele>
        <time>2021-06-23T12:46:37Z</time>
      </trkpt>
      <trkpt lat="47.79716" lon="6.65563">
        <ele>395.63</ele>
        <time>2021-06-23T12:46:41Z</time>
      </trkpt>
      <trkpt lat="47.79728" lon="6.65611">
        <ele>394.58</ele>
        <time>2021-06-23T12:46:44Z</time>
      </trkpt>
      <trkpt lat="47.79738" lon="6.65634">
        <ele>393.26</ele>
        <time>2021-06-23T12:46:48Z</time>
      </trkpt>
      <trkpt lat="47.79755" lon="6.65667">
        <ele>390.17</ele>
        <time>2021-06-23T12:46:52Z</time>
      </trkpt>
      <trkpt lat="47.79777" lon="6.65696">
        <ele>389.01</ele>
        <time>2021-06-23T12:46:55Z</time>
      </trkpt>
      <trkpt lat="47.79809" lon="6.6572">
        <ele>390.82</ele>
        <time>2021-06-23T12:46:59Z</time>
      </trkpt>
      <trkpt lat="47.7984" lon="6.6574">
        <ele>388.86</ele>
        <time>2021-06-23T12:47:02Z</time>
      </trkpt>
      <trkpt lat="47.79859" lon="6.65755">
        <ele>386.73</ele>
        <time>2021-06-23T12:47:06Z</time>
      </trkpt>
      <trkpt lat="47.79878" lon="6.65775">
        <ele>385.16</ele>
        <time>2021-06-23T12:47:09Z</time>
      </trkpt>
      <trkpt lat="47.79894" lon="6.65799">
        <ele>384.34</ele>
        <time>2021-06-23T12:47:13Z</time>
      </trkpt>
      <trkpt lat="47.79907" lon="6.65825">
        <ele>384.64</ele>
        <time>2021-06-23T12:47:17Z</time>
      </trkpt>
      <trkpt lat="47.79916" lon="6.65856">
        <ele>384.18</ele>
        <time>2021-06-23T12:47:20Z</time>
      </trkpt>
      <trkpt lat="47.7992" lon="6.65875">
        <ele>383.71</ele>
        <time>2021-06-23T12:47:24Z</time>
      </trkpt>
      <trkpt lat="47.79925" lon="6.65923">
        <ele>383.63</ele>
        <time>2021-06-23T12:47:27Z</time>
      </trkpt>
      <trkpt lat="47.79923" lon="6.65961">
        <ele>384.11</ele>
        <time>2021-06-23T12:47:31Z</time>
      </trkpt>
      <trkpt lat="47.79913" lon="6.66037">
        <ele>384.64</ele>
        <time>2021-06-23T12:47:35Z</time>
      </trkpt>
      <trkpt lat="47.79909" lon="6.66103">
        <ele>387.91</ele>
        <time>2021-06-23T12:47:38Z</time>
      </trkpt>
      <trkpt lat="47.79909" lon="6.66129">
        <ele>388.47</ele>
        <time>2021-06-23T12:47:42Z</time>
      </trkpt>
      <trkpt lat="47.79923" lon="6.66239">
        <ele>387.1</ele>
        <time>2021-06-23T12:47:45Z</time>
      </trkpt>
      <trkpt lat="47.79929" lon="6.66265">
        <ele>387.6</ele>
        <time>2021-06-23T12:47:49Z</time>
      </trkpt>
      <trkpt lat="47.79973" lon="6.66408">
        <ele>396.03</ele>
        <time>2021-06-23T12:47:53Z</time>
      </trkpt>
      <trkpt lat="47.79982" lon="6.66447">
        <ele>398.3</ele>
        <time>2021-06-23T12:47:56Z</time>
      </trkpt>
      <trkpt lat="47.8" lon="6.66534">
        <ele>396.67</ele>
        <time>2021-06-23T12:48:00Z</time>
      </trkpt>
      <trkpt lat="47.80016" lon="6.66584">
        <ele>399.06</ele>
        <time>2021-06-23T12:48:03Z</time>
      </trkpt>
      <trkpt lat="47.80029" lon="6.66614">
        <ele>397.25</ele>
        <time>2021-06-23T12:48:07Z</time>
      </trkpt>
      <trkpt lat="47.80039" lon="6.66632">
        <ele>398.48</ele>
        <time>2021-06-23T12:48:10Z</time>
      </trkpt>
      <trkpt lat="47.80062" lon="6.6666">
        <ele>398.93</ele>
        <time>2021-06-23T12:48:14Z</time>
      </trkpt>
      <trkpt lat="47.80097" lon="6.66693">
        <ele>395.2</ele>
        <time>2021-06-23T12:48:18Z</time>
      </trkpt>
      <trkpt lat="47.80123" lon="6.66724">
        <ele>393.53</ele>
        <time>2021-06-23T12:48:21Z</time>
      </trkpt>
      <trkpt lat="47.80138" lon="6.66748">
        <ele>393</ele>
        <time>2021-06-23T12:48:25Z</time>
      </trkpt>
      <trkpt lat="47.80209" lon="6.66897">
        <ele>396.04</ele>
        <time>2021-06-23T12:48:28Z</time>
      </trkpt>
      <trkpt lat="47.8023" lon="6.66958">
        <ele>395.96</ele>
        <time>2021-06-23T12:48:32Z</time>
      </trkpt>
      <trkpt lat="47.80272" lon="6.6711">
        <ele>391.36</ele>
        <time>2021-06-23T12:48:36Z</time>
      </trkpt>
      <trkpt lat="47.80299" lon="6.67184">
        <ele>391.74</ele>
        <time>2021-06-23T12:48:39Z</time>
      </trkpt>
      <trkpt lat="47.80368" lon="6.67358">
        <ele>393.76</ele>
        <time>2021-06-23T12:48:43Z</time>
      </trkpt>
      <trkpt lat="47.8038" lon="6.67385">
        <ele>395.93</ele>
        <time>2021-06-23T12:48:46Z</time>
      </trkpt>
      <trkpt lat="47.80392" lon="6.67406">
        <ele>398.14</ele>
        <time>2021-06-23T12:48:50Z</time>
      </trkpt>
      <trkpt lat="47.80408" lon="6.67427">
        <ele>399.52</ele>
        <time>2021-06-23T12:48:53Z</time>
      </trkpt>
      <trkpt lat="47.80451" lon="6.67468">
        <ele>402.8</ele>
        <time>2021-06-23T12:48:57Z</time>
      </trkpt>
      <trkpt lat="47.80459" lon="6.67481">
        <ele>401.88</ele>
        <time>2021-06-23T12:49:01Z</time>
      </trkpt>
      <trkpt lat="47.80528" lon="6.67662">
        <ele>404.56</ele>
        <time>2021-06-23T12:49:04Z</time>
      </trkpt>
      <trkpt lat="47.80541" lon="6.67686">
        <ele>402.41</ele>
        <time>2021-06-23T12:49:08Z</time>
      </trkpt>
      <trkpt lat="47.8061" lon="6.67768">
        <ele>396.41</ele>
        <time>2021-06-23T12:49:11Z</time>
      </trkpt>
      <trkpt lat="47.80628" lon="6.67798">
        <ele>397</ele>
        <time>2021-06-23T12:49:15Z</time>
      </trkpt>
      <trkpt lat="47.807" lon="6.67952">
        <ele>403.45</ele>
        <time>2021-06-23T12:49:19Z</time>
      </trkpt>
      <trkpt lat="47.80718" lon="6.67982">
        <ele>401.99</ele>
        <time>2021-06-23T12:49:22Z</time>
      </trkpt>
      <trkpt lat="47.80738" lon="6.68004">
        <ele>401.34</ele>
        <time>2021-06-23T12:49:26Z</time>
      </trkpt>
      <trkpt lat="47.8076" lon="6.68016">
        <ele>402.16</ele>
        <time>2021-06-23T12:49:29Z</time>
      </trkpt>
      <trkpt lat="47.80794" lon="6.6802">
        <ele>405.33</ele>
        <time>2021-06-23T12:49:33Z</time>
      </trkpt>
      <trkpt lat="47.80834" lon="6.68011">
        <ele>409.03</ele>
        <time>2021-06-23T12:49:36Z</time>
      </trkpt>
      <trkpt lat="47.80858" lon="6.68008">
        <ele>411</ele>
        <time>2021-06-23T12:49:40Z</time>
      </trkpt>
      <trkpt lat="47.80877" lon="6.68015">
        <ele>412.35</ele>
        <time>2021-06-23T12:49:44Z</time>
      </trkpt>
      <trkpt lat="47.8089" lon="6.68026">
        <ele>412.95</ele>
        <time>2021-06-23T12:49:47Z</time>
      </trkpt>
      <trkpt lat="47.80928" lon="6.68072">
        <ele>410.92</ele>
        <time>2021-06-23T12:49:51Z</time>
      </trkpt>
      <trkpt lat="47.8095" lon="6.68099">
        <ele>409.54</ele>
        <time>2021-06-23T12:49:54Z</time>
      </trkpt>
      <trkpt lat="47.80965" lon="6.68112">
        <ele>410.36</ele>
        <time>2021-06-23T12:49:58Z</time>
      </trkpt>
      <trkpt lat="47.80988" lon="6.68126">
        <ele>409.02</ele>
        <time>2021-06-23T12:50:02Z</time>
      </trkpt>
      <trkpt lat="47.81005" lon="6.68128">
        <ele>407.2</ele>
        <time>2021-06-23T12:50:05Z</time>
      </trkpt>
      <trkpt lat="47.8102" lon="6.68127">
        <ele>406.05</ele>
        <time>2021-06-23T12:50:09Z</time>
      </trkpt>
      <trkpt lat="47.81033" lon="6.68123">
        <ele>405.47</ele>
        <time>2021-06-23T12:50:12Z</time>
      </trkpt>
      <trkpt lat="47.81058" lon="6.68111">
        <ele>405</ele>
        <time>2021-06-23T12:50:16Z</time>
      </trkpt>
      <trkpt lat="47.81087" lon="6.68091">
        <ele>404.46</ele>
        <time>2021-06-23T12:50:20Z</time>
      </trkpt>
      <trkpt lat="47.81121" lon="6.68082">
        <ele>405.28</ele>
        <time>2021-06-23T12:50:23Z</time>
      </trkpt>
      <trkpt lat="47.81235" lon="6.68083">
        <ele>404.9</ele>
        <time>2021-06-23T12:50:27Z</time>
      </trkpt>
      <trkpt lat="47.81248" lon="6.68085">
        <ele>405.8</ele>
        <time>2021-06-23T12:50:30Z</time>
      </trkpt>
      <trkpt lat="47.81268" lon="6.68092">
        <ele>406.33</ele>
        <time>2021-06-23T12:50:34Z</time>
      </trkpt>
      <trkpt lat="47.81281" lon="6.68099">
        <ele>406.49</ele>
        <time>2021-06-23T12:50:37Z</time>
      </trkpt>
      <trkpt lat="47.81413" lon="6.6821">
        <ele>411.42</ele>
        <time>2021-06-23T12:50:41Z</time>
      </trkpt>
      <trkpt lat="47.81482" lon="6.68257">
        <ele>414.58</ele>
        <time>2021-06-23T12:50:45Z</time>
      </trkpt>
      <trkpt lat="47.81576" lon="6.6829">
        <ele>415.34</ele>
        <time>2021-06-23T12:50:48Z</time>
      </trkpt>
      <trkpt lat="47.81597" lon="6.68306">
        <ele>417.46</ele>
        <time>2021-06-23T12:50:52Z</time>
      </trkpt>
      <trkpt lat="47.81612" lon="6.68322">
        <ele>417.07</ele>
        <time>2021-06-23T12:50:55Z</time>
      </trkpt>
      <trkpt lat="47.81646" lon="6.68375">
        <ele>412.02</ele>
        <time>2021-06-23T12:50:59Z</time>
      </trkpt>
      <trkpt lat="47.81665" lon="6.68392">
        <ele>411</ele>
        <time>2021-06-23T12:51:03Z</time>
      </trkpt>
      <trkpt lat="47.81684" lon="6.68405">
        <ele>411.5</ele>
        <time>2021-06-23T12:51:06Z</time>
      </trkpt>
      <trkpt lat="47.81787" lon="6.68461">
        <ele>413.86</ele>
        <time>2021-06-23T12:51:10Z</time>
      </trkpt>
      <trkpt lat="47.81803" lon="6.68471">
        <ele>413.95</ele>
        <time>2021-06-23T12:51:13Z</time>
      </trkpt>
      <trkpt lat="47.8186" lon="6.68542">
        <ele>412.42</ele>
        <time>2021-06-23T12:51:17Z</time>
      </trkpt>
      <trkpt lat="47.82005" lon="6.68755">
        <ele>413.77</ele>
        <time>2021-06-23T12:51:20Z</time>
      </trkpt>
      <trkpt lat="47.82025" lon="6.6879">
        <ele>415.56</ele>
        <time>2021-06-23T12:51:24Z</time>
      </trkpt>
      <trkpt lat="47.82037" lon="6.68822">
        <ele>416.97</ele>
        <time>2021-06-23T12:51:28Z</time>
      </trkpt>
      <trkpt lat="47.82052" lon="6.68878">
        <ele>416.63</ele>
        <time>2021-06-23T12:51:31Z</time>
      </trkpt>
      <trkpt lat="47.82106" lon="6.69115">
        <ele>411.71</ele>
        <time>2021-06-23T12:51:35Z</time>
      </trkpt>
      <trkpt lat="47.82205" lon="6.69537">
        <ele>414.76</ele>
        <time>2021-06-23T12:51:38Z</time>
      </trkpt>
      <trkpt lat="47.82218" lon="6.69578">
        <ele>415.8</ele>
        <time>2021-06-23T12:51:42Z</time>
      </trkpt>
      <trkpt lat="47.82234" lon="6.69611">
        <ele>416.59</ele>
        <time>2021-06-23T12:51:46Z</time>
      </trkpt>
      <trkpt lat="47.8231" lon="6.69747">
        <ele>417.33</ele>
        <time>2021-06-23T12:51:49Z</time>
      </trkpt>
      <trkpt lat="47.82368" lon="6.6985">
        <ele>420.35</ele>
        <time>2021-06-23T12:51:53Z</time>
      </trkpt>
      <trkpt lat="47.82443" lon="6.69983">
        <ele>419.18</ele>
        <time>2021-06-23T12:51:56Z</time>
      </trkpt>
      <trkpt lat="47.82459" lon="6.70008">
        <ele>419.14</ele>
        <time>2021-06-23T12:52:00Z</time>
      </trkpt>
      <trkpt lat="47.82476" lon="6.70031">
        <ele>419.7</ele>
        <time>2021-06-23T12:52:04Z</time>
      </trkpt>
      <trkpt lat="47.8254" lon="6.70105">
        <ele>426.7</ele>
        <time>2021-06-23T12:52:07Z</time>
      </trkpt>
      <trkpt lat="47.82574" lon="6.7016">
        <ele>429.3</ele>
        <time>2021-06-23T12:52:11Z</time>
      </trkpt>
      <trkpt lat="47.82595" lon="6.7021">
        <ele>427.25</ele>
        <time>2021-06-23T12:52:14Z</time>
      </trkpt>
      <trkpt lat="47.82636" lon="6.70318">
        <ele>423.09</ele>
        <time>2021-06-23T12:52:18Z</time>
      </trkpt>
      <trkpt lat="47.82652" lon="6.70349">
        <ele>426.36</ele>
        <time>2021-06-23T12:52:21Z</time>
      </trkpt>
      <trkpt lat="47.82668" lon="6.70373">
        <ele>428.91</ele>
        <time>2021-06-23T12:52:25Z</time>
      </trkpt>
      <trkpt lat="47.82688" lon="6.70396">
        <ele>429.67</ele>
        <time>2021-06-23T12:52:29Z</time>
      </trkpt>
      <trkpt lat="47.82773" lon="6.70465">
        <ele>428.52</ele>
        <time>2021-06-23T12:52:32Z</time>
      </trkpt>
      <trkpt lat="47.82857" lon="6.70541">
        <ele>432.6</ele>
        <time>2021-06-23T12:52:36Z</time>
      </trkpt>
      <trkpt lat="47.82951" lon="6.70652">
        <ele>431.58</ele>
        <time>2021-06-23T12:52:39Z</time>
      </trkpt>
      <trkpt lat="47.83014" lon="6.70694">
        <ele>431.02</ele>
        <time>2021-06-23T12:52:43Z</time>
      </trkpt>
      <trkpt lat="47.83041" lon="6.70732">
        <ele>434.46</ele>
        <time>2021-06-23T12:52:47Z</time>
      </trkpt>
      <trkpt lat="47.8306" lon="6.70775">
        <ele>437.17</ele>
        <time>2021-06-23T12:52:50Z</time>
      </trkpt>
      <trkpt lat="47.83081" lon="6.70816">
        <ele>437.98</ele>
        <time>2021-06-23T12:52:54Z</time>
      </trkpt>
      <trkpt lat="47.83104" lon="6.70849">
        <ele>438.64</ele>
        <time>2021-06-23T12:52:57Z</time>
      </trkpt>
      <trkpt lat="47.83125" lon="6.7087">
        <ele>441.89</ele>
        <time>2021-06-23T12:53:01Z</time>
      </trkpt>
      <trkpt lat="47.83161" lon="6.70906">
        <ele>446.24</ele>
        <time>2021-06-23T12:53:04Z</time>
      </trkpt>
      <trkpt lat="47.83212" lon="6.70982">
        <ele>443.47</ele>
        <time>2021-06-23T12:53:08Z</time>
      </trkpt>
      <trkpt lat="47.83233" lon="6.71006">
        <ele>445.48</ele>
        <time>2021-06-23T12:53:12Z</time>
      </trkpt>
      <trkpt lat="47.83321" lon="6.7109">
        <ele>450.44</ele>
        <time>2021-06-23T12:53:15Z</time>
      </trkpt>
      <trkpt lat="47.83362" lon="6.71119">
        <ele>453.13</ele>
        <time>2021-06-23T12:53:19Z</time>
      </trkpt>
      <trkpt lat="47.83415" lon="6.71149">
        <ele>463.89</ele>
        <time>2021-06-23T12:53:22Z</time>
      </trkpt>
      <trkpt lat="47.83443" lon="6.7119">
        <ele>457.94</ele>
        <time>2021-06-23T12:53:26Z</time>
      </trkpt>
      <trkpt lat="47.83472" lon="6.71227">
        <ele>460.47</ele>
        <time>2021-06-23T12:53:30Z</time>
      </trkpt>
      <trkpt lat="47.83595" lon="6.71345">
        <ele>474.73</ele>
        <time>2021-06-23T12:53:33Z</time>
      </trkpt>
      <trkpt lat="47.83667" lon="6.71398">
        <ele>477.13</ele>
        <time>2021-06-23T12:53:37Z</time>
      </trkpt>
      <trkpt lat="47.83785" lon="6.71514">
        <ele>489.17</ele>
        <time>2021-06-23T12:53:40Z</time>
      </trkpt>
      <trkpt lat="47.83812" lon="6.71552">
        <ele>488.39</ele>
        <time>2021-06-23T12:53:44Z</time>
      </trkpt>
      <trkpt lat="47.83828" lon="6.71595">
        <ele>485.89</ele>
        <time>2021-06-23T12:53:48Z</time>
      </trkpt>
      <trkpt lat="47.83854" lon="6.71632">
        <ele>486.29</ele>
        <time>2021-06-23T12:53:51Z</time>
      </trkpt>
      <trkpt lat="47.83892" lon="6.71681">
        <ele>489.58</ele>
        <time>2021-06-23T12:53:55Z</time>
      </trkpt>
      <trkpt lat="47.83911" lon="6.71695">
        <ele>491.17</ele>
        <time>2021-06-23T12:53:58Z</time>
      </trkpt>
      <trkpt lat="47.8394" lon="6.71708">
        <ele>493.12</ele>
        <time>2021-06-23T12:54:02Z</time>
      </trkpt>
      <trkpt lat="47.84051" lon="6.71781">
        <ele>503.68</ele>
        <time>2021-06-23T12:54:05Z</time>
      </trkpt>
      <trkpt lat="47.84084" lon="6.71798">
        <ele>504.94</ele>
        <time>2021-06-23T12:54:09Z</time>
      </trkpt>
      <trkpt lat="47.84107" lon="6.71806">
        <ele>506.37</ele>
        <time>2021-06-23T12:54:13Z</time>
      </trkpt>
      <trkpt lat="47.84195" lon="6.71823">
        <ele>509.64</ele>
        <time>2021-06-23T12:54:16Z</time>
      </trkpt>
      <trkpt lat="47.84212" lon="6.71833">
        <ele>512.17</ele>
        <time>2021-06-23T12:54:20Z</time>
      </trkpt>
      <trkpt lat="47.84229" lon="6.7185">
        <ele>512.37</ele>
        <time>2021-06-23T12:54:23Z</time>
      </trkpt>
      <trkpt lat="47.84311" lon="6.71953">
        <ele>515.05</ele>
        <time>2021-06-23T12:54:27Z</time>
      </trkpt>
      <trkpt lat="47.84393" lon="6.7203">
        <ele>519.38</ele>
        <time>2021-06-23T12:54:31Z</time>
      </trkpt>
      <trkpt lat="47.84428" lon="6.72058">
        <ele>522.49</ele>
        <time>2021-06-23T12:54:34Z</time>
      </trkpt>
      <trkpt lat="47.84457" lon="6.72077">
        <ele>527.19</ele>
        <time>2021-06-23T12:54:38Z</time>
      </trkpt>
      <trkpt lat="47.84589" lon="6.72148">
        <ele>541.15</ele>
        <time>2021-06-23T12:54:41Z</time>
      </trkpt>
      <trkpt lat="47.84643" lon="6.72193">
        <ele>543.6</ele>
        <time>2021-06-23T12:54:45Z</time>
      </trkpt>
      <trkpt lat="47.84728" lon="6.72295">
        <ele>547.35</ele>
        <time>2021-06-23T12:54:48Z</time>
      </trkpt>
      <trkpt lat="47.84759" lon="6.72329">
        <ele>551.73</ele>
        <time>2021-06-23T12:54:52Z</time>
      </trkpt>
      <trkpt lat="47.84822" lon="6.72372">
        <ele>554.78</ele>
        <time>2021-06-23T12:54:56Z</time>
      </trkpt>
      <trkpt lat="47.84898" lon="6.72447">
        <ele>562.26</ele>
        <time>2021-06-23T12:54:59Z</time>
      </trkpt>
      <trkpt lat="47.84909" lon="6.72464">
        <ele>563.81</ele>
        <time>2021-06-23T12:55:03Z</time>
      </trkpt>
      <trkpt lat="47.84914" lon="6.72483">
        <ele>563.83</ele>
        <time>2021-06-23T12:55:06Z</time>
      </trkpt>
      <trkpt lat="47.84916" lon="6.72509">
        <ele>563.41</ele>
        <time>2021-06-23T12:55:10Z</time>
      </trkpt>
      <trkpt lat="47.84912" lon="6.72531">
        <ele>562.11</ele>
        <time>2021-06-23T12:55:14Z</time>
      </trkpt>
      <trkpt lat="47.84897" lon="6.7257">
        <ele>562.34</ele>
        <time>2021-06-23T12:55:17Z</time>
      </trkpt>
      <trkpt lat="47.84892" lon="6.72593">
        <ele>563.33</ele>
        <time>2021-06-23T12:55:21Z</time>
      </trkpt>
      <trkpt lat="47.8489" lon="6.72623">
        <ele>564.79</ele>
        <time>2021-06-23T12:55:24Z</time>
      </trkpt>
      <trkpt lat="47.84894" lon="6.72669">
        <ele>565.65</ele>
        <time>2021-06-23T12:55:28Z</time>
      </trkpt>
      <trkpt lat="47.84901" lon="6.72701">
        <ele>566.4</ele>
        <time>2021-06-23T12:55:32Z</time>
      </trkpt>
      <trkpt lat="47.8491" lon="6.7273">
        <ele>570.1</ele>
        <time>2021-06-23T12:55:35Z</time>
      </trkpt>
      <trkpt lat="47.84918" lon="6.72751">
        <ele>572.29</ele>
        <time>2021-06-23T12:55:39Z</time>
      </trkpt>
      <trkpt lat="47.84929" lon="6.72769">
        <ele>572.61</ele>
        <time>2021-06-23T12:55:42Z</time>
      </trkpt>
      <trkpt lat="47.84948" lon="6.72788">
        <ele>573.94</ele>
        <time>2021-06-23T12:55:46Z</time>
      </trkpt>
      <trkpt lat="47.85038" lon="6.72855">
        <ele>572.8</ele>
        <time>2021-06-23T12:55:49Z</time>
      </trkpt>
      <trkpt lat="47.85143" lon="6.72903">
        <ele>572.7</ele>
        <time>2021-06-23T12:55:53Z</time>
      </trkpt>
      <trkpt lat="47.85217" lon="6.72901">
        <ele>580.68</ele>
        <time>2021-06-23T12:55:57Z</time>
      </trkpt>
      <trkpt lat="47.8524" lon="6.72904">
        <ele>584.62</ele>
        <time>2021-06-23T12:56:00Z</time>
      </trkpt>
      <trkpt lat="47.8526" lon="6.72914">
        <ele>587.02</ele>
        <time>2021-06-23T12:56:04Z</time>
      </trkpt>
      <trkpt lat="47.85298" lon="6.72955">
        <ele>589.41</ele>
        <time>2021-06-23T12:56:07Z</time>
      </trkpt>
      <trkpt lat="47.85333" lon="6.73005">
        <ele>589.91</ele>
        <time>2021-06-23T12:56:11Z</time>
      </trkpt>
      <trkpt lat="47.85356" lon="6.7307">
        <ele>588.25</ele>
        <time>2021-06-23T12:56:15Z</time>
      </trkpt>
      <trkpt lat="47.85361" lon="6.73122">
        <ele>589.06</ele>
        <time>2021-06-23T12:56:18Z</time>
      </trkpt>
      <trkpt lat="47.85373" lon="6.73174">
        <ele>594.87</ele>
        <time>2021-06-23T12:56:22Z</time>
      </trkpt>
      <trkpt lat="47.85395" lon="6.73227">
        <ele>599.38</ele>
        <time>2021-06-23T12:56:25Z</time>
      </trkpt>
      <trkpt lat="47.85441" lon="6.73328">
        <ele>601.61</ele>
        <time>2021-06-23T12:56:29Z</time>
      </trkpt>
      <trkpt lat="47.85464" lon="6.73363">
        <ele>604.73</ele>
        <time>2021-06-23T12:56:32Z</time>
      </trkpt>
      <trkpt lat="47.85499" lon="6.73401">
        <ele>608.34</ele>
        <time>2021-06-23T12:56:36Z</time>
      </trkpt>
      <trkpt lat="47.85541" lon="6.73438">
        <ele>610.98</ele>
        <time>2021-06-23T12:56:40Z</time>
      </trkpt>
      <trkpt lat="47.85573" lon="6.73464">
        <ele>609.07</ele>
        <time>2021-06-23T12:56:43Z</time>
      </trkpt>
      <trkpt lat="47.85602" lon="6.73471">
        <ele>610.42</ele>
        <time>2021-06-23T12:56:47Z</time>
      </trkpt>
      <trkpt lat="47.85646" lon="6.73475">
        <ele>618.41</ele>
        <time>2021-06-23T12:56:50Z</time>
      </trkpt>
      <trkpt lat="47.85681" lon="6.73487">
        <ele>617</ele>
        <time>2021-06-23T12:56:54Z</time>
      </trkpt>
      <trkpt lat="47.85736" lon="6.73522">
        <ele>623.32</ele>
        <time>2021-06-23T12:56:58Z</time>
      </trkpt>
      <trkpt lat="47.85773" lon="6.73554">
        <ele>628.65</ele>
        <time>2021-06-23T12:57:01Z</time>
      </trkpt>
      <trkpt lat="47.85828" lon="6.73608">
        <ele>632.18</ele>
        <time>2021-06-23T12:57:05Z</time>
      </trkpt>
      <trkpt lat="47.85838" lon="6.73631">
        <ele>629.86</ele>
        <time>2021-06-23T12:57:08Z</time>
      </trkpt>
      <trkpt lat="47.85843" lon="6.73651">
        <ele>628.11</ele>
        <time>2021-06-23T12:57:12Z</time>
      </trkpt>
      <trkpt lat="47.85843" lon="6.73661">
        <ele>627.35</ele>
        <time>2021-06-23T12:57:16Z</time>
      </trkpt>
      <trkpt lat="47.85842" lon="6.73676">
        <ele>627.49</ele>
        <time>2021-06-23T12:57:19Z</time>
      </trkpt>
      <trkpt lat="47.8584" lon="6.73688">
        <ele>627.8</ele>
        <time>2021-06-23T12:57:23Z</time>
      </trkpt>
      <trkpt lat="47.85836" lon="6.73698">
        <ele>627.33</ele>
        <time>2021-06-23T12:57:26Z</time>
      </trkpt>
      <trkpt lat="47.85823" lon="6.73718">
        <ele>627.16</ele>
        <time>2021-06-23T12:57:30Z</time>
      </trkpt>
      <trkpt lat="47.85813" lon="6.73728">
        <ele>626.78</ele>
        <time>2021-06-23T12:57:33Z</time>
      </trkpt>
      <trkpt lat="47.85803" lon="6.73732">
        <ele>626.37</ele>
        <time>2021-06-23T12:57:37Z</time>
      </trkpt>
      <trkpt lat="47.85685" lon="6.73731">
        <ele>630.34</ele>
        <time>2021-06-23T12:57:41Z</time>
      </trkpt>
      <trkpt lat="47.85664" lon="6.73742">
        <ele>632.95</ele>
        <time>2021-06-23T12:57:44Z</time>
      </trkpt>
      <trkpt lat="47.85639" lon="6.73765">
        <ele>635.27</ele>
        <time>2021-06-23T12:57:48Z</time>
      </trkpt>
      <trkpt lat="47.85629" lon="6.73781">
        <ele>634.24</ele>
        <time>2021-06-23T12:57:51Z</time>
      </trkpt>
      <trkpt lat="47.85622" lon="6.73801">
        <ele>635.38</ele>
        <time>2021-06-23T12:57:55Z</time>
      </trkpt>
      <trkpt lat="47.85614" lon="6.73842">
        <ele>637.46</ele>
        <time>2021-06-23T12:57:59Z</time>
      </trkpt>
      <trkpt lat="47.85614" lon="6.7399">
        <ele>648.33</ele>
        <time>2021-06-23T12:58:02Z</time>
      </trkpt>
      <trkpt lat="47.85629" lon="6.74071">
        <ele>652.03</ele>
        <time>2021-06-23T12:58:06Z</time>
      </trkpt>
      <trkpt lat="47.85636" lon="6.74219">
        <ele>655.54</ele>
        <time>2021-06-23T12:58:09Z</time>
      </trkpt>
      <trkpt lat="47.85646" lon="6.74285">
        <ele>660.43</ele>
        <time>2021-06-23T12:58:13Z</time>
      </trkpt>
      <trkpt lat="47.85734" lon="6.74491">
        <ele>663.6</ele>
        <time>2021-06-23T12:58:16Z</time>
      </trkpt>
      <trkpt lat="47.85765" lon="6.74554">
        <ele>665.21</ele>
        <time>2021-06-23T12:58:20Z</time>
      </trkpt>
      <trkpt lat="47.85773" lon="6.74565">
        <ele>666.07</ele>
        <time>2021-06-23T12:58:24Z</time>
      </trkpt>
      <trkpt lat="47.85787" lon="6.74577">
        <ele>667.85</ele>
        <time>2021-06-23T12:58:27Z</time>
      </trkpt>
      <trkpt lat="47.85845" lon="6.74617">
        <ele>677.69</ele>
        <time>2021-06-23T12:58:31Z</time>
      </trkpt>
      <trkpt lat="47.8595" lon="6.747">
        <ele>683.17</ele>
        <time>2021-06-23T12:58:34Z</time>
      </trkpt>
      <trkpt lat="47.85977" lon="6.7471">
        <ele>683.04</ele>
        <time>2021-06-23T12:58:38Z</time>
      </trkpt>
      <trkpt lat="47.86002" lon="6.74709">
        <ele>683.35</ele>
        <time>2021-06-23T12:58:42Z</time>
      </trkpt>
      <trkpt lat="47.86061" lon="6.74697">
        <ele>685.23</ele>
        <time>2021-06-23T12:58:45Z</time>
      </trkpt>
      <trkpt lat="47.86083" lon="6.74685">
        <ele>687.63</ele>
        <time>2021-06-23T12:58:49Z</time>
      </trkpt>
      <trkpt lat="47.86098" lon="6.74673">
        <ele>686.99</ele>
        <time>2021-06-23T12:58:52Z</time>
      </trkpt>
      <trkpt lat="47.8611" lon="6.74653">
        <ele>686.47</ele>
        <time>2021-06-23T12:58:56Z</time>
      </trkpt>
      <trkpt lat="47.86155" lon="6.74557">
        <ele>674.77</ele>
        <time>2021-06-23T12:58:59Z</time>
      </trkpt>
      <trkpt lat="47.86166" lon="6.7451">
        <ele>672.7</ele>
        <time>2021-06-23T12:59:03Z</time>
      </trkpt>
      <trkpt lat="47.86186" lon="6.74405">
        <ele>670.63</ele>
        <time>2021-06-23T12:59:07Z</time>
      </trkpt>
      <trkpt lat="47.86196" lon="6.74324">
        <ele>672.84</ele>
        <time>2021-06-23T12:59:10Z</time>
      </trkpt>
      <trkpt lat="47.86199" lon="6.74318">
        <ele>672.32</ele>
        <time>2021-06-23T12:59:14Z</time>
      </trkpt>
      <trkpt lat="47.86205" lon="6.74316">
        <ele>671.63</ele>
        <time>2021-06-23T12:59:17Z</time>
      </trkpt>
      <trkpt lat="47.86212" lon="6.7432">
        <ele>670.38</ele>
        <time>2021-06-23T12:59:21Z</time>
      </trkpt>
      <trkpt lat="47.86215" lon="6.74328">
        <ele>669.65</ele>
        <time>2021-06-23T12:59:25Z</time>
      </trkpt>
      <trkpt lat="47.86215" lon="6.74339">
        <ele>668.83</ele>
        <time>2021-06-23T12:59:28Z</time>
      </trkpt>
      <trkpt lat="47.86202" lon="6.74454">
        <ele>662.28</ele>
        <time>2021-06-23T12:59:32Z</time>
      </trkpt>
      <trkpt lat="47.862" lon="6.74589">
        <ele>650.51</ele>
        <time>2021-06-23T12:59:35Z</time>
      </trkpt>
      <trkpt lat="47.86196" lon="6.74609">
        <ele>649.59</ele>
        <time>2021-06-23T12:59:39Z</time>
      </trkpt>
      <trkpt lat="47.86163" lon="6.74724">
        <ele>646.95</ele>
        <time>2021-06-23T12:59:43Z</time>
      </trkpt>
      <trkpt lat="47.86153" lon="6.74745">
        <ele>646.35</ele>
        <time>2021-06-23T12:59:46Z</time>
      </trkpt>
      <trkpt lat="47.86111" lon="6.74809">
        <ele>642.06</ele>
        <time>2021-06-23T12:59:50Z</time>
      </trkpt>
      <trkpt lat="47.86097" lon="6.74834">
        <ele>640.49</ele>
        <time>2021-06-23T12:59:53Z</time>
      </trkpt>
      <trkpt lat="47.86091" lon="6.7485">
        <ele>640.81</ele>
        <time>2021-06-23T12:59:57Z</time>
      </trkpt>
      <trkpt lat="47.86088" lon="6.74869">
        <ele>638.97</ele>
        <time>2021-06-23T13:00:00Z</time>
      </trkpt>
      <trkpt lat="47.86088" lon="6.74889">
        <ele>636.83</ele>
        <time>2021-06-23T13:00:04Z</time>
      </trkpt>
      <trkpt lat="47.86094" lon="6.74924">
        <ele>630.98</ele>
        <time>2021-06-23T13:00:08Z</time>
      </trkpt>
      <trkpt lat="47.86101" lon="6.74942">
        <ele>626.9</ele>
        <time>2021-06-23T13:00:11Z</time>
      </trkpt>
      <trkpt lat="47.8613" lon="6.74987">
        <ele>616.35</ele>
        <time>2021-06-23T13:00:15Z</time>
      </trkpt>
      <trkpt lat="47.86137" lon="6.75008">
        <ele>614.38</ele>
        <time>2021-06-23T13:00:18Z</time>
      </trkpt>
      <trkpt lat="47.86142" lon="6.75033">
        <ele>614.3</ele>
        <time>2021-06-23T13:00:22Z</time>
      </trkpt>
      <trkpt lat="47.86142" lon="6.75062">
        <ele>615.87</ele>
        <time>2021-06-23T13:00:26Z</time>
      </trkpt>
      <trkpt lat="47.86139" lon="6.75111">
        <ele>618.83</ele>
        <time>2021-06-23T13:00:29Z</time>
      </trkpt>
      <trkpt lat="47.86135" lon="6.75142">
        <ele>621.63</ele>
        <time>2021-06-23T13:00:33Z</time>
      </trkpt>
      <trkpt lat="47.86135" lon="6.75163">
        <ele>623.63</ele>
        <time>2021-06-23T13:00:36Z</time>
      </trkpt>
      <trkpt lat="47.86142" lon="6.75196">
        <ele>622.04</ele>
        <time>2021-06-23T13:00:40Z</time>
      </trkpt>
      <trkpt lat="47.86165" lon="6.75259">
        <ele>628.28</ele>
        <time>2021-06-23T13:00:43Z</time>
      </trkpt>
      <trkpt lat="47.86177" lon="6.75281">
        <ele>626.8</ele>
        <time>2021-06-23T13:00:47Z</time>
      </trkpt>
      <trkpt lat="47.86177" lon="6.75281">
        <ele>626.8</ele>
        <time>2021-06-23T13:00:47Z</time>
      </trkpt>
      <trkpt lat="47.86185" lon="6.75295">
        <ele>625.31</ele>
        <time>2021-06-23T13:00:50Z</time>
      </trkpt>
      <trkpt lat="47.86195" lon="6.75308">
        <ele>622.1</ele>
        <time>2021-06-23T13:00:53Z</time>
      </trkpt>
      <trkpt lat="47.86256" lon="6.75365">
        <ele>606.25</ele>
        <time>2021-06-23T13:00:56Z</time>
      </trkpt>
      <trkpt lat="47.86283" lon="6.75403">
        <ele>600.14</ele>
        <time>2021-06-23T13:00:59Z</time>
      </trkpt>
      <trkpt lat="47.86295" lon="6.75414">
        <ele>597.39</ele>
        <time>2021-06-23T13:01:02Z</time>
      </trkpt>
      <trkpt lat="47.86314" lon="6.75423">
        <ele>594.13</ele>
        <time>2021-06-23T13:01:05Z</time>
      </trkpt>
      <trkpt lat="47.86366" lon="6.75415">
        <ele>589.29</ele>
        <time>2021-06-23T13:01:08Z</time>
      </trkpt>
      <trkpt lat="47.86386" lon="6.7542">
        <ele>589.2</ele>
        <time>2021-06-23T13:01:11Z</time>
      </trkpt>
      <trkpt lat="47.86421" lon="6.75432">
        <ele>588.3</ele>
        <time>2021-06-23T13:01:13Z</time>
      </trkpt>
      <trkpt lat="47.86447" lon="6.75438">
        <ele>586.54</ele>
        <time>2021-06-23T13:01:16Z</time>
      </trkpt>
      <trkpt lat="47.86466" lon="6.75447">
        <ele>583.16</ele>
        <time>2021-06-23T13:01:19Z</time>
      </trkpt>
      <trkpt lat="47.86491" lon="6.75467">
        <ele>578.65</ele>
        <time>2021-06-23T13:01:22Z</time>
      </trkpt>
      <trkpt lat="47.86497" lon="6.75476">
        <ele>577.38</ele>
        <time>2021-06-23T13:01:25Z</time>
      </trkpt>
      <trkpt lat="47.86501" lon="6.75485">
        <ele>576.59</ele>
        <time>2021-06-23T13:01:28Z</time>
      </trkpt>
      <trkpt lat="47.86502" lon="6.75494">
        <ele>576.72</ele>
        <time>2021-06-23T13:01:31Z</time>
      </trkpt>
      <trkpt lat="47.86502" lon="6.75508">
        <ele>576.87</ele>
        <time>2021-06-23T13:01:34Z</time>
      </trkpt>
      <trkpt lat="47.86495" lon="6.75548">
        <ele>579.35</ele>
        <time>2021-06-23T13:01:37Z</time>
      </trkpt>
      <trkpt lat="47.86496" lon="6.75564">
        <ele>579.59</ele>
        <time>2021-06-23T13:01:40Z</time>
      </trkpt>
      <trkpt lat="47.86498" lon="6.75578">
        <ele>579.23</ele>
        <time>2021-06-23T13:01:42Z</time>
      </trkpt>
      <trkpt lat="47.86504" lon="6.75592">
        <ele>578.58</ele>
        <time>2021-06-23T13:01:45Z</time>
      </trkpt>
      <trkpt lat="47.86522" lon="6.75631">
        <ele>576.22</ele>
        <time>2021-06-23T13:01:48Z</time>
      </trkpt>
      <trkpt lat="47.86539" lon="6.75663">
        <ele>572.82</ele>
        <time>2021-06-23T13:01:51Z</time>
      </trkpt>
      <trkpt lat="47.86554" lon="6.7568">
        <ele>571.71</ele>
        <time>2021-06-23T13:01:54Z</time>
      </trkpt>
      <trkpt lat="47.86562" lon="6.75685">
        <ele>571.31</ele>
        <time>2021-06-23T13:01:57Z</time>
      </trkpt>
      <trkpt lat="47.86591" lon="6.75695">
        <ele>569.2</ele>
        <time>2021-06-23T13:02:00Z</time>
      </trkpt>
      <trkpt lat="47.86625" lon="6.75722">
        <ele>568.48</ele>
        <time>2021-06-23T13:02:03Z</time>
      </trkpt>
      <trkpt lat="47.86638" lon="6.75724">
        <ele>567.15</ele>
        <time>2021-06-23T13:02:06Z</time>
      </trkpt>
      <trkpt lat="47.86649" lon="6.75718">
        <ele>565.77</ele>
        <time>2021-06-23T13:02:09Z</time>
      </trkpt>
      <trkpt lat="47.8666" lon="6.75701">
        <ele>564.01</ele>
        <time>2021-06-23T13:02:12Z</time>
      </trkpt>
      <trkpt lat="47.86666" lon="6.75688">
        <ele>562.63</ele>
        <time>2021-06-23T13:02:14Z</time>
      </trkpt>
      <trkpt lat="47.86672" lon="6.75667">
        <ele>560.62</ele>
        <time>2021-06-23T13:02:17Z</time>
      </trkpt>
      <trkpt lat="47.86676" lon="6.75647">
        <ele>558.42</ele>
        <time>2021-06-23T13:02:20Z</time>
      </trkpt>
      <trkpt lat="47.86676" lon="6.75624">
        <ele>556.62</ele>
        <time>2021-06-23T13:02:23Z</time>
      </trkpt>
      <trkpt lat="47.86666" lon="6.75548">
        <ele>554.82</ele>
        <time>2021-06-23T13:02:26Z</time>
      </trkpt>
      <trkpt lat="47.86666" lon="6.75529">
        <ele>554.15</ele>
        <time>2021-06-23T13:02:29Z</time>
      </trkpt>
      <trkpt lat="47.86671" lon="6.75504">
        <ele>553.5</ele>
        <time>2021-06-23T13:02:32Z</time>
      </trkpt>
      <trkpt lat="47.86676" lon="6.75492">
        <ele>553.02</ele>
        <time>2021-06-23T13:02:35Z</time>
      </trkpt>
      <trkpt lat="47.86685" lon="6.75477">
        <ele>551.98</ele>
        <time>2021-06-23T13:02:38Z</time>
      </trkpt>
      <trkpt lat="47.86704" lon="6.75462">
        <ele>549.9</ele>
        <time>2021-06-23T13:02:41Z</time>
      </trkpt>
      <trkpt lat="47.86748" lon="6.75446">
        <ele>544.21</ele>
        <time>2021-06-23T13:02:43Z</time>
      </trkpt>
      <trkpt lat="47.86766" lon="6.75446">
        <ele>542.9</ele>
        <time>2021-06-23T13:02:46Z</time>
      </trkpt>
      <trkpt lat="47.86787" lon="6.75456">
        <ele>542.4</ele>
        <time>2021-06-23T13:02:49Z</time>
      </trkpt>
      <trkpt lat="47.86852" lon="6.75506">
        <ele>539.51</ele>
        <time>2021-06-23T13:02:52Z</time>
      </trkpt>
      <trkpt lat="47.86869" lon="6.75528">
        <ele>538</ele>
        <time>2021-06-23T13:02:55Z</time>
      </trkpt>
      <trkpt lat="47.86889" lon="6.7556">
        <ele>538</ele>
        <time>2021-06-23T13:02:58Z</time>
      </trkpt>
      <trkpt lat="47.86904" lon="6.75585">
        <ele>537.52</ele>
        <time>2021-06-23T13:03:01Z</time>
      </trkpt>
      <trkpt lat="47.86913" lon="6.75605">
        <ele>537.91</ele>
        <time>2021-06-23T13:03:04Z</time>
      </trkpt>
      <trkpt lat="47.86921" lon="6.75627">
        <ele>537.14</ele>
        <time>2021-06-23T13:03:07Z</time>
      </trkpt>
      <trkpt lat="47.86943" lon="6.75707">
        <ele>536.1</ele>
        <time>2021-06-23T13:03:10Z</time>
      </trkpt>
      <trkpt lat="47.86954" lon="6.7573">
        <ele>535.32</ele>
        <time>2021-06-23T13:03:12Z</time>
      </trkpt>
      <trkpt lat="47.86963" lon="6.7574">
        <ele>534.66</ele>
        <time>2021-06-23T13:03:15Z</time>
      </trkpt>
      <trkpt lat="47.86974" lon="6.75747">
        <ele>533.91</ele>
        <time>2021-06-23T13:03:18Z</time>
      </trkpt>
      <trkpt lat="47.8699" lon="6.75751">
        <ele>533.41</ele>
        <time>2021-06-23T13:03:21Z</time>
      </trkpt>
      <trkpt lat="47.87077" lon="6.75734">
        <ele>530.2</ele>
        <time>2021-06-23T13:03:24Z</time>
      </trkpt>
      <trkpt lat="47.87095" lon="6.75733">
        <ele>529.25</ele>
        <time>2021-06-23T13:03:27Z</time>
      </trkpt>
      <trkpt lat="47.8712" lon="6.75735">
        <ele>527.45</ele>
        <time>2021-06-23T13:03:30Z</time>
      </trkpt>
      <trkpt lat="47.87146" lon="6.75743">
        <ele>525.21</ele>
        <time>2021-06-23T13:03:33Z</time>
      </trkpt>
      <trkpt lat="47.8717" lon="6.75753">
        <ele>523.7</ele>
        <time>2021-06-23T13:03:36Z</time>
      </trkpt>
      <trkpt lat="47.8719" lon="6.75766">
        <ele>522.25</ele>
        <time>2021-06-23T13:03:39Z</time>
      </trkpt>
      <trkpt lat="47.87294" lon="6.75855">
        <ele>518.9</ele>
        <time>2021-06-23T13:03:41Z</time>
      </trkpt>
      <trkpt lat="47.87321" lon="6.75882">
        <ele>517.29</ele>
        <time>2021-06-23T13:03:44Z</time>
      </trkpt>
      <trkpt lat="47.87358" lon="6.75928">
        <ele>512.92</ele>
        <time>2021-06-23T13:03:47Z</time>
      </trkpt>
      <trkpt lat="47.87426" lon="6.76022">
        <ele>501.95</ele>
        <time>2021-06-23T13:03:50Z</time>
      </trkpt>
      <trkpt lat="47.87449" lon="6.76086">
        <ele>499.27</ele>
        <time>2021-06-23T13:03:53Z</time>
      </trkpt>
      <trkpt lat="47.8748" lon="6.76195">
        <ele>494.27</ele>
        <time>2021-06-23T13:03:56Z</time>
      </trkpt>
      <trkpt lat="47.87484" lon="6.76218">
        <ele>494.44</ele>
        <time>2021-06-23T13:03:59Z</time>
      </trkpt>
      <trkpt lat="47.87488" lon="6.7628">
        <ele>495.09</ele>
        <time>2021-06-23T13:04:02Z</time>
      </trkpt>
      <trkpt lat="47.87491" lon="6.76293">
        <ele>494.98</ele>
        <time>2021-06-23T13:04:05Z</time>
      </trkpt>
      <trkpt lat="47.87535" lon="6.76379">
        <ele>495</ele>
        <time>2021-06-23T13:04:08Z</time>
      </trkpt>
      <trkpt lat="47.87559" lon="6.7644">
        <ele>495.76</ele>
        <time>2021-06-23T13:04:10Z</time>
      </trkpt>
      <trkpt lat="47.87566" lon="6.76454">
        <ele>495.25</ele>
        <time>2021-06-23T13:04:13Z</time>
      </trkpt>
      <trkpt lat="47.87579" lon="6.76463">
        <ele>494.29</ele>
        <time>2021-06-23T13:04:16Z</time>
      </trkpt>
      <trkpt lat="47.87584" lon="6.76465">
        <ele>493.92</ele>
        <time>2021-06-23T13:04:19Z</time>
      </trkpt>
      <trkpt lat="47.87618" lon="6.76455">
        <ele>491.61</ele>
        <time>2021-06-23T13:04:22Z</time>
      </trkpt>
      <trkpt lat="47.87638" lon="6.76452">
        <ele>490.31</ele>
        <time>2021-06-23T13:04:25Z</time>
      </trkpt>
      <trkpt lat="47.8765" lon="6.76454">
        <ele>489.52</ele>
        <time>2021-06-23T13:04:28Z</time>
      </trkpt>
      <trkpt lat="47.87723" lon="6.765">
        <ele>488.98</ele>
        <time>2021-06-23T13:04:31Z</time>
      </trkpt>
      <trkpt lat="47.87753" lon="6.76525">
        <ele>489</ele>
        <time>2021-06-23T13:04:34Z</time>
      </trkpt>
      <trkpt lat="47.87767" lon="6.76533">
        <ele>489.07</ele>
        <time>2021-06-23T13:04:37Z</time>
      </trkpt>
      <trkpt lat="47.87876" lon="6.7655">
        <ele>496.85</ele>
        <time>2021-06-23T13:04:39Z</time>
      </trkpt>
      <trkpt lat="47.87887" lon="6.76554">
        <ele>497.83</ele>
        <time>2021-06-23T13:04:42Z</time>
      </trkpt>
      <trkpt lat="47.87892" lon="6.76548">
        <ele>497.8</ele>
        <time>2021-06-23T13:04:48Z</time>
      </trkpt>
      <trkpt lat="47.8794" lon="6.76512">
        <ele>494.89</ele>
        <time>2021-06-23T13:04:53Z</time>
      </trkpt>
      <trkpt lat="47.87993" lon="6.76462">
        <ele>494.36</ele>
        <time>2021-06-23T13:04:58Z</time>
      </trkpt>
      <trkpt lat="47.88001" lon="6.76477">
        <ele>494.16</ele>
        <time>2021-06-23T13:05:04Z</time>
      </trkpt>
      <trkpt lat="47.88019" lon="6.76503">
        <ele>494.41</ele>
        <time>2021-06-23T13:05:10Z</time>
      </trkpt>
      <trkpt lat="47.88029" lon="6.7651">
        <ele>494.36</ele>
        <time>2021-06-23T13:05:16Z</time>
      </trkpt>
      <trkpt lat="47.88095" lon="6.76544">
        <ele>494</ele>
        <time>2021-06-23T13:05:22Z</time>
      </trkpt>
      <trkpt lat="47.88288" lon="6.76593">
        <ele>490.74</ele>
        <time>2021-06-23T13:05:28Z</time>
      </trkpt>
      <trkpt lat="47.88317" lon="6.76606">
        <ele>490.42</ele>
        <time>2021-06-23T13:05:33Z</time>
      </trkpt>
      <trkpt lat="47.8843" lon="6.76687">
        <ele>490.22</ele>
        <time>2021-06-23T13:05:39Z</time>
      </trkpt>
      <trkpt lat="47.88441" lon="6.76699">
        <ele>490.29</ele>
        <time>2021-06-23T13:05:45Z</time>
      </trkpt>
      <trkpt lat="47.88449" lon="6.76712">
        <ele>490.58</ele>
        <time>2021-06-23T13:05:51Z</time>
      </trkpt>
      <trkpt lat="47.88576" lon="6.76954">
        <ele>496.16</ele>
        <time>2021-06-23T13:05:57Z</time>
      </trkpt>
      <trkpt lat="47.88587" lon="6.76966">
        <ele>496.36</ele>
        <time>2021-06-23T13:06:02Z</time>
      </trkpt>
      <trkpt lat="47.8869" lon="6.7703">
        <ele>499.35</ele>
        <time>2021-06-23T13:06:08Z</time>
      </trkpt>
      <trkpt lat="47.88711" lon="6.77047">
        <ele>497.82</ele>
        <time>2021-06-23T13:06:14Z</time>
      </trkpt>
      <trkpt lat="47.88736" lon="6.77075">
        <ele>497.75</ele>
        <time>2021-06-23T13:06:20Z</time>
      </trkpt>
      <trkpt lat="47.88747" lon="6.77092">
        <ele>498.71</ele>
        <time>2021-06-23T13:06:26Z</time>
      </trkpt>
      <trkpt lat="47.88763" lon="6.77131">
        <ele>499.65</ele>
        <time>2021-06-23T13:06:32Z</time>
      </trkpt>
      <trkpt lat="47.88788" lon="6.77199">
        <ele>496.54</ele>
        <time>2021-06-23T13:06:37Z</time>
      </trkpt>
      <trkpt lat="47.88805" lon="6.77238">
        <ele>495.58</ele>
        <time>2021-06-23T13:06:43Z</time>
      </trkpt>
      <trkpt lat="47.8882" lon="6.7726">
        <ele>496.17</ele>
        <time>2021-06-23T13:06:49Z</time>
      </trkpt>
      <trkpt lat="47.88881" lon="6.77323">
        <ele>495</ele>
        <time>2021-06-23T13:06:55Z</time>
      </trkpt>
      <trkpt lat="47.88891" lon="6.77335">
        <ele>495.07</ele>
        <time>2021-06-23T13:07:01Z</time>
      </trkpt>
      <trkpt lat="47.88912" lon="6.77368">
        <ele>495.85</ele>
        <time>2021-06-23T13:07:06Z</time>
      </trkpt>
      <trkpt lat="47.88938" lon="6.77414">
        <ele>496</ele>
        <time>2021-06-23T13:07:12Z</time>
      </trkpt>
      <trkpt lat="47.88972" lon="6.77482">
        <ele>495</ele>
        <time>2021-06-23T13:07:18Z</time>
      </trkpt>
      <trkpt lat="47.89002" lon="6.77526">
        <ele>496</ele>
        <time>2021-06-23T13:07:24Z</time>
      </trkpt>
      <trkpt lat="47.89027" lon="6.77551">
        <ele>497.81</ele>
        <time>2021-06-23T13:07:30Z</time>
      </trkpt>
      <trkpt lat="47.89033" lon="6.77556">
        <ele>498.21</ele>
        <time>2021-06-23T13:07:35Z</time>
      </trkpt>
      <trkpt lat="47.89061" lon="6.77573">
        <ele>499</ele>
        <time>2021-06-23T13:07:41Z</time>
      </trkpt>
      <trkpt lat="47.89077" lon="6.77579">
        <ele>499</ele>
        <time>2021-06-23T13:07:47Z</time>
      </trkpt>
      <trkpt lat="47.89109" lon="6.77586">
        <ele>499.07</ele>
        <time>2021-06-23T13:07:53Z</time>
      </trkpt>
      <trkpt lat="47.894" lon="6.77584">
        <ele>502.02</ele>
        <time>2021-06-23T13:07:59Z</time>
      </trkpt>
      <trkpt lat="47.89412" lon="6.77588">
        <ele>502.03</ele>
        <time>2021-06-23T13:08:05Z</time>
      </trkpt>
      <trkpt lat="47.89439" lon="6.77604">
        <ele>502</ele>
        <time>2021-06-23T13:08:10Z</time>
      </trkpt>
      <trkpt lat="47.89565" lon="6.77741">
        <ele>509.89</ele>
        <time>2021-06-23T13:08:16Z</time>
      </trkpt>
      <trkpt lat="47.89594" lon="6.77771">
        <ele>509.71</ele>
        <time>2021-06-23T13:08:22Z</time>
      </trkpt>
      <trkpt lat="47.89608" lon="6.77784">
        <ele>509.1</ele>
        <time>2021-06-23T13:08:28Z</time>
      </trkpt>
      <trkpt lat="47.89627" lon="6.77795">
        <ele>509.56</ele>
        <time>2021-06-23T13:08:34Z</time>
      </trkpt>
      <trkpt lat="47.89637" lon="6.77798">
        <ele>509.92</ele>
        <time>2021-06-23T13:08:39Z</time>
      </trkpt>
      <trkpt lat="47.90013" lon="6.77816">
        <ele>514.47</ele>
        <time>2021-06-23T13:08:45Z</time>
      </trkpt>
      <trkpt lat="47.90064" lon="6.77821">
        <ele>515.29</ele>
        <time>2021-06-23T13:08:51Z</time>
      </trkpt>
      <trkpt lat="47.90091" lon="6.7783">
        <ele>514.23</ele>
        <time>2021-06-23T13:08:57Z</time>
      </trkpt>
      <trkpt lat="47.90126" lon="6.77849">
        <ele>512.83</ele>
        <time>2021-06-23T13:09:03Z</time>
      </trkpt>
      <trkpt lat="47.90149" lon="6.77866">
        <ele>512.53</ele>
        <time>2021-06-23T13:09:09Z</time>
      </trkpt>
      <trkpt lat="47.90162" lon="6.77879">
        <ele>512.45</ele>
        <time>2021-06-23T13:09:14Z</time>
      </trkpt>
      <trkpt lat="47.90221" lon="6.77963">
        <ele>521.15</ele>
        <time>2021-06-23T13:09:20Z</time>
      </trkpt>
      <trkpt lat="47.90245" lon="6.77987">
        <ele>518.33</ele>
        <time>2021-06-23T13:09:26Z</time>
      </trkpt>
      <trkpt lat="47.9026" lon="6.77998">
        <ele>517.17</ele>
        <time>2021-06-23T13:09:32Z</time>
      </trkpt>
      <trkpt lat="47.90286" lon="6.78008">
        <ele>518.45</ele>
        <time>2021-06-23T13:09:38Z</time>
      </trkpt>
      <trkpt lat="47.90351" lon="6.78004">
        <ele>524.63</ele>
        <time>2021-06-23T13:09:43Z</time>
      </trkpt>
      <trkpt lat="47.9037" lon="6.78006">
        <ele>524.66</ele>
        <time>2021-06-23T13:09:49Z</time>
      </trkpt>
      <trkpt lat="47.90397" lon="6.78017">
        <ele>524.88</ele>
        <time>2021-06-23T13:09:55Z</time>
      </trkpt>
      <trkpt lat="47.90443" lon="6.78053">
        <ele>524.1</ele>
        <time>2021-06-23T13:10:01Z</time>
      </trkpt>
      <trkpt lat="47.90464" lon="6.7808">
        <ele>522.43</ele>
        <time>2021-06-23T13:10:07Z</time>
      </trkpt>
      <trkpt lat="47.90536" lon="6.78183">
        <ele>519.24</ele>
        <time>2021-06-23T13:10:13Z</time>
      </trkpt>
      <trkpt lat="47.90562" lon="6.7821">
        <ele>519.96</ele>
        <time>2021-06-23T13:10:18Z</time>
      </trkpt>
      <trkpt lat="47.90582" lon="6.78223">
        <ele>520.93</ele>
        <time>2021-06-23T13:10:24Z</time>
      </trkpt>
      <trkpt lat="47.90706" lon="6.78279">
        <ele>523</ele>
        <time>2021-06-23T13:10:30Z</time>
      </trkpt>
      <trkpt lat="47.90739" lon="6.78298">
        <ele>524.36</ele>
        <time>2021-06-23T13:10:36Z</time>
      </trkpt>
      <trkpt lat="47.90811" lon="6.78353">
        <ele>526.06</ele>
        <time>2021-06-23T13:10:42Z</time>
      </trkpt>
      <trkpt lat="47.90897" lon="6.78424">
        <ele>527.81</ele>
        <time>2021-06-23T13:10:47Z</time>
      </trkpt>
      <trkpt lat="47.90963" lon="6.78487">
        <ele>528.76</ele>
        <time>2021-06-23T13:10:53Z</time>
      </trkpt>
      <trkpt lat="47.91047" lon="6.78575">
        <ele>537.38</ele>
        <time>2021-06-23T13:10:59Z</time>
      </trkpt>
      <trkpt lat="47.91074" lon="6.78599">
        <ele>537.49</ele>
        <time>2021-06-23T13:11:05Z</time>
      </trkpt>
      <trkpt lat="47.91087" lon="6.78606">
        <ele>537.81</ele>
        <time>2021-06-23T13:11:11Z</time>
      </trkpt>
      <trkpt lat="47.91134" lon="6.78614">
        <ele>541.99</ele>
        <time>2021-06-23T13:11:16Z</time>
      </trkpt>
      <trkpt lat="47.91146" lon="6.78621">
        <ele>542.72</ele>
        <time>2021-06-23T13:11:22Z</time>
      </trkpt>
      <trkpt lat="47.91161" lon="6.78633">
        <ele>542.49</ele>
        <time>2021-06-23T13:11:28Z</time>
      </trkpt>
      <trkpt lat="47.91221" lon="6.7869">
        <ele>543.74</ele>
        <time>2021-06-23T13:11:34Z</time>
      </trkpt>
      <trkpt lat="47.91221" lon="6.7869">
        <ele>543.74</ele>
        <time>2021-06-23T13:11:34Z</time>
      </trkpt>
      <trkpt lat="47.91249" lon="6.78719">
        <ele>546.3</ele>
        <time>2021-06-23T13:11:39Z</time>
      </trkpt>
      <trkpt lat="47.91269" lon="6.78745">
        <ele>548.48</ele>
        <time>2021-06-23T13:11:44Z</time>
      </trkpt>
      <trkpt lat="47.91421" lon="6.78962">
        <ele>546.18</ele>
        <time>2021-06-23T13:11:50Z</time>
      </trkpt>
      <trkpt lat="47.91494" lon="6.79034">
        <ele>552.01</ele>
        <time>2021-06-23T13:11:55Z</time>
      </trkpt>
      <trkpt lat="47.91662" lon="6.7917">
        <ele>559.05</ele>
        <time>2021-06-23T13:12:00Z</time>
      </trkpt>
      <trkpt lat="47.91688" lon="6.79194">
        <ele>558.46</ele>
        <time>2021-06-23T13:12:06Z</time>
      </trkpt>
      <trkpt lat="47.91737" lon="6.7924">
        <ele>561.15</ele>
        <time>2021-06-23T13:12:11Z</time>
      </trkpt>
      <trkpt lat="47.91758" lon="6.79264">
        <ele>562.87</ele>
        <time>2021-06-23T13:12:16Z</time>
      </trkpt>
      <trkpt lat="47.91764" lon="6.79276">
        <ele>562.73</ele>
        <time>2021-06-23T13:12:21Z</time>
      </trkpt>
      <trkpt lat="47.91772" lon="6.79298">
        <ele>562.79</ele>
        <time>2021-06-23T13:12:27Z</time>
      </trkpt>
      <trkpt lat="47.91779" lon="6.79326">
        <ele>563.09</ele>
        <time>2021-06-23T13:12:32Z</time>
      </trkpt>
      <trkpt lat="47.9183" lon="6.79612">
        <ele>572.9</ele>
        <time>2021-06-23T13:12:37Z</time>
      </trkpt>
      <trkpt lat="47.91904" lon="6.79843">
        <ele>574.77</ele>
        <time>2021-06-23T13:12:42Z</time>
      </trkpt>
      <trkpt lat="47.9195" lon="6.79977">
        <ele>571.82</ele>
        <time>2021-06-23T13:12:48Z</time>
      </trkpt>
      <trkpt lat="47.91987" lon="6.8007">
        <ele>574.35</ele>
        <time>2021-06-23T13:12:53Z</time>
      </trkpt>
      <trkpt lat="47.92059" lon="6.80239">
        <ele>579.26</ele>
        <time>2021-06-23T13:12:58Z</time>
      </trkpt>
      <trkpt lat="47.9207" lon="6.80257">
        <ele>579.61</ele>
        <time>2021-06-23T13:13:03Z</time>
      </trkpt>
      <trkpt lat="47.92088" lon="6.80278">
        <ele>581.51</ele>
        <time>2021-06-23T13:13:09Z</time>
      </trkpt>
      <trkpt lat="47.92151" lon="6.80341">
        <ele>584.56</ele>
        <time>2021-06-23T13:13:14Z</time>
      </trkpt>
      <trkpt lat="47.92178" lon="6.80365">
        <ele>587.02</ele>
        <time>2021-06-23T13:13:19Z</time>
      </trkpt>
      <trkpt lat="47.92197" lon="6.80386">
        <ele>588.73</ele>
        <time>2021-06-23T13:13:24Z</time>
      </trkpt>
      <trkpt lat="47.92208" lon="6.80403">
        <ele>589.84</ele>
        <time>2021-06-23T13:13:30Z</time>
      </trkpt>
      <trkpt lat="47.9222" lon="6.80426">
        <ele>592.36</ele>
        <time>2021-06-23T13:13:35Z</time>
      </trkpt>
      <trkpt lat="47.92235" lon="6.80462">
        <ele>594.05</ele>
        <time>2021-06-23T13:13:40Z</time>
      </trkpt>
      <trkpt lat="47.92247" lon="6.80501">
        <ele>595.29</ele>
        <time>2021-06-23T13:13:45Z</time>
      </trkpt>
      <trkpt lat="47.92253" lon="6.80534">
        <ele>595.32</ele>
        <time>2021-06-23T13:13:51Z</time>
      </trkpt>
      <trkpt lat="47.92272" lon="6.80697">
        <ele>600.46</ele>
        <time>2021-06-23T13:13:56Z</time>
      </trkpt>
      <trkpt lat="47.92273" lon="6.80738">
        <ele>600.23</ele>
        <time>2021-06-23T13:14:01Z</time>
      </trkpt>
      <trkpt lat="47.92275" lon="6.80757">
        <ele>600.04</ele>
        <time>2021-06-23T13:14:06Z</time>
      </trkpt>
      <trkpt lat="47.92286" lon="6.80828">
        <ele>599.92</ele>
        <time>2021-06-23T13:14:12Z</time>
      </trkpt>
      <trkpt lat="47.92295" lon="6.80859">
        <ele>599.27</ele>
        <time>2021-06-23T13:14:17Z</time>
      </trkpt>
      <trkpt lat="47.92325" lon="6.80918">
        <ele>602.84</ele>
        <time>2021-06-23T13:14:22Z</time>
      </trkpt>
      <trkpt lat="47.92443" lon="6.81092">
        <ele>612.2</ele>
        <time>2021-06-23T13:14:27Z</time>
      </trkpt>
      <trkpt lat="47.92491" lon="6.8121">
        <ele>616.86</ele>
        <time>2021-06-23T13:14:33Z</time>
      </trkpt>
      <trkpt lat="47.92497" lon="6.81231">
        <ele>617.16</ele>
        <time>2021-06-23T13:14:38Z</time>
      </trkpt>
      <trkpt lat="47.92509" lon="6.81306">
        <ele>617.57</ele>
        <time>2021-06-23T13:14:43Z</time>
      </trkpt>
      <trkpt lat="47.92515" lon="6.81339">
        <ele>617.2</ele>
        <time>2021-06-23T13:14:48Z</time>
      </trkpt>
      <trkpt lat="47.92527" lon="6.81383">
        <ele>617.14</ele>
        <time>2021-06-23T13:14:54Z</time>
      </trkpt>
      <trkpt lat="47.92578" lon="6.81545">
        <ele>618.85</ele>
        <time>2021-06-23T13:14:59Z</time>
      </trkpt>
      <trkpt lat="47.92618" lon="6.81709">
        <ele>618.86</ele>
        <time>2021-06-23T13:15:04Z</time>
      </trkpt>
      <trkpt lat="47.92641" lon="6.81781">
        <ele>617.32</ele>
        <time>2021-06-23T13:15:09Z</time>
      </trkpt>
      <trkpt lat="47.92652" lon="6.81804">
        <ele>617.58</ele>
        <time>2021-06-23T13:15:15Z</time>
      </trkpt>
      <trkpt lat="47.9269" lon="6.8186">
        <ele>620.35</ele>
        <time>2021-06-23T13:15:20Z</time>
      </trkpt>
      <trkpt lat="47.92748" lon="6.81932">
        <ele>626.6</ele>
        <time>2021-06-23T13:15:25Z</time>
      </trkpt>
      <trkpt lat="47.92854" lon="6.82045">
        <ele>620.75</ele>
        <time>2021-06-23T13:15:30Z</time>
      </trkpt>
      <trkpt lat="47.92854" lon="6.82045">
        <ele>620.75</ele>
        <time>2021-06-23T13:15:30Z</time>
      </trkpt>
      <trkpt lat="47.92908" lon="6.82102">
        <ele>615.22</ele>
        <time>2021-06-23T13:15:38Z</time>
      </trkpt>
      <trkpt lat="47.93125" lon="6.8228">
        <ele>608.16</ele>
        <time>2021-06-23T13:15:46Z</time>
      </trkpt>
      <trkpt lat="47.93182" lon="6.8232">
        <ele>612.23</ele>
        <time>2021-06-23T13:15:54Z</time>
      </trkpt>
      <trkpt lat="47.93265" lon="6.82385">
        <ele>605.48</ele>
        <time>2021-06-23T13:16:02Z</time>
      </trkpt>
      <trkpt lat="47.93396" lon="6.82463">
        <ele>606.55</ele>
        <time>2021-06-23T13:16:10Z</time>
      </trkpt>
      <trkpt lat="47.93444" lon="6.82486">
        <ele>599.92</ele>
        <time>2021-06-23T13:16:18Z</time>
      </trkpt>
      <trkpt lat="47.93679" lon="6.82578">
        <ele>593.64</ele>
        <time>2021-06-23T13:16:26Z</time>
      </trkpt>
      <trkpt lat="47.93833" lon="6.82664">
        <ele>588.91</ele>
        <time>2021-06-23T13:16:34Z</time>
      </trkpt>
      <trkpt lat="47.93849" lon="6.82675">
        <ele>586.28</ele>
        <time>2021-06-23T13:16:42Z</time>
      </trkpt>
      <trkpt lat="47.93954" lon="6.82786">
        <ele>581.19</ele>
        <time>2021-06-23T13:16:50Z</time>
      </trkpt>
      <trkpt lat="47.94063" lon="6.82914">
        <ele>579.71</ele>
        <time>2021-06-23T13:16:58Z</time>
      </trkpt>
      <trkpt lat="47.94075" lon="6.82933">
        <ele>579.09</ele>
        <time>2021-06-23T13:17:07Z</time>
      </trkpt>
      <trkpt lat="47.94128" lon="6.83026">
        <ele>575.21</ele>
        <time>2021-06-23T13:17:15Z</time>
      </trkpt>
      <trkpt lat="47.94137" lon="6.83038">
        <ele>574.24</ele>
        <time>2021-06-23T13:17:23Z</time>
      </trkpt>
      <trkpt lat="47.94272" lon="6.83156">
        <ele>574.79</ele>
        <time>2021-06-23T13:17:31Z</time>
      </trkpt>
      <trkpt lat="47.94344" lon="6.83231">
        <ele>570.2</ele>
        <time>2021-06-23T13:17:39Z</time>
      </trkpt>
      <trkpt lat="47.94359" lon="6.83241">
        <ele>569.27</ele>
        <time>2021-06-23T13:17:47Z</time>
      </trkpt>
      <trkpt lat="47.94363" lon="6.83242">
        <ele>568.34</ele>
        <time>2021-06-23T13:17:55Z</time>
      </trkpt>
      <trkpt lat="47.94363" lon="6.83242">
        <ele>568.34</ele>
        <time>2021-06-23T13:17:55Z</time>
      </trkpt>
      <trkpt lat="47.94386" lon="6.83247">
        <ele>567.41</ele>
        <time>2021-06-23T13:17:58Z</time>
      </trkpt>
      <trkpt lat="47.94401" lon="6.83247">
        <ele>566.8</ele>
        <time>2021-06-23T13:18:01Z</time>
      </trkpt>
      <trkpt lat="47.94426" lon="6.83241">
        <ele>565.37</ele>
        <time>2021-06-23T13:18:05Z</time>
      </trkpt>
      <trkpt lat="47.94442" lon="6.83231">
        <ele>563.99</ele>
        <time>2021-06-23T13:18:08Z</time>
      </trkpt>
      <trkpt lat="47.94458" lon="6.83216">
        <ele>562.79</ele>
        <time>2021-06-23T13:18:12Z</time>
      </trkpt>
      <trkpt lat="47.94492" lon="6.83167">
        <ele>561.58</ele>
        <time>2021-06-23T13:18:15Z</time>
      </trkpt>
      <trkpt lat="47.94518" lon="6.8314">
        <ele>562.57</ele>
        <time>2021-06-23T13:18:19Z</time>
      </trkpt>
      <trkpt lat="47.94582" lon="6.83107">
        <ele>554.73</ele>
        <time>2021-06-23T13:18:22Z</time>
      </trkpt>
      <trkpt lat="47.94779" lon="6.83002">
        <ele>551</ele>
        <time>2021-06-23T13:18:26Z</time>
      </trkpt>
      <trkpt lat="47.948" lon="6.82975">
        <ele>551.42</ele>
        <time>2021-06-23T13:18:29Z</time>
      </trkpt>
      <trkpt lat="47.94807" lon="6.82957">
        <ele>551.54</ele>
        <time>2021-06-23T13:18:33Z</time>
      </trkpt>
      <trkpt lat="47.94825" lon="6.829">
        <ele>551.14</ele>
        <time>2021-06-23T13:18:36Z</time>
      </trkpt>
      <trkpt lat="47.94845" lon="6.82844">
        <ele>550.61</ele>
        <time>2021-06-23T13:18:40Z</time>
      </trkpt>
      <trkpt lat="47.94859" lon="6.82823">
        <ele>550.11</ele>
        <time>2021-06-23T13:18:43Z</time>
      </trkpt>
      <trkpt lat="47.94882" lon="6.82802">
        <ele>549.72</ele>
        <time>2021-06-23T13:18:46Z</time>
      </trkpt>
      <trkpt lat="47.94909" lon="6.82787">
        <ele>547.28</ele>
        <time>2021-06-23T13:18:50Z</time>
      </trkpt>
      <trkpt lat="47.94919" lon="6.82783">
        <ele>546</ele>
        <time>2021-06-23T13:18:53Z</time>
      </trkpt>
      <trkpt lat="47.94937" lon="6.8278">
        <ele>544.62</ele>
        <time>2021-06-23T13:18:57Z</time>
      </trkpt>
      <trkpt lat="47.94989" lon="6.82785">
        <ele>543.26</ele>
        <time>2021-06-23T13:19:00Z</time>
      </trkpt>
      <trkpt lat="47.95025" lon="6.82795">
        <ele>544.18</ele>
        <time>2021-06-23T13:19:04Z</time>
      </trkpt>
      <trkpt lat="47.95049" lon="6.82799">
        <ele>545.29</ele>
        <time>2021-06-23T13:19:07Z</time>
      </trkpt>
      <trkpt lat="47.95062" lon="6.82798">
        <ele>545.49</ele>
        <time>2021-06-23T13:19:11Z</time>
      </trkpt>
      <trkpt lat="47.95081" lon="6.82792">
        <ele>545.04</ele>
        <time>2021-06-23T13:19:14Z</time>
      </trkpt>
      <trkpt lat="47.95101" lon="6.82779">
        <ele>544.72</ele>
        <time>2021-06-23T13:19:18Z</time>
      </trkpt>
      <trkpt lat="47.9512" lon="6.8276">
        <ele>543.35</ele>
        <time>2021-06-23T13:19:21Z</time>
      </trkpt>
      <trkpt lat="47.95149" lon="6.82713">
        <ele>540.33</ele>
        <time>2021-06-23T13:19:25Z</time>
      </trkpt>
      <trkpt lat="47.95166" lon="6.82684">
        <ele>538.66</ele>
        <time>2021-06-23T13:19:28Z</time>
      </trkpt>
      <trkpt lat="47.95206" lon="6.82608">
        <ele>534.97</ele>
        <time>2021-06-23T13:19:32Z</time>
      </trkpt>
      <trkpt lat="47.9522" lon="6.82588">
        <ele>533.54</ele>
        <time>2021-06-23T13:19:35Z</time>
      </trkpt>
      <trkpt lat="47.9524" lon="6.82561">
        <ele>529.71</ele>
        <time>2021-06-23T13:19:38Z</time>
      </trkpt>
      <trkpt lat="47.95267" lon="6.82532">
        <ele>524.81</ele>
        <time>2021-06-23T13:19:42Z</time>
      </trkpt>
      <trkpt lat="47.9528" lon="6.82519">
        <ele>523.73</ele>
        <time>2021-06-23T13:19:45Z</time>
      </trkpt>
      <trkpt lat="47.95298" lon="6.82508">
        <ele>523.46</ele>
        <time>2021-06-23T13:19:49Z</time>
      </trkpt>
      <trkpt lat="47.95315" lon="6.825">
        <ele>523.02</ele>
        <time>2021-06-23T13:19:52Z</time>
      </trkpt>
      <trkpt lat="47.95361" lon="6.82491">
        <ele>520.68</ele>
        <time>2021-06-23T13:19:56Z</time>
      </trkpt>
      <trkpt lat="47.95375" lon="6.82486">
        <ele>518.96</ele>
        <time>2021-06-23T13:19:59Z</time>
      </trkpt>
      <trkpt lat="47.95386" lon="6.82477">
        <ele>517.47</ele>
        <time>2021-06-23T13:20:03Z</time>
      </trkpt>
      <trkpt lat="47.95423" lon="6.8242">
        <ele>516.23</ele>
        <time>2021-06-23T13:20:06Z</time>
      </trkpt>
      <trkpt lat="47.9544" lon="6.82401">
        <ele>515.72</ele>
        <time>2021-06-23T13:20:10Z</time>
      </trkpt>
      <trkpt lat="47.95453" lon="6.8242">
        <ele>513.37</ele>
        <time>2021-06-23T13:20:14Z</time>
      </trkpt>
      <trkpt lat="47.95477" lon="6.8245">
        <ele>512.17</ele>
        <time>2021-06-23T13:20:18Z</time>
      </trkpt>
      <trkpt lat="47.95482" lon="6.82458">
        <ele>512.49</ele>
        <time>2021-06-23T13:20:22Z</time>
      </trkpt>
      <trkpt lat="47.95486" lon="6.82473">
        <ele>513</ele>
        <time>2021-06-23T13:20:26Z</time>
      </trkpt>
      <trkpt lat="47.95495" lon="6.82513">
        <ele>514.09</ele>
        <time>2021-06-23T13:20:30Z</time>
      </trkpt>
      <trkpt lat="47.95499" lon="6.82526">
        <ele>514.02</ele>
        <time>2021-06-23T13:20:34Z</time>
      </trkpt>
      <trkpt lat="47.95508" lon="6.82543">
        <ele>513.3</ele>
        <time>2021-06-23T13:20:38Z</time>
      </trkpt>
      <trkpt lat="47.95516" lon="6.82552">
        <ele>512.3</ele>
        <time>2021-06-23T13:20:42Z</time>
      </trkpt>
      <trkpt lat="47.95543" lon="6.82566">
        <ele>509.83</ele>
        <time>2021-06-23T13:20:46Z</time>
      </trkpt>
      <trkpt lat="47.9557" lon="6.82585">
        <ele>505.95</ele>
        <time>2021-06-23T13:20:50Z</time>
      </trkpt>
      <trkpt lat="47.95593" lon="6.82613">
        <ele>503.82</ele>
        <time>2021-06-23T13:20:54Z</time>
      </trkpt>
      <trkpt lat="47.95701" lon="6.82803">
        <ele>507.77</ele>
        <time>2021-06-23T13:20:58Z</time>
      </trkpt>
      <trkpt lat="47.95707" lon="6.82817">
        <ele>507.94</ele>
        <time>2021-06-23T13:21:02Z</time>
      </trkpt>
      <trkpt lat="47.95774" lon="6.82761">
        <ele>505.05</ele>
        <time>2021-06-23T13:21:12Z</time>
      </trkpt>
      <trkpt lat="47.95887" lon="6.82641">
        <ele>497.17</ele>
        <time>2021-06-23T13:21:22Z</time>
      </trkpt>
      <trkpt lat="47.95907" lon="6.82623">
        <ele>497.85</ele>
        <time>2021-06-23T13:21:33Z</time>
      </trkpt>
      <trkpt lat="47.95927" lon="6.82615">
        <ele>498</ele>
        <time>2021-06-23T13:21:43Z</time>
      </trkpt>
      <trkpt lat="47.95954" lon="6.82617">
        <ele>498</ele>
        <time>2021-06-23T13:21:53Z</time>
      </trkpt>
      <trkpt lat="47.96003" lon="6.82627">
        <ele>498.95</ele>
        <time>2021-06-23T13:22:04Z</time>
      </trkpt>
      <trkpt lat="47.96003" lon="6.82618">
        <ele>499.29</ele>
        <time>2021-06-23T13:22:04Z</time>
      </trkpt>
      <trkpt lat="47.96003" lon="6.82618">
        <ele>499.29</ele>
        <time>2021-06-23T13:22:04Z</time>
      </trkpt>
      <trkpt lat="47.96002" lon="6.82603">
        <ele>499.7</ele>
        <time>2021-06-23T13:22:08Z</time>
      </trkpt>
      <trkpt lat="47.95974" lon="6.82519">
        <ele>502.67</ele>
        <time>2021-06-23T13:22:13Z</time>
      </trkpt>
      <trkpt lat="47.95962" lon="6.82465">
        <ele>499.02</ele>
        <time>2021-06-23T13:22:17Z</time>
      </trkpt>
      <trkpt lat="47.95945" lon="6.82368">
        <ele>502.71</ele>
        <time>2021-06-23T13:22:21Z</time>
      </trkpt>
      <trkpt lat="47.95921" lon="6.82293">
        <ele>501.98</ele>
        <time>2021-06-23T13:22:25Z</time>
      </trkpt>
      <trkpt lat="47.95902" lon="6.8224">
        <ele>504.37</ele>
        <time>2021-06-23T13:22:29Z</time>
      </trkpt>
      <trkpt lat="47.95842" lon="6.82094">
        <ele>505.33</ele>
        <time>2021-06-23T13:22:33Z</time>
      </trkpt>
      <trkpt lat="47.95834" lon="6.8207">
        <ele>506.48</ele>
        <time>2021-06-23T13:22:38Z</time>
      </trkpt>
      <trkpt lat="47.95816" lon="6.81996">
        <ele>507.11</ele>
        <time>2021-06-23T13:22:42Z</time>
      </trkpt>
      <trkpt lat="47.95786" lon="6.81922">
        <ele>502.24</ele>
        <time>2021-06-23T13:22:46Z</time>
      </trkpt>
      <trkpt lat="47.95737" lon="6.81779">
        <ele>500.44</ele>
        <time>2021-06-23T13:22:50Z</time>
      </trkpt>
      <trkpt lat="47.95723" lon="6.81751">
        <ele>503.06</ele>
        <time>2021-06-23T13:22:54Z</time>
      </trkpt>
      <trkpt lat="47.95716" lon="6.81738">
        <ele>502.73</ele>
        <time>2021-06-23T13:22:58Z</time>
      </trkpt>
      <trkpt lat="47.95707" lon="6.81728">
        <ele>500.99</ele>
        <time>2021-06-23T13:23:02Z</time>
      </trkpt>
      <trkpt lat="47.95649" lon="6.81695">
        <ele>492.75</ele>
        <time>2021-06-23T13:23:07Z</time>
      </trkpt>
      <trkpt lat="47.95636" lon="6.81682">
        <ele>491.94</ele>
        <time>2021-06-23T13:23:11Z</time>
      </trkpt>
      <trkpt lat="47.95628" lon="6.81669">
        <ele>491.96</ele>
        <time>2021-06-23T13:23:15Z</time>
      </trkpt>
      <trkpt lat="47.95625" lon="6.81654">
        <ele>492.66</ele>
        <time>2021-06-23T13:23:19Z</time>
      </trkpt>
      <trkpt lat="47.95624" lon="6.81613">
        <ele>495.79</ele>
        <time>2021-06-23T13:23:23Z</time>
      </trkpt>
      <trkpt lat="47.95628" lon="6.81576">
        <ele>498.77</ele>
        <time>2021-06-23T13:23:27Z</time>
      </trkpt>
      <trkpt lat="47.95634" lon="6.81548">
        <ele>502.16</ele>
        <time>2021-06-23T13:23:32Z</time>
      </trkpt>
      <trkpt lat="47.95635" lon="6.81531">
        <ele>505.16</ele>
        <time>2021-06-23T13:23:36Z</time>
      </trkpt>
      <trkpt lat="47.95576" lon="6.81361">
        <ele>501.45</ele>
        <time>2021-06-23T13:23:40Z</time>
      </trkpt>
      <trkpt lat="47.95548" lon="6.8129">
        <ele>503.43</ele>
        <time>2021-06-23T13:23:44Z</time>
      </trkpt>
      <trkpt lat="47.95518" lon="6.81224">
        <ele>505.89</ele>
        <time>2021-06-23T13:23:48Z</time>
      </trkpt>
      <trkpt lat="47.95491" lon="6.81172">
        <ele>506.89</ele>
        <time>2021-06-23T13:23:52Z</time>
      </trkpt>
      <trkpt lat="47.95462" lon="6.81124">
        <ele>501.91</ele>
        <time>2021-06-23T13:23:56Z</time>
      </trkpt>
      <trkpt lat="47.95447" lon="6.81104">
        <ele>499.9</ele>
        <time>2021-06-23T13:24:01Z</time>
      </trkpt>
      <trkpt lat="47.95432" lon="6.81091">
        <ele>498.14</ele>
        <time>2021-06-23T13:24:05Z</time>
      </trkpt>
      <trkpt lat="47.95421" lon="6.81084">
        <ele>496.07</ele>
        <time>2021-06-23T13:24:09Z</time>
      </trkpt>
      <trkpt lat="47.95404" lon="6.8108">
        <ele>493.68</ele>
        <time>2021-06-23T13:24:13Z</time>
      </trkpt>
      <trkpt lat="47.95369" lon="6.81081">
        <ele>491.38</ele>
        <time>2021-06-23T13:24:17Z</time>
      </trkpt>
      <trkpt lat="47.95359" lon="6.81077">
        <ele>491.3</ele>
        <time>2021-06-23T13:24:21Z</time>
      </trkpt>
      <trkpt lat="47.95325" lon="6.81048">
        <ele>491.32</ele>
        <time>2021-06-23T13:24:26Z</time>
      </trkpt>
      <trkpt lat="47.95288" lon="6.81008">
        <ele>490.89</ele>
        <time>2021-06-23T13:24:30Z</time>
      </trkpt>
      <trkpt lat="47.95281" lon="6.80993">
        <ele>491.55</ele>
        <time>2021-06-23T13:24:34Z</time>
      </trkpt>
      <trkpt lat="47.95274" lon="6.80972">
        <ele>492.95</ele>
        <time>2021-06-23T13:24:38Z</time>
      </trkpt>
      <trkpt lat="47.95247" lon="6.80844">
        <ele>491.68</ele>
        <time>2021-06-23T13:24:42Z</time>
      </trkpt>
      <trkpt lat="47.95238" lon="6.80808">
        <ele>492.14</ele>
        <time>2021-06-23T13:24:46Z</time>
      </trkpt>
      <trkpt lat="47.95228" lon="6.80777">
        <ele>493.92</ele>
        <time>2021-06-23T13:24:51Z</time>
      </trkpt>
      <trkpt lat="47.95215" lon="6.80749">
        <ele>494.82</ele>
        <time>2021-06-23T13:24:55Z</time>
      </trkpt>
      <trkpt lat="47.952" lon="6.80719">
        <ele>492.66</ele>
        <time>2021-06-23T13:24:59Z</time>
      </trkpt>
      <trkpt lat="47.95184" lon="6.80697">
        <ele>490.65</ele>
        <time>2021-06-23T13:25:03Z</time>
      </trkpt>
      <trkpt lat="47.95147" lon="6.80651">
        <ele>489.58</ele>
        <time>2021-06-23T13:25:07Z</time>
      </trkpt>
      <trkpt lat="47.95126" lon="6.80637">
        <ele>487.37</ele>
        <time>2021-06-23T13:25:11Z</time>
      </trkpt>
      <trkpt lat="47.95109" lon="6.80632">
        <ele>485.72</ele>
        <time>2021-06-23T13:25:15Z</time>
      </trkpt>
      <trkpt lat="47.95106" lon="6.80608">
        <ele>487.98</ele>
        <time>2021-06-23T13:25:20Z</time>
      </trkpt>
      <trkpt lat="47.95102" lon="6.80594">
        <ele>488.91</ele>
        <time>2021-06-23T13:25:24Z</time>
      </trkpt>
      <trkpt lat="47.95081" lon="6.80549">
        <ele>487.56</ele>
        <time>2021-06-23T13:25:28Z</time>
      </trkpt>
      <trkpt lat="47.95061" lon="6.80464">
        <ele>488.9</ele>
        <time>2021-06-23T13:25:32Z</time>
      </trkpt>
      <trkpt lat="47.95032" lon="6.80348">
        <ele>489.2</ele>
        <time>2021-06-23T13:25:37Z</time>
      </trkpt>
      <trkpt lat="47.95014" lon="6.8029">
        <ele>491.96</ele>
        <time>2021-06-23T13:25:41Z</time>
      </trkpt>
      <trkpt lat="47.95004" lon="6.80261">
        <ele>492.99</ele>
        <time>2021-06-23T13:25:45Z</time>
      </trkpt>
      <trkpt lat="47.94978" lon="6.80208">
        <ele>485.25</ele>
        <time>2021-06-23T13:25:49Z</time>
      </trkpt>
      <trkpt lat="47.9496" lon="6.80179">
        <ele>482.38</ele>
        <time>2021-06-23T13:25:54Z</time>
      </trkpt>
      <trkpt lat="47.94899" lon="6.80097">
        <ele>479.43</ele>
        <time>2021-06-23T13:25:58Z</time>
      </trkpt>
      <trkpt lat="47.94826" lon="6.80016">
        <ele>479.57</ele>
        <time>2021-06-23T13:26:02Z</time>
      </trkpt>
      <trkpt lat="47.94814" lon="6.79997">
        <ele>480.07</ele>
        <time>2021-06-23T13:26:06Z</time>
      </trkpt>
      <trkpt lat="47.94806" lon="6.79968">
        <ele>480.02</ele>
        <time>2021-06-23T13:26:10Z</time>
      </trkpt>
      <trkpt lat="47.94773" lon="6.79831">
        <ele>480.55</ele>
        <time>2021-06-23T13:26:15Z</time>
      </trkpt>
      <trkpt lat="47.94749" lon="6.79718">
        <ele>478.72</ele>
        <time>2021-06-23T13:26:19Z</time>
      </trkpt>
      <trkpt lat="47.94746" lon="6.79679">
        <ele>478.16</ele>
        <time>2021-06-23T13:26:23Z</time>
      </trkpt>
      <trkpt lat="47.9475" lon="6.7968">
        <ele>478.92</ele>
        <time>2021-06-23T13:26:25Z</time>
      </trkpt>
      <trkpt lat="47.94755" lon="6.79687">
        <ele>480.51</ele>
        <time>2021-06-23T13:26:27Z</time>
      </trkpt>
      <trkpt lat="47.94762" lon="6.79712">
        <ele>483.33</ele>
        <time>2021-06-23T13:26:28Z</time>
      </trkpt>
      <trkpt lat="47.94762" lon="6.79712">
        <ele>483.33</ele>
        <time>2021-06-23T13:26:28Z</time>
      </trkpt>
      <trkpt lat="47.94755" lon="6.79687">
        <ele>480.51</ele>
        <time>2021-06-23T13:26:30Z</time>
      </trkpt>
      <trkpt lat="47.9475" lon="6.7968">
        <ele>478.92</ele>
        <time>2021-06-23T13:26:32Z</time>
      </trkpt>
      <trkpt lat="47.94746" lon="6.79679">
        <ele>478.16</ele>
        <time>2021-06-23T13:26:34Z</time>
      </trkpt>
      <trkpt lat="47.9475" lon="6.79579">
        <ele>479.81</ele>
        <time>2021-06-23T13:26:40Z</time>
      </trkpt>
      <trkpt lat="47.94756" lon="6.79501">
        <ele>475.43</ele>
        <time>2021-06-23T13:26:47Z</time>
      </trkpt>
      <trkpt lat="47.94765" lon="6.79397">
        <ele>473.34</ele>
        <time>2021-06-23T13:26:53Z</time>
      </trkpt>
      <trkpt lat="47.94779" lon="6.79276">
        <ele>477.95</ele>
        <time>2021-06-23T13:27:00Z</time>
      </trkpt>
      <trkpt lat="47.948" lon="6.79112">
        <ele>471.78</ele>
        <time>2021-06-23T13:27:06Z</time>
      </trkpt>
      <trkpt lat="47.94819" lon="6.79045">
        <ele>472.47</ele>
        <time>2021-06-23T13:27:13Z</time>
      </trkpt>
      <trkpt lat="47.94845" lon="6.78896">
        <ele>471.4</ele>
        <time>2021-06-23T13:27:19Z</time>
      </trkpt>
      <trkpt lat="47.94853" lon="6.78806">
        <ele>470</ele>
        <time>2021-06-23T13:27:26Z</time>
      </trkpt>
      <trkpt lat="47.94866" lon="6.78757">
        <ele>470.04</ele>
        <time>2021-06-23T13:27:32Z</time>
      </trkpt>
      <trkpt lat="47.94919" lon="6.78573">
        <ele>468.63</ele>
        <time>2021-06-23T13:27:39Z</time>
      </trkpt>
      <trkpt lat="47.94933" lon="6.78528">
        <ele>468</ele>
        <time>2021-06-23T13:27:45Z</time>
      </trkpt>
      <trkpt lat="47.94958" lon="6.78465">
        <ele>467</ele>
        <time>2021-06-23T13:27:52Z</time>
      </trkpt>
      <trkpt lat="47.94979" lon="6.78436">
        <ele>467.39</ele>
        <time>2021-06-23T13:27:58Z</time>
      </trkpt>
      <trkpt lat="47.95014" lon="6.78407">
        <ele>469.49</ele>
        <time>2021-06-23T13:28:05Z</time>
      </trkpt>
      <trkpt lat="47.95026" lon="6.78386">
        <ele>470.69</ele>
        <time>2021-06-23T13:28:11Z</time>
      </trkpt>
      <trkpt lat="47.95033" lon="6.78298">
        <ele>468.86</ele>
        <time>2021-06-23T13:28:18Z</time>
      </trkpt>
      <trkpt lat="47.95039" lon="6.78273">
        <ele>468.9</ele>
        <time>2021-06-23T13:28:24Z</time>
      </trkpt>
      <trkpt lat="47.95074" lon="6.78213">
        <ele>469.67</ele>
        <time>2021-06-23T13:28:31Z</time>
      </trkpt>
      <trkpt lat="47.95087" lon="6.78189">
        <ele>469.81</ele>
        <time>2021-06-23T13:28:37Z</time>
      </trkpt>
      <trkpt lat="47.95096" lon="6.78165">
        <ele>469.39</ele>
        <time>2021-06-23T13:28:44Z</time>
      </trkpt>
      <trkpt lat="47.95098" lon="6.78151">
        <ele>468.96</ele>
        <time>2021-06-23T13:28:50Z</time>
      </trkpt>
      <trkpt lat="47.95096" lon="6.78135">
        <ele>468.33</ele>
        <time>2021-06-23T13:28:57Z</time>
      </trkpt>
      <trkpt lat="47.95093" lon="6.78121">
        <ele>467.68</ele>
        <time>2021-06-23T13:29:03Z</time>
      </trkpt>
      <trkpt lat="47.95099" lon="6.78117">
        <ele>467.78</ele>
        <time>2021-06-23T13:29:10Z</time>
      </trkpt>
      <trkpt lat="47.95106" lon="6.78108">
        <ele>467.81</ele>
        <time>2021-06-23T13:29:17Z</time>
      </trkpt>
      <trkpt lat="47.95176" lon="6.77954">
        <ele>470.99</ele>
        <time>2021-06-23T13:29:24Z</time>
      </trkpt>
      <trkpt lat="47.95185" lon="6.77944">
        <ele>471.66</ele>
        <time>2021-06-23T13:29:31Z</time>
      </trkpt>
      <trkpt lat="47.95211" lon="6.77931">
        <ele>472.85</ele>
        <time>2021-06-23T13:29:38Z</time>
      </trkpt>
      <trkpt lat="47.95258" lon="6.77918">
        <ele>473.63</ele>
        <time>2021-06-23T13:29:45Z</time>
      </trkpt>
      <trkpt lat="47.95258" lon="6.77918">
        <ele>473.63</ele>
        <time>2021-06-23T13:29:45Z</time>
      </trkpt>
      <trkpt lat="47.95211" lon="6.77931">
        <ele>472.85</ele>
        <time>2021-06-23T13:29:52Z</time>
      </trkpt>
      <trkpt lat="47.95185" lon="6.77944">
        <ele>471.66</ele>
        <time>2021-06-23T13:29:59Z</time>
      </trkpt>
      <trkpt lat="47.95176" lon="6.77954">
        <ele>470.99</ele>
        <time>2021-06-23T13:30:06Z</time>
      </trkpt>
      <trkpt lat="47.95106" lon="6.78108">
        <ele>467.81</ele>
        <time>2021-06-23T13:30:13Z</time>
      </trkpt>
      <trkpt lat="47.95099" lon="6.78117">
        <ele>467.78</ele>
        <time>2021-06-23T13:30:20Z</time>
      </trkpt>
      <trkpt lat="47.95093" lon="6.78121">
        <ele>467.68</ele>
        <time>2021-06-23T13:30:27Z</time>
      </trkpt>
      <trkpt lat="47.95096" lon="6.78135">
        <ele>468.33</ele>
        <time>2021-06-23T13:30:33Z</time>
      </trkpt>
      <trkpt lat="47.95098" lon="6.78151">
        <ele>468.96</ele>
        <time>2021-06-23T13:30:40Z</time>
      </trkpt>
      <trkpt lat="47.95096" lon="6.78165">
        <ele>469.39</ele>
        <time>2021-06-23T13:30:46Z</time>
      </trkpt>
      <trkpt lat="47.95087" lon="6.78189">
        <ele>469.81</ele>
        <time>2021-06-23T13:30:52Z</time>
      </trkpt>
      <trkpt lat="47.95074" lon="6.78213">
        <ele>469.67</ele>
        <time>2021-06-23T13:30:58Z</time>
      </trkpt>
      <trkpt lat="47.95039" lon="6.78273">
        <ele>468.9</ele>
        <time>2021-06-23T13:31:05Z</time>
      </trkpt>
      <trkpt lat="47.95033" lon="6.78298">
        <ele>468.86</ele>
        <time>2021-06-23T13:31:11Z</time>
      </trkpt>
      <trkpt lat="47.95026" lon="6.78386">
        <ele>470.69</ele>
        <time>2021-06-23T13:31:17Z</time>
      </trkpt>
      <trkpt lat="47.95014" lon="6.78407">
        <ele>469.49</ele>
        <time>2021-06-23T13:31:24Z</time>
      </trkpt>
      <trkpt lat="47.94979" lon="6.78436">
        <ele>467.39</ele>
        <time>2021-06-23T13:31:30Z</time>
      </trkpt>
      <trkpt lat="47.94958" lon="6.78465">
        <ele>467</ele>
        <time>2021-06-23T13:31:36Z</time>
      </trkpt>
      <trkpt lat="47.94933" lon="6.78528">
        <ele>468</ele>
        <time>2021-06-23T13:31:42Z</time>
      </trkpt>
      <trkpt lat="47.94919" lon="6.78573">
        <ele>468.63</ele>
        <time>2021-06-23T13:31:49Z</time>
      </trkpt>
      <trkpt lat="47.94866" lon="6.78757">
        <ele>470.04</ele>
        <time>2021-06-23T13:31:55Z</time>
      </trkpt>
      <trkpt lat="47.94853" lon="6.78806">
        <ele>470</ele>
        <time>2021-06-23T13:32:01Z</time>
      </trkpt>
      <trkpt lat="47.94845" lon="6.78896">
        <ele>471.4</ele>
        <time>2021-06-23T13:32:07Z</time>
      </trkpt>
      <trkpt lat="47.94819" lon="6.79045">
        <ele>472.47</ele>
        <time>2021-06-23T13:32:14Z</time>
      </trkpt>
      <trkpt lat="47.948" lon="6.79112">
        <ele>471.78</ele>
        <time>2021-06-23T13:32:20Z</time>
      </trkpt>
      <trkpt lat="47.94779" lon="6.79276">
        <ele>477.95</ele>
        <time>2021-06-23T13:32:26Z</time>
      </trkpt>
      <trkpt lat="47.94765" lon="6.79397">
        <ele>473.34</ele>
        <time>2021-06-23T13:32:33Z</time>
      </trkpt>
      <trkpt lat="47.94756" lon="6.79501">
        <ele>475.43</ele>
        <time>2021-06-23T13:32:39Z</time>
      </trkpt>
      <trkpt lat="47.9475" lon="6.79579">
        <ele>479.81</ele>
        <time>2021-06-23T13:32:45Z</time>
      </trkpt>
      <trkpt lat="47.94746" lon="6.79679">
        <ele>478.16</ele>
        <time>2021-06-23T13:32:51Z</time>
      </trkpt>
      <trkpt lat="47.94747" lon="6.79695">
        <ele>478.44</ele>
        <time>2021-06-23T13:32:58Z</time>
      </trkpt>
      <trkpt lat="47.94747" lon="6.79695">
        <ele>478.44</ele>
        <time>2021-06-23T13:32:58Z</time>
      </trkpt>
      <trkpt lat="47.94749" lon="6.79718">
        <ele>478.72</ele>
        <time>2021-06-23T13:33:02Z</time>
      </trkpt>
      <trkpt lat="47.94773" lon="6.79831">
        <ele>480.55</ele>
        <time>2021-06-23T13:33:06Z</time>
      </trkpt>
      <trkpt lat="47.94806" lon="6.79968">
        <ele>480.02</ele>
        <time>2021-06-23T13:33:11Z</time>
      </trkpt>
      <trkpt lat="47.94814" lon="6.79997">
        <ele>480.07</ele>
        <time>2021-06-23T13:33:15Z</time>
      </trkpt>
      <trkpt lat="47.94826" lon="6.80016">
        <ele>479.57</ele>
        <time>2021-06-23T13:33:19Z</time>
      </trkpt>
      <trkpt lat="47.94899" lon="6.80097">
        <ele>479.43</ele>
        <time>2021-06-23T13:33:24Z</time>
      </trkpt>
      <trkpt lat="47.9496" lon="6.80179">
        <ele>482.38</ele>
        <time>2021-06-23T13:33:28Z</time>
      </trkpt>
      <trkpt lat="47.94978" lon="6.80208">
        <ele>485.25</ele>
        <time>2021-06-23T13:33:33Z</time>
      </trkpt>
      <trkpt lat="47.95004" lon="6.80261">
        <ele>492.99</ele>
        <time>2021-06-23T13:33:37Z</time>
      </trkpt>
      <trkpt lat="47.95014" lon="6.8029">
        <ele>491.96</ele>
        <time>2021-06-23T13:33:41Z</time>
      </trkpt>
      <trkpt lat="47.95032" lon="6.80348">
        <ele>489.2</ele>
        <time>2021-06-23T13:33:46Z</time>
      </trkpt>
      <trkpt lat="47.95061" lon="6.80464">
        <ele>488.9</ele>
        <time>2021-06-23T13:33:50Z</time>
      </trkpt>
      <trkpt lat="47.95081" lon="6.80549">
        <ele>487.56</ele>
        <time>2021-06-23T13:33:54Z</time>
      </trkpt>
      <trkpt lat="47.95102" lon="6.80594">
        <ele>488.91</ele>
        <time>2021-06-23T13:33:59Z</time>
      </trkpt>
      <trkpt lat="47.95106" lon="6.80608">
        <ele>487.98</ele>
        <time>2021-06-23T13:34:03Z</time>
      </trkpt>
      <trkpt lat="47.95109" lon="6.80632">
        <ele>485.72</ele>
        <time>2021-06-23T13:34:08Z</time>
      </trkpt>
      <trkpt lat="47.95104" lon="6.80697">
        <ele>487.1</ele>
        <time>2021-06-23T13:34:12Z</time>
      </trkpt>
      <trkpt lat="47.95106" lon="6.80727">
        <ele>488.26</ele>
        <time>2021-06-23T13:34:16Z</time>
      </trkpt>
      <trkpt lat="47.95116" lon="6.8077">
        <ele>487.79</ele>
        <time>2021-06-23T13:34:21Z</time>
      </trkpt>
      <trkpt lat="47.95155" lon="6.80849">
        <ele>489.53</ele>
        <time>2021-06-23T13:34:25Z</time>
      </trkpt>
      <trkpt lat="47.95191" lon="6.8096">
        <ele>482.94</ele>
        <time>2021-06-23T13:34:29Z</time>
      </trkpt>
      <trkpt lat="47.95198" lon="6.8099">
        <ele>484.07</ele>
        <time>2021-06-23T13:34:34Z</time>
      </trkpt>
      <trkpt lat="47.952" lon="6.8103">
        <ele>485.51</ele>
        <time>2021-06-23T13:34:38Z</time>
      </trkpt>
      <trkpt lat="47.95199" lon="6.81113">
        <ele>484.06</ele>
        <time>2021-06-23T13:34:42Z</time>
      </trkpt>
      <trkpt lat="47.95202" lon="6.8116">
        <ele>485.74</ele>
        <time>2021-06-23T13:34:47Z</time>
      </trkpt>
      <trkpt lat="47.95224" lon="6.81277">
        <ele>487.92</ele>
        <time>2021-06-23T13:34:51Z</time>
      </trkpt>
      <trkpt lat="47.95227" lon="6.81304">
        <ele>488.75</ele>
        <time>2021-06-23T13:34:56Z</time>
      </trkpt>
      <trkpt lat="47.95227" lon="6.81326">
        <ele>488.95</ele>
        <time>2021-06-23T13:35:00Z</time>
      </trkpt>
      <trkpt lat="47.95216" lon="6.81444">
        <ele>492.97</ele>
        <time>2021-06-23T13:35:04Z</time>
      </trkpt>
      <trkpt lat="47.95214" lon="6.81492">
        <ele>496.15</ele>
        <time>2021-06-23T13:35:09Z</time>
      </trkpt>
      <trkpt lat="47.95221" lon="6.81654">
        <ele>501.55</ele>
        <time>2021-06-23T13:35:13Z</time>
      </trkpt>
      <trkpt lat="47.95231" lon="6.81708">
        <ele>503</ele>
        <time>2021-06-23T13:35:17Z</time>
      </trkpt>
      <trkpt lat="47.95224" lon="6.81737">
        <ele>503</ele>
        <time>2021-06-23T13:35:22Z</time>
      </trkpt>
      <trkpt lat="47.95218" lon="6.81737">
        <ele>503</ele>
        <time>2021-06-23T13:35:26Z</time>
      </trkpt>
      <trkpt lat="47.95211" lon="6.8174">
        <ele>503</ele>
        <time>2021-06-23T13:35:31Z</time>
      </trkpt>
      <trkpt lat="47.95206" lon="6.81747">
        <ele>503</ele>
        <time>2021-06-23T13:35:35Z</time>
      </trkpt>
      <trkpt lat="47.95202" lon="6.81756">
        <ele>503.09</ele>
        <time>2021-06-23T13:35:40Z</time>
      </trkpt>
      <trkpt lat="47.95202" lon="6.81765">
        <ele>503.26</ele>
        <time>2021-06-23T13:35:44Z</time>
      </trkpt>
      <trkpt lat="47.95203" lon="6.81774">
        <ele>503.33</ele>
        <time>2021-06-23T13:35:49Z</time>
      </trkpt>
      <trkpt lat="47.9521" lon="6.81787">
        <ele>503.05</ele>
        <time>2021-06-23T13:35:53Z</time>
      </trkpt>
      <trkpt lat="47.9522" lon="6.81791">
        <ele>502.57</ele>
        <time>2021-06-23T13:35:58Z</time>
      </trkpt>
      <trkpt lat="47.95231" lon="6.81797">
        <ele>502.79</ele>
        <time>2021-06-23T13:36:02Z</time>
      </trkpt>
      <trkpt lat="47.95258" lon="6.81824">
        <ele>504.88</ele>
        <time>2021-06-23T13:36:07Z</time>
      </trkpt>
      <trkpt lat="47.95343" lon="6.81965">
        <ele>511.85</ele>
        <time>2021-06-23T13:36:11Z</time>
      </trkpt>
      <trkpt lat="47.95361" lon="6.82002">
        <ele>513.13</ele>
        <time>2021-06-23T13:36:16Z</time>
      </trkpt>
      <trkpt lat="47.95372" lon="6.82037">
        <ele>513.97</ele>
        <time>2021-06-23T13:36:20Z</time>
      </trkpt>
      <trkpt lat="47.95375" lon="6.82049">
        <ele>513.91</ele>
        <time>2021-06-23T13:36:25Z</time>
      </trkpt>
      <trkpt lat="47.95378" lon="6.8207">
        <ele>513.84</ele>
        <time>2021-06-23T13:36:29Z</time>
      </trkpt>
      <trkpt lat="47.95383" lon="6.8212">
        <ele>514.16</ele>
        <time>2021-06-23T13:36:33Z</time>
      </trkpt>
      <trkpt lat="47.95395" lon="6.82179">
        <ele>515.02</ele>
        <time>2021-06-23T13:36:38Z</time>
      </trkpt>
      <trkpt lat="47.95404" lon="6.82209">
        <ele>514.38</ele>
        <time>2021-06-23T13:36:42Z</time>
      </trkpt>
      <trkpt lat="47.95426" lon="6.82263">
        <ele>512.59</ele>
        <time>2021-06-23T13:36:47Z</time>
      </trkpt>
      <trkpt lat="47.95431" lon="6.82278">
        <ele>513.51</ele>
        <time>2021-06-23T13:36:51Z</time>
      </trkpt>
      <trkpt lat="47.95435" lon="6.82308">
        <ele>515.72</ele>
        <time>2021-06-23T13:36:56Z</time>
      </trkpt>
      <trkpt lat="47.95435" lon="6.82373">
        <ele>517.64</ele>
        <time>2021-06-23T13:37:00Z</time>
      </trkpt>
      <trkpt lat="47.95436" lon="6.82388">
        <ele>517.25</ele>
        <time>2021-06-23T13:37:05Z</time>
      </trkpt>
      <trkpt lat="47.9544" lon="6.82401">
        <ele>515.72</ele>
        <time>2021-06-23T13:37:09Z</time>
      </trkpt>
      <trkpt lat="47.95453" lon="6.8242">
        <ele>513.37</ele>
        <time>2021-06-23T13:37:14Z</time>
      </trkpt>
      <trkpt lat="47.95477" lon="6.8245">
        <ele>512.17</ele>
        <time>2021-06-23T13:37:18Z</time>
      </trkpt>
      <trkpt lat="47.95482" lon="6.82458">
        <ele>512.49</ele>
        <time>2021-06-23T13:37:23Z</time>
      </trkpt>
      <trkpt lat="47.95486" lon="6.82473">
        <ele>513</ele>
        <time>2021-06-23T13:37:27Z</time>
      </trkpt>
      <trkpt lat="47.95495" lon="6.82513">
        <ele>514.09</ele>
        <time>2021-06-23T13:37:32Z</time>
      </trkpt>
      <trkpt lat="47.95499" lon="6.82526">
        <ele>514.02</ele>
        <time>2021-06-23T13:37:36Z</time>
      </trkpt>
      <trkpt lat="47.95508" lon="6.82543">
        <ele>513.3</ele>
        <time>2021-06-23T13:37:41Z</time>
      </trkpt>
      <trkpt lat="47.95516" lon="6.82552">
        <ele>512.3</ele>
        <time>2021-06-23T13:37:45Z</time>
      </trkpt>
      <trkpt lat="47.95543" lon="6.82566">
        <ele>509.83</ele>
        <time>2021-06-23T13:37:50Z</time>
      </trkpt>
      <trkpt lat="47.9557" lon="6.82585">
        <ele>505.95</ele>
        <time>2021-06-23T13:37:54Z</time>
      </trkpt>
      <trkpt lat="47.95593" lon="6.82613">
        <ele>503.82</ele>
        <time>2021-06-23T13:37:59Z</time>
      </trkpt>
      <trkpt lat="47.95701" lon="6.82803">
        <ele>507.77</ele>
        <time>2021-06-23T13:38:03Z</time>
      </trkpt>
      <trkpt lat="47.95707" lon="6.82817">
        <ele>507.94</ele>
        <time>2021-06-23T13:38:08Z</time>
      </trkpt>
      <trkpt lat="47.95714" lon="6.82842">
        <ele>508.58</ele>
        <time>2021-06-23T13:38:12Z</time>
      </trkpt>
      <trkpt lat="47.9578" lon="6.83026">
        <ele>513.67</ele>
        <time>2021-06-23T13:38:17Z</time>
      </trkpt>
      <trkpt lat="47.9579" lon="6.83045">
        <ele>514.01</ele>
        <time>2021-06-23T13:38:21Z</time>
      </trkpt>
      <trkpt lat="47.95813" lon="6.83081">
        <ele>514.02</ele>
        <time>2021-06-23T13:38:26Z</time>
      </trkpt>
      <trkpt lat="47.9591" lon="6.83188">
        <ele>509.54</ele>
        <time>2021-06-23T13:38:30Z</time>
      </trkpt>
      <trkpt lat="47.96051" lon="6.83404">
        <ele>509.83</ele>
        <time>2021-06-23T13:38:34Z</time>
      </trkpt>
      <trkpt lat="47.96157" lon="6.83561">
        <ele>512</ele>
        <time>2021-06-23T13:38:39Z</time>
      </trkpt>
      <trkpt lat="47.96178" lon="6.83602">
        <ele>511.02</ele>
        <time>2021-06-23T13:38:43Z</time>
      </trkpt>
      <trkpt lat="47.9619" lon="6.83638">
        <ele>511.48</ele>
        <time>2021-06-23T13:38:48Z</time>
      </trkpt>
      <trkpt lat="47.96208" lon="6.83715">
        <ele>513.9</ele>
        <time>2021-06-23T13:38:52Z</time>
      </trkpt>
      <trkpt lat="47.96218" lon="6.83729">
        <ele>513.53</ele>
        <time>2021-06-23T13:38:57Z</time>
      </trkpt>
      <trkpt lat="47.96225" lon="6.83735">
        <ele>513.41</ele>
        <time>2021-06-23T13:39:01Z</time>
      </trkpt>
      <trkpt lat="47.96233" lon="6.83739">
        <ele>513.35</ele>
        <time>2021-06-23T13:39:06Z</time>
      </trkpt>
      <trkpt lat="47.96233" lon="6.83739">
        <ele>513.35</ele>
        <time>2021-06-23T13:39:06Z</time>
      </trkpt>
      <trkpt lat="47.96238" lon="6.83741">
        <ele>513.28</ele>
        <time>2021-06-23T13:39:10Z</time>
      </trkpt>
      <trkpt lat="47.96251" lon="6.83741">
        <ele>512.96</ele>
        <time>2021-06-23T13:39:14Z</time>
      </trkpt>
      <trkpt lat="47.96275" lon="6.83726">
        <ele>512.08</ele>
        <time>2021-06-23T13:39:18Z</time>
      </trkpt>
      <trkpt lat="47.96342" lon="6.83671">
        <ele>510.76</ele>
        <time>2021-06-23T13:39:22Z</time>
      </trkpt>
      <trkpt lat="47.96418" lon="6.83591">
        <ele>513.33</ele>
        <time>2021-06-23T13:39:26Z</time>
      </trkpt>
      <trkpt lat="47.96448" lon="6.83569">
        <ele>513.93</ele>
        <time>2021-06-23T13:39:30Z</time>
      </trkpt>
      <trkpt lat="47.96459" lon="6.83565">
        <ele>513.65</ele>
        <time>2021-06-23T13:39:34Z</time>
      </trkpt>
      <trkpt lat="47.96475" lon="6.83554">
        <ele>513.09</ele>
        <time>2021-06-23T13:39:38Z</time>
      </trkpt>
      <trkpt lat="47.96482" lon="6.83545">
        <ele>513.37</ele>
        <time>2021-06-23T13:39:42Z</time>
      </trkpt>
      <trkpt lat="47.9652" lon="6.83478">
        <ele>514</ele>
        <time>2021-06-23T13:39:46Z</time>
      </trkpt>
      <trkpt lat="47.96529" lon="6.83464">
        <ele>514.04</ele>
        <time>2021-06-23T13:39:50Z</time>
      </trkpt>
      <trkpt lat="47.96597" lon="6.83389">
        <ele>520.44</ele>
        <time>2021-06-23T13:39:54Z</time>
      </trkpt>
      <trkpt lat="47.96655" lon="6.83328">
        <ele>524.18</ele>
        <time>2021-06-23T13:39:58Z</time>
      </trkpt>
      <trkpt lat="47.96678" lon="6.83313">
        <ele>525.5</ele>
        <time>2021-06-23T13:40:02Z</time>
      </trkpt>
      <trkpt lat="47.96701" lon="6.83307">
        <ele>526.31</ele>
        <time>2021-06-23T13:40:06Z</time>
      </trkpt>
      <trkpt lat="47.96713" lon="6.83308">
        <ele>526.82</ele>
        <time>2021-06-23T13:40:10Z</time>
      </trkpt>
      <trkpt lat="47.96821" lon="6.83334">
        <ele>532.5</ele>
        <time>2021-06-23T13:40:14Z</time>
      </trkpt>
      <trkpt lat="47.96936" lon="6.8337">
        <ele>535.71</ele>
        <time>2021-06-23T13:40:18Z</time>
      </trkpt>
      <trkpt lat="47.9695" lon="6.83373">
        <ele>536</ele>
        <time>2021-06-23T13:40:22Z</time>
      </trkpt>
      <trkpt lat="47.96961" lon="6.83372">
        <ele>536</ele>
        <time>2021-06-23T13:40:26Z</time>
      </trkpt>
      <trkpt lat="47.96987" lon="6.83363">
        <ele>535.54</ele>
        <time>2021-06-23T13:40:30Z</time>
      </trkpt>
      <trkpt lat="47.97022" lon="6.83336">
        <ele>534.1</ele>
        <time>2021-06-23T13:40:33Z</time>
      </trkpt>
      <trkpt lat="47.97049" lon="6.83313">
        <ele>534.38</ele>
        <time>2021-06-23T13:40:37Z</time>
      </trkpt>
      <trkpt lat="47.97084" lon="6.8326">
        <ele>534.74</ele>
        <time>2021-06-23T13:40:41Z</time>
      </trkpt>
      <trkpt lat="47.97104" lon="6.83235">
        <ele>534.75</ele>
        <time>2021-06-23T13:40:45Z</time>
      </trkpt>
      <trkpt lat="47.97117" lon="6.83224">
        <ele>535</ele>
        <time>2021-06-23T13:40:49Z</time>
      </trkpt>
      <trkpt lat="47.9715" lon="6.832">
        <ele>537.46</ele>
        <time>2021-06-23T13:40:53Z</time>
      </trkpt>
      <trkpt lat="47.97251" lon="6.83137">
        <ele>539.79</ele>
        <time>2021-06-23T13:40:57Z</time>
      </trkpt>
      <trkpt lat="47.9726" lon="6.83133">
        <ele>539.67</ele>
        <time>2021-06-23T13:41:01Z</time>
      </trkpt>
      <trkpt lat="47.9727" lon="6.83131">
        <ele>539.62</ele>
        <time>2021-06-23T13:41:05Z</time>
      </trkpt>
      <trkpt lat="47.97296" lon="6.83134">
        <ele>541.01</ele>
        <time>2021-06-23T13:41:09Z</time>
      </trkpt>
      <trkpt lat="47.9731" lon="6.8314">
        <ele>542.12</ele>
        <time>2021-06-23T13:41:13Z</time>
      </trkpt>
      <trkpt lat="47.97319" lon="6.83147">
        <ele>542.9</ele>
        <time>2021-06-23T13:41:17Z</time>
      </trkpt>
      <trkpt lat="47.97352" lon="6.83182">
        <ele>544.9</ele>
        <time>2021-06-23T13:41:21Z</time>
      </trkpt>
      <trkpt lat="47.97367" lon="6.83193">
        <ele>544.92</ele>
        <time>2021-06-23T13:41:25Z</time>
      </trkpt>
      <trkpt lat="47.97386" lon="6.832">
        <ele>545.38</ele>
        <time>2021-06-23T13:41:29Z</time>
      </trkpt>
      <trkpt lat="47.97403" lon="6.83202">
        <ele>545.53</ele>
        <time>2021-06-23T13:41:33Z</time>
      </trkpt>
      <trkpt lat="47.97503" lon="6.83227">
        <ele>549.07</ele>
        <time>2021-06-23T13:41:37Z</time>
      </trkpt>
      <trkpt lat="47.97567" lon="6.83249">
        <ele>550.84</ele>
        <time>2021-06-23T13:41:41Z</time>
      </trkpt>
      <trkpt lat="47.97706" lon="6.83315">
        <ele>555.13</ele>
        <time>2021-06-23T13:41:45Z</time>
      </trkpt>
      <trkpt lat="47.9774" lon="6.83335">
        <ele>556.53</ele>
        <time>2021-06-23T13:41:49Z</time>
      </trkpt>
      <trkpt lat="47.97765" lon="6.83352">
        <ele>557.78</ele>
        <time>2021-06-23T13:41:53Z</time>
      </trkpt>
      <trkpt lat="47.97846" lon="6.83425">
        <ele>562.85</ele>
        <time>2021-06-23T13:41:57Z</time>
      </trkpt>
      <trkpt lat="47.97868" lon="6.83437">
        <ele>562.74</ele>
        <time>2021-06-23T13:42:01Z</time>
      </trkpt>
      <trkpt lat="47.97882" lon="6.83441">
        <ele>562.11</ele>
        <time>2021-06-23T13:42:05Z</time>
      </trkpt>
      <trkpt lat="47.97899" lon="6.83442">
        <ele>561.08</ele>
        <time>2021-06-23T13:42:09Z</time>
      </trkpt>
      <trkpt lat="47.97914" lon="6.83439">
        <ele>559.77</ele>
        <time>2021-06-23T13:42:13Z</time>
      </trkpt>
      <trkpt lat="47.97986" lon="6.83411">
        <ele>561.81</ele>
        <time>2021-06-23T13:42:17Z</time>
      </trkpt>
      <trkpt lat="47.9802" lon="6.83401">
        <ele>565.09</ele>
        <time>2021-06-23T13:42:21Z</time>
      </trkpt>
      <trkpt lat="47.98163" lon="6.83391">
        <ele>569.56</ele>
        <time>2021-06-23T13:42:25Z</time>
      </trkpt>
      <trkpt lat="47.98182" lon="6.83397">
        <ele>568.88</ele>
        <time>2021-06-23T13:42:29Z</time>
      </trkpt>
      <trkpt lat="47.98198" lon="6.83406">
        <ele>569.49</ele>
        <time>2021-06-23T13:42:33Z</time>
      </trkpt>
      <trkpt lat="47.98213" lon="6.83419">
        <ele>570.35</ele>
        <time>2021-06-23T13:42:37Z</time>
      </trkpt>
      <trkpt lat="47.98238" lon="6.83451">
        <ele>571.01</ele>
        <time>2021-06-23T13:42:41Z</time>
      </trkpt>
      <trkpt lat="47.98238" lon="6.83451">
        <ele>571.01</ele>
        <time>2021-06-23T13:42:41Z</time>
      </trkpt>
      <trkpt lat="47.98318" lon="6.83558">
        <ele>570.93</ele>
        <time>2021-06-23T13:42:45Z</time>
      </trkpt>
      <trkpt lat="47.9833" lon="6.83568">
        <ele>570.39</ele>
        <time>2021-06-23T13:42:49Z</time>
      </trkpt>
      <trkpt lat="47.98356" lon="6.83583">
        <ele>570.95</ele>
        <time>2021-06-23T13:42:54Z</time>
      </trkpt>
      <trkpt lat="47.98426" lon="6.83604">
        <ele>571.24</ele>
        <time>2021-06-23T13:42:58Z</time>
      </trkpt>
      <trkpt lat="47.98442" lon="6.83611">
        <ele>569.43</ele>
        <time>2021-06-23T13:43:02Z</time>
      </trkpt>
      <trkpt lat="47.98463" lon="6.83625">
        <ele>569.35</ele>
        <time>2021-06-23T13:43:06Z</time>
      </trkpt>
      <trkpt lat="47.98495" lon="6.83658">
        <ele>570.31</ele>
        <time>2021-06-23T13:43:11Z</time>
      </trkpt>
      <trkpt lat="47.98509" lon="6.83679">
        <ele>571.8</ele>
        <time>2021-06-23T13:43:15Z</time>
      </trkpt>
      <trkpt lat="47.98601" lon="6.8386">
        <ele>571.69</ele>
        <time>2021-06-23T13:43:19Z</time>
      </trkpt>
      <trkpt lat="47.98655" lon="6.83957">
        <ele>573.9</ele>
        <time>2021-06-23T13:43:23Z</time>
      </trkpt>
      <trkpt lat="47.98813" lon="6.84189">
        <ele>581.9</ele>
        <time>2021-06-23T13:43:28Z</time>
      </trkpt>
      <trkpt lat="47.98856" lon="6.84257">
        <ele>585.49</ele>
        <time>2021-06-23T13:43:32Z</time>
      </trkpt>
      <trkpt lat="47.98867" lon="6.84278">
        <ele>583.95</ele>
        <time>2021-06-23T13:43:36Z</time>
      </trkpt>
      <trkpt lat="47.98911" lon="6.84388">
        <ele>584.18</ele>
        <time>2021-06-23T13:43:40Z</time>
      </trkpt>
      <trkpt lat="47.98924" lon="6.84434">
        <ele>587.18</ele>
        <time>2021-06-23T13:43:44Z</time>
      </trkpt>
      <trkpt lat="47.98943" lon="6.84526">
        <ele>590.06</ele>
        <time>2021-06-23T13:43:49Z</time>
      </trkpt>
      <trkpt lat="47.98955" lon="6.84564">
        <ele>588.74</ele>
        <time>2021-06-23T13:43:53Z</time>
      </trkpt>
      <trkpt lat="47.99002" lon="6.8467">
        <ele>589.24</ele>
        <time>2021-06-23T13:43:57Z</time>
      </trkpt>
      <trkpt lat="47.99029" lon="6.84756">
        <ele>594.5</ele>
        <time>2021-06-23T13:44:01Z</time>
      </trkpt>
      <trkpt lat="47.99044" lon="6.84799">
        <ele>595.5</ele>
        <time>2021-06-23T13:44:06Z</time>
      </trkpt>
      <trkpt lat="47.99069" lon="6.84844">
        <ele>596.53</ele>
        <time>2021-06-23T13:44:10Z</time>
      </trkpt>
      <trkpt lat="47.9909" lon="6.84872">
        <ele>596.54</ele>
        <time>2021-06-23T13:44:14Z</time>
      </trkpt>
      <trkpt lat="47.99199" lon="6.8498">
        <ele>597.38</ele>
        <time>2021-06-23T13:44:18Z</time>
      </trkpt>
      <trkpt lat="47.99253" lon="6.85039">
        <ele>597.65</ele>
        <time>2021-06-23T13:44:23Z</time>
      </trkpt>
      <trkpt lat="47.99264" lon="6.85057">
        <ele>598.01</ele>
        <time>2021-06-23T13:44:27Z</time>
      </trkpt>
      <trkpt lat="47.99275" lon="6.8508">
        <ele>598.09</ele>
        <time>2021-06-23T13:44:31Z</time>
      </trkpt>
      <trkpt lat="47.99279" lon="6.85096">
        <ele>597.39</ele>
        <time>2021-06-23T13:44:35Z</time>
      </trkpt>
      <trkpt lat="47.99285" lon="6.85131">
        <ele>596.5</ele>
        <time>2021-06-23T13:44:40Z</time>
      </trkpt>
      <trkpt lat="47.99294" lon="6.85213">
        <ele>597.69</ele>
        <time>2021-06-23T13:44:44Z</time>
      </trkpt>
      <trkpt lat="47.9931" lon="6.85325">
        <ele>601.84</ele>
        <time>2021-06-23T13:44:48Z</time>
      </trkpt>
      <trkpt lat="47.99317" lon="6.85353">
        <ele>602.91</ele>
        <time>2021-06-23T13:44:52Z</time>
      </trkpt>
      <trkpt lat="47.99329" lon="6.85389">
        <ele>601.89</ele>
        <time>2021-06-23T13:44:57Z</time>
      </trkpt>
      <trkpt lat="47.99369" lon="6.85479">
        <ele>604.61</ele>
        <time>2021-06-23T13:45:01Z</time>
      </trkpt>
      <trkpt lat="47.99412" lon="6.85573">
        <ele>604.78</ele>
        <time>2021-06-23T13:45:05Z</time>
      </trkpt>
      <trkpt lat="47.9943" lon="6.85608">
        <ele>607.59</ele>
        <time>2021-06-23T13:45:09Z</time>
      </trkpt>
      <trkpt lat="47.99446" lon="6.85634">
        <ele>610.02</ele>
        <time>2021-06-23T13:45:13Z</time>
      </trkpt>
      <trkpt lat="47.99464" lon="6.8566">
        <ele>610.93</ele>
        <time>2021-06-23T13:45:18Z</time>
      </trkpt>
      <trkpt lat="47.99481" lon="6.85677">
        <ele>610.01</ele>
        <time>2021-06-23T13:45:22Z</time>
      </trkpt>
      <trkpt lat="47.99575" lon="6.85752">
        <ele>607.78</ele>
        <time>2021-06-23T13:45:26Z</time>
      </trkpt>
      <trkpt lat="47.99631" lon="6.85795">
        <ele>608.16</ele>
        <time>2021-06-23T13:45:30Z</time>
      </trkpt>
      <trkpt lat="47.9965" lon="6.85812">
        <ele>607.19</ele>
        <time>2021-06-23T13:45:35Z</time>
      </trkpt>
      <trkpt lat="47.99687" lon="6.85843">
        <ele>606</ele>
        <time>2021-06-23T13:45:39Z</time>
      </trkpt>
      <trkpt lat="47.99739" lon="6.85916">
        <ele>607.4</ele>
        <time>2021-06-23T13:45:43Z</time>
      </trkpt>
      <trkpt lat="47.99754" lon="6.85945">
        <ele>607.01</ele>
        <time>2021-06-23T13:45:47Z</time>
      </trkpt>
      <trkpt lat="47.99785" lon="6.86007">
        <ele>608.26</ele>
        <time>2021-06-23T13:45:52Z</time>
      </trkpt>
      <trkpt lat="47.99824" lon="6.86101">
        <ele>610.22</ele>
        <time>2021-06-23T13:45:56Z</time>
      </trkpt>
      <trkpt lat="47.99834" lon="6.86137">
        <ele>610.89</ele>
        <time>2021-06-23T13:46:00Z</time>
      </trkpt>
      <trkpt lat="47.99841" lon="6.8617">
        <ele>610.73</ele>
        <time>2021-06-23T13:46:04Z</time>
      </trkpt>
      <trkpt lat="47.99839" lon="6.86191">
        <ele>610.78</ele>
        <time>2021-06-23T13:46:09Z</time>
      </trkpt>
      <trkpt lat="47.99837" lon="6.86202">
        <ele>610.62</ele>
        <time>2021-06-23T13:46:14Z</time>
      </trkpt>
      <trkpt lat="47.99841" lon="6.86212">
        <ele>610.27</ele>
        <time>2021-06-23T13:46:19Z</time>
      </trkpt>
      <trkpt lat="47.99848" lon="6.8626">
        <ele>610.38</ele>
        <time>2021-06-23T13:46:25Z</time>
      </trkpt>
      <trkpt lat="47.99867" lon="6.8651">
        <ele>616.32</ele>
        <time>2021-06-23T13:46:30Z</time>
      </trkpt>
      <trkpt lat="47.99868" lon="6.86533">
        <ele>615.74</ele>
        <time>2021-06-23T13:46:36Z</time>
      </trkpt>
      <trkpt lat="47.99868" lon="6.86604">
        <ele>616.74</ele>
        <time>2021-06-23T13:46:41Z</time>
      </trkpt>
      <trkpt lat="47.99871" lon="6.86648">
        <ele>618.4</ele>
        <time>2021-06-23T13:46:46Z</time>
      </trkpt>
      <trkpt lat="47.99877" lon="6.86688">
        <ele>619.17</ele>
        <time>2021-06-23T13:46:52Z</time>
      </trkpt>
      <trkpt lat="47.99914" lon="6.86805">
        <ele>617.09</ele>
        <time>2021-06-23T13:46:57Z</time>
      </trkpt>
      <trkpt lat="47.9992" lon="6.86832">
        <ele>617</ele>
        <time>2021-06-23T13:47:03Z</time>
      </trkpt>
      <trkpt lat="47.99925" lon="6.86859">
        <ele>617.27</ele>
        <time>2021-06-23T13:47:08Z</time>
      </trkpt>
      <trkpt lat="47.99935" lon="6.86938">
        <ele>619.59</ele>
        <time>2021-06-23T13:47:14Z</time>
      </trkpt>
      <trkpt lat="47.99947" lon="6.86995">
        <ele>619.02</ele>
        <time>2021-06-23T13:47:19Z</time>
      </trkpt>
      <trkpt lat="47.99958" lon="6.8702">
        <ele>619</ele>
        <time>2021-06-23T13:47:24Z</time>
      </trkpt>
      <trkpt lat="47.9997" lon="6.87041">
        <ele>619.04</ele>
        <time>2021-06-23T13:47:30Z</time>
      </trkpt>
      <trkpt lat="47.9999" lon="6.87069">
        <ele>619.47</ele>
        <time>2021-06-23T13:47:35Z</time>
      </trkpt>
      <trkpt lat="48.00107" lon="6.87143">
        <ele>624.14</ele>
        <time>2021-06-23T13:47:41Z</time>
      </trkpt>
      <trkpt lat="48.00159" lon="6.8718">
        <ele>625.72</ele>
        <time>2021-06-23T13:47:46Z</time>
      </trkpt>
      <trkpt lat="48.00223" lon="6.87236">
        <ele>628.52</ele>
        <time>2021-06-23T13:47:51Z</time>
      </trkpt>
      <trkpt lat="48.00252" lon="6.87259">
        <ele>630.08</ele>
        <time>2021-06-23T13:47:57Z</time>
      </trkpt>
      <trkpt lat="48.00278" lon="6.87284">
        <ele>630.78</ele>
        <time>2021-06-23T13:48:02Z</time>
      </trkpt>
      <trkpt lat="48.00315" lon="6.87336">
        <ele>629.64</ele>
        <time>2021-06-23T13:48:08Z</time>
      </trkpt>
      <trkpt lat="48.00336" lon="6.87384">
        <ele>632.03</ele>
        <time>2021-06-23T13:48:13Z</time>
      </trkpt>
      <trkpt lat="48.0036" lon="6.87482">
        <ele>631.64</ele>
        <time>2021-06-23T13:48:18Z</time>
      </trkpt>
      <trkpt lat="48.00371" lon="6.87464">
        <ele>632.1</ele>
        <time>2021-06-23T13:48:25Z</time>
      </trkpt>
      <trkpt lat="48.00393" lon="6.87412">
        <ele>634.35</ele>
        <time>2021-06-23T13:48:31Z</time>
      </trkpt>
      <trkpt lat="48.00359" lon="6.87362">
        <ele>634.68</ele>
        <time>2021-06-23T13:48:40Z</time>
      </trkpt>
      <trkpt lat="48.00384" lon="6.87335">
        <ele>636.66</ele>
        <time>2021-06-23T13:48:43Z</time>
      </trkpt>
      <trkpt lat="48.00391" lon="6.87323">
        <ele>637.59</ele>
        <time>2021-06-23T13:48:47Z</time>
      </trkpt>
      <trkpt lat="48.00396" lon="6.87307">
        <ele>638.97</ele>
        <time>2021-06-23T13:48:51Z</time>
      </trkpt>
      <trkpt lat="48.00405" lon="6.87268">
        <ele>643.18</ele>
        <time>2021-06-23T13:48:54Z</time>
      </trkpt>
      <trkpt lat="48.00409" lon="6.87262">
        <ele>644.25</ele>
        <time>2021-06-23T13:48:58Z</time>
      </trkpt>
      <trkpt lat="48.00425" lon="6.87258">
        <ele>647.17</ele>
        <time>2021-06-23T13:49:01Z</time>
      </trkpt>
      <trkpt lat="48.00438" lon="6.87259">
        <ele>650.23</ele>
        <time>2021-06-23T13:49:05Z</time>
      </trkpt>
      <trkpt lat="48.00486" lon="6.87279">
        <ele>657.42</ele>
        <time>2021-06-23T13:49:09Z</time>
      </trkpt>
      <trkpt lat="48.00495" lon="6.87279">
        <ele>658.3</ele>
        <time>2021-06-23T13:49:12Z</time>
      </trkpt>
      <trkpt lat="48.00503" lon="6.87273">
        <ele>659.65</ele>
        <time>2021-06-23T13:49:16Z</time>
      </trkpt>
      <trkpt lat="48.00487" lon="6.87248">
        <ele>660.35</ele>
        <time>2021-06-23T13:49:21Z</time>
      </trkpt>
      <trkpt lat="48.00427" lon="6.87166">
        <ele>663.64</ele>
        <time>2021-06-23T13:49:27Z</time>
      </trkpt>
      <trkpt lat="48.00424" lon="6.87154">
        <ele>665.02</ele>
        <time>2021-06-23T13:49:32Z</time>
      </trkpt>
      <trkpt lat="48.00427" lon="6.87143">
        <ele>667.23</ele>
        <time>2021-06-23T13:49:38Z</time>
      </trkpt>
      <trkpt lat="48.00433" lon="6.87142">
        <ele>668.46</ele>
        <time>2021-06-23T13:49:43Z</time>
      </trkpt>
      <trkpt lat="48.00441" lon="6.87146">
        <ele>669.11</ele>
        <time>2021-06-23T13:49:49Z</time>
      </trkpt>
      <trkpt lat="48.00467" lon="6.87172">
        <ele>668.34</ele>
        <time>2021-06-23T13:49:54Z</time>
      </trkpt>
      <trkpt lat="48.0048" lon="6.87181">
        <ele>669.11</ele>
        <time>2021-06-23T13:50:00Z</time>
      </trkpt>
      <trkpt lat="48.00496" lon="6.8719">
        <ele>671.28</ele>
        <time>2021-06-23T13:50:05Z</time>
      </trkpt>
      <trkpt lat="48.0053" lon="6.87195">
        <ele>674.8</ele>
        <time>2021-06-23T13:50:11Z</time>
      </trkpt>
      <trkpt lat="48.00584" lon="6.872">
        <ele>677.49</ele>
        <time>2021-06-23T13:50:16Z</time>
      </trkpt>
      <trkpt lat="48.0061" lon="6.872">
        <ele>683.19</ele>
        <time>2021-06-23T13:50:22Z</time>
      </trkpt>
      <trkpt lat="48.00626" lon="6.87207">
        <ele>685.79</ele>
        <time>2021-06-23T13:50:27Z</time>
      </trkpt>
      <trkpt lat="48.00667" lon="6.87252">
        <ele>686.93</ele>
        <time>2021-06-23T13:50:33Z</time>
      </trkpt>
      <trkpt lat="48.00742" lon="6.87293">
        <ele>693.54</ele>
        <time>2021-06-23T13:50:38Z</time>
      </trkpt>
      <trkpt lat="48.00898" lon="6.87492">
        <ele>704.36</ele>
        <time>2021-06-23T13:50:44Z</time>
      </trkpt>
      <trkpt lat="48.00934" lon="6.87555">
        <ele>710.03</ele>
        <time>2021-06-23T13:50:49Z</time>
      </trkpt>
      <trkpt lat="48.00945" lon="6.8757">
        <ele>711.09</ele>
        <time>2021-06-23T13:50:55Z</time>
      </trkpt>
      <trkpt lat="48.00986" lon="6.87605">
        <ele>713.43</ele>
        <time>2021-06-23T13:51:00Z</time>
      </trkpt>
      <trkpt lat="48.01001" lon="6.87623">
        <ele>713.85</ele>
        <time>2021-06-23T13:51:06Z</time>
      </trkpt>
      <trkpt lat="48.01036" lon="6.87687">
        <ele>719.54</ele>
        <time>2021-06-23T13:51:11Z</time>
      </trkpt>
      <trkpt lat="48.01066" lon="6.87764">
        <ele>725.84</ele>
        <time>2021-06-23T13:51:17Z</time>
      </trkpt>
      <trkpt lat="48.01082" lon="6.8781">
        <ele>728.61</ele>
        <time>2021-06-23T13:51:22Z</time>
      </trkpt>
      <trkpt lat="48.0113" lon="6.8802">
        <ele>736.9</ele>
        <time>2021-06-23T13:51:28Z</time>
      </trkpt>
      <trkpt lat="48.01166" lon="6.88142">
        <ele>741.57</ele>
        <time>2021-06-23T13:51:33Z</time>
      </trkpt>
      <trkpt lat="48.0118" lon="6.88177">
        <ele>741.58</ele>
        <time>2021-06-23T13:51:39Z</time>
      </trkpt>
      <trkpt lat="48.01306" lon="6.88416">
        <ele>753.22</ele>
        <time>2021-06-23T13:51:44Z</time>
      </trkpt>
      <trkpt lat="48.01332" lon="6.88463">
        <ele>757.42</ele>
        <time>2021-06-23T13:51:50Z</time>
      </trkpt>
      <trkpt lat="48.01385" lon="6.88523">
        <ele>761.73</ele>
        <time>2021-06-23T13:51:55Z</time>
      </trkpt>
      <trkpt lat="48.01405" lon="6.8854">
        <ele>763.05</ele>
        <time>2021-06-23T13:52:01Z</time>
      </trkpt>
      <trkpt lat="48.01415" lon="6.88543">
        <ele>764.68</ele>
        <time>2021-06-23T13:52:06Z</time>
      </trkpt>
      <trkpt lat="48.01559" lon="6.88551">
        <ele>777.55</ele>
        <time>2021-06-23T13:52:12Z</time>
      </trkpt>
      <trkpt lat="48.0157" lon="6.88558">
        <ele>778.26</ele>
        <time>2021-06-23T13:52:17Z</time>
      </trkpt>
      <trkpt lat="48.01578" lon="6.88569">
        <ele>778.08</ele>
        <time>2021-06-23T13:52:23Z</time>
      </trkpt>
      <trkpt lat="48.01645" lon="6.88722">
        <ele>781.49</ele>
        <time>2021-06-23T13:52:28Z</time>
      </trkpt>
      <trkpt lat="48.01667" lon="6.88763">
        <ele>784.01</ele>
        <time>2021-06-23T13:52:34Z</time>
      </trkpt>
      <trkpt lat="48.017" lon="6.88804">
        <ele>786.23</ele>
        <time>2021-06-23T13:52:39Z</time>
      </trkpt>
      <trkpt lat="48.017" lon="6.88804">
        <ele>786.23</ele>
        <time>2021-06-23T13:52:39Z</time>
      </trkpt>
      <trkpt lat="48.01718" lon="6.88822">
        <ele>786.37</ele>
        <time>2021-06-23T13:52:42Z</time>
      </trkpt>
      <trkpt lat="48.01734" lon="6.88834">
        <ele>786.61</ele>
        <time>2021-06-23T13:52:44Z</time>
      </trkpt>
      <trkpt lat="48.01743" lon="6.88837">
        <ele>787.4</ele>
        <time>2021-06-23T13:52:47Z</time>
      </trkpt>
      <trkpt lat="48.01814" lon="6.88847">
        <ele>799.13</ele>
        <time>2021-06-23T13:52:49Z</time>
      </trkpt>
      <trkpt lat="48.01829" lon="6.88854">
        <ele>800.85</ele>
        <time>2021-06-23T13:52:52Z</time>
      </trkpt>
      <trkpt lat="48.0184" lon="6.88863">
        <ele>801.55</ele>
        <time>2021-06-23T13:52:54Z</time>
      </trkpt>
      <trkpt lat="48.01931" lon="6.89009">
        <ele>806.19</ele>
        <time>2021-06-23T13:52:57Z</time>
      </trkpt>
      <trkpt lat="48.0198" lon="6.89082">
        <ele>809.52</ele>
        <time>2021-06-23T13:52:59Z</time>
      </trkpt>
      <trkpt lat="48.02064" lon="6.89178">
        <ele>820.14</ele>
        <time>2021-06-23T13:53:02Z</time>
      </trkpt>
      <trkpt lat="48.02075" lon="6.89198">
        <ele>820.51</ele>
        <time>2021-06-23T13:53:04Z</time>
      </trkpt>
      <trkpt lat="48.02097" lon="6.89256">
        <ele>821.53</ele>
        <time>2021-06-23T13:53:07Z</time>
      </trkpt>
      <trkpt lat="48.0214" lon="6.89331">
        <ele>830.88</ele>
        <time>2021-06-23T13:53:09Z</time>
      </trkpt>
      <trkpt lat="48.0215" lon="6.89352">
        <ele>831.81</ele>
        <time>2021-06-23T13:53:12Z</time>
      </trkpt>
      <trkpt lat="48.02167" lon="6.89372">
        <ele>832.25</ele>
        <time>2021-06-23T13:53:14Z</time>
      </trkpt>
      <trkpt lat="48.0219" lon="6.89388">
        <ele>832.76</ele>
        <time>2021-06-23T13:53:17Z</time>
      </trkpt>
      <trkpt lat="48.02194" lon="6.89395">
        <ele>832.97</ele>
        <time>2021-06-23T13:53:19Z</time>
      </trkpt>
      <trkpt lat="48.02199" lon="6.89409">
        <ele>833.78</ele>
        <time>2021-06-23T13:53:22Z</time>
      </trkpt>
      <trkpt lat="48.02201" lon="6.89427">
        <ele>834.58</ele>
        <time>2021-06-23T13:53:24Z</time>
      </trkpt>
      <trkpt lat="48.02199" lon="6.89465">
        <ele>836.51</ele>
        <time>2021-06-23T13:53:27Z</time>
      </trkpt>
      <trkpt lat="48.022" lon="6.8949">
        <ele>837.56</ele>
        <time>2021-06-23T13:53:29Z</time>
      </trkpt>
      <trkpt lat="48.02206" lon="6.89513">
        <ele>839.17</ele>
        <time>2021-06-23T13:53:32Z</time>
      </trkpt>
      <trkpt lat="48.0227" lon="6.89628">
        <ele>842.75</ele>
        <time>2021-06-23T13:53:34Z</time>
      </trkpt>
      <trkpt lat="48.02285" lon="6.89645">
        <ele>844.51</ele>
        <time>2021-06-23T13:53:37Z</time>
      </trkpt>
      <trkpt lat="48.02295" lon="6.89651">
        <ele>846.43</ele>
        <time>2021-06-23T13:53:39Z</time>
      </trkpt>
      <trkpt lat="48.02312" lon="6.89655">
        <ele>849.93</ele>
        <time>2021-06-23T13:53:42Z</time>
      </trkpt>
      <trkpt lat="48.02361" lon="6.89652">
        <ele>860.08</ele>
        <time>2021-06-23T13:53:44Z</time>
      </trkpt>
      <trkpt lat="48.0237" lon="6.89659">
        <ele>860.57</ele>
        <time>2021-06-23T13:53:47Z</time>
      </trkpt>
      <trkpt lat="48.02377" lon="6.8967">
        <ele>860.67</ele>
        <time>2021-06-23T13:53:49Z</time>
      </trkpt>
      <trkpt lat="48.02383" lon="6.89685">
        <ele>861.18</ele>
        <time>2021-06-23T13:53:52Z</time>
      </trkpt>
      <trkpt lat="48.02389" lon="6.89709">
        <ele>860.99</ele>
        <time>2021-06-23T13:53:54Z</time>
      </trkpt>
      <trkpt lat="48.02411" lon="6.89855">
        <ele>864.65</ele>
        <time>2021-06-23T13:53:57Z</time>
      </trkpt>
      <trkpt lat="48.02461" lon="6.90127">
        <ele>873.88</ele>
        <time>2021-06-23T13:53:59Z</time>
      </trkpt>
      <trkpt lat="48.02464" lon="6.90137">
        <ele>874.1</ele>
        <time>2021-06-23T13:54:02Z</time>
      </trkpt>
      <trkpt lat="48.02471" lon="6.90147">
        <ele>876.04</ele>
        <time>2021-06-23T13:54:04Z</time>
      </trkpt>
      <trkpt lat="48.0247" lon="6.90154">
        <ele>875.18</ele>
        <time>2021-06-23T13:54:07Z</time>
      </trkpt>
      <trkpt lat="48.02472" lon="6.90171">
        <ele>874.72</ele>
        <time>2021-06-23T13:54:09Z</time>
      </trkpt>
      <trkpt lat="48.02479" lon="6.90223">
        <ele>875.32</ele>
        <time>2021-06-23T13:54:12Z</time>
      </trkpt>
      <trkpt lat="48.02486" lon="6.90253">
        <ele>875.93</ele>
        <time>2021-06-23T13:54:14Z</time>
      </trkpt>
      <trkpt lat="48.02547" lon="6.90394">
        <ele>882.89</ele>
        <time>2021-06-23T13:54:16Z</time>
      </trkpt>
      <trkpt lat="48.02567" lon="6.90454">
        <ele>881.86</ele>
        <time>2021-06-23T13:54:19Z</time>
      </trkpt>
      <trkpt lat="48.02609" lon="6.90526">
        <ele>883.61</ele>
        <time>2021-06-23T13:54:21Z</time>
      </trkpt>
      <trkpt lat="48.02664" lon="6.90599">
        <ele>884.57</ele>
        <time>2021-06-23T13:54:23Z</time>
      </trkpt>
      <trkpt lat="48.02701" lon="6.90654">
        <ele>887.69</ele>
        <time>2021-06-23T13:54:26Z</time>
      </trkpt>
      <trkpt lat="48.02708" lon="6.90667">
        <ele>886.84</ele>
        <time>2021-06-23T13:54:28Z</time>
      </trkpt>
      <trkpt lat="48.02709" lon="6.90699">
        <ele>882.66</ele>
        <time>2021-06-23T13:54:30Z</time>
      </trkpt>
      <trkpt lat="48.02713" lon="6.90722">
        <ele>883.39</ele>
        <time>2021-06-23T13:54:33Z</time>
      </trkpt>
      <trkpt lat="48.02719" lon="6.90738">
        <ele>884.61</ele>
        <time>2021-06-23T13:54:35Z</time>
      </trkpt>
      <trkpt lat="48.02739" lon="6.90768">
        <ele>890.88</ele>
        <time>2021-06-23T13:54:38Z</time>
      </trkpt>
      <trkpt lat="48.02747" lon="6.9079">
        <ele>893.82</ele>
        <time>2021-06-23T13:54:40Z</time>
      </trkpt>
      <trkpt lat="48.02755" lon="6.90831">
        <ele>896.36</ele>
        <time>2021-06-23T13:54:42Z</time>
      </trkpt>
      <trkpt lat="48.02765" lon="6.90893">
        <ele>900.17</ele>
        <time>2021-06-23T13:54:45Z</time>
      </trkpt>
      <trkpt lat="48.02774" lon="6.90924">
        <ele>902.72</ele>
        <time>2021-06-23T13:54:47Z</time>
      </trkpt>
      <trkpt lat="48.02804" lon="6.91007">
        <ele>910.67</ele>
        <time>2021-06-23T13:54:49Z</time>
      </trkpt>
      <trkpt lat="48.02839" lon="6.9113">
        <ele>912.76</ele>
        <time>2021-06-23T13:54:51Z</time>
      </trkpt>
      <trkpt lat="48.02863" lon="6.91201">
        <ele>915.51</ele>
        <time>2021-06-23T13:54:53Z</time>
      </trkpt>
      <trkpt lat="48.02886" lon="6.91286">
        <ele>909.85</ele>
        <time>2021-06-23T13:54:55Z</time>
      </trkpt>
      <trkpt lat="48.02895" lon="6.91307">
        <ele>909.4</ele>
        <time>2021-06-23T13:54:57Z</time>
      </trkpt>
      <trkpt lat="48.02935" lon="6.91359">
        <ele>911.54</ele>
        <time>2021-06-23T13:54:59Z</time>
      </trkpt>
      <trkpt lat="48.02991" lon="6.91423">
        <ele>906.38</ele>
        <time>2021-06-23T13:55:01Z</time>
      </trkpt>
      <trkpt lat="48.03017" lon="6.91441">
        <ele>908.93</ele>
        <time>2021-06-23T13:55:03Z</time>
      </trkpt>
      <trkpt lat="48.03035" lon="6.91458">
        <ele>909.92</ele>
        <time>2021-06-23T13:55:05Z</time>
      </trkpt>
      <trkpt lat="48.03082" lon="6.91513">
        <ele>904.61</ele>
        <time>2021-06-23T13:55:07Z</time>
      </trkpt>
      <trkpt lat="48.03116" lon="6.91539">
        <ele>905.76</ele>
        <time>2021-06-23T13:55:09Z</time>
      </trkpt>
      <trkpt lat="48.03177" lon="6.91571">
        <ele>904.2</ele>
        <time>2021-06-23T13:55:11Z</time>
      </trkpt>
      <trkpt lat="48.03246" lon="6.91612">
        <ele>896.26</ele>
        <time>2021-06-23T13:55:13Z</time>
      </trkpt>
      <trkpt lat="48.03264" lon="6.91638">
        <ele>893.23</ele>
        <time>2021-06-23T13:55:15Z</time>
      </trkpt>
      <trkpt lat="48.03271" lon="6.91645">
        <ele>892.47</ele>
        <time>2021-06-23T13:55:17Z</time>
      </trkpt>
      <trkpt lat="48.03294" lon="6.91654">
        <ele>892.4</ele>
        <time>2021-06-23T13:55:19Z</time>
      </trkpt>
      <trkpt lat="48.0331" lon="6.91664">
        <ele>891.04</ele>
        <time>2021-06-23T13:55:21Z</time>
      </trkpt>
      <trkpt lat="48.03327" lon="6.91682">
        <ele>890.13</ele>
        <time>2021-06-23T13:55:23Z</time>
      </trkpt>
      <trkpt lat="48.03338" lon="6.917">
        <ele>889.04</ele>
        <time>2021-06-23T13:55:25Z</time>
      </trkpt>
      <trkpt lat="48.03343" lon="6.9172">
        <ele>887.32</ele>
        <time>2021-06-23T13:55:27Z</time>
      </trkpt>
      <trkpt lat="48.03342" lon="6.91728">
        <ele>886.22</ele>
        <time>2021-06-23T13:55:29Z</time>
      </trkpt>
      <trkpt lat="48.03339" lon="6.91735">
        <ele>885.01</ele>
        <time>2021-06-23T13:55:31Z</time>
      </trkpt>
      <trkpt lat="48.03331" lon="6.91739">
        <ele>883.97</ele>
        <time>2021-06-23T13:55:33Z</time>
      </trkpt>
      <trkpt lat="48.03318" lon="6.91741">
        <ele>882.31</ele>
        <time>2021-06-23T13:55:35Z</time>
      </trkpt>
      <trkpt lat="48.03313" lon="6.9175">
        <ele>880.74</ele>
        <time>2021-06-23T13:55:37Z</time>
      </trkpt>
      <trkpt lat="48.03313" lon="6.91765">
        <ele>878.18</ele>
        <time>2021-06-23T13:55:39Z</time>
      </trkpt>
      <trkpt lat="48.0332" lon="6.91777">
        <ele>876.63</ele>
        <time>2021-06-23T13:55:41Z</time>
      </trkpt>
      <trkpt lat="48.0336" lon="6.91831">
        <ele>873.13</ele>
        <time>2021-06-23T13:55:43Z</time>
      </trkpt>
      <trkpt lat="48.03366" lon="6.91845">
        <ele>872.84</ele>
        <time>2021-06-23T13:55:45Z</time>
      </trkpt>
      <trkpt lat="48.03373" lon="6.91882">
        <ele>869.68</ele>
        <time>2021-06-23T13:55:47Z</time>
      </trkpt>
      <trkpt lat="48.0338" lon="6.91906">
        <ele>867.07</ele>
        <time>2021-06-23T13:55:49Z</time>
      </trkpt>
      <trkpt lat="48.03386" lon="6.91919">
        <ele>865.85</ele>
        <time>2021-06-23T13:55:51Z</time>
      </trkpt>
      <trkpt lat="48.03395" lon="6.91932">
        <ele>866.58</ele>
        <time>2021-06-23T13:55:53Z</time>
      </trkpt>
      <trkpt lat="48.03401" lon="6.91944">
        <ele>866.83</ele>
        <time>2021-06-23T13:55:56Z</time>
      </trkpt>
      <trkpt lat="48.03406" lon="6.91961">
        <ele>863.72</ele>
        <time>2021-06-23T13:55:58Z</time>
      </trkpt>
      <trkpt lat="48.03411" lon="6.91995">
        <ele>855.79</ele>
        <time>2021-06-23T13:56:00Z</time>
      </trkpt>
      <trkpt lat="48.03466" lon="6.92093">
        <ele>854.86</ele>
        <time>2021-06-23T13:56:02Z</time>
      </trkpt>
      <trkpt lat="48.03504" lon="6.92177">
        <ele>846.18</ele>
        <time>2021-06-23T13:56:04Z</time>
      </trkpt>
      <trkpt lat="48.03527" lon="6.92218">
        <ele>848.22</ele>
        <time>2021-06-23T13:56:06Z</time>
      </trkpt>
      <trkpt lat="48.03562" lon="6.92257">
        <ele>850.53</ele>
        <time>2021-06-23T13:56:08Z</time>
      </trkpt>
      <trkpt lat="48.03569" lon="6.92268">
        <ele>849.93</ele>
        <time>2021-06-23T13:56:10Z</time>
      </trkpt>
      <trkpt lat="48.03582" lon="6.92311">
        <ele>845.99</ele>
        <time>2021-06-23T13:56:12Z</time>
      </trkpt>
      <trkpt lat="48.03592" lon="6.92366">
        <ele>840.75</ele>
        <time>2021-06-23T13:56:14Z</time>
      </trkpt>
      <trkpt lat="48.03592" lon="6.92382">
        <ele>838.01</ele>
        <time>2021-06-23T13:56:16Z</time>
      </trkpt>
      <trkpt lat="48.03584" lon="6.92435">
        <ele>832.81</ele>
        <time>2021-06-23T13:56:18Z</time>
      </trkpt>
      <trkpt lat="48.03568" lon="6.92502">
        <ele>832.73</ele>
        <time>2021-06-23T13:56:20Z</time>
      </trkpt>
      <trkpt lat="48.03564" lon="6.9251">
        <ele>832.71</ele>
        <time>2021-06-23T13:56:22Z</time>
      </trkpt>
      <trkpt lat="48.0355" lon="6.92524">
        <ele>833.26</ele>
        <time>2021-06-23T13:56:24Z</time>
      </trkpt>
      <trkpt lat="48.03555" lon="6.92534">
        <ele>834.22</ele>
        <time>2021-06-23T13:56:26Z</time>
      </trkpt>
      <trkpt lat="48.03598" lon="6.92591">
        <ele>834.34</ele>
        <time>2021-06-23T13:56:29Z</time>
      </trkpt>
      <trkpt lat="48.03626" lon="6.9262">
        <ele>841.65</ele>
        <time>2021-06-23T13:56:31Z</time>
      </trkpt>
      <trkpt lat="48.03634" lon="6.92631">
        <ele>844.36</ele>
        <time>2021-06-23T13:56:34Z</time>
      </trkpt>
      <trkpt lat="48.03651" lon="6.92667">
        <ele>847.74</ele>
        <time>2021-06-23T13:56:36Z</time>
      </trkpt>
      <trkpt lat="48.03659" lon="6.92691">
        <ele>847.31</ele>
        <time>2021-06-23T13:56:39Z</time>
      </trkpt>
      <trkpt lat="48.03672" lon="6.92722">
        <ele>847.82</ele>
        <time>2021-06-23T13:56:41Z</time>
      </trkpt>
      <trkpt lat="48.03677" lon="6.92727">
        <ele>847.88</ele>
        <time>2021-06-23T13:56:44Z</time>
      </trkpt>
      <trkpt lat="48.03748" lon="6.92771">
        <ele>852.34</ele>
        <time>2021-06-23T13:56:46Z</time>
      </trkpt>
      <trkpt lat="48.03836" lon="6.92829">
        <ele>859.44</ele>
        <time>2021-06-23T13:56:49Z</time>
      </trkpt>
      <trkpt lat="48.03871" lon="6.92853">
        <ele>861.13</ele>
        <time>2021-06-23T13:56:51Z</time>
      </trkpt>
      <trkpt lat="48.03889" lon="6.92869">
        <ele>862.15</ele>
        <time>2021-06-23T13:56:54Z</time>
      </trkpt>
      <trkpt lat="48.03898" lon="6.92881">
        <ele>862.1</ele>
        <time>2021-06-23T13:56:56Z</time>
      </trkpt>
      <trkpt lat="48.03909" lon="6.92921">
        <ele>859.3</ele>
        <time>2021-06-23T13:56:59Z</time>
      </trkpt>
      <trkpt lat="48.03919" lon="6.92943">
        <ele>857.2</ele>
        <time>2021-06-23T13:57:01Z</time>
      </trkpt>
      <trkpt lat="48.03948" lon="6.92989">
        <ele>856.27</ele>
        <time>2021-06-23T13:57:03Z</time>
      </trkpt>
      <trkpt lat="48.03974" lon="6.93024">
        <ele>857.99</ele>
        <time>2021-06-23T13:57:06Z</time>
      </trkpt>
      <trkpt lat="48.03998" lon="6.93073">
        <ele>859.93</ele>
        <time>2021-06-23T13:57:08Z</time>
      </trkpt>
      <trkpt lat="48.04008" lon="6.93087">
        <ele>860</ele>
        <time>2021-06-23T13:57:11Z</time>
      </trkpt>
      <trkpt lat="48.04025" lon="6.93103">
        <ele>860</ele>
        <time>2021-06-23T13:57:13Z</time>
      </trkpt>
      <trkpt lat="48.04088" lon="6.93147">
        <ele>860.17</ele>
        <time>2021-06-23T13:57:16Z</time>
      </trkpt>
      <trkpt lat="48.04101" lon="6.93153">
        <ele>860.64</ele>
        <time>2021-06-23T13:57:18Z</time>
      </trkpt>
      <trkpt lat="48.04172" lon="6.93174">
        <ele>862.53</ele>
        <time>2021-06-23T13:57:21Z</time>
      </trkpt>
      <trkpt lat="48.042" lon="6.93185">
        <ele>864.17</ele>
        <time>2021-06-23T13:57:23Z</time>
      </trkpt>
      <trkpt lat="48.0425" lon="6.93208">
        <ele>861.53</ele>
        <time>2021-06-23T13:57:26Z</time>
      </trkpt>
      <trkpt lat="48.04323" lon="6.93255">
        <ele>860.69</ele>
        <time>2021-06-23T13:57:28Z</time>
      </trkpt>
      <trkpt lat="48.04337" lon="6.93265">
        <ele>861.28</ele>
        <time>2021-06-23T13:57:31Z</time>
      </trkpt>
      <trkpt lat="48.04357" lon="6.93292">
        <ele>863.19</ele>
        <time>2021-06-23T13:57:33Z</time>
      </trkpt>
      <trkpt lat="48.04377" lon="6.93328">
        <ele>866.27</ele>
        <time>2021-06-23T13:57:36Z</time>
      </trkpt>
      <trkpt lat="48.04381" lon="6.93339">
        <ele>866.84</ele>
        <time>2021-06-23T13:57:38Z</time>
      </trkpt>
      <trkpt lat="48.0439" lon="6.93375">
        <ele>868.47</ele>
        <time>2021-06-23T13:57:41Z</time>
      </trkpt>
      <trkpt lat="48.04398" lon="6.93391">
        <ele>869.74</ele>
        <time>2021-06-23T13:57:43Z</time>
      </trkpt>
      <trkpt lat="48.04408" lon="6.934">
        <ele>869.98</ele>
        <time>2021-06-23T13:57:46Z</time>
      </trkpt>
      <trkpt lat="48.04418" lon="6.93403">
        <ele>870.08</ele>
        <time>2021-06-23T13:57:48Z</time>
      </trkpt>
      <trkpt lat="48.04431" lon="6.93403">
        <ele>870.76</ele>
        <time>2021-06-23T13:57:51Z</time>
      </trkpt>
      <trkpt lat="48.04503" lon="6.93391">
        <ele>876.1</ele>
        <time>2021-06-23T13:57:53Z</time>
      </trkpt>
      <trkpt lat="48.04523" lon="6.93395">
        <ele>874.84</ele>
        <time>2021-06-23T13:57:56Z</time>
      </trkpt>
      <trkpt lat="48.04531" lon="6.934">
        <ele>874.28</ele>
        <time>2021-06-23T13:57:58Z</time>
      </trkpt>
      <trkpt lat="48.04536" lon="6.93406">
        <ele>873.78</ele>
        <time>2021-06-23T13:58:01Z</time>
      </trkpt>
      <trkpt lat="48.04539" lon="6.93414">
        <ele>873.53</ele>
        <time>2021-06-23T13:58:03Z</time>
      </trkpt>
      <trkpt lat="48.0454" lon="6.93434">
        <ele>875.24</ele>
        <time>2021-06-23T13:58:06Z</time>
      </trkpt>
      <trkpt lat="48.04528" lon="6.93489">
        <ele>886.8</ele>
        <time>2021-06-23T13:58:08Z</time>
      </trkpt>
      <trkpt lat="48.04528" lon="6.935">
        <ele>887.85</ele>
        <time>2021-06-23T13:58:11Z</time>
      </trkpt>
      <trkpt lat="48.04529" lon="6.93511">
        <ele>887.91</ele>
        <time>2021-06-23T13:58:13Z</time>
      </trkpt>
      <trkpt lat="48.04541" lon="6.93536">
        <ele>886.76</ele>
        <time>2021-06-23T13:58:16Z</time>
      </trkpt>
      <trkpt lat="48.04598" lon="6.93605">
        <ele>894.63</ele>
        <time>2021-06-23T13:58:18Z</time>
      </trkpt>
      <trkpt lat="48.04615" lon="6.93617">
        <ele>894.43</ele>
        <time>2021-06-23T13:58:21Z</time>
      </trkpt>
      <trkpt lat="48.04631" lon="6.93623">
        <ele>893.47</ele>
        <time>2021-06-23T13:58:23Z</time>
      </trkpt>
      <trkpt lat="48.04706" lon="6.93664">
        <ele>896.22</ele>
        <time>2021-06-23T13:58:26Z</time>
      </trkpt>
      <trkpt lat="48.04776" lon="6.93727">
        <ele>894.57</ele>
        <time>2021-06-23T13:58:28Z</time>
      </trkpt>
      <trkpt lat="48.04794" lon="6.93748">
        <ele>896</ele>
        <time>2021-06-23T13:58:31Z</time>
      </trkpt>
      <trkpt lat="48.04821" lon="6.93788">
        <ele>899.86</ele>
        <time>2021-06-23T13:58:33Z</time>
      </trkpt>
      <trkpt lat="48.04855" lon="6.93833">
        <ele>907.36</ele>
        <time>2021-06-23T13:58:36Z</time>
      </trkpt>
      <trkpt lat="48.04885" lon="6.9387">
        <ele>905.64</ele>
        <time>2021-06-23T13:58:38Z</time>
      </trkpt>
      <trkpt lat="48.0492" lon="6.93908">
        <ele>905.73</ele>
        <time>2021-06-23T13:58:41Z</time>
      </trkpt>
      <trkpt lat="48.04974" lon="6.93981">
        <ele>908.11</ele>
        <time>2021-06-23T13:58:43Z</time>
      </trkpt>
      <trkpt lat="48.05036" lon="6.9405">
        <ele>914.74</ele>
        <time>2021-06-23T13:58:46Z</time>
      </trkpt>
      <trkpt lat="48.05046" lon="6.94063">
        <ele>914.37</ele>
        <time>2021-06-23T13:58:48Z</time>
      </trkpt>
      <trkpt lat="48.05063" lon="6.94119">
        <ele>914.79</ele>
        <time>2021-06-23T13:58:51Z</time>
      </trkpt>
      <trkpt lat="48.05074" lon="6.94146">
        <ele>914</ele>
        <time>2021-06-23T13:58:53Z</time>
      </trkpt>
      <trkpt lat="48.05121" lon="6.94242">
        <ele>911.22</ele>
        <time>2021-06-23T13:58:56Z</time>
      </trkpt>
      <trkpt lat="48.05176" lon="6.94343">
        <ele>909.65</ele>
        <time>2021-06-23T13:58:58Z</time>
      </trkpt>
      <trkpt lat="48.05255" lon="6.94571">
        <ele>910.63</ele>
        <time>2021-06-23T13:59:01Z</time>
      </trkpt>
      <trkpt lat="48.05286" lon="6.94634">
        <ele>912.59</ele>
        <time>2021-06-23T13:59:03Z</time>
      </trkpt>
      <trkpt lat="48.05292" lon="6.94655">
        <ele>912.8</ele>
        <time>2021-06-23T13:59:06Z</time>
      </trkpt>
      <trkpt lat="48.05295" lon="6.94677">
        <ele>912.77</ele>
        <time>2021-06-23T13:59:08Z</time>
      </trkpt>
      <trkpt lat="48.05296" lon="6.94733">
        <ele>915</ele>
        <time>2021-06-23T13:59:11Z</time>
      </trkpt>
      <trkpt lat="48.05295" lon="6.94752">
        <ele>916.01</ele>
        <time>2021-06-23T13:59:13Z</time>
      </trkpt>
      <trkpt lat="48.05292" lon="6.94772">
        <ele>915.99</ele>
        <time>2021-06-23T13:59:16Z</time>
      </trkpt>
      <trkpt lat="48.05282" lon="6.94794">
        <ele>916.08</ele>
        <time>2021-06-23T13:59:18Z</time>
      </trkpt>
      <trkpt lat="48.05258" lon="6.94821">
        <ele>917.08</ele>
        <time>2021-06-23T13:59:21Z</time>
      </trkpt>
      <trkpt lat="48.05189" lon="6.94862">
        <ele>923.09</ele>
        <time>2021-06-23T13:59:23Z</time>
      </trkpt>
      <trkpt lat="48.0517" lon="6.9488">
        <ele>924.6</ele>
        <time>2021-06-23T13:59:26Z</time>
      </trkpt>
      <trkpt lat="48.05128" lon="6.94916">
        <ele>924.98</ele>
        <time>2021-06-23T13:59:28Z</time>
      </trkpt>
      <trkpt lat="48.05115" lon="6.94931">
        <ele>926.09</ele>
        <time>2021-06-23T13:59:31Z</time>
      </trkpt>
      <trkpt lat="48.05108" lon="6.94944">
        <ele>926.95</ele>
        <time>2021-06-23T13:59:33Z</time>
      </trkpt>
      <trkpt lat="48.05101" lon="6.94968">
        <ele>931.27</ele>
        <time>2021-06-23T13:59:36Z</time>
      </trkpt>
      <trkpt lat="48.05087" lon="6.94999">
        <ele>936.89</ele>
        <time>2021-06-23T13:59:38Z</time>
      </trkpt>
      <trkpt lat="48.05044" lon="6.95062">
        <ele>938.74</ele>
        <time>2021-06-23T13:59:41Z</time>
      </trkpt>
      <trkpt lat="48.05031" lon="6.95085">
        <ele>938.58</ele>
        <time>2021-06-23T13:59:43Z</time>
      </trkpt>
      <trkpt lat="48.05" lon="6.95175">
        <ele>943.88</ele>
        <time>2021-06-23T13:59:46Z</time>
      </trkpt>
      <trkpt lat="48.04933" lon="6.9532">
        <ele>951.93</ele>
        <time>2021-06-23T13:59:48Z</time>
      </trkpt>
      <trkpt lat="48.04916" lon="6.95399">
        <ele>961.4</ele>
        <time>2021-06-23T13:59:51Z</time>
      </trkpt>
      <trkpt lat="48.04869" lon="6.95545">
        <ele>971.1</ele>
        <time>2021-06-23T13:59:53Z</time>
      </trkpt>
      <trkpt lat="48.04855" lon="6.95635">
        <ele>972.85</ele>
        <time>2021-06-23T13:59:56Z</time>
      </trkpt>
      <trkpt lat="48.04844" lon="6.95835">
        <ele>980.29</ele>
        <time>2021-06-23T13:59:58Z</time>
      </trkpt>
      <trkpt lat="48.04836" lon="6.95884">
        <ele>979.29</ele>
        <time>2021-06-23T14:00:01Z</time>
      </trkpt>
      <trkpt lat="48.04836" lon="6.95973">
        <ele>978.58</ele>
        <time>2021-06-23T14:00:03Z</time>
      </trkpt>
      <trkpt lat="48.04828" lon="6.96093">
        <ele>981.56</ele>
        <time>2021-06-23T14:00:06Z</time>
      </trkpt>
      <trkpt lat="48.04831" lon="6.96113">
        <ele>982</ele>
        <time>2021-06-23T14:00:08Z</time>
      </trkpt>
      <trkpt lat="48.04841" lon="6.96145">
        <ele>983.29</ele>
        <time>2021-06-23T14:00:11Z</time>
      </trkpt>
      <trkpt lat="48.04844" lon="6.9616">
        <ele>983.39</ele>
        <time>2021-06-23T14:00:13Z</time>
      </trkpt>
      <trkpt lat="48.04844" lon="6.96186">
        <ele>983.54</ele>
        <time>2021-06-23T14:00:16Z</time>
      </trkpt>
      <trkpt lat="48.04837" lon="6.96235">
        <ele>985.52</ele>
        <time>2021-06-23T14:00:18Z</time>
      </trkpt>
      <trkpt lat="48.0482" lon="6.96328">
        <ele>989.6</ele>
        <time>2021-06-23T14:00:21Z</time>
      </trkpt>
      <trkpt lat="48.04818" lon="6.96382">
        <ele>992.23</ele>
        <time>2021-06-23T14:00:23Z</time>
      </trkpt>
      <trkpt lat="48.04814" lon="6.9644">
        <ele>989.83</ele>
        <time>2021-06-23T14:00:26Z</time>
      </trkpt>
      <trkpt lat="48.04807" lon="6.96459">
        <ele>988.56</ele>
        <time>2021-06-23T14:00:28Z</time>
      </trkpt>
      <trkpt lat="48.04763" lon="6.96529">
        <ele>989.07</ele>
        <time>2021-06-23T14:00:31Z</time>
      </trkpt>
      <trkpt lat="48.04751" lon="6.96562">
        <ele>989.2</ele>
        <time>2021-06-23T14:00:33Z</time>
      </trkpt>
      <trkpt lat="48.04744" lon="6.96592">
        <ele>991.12</ele>
        <time>2021-06-23T14:00:36Z</time>
      </trkpt>
      <trkpt lat="48.04742" lon="6.9664">
        <ele>993.34</ele>
        <time>2021-06-23T14:00:38Z</time>
      </trkpt>
      <trkpt lat="48.04746" lon="6.9671">
        <ele>995.07</ele>
        <time>2021-06-23T14:00:41Z</time>
      </trkpt>
      <trkpt lat="48.04744" lon="6.96737">
        <ele>995.21</ele>
        <time>2021-06-23T14:00:43Z</time>
      </trkpt>
      <trkpt lat="48.04728" lon="6.96804">
        <ele>996</ele>
        <time>2021-06-23T14:00:46Z</time>
      </trkpt>
      <trkpt lat="48.04702" lon="6.96872">
        <ele>993.8</ele>
        <time>2021-06-23T14:00:48Z</time>
      </trkpt>
      <trkpt lat="48.04701" lon="6.96885">
        <ele>992.6</ele>
        <time>2021-06-23T14:00:51Z</time>
      </trkpt>
      <trkpt lat="48.04702" lon="6.96898">
        <ele>991.27</ele>
        <time>2021-06-23T14:00:53Z</time>
      </trkpt>
      <trkpt lat="48.04731" lon="6.97046">
        <ele>985.18</ele>
        <time>2021-06-23T14:00:56Z</time>
      </trkpt>
      <trkpt lat="48.04734" lon="6.97107">
        <ele>984.77</ele>
        <time>2021-06-23T14:00:58Z</time>
      </trkpt>
      <trkpt lat="48.04731" lon="6.97139">
        <ele>981.47</ele>
        <time>2021-06-23T14:01:01Z</time>
      </trkpt>
      <trkpt lat="48.0472" lon="6.97176">
        <ele>978.46</ele>
        <time>2021-06-23T14:01:03Z</time>
      </trkpt>
      <trkpt lat="48.04718" lon="6.97194">
        <ele>977.92</ele>
        <time>2021-06-23T14:01:06Z</time>
      </trkpt>
      <trkpt lat="48.0472" lon="6.97215">
        <ele>976.14</ele>
        <time>2021-06-23T14:01:08Z</time>
      </trkpt>
      <trkpt lat="48.04742" lon="6.97276">
        <ele>973.36</ele>
        <time>2021-06-23T14:01:10Z</time>
      </trkpt>
      <trkpt lat="48.04754" lon="6.973">
        <ele>973.34</ele>
        <time>2021-06-23T14:01:13Z</time>
      </trkpt>
      <trkpt lat="48.04773" lon="6.97327">
        <ele>972.95</ele>
        <time>2021-06-23T14:01:15Z</time>
      </trkpt>
      <trkpt lat="48.04778" lon="6.9734">
        <ele>970.96</ele>
        <time>2021-06-23T14:01:18Z</time>
      </trkpt>
      <trkpt lat="48.04782" lon="6.97352">
        <ele>968.8</ele>
        <time>2021-06-23T14:01:20Z</time>
      </trkpt>
      <trkpt lat="48.04784" lon="6.97372">
        <ele>965.13</ele>
        <time>2021-06-23T14:01:23Z</time>
      </trkpt>
      <trkpt lat="48.04784" lon="6.97437">
        <ele>959.58</ele>
        <time>2021-06-23T14:01:25Z</time>
      </trkpt>
      <trkpt lat="48.04777" lon="6.97479">
        <ele>960.79</ele>
        <time>2021-06-23T14:01:28Z</time>
      </trkpt>
      <trkpt lat="48.0477" lon="6.97515">
        <ele>958.07</ele>
        <time>2021-06-23T14:01:30Z</time>
      </trkpt>
      <trkpt lat="48.04761" lon="6.9758">
        <ele>957.5</ele>
        <time>2021-06-23T14:01:33Z</time>
      </trkpt>
      <trkpt lat="48.04777" lon="6.97591">
        <ele>960.11</ele>
        <time>2021-06-23T14:01:35Z</time>
      </trkpt>
      <trkpt lat="48.04786" lon="6.97601">
        <ele>962.11</ele>
        <time>2021-06-23T14:01:38Z</time>
      </trkpt>
      <trkpt lat="48.04813" lon="6.97638">
        <ele>966.35</ele>
        <time>2021-06-23T14:01:40Z</time>
      </trkpt>
      <trkpt lat="48.04838" lon="6.97677">
        <ele>959.04</ele>
        <time>2021-06-23T14:01:42Z</time>
      </trkpt>
      <trkpt lat="48.04851" lon="6.97703">
        <ele>954.43</ele>
        <time>2021-06-23T14:01:45Z</time>
      </trkpt>
      <trkpt lat="48.04874" lon="6.97798">
        <ele>957.53</ele>
        <time>2021-06-23T14:01:47Z</time>
      </trkpt>
      <trkpt lat="48.04926" lon="6.97888">
        <ele>946.71</ele>
        <time>2021-06-23T14:01:49Z</time>
      </trkpt>
      <trkpt lat="48.04946" lon="6.97934">
        <ele>944.42</ele>
        <time>2021-06-23T14:01:52Z</time>
      </trkpt>
      <trkpt lat="48.04983" lon="6.98058">
        <ele>941.65</ele>
        <time>2021-06-23T14:01:54Z</time>
      </trkpt>
      <trkpt lat="48.04989" lon="6.98085">
        <ele>941.12</ele>
        <time>2021-06-23T14:01:57Z</time>
      </trkpt>
      <trkpt lat="48.04992" lon="6.98107">
        <ele>941.76</ele>
        <time>2021-06-23T14:01:59Z</time>
      </trkpt>
      <trkpt lat="48.04996" lon="6.98154">
        <ele>942.18</ele>
        <time>2021-06-23T14:02:01Z</time>
      </trkpt>
      <trkpt lat="48.05022" lon="6.98264">
        <ele>928.18</ele>
        <time>2021-06-23T14:02:04Z</time>
      </trkpt>
      <trkpt lat="48.05027" lon="6.98299">
        <ele>925.51</ele>
        <time>2021-06-23T14:02:06Z</time>
      </trkpt>
      <trkpt lat="48.05026" lon="6.98327">
        <ele>926.85</ele>
        <time>2021-06-23T14:02:08Z</time>
      </trkpt>
      <trkpt lat="48.05022" lon="6.98349">
        <ele>929.3</ele>
        <time>2021-06-23T14:02:11Z</time>
      </trkpt>
      <trkpt lat="48.05012" lon="6.98385">
        <ele>937.27</ele>
        <time>2021-06-23T14:02:13Z</time>
      </trkpt>
      <trkpt lat="48.05007" lon="6.9842">
        <ele>940.9</ele>
        <time>2021-06-23T14:02:15Z</time>
      </trkpt>
      <trkpt lat="48.05007" lon="6.98442">
        <ele>937.31</ele>
        <time>2021-06-23T14:02:18Z</time>
      </trkpt>
      <trkpt lat="48.05012" lon="6.98485">
        <ele>926.31</ele>
        <time>2021-06-23T14:02:20Z</time>
      </trkpt>
      <trkpt lat="48.05012" lon="6.98503">
        <ele>925.12</ele>
        <time>2021-06-23T14:02:22Z</time>
      </trkpt>
      <trkpt lat="48.05004" lon="6.98552">
        <ele>929.08</ele>
        <time>2021-06-23T14:02:25Z</time>
      </trkpt>
      <trkpt lat="48.04995" lon="6.98689">
        <ele>923.49</ele>
        <time>2021-06-23T14:02:27Z</time>
      </trkpt>
      <trkpt lat="48.04991" lon="6.98716">
        <ele>921.07</ele>
        <time>2021-06-23T14:02:29Z</time>
      </trkpt>
      <trkpt lat="48.04995" lon="6.98719">
        <ele>917.57</ele>
        <time>2021-06-23T14:02:32Z</time>
      </trkpt>
      <trkpt lat="48.05002" lon="6.98719">
        <ele>913.92</ele>
        <time>2021-06-23T14:02:35Z</time>
      </trkpt>
      <trkpt lat="48.05006" lon="6.98716">
        <ele>912.84</ele>
        <time>2021-06-23T14:02:37Z</time>
      </trkpt>
      <trkpt lat="48.05011" lon="6.9871">
        <ele>912.28</ele>
        <time>2021-06-23T14:02:40Z</time>
      </trkpt>
      <trkpt lat="48.05014" lon="6.98699">
        <ele>912.52</ele>
        <time>2021-06-23T14:02:42Z</time>
      </trkpt>
      <trkpt lat="48.05014" lon="6.98688">
        <ele>913.43</ele>
        <time>2021-06-23T14:02:45Z</time>
      </trkpt>
      <trkpt lat="48.05012" lon="6.98665">
        <ele>916.62</ele>
        <time>2021-06-23T14:02:47Z</time>
      </trkpt>
      <trkpt lat="48.05012" lon="6.98646">
        <ele>918.17</ele>
        <time>2021-06-23T14:02:50Z</time>
      </trkpt>
      <trkpt lat="48.05017" lon="6.98617">
        <ele>917.06</ele>
        <time>2021-06-23T14:02:52Z</time>
      </trkpt>
      <trkpt lat="48.05022" lon="6.98562">
        <ele>914.55</ele>
        <time>2021-06-23T14:02:55Z</time>
      </trkpt>
      <trkpt lat="48.05026" lon="6.9854">
        <ele>911.91</ele>
        <time>2021-06-23T14:02:57Z</time>
      </trkpt>
      <trkpt lat="48.05037" lon="6.98514">
        <ele>906.83</ele>
        <time>2021-06-23T14:03:00Z</time>
      </trkpt>
      <trkpt lat="48.05041" lon="6.98497">
        <ele>905.96</ele>
        <time>2021-06-23T14:03:02Z</time>
      </trkpt>
      <trkpt lat="48.05042" lon="6.98484">
        <ele>906.93</ele>
        <time>2021-06-23T14:03:05Z</time>
      </trkpt>
      <trkpt lat="48.0504" lon="6.98444">
        <ele>913.54</ele>
        <time>2021-06-23T14:03:08Z</time>
      </trkpt>
      <trkpt lat="48.05042" lon="6.98427">
        <ele>912.66</ele>
        <time>2021-06-23T14:03:10Z</time>
      </trkpt>
      <trkpt lat="48.05047" lon="6.98405">
        <ele>910.06</ele>
        <time>2021-06-23T14:03:13Z</time>
      </trkpt>
      <trkpt lat="48.05054" lon="6.98383">
        <ele>905.08</ele>
        <time>2021-06-23T14:03:15Z</time>
      </trkpt>
      <trkpt lat="48.05074" lon="6.98343">
        <ele>893.27</ele>
        <time>2021-06-23T14:03:18Z</time>
      </trkpt>
      <trkpt lat="48.05083" lon="6.98314">
        <ele>888.11</ele>
        <time>2021-06-23T14:03:20Z</time>
      </trkpt>
      <trkpt lat="48.05086" lon="6.98287">
        <ele>888.59</ele>
        <time>2021-06-23T14:03:23Z</time>
      </trkpt>
      <trkpt lat="48.05086" lon="6.9821">
        <ele>891.83</ele>
        <time>2021-06-23T14:03:25Z</time>
      </trkpt>
      <trkpt lat="48.05091" lon="6.98169">
        <ele>890.76</ele>
        <time>2021-06-23T14:03:28Z</time>
      </trkpt>
      <trkpt lat="48.05129" lon="6.98018">
        <ele>874.18</ele>
        <time>2021-06-23T14:03:30Z</time>
      </trkpt>
      <trkpt lat="48.0517" lon="6.97908">
        <ele>869.71</ele>
        <time>2021-06-23T14:03:33Z</time>
      </trkpt>
      <trkpt lat="48.05175" lon="6.97898">
        <ele>872.59</ele>
        <time>2021-06-23T14:03:35Z</time>
      </trkpt>
      <trkpt lat="48.05181" lon="6.97893">
        <ele>873.72</ele>
        <time>2021-06-23T14:03:38Z</time>
      </trkpt>
      <trkpt lat="48.05194" lon="6.97892">
        <ele>872.16</ele>
        <time>2021-06-23T14:03:41Z</time>
      </trkpt>
      <trkpt lat="48.05198" lon="6.97897">
        <ele>870.59</ele>
        <time>2021-06-23T14:03:43Z</time>
      </trkpt>
      <trkpt lat="48.052" lon="6.97902">
        <ele>869.22</ele>
        <time>2021-06-23T14:03:46Z</time>
      </trkpt>
      <trkpt lat="48.05202" lon="6.97913">
        <ele>866.18</ele>
        <time>2021-06-23T14:03:48Z</time>
      </trkpt>
      <trkpt lat="48.05202" lon="6.97924">
        <ele>863.93</ele>
        <time>2021-06-23T14:03:51Z</time>
      </trkpt>
      <trkpt lat="48.05186" lon="6.97974">
        <ele>860.31</ele>
        <time>2021-06-23T14:03:53Z</time>
      </trkpt>
      <trkpt lat="48.0518" lon="6.98011">
        <ele>857.24</ele>
        <time>2021-06-23T14:03:56Z</time>
      </trkpt>
      <trkpt lat="48.05181" lon="6.98032">
        <ele>855.5</ele>
        <time>2021-06-23T14:03:58Z</time>
      </trkpt>
      <trkpt lat="48.05193" lon="6.98112">
        <ele>855.25</ele>
        <time>2021-06-23T14:04:01Z</time>
      </trkpt>
      <trkpt lat="48.05192" lon="6.98141">
        <ele>855.26</ele>
        <time>2021-06-23T14:04:03Z</time>
      </trkpt>
      <trkpt lat="48.05182" lon="6.98229">
        <ele>853.65</ele>
        <time>2021-06-23T14:04:06Z</time>
      </trkpt>
      <trkpt lat="48.05179" lon="6.98335">
        <ele>852.08</ele>
        <time>2021-06-23T14:04:08Z</time>
      </trkpt>
      <trkpt lat="48.05176" lon="6.98362">
        <ele>850.34</ele>
        <time>2021-06-23T14:04:11Z</time>
      </trkpt>
      <trkpt lat="48.05172" lon="6.9838">
        <ele>850.77</ele>
        <time>2021-06-23T14:04:14Z</time>
      </trkpt>
      <trkpt lat="48.05163" lon="6.9841">
        <ele>851.06</ele>
        <time>2021-06-23T14:04:16Z</time>
      </trkpt>
      <trkpt lat="48.0516" lon="6.98428">
        <ele>851.42</ele>
        <time>2021-06-23T14:04:19Z</time>
      </trkpt>
      <trkpt lat="48.05159" lon="6.98508">
        <ele>850.84</ele>
        <time>2021-06-23T14:04:21Z</time>
      </trkpt>
      <trkpt lat="48.05165" lon="6.98587">
        <ele>839.06</ele>
        <time>2021-06-23T14:04:24Z</time>
      </trkpt>
      <trkpt lat="48.05173" lon="6.98642">
        <ele>837.28</ele>
        <time>2021-06-23T14:04:26Z</time>
      </trkpt>
      <trkpt lat="48.05186" lon="6.98697">
        <ele>831.27</ele>
        <time>2021-06-23T14:04:29Z</time>
      </trkpt>
      <trkpt lat="48.05189" lon="6.98717">
        <ele>830.29</ele>
        <time>2021-06-23T14:04:31Z</time>
      </trkpt>
      <trkpt lat="48.05189" lon="6.98768">
        <ele>830.34</ele>
        <time>2021-06-23T14:04:34Z</time>
      </trkpt>
      <trkpt lat="48.05191" lon="6.98793">
        <ele>828.85</ele>
        <time>2021-06-23T14:04:36Z</time>
      </trkpt>
      <trkpt lat="48.05197" lon="6.98815">
        <ele>826.46</ele>
        <time>2021-06-23T14:04:39Z</time>
      </trkpt>
      <trkpt lat="48.05205" lon="6.98835">
        <ele>824.39</ele>
        <time>2021-06-23T14:04:41Z</time>
      </trkpt>
      <trkpt lat="48.05246" lon="6.98884">
        <ele>822.05</ele>
        <time>2021-06-23T14:04:44Z</time>
      </trkpt>
      <trkpt lat="48.05256" lon="6.98893">
        <ele>821.9</ele>
        <time>2021-06-23T14:04:46Z</time>
      </trkpt>
      <trkpt lat="48.05269" lon="6.98899">
        <ele>821.6</ele>
        <time>2021-06-23T14:04:49Z</time>
      </trkpt>
      <trkpt lat="48.0535" lon="6.98899">
        <ele>815.42</ele>
        <time>2021-06-23T14:04:52Z</time>
      </trkpt>
      <trkpt lat="48.05378" lon="6.98894">
        <ele>813.17</ele>
        <time>2021-06-23T14:04:54Z</time>
      </trkpt>
      <trkpt lat="48.05392" lon="6.98887">
        <ele>811.84</ele>
        <time>2021-06-23T14:04:57Z</time>
      </trkpt>
      <trkpt lat="48.05408" lon="6.98877">
        <ele>810.99</ele>
        <time>2021-06-23T14:04:59Z</time>
      </trkpt>
      <trkpt lat="48.05425" lon="6.98861">
        <ele>810.15</ele>
        <time>2021-06-23T14:05:02Z</time>
      </trkpt>
      <trkpt lat="48.05474" lon="6.98796">
        <ele>800.24</ele>
        <time>2021-06-23T14:05:04Z</time>
      </trkpt>
      <trkpt lat="48.05493" lon="6.98776">
        <ele>795.49</ele>
        <time>2021-06-23T14:05:07Z</time>
      </trkpt>
      <trkpt lat="48.05505" lon="6.98766">
        <ele>794.76</ele>
        <time>2021-06-23T14:05:09Z</time>
      </trkpt>
      <trkpt lat="48.05518" lon="6.98761">
        <ele>795.07</ele>
        <time>2021-06-23T14:05:12Z</time>
      </trkpt>
      <trkpt lat="48.05538" lon="6.98758">
        <ele>795.9</ele>
        <time>2021-06-23T14:05:14Z</time>
      </trkpt>
      <trkpt lat="48.05582" lon="6.98757">
        <ele>797.57</ele>
        <time>2021-06-23T14:05:17Z</time>
      </trkpt>
      <trkpt lat="48.05606" lon="6.98747">
        <ele>797.73</ele>
        <time>2021-06-23T14:05:19Z</time>
      </trkpt>
      <trkpt lat="48.05649" lon="6.98704">
        <ele>791.68</ele>
        <time>2021-06-23T14:05:22Z</time>
      </trkpt>
      <trkpt lat="48.05695" lon="6.98663">
        <ele>784.46</ele>
        <time>2021-06-23T14:05:25Z</time>
      </trkpt>
      <trkpt lat="48.05731" lon="6.98624">
        <ele>783.68</ele>
        <time>2021-06-23T14:05:27Z</time>
      </trkpt>
      <trkpt lat="48.05775" lon="6.9858">
        <ele>782.42</ele>
        <time>2021-06-23T14:05:30Z</time>
      </trkpt>
      <trkpt lat="48.05825" lon="6.98536">
        <ele>786.16</ele>
        <time>2021-06-23T14:05:32Z</time>
      </trkpt>
      <trkpt lat="48.05846" lon="6.98514">
        <ele>787.01</ele>
        <time>2021-06-23T14:05:35Z</time>
      </trkpt>
      <trkpt lat="48.05864" lon="6.98493">
        <ele>789.93</ele>
        <time>2021-06-23T14:05:37Z</time>
      </trkpt>
      <trkpt lat="48.05898" lon="6.98446">
        <ele>795.08</ele>
        <time>2021-06-23T14:05:40Z</time>
      </trkpt>
      <trkpt lat="48.05905" lon="6.98428">
        <ele>794.7</ele>
        <time>2021-06-23T14:05:42Z</time>
      </trkpt>
      <trkpt lat="48.05909" lon="6.98411">
        <ele>794.01</ele>
        <time>2021-06-23T14:05:45Z</time>
      </trkpt>
      <trkpt lat="48.05913" lon="6.9839">
        <ele>793.22</ele>
        <time>2021-06-23T14:05:47Z</time>
      </trkpt>
      <trkpt lat="48.05915" lon="6.98366">
        <ele>793.53</ele>
        <time>2021-06-23T14:05:50Z</time>
      </trkpt>
      <trkpt lat="48.05914" lon="6.98352">
        <ele>793.74</ele>
        <time>2021-06-23T14:05:52Z</time>
      </trkpt>
      <trkpt lat="48.05912" lon="6.9834">
        <ele>793.86</ele>
        <time>2021-06-23T14:05:55Z</time>
      </trkpt>
      <trkpt lat="48.05907" lon="6.98327">
        <ele>793.34</ele>
        <time>2021-06-23T14:05:58Z</time>
      </trkpt>
      <trkpt lat="48.0588" lon="6.9829">
        <ele>791</ele>
        <time>2021-06-23T14:06:00Z</time>
      </trkpt>
      <trkpt lat="48.05878" lon="6.98282">
        <ele>790.68</ele>
        <time>2021-06-23T14:06:03Z</time>
      </trkpt>
      <trkpt lat="48.05877" lon="6.98272">
        <ele>790.26</ele>
        <time>2021-06-23T14:06:05Z</time>
      </trkpt>
      <trkpt lat="48.05882" lon="6.98255">
        <ele>789.33</ele>
        <time>2021-06-23T14:06:08Z</time>
      </trkpt>
      <trkpt lat="48.05892" lon="6.98242">
        <ele>788.96</ele>
        <time>2021-06-23T14:06:10Z</time>
      </trkpt>
      <trkpt lat="48.05928" lon="6.98219">
        <ele>794.65</ele>
        <time>2021-06-23T14:06:13Z</time>
      </trkpt>
      <trkpt lat="48.05944" lon="6.98202">
        <ele>794.37</ele>
        <time>2021-06-23T14:06:15Z</time>
      </trkpt>
      <trkpt lat="48.05968" lon="6.98161">
        <ele>789.64</ele>
        <time>2021-06-23T14:06:18Z</time>
      </trkpt>
      <trkpt lat="48.0598" lon="6.98132">
        <ele>786.02</ele>
        <time>2021-06-23T14:06:20Z</time>
      </trkpt>
      <trkpt lat="48.05991" lon="6.9811">
        <ele>783.19</ele>
        <time>2021-06-23T14:06:23Z</time>
      </trkpt>
      <trkpt lat="48.06034" lon="6.98073">
        <ele>784.13</ele>
        <time>2021-06-23T14:06:25Z</time>
      </trkpt>
      <trkpt lat="48.06043" lon="6.98061">
        <ele>784.41</ele>
        <time>2021-06-23T14:06:28Z</time>
      </trkpt>
      <trkpt lat="48.06052" lon="6.98045">
        <ele>783.54</ele>
        <time>2021-06-23T14:06:31Z</time>
      </trkpt>
      <trkpt lat="48.0606" lon="6.9801">
        <ele>779.84</ele>
        <time>2021-06-23T14:06:33Z</time>
      </trkpt>
      <trkpt lat="48.06078" lon="6.97913">
        <ele>771.74</ele>
        <time>2021-06-23T14:06:36Z</time>
      </trkpt>
      <trkpt lat="48.061" lon="6.97844">
        <ele>771.07</ele>
        <time>2021-06-23T14:06:38Z</time>
      </trkpt>
      <trkpt lat="48.06106" lon="6.97813">
        <ele>770.85</ele>
        <time>2021-06-23T14:06:41Z</time>
      </trkpt>
      <trkpt lat="48.0611" lon="6.97782">
        <ele>769.07</ele>
        <time>2021-06-23T14:06:43Z</time>
      </trkpt>
      <trkpt lat="48.06113" lon="6.97732">
        <ele>768.81</ele>
        <time>2021-06-23T14:06:46Z</time>
      </trkpt>
      <trkpt lat="48.06113" lon="6.97682">
        <ele>770.9</ele>
        <time>2021-06-23T14:06:48Z</time>
      </trkpt>
      <trkpt lat="48.06116" lon="6.97647">
        <ele>772.04</ele>
        <time>2021-06-23T14:06:51Z</time>
      </trkpt>
      <trkpt lat="48.06122" lon="6.97614">
        <ele>772.58</ele>
        <time>2021-06-23T14:06:53Z</time>
      </trkpt>
      <trkpt lat="48.06145" lon="6.9754">
        <ele>772.36</ele>
        <time>2021-06-23T14:06:56Z</time>
      </trkpt>
      <trkpt lat="48.06151" lon="6.97517">
        <ele>773.89</ele>
        <time>2021-06-23T14:06:58Z</time>
      </trkpt>
      <trkpt lat="48.06154" lon="6.97493">
        <ele>775.03</ele>
        <time>2021-06-23T14:07:01Z</time>
      </trkpt>
      <trkpt lat="48.06155" lon="6.97428">
        <ele>774.84</ele>
        <time>2021-06-23T14:07:04Z</time>
      </trkpt>
      <trkpt lat="48.06152" lon="6.97363">
        <ele>775.43</ele>
        <time>2021-06-23T14:07:06Z</time>
      </trkpt>
      <trkpt lat="48.06159" lon="6.97283">
        <ele>768.1</ele>
        <time>2021-06-23T14:07:09Z</time>
      </trkpt>
      <trkpt lat="48.06166" lon="6.97185">
        <ele>764.75</ele>
        <time>2021-06-23T14:07:11Z</time>
      </trkpt>
      <trkpt lat="48.06171" lon="6.97144">
        <ele>764.89</ele>
        <time>2021-06-23T14:07:14Z</time>
      </trkpt>
      <trkpt lat="48.06178" lon="6.97116">
        <ele>763.91</ele>
        <time>2021-06-23T14:07:16Z</time>
      </trkpt>
      <trkpt lat="48.062" lon="6.97049">
        <ele>762.13</ele>
        <time>2021-06-23T14:07:19Z</time>
      </trkpt>
      <trkpt lat="48.06243" lon="6.96937">
        <ele>757.12</ele>
        <time>2021-06-23T14:07:21Z</time>
      </trkpt>
      <trkpt lat="48.06272" lon="6.96855">
        <ele>756.97</ele>
        <time>2021-06-23T14:07:24Z</time>
      </trkpt>
      <trkpt lat="48.0628" lon="6.96825">
        <ele>756.78</ele>
        <time>2021-06-23T14:07:26Z</time>
      </trkpt>
      <trkpt lat="48.06284" lon="6.96799">
        <ele>756.12</ele>
        <time>2021-06-23T14:07:29Z</time>
      </trkpt>
      <trkpt lat="48.06295" lon="6.96707">
        <ele>757.6</ele>
        <time>2021-06-23T14:07:31Z</time>
      </trkpt>
      <trkpt lat="48.06295" lon="6.96681">
        <ele>756.09</ele>
        <time>2021-06-23T14:07:34Z</time>
      </trkpt>
      <trkpt lat="48.06292" lon="6.96639">
        <ele>753.55</ele>
        <time>2021-06-23T14:07:37Z</time>
      </trkpt>
      <trkpt lat="48.06292" lon="6.96578">
        <ele>753.3</ele>
        <time>2021-06-23T14:07:39Z</time>
      </trkpt>
      <trkpt lat="48.06295" lon="6.96548">
        <ele>752.42</ele>
        <time>2021-06-23T14:07:42Z</time>
      </trkpt>
      <trkpt lat="48.06306" lon="6.9649">
        <ele>752.67</ele>
        <time>2021-06-23T14:07:44Z</time>
      </trkpt>
      <trkpt lat="48.06315" lon="6.96456">
        <ele>752.21</ele>
        <time>2021-06-23T14:07:47Z</time>
      </trkpt>
      <trkpt lat="48.0634" lon="6.96388">
        <ele>749.63</ele>
        <time>2021-06-23T14:07:49Z</time>
      </trkpt>
      <trkpt lat="48.06367" lon="6.96339">
        <ele>747.04</ele>
        <time>2021-06-23T14:07:52Z</time>
      </trkpt>
      <trkpt lat="48.06417" lon="6.96252">
        <ele>745.23</ele>
        <time>2021-06-23T14:07:54Z</time>
      </trkpt>
      <trkpt lat="48.06461" lon="6.96183">
        <ele>744.48</ele>
        <time>2021-06-23T14:07:57Z</time>
      </trkpt>
      <trkpt lat="48.06526" lon="6.96102">
        <ele>747.38</ele>
        <time>2021-06-23T14:07:59Z</time>
      </trkpt>
      <trkpt lat="48.06551" lon="6.96063">
        <ele>749.28</ele>
        <time>2021-06-23T14:08:02Z</time>
      </trkpt>
      <trkpt lat="48.06577" lon="6.9603">
        <ele>752.65</ele>
        <time>2021-06-23T14:08:04Z</time>
      </trkpt>
      <trkpt lat="48.06602" lon="6.96001">
        <ele>751.13</ele>
        <time>2021-06-23T14:08:07Z</time>
      </trkpt>
      <trkpt lat="48.06656" lon="6.95956">
        <ele>749.92</ele>
        <time>2021-06-23T14:08:10Z</time>
      </trkpt>
      <trkpt lat="48.06668" lon="6.95942">
        <ele>748.97</ele>
        <time>2021-06-23T14:08:12Z</time>
      </trkpt>
      <trkpt lat="48.06743" lon="6.95817">
        <ele>750.13</ele>
        <time>2021-06-23T14:08:15Z</time>
      </trkpt>
      <trkpt lat="48.06786" lon="6.95756">
        <ele>749.17</ele>
        <time>2021-06-23T14:08:17Z</time>
      </trkpt>
      <trkpt lat="48.06839" lon="6.95696">
        <ele>748.33</ele>
        <time>2021-06-23T14:08:20Z</time>
      </trkpt>
      <trkpt lat="48.06858" lon="6.95665">
        <ele>747.5</ele>
        <time>2021-06-23T14:08:22Z</time>
      </trkpt>
      <trkpt lat="48.06876" lon="6.95642">
        <ele>750.86</ele>
        <time>2021-06-23T14:08:25Z</time>
      </trkpt>
      <trkpt lat="48.06928" lon="6.956">
        <ele>752.45</ele>
        <time>2021-06-23T14:08:27Z</time>
      </trkpt>
      <trkpt lat="48.06989" lon="6.95537">
        <ele>754.38</ele>
        <time>2021-06-23T14:08:30Z</time>
      </trkpt>
      <trkpt lat="48.0707" lon="6.95435">
        <ele>756.71</ele>
        <time>2021-06-23T14:08:32Z</time>
      </trkpt>
      <trkpt lat="48.07237" lon="6.95275">
        <ele>755.99</ele>
        <time>2021-06-23T14:08:35Z</time>
      </trkpt>
      <trkpt lat="48.07274" lon="6.95228">
        <ele>752.99</ele>
        <time>2021-06-23T14:08:37Z</time>
      </trkpt>
      <trkpt lat="48.07289" lon="6.95217">
        <ele>753.76</ele>
        <time>2021-06-23T14:08:40Z</time>
      </trkpt>
      <trkpt lat="48.07408" lon="6.95138">
        <ele>748.93</ele>
        <time>2021-06-23T14:08:43Z</time>
      </trkpt>
      <trkpt lat="48.0744" lon="6.95124">
        <ele>754.49</ele>
        <time>2021-06-23T14:08:45Z</time>
      </trkpt>
      <trkpt lat="48.07483" lon="6.9509">
        <ele>751.54</ele>
        <time>2021-06-23T14:08:48Z</time>
      </trkpt>
      <trkpt lat="48.07514" lon="6.9508">
        <ele>750</ele>
        <time>2021-06-23T14:08:50Z</time>
      </trkpt>
      <trkpt lat="48.07554" lon="6.95085">
        <ele>750.75</ele>
        <time>2021-06-23T14:08:53Z</time>
      </trkpt>
      <trkpt lat="48.07587" lon="6.95078">
        <ele>749.13</ele>
        <time>2021-06-23T14:08:55Z</time>
      </trkpt>
      <trkpt lat="48.07635" lon="6.95055">
        <ele>749.78</ele>
        <time>2021-06-23T14:08:58Z</time>
      </trkpt>
      <trkpt lat="48.07678" lon="6.95042">
        <ele>757.22</ele>
        <time>2021-06-23T14:09:00Z</time>
      </trkpt>
      <trkpt lat="48.07723" lon="6.95022">
        <ele>756</ele>
        <time>2021-06-23T14:09:03Z</time>
      </trkpt>
      <trkpt lat="48.07771" lon="6.95005">
        <ele>757.71</ele>
        <time>2021-06-23T14:09:05Z</time>
      </trkpt>
      <trkpt lat="48.07811" lon="6.94984">
        <ele>754.74</ele>
        <time>2021-06-23T14:09:08Z</time>
      </trkpt>
      <trkpt lat="48.07833" lon="6.9497">
        <ele>753.61</ele>
        <time>2021-06-23T14:09:10Z</time>
      </trkpt>
      <trkpt lat="48.07862" lon="6.94943">
        <ele>750.78</ele>
        <time>2021-06-23T14:09:13Z</time>
      </trkpt>
      <trkpt lat="48.07927" lon="6.94896">
        <ele>752.06</ele>
        <time>2021-06-23T14:09:16Z</time>
      </trkpt>
      <trkpt lat="48.08012" lon="6.9481">
        <ele>750.21</ele>
        <time>2021-06-23T14:09:18Z</time>
      </trkpt>
      <trkpt lat="48.08029" lon="6.94795">
        <ele>749.87</ele>
        <time>2021-06-23T14:09:21Z</time>
      </trkpt>
      <trkpt lat="48.08048" lon="6.94785">
        <ele>749.86</ele>
        <time>2021-06-23T14:09:23Z</time>
      </trkpt>
      <trkpt lat="48.08222" lon="6.94716">
        <ele>744.79</ele>
        <time>2021-06-23T14:09:26Z</time>
      </trkpt>
      <trkpt lat="48.08234" lon="6.94716">
        <ele>744.77</ele>
        <time>2021-06-23T14:09:28Z</time>
      </trkpt>
      <trkpt lat="48.08246" lon="6.94726">
        <ele>745.39</ele>
        <time>2021-06-23T14:09:31Z</time>
      </trkpt>
      <trkpt lat="48.08255" lon="6.94747">
        <ele>747.8</ele>
        <time>2021-06-23T14:09:33Z</time>
      </trkpt>
      <trkpt lat="48.08257" lon="6.94755">
        <ele>748.99</ele>
        <time>2021-06-23T14:09:36Z</time>
      </trkpt>
      <trkpt lat="48.08268" lon="6.94746">
        <ele>748.13</ele>
        <time>2021-06-23T14:09:45Z</time>
      </trkpt>
      <trkpt lat="48.08292" lon="6.94719">
        <ele>745.82</ele>
        <time>2021-06-23T14:09:55Z</time>
      </trkpt>
      <trkpt lat="48.08306" lon="6.94697">
        <ele>745.2</ele>
        <time>2021-06-23T14:10:04Z</time>
      </trkpt>
      <trkpt lat="48.08317" lon="6.94662">
        <ele>745.37</ele>
        <time>2021-06-23T14:10:13Z</time>
      </trkpt>
      <trkpt lat="48.08321" lon="6.94642">
        <ele>746.08</ele>
        <time>2021-06-23T14:10:22Z</time>
      </trkpt>
      <trkpt lat="48.08323" lon="6.94598">
        <ele>746.53</ele>
        <time>2021-06-23T14:10:32Z</time>
      </trkpt>
      <trkpt lat="48.0831" lon="6.94487">
        <ele>748.52</ele>
        <time>2021-06-23T14:10:41Z</time>
      </trkpt>
      <trkpt lat="48.08312" lon="6.94414">
        <ele>747.72</ele>
        <time>2021-06-23T14:10:50Z</time>
      </trkpt>
      <trkpt lat="48.0835" lon="6.9373">
        <ele>733.76</ele>
        <time>2021-06-23T14:11:00Z</time>
      </trkpt>
      <trkpt lat="48.08381" lon="6.93299">
        <ele>726.28</ele>
        <time>2021-06-23T14:11:09Z</time>
      </trkpt>
      <trkpt lat="48.08392" lon="6.93125">
        <ele>730.16</ele>
        <time>2021-06-23T14:11:18Z</time>
      </trkpt>
      <trkpt lat="48.08399" lon="6.92975">
        <ele>726.57</ele>
        <time>2021-06-23T14:11:28Z</time>
      </trkpt>
      <trkpt lat="48.08399" lon="6.92929">
        <ele>725.7</ele>
        <time>2021-06-23T14:11:37Z</time>
      </trkpt>
      <trkpt lat="48.08396" lon="6.9288">
        <ele>724.47</ele>
        <time>2021-06-23T14:11:46Z</time>
      </trkpt>
      <trkpt lat="48.0839" lon="6.92817">
        <ele>723.16</ele>
        <time>2021-06-23T14:11:55Z</time>
      </trkpt>
      <trkpt lat="48.08385" lon="6.92705">
        <ele>723.7</ele>
        <time>2021-06-23T14:12:05Z</time>
      </trkpt>
      <trkpt lat="48.08377" lon="6.92651">
        <ele>721.84</ele>
        <time>2021-06-23T14:12:14Z</time>
      </trkpt>
      <trkpt lat="48.08433" lon="6.92655">
        <ele>728.55</ele>
        <time>2021-06-23T14:12:18Z</time>
      </trkpt>
      <trkpt lat="48.08468" lon="6.92661">
        <ele>730.8</ele>
        <time>2021-06-23T14:12:21Z</time>
      </trkpt>
      <trkpt lat="48.08474" lon="6.92658">
        <ele>731.13</ele>
        <time>2021-06-23T14:12:25Z</time>
      </trkpt>
      <trkpt lat="48.08478" lon="6.92652">
        <ele>731.41</ele>
        <time>2021-06-23T14:12:29Z</time>
      </trkpt>
      <trkpt lat="48.0848" lon="6.92644">
        <ele>731.57</ele>
        <time>2021-06-23T14:12:32Z</time>
      </trkpt>
      <trkpt lat="48.08479" lon="6.92636">
        <ele>731.81</ele>
        <time>2021-06-23T14:12:36Z</time>
      </trkpt>
      <trkpt lat="48.08476" lon="6.9263">
        <ele>732.3</ele>
        <time>2021-06-23T14:12:40Z</time>
      </trkpt>
      <trkpt lat="48.08459" lon="6.9261">
        <ele>732.73</ele>
        <time>2021-06-23T14:12:43Z</time>
      </trkpt>
      <trkpt lat="48.08457" lon="6.92599">
        <ele>733.86</ele>
        <time>2021-06-23T14:12:47Z</time>
      </trkpt>
      <trkpt lat="48.08458" lon="6.9259">
        <ele>735.16</ele>
        <time>2021-06-23T14:12:51Z</time>
      </trkpt>
      <trkpt lat="48.08462" lon="6.92582">
        <ele>736.5</ele>
        <time>2021-06-23T14:12:54Z</time>
      </trkpt>
      <trkpt lat="48.08473" lon="6.92568">
        <ele>738.06</ele>
        <time>2021-06-23T14:12:58Z</time>
      </trkpt>
      <trkpt lat="48.08482" lon="6.92561">
        <ele>739.02</ele>
        <time>2021-06-23T14:13:02Z</time>
      </trkpt>
      <trkpt lat="48.08555" lon="6.92534">
        <ele>743.43</ele>
        <time>2021-06-23T14:13:05Z</time>
      </trkpt>
      <trkpt lat="48.08589" lon="6.92528">
        <ele>747.19</ele>
        <time>2021-06-23T14:13:09Z</time>
      </trkpt>
      <trkpt lat="48.08609" lon="6.92541">
        <ele>752.4</ele>
        <time>2021-06-23T14:13:13Z</time>
      </trkpt>
      <trkpt lat="48.08616" lon="6.9255">
        <ele>753.75</ele>
        <time>2021-06-23T14:13:15Z</time>
      </trkpt>
    </trkseg>
  </trk>
  <trk>
    <name><![CDATA[2021-06-18_08-43_Fri]]></name>
    <extensions>
      <line xmlns="http://www.topografix.com/GPX/gpx_style/0/2">
        <color>008888</color>
        <width>4</width>
      </line>
    </extensions>
    <trkseg>
      <trkpt lat="48.08606" lon="6.92539">
        <ele>749.79</ele>
        <time>2021-06-23T09:20:21Z</time>
      </trkpt>
      <trkpt lat="48.08606" lon="6.92539">
        <ele>749.79</ele>
        <time>2021-06-23T09:20:21Z</time>
      </trkpt>
      <trkpt lat="48.08589" lon="6.92528">
        <ele>747.19</ele>
        <time>2021-06-23T09:20:27Z</time>
      </trkpt>
      <trkpt lat="48.08555" lon="6.92534">
        <ele>743.43</ele>
        <time>2021-06-23T09:20:32Z</time>
      </trkpt>
      <trkpt lat="48.08482" lon="6.92561">
        <ele>739.02</ele>
        <time>2021-06-23T09:20:38Z</time>
      </trkpt>
      <trkpt lat="48.08473" lon="6.92568">
        <ele>738.06</ele>
        <time>2021-06-23T09:20:44Z</time>
      </trkpt>
      <trkpt lat="48.08462" lon="6.92582">
        <ele>736.5</ele>
        <time>2021-06-23T09:20:50Z</time>
      </trkpt>
      <trkpt lat="48.08458" lon="6.9259">
        <ele>735.16</ele>
        <time>2021-06-23T09:20:56Z</time>
      </trkpt>
      <trkpt lat="48.08457" lon="6.92599">
        <ele>733.86</ele>
        <time>2021-06-23T09:21:02Z</time>
      </trkpt>
      <trkpt lat="48.08459" lon="6.9261">
        <ele>732.73</ele>
        <time>2021-06-23T09:21:08Z</time>
      </trkpt>
      <trkpt lat="48.08476" lon="6.9263">
        <ele>732.3</ele>
        <time>2021-06-23T09:21:13Z</time>
      </trkpt>
      <trkpt lat="48.08479" lon="6.92636">
        <ele>731.81</ele>
        <time>2021-06-23T09:21:19Z</time>
      </trkpt>
      <trkpt lat="48.0848" lon="6.92644">
        <ele>731.57</ele>
        <time>2021-06-23T09:21:25Z</time>
      </trkpt>
      <trkpt lat="48.08478" lon="6.92652">
        <ele>731.41</ele>
        <time>2021-06-23T09:21:31Z</time>
      </trkpt>
      <trkpt lat="48.08474" lon="6.92658">
        <ele>731.13</ele>
        <time>2021-06-23T09:21:37Z</time>
      </trkpt>
      <trkpt lat="48.08468" lon="6.92661">
        <ele>730.8</ele>
        <time>2021-06-23T09:21:43Z</time>
      </trkpt>
      <trkpt lat="48.08433" lon="6.92655">
        <ele>728.55</ele>
        <time>2021-06-23T09:21:49Z</time>
      </trkpt>
      <trkpt lat="48.08328" lon="6.92649">
        <ele>719.13</ele>
        <time>2021-06-23T09:21:54Z</time>
      </trkpt>
      <trkpt lat="48.08153" lon="6.92631">
        <ele>721.25</ele>
        <time>2021-06-23T09:22:00Z</time>
      </trkpt>
      <trkpt lat="48.08152" lon="6.92704">
        <ele>723.85</ele>
        <time>2021-06-23T09:22:06Z</time>
      </trkpt>
      <trkpt lat="48.08154" lon="6.92731">
        <ele>723.32</ele>
        <time>2021-06-23T09:22:12Z</time>
      </trkpt>
      <trkpt lat="48.08157" lon="6.9276">
        <ele>722.76</ele>
        <time>2021-06-23T09:22:18Z</time>
      </trkpt>
      <trkpt lat="48.08177" lon="6.92859">
        <ele>722.77</ele>
        <time>2021-06-23T09:22:23Z</time>
      </trkpt>
      <trkpt lat="48.08181" lon="6.929">
        <ele>724.53</ele>
        <time>2021-06-23T09:22:29Z</time>
      </trkpt>
      <trkpt lat="48.08176" lon="6.93069">
        <ele>730.51</ele>
        <time>2021-06-23T09:22:35Z</time>
      </trkpt>
      <trkpt lat="48.08172" lon="6.93148">
        <ele>733.8</ele>
        <time>2021-06-23T09:22:41Z</time>
      </trkpt>
      <trkpt lat="48.08166" lon="6.93174">
        <ele>734.82</ele>
        <time>2021-06-23T09:22:46Z</time>
      </trkpt>
      <trkpt lat="48.08158" lon="6.93201">
        <ele>736.1</ele>
        <time>2021-06-23T09:22:52Z</time>
      </trkpt>
      <trkpt lat="48.08141" lon="6.93245">
        <ele>740.27</ele>
        <time>2021-06-23T09:22:58Z</time>
      </trkpt>
      <trkpt lat="48.08044" lon="6.93446">
        <ele>748.11</ele>
        <time>2021-06-23T09:23:04Z</time>
      </trkpt>
      <trkpt lat="48.08006" lon="6.93533">
        <ele>756.72</ele>
        <time>2021-06-23T09:23:09Z</time>
      </trkpt>
      <trkpt lat="48.07948" lon="6.93684">
        <ele>753.11</ele>
        <time>2021-06-23T09:23:15Z</time>
      </trkpt>
      <trkpt lat="48.07928" lon="6.93744">
        <ele>755.12</ele>
        <time>2021-06-23T09:23:21Z</time>
      </trkpt>
      <trkpt lat="48.07912" lon="6.93805">
        <ele>752.74</ele>
        <time>2021-06-23T09:23:27Z</time>
      </trkpt>
      <trkpt lat="48.07901" lon="6.93861">
        <ele>748.55</ele>
        <time>2021-06-23T09:23:33Z</time>
      </trkpt>
      <trkpt lat="48.07878" lon="6.93929">
        <ele>745.27</ele>
        <time>2021-06-23T09:23:38Z</time>
      </trkpt>
      <trkpt lat="48.07838" lon="6.94021">
        <ele>738.79</ele>
        <time>2021-06-23T09:23:44Z</time>
      </trkpt>
      <trkpt lat="48.0782" lon="6.94057">
        <ele>739.26</ele>
        <time>2021-06-23T09:23:50Z</time>
      </trkpt>
      <trkpt lat="48.07806" lon="6.94078">
        <ele>740.03</ele>
        <time>2021-06-23T09:23:56Z</time>
      </trkpt>
      <trkpt lat="48.07786" lon="6.941">
        <ele>745.58</ele>
        <time>2021-06-23T09:24:01Z</time>
      </trkpt>
      <trkpt lat="48.07718" lon="6.94166">
        <ele>751.22</ele>
        <time>2021-06-23T09:24:07Z</time>
      </trkpt>
      <trkpt lat="48.07603" lon="6.94269">
        <ele>752.59</ele>
        <time>2021-06-23T09:24:13Z</time>
      </trkpt>
      <trkpt lat="48.07569" lon="6.94293">
        <ele>751.61</ele>
        <time>2021-06-23T09:24:19Z</time>
      </trkpt>
      <trkpt lat="48.07472" lon="6.9434">
        <ele>752.86</ele>
        <time>2021-06-23T09:24:24Z</time>
      </trkpt>
      <trkpt lat="48.07406" lon="6.94368">
        <ele>758.24</ele>
        <time>2021-06-23T09:24:30Z</time>
      </trkpt>
      <trkpt lat="48.07318" lon="6.944">
        <ele>757.2</ele>
        <time>2021-06-23T09:24:36Z</time>
      </trkpt>
      <trkpt lat="48.07302" lon="6.94408">
        <ele>754.71</ele>
        <time>2021-06-23T09:24:42Z</time>
      </trkpt>
      <trkpt lat="48.07191" lon="6.94491">
        <ele>762.22</ele>
        <time>2021-06-23T09:24:47Z</time>
      </trkpt>
      <trkpt lat="48.07162" lon="6.94511">
        <ele>760.01</ele>
        <time>2021-06-23T09:24:53Z</time>
      </trkpt>
      <trkpt lat="48.07077" lon="6.94554">
        <ele>753.11</ele>
        <time>2021-06-23T09:24:59Z</time>
      </trkpt>
      <trkpt lat="48.07048" lon="6.94582">
        <ele>753.58</ele>
        <time>2021-06-23T09:25:05Z</time>
      </trkpt>
      <trkpt lat="48.06979" lon="6.94665">
        <ele>750.49</ele>
        <time>2021-06-23T09:25:10Z</time>
      </trkpt>
      <trkpt lat="48.06941" lon="6.94706">
        <ele>747.02</ele>
        <time>2021-06-23T09:25:16Z</time>
      </trkpt>
      <trkpt lat="48.06918" lon="6.94723">
        <ele>744.86</ele>
        <time>2021-06-23T09:25:22Z</time>
      </trkpt>
      <trkpt lat="48.06749" lon="6.94819">
        <ele>748.18</ele>
        <time>2021-06-23T09:25:28Z</time>
      </trkpt>
      <trkpt lat="48.06619" lon="6.94979">
        <ele>750.72</ele>
        <time>2021-06-23T09:25:34Z</time>
      </trkpt>
      <trkpt lat="48.06534" lon="6.95093">
        <ele>751.79</ele>
        <time>2021-06-23T09:25:39Z</time>
      </trkpt>
      <trkpt lat="48.065" lon="6.9516">
        <ele>752.12</ele>
        <time>2021-06-23T09:25:45Z</time>
      </trkpt>
      <trkpt lat="48.06422" lon="6.95296">
        <ele>753.53</ele>
        <time>2021-06-23T09:25:51Z</time>
      </trkpt>
      <trkpt lat="48.06361" lon="6.95394">
        <ele>755.72</ele>
        <time>2021-06-23T09:25:57Z</time>
      </trkpt>
      <trkpt lat="48.06344" lon="6.95435">
        <ele>752.8</ele>
        <time>2021-06-23T09:26:02Z</time>
      </trkpt>
      <trkpt lat="48.06344" lon="6.95435">
        <ele>752.8</ele>
        <time>2021-06-23T09:26:02Z</time>
      </trkpt>
      <trkpt lat="48.06326" lon="6.95484">
        <ele>749.08</ele>
        <time>2021-06-23T09:26:05Z</time>
      </trkpt>
      <trkpt lat="48.06322" lon="6.95518">
        <ele>749.09</ele>
        <time>2021-06-23T09:26:08Z</time>
      </trkpt>
      <trkpt lat="48.06321" lon="6.95574">
        <ele>747.05</ele>
        <time>2021-06-23T09:26:11Z</time>
      </trkpt>
      <trkpt lat="48.06359" lon="6.95834">
        <ele>735.13</ele>
        <time>2021-06-23T09:26:14Z</time>
      </trkpt>
      <trkpt lat="48.06361" lon="6.95878">
        <ele>735.6</ele>
        <time>2021-06-23T09:26:17Z</time>
      </trkpt>
      <trkpt lat="48.06359" lon="6.95909">
        <ele>736</ele>
        <time>2021-06-23T09:26:20Z</time>
      </trkpt>
      <trkpt lat="48.06353" lon="6.95949">
        <ele>736.29</ele>
        <time>2021-06-23T09:26:23Z</time>
      </trkpt>
      <trkpt lat="48.06349" lon="6.95964">
        <ele>737.11</ele>
        <time>2021-06-23T09:26:26Z</time>
      </trkpt>
      <trkpt lat="48.06335" lon="6.96004">
        <ele>738.24</ele>
        <time>2021-06-23T09:26:29Z</time>
      </trkpt>
      <trkpt lat="48.06235" lon="6.96182">
        <ele>740.66</ele>
        <time>2021-06-23T09:26:32Z</time>
      </trkpt>
      <trkpt lat="48.06227" lon="6.962">
        <ele>739.75</ele>
        <time>2021-06-23T09:26:34Z</time>
      </trkpt>
      <trkpt lat="48.06218" lon="6.96224">
        <ele>739.38</ele>
        <time>2021-06-23T09:26:37Z</time>
      </trkpt>
      <trkpt lat="48.06208" lon="6.96262">
        <ele>739.63</ele>
        <time>2021-06-23T09:26:40Z</time>
      </trkpt>
      <trkpt lat="48.06205" lon="6.96299">
        <ele>739.5</ele>
        <time>2021-06-23T09:26:43Z</time>
      </trkpt>
      <trkpt lat="48.06208" lon="6.96345">
        <ele>738.09</ele>
        <time>2021-06-23T09:26:46Z</time>
      </trkpt>
      <trkpt lat="48.06214" lon="6.96376">
        <ele>738</ele>
        <time>2021-06-23T09:26:49Z</time>
      </trkpt>
      <trkpt lat="48.06226" lon="6.96411">
        <ele>739.73</ele>
        <time>2021-06-23T09:26:52Z</time>
      </trkpt>
      <trkpt lat="48.06238" lon="6.96436">
        <ele>741.24</ele>
        <time>2021-06-23T09:26:55Z</time>
      </trkpt>
      <trkpt lat="48.06247" lon="6.96451">
        <ele>741.67</ele>
        <time>2021-06-23T09:26:58Z</time>
      </trkpt>
      <trkpt lat="48.06262" lon="6.96471">
        <ele>742.28</ele>
        <time>2021-06-23T09:27:01Z</time>
      </trkpt>
      <trkpt lat="48.06282" lon="6.96505">
        <ele>746.23</ele>
        <time>2021-06-23T09:27:04Z</time>
      </trkpt>
      <trkpt lat="48.06289" lon="6.96541">
        <ele>750.17</ele>
        <time>2021-06-23T09:27:06Z</time>
      </trkpt>
      <trkpt lat="48.06289" lon="6.96608">
        <ele>753.43</ele>
        <time>2021-06-23T09:27:09Z</time>
      </trkpt>
      <trkpt lat="48.06295" lon="6.96681">
        <ele>756.09</ele>
        <time>2021-06-23T09:27:12Z</time>
      </trkpt>
      <trkpt lat="48.06295" lon="6.96707">
        <ele>757.6</ele>
        <time>2021-06-23T09:27:15Z</time>
      </trkpt>
      <trkpt lat="48.06284" lon="6.96799">
        <ele>756.12</ele>
        <time>2021-06-23T09:27:18Z</time>
      </trkpt>
      <trkpt lat="48.0628" lon="6.96825">
        <ele>756.78</ele>
        <time>2021-06-23T09:27:20Z</time>
      </trkpt>
      <trkpt lat="48.06272" lon="6.96855">
        <ele>756.97</ele>
        <time>2021-06-23T09:27:23Z</time>
      </trkpt>
      <trkpt lat="48.06243" lon="6.96937">
        <ele>757.12</ele>
        <time>2021-06-23T09:27:26Z</time>
      </trkpt>
      <trkpt lat="48.062" lon="6.97049">
        <ele>762.13</ele>
        <time>2021-06-23T09:27:29Z</time>
      </trkpt>
      <trkpt lat="48.06178" lon="6.97116">
        <ele>763.91</ele>
        <time>2021-06-23T09:27:32Z</time>
      </trkpt>
      <trkpt lat="48.06171" lon="6.97144">
        <ele>764.89</ele>
        <time>2021-06-23T09:27:34Z</time>
      </trkpt>
      <trkpt lat="48.06166" lon="6.97185">
        <ele>764.75</ele>
        <time>2021-06-23T09:27:37Z</time>
      </trkpt>
      <trkpt lat="48.06159" lon="6.97283">
        <ele>768.1</ele>
        <time>2021-06-23T09:27:40Z</time>
      </trkpt>
      <trkpt lat="48.06152" lon="6.97363">
        <ele>775.43</ele>
        <time>2021-06-23T09:27:43Z</time>
      </trkpt>
      <trkpt lat="48.06155" lon="6.97428">
        <ele>774.84</ele>
        <time>2021-06-23T09:27:46Z</time>
      </trkpt>
      <trkpt lat="48.06154" lon="6.97493">
        <ele>775.03</ele>
        <time>2021-06-23T09:27:48Z</time>
      </trkpt>
      <trkpt lat="48.06151" lon="6.97517">
        <ele>773.89</ele>
        <time>2021-06-23T09:27:51Z</time>
      </trkpt>
      <trkpt lat="48.06145" lon="6.9754">
        <ele>772.36</ele>
        <time>2021-06-23T09:27:54Z</time>
      </trkpt>
      <trkpt lat="48.06122" lon="6.97614">
        <ele>772.58</ele>
        <time>2021-06-23T09:27:57Z</time>
      </trkpt>
      <trkpt lat="48.06116" lon="6.97647">
        <ele>772.04</ele>
        <time>2021-06-23T09:28:00Z</time>
      </trkpt>
      <trkpt lat="48.06113" lon="6.97682">
        <ele>770.9</ele>
        <time>2021-06-23T09:28:02Z</time>
      </trkpt>
      <trkpt lat="48.06113" lon="6.97732">
        <ele>768.81</ele>
        <time>2021-06-23T09:28:05Z</time>
      </trkpt>
      <trkpt lat="48.0611" lon="6.97782">
        <ele>769.07</ele>
        <time>2021-06-23T09:28:08Z</time>
      </trkpt>
      <trkpt lat="48.06106" lon="6.97813">
        <ele>770.85</ele>
        <time>2021-06-23T09:28:11Z</time>
      </trkpt>
      <trkpt lat="48.061" lon="6.97844">
        <ele>771.07</ele>
        <time>2021-06-23T09:28:13Z</time>
      </trkpt>
      <trkpt lat="48.06078" lon="6.97913">
        <ele>771.74</ele>
        <time>2021-06-23T09:28:16Z</time>
      </trkpt>
      <trkpt lat="48.06058" lon="6.9802">
        <ele>781.69</ele>
        <time>2021-06-23T09:28:19Z</time>
      </trkpt>
      <trkpt lat="48.06058" lon="6.9802">
        <ele>781.69</ele>
        <time>2021-06-23T09:28:19Z</time>
      </trkpt>
      <trkpt lat="48.06052" lon="6.98045">
        <ele>783.54</ele>
        <time>2021-06-23T09:28:21Z</time>
      </trkpt>
      <trkpt lat="48.06043" lon="6.98061">
        <ele>784.41</ele>
        <time>2021-06-23T09:28:23Z</time>
      </trkpt>
      <trkpt lat="48.06034" lon="6.98073">
        <ele>784.13</ele>
        <time>2021-06-23T09:28:25Z</time>
      </trkpt>
      <trkpt lat="48.05991" lon="6.9811">
        <ele>783.19</ele>
        <time>2021-06-23T09:28:27Z</time>
      </trkpt>
      <trkpt lat="48.0598" lon="6.98132">
        <ele>786.02</ele>
        <time>2021-06-23T09:28:29Z</time>
      </trkpt>
      <trkpt lat="48.05968" lon="6.98161">
        <ele>789.64</ele>
        <time>2021-06-23T09:28:31Z</time>
      </trkpt>
      <trkpt lat="48.05944" lon="6.98202">
        <ele>794.37</ele>
        <time>2021-06-23T09:28:33Z</time>
      </trkpt>
      <trkpt lat="48.05928" lon="6.98219">
        <ele>794.65</ele>
        <time>2021-06-23T09:28:36Z</time>
      </trkpt>
      <trkpt lat="48.05892" lon="6.98242">
        <ele>788.96</ele>
        <time>2021-06-23T09:28:38Z</time>
      </trkpt>
      <trkpt lat="48.05882" lon="6.98255">
        <ele>789.33</ele>
        <time>2021-06-23T09:28:40Z</time>
      </trkpt>
      <trkpt lat="48.05877" lon="6.98272">
        <ele>790.26</ele>
        <time>2021-06-23T09:28:42Z</time>
      </trkpt>
      <trkpt lat="48.05878" lon="6.98282">
        <ele>790.68</ele>
        <time>2021-06-23T09:28:44Z</time>
      </trkpt>
      <trkpt lat="48.0588" lon="6.9829">
        <ele>791</ele>
        <time>2021-06-23T09:28:46Z</time>
      </trkpt>
      <trkpt lat="48.05907" lon="6.98327">
        <ele>793.34</ele>
        <time>2021-06-23T09:28:48Z</time>
      </trkpt>
      <trkpt lat="48.05912" lon="6.9834">
        <ele>793.86</ele>
        <time>2021-06-23T09:28:50Z</time>
      </trkpt>
      <trkpt lat="48.05914" lon="6.98352">
        <ele>793.74</ele>
        <time>2021-06-23T09:28:52Z</time>
      </trkpt>
      <trkpt lat="48.05915" lon="6.98366">
        <ele>793.53</ele>
        <time>2021-06-23T09:28:54Z</time>
      </trkpt>
      <trkpt lat="48.05913" lon="6.9839">
        <ele>793.22</ele>
        <time>2021-06-23T09:28:56Z</time>
      </trkpt>
      <trkpt lat="48.05909" lon="6.98411">
        <ele>794.01</ele>
        <time>2021-06-23T09:28:58Z</time>
      </trkpt>
      <trkpt lat="48.05905" lon="6.98428">
        <ele>794.7</ele>
        <time>2021-06-23T09:29:00Z</time>
      </trkpt>
      <trkpt lat="48.05898" lon="6.98446">
        <ele>795.08</ele>
        <time>2021-06-23T09:29:02Z</time>
      </trkpt>
      <trkpt lat="48.05864" lon="6.98493">
        <ele>789.93</ele>
        <time>2021-06-23T09:29:04Z</time>
      </trkpt>
      <trkpt lat="48.05846" lon="6.98514">
        <ele>787.01</ele>
        <time>2021-06-23T09:29:06Z</time>
      </trkpt>
      <trkpt lat="48.05825" lon="6.98536">
        <ele>786.16</ele>
        <time>2021-06-23T09:29:08Z</time>
      </trkpt>
      <trkpt lat="48.05775" lon="6.9858">
        <ele>782.42</ele>
        <time>2021-06-23T09:29:11Z</time>
      </trkpt>
      <trkpt lat="48.05731" lon="6.98624">
        <ele>783.68</ele>
        <time>2021-06-23T09:29:13Z</time>
      </trkpt>
      <trkpt lat="48.05695" lon="6.98663">
        <ele>784.46</ele>
        <time>2021-06-23T09:29:15Z</time>
      </trkpt>
      <trkpt lat="48.05649" lon="6.98704">
        <ele>791.68</ele>
        <time>2021-06-23T09:29:17Z</time>
      </trkpt>
      <trkpt lat="48.05606" lon="6.98747">
        <ele>797.73</ele>
        <time>2021-06-23T09:29:19Z</time>
      </trkpt>
      <trkpt lat="48.05582" lon="6.98757">
        <ele>797.57</ele>
        <time>2021-06-23T09:29:21Z</time>
      </trkpt>
      <trkpt lat="48.05538" lon="6.98758">
        <ele>795.9</ele>
        <time>2021-06-23T09:29:23Z</time>
      </trkpt>
      <trkpt lat="48.05518" lon="6.98761">
        <ele>795.07</ele>
        <time>2021-06-23T09:29:25Z</time>
      </trkpt>
      <trkpt lat="48.05505" lon="6.98766">
        <ele>794.76</ele>
        <time>2021-06-23T09:29:27Z</time>
      </trkpt>
      <trkpt lat="48.05493" lon="6.98776">
        <ele>795.49</ele>
        <time>2021-06-23T09:29:29Z</time>
      </trkpt>
      <trkpt lat="48.05474" lon="6.98796">
        <ele>800.24</ele>
        <time>2021-06-23T09:29:31Z</time>
      </trkpt>
      <trkpt lat="48.05425" lon="6.98861">
        <ele>810.15</ele>
        <time>2021-06-23T09:29:33Z</time>
      </trkpt>
      <trkpt lat="48.05408" lon="6.98877">
        <ele>810.99</ele>
        <time>2021-06-23T09:29:35Z</time>
      </trkpt>
      <trkpt lat="48.05378" lon="6.98894">
        <ele>813.17</ele>
        <time>2021-06-23T09:29:37Z</time>
      </trkpt>
      <trkpt lat="48.0535" lon="6.98899">
        <ele>815.42</ele>
        <time>2021-06-23T09:29:39Z</time>
      </trkpt>
      <trkpt lat="48.05269" lon="6.98899">
        <ele>821.36</ele>
        <time>2021-06-23T09:29:41Z</time>
      </trkpt>
      <trkpt lat="48.05269" lon="6.98899">
        <ele>821.36</ele>
        <time>2021-06-23T09:29:41Z</time>
      </trkpt>
      <trkpt lat="48.05256" lon="6.98893">
        <ele>821.9</ele>
        <time>2021-06-23T09:29:44Z</time>
      </trkpt>
      <trkpt lat="48.05246" lon="6.98884">
        <ele>822.05</ele>
        <time>2021-06-23T09:29:46Z</time>
      </trkpt>
      <trkpt lat="48.05223" lon="6.98857">
        <ele>821.67</ele>
        <time>2021-06-23T09:29:48Z</time>
      </trkpt>
      <trkpt lat="48.05205" lon="6.98835">
        <ele>824.39</ele>
        <time>2021-06-23T09:29:50Z</time>
      </trkpt>
      <trkpt lat="48.05197" lon="6.98815">
        <ele>826.46</ele>
        <time>2021-06-23T09:29:52Z</time>
      </trkpt>
      <trkpt lat="48.05191" lon="6.98793">
        <ele>828.85</ele>
        <time>2021-06-23T09:29:54Z</time>
      </trkpt>
      <trkpt lat="48.05189" lon="6.98768">
        <ele>830.34</ele>
        <time>2021-06-23T09:29:56Z</time>
      </trkpt>
      <trkpt lat="48.05189" lon="6.98717">
        <ele>830.29</ele>
        <time>2021-06-23T09:29:59Z</time>
      </trkpt>
      <trkpt lat="48.05186" lon="6.98697">
        <ele>831.27</ele>
        <time>2021-06-23T09:30:01Z</time>
      </trkpt>
      <trkpt lat="48.05173" lon="6.98642">
        <ele>837.28</ele>
        <time>2021-06-23T09:30:03Z</time>
      </trkpt>
      <trkpt lat="48.05165" lon="6.98587">
        <ele>839.06</ele>
        <time>2021-06-23T09:30:05Z</time>
      </trkpt>
      <trkpt lat="48.05159" lon="6.98508">
        <ele>850.84</ele>
        <time>2021-06-23T09:30:07Z</time>
      </trkpt>
      <trkpt lat="48.0516" lon="6.98428">
        <ele>851.42</ele>
        <time>2021-06-23T09:30:09Z</time>
      </trkpt>
      <trkpt lat="48.05163" lon="6.9841">
        <ele>851.06</ele>
        <time>2021-06-23T09:30:11Z</time>
      </trkpt>
      <trkpt lat="48.05172" lon="6.9838">
        <ele>850.77</ele>
        <time>2021-06-23T09:30:14Z</time>
      </trkpt>
      <trkpt lat="48.05176" lon="6.98362">
        <ele>850.34</ele>
        <time>2021-06-23T09:30:16Z</time>
      </trkpt>
      <trkpt lat="48.05179" lon="6.98335">
        <ele>852.08</ele>
        <time>2021-06-23T09:30:18Z</time>
      </trkpt>
      <trkpt lat="48.05182" lon="6.98229">
        <ele>853.65</ele>
        <time>2021-06-23T09:30:20Z</time>
      </trkpt>
      <trkpt lat="48.05192" lon="6.98141">
        <ele>855.26</ele>
        <time>2021-06-23T09:30:22Z</time>
      </trkpt>
      <trkpt lat="48.05193" lon="6.98112">
        <ele>855.25</ele>
        <time>2021-06-23T09:30:24Z</time>
      </trkpt>
      <trkpt lat="48.05181" lon="6.98032">
        <ele>855.5</ele>
        <time>2021-06-23T09:30:26Z</time>
      </trkpt>
      <trkpt lat="48.0518" lon="6.98011">
        <ele>857.24</ele>
        <time>2021-06-23T09:30:29Z</time>
      </trkpt>
      <trkpt lat="48.05186" lon="6.97974">
        <ele>860.31</ele>
        <time>2021-06-23T09:30:31Z</time>
      </trkpt>
      <trkpt lat="48.05202" lon="6.97924">
        <ele>863.93</ele>
        <time>2021-06-23T09:30:33Z</time>
      </trkpt>
      <trkpt lat="48.05202" lon="6.97913">
        <ele>866.18</ele>
        <time>2021-06-23T09:30:35Z</time>
      </trkpt>
      <trkpt lat="48.05199" lon="6.97898">
        <ele>869.91</ele>
        <time>2021-06-23T09:30:37Z</time>
      </trkpt>
      <trkpt lat="48.05199" lon="6.97898">
        <ele>869.91</ele>
        <time>2021-06-23T09:30:37Z</time>
      </trkpt>
      <trkpt lat="48.05194" lon="6.97892">
        <ele>872.16</ele>
        <time>2021-06-23T09:30:39Z</time>
      </trkpt>
      <trkpt lat="48.05181" lon="6.97893">
        <ele>873.72</ele>
        <time>2021-06-23T09:30:41Z</time>
      </trkpt>
      <trkpt lat="48.05175" lon="6.97898">
        <ele>872.59</ele>
        <time>2021-06-23T09:30:42Z</time>
      </trkpt>
      <trkpt lat="48.0517" lon="6.97908">
        <ele>869.71</ele>
        <time>2021-06-23T09:30:44Z</time>
      </trkpt>
      <trkpt lat="48.05129" lon="6.98018">
        <ele>874.18</ele>
        <time>2021-06-23T09:30:46Z</time>
      </trkpt>
      <trkpt lat="48.05091" lon="6.98169">
        <ele>890.76</ele>
        <time>2021-06-23T09:30:48Z</time>
      </trkpt>
      <trkpt lat="48.05086" lon="6.9821">
        <ele>891.83</ele>
        <time>2021-06-23T09:30:50Z</time>
      </trkpt>
      <trkpt lat="48.05086" lon="6.98287">
        <ele>888.59</ele>
        <time>2021-06-23T09:30:51Z</time>
      </trkpt>
      <trkpt lat="48.05083" lon="6.98314">
        <ele>888.11</ele>
        <time>2021-06-23T09:30:53Z</time>
      </trkpt>
      <trkpt lat="48.05074" lon="6.98343">
        <ele>893.27</ele>
        <time>2021-06-23T09:30:55Z</time>
      </trkpt>
      <trkpt lat="48.05054" lon="6.98383">
        <ele>905.08</ele>
        <time>2021-06-23T09:30:57Z</time>
      </trkpt>
      <trkpt lat="48.05047" lon="6.98405">
        <ele>910.06</ele>
        <time>2021-06-23T09:30:58Z</time>
      </trkpt>
      <trkpt lat="48.05042" lon="6.98427">
        <ele>912.66</ele>
        <time>2021-06-23T09:31:00Z</time>
      </trkpt>
      <trkpt lat="48.0504" lon="6.98444">
        <ele>913.54</ele>
        <time>2021-06-23T09:31:02Z</time>
      </trkpt>
      <trkpt lat="48.05042" lon="6.98484">
        <ele>906.93</ele>
        <time>2021-06-23T09:31:04Z</time>
      </trkpt>
      <trkpt lat="48.05041" lon="6.98497">
        <ele>905.96</ele>
        <time>2021-06-23T09:31:06Z</time>
      </trkpt>
      <trkpt lat="48.05037" lon="6.98514">
        <ele>906.83</ele>
        <time>2021-06-23T09:31:07Z</time>
      </trkpt>
      <trkpt lat="48.05026" lon="6.9854">
        <ele>911.91</ele>
        <time>2021-06-23T09:31:09Z</time>
      </trkpt>
      <trkpt lat="48.05022" lon="6.98562">
        <ele>914.55</ele>
        <time>2021-06-23T09:31:11Z</time>
      </trkpt>
      <trkpt lat="48.05017" lon="6.98617">
        <ele>917.06</ele>
        <time>2021-06-23T09:31:13Z</time>
      </trkpt>
      <trkpt lat="48.05012" lon="6.98646">
        <ele>918.17</ele>
        <time>2021-06-23T09:31:14Z</time>
      </trkpt>
      <trkpt lat="48.05012" lon="6.98665">
        <ele>916.62</ele>
        <time>2021-06-23T09:31:16Z</time>
      </trkpt>
      <trkpt lat="48.05014" lon="6.98688">
        <ele>913.43</ele>
        <time>2021-06-23T09:31:18Z</time>
      </trkpt>
      <trkpt lat="48.05013" lon="6.98701">
        <ele>912.4</ele>
        <time>2021-06-23T09:31:20Z</time>
      </trkpt>
      <trkpt lat="48.05013" lon="6.98701">
        <ele>912.4</ele>
        <time>2021-06-23T09:31:20Z</time>
      </trkpt>
      <trkpt lat="48.05011" lon="6.9871">
        <ele>912.28</ele>
        <time>2021-06-23T09:31:20Z</time>
      </trkpt>
      <trkpt lat="48.05006" lon="6.98716">
        <ele>912.84</ele>
        <time>2021-06-23T09:31:21Z</time>
      </trkpt>
      <trkpt lat="48.05002" lon="6.98719">
        <ele>913.92</ele>
        <time>2021-06-23T09:31:21Z</time>
      </trkpt>
      <trkpt lat="48.04995" lon="6.98719">
        <ele>917.57</ele>
        <time>2021-06-23T09:31:21Z</time>
      </trkpt>
      <trkpt lat="48.04991" lon="6.98716">
        <ele>921.07</ele>
        <time>2021-06-23T09:31:22Z</time>
      </trkpt>
      <trkpt lat="48.04995" lon="6.98689">
        <ele>923.49</ele>
        <time>2021-06-23T09:31:24Z</time>
      </trkpt>
      <trkpt lat="48.05004" lon="6.98552">
        <ele>929.08</ele>
        <time>2021-06-23T09:31:27Z</time>
      </trkpt>
      <trkpt lat="48.05012" lon="6.98503">
        <ele>925.12</ele>
        <time>2021-06-23T09:31:29Z</time>
      </trkpt>
      <trkpt lat="48.05012" lon="6.98485">
        <ele>926.31</ele>
        <time>2021-06-23T09:31:32Z</time>
      </trkpt>
      <trkpt lat="48.05007" lon="6.98442">
        <ele>937.31</ele>
        <time>2021-06-23T09:31:35Z</time>
      </trkpt>
      <trkpt lat="48.05007" lon="6.9842">
        <ele>940.9</ele>
        <time>2021-06-23T09:31:37Z</time>
      </trkpt>
      <trkpt lat="48.05012" lon="6.98385">
        <ele>937.27</ele>
        <time>2021-06-23T09:31:40Z</time>
      </trkpt>
      <trkpt lat="48.05022" lon="6.98349">
        <ele>929.3</ele>
        <time>2021-06-23T09:31:42Z</time>
      </trkpt>
      <trkpt lat="48.05026" lon="6.98327">
        <ele>926.85</ele>
        <time>2021-06-23T09:31:45Z</time>
      </trkpt>
      <trkpt lat="48.05027" lon="6.98299">
        <ele>925.51</ele>
        <time>2021-06-23T09:31:47Z</time>
      </trkpt>
      <trkpt lat="48.05022" lon="6.98264">
        <ele>928.18</ele>
        <time>2021-06-23T09:31:50Z</time>
      </trkpt>
      <trkpt lat="48.04996" lon="6.98154">
        <ele>942.18</ele>
        <time>2021-06-23T09:31:52Z</time>
      </trkpt>
      <trkpt lat="48.04992" lon="6.98107">
        <ele>941.76</ele>
        <time>2021-06-23T09:31:55Z</time>
      </trkpt>
      <trkpt lat="48.04989" lon="6.98085">
        <ele>941.12</ele>
        <time>2021-06-23T09:31:57Z</time>
      </trkpt>
      <trkpt lat="48.04983" lon="6.98058">
        <ele>941.65</ele>
        <time>2021-06-23T09:32:00Z</time>
      </trkpt>
      <trkpt lat="48.04946" lon="6.97934">
        <ele>944.42</ele>
        <time>2021-06-23T09:32:03Z</time>
      </trkpt>
      <trkpt lat="48.04926" lon="6.97888">
        <ele>946.71</ele>
        <time>2021-06-23T09:32:05Z</time>
      </trkpt>
      <trkpt lat="48.04874" lon="6.97798">
        <ele>957.53</ele>
        <time>2021-06-23T09:32:08Z</time>
      </trkpt>
      <trkpt lat="48.04849" lon="6.977">
        <ele>956.74</ele>
        <time>2021-06-23T09:32:10Z</time>
      </trkpt>
      <trkpt lat="48.04849" lon="6.977">
        <ele>956.74</ele>
        <time>2021-06-23T09:32:10Z</time>
      </trkpt>
      <trkpt lat="48.04838" lon="6.97677">
        <ele>959.04</ele>
        <time>2021-06-23T09:32:12Z</time>
      </trkpt>
      <trkpt lat="48.04813" lon="6.97638">
        <ele>966.35</ele>
        <time>2021-06-23T09:32:14Z</time>
      </trkpt>
      <trkpt lat="48.04786" lon="6.97601">
        <ele>962.11</ele>
        <time>2021-06-23T09:32:16Z</time>
      </trkpt>
      <trkpt lat="48.04777" lon="6.97591">
        <ele>960.11</ele>
        <time>2021-06-23T09:32:18Z</time>
      </trkpt>
      <trkpt lat="48.04761" lon="6.9758">
        <ele>957.5</ele>
        <time>2021-06-23T09:32:20Z</time>
      </trkpt>
      <trkpt lat="48.04736" lon="6.97569">
        <ele>955.87</ele>
        <time>2021-06-23T09:32:22Z</time>
      </trkpt>
      <trkpt lat="48.04711" lon="6.97564">
        <ele>954.52</ele>
        <time>2021-06-23T09:32:24Z</time>
      </trkpt>
      <trkpt lat="48.04698" lon="6.97565">
        <ele>953.96</ele>
        <time>2021-06-23T09:32:26Z</time>
      </trkpt>
      <trkpt lat="48.04633" lon="6.97588">
        <ele>954.76</ele>
        <time>2021-06-23T09:32:28Z</time>
      </trkpt>
      <trkpt lat="48.04531" lon="6.97611">
        <ele>954.23</ele>
        <time>2021-06-23T09:32:30Z</time>
      </trkpt>
      <trkpt lat="48.04446" lon="6.97613">
        <ele>949.05</ele>
        <time>2021-06-23T09:32:32Z</time>
      </trkpt>
      <trkpt lat="48.04334" lon="6.97618">
        <ele>954.65</ele>
        <time>2021-06-23T09:32:34Z</time>
      </trkpt>
      <trkpt lat="48.04311" lon="6.97617">
        <ele>954.7</ele>
        <time>2021-06-23T09:32:36Z</time>
      </trkpt>
      <trkpt lat="48.0429" lon="6.97613">
        <ele>957.93</ele>
        <time>2021-06-23T09:32:38Z</time>
      </trkpt>
      <trkpt lat="48.04229" lon="6.97581">
        <ele>947.41</ele>
        <time>2021-06-23T09:32:40Z</time>
      </trkpt>
      <trkpt lat="48.04146" lon="6.97545">
        <ele>940.42</ele>
        <time>2021-06-23T09:32:42Z</time>
      </trkpt>
      <trkpt lat="48.04111" lon="6.97534">
        <ele>941.42</ele>
        <time>2021-06-23T09:32:43Z</time>
      </trkpt>
      <trkpt lat="48.04075" lon="6.9752">
        <ele>944.36</ele>
        <time>2021-06-23T09:32:45Z</time>
      </trkpt>
      <trkpt lat="48.04051" lon="6.97504">
        <ele>940.78</ele>
        <time>2021-06-23T09:32:47Z</time>
      </trkpt>
      <trkpt lat="48.04024" lon="6.9748">
        <ele>934.62</ele>
        <time>2021-06-23T09:32:49Z</time>
      </trkpt>
      <trkpt lat="48.04004" lon="6.97455">
        <ele>929.21</ele>
        <time>2021-06-23T09:32:51Z</time>
      </trkpt>
      <trkpt lat="48.03987" lon="6.97423">
        <ele>926.79</ele>
        <time>2021-06-23T09:32:53Z</time>
      </trkpt>
      <trkpt lat="48.03979" lon="6.97398">
        <ele>926.43</ele>
        <time>2021-06-23T09:32:55Z</time>
      </trkpt>
      <trkpt lat="48.03975" lon="6.97376">
        <ele>927.67</ele>
        <time>2021-06-23T09:32:57Z</time>
      </trkpt>
      <trkpt lat="48.03976" lon="6.97363">
        <ele>928.3</ele>
        <time>2021-06-23T09:32:59Z</time>
      </trkpt>
      <trkpt lat="48.03975" lon="6.97357">
        <ele>928.59</ele>
        <time>2021-06-23T09:33:00Z</time>
      </trkpt>
      <trkpt lat="48.03962" lon="6.97338">
        <ele>927.61</ele>
        <time>2021-06-23T09:33:02Z</time>
      </trkpt>
      <trkpt lat="48.03953" lon="6.97305">
        <ele>923.25</ele>
        <time>2021-06-23T09:33:03Z</time>
      </trkpt>
      <trkpt lat="48.03949" lon="6.9728">
        <ele>920.67</ele>
        <time>2021-06-23T09:33:05Z</time>
      </trkpt>
      <trkpt lat="48.03942" lon="6.9726">
        <ele>919.62</ele>
        <time>2021-06-23T09:33:06Z</time>
      </trkpt>
      <trkpt lat="48.03933" lon="6.97243">
        <ele>918.97</ele>
        <time>2021-06-23T09:33:08Z</time>
      </trkpt>
      <trkpt lat="48.03913" lon="6.97216">
        <ele>918.53</ele>
        <time>2021-06-23T09:33:09Z</time>
      </trkpt>
      <trkpt lat="48.03835" lon="6.97151">
        <ele>914.24</ele>
        <time>2021-06-23T09:33:10Z</time>
      </trkpt>
      <trkpt lat="48.03814" lon="6.97127">
        <ele>910.59</ele>
        <time>2021-06-23T09:33:12Z</time>
      </trkpt>
      <trkpt lat="48.03782" lon="6.97074">
        <ele>907.28</ele>
        <time>2021-06-23T09:33:13Z</time>
      </trkpt>
      <trkpt lat="48.03758" lon="6.97025">
        <ele>904.19</ele>
        <time>2021-06-23T09:33:15Z</time>
      </trkpt>
      <trkpt lat="48.03724" lon="6.9697">
        <ele>898.65</ele>
        <time>2021-06-23T09:33:16Z</time>
      </trkpt>
      <trkpt lat="48.03677" lon="6.96903">
        <ele>892.55</ele>
        <time>2021-06-23T09:33:18Z</time>
      </trkpt>
      <trkpt lat="48.03676" lon="6.96896">
        <ele>892.28</ele>
        <time>2021-06-23T09:33:22Z</time>
      </trkpt>
      <trkpt lat="48.03672" lon="6.96886">
        <ele>891.63</ele>
        <time>2021-06-23T09:33:26Z</time>
      </trkpt>
      <trkpt lat="48.03662" lon="6.96881">
        <ele>891.59</ele>
        <time>2021-06-23T09:33:29Z</time>
      </trkpt>
      <trkpt lat="48.03653" lon="6.9687">
        <ele>891.82</ele>
        <time>2021-06-23T09:33:33Z</time>
      </trkpt>
      <trkpt lat="48.03627" lon="6.9683">
        <ele>891.25</ele>
        <time>2021-06-23T09:33:37Z</time>
      </trkpt>
      <trkpt lat="48.03612" lon="6.968">
        <ele>890.79</ele>
        <time>2021-06-23T09:33:41Z</time>
      </trkpt>
      <trkpt lat="48.03563" lon="6.9669">
        <ele>889.15</ele>
        <time>2021-06-23T09:33:45Z</time>
      </trkpt>
      <trkpt lat="48.03529" lon="6.96618">
        <ele>890.32</ele>
        <time>2021-06-23T09:33:48Z</time>
      </trkpt>
      <trkpt lat="48.03468" lon="6.96527">
        <ele>886.5</ele>
        <time>2021-06-23T09:33:52Z</time>
      </trkpt>
      <trkpt lat="48.03438" lon="6.96493">
        <ele>887.76</ele>
        <time>2021-06-23T09:33:56Z</time>
      </trkpt>
      <trkpt lat="48.03386" lon="6.96449">
        <ele>883.95</ele>
        <time>2021-06-23T09:34:00Z</time>
      </trkpt>
      <trkpt lat="48.03307" lon="6.96371">
        <ele>888.81</ele>
        <time>2021-06-23T09:34:04Z</time>
      </trkpt>
      <trkpt lat="48.03239" lon="6.96321">
        <ele>888.38</ele>
        <time>2021-06-23T09:34:07Z</time>
      </trkpt>
      <trkpt lat="48.03101" lon="6.96243">
        <ele>888.2</ele>
        <time>2021-06-23T09:34:11Z</time>
      </trkpt>
      <trkpt lat="48.03051" lon="6.96212">
        <ele>883.79</ele>
        <time>2021-06-23T09:34:15Z</time>
      </trkpt>
      <trkpt lat="48.02917" lon="6.96173">
        <ele>873.88</ele>
        <time>2021-06-23T09:34:19Z</time>
      </trkpt>
      <trkpt lat="48.02846" lon="6.96149">
        <ele>870.73</ele>
        <time>2021-06-23T09:34:23Z</time>
      </trkpt>
      <trkpt lat="48.02819" lon="6.96137">
        <ele>870.36</ele>
        <time>2021-06-23T09:34:27Z</time>
      </trkpt>
      <trkpt lat="48.02772" lon="6.96098">
        <ele>862.78</ele>
        <time>2021-06-23T09:34:30Z</time>
      </trkpt>
      <trkpt lat="48.02715" lon="6.96064">
        <ele>859.56</ele>
        <time>2021-06-23T09:34:34Z</time>
      </trkpt>
      <trkpt lat="48.02693" lon="6.96048">
        <ele>855.54</ele>
        <time>2021-06-23T09:34:38Z</time>
      </trkpt>
      <trkpt lat="48.02646" lon="6.96008">
        <ele>849.05</ele>
        <time>2021-06-23T09:34:42Z</time>
      </trkpt>
      <trkpt lat="48.02599" lon="6.95983">
        <ele>848.49</ele>
        <time>2021-06-23T09:34:46Z</time>
      </trkpt>
      <trkpt lat="48.0252" lon="6.95956">
        <ele>840.76</ele>
        <time>2021-06-23T09:34:49Z</time>
      </trkpt>
      <trkpt lat="48.0252" lon="6.95956">
        <ele>840.76</ele>
        <time>2021-06-23T09:34:49Z</time>
      </trkpt>
      <trkpt lat="48.02496" lon="6.95938">
        <ele>839.67</ele>
        <time>2021-06-23T09:34:53Z</time>
      </trkpt>
      <trkpt lat="48.02471" lon="6.95912">
        <ele>838.55</ele>
        <time>2021-06-23T09:34:57Z</time>
      </trkpt>
      <trkpt lat="48.02439" lon="6.95863">
        <ele>831.32</ele>
        <time>2021-06-23T09:35:01Z</time>
      </trkpt>
      <trkpt lat="48.0242" lon="6.95827">
        <ele>831.35</ele>
        <time>2021-06-23T09:35:05Z</time>
      </trkpt>
      <trkpt lat="48.02392" lon="6.95745">
        <ele>831.88</ele>
        <time>2021-06-23T09:35:08Z</time>
      </trkpt>
      <trkpt lat="48.0234" lon="6.95617">
        <ele>822.07</ele>
        <time>2021-06-23T09:35:12Z</time>
      </trkpt>
      <trkpt lat="48.02324" lon="6.95573">
        <ele>819.83</ele>
        <time>2021-06-23T09:35:16Z</time>
      </trkpt>
      <trkpt lat="48.02291" lon="6.95435">
        <ele>814.17</ele>
        <time>2021-06-23T09:35:20Z</time>
      </trkpt>
      <trkpt lat="48.02278" lon="6.95398">
        <ele>813.31</ele>
        <time>2021-06-23T09:35:24Z</time>
      </trkpt>
      <trkpt lat="48.02254" lon="6.95355">
        <ele>808.43</ele>
        <time>2021-06-23T09:35:27Z</time>
      </trkpt>
      <trkpt lat="48.02195" lon="6.95291">
        <ele>798.51</ele>
        <time>2021-06-23T09:35:31Z</time>
      </trkpt>
      <trkpt lat="48.0218" lon="6.9527">
        <ele>797.92</ele>
        <time>2021-06-23T09:35:35Z</time>
      </trkpt>
      <trkpt lat="48.02169" lon="6.95248">
        <ele>798.3</ele>
        <time>2021-06-23T09:35:39Z</time>
      </trkpt>
      <trkpt lat="48.02153" lon="6.95208">
        <ele>800.27</ele>
        <time>2021-06-23T09:35:43Z</time>
      </trkpt>
      <trkpt lat="48.02127" lon="6.95107">
        <ele>795.06</ele>
        <time>2021-06-23T09:35:46Z</time>
      </trkpt>
      <trkpt lat="48.02117" lon="6.95082">
        <ele>794.36</ele>
        <time>2021-06-23T09:35:50Z</time>
      </trkpt>
      <trkpt lat="48.02105" lon="6.95055">
        <ele>796.33</ele>
        <time>2021-06-23T09:35:54Z</time>
      </trkpt>
      <trkpt lat="48.02094" lon="6.95039">
        <ele>796.47</ele>
        <time>2021-06-23T09:35:58Z</time>
      </trkpt>
      <trkpt lat="48.02027" lon="6.94963">
        <ele>790.68</ele>
        <time>2021-06-23T09:36:02Z</time>
      </trkpt>
      <trkpt lat="48.02012" lon="6.94941">
        <ele>790.56</ele>
        <time>2021-06-23T09:36:05Z</time>
      </trkpt>
      <trkpt lat="48.01987" lon="6.94898">
        <ele>789.19</ele>
        <time>2021-06-23T09:36:09Z</time>
      </trkpt>
      <trkpt lat="48.01942" lon="6.94811">
        <ele>783.09</ele>
        <time>2021-06-23T09:36:13Z</time>
      </trkpt>
      <trkpt lat="48.0192" lon="6.94776">
        <ele>782.99</ele>
        <time>2021-06-23T09:36:17Z</time>
      </trkpt>
      <trkpt lat="48.01897" lon="6.94747">
        <ele>783.18</ele>
        <time>2021-06-23T09:36:20Z</time>
      </trkpt>
      <trkpt lat="48.01869" lon="6.94717">
        <ele>779.09</ele>
        <time>2021-06-23T09:36:24Z</time>
      </trkpt>
      <trkpt lat="48.01676" lon="6.94517">
        <ele>774.91</ele>
        <time>2021-06-23T09:36:28Z</time>
      </trkpt>
      <trkpt lat="48.01676" lon="6.94517">
        <ele>774.91</ele>
        <time>2021-06-23T09:36:28Z</time>
      </trkpt>
      <trkpt lat="48.01346" lon="6.94171">
        <ele>762.29</ele>
        <time>2021-06-23T09:36:36Z</time>
      </trkpt>
      <trkpt lat="48.01309" lon="6.94136">
        <ele>758.03</ele>
        <time>2021-06-23T09:36:44Z</time>
      </trkpt>
      <trkpt lat="48.01147" lon="6.9403">
        <ele>752.9</ele>
        <time>2021-06-23T09:36:52Z</time>
      </trkpt>
      <trkpt lat="48.01111" lon="6.93995">
        <ele>754.64</ele>
        <time>2021-06-23T09:37:00Z</time>
      </trkpt>
      <trkpt lat="48.01056" lon="6.93937">
        <ele>755.05</ele>
        <time>2021-06-23T09:37:08Z</time>
      </trkpt>
      <trkpt lat="48.01012" lon="6.93894">
        <ele>751.95</ele>
        <time>2021-06-23T09:37:15Z</time>
      </trkpt>
      <trkpt lat="48.00958" lon="6.93855">
        <ele>752.55</ele>
        <time>2021-06-23T09:37:23Z</time>
      </trkpt>
      <trkpt lat="48.00896" lon="6.93818">
        <ele>743.04</ele>
        <time>2021-06-23T09:37:31Z</time>
      </trkpt>
      <trkpt lat="48.00831" lon="6.9377">
        <ele>742.87</ele>
        <time>2021-06-23T09:37:39Z</time>
      </trkpt>
      <trkpt lat="48.00721" lon="6.9366">
        <ele>738.2</ele>
        <time>2021-06-23T09:37:47Z</time>
      </trkpt>
      <trkpt lat="48.00685" lon="6.9362">
        <ele>737.9</ele>
        <time>2021-06-23T09:37:55Z</time>
      </trkpt>
      <trkpt lat="48.0065" lon="6.93563">
        <ele>735.76</ele>
        <time>2021-06-23T09:38:03Z</time>
      </trkpt>
      <trkpt lat="48.00601" lon="6.9347">
        <ele>740.03</ele>
        <time>2021-06-23T09:38:11Z</time>
      </trkpt>
      <trkpt lat="48.00587" lon="6.93429">
        <ele>738.63</ele>
        <time>2021-06-23T09:38:19Z</time>
      </trkpt>
      <trkpt lat="48.00558" lon="6.9332">
        <ele>739.8</ele>
        <time>2021-06-23T09:38:27Z</time>
      </trkpt>
      <trkpt lat="48.00545" lon="6.9328">
        <ele>740.52</ele>
        <time>2021-06-23T09:38:34Z</time>
      </trkpt>
      <trkpt lat="48.00434" lon="6.93052">
        <ele>738.4</ele>
        <time>2021-06-23T09:38:42Z</time>
      </trkpt>
      <trkpt lat="48.0041" lon="6.92996">
        <ele>736.95</ele>
        <time>2021-06-23T09:38:50Z</time>
      </trkpt>
      <trkpt lat="48.00381" lon="6.92903">
        <ele>733.4</ele>
        <time>2021-06-23T09:38:58Z</time>
      </trkpt>
      <trkpt lat="48.00372" lon="6.92909">
        <ele>731.69</ele>
        <time>2021-06-23T09:39:01Z</time>
      </trkpt>
      <trkpt lat="48.00364" lon="6.92917">
        <ele>730.28</ele>
        <time>2021-06-23T09:39:04Z</time>
      </trkpt>
      <trkpt lat="48.0032" lon="6.92988">
        <ele>726.69</ele>
        <time>2021-06-23T09:39:07Z</time>
      </trkpt>
      <trkpt lat="48.0032" lon="6.92988">
        <ele>726.69</ele>
        <time>2021-06-23T09:39:07Z</time>
      </trkpt>
      <trkpt lat="48.00303" lon="6.93022">
        <ele>726.61</ele>
        <time>2021-06-23T09:39:11Z</time>
      </trkpt>
      <trkpt lat="48.0029" lon="6.93057">
        <ele>729.16</ele>
        <time>2021-06-23T09:39:15Z</time>
      </trkpt>
      <trkpt lat="48.00284" lon="6.93082">
        <ele>734.04</ele>
        <time>2021-06-23T09:39:20Z</time>
      </trkpt>
      <trkpt lat="48.00278" lon="6.93118">
        <ele>738.06</ele>
        <time>2021-06-23T09:39:24Z</time>
      </trkpt>
      <trkpt lat="48.00276" lon="6.9316">
        <ele>737.79</ele>
        <time>2021-06-23T09:39:28Z</time>
      </trkpt>
      <trkpt lat="48.00278" lon="6.93274">
        <ele>744.32</ele>
        <time>2021-06-23T09:39:32Z</time>
      </trkpt>
      <trkpt lat="48.00283" lon="6.93361">
        <ele>742.23</ele>
        <time>2021-06-23T09:39:36Z</time>
      </trkpt>
      <trkpt lat="48.00291" lon="6.93407">
        <ele>744.61</ele>
        <time>2021-06-23T09:39:41Z</time>
      </trkpt>
      <trkpt lat="48.00312" lon="6.93501">
        <ele>747.91</ele>
        <time>2021-06-23T09:39:45Z</time>
      </trkpt>
      <trkpt lat="48.00325" lon="6.9355">
        <ele>753.2</ele>
        <time>2021-06-23T09:39:49Z</time>
      </trkpt>
      <trkpt lat="48.00357" lon="6.93637">
        <ele>755.07</ele>
        <time>2021-06-23T09:39:53Z</time>
      </trkpt>
      <trkpt lat="48.00366" lon="6.93675">
        <ele>753.97</ele>
        <time>2021-06-23T09:39:58Z</time>
      </trkpt>
      <trkpt lat="48.00375" lon="6.93744">
        <ele>764.57</ele>
        <time>2021-06-23T09:40:02Z</time>
      </trkpt>
      <trkpt lat="48.00375" lon="6.93744">
        <ele>764.57</ele>
        <time>2021-06-23T09:40:02Z</time>
      </trkpt>
      <trkpt lat="48.0039" lon="6.93782">
        <ele>763.69</ele>
        <time>2021-06-23T09:40:05Z</time>
      </trkpt>
      <trkpt lat="48.00402" lon="6.93798">
        <ele>764.99</ele>
        <time>2021-06-23T09:40:07Z</time>
      </trkpt>
      <trkpt lat="48.00417" lon="6.93816">
        <ele>766.45</ele>
        <time>2021-06-23T09:40:10Z</time>
      </trkpt>
      <trkpt lat="48.00436" lon="6.93829">
        <ele>767.86</ele>
        <time>2021-06-23T09:40:12Z</time>
      </trkpt>
      <trkpt lat="48.00477" lon="6.9385">
        <ele>765.45</ele>
        <time>2021-06-23T09:40:15Z</time>
      </trkpt>
      <trkpt lat="48.00493" lon="6.93864">
        <ele>765.34</ele>
        <time>2021-06-23T09:40:18Z</time>
      </trkpt>
      <trkpt lat="48.00512" lon="6.93894">
        <ele>768.03</ele>
        <time>2021-06-23T09:40:20Z</time>
      </trkpt>
      <trkpt lat="48.00548" lon="6.93968">
        <ele>768.91</ele>
        <time>2021-06-23T09:40:23Z</time>
      </trkpt>
      <trkpt lat="48.00617" lon="6.94121">
        <ele>775.07</ele>
        <time>2021-06-23T09:40:26Z</time>
      </trkpt>
      <trkpt lat="48.00638" lon="6.94159">
        <ele>778.02</ele>
        <time>2021-06-23T09:40:28Z</time>
      </trkpt>
      <trkpt lat="48.00659" lon="6.94183">
        <ele>779.45</ele>
        <time>2021-06-23T09:40:31Z</time>
      </trkpt>
      <trkpt lat="48.00698" lon="6.94206">
        <ele>780.95</ele>
        <time>2021-06-23T09:40:34Z</time>
      </trkpt>
      <trkpt lat="48.00741" lon="6.94256">
        <ele>792.69</ele>
        <time>2021-06-23T09:40:36Z</time>
      </trkpt>
      <trkpt lat="48.0076" lon="6.9427">
        <ele>795.17</ele>
        <time>2021-06-23T09:40:39Z</time>
      </trkpt>
      <trkpt lat="48.00808" lon="6.94295">
        <ele>795.1</ele>
        <time>2021-06-23T09:40:41Z</time>
      </trkpt>
      <trkpt lat="48.00844" lon="6.94321">
        <ele>793.42</ele>
        <time>2021-06-23T09:40:44Z</time>
      </trkpt>
      <trkpt lat="48.00924" lon="6.94396">
        <ele>811</ele>
        <time>2021-06-23T09:40:47Z</time>
      </trkpt>
      <trkpt lat="48.00997" lon="6.94434">
        <ele>813.09</ele>
        <time>2021-06-23T09:40:49Z</time>
      </trkpt>
      <trkpt lat="48.01146" lon="6.94559">
        <ele>823.68</ele>
        <time>2021-06-23T09:40:52Z</time>
      </trkpt>
      <trkpt lat="48.01197" lon="6.94604">
        <ele>824.27</ele>
        <time>2021-06-23T09:40:55Z</time>
      </trkpt>
      <trkpt lat="48.01229" lon="6.94638">
        <ele>827.4</ele>
        <time>2021-06-23T09:40:57Z</time>
      </trkpt>
      <trkpt lat="48.01277" lon="6.94699">
        <ele>832.19</ele>
        <time>2021-06-23T09:41:00Z</time>
      </trkpt>
      <trkpt lat="48.01312" lon="6.94737">
        <ele>835.79</ele>
        <time>2021-06-23T09:41:03Z</time>
      </trkpt>
      <trkpt lat="48.01315" lon="6.94747">
        <ele>838.18</ele>
        <time>2021-06-23T09:41:05Z</time>
      </trkpt>
      <trkpt lat="48.01314" lon="6.94753">
        <ele>839.42</ele>
        <time>2021-06-23T09:41:08Z</time>
      </trkpt>
      <trkpt lat="48.01312" lon="6.94756">
        <ele>840.2</ele>
        <time>2021-06-23T09:41:10Z</time>
      </trkpt>
      <trkpt lat="48.01308" lon="6.94758">
        <ele>841.56</ele>
        <time>2021-06-23T09:41:13Z</time>
      </trkpt>
      <trkpt lat="48.01299" lon="6.94754">
        <ele>846.5</ele>
        <time>2021-06-23T09:41:16Z</time>
      </trkpt>
      <trkpt lat="48.01299" lon="6.94754">
        <ele>846.5</ele>
        <time>2021-06-23T09:41:16Z</time>
      </trkpt>
      <trkpt lat="48.01222" lon="6.94691">
        <ele>850.01</ele>
        <time>2021-06-23T09:41:18Z</time>
      </trkpt>
      <trkpt lat="48.01196" lon="6.94673">
        <ele>851.02</ele>
        <time>2021-06-23T09:41:21Z</time>
      </trkpt>
      <trkpt lat="48.01178" lon="6.94665">
        <ele>852.64</ele>
        <time>2021-06-23T09:41:24Z</time>
      </trkpt>
      <trkpt lat="48.01094" lon="6.9465">
        <ele>863.13</ele>
        <time>2021-06-23T09:41:27Z</time>
      </trkpt>
      <trkpt lat="48.0099" lon="6.94609">
        <ele>871.79</ele>
        <time>2021-06-23T09:41:29Z</time>
      </trkpt>
      <trkpt lat="48.00939" lon="6.94593">
        <ele>877.56</ele>
        <time>2021-06-23T09:41:32Z</time>
      </trkpt>
      <trkpt lat="48.00835" lon="6.94569">
        <ele>891.24</ele>
        <time>2021-06-23T09:41:35Z</time>
      </trkpt>
      <trkpt lat="48.00776" lon="6.94552">
        <ele>893.91</ele>
        <time>2021-06-23T09:41:38Z</time>
      </trkpt>
      <trkpt lat="48.00746" lon="6.94547">
        <ele>896.06</ele>
        <time>2021-06-23T09:41:40Z</time>
      </trkpt>
      <trkpt lat="48.00729" lon="6.94549">
        <ele>898.74</ele>
        <time>2021-06-23T09:41:43Z</time>
      </trkpt>
      <trkpt lat="48.00729" lon="6.94558">
        <ele>902.18</ele>
        <time>2021-06-23T09:41:44Z</time>
      </trkpt>
      <trkpt lat="48.00731" lon="6.94563">
        <ele>904.28</ele>
        <time>2021-06-23T09:41:44Z</time>
      </trkpt>
      <trkpt lat="48.00736" lon="6.94567">
        <ele>905.6</ele>
        <time>2021-06-23T09:41:45Z</time>
      </trkpt>
      <trkpt lat="48.00753" lon="6.9457">
        <ele>904.89</ele>
        <time>2021-06-23T09:41:46Z</time>
      </trkpt>
      <trkpt lat="48.00753" lon="6.9457">
        <ele>904.89</ele>
        <time>2021-06-23T09:41:46Z</time>
      </trkpt>
      <trkpt lat="48.00765" lon="6.94572">
        <ele>904.17</ele>
        <time>2021-06-23T09:41:48Z</time>
      </trkpt>
      <trkpt lat="48.00789" lon="6.94585">
        <ele>903.78</ele>
        <time>2021-06-23T09:41:50Z</time>
      </trkpt>
      <trkpt lat="48.00805" lon="6.94599">
        <ele>904.83</ele>
        <time>2021-06-23T09:41:52Z</time>
      </trkpt>
      <trkpt lat="48.00827" lon="6.94623">
        <ele>908.53</ele>
        <time>2021-06-23T09:41:54Z</time>
      </trkpt>
      <trkpt lat="48.0086" lon="6.94645">
        <ele>909.01</ele>
        <time>2021-06-23T09:41:57Z</time>
      </trkpt>
      <trkpt lat="48.00883" lon="6.9467">
        <ele>910.39</ele>
        <time>2021-06-23T09:41:59Z</time>
      </trkpt>
      <trkpt lat="48.00942" lon="6.9474">
        <ele>914.73</ele>
        <time>2021-06-23T09:42:01Z</time>
      </trkpt>
      <trkpt lat="48.00989" lon="6.94779">
        <ele>918.28</ele>
        <time>2021-06-23T09:42:03Z</time>
      </trkpt>
      <trkpt lat="48.0105" lon="6.94849">
        <ele>926.33</ele>
        <time>2021-06-23T09:42:05Z</time>
      </trkpt>
      <trkpt lat="48.01055" lon="6.94857">
        <ele>927.25</ele>
        <time>2021-06-23T09:42:08Z</time>
      </trkpt>
      <trkpt lat="48.0106" lon="6.94873">
        <ele>928.5</ele>
        <time>2021-06-23T09:42:10Z</time>
      </trkpt>
      <trkpt lat="48.01063" lon="6.94892">
        <ele>929.64</ele>
        <time>2021-06-23T09:42:12Z</time>
      </trkpt>
      <trkpt lat="48.01064" lon="6.94908">
        <ele>930.06</ele>
        <time>2021-06-23T09:42:14Z</time>
      </trkpt>
      <trkpt lat="48.01061" lon="6.94927">
        <ele>931.95</ele>
        <time>2021-06-23T09:42:16Z</time>
      </trkpt>
      <trkpt lat="48.01055" lon="6.94943">
        <ele>935.4</ele>
        <time>2021-06-23T09:42:19Z</time>
      </trkpt>
      <trkpt lat="48.01021" lon="6.94999">
        <ele>948.53</ele>
        <time>2021-06-23T09:42:21Z</time>
      </trkpt>
      <trkpt lat="48.0097" lon="6.951">
        <ele>964.68</ele>
        <time>2021-06-23T09:42:23Z</time>
      </trkpt>
      <trkpt lat="48.00955" lon="6.95162">
        <ele>968.62</ele>
        <time>2021-06-23T09:42:25Z</time>
      </trkpt>
      <trkpt lat="48.00955" lon="6.95247">
        <ele>965.48</ele>
        <time>2021-06-23T09:42:27Z</time>
      </trkpt>
      <trkpt lat="48.00957" lon="6.95322">
        <ele>973.63</ele>
        <time>2021-06-23T09:42:30Z</time>
      </trkpt>
      <trkpt lat="48.00984" lon="6.95444">
        <ele>971.44</ele>
        <time>2021-06-23T09:42:32Z</time>
      </trkpt>
      <trkpt lat="48.00984" lon="6.95541">
        <ele>975.89</ele>
        <time>2021-06-23T09:42:34Z</time>
      </trkpt>
      <trkpt lat="48.01001" lon="6.9562">
        <ele>974.38</ele>
        <time>2021-06-23T09:42:36Z</time>
      </trkpt>
      <trkpt lat="48.01011" lon="6.95652">
        <ele>977.43</ele>
        <time>2021-06-23T09:42:38Z</time>
      </trkpt>
      <trkpt lat="48.01013" lon="6.9566">
        <ele>978.29</ele>
        <time>2021-06-23T09:42:40Z</time>
      </trkpt>
      <trkpt lat="48.01012" lon="6.95677">
        <ele>979.74</ele>
        <time>2021-06-23T09:42:43Z</time>
      </trkpt>
      <trkpt lat="48.01008" lon="6.95699">
        <ele>980.86</ele>
        <time>2021-06-23T09:42:45Z</time>
      </trkpt>
      <trkpt lat="48.00997" lon="6.95728">
        <ele>982.66</ele>
        <time>2021-06-23T09:42:47Z</time>
      </trkpt>
      <trkpt lat="48.00973" lon="6.95772">
        <ele>985.43</ele>
        <time>2021-06-23T09:42:49Z</time>
      </trkpt>
      <trkpt lat="48.00969" lon="6.95783">
        <ele>986.74</ele>
        <time>2021-06-23T09:42:51Z</time>
      </trkpt>
      <trkpt lat="48.00961" lon="6.95843">
        <ele>991.04</ele>
        <time>2021-06-23T09:42:54Z</time>
      </trkpt>
      <trkpt lat="48.00956" lon="6.95935">
        <ele>990.45</ele>
        <time>2021-06-23T09:42:56Z</time>
      </trkpt>
      <trkpt lat="48.00957" lon="6.95958">
        <ele>990.67</ele>
        <time>2021-06-23T09:42:58Z</time>
      </trkpt>
      <trkpt lat="48.00958" lon="6.95968">
        <ele>991</ele>
        <time>2021-06-23T09:43:00Z</time>
      </trkpt>
      <trkpt lat="48.00963" lon="6.95974">
        <ele>991.61</ele>
        <time>2021-06-23T09:43:02Z</time>
      </trkpt>
      <trkpt lat="48.00973" lon="6.95974">
        <ele>993.14</ele>
        <time>2021-06-23T09:43:05Z</time>
      </trkpt>
      <trkpt lat="48.00987" lon="6.95971">
        <ele>996.8</ele>
        <time>2021-06-23T09:43:07Z</time>
      </trkpt>
      <trkpt lat="48.01001" lon="6.95964">
        <ele>1000.23</ele>
        <time>2021-06-23T09:43:09Z</time>
      </trkpt>
      <trkpt lat="48.01011" lon="6.95957">
        <ele>1002.66</ele>
        <time>2021-06-23T09:43:11Z</time>
      </trkpt>
      <trkpt lat="48.01031" lon="6.95929">
        <ele>1007.16</ele>
        <time>2021-06-23T09:43:13Z</time>
      </trkpt>
      <trkpt lat="48.01055" lon="6.95908">
        <ele>1011.01</ele>
        <time>2021-06-23T09:43:16Z</time>
      </trkpt>
      <trkpt lat="48.01086" lon="6.9587">
        <ele>1014.66</ele>
        <time>2021-06-23T09:43:18Z</time>
      </trkpt>
      <trkpt lat="48.01133" lon="6.95806">
        <ele>1018.81</ele>
        <time>2021-06-23T09:43:20Z</time>
      </trkpt>
      <trkpt lat="48.0115" lon="6.95751">
        <ele>1020.19</ele>
        <time>2021-06-23T09:43:22Z</time>
      </trkpt>
      <trkpt lat="48.01155" lon="6.95741">
        <ele>1021.56</ele>
        <time>2021-06-23T09:43:24Z</time>
      </trkpt>
      <trkpt lat="48.01158" lon="6.9574">
        <ele>1022.31</ele>
        <time>2021-06-23T09:43:27Z</time>
      </trkpt>
      <trkpt lat="48.01163" lon="6.95741">
        <ele>1023.57</ele>
        <time>2021-06-23T09:43:29Z</time>
      </trkpt>
      <trkpt lat="48.01166" lon="6.95746">
        <ele>1024.71</ele>
        <time>2021-06-23T09:43:31Z</time>
      </trkpt>
      <trkpt lat="48.01168" lon="6.95754">
        <ele>1025.57</ele>
        <time>2021-06-23T09:43:33Z</time>
      </trkpt>
      <trkpt lat="48.01161" lon="6.95783">
        <ele>1024.62</ele>
        <time>2021-06-23T09:43:35Z</time>
      </trkpt>
      <trkpt lat="48.0114" lon="6.95851">
        <ele>1027.68</ele>
        <time>2021-06-23T09:43:37Z</time>
      </trkpt>
      <trkpt lat="48.01133" lon="6.95902">
        <ele>1032.35</ele>
        <time>2021-06-23T09:43:40Z</time>
      </trkpt>
      <trkpt lat="48.01134" lon="6.9593">
        <ele>1034.66</ele>
        <time>2021-06-23T09:43:42Z</time>
      </trkpt>
      <trkpt lat="48.01137" lon="6.95944">
        <ele>1036.2</ele>
        <time>2021-06-23T09:43:44Z</time>
      </trkpt>
      <trkpt lat="48.01143" lon="6.9596">
        <ele>1039.11</ele>
        <time>2021-06-23T09:43:46Z</time>
      </trkpt>
      <trkpt lat="48.01146" lon="6.95975">
        <ele>1040.52</ele>
        <time>2021-06-23T09:43:48Z</time>
      </trkpt>
      <trkpt lat="48.01145" lon="6.96001">
        <ele>1041.44</ele>
        <time>2021-06-23T09:43:51Z</time>
      </trkpt>
      <trkpt lat="48.01145" lon="6.96001">
        <ele>1041.44</ele>
        <time>2021-06-23T09:43:51Z</time>
      </trkpt>
      <trkpt lat="48.01145" lon="6.96034">
        <ele>1042.36</ele>
        <time>2021-06-23T09:43:53Z</time>
      </trkpt>
      <trkpt lat="48.01142" lon="6.96059">
        <ele>1042.46</ele>
        <time>2021-06-23T09:43:55Z</time>
      </trkpt>
      <trkpt lat="48.0113" lon="6.96096">
        <ele>1041.25</ele>
        <time>2021-06-23T09:43:57Z</time>
      </trkpt>
      <trkpt lat="48.01128" lon="6.96144">
        <ele>1046.74</ele>
        <time>2021-06-23T09:44:00Z</time>
      </trkpt>
      <trkpt lat="48.01122" lon="6.96188">
        <ele>1050.83</ele>
        <time>2021-06-23T09:44:02Z</time>
      </trkpt>
      <trkpt lat="48.01102" lon="6.96261">
        <ele>1056.65</ele>
        <time>2021-06-23T09:44:04Z</time>
      </trkpt>
      <trkpt lat="48.01055" lon="6.96391">
        <ele>1062.17</ele>
        <time>2021-06-23T09:44:06Z</time>
      </trkpt>
      <trkpt lat="48.01048" lon="6.96417">
        <ele>1063.24</ele>
        <time>2021-06-23T09:44:08Z</time>
      </trkpt>
      <trkpt lat="48.01046" lon="6.96461">
        <ele>1064.97</ele>
        <time>2021-06-23T09:44:11Z</time>
      </trkpt>
      <trkpt lat="48.01059" lon="6.96593">
        <ele>1072.23</ele>
        <time>2021-06-23T09:44:13Z</time>
      </trkpt>
      <trkpt lat="48.01063" lon="6.96677">
        <ele>1074.94</ele>
        <time>2021-06-23T09:44:15Z</time>
      </trkpt>
      <trkpt lat="48.01062" lon="6.96703">
        <ele>1077.53</ele>
        <time>2021-06-23T09:44:17Z</time>
      </trkpt>
      <trkpt lat="48.01055" lon="6.96747">
        <ele>1079.78</ele>
        <time>2021-06-23T09:44:20Z</time>
      </trkpt>
      <trkpt lat="48.01054" lon="6.96778">
        <ele>1083.75</ele>
        <time>2021-06-23T09:44:22Z</time>
      </trkpt>
      <trkpt lat="48.01049" lon="6.96792">
        <ele>1085.54</ele>
        <time>2021-06-23T09:44:24Z</time>
      </trkpt>
      <trkpt lat="48.00971" lon="6.96869">
        <ele>1095.7</ele>
        <time>2021-06-23T09:44:26Z</time>
      </trkpt>
      <trkpt lat="48.00933" lon="6.969">
        <ele>1094.96</ele>
        <time>2021-06-23T09:44:28Z</time>
      </trkpt>
      <trkpt lat="48.00898" lon="6.96919">
        <ele>1095.47</ele>
        <time>2021-06-23T09:44:31Z</time>
      </trkpt>
      <trkpt lat="48.00888" lon="6.96928">
        <ele>1097.66</ele>
        <time>2021-06-23T09:44:33Z</time>
      </trkpt>
      <trkpt lat="48.00883" lon="6.96936">
        <ele>1099.9</ele>
        <time>2021-06-23T09:44:35Z</time>
      </trkpt>
      <trkpt lat="48.00884" lon="6.96948">
        <ele>1102.54</ele>
        <time>2021-06-23T09:44:37Z</time>
      </trkpt>
      <trkpt lat="48.0089" lon="6.96957">
        <ele>1104.25</ele>
        <time>2021-06-23T09:44:40Z</time>
      </trkpt>
      <trkpt lat="48.01024" lon="6.96976">
        <ele>1116.92</ele>
        <time>2021-06-23T09:44:42Z</time>
      </trkpt>
      <trkpt lat="48.01053" lon="6.9697">
        <ele>1116.56</ele>
        <time>2021-06-23T09:44:44Z</time>
      </trkpt>
      <trkpt lat="48.01081" lon="6.96954">
        <ele>1118.12</ele>
        <time>2021-06-23T09:44:46Z</time>
      </trkpt>
      <trkpt lat="48.01093" lon="6.96942">
        <ele>1118.06</ele>
        <time>2021-06-23T09:44:48Z</time>
      </trkpt>
      <trkpt lat="48.01105" lon="6.96916">
        <ele>1115.13</ele>
        <time>2021-06-23T09:44:51Z</time>
      </trkpt>
      <trkpt lat="48.01114" lon="6.96905">
        <ele>1114.23</ele>
        <time>2021-06-23T09:44:53Z</time>
      </trkpt>
      <trkpt lat="48.0112" lon="6.96904">
        <ele>1114.77</ele>
        <time>2021-06-23T09:44:55Z</time>
      </trkpt>
      <trkpt lat="48.01127" lon="6.96907">
        <ele>1116.02</ele>
        <time>2021-06-23T09:44:57Z</time>
      </trkpt>
      <trkpt lat="48.01134" lon="6.96913">
        <ele>1118.49</ele>
        <time>2021-06-23T09:45:00Z</time>
      </trkpt>
      <trkpt lat="48.01138" lon="6.96922">
        <ele>1120.6</ele>
        <time>2021-06-23T09:45:02Z</time>
      </trkpt>
      <trkpt lat="48.0114" lon="6.9693">
        <ele>1122.03</ele>
        <time>2021-06-23T09:45:04Z</time>
      </trkpt>
      <trkpt lat="48.01139" lon="6.96939">
        <ele>1123.29</ele>
        <time>2021-06-23T09:45:06Z</time>
      </trkpt>
      <trkpt lat="48.01133" lon="6.96956">
        <ele>1124.68</ele>
        <time>2021-06-23T09:45:09Z</time>
      </trkpt>
      <trkpt lat="48.01026" lon="6.97068">
        <ele>1136.68</ele>
        <time>2021-06-23T09:45:11Z</time>
      </trkpt>
      <trkpt lat="48.00942" lon="6.97113">
        <ele>1140.65</ele>
        <time>2021-06-23T09:45:13Z</time>
      </trkpt>
      <trkpt lat="48.00884" lon="6.97131">
        <ele>1147.59</ele>
        <time>2021-06-23T09:45:15Z</time>
      </trkpt>
      <trkpt lat="48.00837" lon="6.97142">
        <ele>1154.2</ele>
        <time>2021-06-23T09:45:17Z</time>
      </trkpt>
      <trkpt lat="48.00762" lon="6.97149">
        <ele>1155.09</ele>
        <time>2021-06-23T09:45:20Z</time>
      </trkpt>
      <trkpt lat="48.00755" lon="6.97153">
        <ele>1155.56</ele>
        <time>2021-06-23T09:45:22Z</time>
      </trkpt>
      <trkpt lat="48.00742" lon="6.97175">
        <ele>1156.98</ele>
        <time>2021-06-23T09:45:24Z</time>
      </trkpt>
      <trkpt lat="48.0073" lon="6.97198">
        <ele>1157.37</ele>
        <time>2021-06-23T09:45:26Z</time>
      </trkpt>
      <trkpt lat="48.00727" lon="6.97209">
        <ele>1157.39</ele>
        <time>2021-06-23T09:45:29Z</time>
      </trkpt>
      <trkpt lat="48.00728" lon="6.97219">
        <ele>1157.99</ele>
        <time>2021-06-23T09:45:31Z</time>
      </trkpt>
      <trkpt lat="48.0073" lon="6.9723">
        <ele>1158.73</ele>
        <time>2021-06-23T09:45:33Z</time>
      </trkpt>
      <trkpt lat="48.00738" lon="6.97249">
        <ele>1160.95</ele>
        <time>2021-06-23T09:45:35Z</time>
      </trkpt>
      <trkpt lat="48.00748" lon="6.97261">
        <ele>1163.47</ele>
        <time>2021-06-23T09:45:37Z</time>
      </trkpt>
      <trkpt lat="48.0075" lon="6.97267">
        <ele>1164.08</ele>
        <time>2021-06-23T09:45:40Z</time>
      </trkpt>
      <trkpt lat="48.00751" lon="6.97275">
        <ele>1164.26</ele>
        <time>2021-06-23T09:45:42Z</time>
      </trkpt>
      <trkpt lat="48.0075" lon="6.97288">
        <ele>1163.91</ele>
        <time>2021-06-23T09:45:44Z</time>
      </trkpt>
      <trkpt lat="48.00746" lon="6.97309">
        <ele>1162.7</ele>
        <time>2021-06-23T09:45:46Z</time>
      </trkpt>
      <trkpt lat="48.00754" lon="6.9736">
        <ele>1168.03</ele>
        <time>2021-06-23T09:45:49Z</time>
      </trkpt>
      <trkpt lat="48.00753" lon="6.97402">
        <ele>1169.1</ele>
        <time>2021-06-23T09:45:51Z</time>
      </trkpt>
      <trkpt lat="48.00755" lon="6.97429">
        <ele>1169.84</ele>
        <time>2021-06-23T09:45:53Z</time>
      </trkpt>
      <trkpt lat="48.00759" lon="6.97451">
        <ele>1172.12</ele>
        <time>2021-06-23T09:45:55Z</time>
      </trkpt>
      <trkpt lat="48.00759" lon="6.97466">
        <ele>1173.8</ele>
        <time>2021-06-23T09:45:57Z</time>
      </trkpt>
      <trkpt lat="48.00755" lon="6.97476">
        <ele>1173.7</ele>
        <time>2021-06-23T09:46:00Z</time>
      </trkpt>
      <trkpt lat="48.00738" lon="6.97493">
        <ele>1172.03</ele>
        <time>2021-06-23T09:46:02Z</time>
      </trkpt>
      <trkpt lat="48.00731" lon="6.97505">
        <ele>1172.56</ele>
        <time>2021-06-23T09:46:04Z</time>
      </trkpt>
      <trkpt lat="48.00715" lon="6.97545">
        <ele>1177.16</ele>
        <time>2021-06-23T09:46:06Z</time>
      </trkpt>
      <trkpt lat="48.00701" lon="6.97592">
        <ele>1181.49</ele>
        <time>2021-06-23T09:46:09Z</time>
      </trkpt>
      <trkpt lat="48.00693" lon="6.97628">
        <ele>1182.04</ele>
        <time>2021-06-23T09:46:11Z</time>
      </trkpt>
      <trkpt lat="48.00679" lon="6.97714">
        <ele>1188.38</ele>
        <time>2021-06-23T09:46:13Z</time>
      </trkpt>
      <trkpt lat="48.00666" lon="6.97766">
        <ele>1191.98</ele>
        <time>2021-06-23T09:46:15Z</time>
      </trkpt>
      <trkpt lat="48.00666" lon="6.97775">
        <ele>1193.5</ele>
        <time>2021-06-23T09:46:17Z</time>
      </trkpt>
      <trkpt lat="48.00669" lon="6.97782">
        <ele>1195.2</ele>
        <time>2021-06-23T09:46:20Z</time>
      </trkpt>
      <trkpt lat="48.00665" lon="6.97788">
        <ele>1194.03</ele>
        <time>2021-06-23T09:46:20Z</time>
      </trkpt>
      <trkpt lat="48.00665" lon="6.97788">
        <ele>1194.03</ele>
        <time>2021-06-23T09:46:20Z</time>
      </trkpt>
      <trkpt lat="48.00652" lon="6.97811">
        <ele>1192.87</ele>
        <time>2021-06-23T09:46:23Z</time>
      </trkpt>
      <trkpt lat="48.00632" lon="6.97841">
        <ele>1189.86</ele>
        <time>2021-06-23T09:46:27Z</time>
      </trkpt>
      <trkpt lat="48.00617" lon="6.97857">
        <ele>1187.46</ele>
        <time>2021-06-23T09:46:30Z</time>
      </trkpt>
      <trkpt lat="48.00603" lon="6.97868">
        <ele>1186.15</ele>
        <time>2021-06-23T09:46:33Z</time>
      </trkpt>
      <trkpt lat="48.0059" lon="6.97873">
        <ele>1185.63</ele>
        <time>2021-06-23T09:46:37Z</time>
      </trkpt>
      <trkpt lat="48.00565" lon="6.97877">
        <ele>1185.89</ele>
        <time>2021-06-23T09:46:40Z</time>
      </trkpt>
      <trkpt lat="48.00523" lon="6.97868">
        <ele>1190.56</ele>
        <time>2021-06-23T09:46:43Z</time>
      </trkpt>
      <trkpt lat="48.00503" lon="6.97857">
        <ele>1194.17</ele>
        <time>2021-06-23T09:46:47Z</time>
      </trkpt>
      <trkpt lat="48.00479" lon="6.9784">
        <ele>1193.66</ele>
        <time>2021-06-23T09:46:50Z</time>
      </trkpt>
      <trkpt lat="48.00384" lon="6.97761">
        <ele>1197.11</ele>
        <time>2021-06-23T09:46:53Z</time>
      </trkpt>
      <trkpt lat="48.00338" lon="6.97708">
        <ele>1201.82</ele>
        <time>2021-06-23T09:46:56Z</time>
      </trkpt>
      <trkpt lat="48.00315" lon="6.97686">
        <ele>1201.98</ele>
        <time>2021-06-23T09:47:00Z</time>
      </trkpt>
      <trkpt lat="48.00291" lon="6.97668">
        <ele>1204.43</ele>
        <time>2021-06-23T09:47:03Z</time>
      </trkpt>
      <trkpt lat="48.00257" lon="6.97654">
        <ele>1209.96</ele>
        <time>2021-06-23T09:47:06Z</time>
      </trkpt>
      <trkpt lat="48.00158" lon="6.97633">
        <ele>1218.19</ele>
        <time>2021-06-23T09:47:10Z</time>
      </trkpt>
      <trkpt lat="48.00073" lon="6.97622">
        <ele>1225.41</ele>
        <time>2021-06-23T09:47:13Z</time>
      </trkpt>
      <trkpt lat="48.00049" lon="6.97613">
        <ele>1225.62</ele>
        <time>2021-06-23T09:47:16Z</time>
      </trkpt>
      <trkpt lat="47.99987" lon="6.97571">
        <ele>1223.8</ele>
        <time>2021-06-23T09:47:20Z</time>
      </trkpt>
      <trkpt lat="47.99964" lon="6.97564">
        <ele>1223.12</ele>
        <time>2021-06-23T09:47:23Z</time>
      </trkpt>
      <trkpt lat="47.99949" lon="6.97565">
        <ele>1224.2</ele>
        <time>2021-06-23T09:47:26Z</time>
      </trkpt>
      <trkpt lat="47.99893" lon="6.97576">
        <ele>1227.71</ele>
        <time>2021-06-23T09:47:30Z</time>
      </trkpt>
      <trkpt lat="47.99877" lon="6.97584">
        <ele>1228.31</ele>
        <time>2021-06-23T09:47:33Z</time>
      </trkpt>
      <trkpt lat="47.99868" lon="6.97591">
        <ele>1228.76</ele>
        <time>2021-06-23T09:47:36Z</time>
      </trkpt>
      <trkpt lat="47.99856" lon="6.97606">
        <ele>1229.27</ele>
        <time>2021-06-23T09:47:40Z</time>
      </trkpt>
      <trkpt lat="47.99832" lon="6.97661">
        <ele>1228.48</ele>
        <time>2021-06-23T09:47:43Z</time>
      </trkpt>
      <trkpt lat="47.99782" lon="6.97755">
        <ele>1233.04</ele>
        <time>2021-06-23T09:47:46Z</time>
      </trkpt>
      <trkpt lat="47.99776" lon="6.97764">
        <ele>1233.95</ele>
        <time>2021-06-23T09:47:50Z</time>
      </trkpt>
      <trkpt lat="47.9976" lon="6.97775">
        <ele>1234.74</ele>
        <time>2021-06-23T09:47:53Z</time>
      </trkpt>
      <trkpt lat="47.99722" lon="6.97789">
        <ele>1234.95</ele>
        <time>2021-06-23T09:47:56Z</time>
      </trkpt>
      <trkpt lat="47.99697" lon="6.97791">
        <ele>1231.77</ele>
        <time>2021-06-23T09:47:59Z</time>
      </trkpt>
      <trkpt lat="47.99656" lon="6.97789">
        <ele>1228.02</ele>
        <time>2021-06-23T09:48:03Z</time>
      </trkpt>
      <trkpt lat="47.99612" lon="6.97795">
        <ele>1233.91</ele>
        <time>2021-06-23T09:48:06Z</time>
      </trkpt>
      <trkpt lat="47.99474" lon="6.97787">
        <ele>1228.23</ele>
        <time>2021-06-23T09:48:09Z</time>
      </trkpt>
      <trkpt lat="47.99378" lon="6.97798">
        <ele>1223.09</ele>
        <time>2021-06-23T09:48:13Z</time>
      </trkpt>
      <trkpt lat="47.99249" lon="6.9784">
        <ele>1227.19</ele>
        <time>2021-06-23T09:48:16Z</time>
      </trkpt>
      <trkpt lat="47.991" lon="6.97917">
        <ele>1222.43</ele>
        <time>2021-06-23T09:48:19Z</time>
      </trkpt>
      <trkpt lat="47.99064" lon="6.9793">
        <ele>1220.78</ele>
        <time>2021-06-23T09:48:23Z</time>
      </trkpt>
      <trkpt lat="47.99031" lon="6.97933">
        <ele>1218.87</ele>
        <time>2021-06-23T09:48:26Z</time>
      </trkpt>
      <trkpt lat="47.98998" lon="6.97929">
        <ele>1217.16</ele>
        <time>2021-06-23T09:48:29Z</time>
      </trkpt>
      <trkpt lat="47.98891" lon="6.97903">
        <ele>1220.57</ele>
        <time>2021-06-23T09:48:33Z</time>
      </trkpt>
      <trkpt lat="47.98865" lon="6.9789">
        <ele>1218.94</ele>
        <time>2021-06-23T09:48:36Z</time>
      </trkpt>
      <trkpt lat="47.98837" lon="6.9788">
        <ele>1218.74</ele>
        <time>2021-06-23T09:48:39Z</time>
      </trkpt>
      <trkpt lat="47.98811" lon="6.9788">
        <ele>1218.84</ele>
        <time>2021-06-23T09:48:43Z</time>
      </trkpt>
      <trkpt lat="47.9874" lon="6.97895">
        <ele>1223.26</ele>
        <time>2021-06-23T09:48:46Z</time>
      </trkpt>
      <trkpt lat="47.98711" lon="6.97904">
        <ele>1222.44</ele>
        <time>2021-06-23T09:48:49Z</time>
      </trkpt>
      <trkpt lat="47.98711" lon="6.97904">
        <ele>1222.44</ele>
        <time>2021-06-23T09:48:49Z</time>
      </trkpt>
      <trkpt lat="47.98627" lon="6.97931">
        <ele>1221.62</ele>
        <time>2021-06-23T09:48:53Z</time>
      </trkpt>
      <trkpt lat="47.98537" lon="6.9795">
        <ele>1219.72</ele>
        <time>2021-06-23T09:48:57Z</time>
      </trkpt>
      <trkpt lat="47.98508" lon="6.97964">
        <ele>1218.09</ele>
        <time>2021-06-23T09:49:01Z</time>
      </trkpt>
      <trkpt lat="47.98485" lon="6.97983">
        <ele>1214.94</ele>
        <time>2021-06-23T09:49:04Z</time>
      </trkpt>
      <trkpt lat="47.98423" lon="6.98058">
        <ele>1209.94</ele>
        <time>2021-06-23T09:49:08Z</time>
      </trkpt>
      <trkpt lat="47.98375" lon="6.98113">
        <ele>1210.15</ele>
        <time>2021-06-23T09:49:12Z</time>
      </trkpt>
      <trkpt lat="47.98319" lon="6.98156">
        <ele>1209.23</ele>
        <time>2021-06-23T09:49:16Z</time>
      </trkpt>
      <trkpt lat="47.9827" lon="6.98205">
        <ele>1207.48</ele>
        <time>2021-06-23T09:49:20Z</time>
      </trkpt>
      <trkpt lat="47.98231" lon="6.9824">
        <ele>1203.31</ele>
        <time>2021-06-23T09:49:23Z</time>
      </trkpt>
      <trkpt lat="47.98209" lon="6.98249">
        <ele>1200.5</ele>
        <time>2021-06-23T09:49:27Z</time>
      </trkpt>
      <trkpt lat="47.98139" lon="6.98261">
        <ele>1196.56</ele>
        <time>2021-06-23T09:49:31Z</time>
      </trkpt>
      <trkpt lat="47.98091" lon="6.98279">
        <ele>1192.13</ele>
        <time>2021-06-23T09:49:35Z</time>
      </trkpt>
      <trkpt lat="47.98065" lon="6.98296">
        <ele>1190.94</ele>
        <time>2021-06-23T09:49:38Z</time>
      </trkpt>
      <trkpt lat="47.98027" lon="6.98334">
        <ele>1188.87</ele>
        <time>2021-06-23T09:49:42Z</time>
      </trkpt>
      <trkpt lat="47.97998" lon="6.98355">
        <ele>1185.43</ele>
        <time>2021-06-23T09:49:46Z</time>
      </trkpt>
      <trkpt lat="47.97946" lon="6.98384">
        <ele>1178.43</ele>
        <time>2021-06-23T09:49:50Z</time>
      </trkpt>
      <trkpt lat="47.97909" lon="6.98397">
        <ele>1178.94</ele>
        <time>2021-06-23T09:49:54Z</time>
      </trkpt>
      <trkpt lat="47.97878" lon="6.98403">
        <ele>1181.96</ele>
        <time>2021-06-23T09:49:57Z</time>
      </trkpt>
      <trkpt lat="47.97853" lon="6.98404">
        <ele>1183.31</ele>
        <time>2021-06-23T09:50:01Z</time>
      </trkpt>
      <trkpt lat="47.97789" lon="6.984">
        <ele>1181.06</ele>
        <time>2021-06-23T09:50:05Z</time>
      </trkpt>
      <trkpt lat="47.9776" lon="6.98403">
        <ele>1181.44</ele>
        <time>2021-06-23T09:50:09Z</time>
      </trkpt>
      <trkpt lat="47.97686" lon="6.9842">
        <ele>1184.56</ele>
        <time>2021-06-23T09:50:13Z</time>
      </trkpt>
      <trkpt lat="47.97629" lon="6.98441">
        <ele>1180.98</ele>
        <time>2021-06-23T09:50:16Z</time>
      </trkpt>
      <trkpt lat="47.97594" lon="6.98468">
        <ele>1180.05</ele>
        <time>2021-06-23T09:50:20Z</time>
      </trkpt>
      <trkpt lat="47.97564" lon="6.98503">
        <ele>1179.73</ele>
        <time>2021-06-23T09:50:24Z</time>
      </trkpt>
      <trkpt lat="47.97488" lon="6.98608">
        <ele>1181.24</ele>
        <time>2021-06-23T09:50:28Z</time>
      </trkpt>
      <trkpt lat="47.97378" lon="6.9874">
        <ele>1182.58</ele>
        <time>2021-06-23T09:50:31Z</time>
      </trkpt>
      <trkpt lat="47.9734" lon="6.98778">
        <ele>1182.06</ele>
        <time>2021-06-23T09:50:35Z</time>
      </trkpt>
      <trkpt lat="47.97311" lon="6.98793">
        <ele>1182.94</ele>
        <time>2021-06-23T09:50:39Z</time>
      </trkpt>
      <trkpt lat="47.97228" lon="6.98826">
        <ele>1175.5</ele>
        <time>2021-06-23T09:50:43Z</time>
      </trkpt>
      <trkpt lat="47.97149" lon="6.98862">
        <ele>1176.1</ele>
        <time>2021-06-23T09:50:47Z</time>
      </trkpt>
      <trkpt lat="47.97082" lon="6.98869">
        <ele>1177.35</ele>
        <time>2021-06-23T09:50:50Z</time>
      </trkpt>
      <trkpt lat="47.97055" lon="6.98878">
        <ele>1176.85</ele>
        <time>2021-06-23T09:50:54Z</time>
      </trkpt>
      <trkpt lat="47.9703" lon="6.9889">
        <ele>1174.86</ele>
        <time>2021-06-23T09:50:58Z</time>
      </trkpt>
      <trkpt lat="47.96985" lon="6.98917">
        <ele>1176.78</ele>
        <time>2021-06-23T09:51:02Z</time>
      </trkpt>
      <trkpt lat="47.96933" lon="6.98927">
        <ele>1174.26</ele>
        <time>2021-06-23T09:51:06Z</time>
      </trkpt>
      <trkpt lat="47.96902" lon="6.98924">
        <ele>1172.44</ele>
        <time>2021-06-23T09:51:09Z</time>
      </trkpt>
      <trkpt lat="47.96829" lon="6.98898">
        <ele>1165.96</ele>
        <time>2021-06-23T09:51:13Z</time>
      </trkpt>
      <trkpt lat="47.96779" lon="6.98901">
        <ele>1166.94</ele>
        <time>2021-06-23T09:51:17Z</time>
      </trkpt>
      <trkpt lat="47.9675" lon="6.98897">
        <ele>1167.07</ele>
        <time>2021-06-23T09:51:21Z</time>
      </trkpt>
      <trkpt lat="47.96702" lon="6.98895">
        <ele>1168.56</ele>
        <time>2021-06-23T09:51:25Z</time>
      </trkpt>
      <trkpt lat="47.96647" lon="6.98901">
        <ele>1167.69</ele>
        <time>2021-06-23T09:51:28Z</time>
      </trkpt>
      <trkpt lat="47.96647" lon="6.98901">
        <ele>1167.69</ele>
        <time>2021-06-23T09:51:28Z</time>
      </trkpt>
      <trkpt lat="47.96617" lon="6.98909">
        <ele>1164.87</ele>
        <time>2021-06-23T09:51:32Z</time>
      </trkpt>
      <trkpt lat="47.96591" lon="6.98928">
        <ele>1163.46</ele>
        <time>2021-06-23T09:51:36Z</time>
      </trkpt>
      <trkpt lat="47.96585" lon="6.98942">
        <ele>1163.99</ele>
        <time>2021-06-23T09:51:39Z</time>
      </trkpt>
      <trkpt lat="47.96583" lon="6.98962">
        <ele>1164.38</ele>
        <time>2021-06-23T09:51:43Z</time>
      </trkpt>
      <trkpt lat="47.96584" lon="6.98979">
        <ele>1164.72</ele>
        <time>2021-06-23T09:51:47Z</time>
      </trkpt>
      <trkpt lat="47.96589" lon="6.98996">
        <ele>1164.94</ele>
        <time>2021-06-23T09:51:50Z</time>
      </trkpt>
      <trkpt lat="47.96602" lon="6.99026">
        <ele>1165.46</ele>
        <time>2021-06-23T09:51:54Z</time>
      </trkpt>
      <trkpt lat="47.96632" lon="6.99086">
        <ele>1167.5</ele>
        <time>2021-06-23T09:51:58Z</time>
      </trkpt>
      <trkpt lat="47.96652" lon="6.99132">
        <ele>1166</ele>
        <time>2021-06-23T09:52:02Z</time>
      </trkpt>
      <trkpt lat="47.96668" lon="6.9918">
        <ele>1167.38</ele>
        <time>2021-06-23T09:52:05Z</time>
      </trkpt>
      <trkpt lat="47.96683" lon="6.99235">
        <ele>1172.54</ele>
        <time>2021-06-23T09:52:09Z</time>
      </trkpt>
      <trkpt lat="47.96692" lon="6.99283">
        <ele>1168.41</ele>
        <time>2021-06-23T09:52:13Z</time>
      </trkpt>
      <trkpt lat="47.96695" lon="6.99321">
        <ele>1168.17</ele>
        <time>2021-06-23T09:52:16Z</time>
      </trkpt>
      <trkpt lat="47.96694" lon="6.99349">
        <ele>1169.95</ele>
        <time>2021-06-23T09:52:20Z</time>
      </trkpt>
      <trkpt lat="47.96689" lon="6.99369">
        <ele>1170.81</ele>
        <time>2021-06-23T09:52:24Z</time>
      </trkpt>
      <trkpt lat="47.96675" lon="6.99393">
        <ele>1170.59</ele>
        <time>2021-06-23T09:52:27Z</time>
      </trkpt>
      <trkpt lat="47.96658" lon="6.9941">
        <ele>1169.22</ele>
        <time>2021-06-23T09:52:31Z</time>
      </trkpt>
      <trkpt lat="47.96591" lon="6.99464">
        <ele>1168.19</ele>
        <time>2021-06-23T09:52:35Z</time>
      </trkpt>
      <trkpt lat="47.96537" lon="6.99491">
        <ele>1167.49</ele>
        <time>2021-06-23T09:52:38Z</time>
      </trkpt>
      <trkpt lat="47.96366" lon="6.99569">
        <ele>1173.84</ele>
        <time>2021-06-23T09:52:42Z</time>
      </trkpt>
      <trkpt lat="47.9621" lon="6.99652">
        <ele>1175.83</ele>
        <time>2021-06-23T09:52:46Z</time>
      </trkpt>
      <trkpt lat="47.96186" lon="6.99669">
        <ele>1176.49</ele>
        <time>2021-06-23T09:52:50Z</time>
      </trkpt>
      <trkpt lat="47.96171" lon="6.99695">
        <ele>1175.2</ele>
        <time>2021-06-23T09:52:53Z</time>
      </trkpt>
      <trkpt lat="47.96155" lon="6.99735">
        <ele>1176.6</ele>
        <time>2021-06-23T09:52:57Z</time>
      </trkpt>
      <trkpt lat="47.96127" lon="6.99857">
        <ele>1183.17</ele>
        <time>2021-06-23T09:53:01Z</time>
      </trkpt>
      <trkpt lat="47.96099" lon="7.00005">
        <ele>1182.58</ele>
        <time>2021-06-23T09:53:04Z</time>
      </trkpt>
      <trkpt lat="47.96069" lon="7.00106">
        <ele>1183.23</ele>
        <time>2021-06-23T09:53:08Z</time>
      </trkpt>
      <trkpt lat="47.96009" lon="7.00202">
        <ele>1183.61</ele>
        <time>2021-06-23T09:53:12Z</time>
      </trkpt>
      <trkpt lat="47.95938" lon="7.00285">
        <ele>1180.96</ele>
        <time>2021-06-23T09:53:15Z</time>
      </trkpt>
      <trkpt lat="47.95885" lon="7.00328">
        <ele>1182.1</ele>
        <time>2021-06-23T09:53:19Z</time>
      </trkpt>
      <trkpt lat="47.95813" lon="7.00367">
        <ele>1178.81</ele>
        <time>2021-06-23T09:53:23Z</time>
      </trkpt>
      <trkpt lat="47.9576" lon="7.00411">
        <ele>1182.8</ele>
        <time>2021-06-23T09:53:26Z</time>
      </trkpt>
      <trkpt lat="47.95709" lon="7.00464">
        <ele>1179.78</ele>
        <time>2021-06-23T09:53:30Z</time>
      </trkpt>
      <trkpt lat="47.95665" lon="7.00506">
        <ele>1179.02</ele>
        <time>2021-06-23T09:53:34Z</time>
      </trkpt>
      <trkpt lat="47.95623" lon="7.00523">
        <ele>1179.34</ele>
        <time>2021-06-23T09:53:38Z</time>
      </trkpt>
      <trkpt lat="47.95545" lon="7.00541">
        <ele>1176.86</ele>
        <time>2021-06-23T09:53:41Z</time>
      </trkpt>
      <trkpt lat="47.95524" lon="7.00553">
        <ele>1178.13</ele>
        <time>2021-06-23T09:53:45Z</time>
      </trkpt>
      <trkpt lat="47.95508" lon="7.00571">
        <ele>1174.37</ele>
        <time>2021-06-23T09:53:49Z</time>
      </trkpt>
      <trkpt lat="47.95496" lon="7.00588">
        <ele>1171.96</ele>
        <time>2021-06-23T09:53:52Z</time>
      </trkpt>
      <trkpt lat="47.95488" lon="7.00611">
        <ele>1170.7</ele>
        <time>2021-06-23T09:53:56Z</time>
      </trkpt>
      <trkpt lat="47.95479" lon="7.00657">
        <ele>1171.43</ele>
        <time>2021-06-23T09:54:00Z</time>
      </trkpt>
      <trkpt lat="47.95472" lon="7.00722">
        <ele>1172.82</ele>
        <time>2021-06-23T09:54:03Z</time>
      </trkpt>
      <trkpt lat="47.95452" lon="7.00855">
        <ele>1171.63</ele>
        <time>2021-06-23T09:54:07Z</time>
      </trkpt>
      <trkpt lat="47.95443" lon="7.00952">
        <ele>1172.64</ele>
        <time>2021-06-23T09:54:11Z</time>
      </trkpt>
      <trkpt lat="47.95437" lon="7.01047">
        <ele>1171.78</ele>
        <time>2021-06-23T09:54:14Z</time>
      </trkpt>
      <trkpt lat="47.95426" lon="7.01137">
        <ele>1174.61</ele>
        <time>2021-06-23T09:54:18Z</time>
      </trkpt>
      <trkpt lat="47.95361" lon="7.01383">
        <ele>1168.81</ele>
        <time>2021-06-23T09:54:22Z</time>
      </trkpt>
      <trkpt lat="47.95355" lon="7.01421">
        <ele>1170.74</ele>
        <time>2021-06-23T09:54:26Z</time>
      </trkpt>
      <trkpt lat="47.9535" lon="7.01459">
        <ele>1173.77</ele>
        <time>2021-06-23T09:54:29Z</time>
      </trkpt>
      <trkpt lat="47.95344" lon="7.01617">
        <ele>1175.99</ele>
        <time>2021-06-23T09:54:33Z</time>
      </trkpt>
      <trkpt lat="47.9534" lon="7.01659">
        <ele>1178.67</ele>
        <time>2021-06-23T09:54:37Z</time>
      </trkpt>
      <trkpt lat="47.95334" lon="7.01684">
        <ele>1180.81</ele>
        <time>2021-06-23T09:54:40Z</time>
      </trkpt>
      <trkpt lat="47.95266" lon="7.01845">
        <ele>1175.63</ele>
        <time>2021-06-23T09:54:44Z</time>
      </trkpt>
      <trkpt lat="47.95258" lon="7.01859">
        <ele>1175.94</ele>
        <time>2021-06-23T09:54:48Z</time>
      </trkpt>
      <trkpt lat="47.95241" lon="7.01882">
        <ele>1176.64</ele>
        <time>2021-06-23T09:54:51Z</time>
      </trkpt>
      <trkpt lat="47.95176" lon="7.01935">
        <ele>1182.76</ele>
        <time>2021-06-23T09:54:55Z</time>
      </trkpt>
      <trkpt lat="47.95176" lon="7.01935">
        <ele>1182.76</ele>
        <time>2021-06-23T09:54:55Z</time>
      </trkpt>
      <trkpt lat="47.95157" lon="7.0195">
        <ele>1183.82</ele>
        <time>2021-06-23T09:54:57Z</time>
      </trkpt>
      <trkpt lat="47.95135" lon="7.01962">
        <ele>1184.24</ele>
        <time>2021-06-23T09:55:00Z</time>
      </trkpt>
      <trkpt lat="47.95121" lon="7.01965">
        <ele>1183.66</ele>
        <time>2021-06-23T09:55:02Z</time>
      </trkpt>
      <trkpt lat="47.95047" lon="7.01951">
        <ele>1188.62</ele>
        <time>2021-06-23T09:55:05Z</time>
      </trkpt>
      <trkpt lat="47.95015" lon="7.0195">
        <ele>1189.15</ele>
        <time>2021-06-23T09:55:07Z</time>
      </trkpt>
      <trkpt lat="47.94999" lon="7.01953">
        <ele>1191.29</ele>
        <time>2021-06-23T09:55:10Z</time>
      </trkpt>
      <trkpt lat="47.94927" lon="7.01984">
        <ele>1198.51</ele>
        <time>2021-06-23T09:55:12Z</time>
      </trkpt>
      <trkpt lat="47.94863" lon="7.02">
        <ele>1200.17</ele>
        <time>2021-06-23T09:55:15Z</time>
      </trkpt>
      <trkpt lat="47.94833" lon="7.02014">
        <ele>1202.57</ele>
        <time>2021-06-23T09:55:17Z</time>
      </trkpt>
      <trkpt lat="47.94773" lon="7.0206">
        <ele>1208.94</ele>
        <time>2021-06-23T09:55:19Z</time>
      </trkpt>
      <trkpt lat="47.9475" lon="7.02074">
        <ele>1211.7</ele>
        <time>2021-06-23T09:55:22Z</time>
      </trkpt>
      <trkpt lat="47.94692" lon="7.021">
        <ele>1214.77</ele>
        <time>2021-06-23T09:55:24Z</time>
      </trkpt>
      <trkpt lat="47.94657" lon="7.0211">
        <ele>1216.44</ele>
        <time>2021-06-23T09:55:27Z</time>
      </trkpt>
      <trkpt lat="47.94639" lon="7.0211">
        <ele>1217.89</ele>
        <time>2021-06-23T09:55:29Z</time>
      </trkpt>
      <trkpt lat="47.94631" lon="7.02107">
        <ele>1218.79</ele>
        <time>2021-06-23T09:55:32Z</time>
      </trkpt>
      <trkpt lat="47.94624" lon="7.02101">
        <ele>1218.98</ele>
        <time>2021-06-23T09:55:34Z</time>
      </trkpt>
      <trkpt lat="47.94571" lon="7.0203">
        <ele>1221.03</ele>
        <time>2021-06-23T09:55:36Z</time>
      </trkpt>
      <trkpt lat="47.94544" lon="7.01998">
        <ele>1222.68</ele>
        <time>2021-06-23T09:55:39Z</time>
      </trkpt>
      <trkpt lat="47.94479" lon="7.01929">
        <ele>1225.61</ele>
        <time>2021-06-23T09:55:41Z</time>
      </trkpt>
      <trkpt lat="47.94464" lon="7.01919">
        <ele>1225.51</ele>
        <time>2021-06-23T09:55:44Z</time>
      </trkpt>
      <trkpt lat="47.94457" lon="7.01916">
        <ele>1225.5</ele>
        <time>2021-06-23T09:55:46Z</time>
      </trkpt>
      <trkpt lat="47.94431" lon="7.01917">
        <ele>1226.06</ele>
        <time>2021-06-23T09:55:49Z</time>
      </trkpt>
      <trkpt lat="47.94415" lon="7.01921">
        <ele>1226.68</ele>
        <time>2021-06-23T09:55:51Z</time>
      </trkpt>
      <trkpt lat="47.94396" lon="7.01931">
        <ele>1228.39</ele>
        <time>2021-06-23T09:55:53Z</time>
      </trkpt>
      <trkpt lat="47.94338" lon="7.01973">
        <ele>1228.8</ele>
        <time>2021-06-23T09:55:56Z</time>
      </trkpt>
      <trkpt lat="47.94316" lon="7.01997">
        <ele>1227.27</ele>
        <time>2021-06-23T09:55:58Z</time>
      </trkpt>
      <trkpt lat="47.9427" lon="7.02058">
        <ele>1223.57</ele>
        <time>2021-06-23T09:56:01Z</time>
      </trkpt>
      <trkpt lat="47.94257" lon="7.02089">
        <ele>1222.67</ele>
        <time>2021-06-23T09:56:03Z</time>
      </trkpt>
      <trkpt lat="47.94218" lon="7.02196">
        <ele>1220.2</ele>
        <time>2021-06-23T09:56:06Z</time>
      </trkpt>
      <trkpt lat="47.94195" lon="7.02269">
        <ele>1217.06</ele>
        <time>2021-06-23T09:56:08Z</time>
      </trkpt>
      <trkpt lat="47.94189" lon="7.02282">
        <ele>1216.25</ele>
        <time>2021-06-23T09:56:10Z</time>
      </trkpt>
      <trkpt lat="47.94175" lon="7.023">
        <ele>1214.65</ele>
        <time>2021-06-23T09:56:13Z</time>
      </trkpt>
      <trkpt lat="47.94167" lon="7.02305">
        <ele>1214.03</ele>
        <time>2021-06-23T09:56:15Z</time>
      </trkpt>
      <trkpt lat="47.94158" lon="7.02309">
        <ele>1213.4</ele>
        <time>2021-06-23T09:56:18Z</time>
      </trkpt>
      <trkpt lat="47.94143" lon="7.02309">
        <ele>1212.39</ele>
        <time>2021-06-23T09:56:20Z</time>
      </trkpt>
      <trkpt lat="47.94132" lon="7.02305">
        <ele>1212.7</ele>
        <time>2021-06-23T09:56:23Z</time>
      </trkpt>
      <trkpt lat="47.94132" lon="7.02305">
        <ele>1212.7</ele>
        <time>2021-06-23T09:56:23Z</time>
      </trkpt>
      <trkpt lat="47.94119" lon="7.02291">
        <ele>1213.55</ele>
        <time>2021-06-23T09:56:25Z</time>
      </trkpt>
      <trkpt lat="47.94114" lon="7.02283">
        <ele>1213.32</ele>
        <time>2021-06-23T09:56:28Z</time>
      </trkpt>
      <trkpt lat="47.94082" lon="7.02221">
        <ele>1208.97</ele>
        <time>2021-06-23T09:56:31Z</time>
      </trkpt>
      <trkpt lat="47.9407" lon="7.02204">
        <ele>1208.65</ele>
        <time>2021-06-23T09:56:34Z</time>
      </trkpt>
      <trkpt lat="47.94057" lon="7.02188">
        <ele>1210.09</ele>
        <time>2021-06-23T09:56:37Z</time>
      </trkpt>
      <trkpt lat="47.93985" lon="7.02121">
        <ele>1209.75</ele>
        <time>2021-06-23T09:56:40Z</time>
      </trkpt>
      <trkpt lat="47.93965" lon="7.02112">
        <ele>1209.61</ele>
        <time>2021-06-23T09:56:43Z</time>
      </trkpt>
      <trkpt lat="47.93946" lon="7.02111">
        <ele>1208.08</ele>
        <time>2021-06-23T09:56:46Z</time>
      </trkpt>
      <trkpt lat="47.9393" lon="7.02113">
        <ele>1206.28</ele>
        <time>2021-06-23T09:56:48Z</time>
      </trkpt>
      <trkpt lat="47.93911" lon="7.02123">
        <ele>1205.24</ele>
        <time>2021-06-23T09:56:51Z</time>
      </trkpt>
      <trkpt lat="47.93825" lon="7.02202">
        <ele>1205.89</ele>
        <time>2021-06-23T09:56:54Z</time>
      </trkpt>
      <trkpt lat="47.93811" lon="7.02211">
        <ele>1205.09</ele>
        <time>2021-06-23T09:56:57Z</time>
      </trkpt>
      <trkpt lat="47.93803" lon="7.02212">
        <ele>1204.52</ele>
        <time>2021-06-23T09:57:00Z</time>
      </trkpt>
      <trkpt lat="47.93794" lon="7.02211">
        <ele>1204.18</ele>
        <time>2021-06-23T09:57:03Z</time>
      </trkpt>
      <trkpt lat="47.93786" lon="7.02206">
        <ele>1203.71</ele>
        <time>2021-06-23T09:57:06Z</time>
      </trkpt>
      <trkpt lat="47.93777" lon="7.02196">
        <ele>1203.12</ele>
        <time>2021-06-23T09:57:09Z</time>
      </trkpt>
      <trkpt lat="47.93736" lon="7.02131">
        <ele>1206.14</ele>
        <time>2021-06-23T09:57:11Z</time>
      </trkpt>
      <trkpt lat="47.93711" lon="7.02102">
        <ele>1208.2</ele>
        <time>2021-06-23T09:57:14Z</time>
      </trkpt>
      <trkpt lat="47.93672" lon="7.02073">
        <ele>1206.71</ele>
        <time>2021-06-23T09:57:17Z</time>
      </trkpt>
      <trkpt lat="47.9342" lon="7.01911">
        <ele>1207</ele>
        <time>2021-06-23T09:57:20Z</time>
      </trkpt>
      <trkpt lat="47.93394" lon="7.01896">
        <ele>1207.06</ele>
        <time>2021-06-23T09:57:23Z</time>
      </trkpt>
      <trkpt lat="47.93376" lon="7.01891">
        <ele>1206.67</ele>
        <time>2021-06-23T09:57:26Z</time>
      </trkpt>
      <trkpt lat="47.9334" lon="7.01885">
        <ele>1204.99</ele>
        <time>2021-06-23T09:57:29Z</time>
      </trkpt>
      <trkpt lat="47.93298" lon="7.01889">
        <ele>1205.72</ele>
        <time>2021-06-23T09:57:32Z</time>
      </trkpt>
      <trkpt lat="47.93275" lon="7.01898">
        <ele>1205.31</ele>
        <time>2021-06-23T09:57:34Z</time>
      </trkpt>
      <trkpt lat="47.93262" lon="7.01906">
        <ele>1205.26</ele>
        <time>2021-06-23T09:57:37Z</time>
      </trkpt>
      <trkpt lat="47.93155" lon="7.01988">
        <ele>1208.32</ele>
        <time>2021-06-23T09:57:40Z</time>
      </trkpt>
      <trkpt lat="47.93133" lon="7.02002">
        <ele>1209.07</ele>
        <time>2021-06-23T09:57:43Z</time>
      </trkpt>
      <trkpt lat="47.9312" lon="7.02009">
        <ele>1209.1</ele>
        <time>2021-06-23T09:57:46Z</time>
      </trkpt>
      <trkpt lat="47.93102" lon="7.02014">
        <ele>1208.83</ele>
        <time>2021-06-23T09:57:49Z</time>
      </trkpt>
      <trkpt lat="47.93085" lon="7.02017">
        <ele>1208.42</ele>
        <time>2021-06-23T09:57:52Z</time>
      </trkpt>
      <trkpt lat="47.92976" lon="7.02016">
        <ele>1210.85</ele>
        <time>2021-06-23T09:57:55Z</time>
      </trkpt>
      <trkpt lat="47.92956" lon="7.02011">
        <ele>1212.91</ele>
        <time>2021-06-23T09:57:57Z</time>
      </trkpt>
      <trkpt lat="47.92852" lon="7.01969">
        <ele>1215.02</ele>
        <time>2021-06-23T09:58:00Z</time>
      </trkpt>
      <trkpt lat="47.9284" lon="7.01967">
        <ele>1214.41</ele>
        <time>2021-06-23T09:58:03Z</time>
      </trkpt>
      <trkpt lat="47.92817" lon="7.01968">
        <ele>1216.35</ele>
        <time>2021-06-23T09:58:06Z</time>
      </trkpt>
      <trkpt lat="47.92817" lon="7.01968">
        <ele>1216.35</ele>
        <time>2021-06-23T09:58:06Z</time>
      </trkpt>
      <trkpt lat="47.92811" lon="7.01971">
        <ele>1216.49</ele>
        <time>2021-06-23T09:58:08Z</time>
      </trkpt>
      <trkpt lat="47.92799" lon="7.01982">
        <ele>1218.77</ele>
        <time>2021-06-23T09:58:11Z</time>
      </trkpt>
      <trkpt lat="47.92794" lon="7.0199">
        <ele>1220.02</ele>
        <time>2021-06-23T09:58:13Z</time>
      </trkpt>
      <trkpt lat="47.9279" lon="7.02007">
        <ele>1220.03</ele>
        <time>2021-06-23T09:58:15Z</time>
      </trkpt>
      <trkpt lat="47.92791" lon="7.02017">
        <ele>1219.42</ele>
        <time>2021-06-23T09:58:17Z</time>
      </trkpt>
      <trkpt lat="47.92794" lon="7.02032">
        <ele>1217.71</ele>
        <time>2021-06-23T09:58:19Z</time>
      </trkpt>
      <trkpt lat="47.92838" lon="7.02179">
        <ele>1209.02</ele>
        <time>2021-06-23T09:58:22Z</time>
      </trkpt>
      <trkpt lat="47.92844" lon="7.02214">
        <ele>1208.49</ele>
        <time>2021-06-23T09:58:24Z</time>
      </trkpt>
      <trkpt lat="47.92846" lon="7.02251">
        <ele>1210.55</ele>
        <time>2021-06-23T09:58:26Z</time>
      </trkpt>
      <trkpt lat="47.92833" lon="7.02414">
        <ele>1213.33</ele>
        <time>2021-06-23T09:58:28Z</time>
      </trkpt>
      <trkpt lat="47.92822" lon="7.02471">
        <ele>1209.72</ele>
        <time>2021-06-23T09:58:30Z</time>
      </trkpt>
      <trkpt lat="47.92809" lon="7.02515">
        <ele>1211.8</ele>
        <time>2021-06-23T09:58:33Z</time>
      </trkpt>
      <trkpt lat="47.92798" lon="7.02543">
        <ele>1213.28</ele>
        <time>2021-06-23T09:58:35Z</time>
      </trkpt>
      <trkpt lat="47.92757" lon="7.02616">
        <ele>1214.08</ele>
        <time>2021-06-23T09:58:37Z</time>
      </trkpt>
      <trkpt lat="47.92749" lon="7.02635">
        <ele>1212.93</ele>
        <time>2021-06-23T09:58:39Z</time>
      </trkpt>
      <trkpt lat="47.92746" lon="7.02662">
        <ele>1209.73</ele>
        <time>2021-06-23T09:58:41Z</time>
      </trkpt>
      <trkpt lat="47.92744" lon="7.02764">
        <ele>1206.01</ele>
        <time>2021-06-23T09:58:44Z</time>
      </trkpt>
      <trkpt lat="47.92741" lon="7.02845">
        <ele>1207.23</ele>
        <time>2021-06-23T09:58:46Z</time>
      </trkpt>
      <trkpt lat="47.92734" lon="7.02872">
        <ele>1205.74</ele>
        <time>2021-06-23T09:58:48Z</time>
      </trkpt>
      <trkpt lat="47.92727" lon="7.02888">
        <ele>1204.36</ele>
        <time>2021-06-23T09:58:50Z</time>
      </trkpt>
      <trkpt lat="47.92719" lon="7.02904">
        <ele>1202.72</ele>
        <time>2021-06-23T09:58:52Z</time>
      </trkpt>
      <trkpt lat="47.92707" lon="7.02916">
        <ele>1200.47</ele>
        <time>2021-06-23T09:58:55Z</time>
      </trkpt>
      <trkpt lat="47.92695" lon="7.02926">
        <ele>1198.65</ele>
        <time>2021-06-23T09:58:57Z</time>
      </trkpt>
      <trkpt lat="47.9267" lon="7.02937">
        <ele>1196.15</ele>
        <time>2021-06-23T09:58:59Z</time>
      </trkpt>
      <trkpt lat="47.9245" lon="7.02998">
        <ele>1190.94</ele>
        <time>2021-06-23T09:59:01Z</time>
      </trkpt>
      <trkpt lat="47.92427" lon="7.03014">
        <ele>1189.68</ele>
        <time>2021-06-23T09:59:03Z</time>
      </trkpt>
      <trkpt lat="47.92384" lon="7.03057">
        <ele>1185.9</ele>
        <time>2021-06-23T09:59:06Z</time>
      </trkpt>
      <trkpt lat="47.92345" lon="7.03104">
        <ele>1183.99</ele>
        <time>2021-06-23T09:59:08Z</time>
      </trkpt>
      <trkpt lat="47.92331" lon="7.0313">
        <ele>1183.49</ele>
        <time>2021-06-23T09:59:10Z</time>
      </trkpt>
      <trkpt lat="47.92316" lon="7.03173">
        <ele>1182.14</ele>
        <time>2021-06-23T09:59:12Z</time>
      </trkpt>
      <trkpt lat="47.92307" lon="7.03208">
        <ele>1182.34</ele>
        <time>2021-06-23T09:59:14Z</time>
      </trkpt>
      <trkpt lat="47.92269" lon="7.03401">
        <ele>1171.81</ele>
        <time>2021-06-23T09:59:17Z</time>
      </trkpt>
      <trkpt lat="47.92269" lon="7.03425">
        <ele>1170.74</ele>
        <time>2021-06-23T09:59:19Z</time>
      </trkpt>
      <trkpt lat="47.92276" lon="7.03526">
        <ele>1166.64</ele>
        <time>2021-06-23T09:59:21Z</time>
      </trkpt>
      <trkpt lat="47.92281" lon="7.03572">
        <ele>1166.76</ele>
        <time>2021-06-23T09:59:23Z</time>
      </trkpt>
      <trkpt lat="47.92283" lon="7.03606">
        <ele>1168.17</ele>
        <time>2021-06-23T09:59:25Z</time>
      </trkpt>
      <trkpt lat="47.92283" lon="7.03628">
        <ele>1170.52</ele>
        <time>2021-06-23T09:59:28Z</time>
      </trkpt>
      <trkpt lat="47.9228" lon="7.03644">
        <ele>1172.4</ele>
        <time>2021-06-23T09:59:30Z</time>
      </trkpt>
      <trkpt lat="47.92275" lon="7.03663">
        <ele>1172.79</ele>
        <time>2021-06-23T09:59:32Z</time>
      </trkpt>
      <trkpt lat="47.92219" lon="7.03756">
        <ele>1166.81</ele>
        <time>2021-06-23T09:59:34Z</time>
      </trkpt>
      <trkpt lat="47.92162" lon="7.03838">
        <ele>1168.41</ele>
        <time>2021-06-23T09:59:36Z</time>
      </trkpt>
      <trkpt lat="47.92162" lon="7.03838">
        <ele>1168.41</ele>
        <time>2021-06-23T09:59:36Z</time>
      </trkpt>
      <trkpt lat="47.92132" lon="7.03883">
        <ele>1170.95</ele>
        <time>2021-06-23T09:59:38Z</time>
      </trkpt>
      <trkpt lat="47.92114" lon="7.03923">
        <ele>1174.33</ele>
        <time>2021-06-23T09:59:40Z</time>
      </trkpt>
      <trkpt lat="47.92105" lon="7.03937">
        <ele>1175.82</ele>
        <time>2021-06-23T09:59:41Z</time>
      </trkpt>
      <trkpt lat="47.92085" lon="7.0395">
        <ele>1175.68</ele>
        <time>2021-06-23T09:59:43Z</time>
      </trkpt>
      <trkpt lat="47.92014" lon="7.03984">
        <ele>1176.51</ele>
        <time>2021-06-23T09:59:44Z</time>
      </trkpt>
      <trkpt lat="47.91954" lon="7.04027">
        <ele>1178.62</ele>
        <time>2021-06-23T09:59:46Z</time>
      </trkpt>
      <trkpt lat="47.91908" lon="7.04063">
        <ele>1179.13</ele>
        <time>2021-06-23T09:59:47Z</time>
      </trkpt>
      <trkpt lat="47.91865" lon="7.04087">
        <ele>1178.34</ele>
        <time>2021-06-23T09:59:49Z</time>
      </trkpt>
      <trkpt lat="47.91824" lon="7.04095">
        <ele>1172.58</ele>
        <time>2021-06-23T09:59:50Z</time>
      </trkpt>
      <trkpt lat="47.91807" lon="7.041">
        <ele>1172.43</ele>
        <time>2021-06-23T09:59:52Z</time>
      </trkpt>
      <trkpt lat="47.91798" lon="7.04106">
        <ele>1172.63</ele>
        <time>2021-06-23T09:59:53Z</time>
      </trkpt>
      <trkpt lat="47.91788" lon="7.04116">
        <ele>1173.55</ele>
        <time>2021-06-23T09:59:55Z</time>
      </trkpt>
      <trkpt lat="47.91741" lon="7.04181">
        <ele>1176</ele>
        <time>2021-06-23T09:59:57Z</time>
      </trkpt>
      <trkpt lat="47.9169" lon="7.04245">
        <ele>1175.06</ele>
        <time>2021-06-23T09:59:58Z</time>
      </trkpt>
      <trkpt lat="47.91647" lon="7.04293">
        <ele>1176.46</ele>
        <time>2021-06-23T10:00:00Z</time>
      </trkpt>
      <trkpt lat="47.91616" lon="7.0432">
        <ele>1177.11</ele>
        <time>2021-06-23T10:00:01Z</time>
      </trkpt>
      <trkpt lat="47.91583" lon="7.04343">
        <ele>1176.04</ele>
        <time>2021-06-23T10:00:03Z</time>
      </trkpt>
      <trkpt lat="47.91558" lon="7.04357">
        <ele>1175.36</ele>
        <time>2021-06-23T10:00:04Z</time>
      </trkpt>
      <trkpt lat="47.91536" lon="7.04365">
        <ele>1176.81</ele>
        <time>2021-06-23T10:00:06Z</time>
      </trkpt>
      <trkpt lat="47.91498" lon="7.0437">
        <ele>1176.02</ele>
        <time>2021-06-23T10:00:07Z</time>
      </trkpt>
      <trkpt lat="47.91454" lon="7.04382">
        <ele>1176.13</ele>
        <time>2021-06-23T10:00:09Z</time>
      </trkpt>
      <trkpt lat="47.91416" lon="7.04397">
        <ele>1175.15</ele>
        <time>2021-06-23T10:00:11Z</time>
      </trkpt>
      <trkpt lat="47.91397" lon="7.04409">
        <ele>1173.93</ele>
        <time>2021-06-23T10:00:12Z</time>
      </trkpt>
      <trkpt lat="47.9138" lon="7.0443">
        <ele>1172.77</ele>
        <time>2021-06-23T10:00:14Z</time>
      </trkpt>
      <trkpt lat="47.91368" lon="7.04454">
        <ele>1169.57</ele>
        <time>2021-06-23T10:00:15Z</time>
      </trkpt>
      <trkpt lat="47.91333" lon="7.04537">
        <ele>1169.24</ele>
        <time>2021-06-23T10:00:17Z</time>
      </trkpt>
      <trkpt lat="47.91317" lon="7.04571">
        <ele>1172.01</ele>
        <time>2021-06-23T10:00:18Z</time>
      </trkpt>
      <trkpt lat="47.91263" lon="7.04662">
        <ele>1167.16</ele>
        <time>2021-06-23T10:00:20Z</time>
      </trkpt>
      <trkpt lat="47.91255" lon="7.04678">
        <ele>1165.25</ele>
        <time>2021-06-23T10:00:21Z</time>
      </trkpt>
      <trkpt lat="47.91246" lon="7.0471">
        <ele>1165.89</ele>
        <time>2021-06-23T10:00:23Z</time>
      </trkpt>
      <trkpt lat="47.91244" lon="7.04726">
        <ele>1167.79</ele>
        <time>2021-06-23T10:00:24Z</time>
      </trkpt>
      <trkpt lat="47.91243" lon="7.04789">
        <ele>1171.63</ele>
        <time>2021-06-23T10:00:26Z</time>
      </trkpt>
      <trkpt lat="47.91242" lon="7.04801">
        <ele>1171.02</ele>
        <time>2021-06-23T10:00:28Z</time>
      </trkpt>
      <trkpt lat="47.91238" lon="7.04815">
        <ele>1170.48</ele>
        <time>2021-06-23T10:00:29Z</time>
      </trkpt>
      <trkpt lat="47.91227" lon="7.04834">
        <ele>1169.24</ele>
        <time>2021-06-23T10:00:31Z</time>
      </trkpt>
      <trkpt lat="47.91165" lon="7.04924">
        <ele>1167.9</ele>
        <time>2021-06-23T10:00:32Z</time>
      </trkpt>
      <trkpt lat="47.91143" lon="7.04948">
        <ele>1169.77</ele>
        <time>2021-06-23T10:00:34Z</time>
      </trkpt>
      <trkpt lat="47.91131" lon="7.04956">
        <ele>1170.37</ele>
        <time>2021-06-23T10:00:35Z</time>
      </trkpt>
      <trkpt lat="47.91119" lon="7.04961">
        <ele>1170.79</ele>
        <time>2021-06-23T10:00:37Z</time>
      </trkpt>
      <trkpt lat="47.91107" lon="7.04962">
        <ele>1171.43</ele>
        <time>2021-06-23T10:00:38Z</time>
      </trkpt>
      <trkpt lat="47.91049" lon="7.04951">
        <ele>1175.91</ele>
        <time>2021-06-23T10:00:40Z</time>
      </trkpt>
      <trkpt lat="47.91032" lon="7.04952">
        <ele>1177.49</ele>
        <time>2021-06-23T10:00:42Z</time>
      </trkpt>
      <trkpt lat="47.91021" lon="7.04955">
        <ele>1178.44</ele>
        <time>2021-06-23T10:00:43Z</time>
      </trkpt>
      <trkpt lat="47.91003" lon="7.04969">
        <ele>1180.53</ele>
        <time>2021-06-23T10:00:45Z</time>
      </trkpt>
      <trkpt lat="47.91003" lon="7.04969">
        <ele>1180.53</ele>
        <time>2021-06-23T10:00:45Z</time>
      </trkpt>
      <trkpt lat="47.90996" lon="7.04979">
        <ele>1180.78</ele>
        <time>2021-06-23T10:00:46Z</time>
      </trkpt>
      <trkpt lat="47.9099" lon="7.04997">
        <ele>1180.71</ele>
        <time>2021-06-23T10:00:48Z</time>
      </trkpt>
      <trkpt lat="47.90986" lon="7.05017">
        <ele>1180.31</ele>
        <time>2021-06-23T10:00:49Z</time>
      </trkpt>
      <trkpt lat="47.90988" lon="7.05054">
        <ele>1179.9</ele>
        <time>2021-06-23T10:00:51Z</time>
      </trkpt>
      <trkpt lat="47.90991" lon="7.0508">
        <ele>1179.69</ele>
        <time>2021-06-23T10:00:52Z</time>
      </trkpt>
      <trkpt lat="47.90997" lon="7.05103">
        <ele>1177.73</ele>
        <time>2021-06-23T10:00:54Z</time>
      </trkpt>
      <trkpt lat="47.91036" lon="7.05188">
        <ele>1179.38</ele>
        <time>2021-06-23T10:00:55Z</time>
      </trkpt>
      <trkpt lat="47.9104" lon="7.05201">
        <ele>1179.44</ele>
        <time>2021-06-23T10:00:57Z</time>
      </trkpt>
      <trkpt lat="47.91042" lon="7.05215">
        <ele>1179.5</ele>
        <time>2021-06-23T10:00:58Z</time>
      </trkpt>
      <trkpt lat="47.91042" lon="7.0523">
        <ele>1179.49</ele>
        <time>2021-06-23T10:01:00Z</time>
      </trkpt>
      <trkpt lat="47.91039" lon="7.05246">
        <ele>1179.39</ele>
        <time>2021-06-23T10:01:02Z</time>
      </trkpt>
      <trkpt lat="47.91016" lon="7.05323">
        <ele>1181.17</ele>
        <time>2021-06-23T10:01:03Z</time>
      </trkpt>
      <trkpt lat="47.91006" lon="7.05375">
        <ele>1184.12</ele>
        <time>2021-06-23T10:01:05Z</time>
      </trkpt>
      <trkpt lat="47.91001" lon="7.05432">
        <ele>1185.77</ele>
        <time>2021-06-23T10:01:06Z</time>
      </trkpt>
      <trkpt lat="47.90997" lon="7.05494">
        <ele>1188.46</ele>
        <time>2021-06-23T10:01:08Z</time>
      </trkpt>
      <trkpt lat="47.91" lon="7.05524">
        <ele>1188.93</ele>
        <time>2021-06-23T10:01:09Z</time>
      </trkpt>
      <trkpt lat="47.91009" lon="7.05562">
        <ele>1186.85</ele>
        <time>2021-06-23T10:01:11Z</time>
      </trkpt>
      <trkpt lat="47.91021" lon="7.05595">
        <ele>1187.6</ele>
        <time>2021-06-23T10:01:12Z</time>
      </trkpt>
      <trkpt lat="47.91041" lon="7.05641">
        <ele>1198.04</ele>
        <time>2021-06-23T10:01:14Z</time>
      </trkpt>
      <trkpt lat="47.91047" lon="7.05664">
        <ele>1197.23</ele>
        <time>2021-06-23T10:01:15Z</time>
      </trkpt>
      <trkpt lat="47.91054" lon="7.0573">
        <ele>1195.4</ele>
        <time>2021-06-23T10:01:17Z</time>
      </trkpt>
      <trkpt lat="47.91055" lon="7.05782">
        <ele>1188.21</ele>
        <time>2021-06-23T10:01:18Z</time>
      </trkpt>
      <trkpt lat="47.91056" lon="7.05802">
        <ele>1187.48</ele>
        <time>2021-06-23T10:01:20Z</time>
      </trkpt>
      <trkpt lat="47.91068" lon="7.05884">
        <ele>1191.46</ele>
        <time>2021-06-23T10:01:21Z</time>
      </trkpt>
      <trkpt lat="47.91098" lon="7.05974">
        <ele>1192.9</ele>
        <time>2021-06-23T10:01:23Z</time>
      </trkpt>
      <trkpt lat="47.91124" lon="7.06026">
        <ele>1192.83</ele>
        <time>2021-06-23T10:01:25Z</time>
      </trkpt>
      <trkpt lat="47.91129" lon="7.06045">
        <ele>1194.37</ele>
        <time>2021-06-23T10:01:26Z</time>
      </trkpt>
      <trkpt lat="47.9113" lon="7.06071">
        <ele>1196.12</ele>
        <time>2021-06-23T10:01:28Z</time>
      </trkpt>
      <trkpt lat="47.91126" lon="7.0612">
        <ele>1197.64</ele>
        <time>2021-06-23T10:01:29Z</time>
      </trkpt>
      <trkpt lat="47.91103" lon="7.06242">
        <ele>1193.1</ele>
        <time>2021-06-23T10:01:31Z</time>
      </trkpt>
      <trkpt lat="47.91092" lon="7.06323">
        <ele>1189.72</ele>
        <time>2021-06-23T10:01:32Z</time>
      </trkpt>
      <trkpt lat="47.91086" lon="7.06351">
        <ele>1190.36</ele>
        <time>2021-06-23T10:01:34Z</time>
      </trkpt>
      <trkpt lat="47.91074" lon="7.06387">
        <ele>1192.24</ele>
        <time>2021-06-23T10:01:35Z</time>
      </trkpt>
      <trkpt lat="47.91014" lon="7.06516">
        <ele>1190.13</ele>
        <time>2021-06-23T10:01:37Z</time>
      </trkpt>
      <trkpt lat="47.90985" lon="7.06565">
        <ele>1189.65</ele>
        <time>2021-06-23T10:01:38Z</time>
      </trkpt>
      <trkpt lat="47.90964" lon="7.06593">
        <ele>1188.43</ele>
        <time>2021-06-23T10:01:40Z</time>
      </trkpt>
      <trkpt lat="47.90957" lon="7.06607">
        <ele>1188.92</ele>
        <time>2021-06-23T10:01:41Z</time>
      </trkpt>
      <trkpt lat="47.90939" lon="7.06654">
        <ele>1191.69</ele>
        <time>2021-06-23T10:01:43Z</time>
      </trkpt>
      <trkpt lat="47.90931" lon="7.0667">
        <ele>1191.54</ele>
        <time>2021-06-23T10:01:44Z</time>
      </trkpt>
      <trkpt lat="47.90919" lon="7.06687">
        <ele>1190.28</ele>
        <time>2021-06-23T10:01:46Z</time>
      </trkpt>
      <trkpt lat="47.90884" lon="7.06714">
        <ele>1188.74</ele>
        <time>2021-06-23T10:01:48Z</time>
      </trkpt>
      <trkpt lat="47.90874" lon="7.06724">
        <ele>1188.54</ele>
        <time>2021-06-23T10:01:49Z</time>
      </trkpt>
      <trkpt lat="47.90802" lon="7.06825">
        <ele>1193.77</ele>
        <time>2021-06-23T10:01:51Z</time>
      </trkpt>
      <trkpt lat="47.90792" lon="7.06844">
        <ele>1195.1</ele>
        <time>2021-06-23T10:01:52Z</time>
      </trkpt>
      <trkpt lat="47.90783" lon="7.06866">
        <ele>1195.94</ele>
        <time>2021-06-23T10:01:54Z</time>
      </trkpt>
      <trkpt lat="47.90776" lon="7.0689">
        <ele>1196.24</ele>
        <time>2021-06-23T10:01:55Z</time>
      </trkpt>
      <trkpt lat="47.90751" lon="7.0703">
        <ele>1195.8</ele>
        <time>2021-06-23T10:01:57Z</time>
      </trkpt>
      <trkpt lat="47.90731" lon="7.07111">
        <ele>1199.41</ele>
        <time>2021-06-23T10:01:58Z</time>
      </trkpt>
      <trkpt lat="47.90729" lon="7.07129">
        <ele>1199.3</ele>
        <time>2021-06-23T10:02:00Z</time>
      </trkpt>
      <trkpt lat="47.90724" lon="7.07241">
        <ele>1201.18</ele>
        <time>2021-06-23T10:02:01Z</time>
      </trkpt>
      <trkpt lat="47.90722" lon="7.07265">
        <ele>1202.55</ele>
        <time>2021-06-23T10:02:03Z</time>
      </trkpt>
      <trkpt lat="47.90714" lon="7.07321">
        <ele>1206.38</ele>
        <time>2021-06-23T10:02:04Z</time>
      </trkpt>
      <trkpt lat="47.90712" lon="7.07356">
        <ele>1208.81</ele>
        <time>2021-06-23T10:02:06Z</time>
      </trkpt>
      <trkpt lat="47.90713" lon="7.0739">
        <ele>1210.26</ele>
        <time>2021-06-23T10:02:08Z</time>
      </trkpt>
      <trkpt lat="47.90718" lon="7.07457">
        <ele>1213.89</ele>
        <time>2021-06-23T10:02:09Z</time>
      </trkpt>
      <trkpt lat="47.90721" lon="7.07475">
        <ele>1213.52</ele>
        <time>2021-06-23T10:02:11Z</time>
      </trkpt>
      <trkpt lat="47.90729" lon="7.07509">
        <ele>1212.58</ele>
        <time>2021-06-23T10:02:12Z</time>
      </trkpt>
      <trkpt lat="47.90756" lon="7.07594">
        <ele>1220.44</ele>
        <time>2021-06-23T10:02:14Z</time>
      </trkpt>
      <trkpt lat="47.90772" lon="7.07658">
        <ele>1220.48</ele>
        <time>2021-06-23T10:02:15Z</time>
      </trkpt>
      <trkpt lat="47.90777" lon="7.07703">
        <ele>1223.07</ele>
        <time>2021-06-23T10:02:17Z</time>
      </trkpt>
      <trkpt lat="47.90774" lon="7.07803">
        <ele>1229.81</ele>
        <time>2021-06-23T10:02:18Z</time>
      </trkpt>
      <trkpt lat="47.90786" lon="7.07916">
        <ele>1228.61</ele>
        <time>2021-06-23T10:02:20Z</time>
      </trkpt>
      <trkpt lat="47.90783" lon="7.07947">
        <ele>1232.75</ele>
        <time>2021-06-23T10:02:21Z</time>
      </trkpt>
      <trkpt lat="47.90773" lon="7.07995">
        <ele>1238.04</ele>
        <time>2021-06-23T10:02:23Z</time>
      </trkpt>
      <trkpt lat="47.90765" lon="7.0805">
        <ele>1237.51</ele>
        <time>2021-06-23T10:02:24Z</time>
      </trkpt>
      <trkpt lat="47.90764" lon="7.08067">
        <ele>1237.22</ele>
        <time>2021-06-23T10:02:26Z</time>
      </trkpt>
      <trkpt lat="47.90768" lon="7.08112">
        <ele>1230.86</ele>
        <time>2021-06-23T10:02:27Z</time>
      </trkpt>
      <trkpt lat="47.90768" lon="7.08204">
        <ele>1230.6</ele>
        <time>2021-06-23T10:02:29Z</time>
      </trkpt>
      <trkpt lat="47.9077" lon="7.08245">
        <ele>1231.85</ele>
        <time>2021-06-23T10:02:31Z</time>
      </trkpt>
      <trkpt lat="47.90775" lon="7.08285">
        <ele>1233.46</ele>
        <time>2021-06-23T10:02:32Z</time>
      </trkpt>
      <trkpt lat="47.90789" lon="7.08374">
        <ele>1231.4</ele>
        <time>2021-06-23T10:02:34Z</time>
      </trkpt>
      <trkpt lat="47.90799" lon="7.08414">
        <ele>1229.5</ele>
        <time>2021-06-23T10:02:35Z</time>
      </trkpt>
      <trkpt lat="47.90814" lon="7.0846">
        <ele>1228.28</ele>
        <time>2021-06-23T10:02:37Z</time>
      </trkpt>
      <trkpt lat="47.90815" lon="7.08471">
        <ele>1229.01</ele>
        <time>2021-06-23T10:02:38Z</time>
      </trkpt>
      <trkpt lat="47.90815" lon="7.08499">
        <ele>1231.64</ele>
        <time>2021-06-23T10:02:40Z</time>
      </trkpt>
      <trkpt lat="47.90803" lon="7.08584">
        <ele>1228.15</ele>
        <time>2021-06-23T10:02:41Z</time>
      </trkpt>
      <trkpt lat="47.90795" lon="7.08609">
        <ele>1230.4</ele>
        <time>2021-06-23T10:02:43Z</time>
      </trkpt>
      <trkpt lat="47.90785" lon="7.08628">
        <ele>1230.67</ele>
        <time>2021-06-23T10:02:44Z</time>
      </trkpt>
      <trkpt lat="47.90778" lon="7.08635">
        <ele>1230.93</ele>
        <time>2021-06-23T10:02:46Z</time>
      </trkpt>
      <trkpt lat="47.90764" lon="7.08637">
        <ele>1232.41</ele>
        <time>2021-06-23T10:02:47Z</time>
      </trkpt>
      <trkpt lat="47.90718" lon="7.08635">
        <ele>1236.42</ele>
        <time>2021-06-23T10:02:49Z</time>
      </trkpt>
      <trkpt lat="47.90703" lon="7.08638">
        <ele>1237.98</ele>
        <time>2021-06-23T10:02:51Z</time>
      </trkpt>
      <trkpt lat="47.90689" lon="7.08645">
        <ele>1237.83</ele>
        <time>2021-06-23T10:02:52Z</time>
      </trkpt>
      <trkpt lat="47.90658" lon="7.08665">
        <ele>1233.93</ele>
        <time>2021-06-23T10:02:54Z</time>
      </trkpt>
      <trkpt lat="47.90629" lon="7.08692">
        <ele>1237.15</ele>
        <time>2021-06-23T10:02:55Z</time>
      </trkpt>
      <trkpt lat="47.90615" lon="7.08718">
        <ele>1238.68</ele>
        <time>2021-06-23T10:02:57Z</time>
      </trkpt>
      <trkpt lat="47.90608" lon="7.08746">
        <ele>1238.03</ele>
        <time>2021-06-23T10:02:58Z</time>
      </trkpt>
      <trkpt lat="47.90594" lon="7.08841">
        <ele>1233.57</ele>
        <time>2021-06-23T10:03:00Z</time>
      </trkpt>
      <trkpt lat="47.90584" lon="7.08934">
        <ele>1226.27</ele>
        <time>2021-06-23T10:03:01Z</time>
      </trkpt>
      <trkpt lat="47.90578" lon="7.0896">
        <ele>1223.35</ele>
        <time>2021-06-23T10:03:03Z</time>
      </trkpt>
      <trkpt lat="47.90574" lon="7.08971">
        <ele>1222.48</ele>
        <time>2021-06-23T10:03:04Z</time>
      </trkpt>
      <trkpt lat="47.90562" lon="7.08989">
        <ele>1222.89</ele>
        <time>2021-06-23T10:03:06Z</time>
      </trkpt>
      <trkpt lat="47.90519" lon="7.09026">
        <ele>1226.55</ele>
        <time>2021-06-23T10:03:07Z</time>
      </trkpt>
      <trkpt lat="47.90486" lon="7.09067">
        <ele>1230.53</ele>
        <time>2021-06-23T10:03:09Z</time>
      </trkpt>
      <trkpt lat="47.90467" lon="7.09096">
        <ele>1232.85</ele>
        <time>2021-06-23T10:03:10Z</time>
      </trkpt>
      <trkpt lat="47.9046" lon="7.09115">
        <ele>1234.61</ele>
        <time>2021-06-23T10:03:12Z</time>
      </trkpt>
      <trkpt lat="47.90458" lon="7.09125">
        <ele>1235.94</ele>
        <time>2021-06-23T10:03:14Z</time>
      </trkpt>
      <trkpt lat="47.90457" lon="7.09145">
        <ele>1238.58</ele>
        <time>2021-06-23T10:03:15Z</time>
      </trkpt>
      <trkpt lat="47.90462" lon="7.09188">
        <ele>1240.36</ele>
        <time>2021-06-23T10:03:17Z</time>
      </trkpt>
      <trkpt lat="47.90478" lon="7.09251">
        <ele>1241.79</ele>
        <time>2021-06-23T10:03:18Z</time>
      </trkpt>
      <trkpt lat="47.90487" lon="7.0928">
        <ele>1245.23</ele>
        <time>2021-06-23T10:03:20Z</time>
      </trkpt>
      <trkpt lat="47.90527" lon="7.0939">
        <ele>1255.24</ele>
        <time>2021-06-23T10:03:21Z</time>
      </trkpt>
      <trkpt lat="47.90538" lon="7.09424">
        <ele>1258.94</ele>
        <time>2021-06-23T10:03:23Z</time>
      </trkpt>
      <trkpt lat="47.90566" lon="7.09533">
        <ele>1269.21</ele>
        <time>2021-06-23T10:03:24Z</time>
      </trkpt>
      <trkpt lat="47.90569" lon="7.09553">
        <ele>1269.45</ele>
        <time>2021-06-23T10:03:26Z</time>
      </trkpt>
      <trkpt lat="47.90574" lon="7.09635">
        <ele>1272.45</ele>
        <time>2021-06-23T10:03:27Z</time>
      </trkpt>
      <trkpt lat="47.90574" lon="7.0966">
        <ele>1273.48</ele>
        <time>2021-06-23T10:03:29Z</time>
      </trkpt>
      <trkpt lat="47.90569" lon="7.09708">
        <ele>1277.36</ele>
        <time>2021-06-23T10:03:30Z</time>
      </trkpt>
      <trkpt lat="47.90569" lon="7.09725">
        <ele>1278.56</ele>
        <time>2021-06-23T10:03:32Z</time>
      </trkpt>
      <trkpt lat="47.90576" lon="7.09804">
        <ele>1284.5</ele>
        <time>2021-06-23T10:03:33Z</time>
      </trkpt>
      <trkpt lat="47.90578" lon="7.09858">
        <ele>1286.31</ele>
        <time>2021-06-23T10:03:35Z</time>
      </trkpt>
      <trkpt lat="47.90581" lon="7.10025">
        <ele>1294.76</ele>
        <time>2021-06-23T10:03:37Z</time>
      </trkpt>
      <trkpt lat="47.90584" lon="7.10089">
        <ele>1298.98</ele>
        <time>2021-06-23T10:03:38Z</time>
      </trkpt>
      <trkpt lat="47.90584" lon="7.10144">
        <ele>1303.45</ele>
        <time>2021-06-23T10:03:40Z</time>
      </trkpt>
      <trkpt lat="47.90586" lon="7.10182">
        <ele>1306.75</ele>
        <time>2021-06-23T10:03:41Z</time>
      </trkpt>
      <trkpt lat="47.90606" lon="7.10268">
        <ele>1310.35</ele>
        <time>2021-06-23T10:03:43Z</time>
      </trkpt>
      <trkpt lat="47.90616" lon="7.10302">
        <ele>1311.18</ele>
        <time>2021-06-23T10:03:44Z</time>
      </trkpt>
      <trkpt lat="47.90628" lon="7.10337">
        <ele>1314.9</ele>
        <time>2021-06-23T10:03:46Z</time>
      </trkpt>
      <trkpt lat="47.90637" lon="7.10354">
        <ele>1314.79</ele>
        <time>2021-06-23T10:03:47Z</time>
      </trkpt>
      <trkpt lat="47.90642" lon="7.1036">
        <ele>1314.65</ele>
        <time>2021-06-23T10:03:49Z</time>
      </trkpt>
      <trkpt lat="47.90674" lon="7.10384">
        <ele>1313.97</ele>
        <time>2021-06-23T10:03:50Z</time>
      </trkpt>
      <trkpt lat="47.90677" lon="7.10389">
        <ele>1314.22</ele>
        <time>2021-06-23T10:03:52Z</time>
      </trkpt>
      <trkpt lat="47.90681" lon="7.10399">
        <ele>1315.18</ele>
        <time>2021-06-23T10:03:53Z</time>
      </trkpt>
      <trkpt lat="47.9068" lon="7.10411">
        <ele>1317.21</ele>
        <time>2021-06-23T10:03:55Z</time>
      </trkpt>
      <trkpt lat="47.9068" lon="7.10411">
        <ele>1317.21</ele>
        <time>2021-06-23T10:03:55Z</time>
      </trkpt>
      <trkpt lat="47.90675" lon="7.10419">
        <ele>1317.92</ele>
        <time>2021-06-23T10:03:57Z</time>
      </trkpt>
      <trkpt lat="47.90671" lon="7.10421">
        <ele>1318.31</ele>
        <time>2021-06-23T10:03:59Z</time>
      </trkpt>
      <trkpt lat="47.90667" lon="7.10422">
        <ele>1318.61</ele>
        <time>2021-06-23T10:04:00Z</time>
      </trkpt>
      <trkpt lat="47.90659" lon="7.10421">
        <ele>1318.95</ele>
        <time>2021-06-23T10:04:02Z</time>
      </trkpt>
      <trkpt lat="47.90612" lon="7.10395">
        <ele>1321.16</ele>
        <time>2021-06-23T10:04:04Z</time>
      </trkpt>
      <trkpt lat="47.9057" lon="7.10362">
        <ele>1326.02</ele>
        <time>2021-06-23T10:04:06Z</time>
      </trkpt>
      <trkpt lat="47.90543" lon="7.10338">
        <ele>1328.54</ele>
        <time>2021-06-23T10:04:07Z</time>
      </trkpt>
      <trkpt lat="47.9052" lon="7.10304">
        <ele>1330.78</ele>
        <time>2021-06-23T10:04:09Z</time>
      </trkpt>
      <trkpt lat="47.90512" lon="7.10299">
        <ele>1331.34</ele>
        <time>2021-06-23T10:04:11Z</time>
      </trkpt>
      <trkpt lat="47.90504" lon="7.103">
        <ele>1332.18</ele>
        <time>2021-06-23T10:04:13Z</time>
      </trkpt>
      <trkpt lat="47.90479" lon="7.10326">
        <ele>1333.2</ele>
        <time>2021-06-23T10:04:14Z</time>
      </trkpt>
      <trkpt lat="47.9047" lon="7.10333">
        <ele>1333.17</ele>
        <time>2021-06-23T10:04:16Z</time>
      </trkpt>
      <trkpt lat="47.90463" lon="7.10335">
        <ele>1333.7</ele>
        <time>2021-06-23T10:04:18Z</time>
      </trkpt>
      <trkpt lat="47.90381" lon="7.10327">
        <ele>1338.57</ele>
        <time>2021-06-23T10:04:20Z</time>
      </trkpt>
      <trkpt lat="47.90322" lon="7.10326">
        <ele>1336.75</ele>
        <time>2021-06-23T10:04:21Z</time>
      </trkpt>
      <trkpt lat="47.90259" lon="7.10333">
        <ele>1330.49</ele>
        <time>2021-06-23T10:04:23Z</time>
      </trkpt>
      <trkpt lat="47.90204" lon="7.1033">
        <ele>1326.81</ele>
        <time>2021-06-23T10:04:25Z</time>
      </trkpt>
      <trkpt lat="47.90128" lon="7.10329">
        <ele>1318.27</ele>
        <time>2021-06-23T10:04:27Z</time>
      </trkpt>
      <trkpt lat="47.90107" lon="7.10325">
        <ele>1316.2</ele>
        <time>2021-06-23T10:04:28Z</time>
      </trkpt>
      <trkpt lat="47.90082" lon="7.10313">
        <ele>1314.62</ele>
        <time>2021-06-23T10:04:30Z</time>
      </trkpt>
      <trkpt lat="47.90049" lon="7.10307">
        <ele>1315.63</ele>
        <time>2021-06-23T10:04:32Z</time>
      </trkpt>
      <trkpt lat="47.89868" lon="7.10335">
        <ele>1297.42</ele>
        <time>2021-06-23T10:04:34Z</time>
      </trkpt>
      <trkpt lat="47.89831" lon="7.10335">
        <ele>1293.73</ele>
        <time>2021-06-23T10:04:35Z</time>
      </trkpt>
      <trkpt lat="47.89785" lon="7.10327">
        <ele>1287.95</ele>
        <time>2021-06-23T10:04:37Z</time>
      </trkpt>
      <trkpt lat="47.89765" lon="7.10326">
        <ele>1281.66</ele>
        <time>2021-06-23T10:04:39Z</time>
      </trkpt>
      <trkpt lat="47.89765" lon="7.10326">
        <ele>1281.66</ele>
        <time>2021-06-23T10:04:39Z</time>
      </trkpt>
      <trkpt lat="47.89722" lon="7.10324">
        <ele>1275.37</ele>
        <time>2021-06-23T10:04:40Z</time>
      </trkpt>
      <trkpt lat="47.89701" lon="7.10333">
        <ele>1273.65</ele>
        <time>2021-06-23T10:04:42Z</time>
      </trkpt>
      <trkpt lat="47.89684" lon="7.10351">
        <ele>1273.67</ele>
        <time>2021-06-23T10:04:43Z</time>
      </trkpt>
      <trkpt lat="47.89654" lon="7.10395">
        <ele>1272.34</ele>
        <time>2021-06-23T10:04:45Z</time>
      </trkpt>
      <trkpt lat="47.89555" lon="7.10524">
        <ele>1262.71</ele>
        <time>2021-06-23T10:04:46Z</time>
      </trkpt>
      <trkpt lat="47.8954" lon="7.10546">
        <ele>1259.54</ele>
        <time>2021-06-23T10:04:48Z</time>
      </trkpt>
      <trkpt lat="47.89524" lon="7.10577">
        <ele>1255.3</ele>
        <time>2021-06-23T10:04:49Z</time>
      </trkpt>
      <trkpt lat="47.89471" lon="7.10691">
        <ele>1244.06</ele>
        <time>2021-06-23T10:04:50Z</time>
      </trkpt>
      <trkpt lat="47.89452" lon="7.10721">
        <ele>1243.5</ele>
        <time>2021-06-23T10:04:52Z</time>
      </trkpt>
      <trkpt lat="47.89442" lon="7.10731">
        <ele>1243.12</ele>
        <time>2021-06-23T10:04:53Z</time>
      </trkpt>
      <trkpt lat="47.89429" lon="7.10739">
        <ele>1242.49</ele>
        <time>2021-06-23T10:04:55Z</time>
      </trkpt>
      <trkpt lat="47.89417" lon="7.10743">
        <ele>1242.54</ele>
        <time>2021-06-23T10:04:56Z</time>
      </trkpt>
      <trkpt lat="47.89406" lon="7.1074">
        <ele>1241.45</ele>
        <time>2021-06-23T10:04:58Z</time>
      </trkpt>
      <trkpt lat="47.89396" lon="7.10735">
        <ele>1240.48</ele>
        <time>2021-06-23T10:04:59Z</time>
      </trkpt>
      <trkpt lat="47.89381" lon="7.10715">
        <ele>1238.85</ele>
        <time>2021-06-23T10:05:00Z</time>
      </trkpt>
      <trkpt lat="47.89374" lon="7.1069">
        <ele>1238.07</ele>
        <time>2021-06-23T10:05:02Z</time>
      </trkpt>
      <trkpt lat="47.89373" lon="7.10676">
        <ele>1237.18</ele>
        <time>2021-06-23T10:05:03Z</time>
      </trkpt>
      <trkpt lat="47.89375" lon="7.10661">
        <ele>1236.42</ele>
        <time>2021-06-23T10:05:05Z</time>
      </trkpt>
      <trkpt lat="47.894" lon="7.10597">
        <ele>1233.28</ele>
        <time>2021-06-23T10:05:06Z</time>
      </trkpt>
      <trkpt lat="47.89401" lon="7.10588">
        <ele>1232.62</ele>
        <time>2021-06-23T10:05:08Z</time>
      </trkpt>
      <trkpt lat="47.89399" lon="7.10574">
        <ele>1231.23</ele>
        <time>2021-06-23T10:05:09Z</time>
      </trkpt>
      <trkpt lat="47.89394" lon="7.10569">
        <ele>1230.1</ele>
        <time>2021-06-23T10:05:10Z</time>
      </trkpt>
      <trkpt lat="47.89385" lon="7.10569">
        <ele>1228.38</ele>
        <time>2021-06-23T10:05:12Z</time>
      </trkpt>
      <trkpt lat="47.89375" lon="7.1058">
        <ele>1227.79</ele>
        <time>2021-06-23T10:05:13Z</time>
      </trkpt>
      <trkpt lat="47.89361" lon="7.10608">
        <ele>1228.8</ele>
        <time>2021-06-23T10:05:15Z</time>
      </trkpt>
      <trkpt lat="47.89349" lon="7.10625">
        <ele>1228.98</ele>
        <time>2021-06-23T10:05:16Z</time>
      </trkpt>
      <trkpt lat="47.89289" lon="7.10689">
        <ele>1224.85</ele>
        <time>2021-06-23T10:05:18Z</time>
      </trkpt>
      <trkpt lat="47.8927" lon="7.10703">
        <ele>1222.32</ele>
        <time>2021-06-23T10:05:19Z</time>
      </trkpt>
      <trkpt lat="47.89247" lon="7.10716">
        <ele>1217.9</ele>
        <time>2021-06-23T10:05:20Z</time>
      </trkpt>
      <trkpt lat="47.89111" lon="7.1078">
        <ele>1204.17</ele>
        <time>2021-06-23T10:05:22Z</time>
      </trkpt>
      <trkpt lat="47.89081" lon="7.10799">
        <ele>1200.02</ele>
        <time>2021-06-23T10:05:23Z</time>
      </trkpt>
      <trkpt lat="47.89069" lon="7.10809">
        <ele>1198.74</ele>
        <time>2021-06-23T10:05:25Z</time>
      </trkpt>
      <trkpt lat="47.89042" lon="7.10839">
        <ele>1196.7</ele>
        <time>2021-06-23T10:05:26Z</time>
      </trkpt>
      <trkpt lat="47.88983" lon="7.10896">
        <ele>1188.67</ele>
        <time>2021-06-23T10:05:27Z</time>
      </trkpt>
      <trkpt lat="47.88976" lon="7.10907">
        <ele>1187.49</ele>
        <time>2021-06-23T10:05:29Z</time>
      </trkpt>
      <trkpt lat="47.88969" lon="7.10922">
        <ele>1186.71</ele>
        <time>2021-06-23T10:05:30Z</time>
      </trkpt>
      <trkpt lat="47.88969" lon="7.10922">
        <ele>1186.71</ele>
        <time>2021-06-23T10:05:30Z</time>
      </trkpt>
      <trkpt lat="47.88959" lon="7.10955">
        <ele>1183.47</ele>
        <time>2021-06-23T10:05:32Z</time>
      </trkpt>
      <trkpt lat="47.88955" lon="7.10984">
        <ele>1181.77</ele>
        <time>2021-06-23T10:05:33Z</time>
      </trkpt>
      <trkpt lat="47.88955" lon="7.10995">
        <ele>1181.55</ele>
        <time>2021-06-23T10:05:34Z</time>
      </trkpt>
      <trkpt lat="47.88959" lon="7.1101">
        <ele>1181.07</ele>
        <time>2021-06-23T10:05:35Z</time>
      </trkpt>
      <trkpt lat="47.88965" lon="7.11025">
        <ele>1180.32</ele>
        <time>2021-06-23T10:05:36Z</time>
      </trkpt>
      <trkpt lat="47.88994" lon="7.11081">
        <ele>1177.06</ele>
        <time>2021-06-23T10:05:38Z</time>
      </trkpt>
      <trkpt lat="47.89033" lon="7.11146">
        <ele>1173.42</ele>
        <time>2021-06-23T10:05:39Z</time>
      </trkpt>
      <trkpt lat="47.89062" lon="7.11178">
        <ele>1168.16</ele>
        <time>2021-06-23T10:05:40Z</time>
      </trkpt>
      <trkpt lat="47.89099" lon="7.1121">
        <ele>1162.94</ele>
        <time>2021-06-23T10:05:41Z</time>
      </trkpt>
      <trkpt lat="47.89156" lon="7.11244">
        <ele>1161.74</ele>
        <time>2021-06-23T10:05:42Z</time>
      </trkpt>
      <trkpt lat="47.89162" lon="7.11252">
        <ele>1161.21</ele>
        <time>2021-06-23T10:05:44Z</time>
      </trkpt>
      <trkpt lat="47.89165" lon="7.11263">
        <ele>1160.02</ele>
        <time>2021-06-23T10:05:45Z</time>
      </trkpt>
      <trkpt lat="47.89164" lon="7.1127">
        <ele>1158.85</ele>
        <time>2021-06-23T10:05:46Z</time>
      </trkpt>
      <trkpt lat="47.89159" lon="7.11276">
        <ele>1157.67</ele>
        <time>2021-06-23T10:05:47Z</time>
      </trkpt>
      <trkpt lat="47.89152" lon="7.1128">
        <ele>1156.74</ele>
        <time>2021-06-23T10:05:48Z</time>
      </trkpt>
      <trkpt lat="47.89144" lon="7.11281">
        <ele>1156.09</ele>
        <time>2021-06-23T10:05:49Z</time>
      </trkpt>
      <trkpt lat="47.89117" lon="7.11273">
        <ele>1154.79</ele>
        <time>2021-06-23T10:05:51Z</time>
      </trkpt>
      <trkpt lat="47.89097" lon="7.11273">
        <ele>1152.49</ele>
        <time>2021-06-23T10:05:52Z</time>
      </trkpt>
      <trkpt lat="47.89069" lon="7.11279">
        <ele>1148.82</ele>
        <time>2021-06-23T10:05:53Z</time>
      </trkpt>
      <trkpt lat="47.89046" lon="7.11288">
        <ele>1146.37</ele>
        <time>2021-06-23T10:05:54Z</time>
      </trkpt>
      <trkpt lat="47.89017" lon="7.11309">
        <ele>1143.91</ele>
        <time>2021-06-23T10:05:55Z</time>
      </trkpt>
      <trkpt lat="47.89001" lon="7.11331">
        <ele>1141.2</ele>
        <time>2021-06-23T10:05:57Z</time>
      </trkpt>
      <trkpt lat="47.88994" lon="7.11346">
        <ele>1138.3</ele>
        <time>2021-06-23T10:05:58Z</time>
      </trkpt>
      <trkpt lat="47.88986" lon="7.1138">
        <ele>1135.86</ele>
        <time>2021-06-23T10:05:59Z</time>
      </trkpt>
      <trkpt lat="47.88985" lon="7.11411">
        <ele>1135.42</ele>
        <time>2021-06-23T10:06:00Z</time>
      </trkpt>
      <trkpt lat="47.88989" lon="7.1144">
        <ele>1134.8</ele>
        <time>2021-06-23T10:06:01Z</time>
      </trkpt>
      <trkpt lat="47.88995" lon="7.11456">
        <ele>1134.27</ele>
        <time>2021-06-23T10:06:03Z</time>
      </trkpt>
      <trkpt lat="47.89007" lon="7.11468">
        <ele>1133.41</ele>
        <time>2021-06-23T10:06:04Z</time>
      </trkpt>
      <trkpt lat="47.89018" lon="7.11475">
        <ele>1131.73</ele>
        <time>2021-06-23T10:06:05Z</time>
      </trkpt>
      <trkpt lat="47.89037" lon="7.11483">
        <ele>1128.58</ele>
        <time>2021-06-23T10:06:06Z</time>
      </trkpt>
      <trkpt lat="47.89061" lon="7.11486">
        <ele>1124.58</ele>
        <time>2021-06-23T10:06:07Z</time>
      </trkpt>
      <trkpt lat="47.89076" lon="7.11492">
        <ele>1123.11</ele>
        <time>2021-06-23T10:06:09Z</time>
      </trkpt>
      <trkpt lat="47.89094" lon="7.11506">
        <ele>1121.52</ele>
        <time>2021-06-23T10:06:10Z</time>
      </trkpt>
      <trkpt lat="47.89128" lon="7.11543">
        <ele>1116.44</ele>
        <time>2021-06-23T10:06:11Z</time>
      </trkpt>
      <trkpt lat="47.89174" lon="7.116">
        <ele>1108.68</ele>
        <time>2021-06-23T10:06:12Z</time>
      </trkpt>
      <trkpt lat="47.89245" lon="7.11684">
        <ele>1100.88</ele>
        <time>2021-06-23T10:06:13Z</time>
      </trkpt>
      <trkpt lat="47.89281" lon="7.11712">
        <ele>1099.99</ele>
        <time>2021-06-23T10:06:15Z</time>
      </trkpt>
      <trkpt lat="47.89306" lon="7.11726">
        <ele>1098.5</ele>
        <time>2021-06-23T10:06:16Z</time>
      </trkpt>
      <trkpt lat="47.89354" lon="7.11743">
        <ele>1098.3</ele>
        <time>2021-06-23T10:06:17Z</time>
      </trkpt>
      <trkpt lat="47.89364" lon="7.11754">
        <ele>1097.5</ele>
        <time>2021-06-23T10:06:18Z</time>
      </trkpt>
      <trkpt lat="47.89364" lon="7.11754">
        <ele>1097.5</ele>
        <time>2021-06-23T10:06:18Z</time>
      </trkpt>
      <trkpt lat="47.89367" lon="7.11761">
        <ele>1096.42</ele>
        <time>2021-06-23T10:06:20Z</time>
      </trkpt>
      <trkpt lat="47.89367" lon="7.11768">
        <ele>1095.41</ele>
        <time>2021-06-23T10:06:21Z</time>
      </trkpt>
      <trkpt lat="47.89365" lon="7.11776">
        <ele>1094.24</ele>
        <time>2021-06-23T10:06:22Z</time>
      </trkpt>
      <trkpt lat="47.89355" lon="7.11783">
        <ele>1092.9</ele>
        <time>2021-06-23T10:06:24Z</time>
      </trkpt>
      <trkpt lat="47.8933" lon="7.11782">
        <ele>1091.17</ele>
        <time>2021-06-23T10:06:25Z</time>
      </trkpt>
      <trkpt lat="47.89305" lon="7.11785">
        <ele>1089.2</ele>
        <time>2021-06-23T10:06:26Z</time>
      </trkpt>
      <trkpt lat="47.89246" lon="7.11812">
        <ele>1082.97</ele>
        <time>2021-06-23T10:06:28Z</time>
      </trkpt>
      <trkpt lat="47.89207" lon="7.11818">
        <ele>1081</ele>
        <time>2021-06-23T10:06:29Z</time>
      </trkpt>
      <trkpt lat="47.89186" lon="7.11829">
        <ele>1079.75</ele>
        <time>2021-06-23T10:06:30Z</time>
      </trkpt>
      <trkpt lat="47.89176" lon="7.1184">
        <ele>1078.2</ele>
        <time>2021-06-23T10:06:32Z</time>
      </trkpt>
      <trkpt lat="47.89138" lon="7.11899">
        <ele>1072.61</ele>
        <time>2021-06-23T10:06:33Z</time>
      </trkpt>
      <trkpt lat="47.89121" lon="7.11922">
        <ele>1070.23</ele>
        <time>2021-06-23T10:06:34Z</time>
      </trkpt>
      <trkpt lat="47.89095" lon="7.11948">
        <ele>1066.47</ele>
        <time>2021-06-23T10:06:36Z</time>
      </trkpt>
      <trkpt lat="47.89035" lon="7.11995">
        <ele>1059.07</ele>
        <time>2021-06-23T10:06:37Z</time>
      </trkpt>
      <trkpt lat="47.88945" lon="7.12052">
        <ele>1061.51</ele>
        <time>2021-06-23T10:06:38Z</time>
      </trkpt>
      <trkpt lat="47.8892" lon="7.12072">
        <ele>1057.86</ele>
        <time>2021-06-23T10:06:40Z</time>
      </trkpt>
      <trkpt lat="47.88885" lon="7.12105">
        <ele>1052.92</ele>
        <time>2021-06-23T10:06:41Z</time>
      </trkpt>
      <trkpt lat="47.88865" lon="7.12131">
        <ele>1049.36</ele>
        <time>2021-06-23T10:06:43Z</time>
      </trkpt>
      <trkpt lat="47.88821" lon="7.12203">
        <ele>1046.22</ele>
        <time>2021-06-23T10:06:44Z</time>
      </trkpt>
      <trkpt lat="47.88808" lon="7.12236">
        <ele>1042.51</ele>
        <time>2021-06-23T10:06:45Z</time>
      </trkpt>
      <trkpt lat="47.88788" lon="7.1231">
        <ele>1033.13</ele>
        <time>2021-06-23T10:06:47Z</time>
      </trkpt>
      <trkpt lat="47.88779" lon="7.12338">
        <ele>1031.62</ele>
        <time>2021-06-23T10:06:48Z</time>
      </trkpt>
      <trkpt lat="47.88772" lon="7.12348">
        <ele>1031.13</ele>
        <time>2021-06-23T10:06:49Z</time>
      </trkpt>
      <trkpt lat="47.88761" lon="7.12358">
        <ele>1030.33</ele>
        <time>2021-06-23T10:06:51Z</time>
      </trkpt>
      <trkpt lat="47.88751" lon="7.12365">
        <ele>1029.48</ele>
        <time>2021-06-23T10:06:52Z</time>
      </trkpt>
      <trkpt lat="47.88736" lon="7.12366">
        <ele>1027.21</ele>
        <time>2021-06-23T10:06:53Z</time>
      </trkpt>
      <trkpt lat="47.88725" lon="7.12362">
        <ele>1026.3</ele>
        <time>2021-06-23T10:06:55Z</time>
      </trkpt>
      <trkpt lat="47.88714" lon="7.12354">
        <ele>1025.55</ele>
        <time>2021-06-23T10:06:56Z</time>
      </trkpt>
      <trkpt lat="47.88714" lon="7.12354">
        <ele>1025.55</ele>
        <time>2021-06-23T10:06:56Z</time>
      </trkpt>
      <trkpt lat="47.88684" lon="7.12325">
        <ele>1021.63</ele>
        <time>2021-06-23T10:06:57Z</time>
      </trkpt>
      <trkpt lat="47.88644" lon="7.12271">
        <ele>1018.7</ele>
        <time>2021-06-23T10:06:58Z</time>
      </trkpt>
      <trkpt lat="47.88629" lon="7.12247">
        <ele>1015.84</ele>
        <time>2021-06-23T10:07:00Z</time>
      </trkpt>
      <trkpt lat="47.88566" lon="7.12106">
        <ele>1001.08</ele>
        <time>2021-06-23T10:07:01Z</time>
      </trkpt>
      <trkpt lat="47.88553" lon="7.12068">
        <ele>998.84</ele>
        <time>2021-06-23T10:07:02Z</time>
      </trkpt>
      <trkpt lat="47.8855" lon="7.12044">
        <ele>998.11</ele>
        <time>2021-06-23T10:07:03Z</time>
      </trkpt>
      <trkpt lat="47.88551" lon="7.12019">
        <ele>997.84</ele>
        <time>2021-06-23T10:07:04Z</time>
      </trkpt>
      <trkpt lat="47.88556" lon="7.11993">
        <ele>998.97</ele>
        <time>2021-06-23T10:07:06Z</time>
      </trkpt>
      <trkpt lat="47.88566" lon="7.11968">
        <ele>1001.32</ele>
        <time>2021-06-23T10:07:07Z</time>
      </trkpt>
      <trkpt lat="47.88566" lon="7.11956">
        <ele>1001.45</ele>
        <time>2021-06-23T10:07:08Z</time>
      </trkpt>
      <trkpt lat="47.88563" lon="7.11947">
        <ele>1000.39</ele>
        <time>2021-06-23T10:07:09Z</time>
      </trkpt>
      <trkpt lat="47.88558" lon="7.11943">
        <ele>998.07</ele>
        <time>2021-06-23T10:07:10Z</time>
      </trkpt>
      <trkpt lat="47.88552" lon="7.11944">
        <ele>995.86</ele>
        <time>2021-06-23T10:07:11Z</time>
      </trkpt>
      <trkpt lat="47.88545" lon="7.11951">
        <ele>993.87</ele>
        <time>2021-06-23T10:07:13Z</time>
      </trkpt>
      <trkpt lat="47.8854" lon="7.11981">
        <ele>992.89</ele>
        <time>2021-06-23T10:07:14Z</time>
      </trkpt>
      <trkpt lat="47.8854" lon="7.11981">
        <ele>992.89</ele>
        <time>2021-06-23T10:07:14Z</time>
      </trkpt>
      <trkpt lat="47.88539" lon="7.11994">
        <ele>993.11</ele>
        <time>2021-06-23T10:07:15Z</time>
      </trkpt>
      <trkpt lat="47.88523" lon="7.12053">
        <ele>991.36</ele>
        <time>2021-06-23T10:07:17Z</time>
      </trkpt>
      <trkpt lat="47.8852" lon="7.1207">
        <ele>989.65</ele>
        <time>2021-06-23T10:07:18Z</time>
      </trkpt>
      <trkpt lat="47.8852" lon="7.1209">
        <ele>987.92</ele>
        <time>2021-06-23T10:07:19Z</time>
      </trkpt>
      <trkpt lat="47.88525" lon="7.12144">
        <ele>986.38</ele>
        <time>2021-06-23T10:07:21Z</time>
      </trkpt>
      <trkpt lat="47.88543" lon="7.1229">
        <ele>971.41</ele>
        <time>2021-06-23T10:07:22Z</time>
      </trkpt>
      <trkpt lat="47.88554" lon="7.12344">
        <ele>970.58</ele>
        <time>2021-06-23T10:07:23Z</time>
      </trkpt>
      <trkpt lat="47.88568" lon="7.12399">
        <ele>966.99</ele>
        <time>2021-06-23T10:07:25Z</time>
      </trkpt>
      <trkpt lat="47.88573" lon="7.1243">
        <ele>963.98</ele>
        <time>2021-06-23T10:07:26Z</time>
      </trkpt>
      <trkpt lat="47.88586" lon="7.12546">
        <ele>948.24</ele>
        <time>2021-06-23T10:07:28Z</time>
      </trkpt>
      <trkpt lat="47.88599" lon="7.126">
        <ele>945.08</ele>
        <time>2021-06-23T10:07:29Z</time>
      </trkpt>
      <trkpt lat="47.88602" lon="7.12623">
        <ele>943.23</ele>
        <time>2021-06-23T10:07:30Z</time>
      </trkpt>
      <trkpt lat="47.88607" lon="7.12707">
        <ele>938.19</ele>
        <time>2021-06-23T10:07:32Z</time>
      </trkpt>
      <trkpt lat="47.88605" lon="7.1274">
        <ele>938.57</ele>
        <time>2021-06-23T10:07:33Z</time>
      </trkpt>
      <trkpt lat="47.88601" lon="7.12756">
        <ele>939.18</ele>
        <time>2021-06-23T10:07:35Z</time>
      </trkpt>
      <trkpt lat="47.88596" lon="7.12767">
        <ele>939.73</ele>
        <time>2021-06-23T10:07:36Z</time>
      </trkpt>
      <trkpt lat="47.88588" lon="7.12778">
        <ele>940.58</ele>
        <time>2021-06-23T10:07:37Z</time>
      </trkpt>
      <trkpt lat="47.88581" lon="7.12785">
        <ele>941.41</ele>
        <time>2021-06-23T10:07:39Z</time>
      </trkpt>
      <trkpt lat="47.8856" lon="7.12797">
        <ele>944.77</ele>
        <time>2021-06-23T10:07:40Z</time>
      </trkpt>
      <trkpt lat="47.88503" lon="7.12814">
        <ele>943.95</ele>
        <time>2021-06-23T10:07:42Z</time>
      </trkpt>
      <trkpt lat="47.88483" lon="7.12825">
        <ele>942.17</ele>
        <time>2021-06-23T10:07:43Z</time>
      </trkpt>
      <trkpt lat="47.8847" lon="7.12837">
        <ele>941.63</ele>
        <time>2021-06-23T10:07:44Z</time>
      </trkpt>
      <trkpt lat="47.88462" lon="7.12849">
        <ele>940.47</ele>
        <time>2021-06-23T10:07:46Z</time>
      </trkpt>
      <trkpt lat="47.88462" lon="7.12849">
        <ele>940.47</ele>
        <time>2021-06-23T10:07:46Z</time>
      </trkpt>
      <trkpt lat="47.88429" lon="7.12899">
        <ele>939.32</ele>
        <time>2021-06-23T10:07:47Z</time>
      </trkpt>
      <trkpt lat="47.88418" lon="7.12912">
        <ele>940.08</ele>
        <time>2021-06-23T10:07:48Z</time>
      </trkpt>
      <trkpt lat="47.884" lon="7.12921">
        <ele>939.83</ele>
        <time>2021-06-23T10:07:49Z</time>
      </trkpt>
      <trkpt lat="47.88385" lon="7.12922">
        <ele>938.45</ele>
        <time>2021-06-23T10:07:50Z</time>
      </trkpt>
      <trkpt lat="47.8837" lon="7.12919">
        <ele>937.59</ele>
        <time>2021-06-23T10:07:51Z</time>
      </trkpt>
      <trkpt lat="47.88331" lon="7.12898">
        <ele>932.43</ele>
        <time>2021-06-23T10:07:53Z</time>
      </trkpt>
      <trkpt lat="47.88308" lon="7.1289">
        <ele>931.05</ele>
        <time>2021-06-23T10:07:54Z</time>
      </trkpt>
      <trkpt lat="47.88235" lon="7.12872">
        <ele>917.36</ele>
        <time>2021-06-23T10:07:55Z</time>
      </trkpt>
      <trkpt lat="47.88147" lon="7.12833">
        <ele>906.02</ele>
        <time>2021-06-23T10:07:56Z</time>
      </trkpt>
      <trkpt lat="47.88115" lon="7.12831">
        <ele>902.83</ele>
        <time>2021-06-23T10:07:57Z</time>
      </trkpt>
      <trkpt lat="47.88106" lon="7.12834">
        <ele>902.4</ele>
        <time>2021-06-23T10:07:58Z</time>
      </trkpt>
      <trkpt lat="47.881" lon="7.1284">
        <ele>902.7</ele>
        <time>2021-06-23T10:07:59Z</time>
      </trkpt>
      <trkpt lat="47.88086" lon="7.12867">
        <ele>904.66</ele>
        <time>2021-06-23T10:08:01Z</time>
      </trkpt>
      <trkpt lat="47.88079" lon="7.12876">
        <ele>904.19</ele>
        <time>2021-06-23T10:08:02Z</time>
      </trkpt>
      <trkpt lat="47.88067" lon="7.12881">
        <ele>903.55</ele>
        <time>2021-06-23T10:08:03Z</time>
      </trkpt>
      <trkpt lat="47.88056" lon="7.1288">
        <ele>902.74</ele>
        <time>2021-06-23T10:08:04Z</time>
      </trkpt>
      <trkpt lat="47.87992" lon="7.12855">
        <ele>896.22</ele>
        <time>2021-06-23T10:08:05Z</time>
      </trkpt>
      <trkpt lat="47.8798" lon="7.12847">
        <ele>894</ele>
        <time>2021-06-23T10:08:06Z</time>
      </trkpt>
      <trkpt lat="47.87917" lon="7.12788">
        <ele>885.09</ele>
        <time>2021-06-23T10:08:08Z</time>
      </trkpt>
      <trkpt lat="47.87908" lon="7.12775">
        <ele>883.19</ele>
        <time>2021-06-23T10:08:09Z</time>
      </trkpt>
      <trkpt lat="47.87906" lon="7.12759">
        <ele>882.99</ele>
        <time>2021-06-23T10:08:10Z</time>
      </trkpt>
      <trkpt lat="47.87908" lon="7.12743">
        <ele>883.13</ele>
        <time>2021-06-23T10:08:11Z</time>
      </trkpt>
      <trkpt lat="47.87919" lon="7.12731">
        <ele>883.31</ele>
        <time>2021-06-23T10:08:12Z</time>
      </trkpt>
      <trkpt lat="47.87932" lon="7.12725">
        <ele>882.81</ele>
        <time>2021-06-23T10:08:13Z</time>
      </trkpt>
      <trkpt lat="47.87954" lon="7.12723">
        <ele>882.49</ele>
        <time>2021-06-23T10:08:14Z</time>
      </trkpt>
      <trkpt lat="47.87985" lon="7.12727">
        <ele>883.59</ele>
        <time>2021-06-23T10:08:16Z</time>
      </trkpt>
      <trkpt lat="47.87993" lon="7.12725">
        <ele>882.83</ele>
        <time>2021-06-23T10:08:17Z</time>
      </trkpt>
      <trkpt lat="47.87997" lon="7.12714">
        <ele>880.59</ele>
        <time>2021-06-23T10:08:18Z</time>
      </trkpt>
      <trkpt lat="47.87996" lon="7.12704">
        <ele>878.84</ele>
        <time>2021-06-23T10:08:19Z</time>
      </trkpt>
      <trkpt lat="47.87993" lon="7.12697">
        <ele>877.51</ele>
        <time>2021-06-23T10:08:20Z</time>
      </trkpt>
      <trkpt lat="47.87984" lon="7.12693">
        <ele>876.67</ele>
        <time>2021-06-23T10:08:21Z</time>
      </trkpt>
      <trkpt lat="47.87964" lon="7.12692">
        <ele>876.83</ele>
        <time>2021-06-23T10:08:22Z</time>
      </trkpt>
      <trkpt lat="47.87948" lon="7.12689">
        <ele>876.45</ele>
        <time>2021-06-23T10:08:24Z</time>
      </trkpt>
      <trkpt lat="47.87917" lon="7.1267">
        <ele>872.75</ele>
        <time>2021-06-23T10:08:25Z</time>
      </trkpt>
      <trkpt lat="47.87898" lon="7.12665">
        <ele>870.01</ele>
        <time>2021-06-23T10:08:26Z</time>
      </trkpt>
      <trkpt lat="47.87881" lon="7.12663">
        <ele>867.7</ele>
        <time>2021-06-23T10:08:27Z</time>
      </trkpt>
      <trkpt lat="47.87828" lon="7.1267">
        <ele>860.87</ele>
        <time>2021-06-23T10:08:28Z</time>
      </trkpt>
      <trkpt lat="47.87793" lon="7.12667">
        <ele>853.84</ele>
        <time>2021-06-23T10:08:29Z</time>
      </trkpt>
      <trkpt lat="47.8778" lon="7.12668">
        <ele>851.5</ele>
        <time>2021-06-23T10:08:30Z</time>
      </trkpt>
      <trkpt lat="47.87745" lon="7.12685">
        <ele>846.29</ele>
        <time>2021-06-23T10:08:32Z</time>
      </trkpt>
      <trkpt lat="47.87736" lon="7.12687">
        <ele>846.1</ele>
        <time>2021-06-23T10:08:33Z</time>
      </trkpt>
      <trkpt lat="47.87724" lon="7.12687">
        <ele>845.39</ele>
        <time>2021-06-23T10:08:34Z</time>
      </trkpt>
      <trkpt lat="47.87669" lon="7.12666">
        <ele>842.92</ele>
        <time>2021-06-23T10:08:35Z</time>
      </trkpt>
      <trkpt lat="47.87651" lon="7.12664">
        <ele>840.15</ele>
        <time>2021-06-23T10:08:36Z</time>
      </trkpt>
      <trkpt lat="47.87629" lon="7.12665">
        <ele>836.59</ele>
        <time>2021-06-23T10:08:37Z</time>
      </trkpt>
      <trkpt lat="47.87599" lon="7.12675">
        <ele>831.54</ele>
        <time>2021-06-23T10:08:39Z</time>
      </trkpt>
      <trkpt lat="47.87586" lon="7.12686">
        <ele>829.22</ele>
        <time>2021-06-23T10:08:40Z</time>
      </trkpt>
      <trkpt lat="47.8757" lon="7.12703">
        <ele>826.21</ele>
        <time>2021-06-23T10:08:41Z</time>
      </trkpt>
      <trkpt lat="47.87531" lon="7.12756">
        <ele>823.49</ele>
        <time>2021-06-23T10:08:42Z</time>
      </trkpt>
      <trkpt lat="47.8747" lon="7.12796">
        <ele>830.43</ele>
        <time>2021-06-23T10:08:43Z</time>
      </trkpt>
      <trkpt lat="47.87459" lon="7.1281">
        <ele>831.95</ele>
        <time>2021-06-23T10:08:44Z</time>
      </trkpt>
      <trkpt lat="47.87429" lon="7.12859">
        <ele>840.85</ele>
        <time>2021-06-23T10:08:45Z</time>
      </trkpt>
      <trkpt lat="47.8742" lon="7.12863">
        <ele>843.67</ele>
        <time>2021-06-23T10:08:47Z</time>
      </trkpt>
      <trkpt lat="47.8741" lon="7.12863">
        <ele>845.03</ele>
        <time>2021-06-23T10:08:48Z</time>
      </trkpt>
      <trkpt lat="47.874" lon="7.12862">
        <ele>845.57</ele>
        <time>2021-06-23T10:08:49Z</time>
      </trkpt>
      <trkpt lat="47.87378" lon="7.12851">
        <ele>847.75</ele>
        <time>2021-06-23T10:08:50Z</time>
      </trkpt>
      <trkpt lat="47.87364" lon="7.12848">
        <ele>849.66</ele>
        <time>2021-06-23T10:08:51Z</time>
      </trkpt>
      <trkpt lat="47.87355" lon="7.12848">
        <ele>849.95</ele>
        <time>2021-06-23T10:08:52Z</time>
      </trkpt>
      <trkpt lat="47.87345" lon="7.12853">
        <ele>849.63</ele>
        <time>2021-06-23T10:08:53Z</time>
      </trkpt>
      <trkpt lat="47.87335" lon="7.12865">
        <ele>848.64</ele>
        <time>2021-06-23T10:08:55Z</time>
      </trkpt>
      <trkpt lat="47.87323" lon="7.12894">
        <ele>848.67</ele>
        <time>2021-06-23T10:08:56Z</time>
      </trkpt>
      <trkpt lat="47.87318" lon="7.12905">
        <ele>848.94</ele>
        <time>2021-06-23T10:08:57Z</time>
      </trkpt>
      <trkpt lat="47.87311" lon="7.1291">
        <ele>849.72</ele>
        <time>2021-06-23T10:08:58Z</time>
      </trkpt>
      <trkpt lat="47.87304" lon="7.12908">
        <ele>851.35</ele>
        <time>2021-06-23T10:08:59Z</time>
      </trkpt>
      <trkpt lat="47.873" lon="7.12902">
        <ele>853.45</ele>
        <time>2021-06-23T10:09:00Z</time>
      </trkpt>
      <trkpt lat="47.87299" lon="7.12892">
        <ele>854.9</ele>
        <time>2021-06-23T10:09:01Z</time>
      </trkpt>
      <trkpt lat="47.87301" lon="7.12882">
        <ele>854.76</ele>
        <time>2021-06-23T10:09:03Z</time>
      </trkpt>
      <trkpt lat="47.87316" lon="7.12831">
        <ele>854.18</ele>
        <time>2021-06-23T10:09:04Z</time>
      </trkpt>
      <trkpt lat="47.87316" lon="7.12819">
        <ele>855.37</ele>
        <time>2021-06-23T10:09:05Z</time>
      </trkpt>
      <trkpt lat="47.87311" lon="7.12795">
        <ele>856.82</ele>
        <time>2021-06-23T10:09:06Z</time>
      </trkpt>
      <trkpt lat="47.87298" lon="7.12775">
        <ele>857.03</ele>
        <time>2021-06-23T10:09:07Z</time>
      </trkpt>
      <trkpt lat="47.87277" lon="7.12753">
        <ele>855.47</ele>
        <time>2021-06-23T10:09:08Z</time>
      </trkpt>
      <trkpt lat="47.87231" lon="7.12728">
        <ele>859.79</ele>
        <time>2021-06-23T10:09:10Z</time>
      </trkpt>
      <trkpt lat="47.8722" lon="7.12716">
        <ele>859.41</ele>
        <time>2021-06-23T10:09:11Z</time>
      </trkpt>
      <trkpt lat="47.87213" lon="7.12705">
        <ele>859.05</ele>
        <time>2021-06-23T10:09:12Z</time>
      </trkpt>
      <trkpt lat="47.87135" lon="7.1253">
        <ele>864.19</ele>
        <time>2021-06-23T10:09:13Z</time>
      </trkpt>
      <trkpt lat="47.87093" lon="7.12412">
        <ele>864.64</ele>
        <time>2021-06-23T10:09:14Z</time>
      </trkpt>
      <trkpt lat="47.87088" lon="7.12382">
        <ele>863.9</ele>
        <time>2021-06-23T10:09:15Z</time>
      </trkpt>
      <trkpt lat="47.87085" lon="7.12343">
        <ele>859.52</ele>
        <time>2021-06-23T10:09:16Z</time>
      </trkpt>
      <trkpt lat="47.87086" lon="7.12287">
        <ele>856.35</ele>
        <time>2021-06-23T10:09:18Z</time>
      </trkpt>
      <trkpt lat="47.87083" lon="7.1227">
        <ele>855.88</ele>
        <time>2021-06-23T10:09:19Z</time>
      </trkpt>
      <trkpt lat="47.87077" lon="7.12256">
        <ele>854.69</ele>
        <time>2021-06-23T10:09:20Z</time>
      </trkpt>
      <trkpt lat="47.87068" lon="7.12249">
        <ele>854.99</ele>
        <time>2021-06-23T10:09:21Z</time>
      </trkpt>
      <trkpt lat="47.87026" lon="7.12239">
        <ele>862.04</ele>
        <time>2021-06-23T10:09:22Z</time>
      </trkpt>
      <trkpt lat="47.87007" lon="7.12231">
        <ele>863.46</ele>
        <time>2021-06-23T10:09:23Z</time>
      </trkpt>
      <trkpt lat="47.8695" lon="7.12194">
        <ele>857.76</ele>
        <time>2021-06-23T10:09:24Z</time>
      </trkpt>
      <trkpt lat="47.8693" lon="7.12184">
        <ele>855.25</ele>
        <time>2021-06-23T10:09:26Z</time>
      </trkpt>
      <trkpt lat="47.86916" lon="7.12184">
        <ele>854.84</ele>
        <time>2021-06-23T10:09:27Z</time>
      </trkpt>
      <trkpt lat="47.869" lon="7.12191">
        <ele>854.36</ele>
        <time>2021-06-23T10:09:28Z</time>
      </trkpt>
      <trkpt lat="47.86854" lon="7.12256">
        <ele>858.82</ele>
        <time>2021-06-23T10:09:29Z</time>
      </trkpt>
      <trkpt lat="47.86839" lon="7.1227">
        <ele>858.12</ele>
        <time>2021-06-23T10:09:30Z</time>
      </trkpt>
      <trkpt lat="47.86829" lon="7.12274">
        <ele>857.28</ele>
        <time>2021-06-23T10:09:31Z</time>
      </trkpt>
      <trkpt lat="47.86818" lon="7.12273">
        <ele>856.46</ele>
        <time>2021-06-23T10:09:32Z</time>
      </trkpt>
      <trkpt lat="47.86806" lon="7.12268">
        <ele>855.33</ele>
        <time>2021-06-23T10:09:34Z</time>
      </trkpt>
      <trkpt lat="47.86794" lon="7.12258">
        <ele>856.17</ele>
        <time>2021-06-23T10:09:35Z</time>
      </trkpt>
      <trkpt lat="47.86712" lon="7.1217">
        <ele>859.2</ele>
        <time>2021-06-23T10:09:36Z</time>
      </trkpt>
      <trkpt lat="47.86698" lon="7.12164">
        <ele>860.05</ele>
        <time>2021-06-23T10:09:37Z</time>
      </trkpt>
      <trkpt lat="47.86692" lon="7.12163">
        <ele>860.08</ele>
        <time>2021-06-23T10:09:38Z</time>
      </trkpt>
      <trkpt lat="47.86685" lon="7.12166">
        <ele>859.46</ele>
        <time>2021-06-23T10:09:39Z</time>
      </trkpt>
      <trkpt lat="47.86675" lon="7.12178">
        <ele>859.44</ele>
        <time>2021-06-23T10:09:41Z</time>
      </trkpt>
      <trkpt lat="47.8667" lon="7.12198">
        <ele>860.49</ele>
        <time>2021-06-23T10:09:42Z</time>
      </trkpt>
      <trkpt lat="47.86669" lon="7.1221">
        <ele>859.99</ele>
        <time>2021-06-23T10:09:43Z</time>
      </trkpt>
      <trkpt lat="47.86674" lon="7.12251">
        <ele>860.45</ele>
        <time>2021-06-23T10:09:44Z</time>
      </trkpt>
      <trkpt lat="47.86682" lon="7.12277">
        <ele>863.13</ele>
        <time>2021-06-23T10:09:45Z</time>
      </trkpt>
      <trkpt lat="47.86687" lon="7.12289">
        <ele>864.79</ele>
        <time>2021-06-23T10:09:46Z</time>
      </trkpt>
      <trkpt lat="47.86708" lon="7.12318">
        <ele>867.71</ele>
        <time>2021-06-23T10:09:47Z</time>
      </trkpt>
      <trkpt lat="47.86714" lon="7.12334">
        <ele>868.43</ele>
        <time>2021-06-23T10:09:49Z</time>
      </trkpt>
      <trkpt lat="47.86715" lon="7.12344">
        <ele>868.94</ele>
        <time>2021-06-23T10:09:50Z</time>
      </trkpt>
      <trkpt lat="47.86713" lon="7.1236">
        <ele>869.58</ele>
        <time>2021-06-23T10:09:51Z</time>
      </trkpt>
      <trkpt lat="47.86707" lon="7.12371">
        <ele>869.99</ele>
        <time>2021-06-23T10:09:52Z</time>
      </trkpt>
      <trkpt lat="47.86703" lon="7.12376">
        <ele>870.23</ele>
        <time>2021-06-23T10:09:53Z</time>
      </trkpt>
      <trkpt lat="47.86688" lon="7.12387">
        <ele>870.79</ele>
        <time>2021-06-23T10:09:54Z</time>
      </trkpt>
      <trkpt lat="47.86642" lon="7.12408">
        <ele>876.47</ele>
        <time>2021-06-23T10:09:55Z</time>
      </trkpt>
      <trkpt lat="47.86618" lon="7.12415">
        <ele>879.47</ele>
        <time>2021-06-23T10:09:57Z</time>
      </trkpt>
      <trkpt lat="47.86579" lon="7.12421">
        <ele>880</ele>
        <time>2021-06-23T10:09:58Z</time>
      </trkpt>
      <trkpt lat="47.86452" lon="7.12419">
        <ele>894.77</ele>
        <time>2021-06-23T10:09:59Z</time>
      </trkpt>
      <trkpt lat="47.86444" lon="7.12416">
        <ele>896.09</ele>
        <time>2021-06-23T10:10:00Z</time>
      </trkpt>
      <trkpt lat="47.86431" lon="7.12402">
        <ele>897.25</ele>
        <time>2021-06-23T10:10:01Z</time>
      </trkpt>
      <trkpt lat="47.86431" lon="7.12402">
        <ele>897.25</ele>
        <time>2021-06-23T10:10:01Z</time>
      </trkpt>
      <trkpt lat="47.86421" lon="7.12392">
        <ele>898.37</ele>
        <time>2021-06-23T10:10:03Z</time>
      </trkpt>
      <trkpt lat="47.86414" lon="7.12389">
        <ele>899.6</ele>
        <time>2021-06-23T10:10:04Z</time>
      </trkpt>
      <trkpt lat="47.86408" lon="7.1239">
        <ele>901.1</ele>
        <time>2021-06-23T10:10:05Z</time>
      </trkpt>
      <trkpt lat="47.86405" lon="7.12393">
        <ele>902.19</ele>
        <time>2021-06-23T10:10:07Z</time>
      </trkpt>
      <trkpt lat="47.86402" lon="7.12403">
        <ele>904.1</ele>
        <time>2021-06-23T10:10:08Z</time>
      </trkpt>
      <trkpt lat="47.86408" lon="7.12419">
        <ele>905.68</ele>
        <time>2021-06-23T10:10:10Z</time>
      </trkpt>
      <trkpt lat="47.86415" lon="7.12427">
        <ele>906.55</ele>
        <time>2021-06-23T10:10:11Z</time>
      </trkpt>
      <trkpt lat="47.86466" lon="7.12454">
        <ele>901.04</ele>
        <time>2021-06-23T10:10:12Z</time>
      </trkpt>
      <trkpt lat="47.86492" lon="7.12471">
        <ele>901.09</ele>
        <time>2021-06-23T10:10:14Z</time>
      </trkpt>
      <trkpt lat="47.86505" lon="7.12487">
        <ele>902.38</ele>
        <time>2021-06-23T10:10:15Z</time>
      </trkpt>
      <trkpt lat="47.86533" lon="7.12536">
        <ele>909.1</ele>
        <time>2021-06-23T10:10:17Z</time>
      </trkpt>
      <trkpt lat="47.86538" lon="7.1255">
        <ele>910.86</ele>
        <time>2021-06-23T10:10:18Z</time>
      </trkpt>
      <trkpt lat="47.86541" lon="7.12575">
        <ele>912.89</ele>
        <time>2021-06-23T10:10:20Z</time>
      </trkpt>
      <trkpt lat="47.8654" lon="7.12623">
        <ele>913.93</ele>
        <time>2021-06-23T10:10:21Z</time>
      </trkpt>
      <trkpt lat="47.86537" lon="7.12638">
        <ele>914.35</ele>
        <time>2021-06-23T10:10:22Z</time>
      </trkpt>
      <trkpt lat="47.86532" lon="7.12648">
        <ele>914.83</ele>
        <time>2021-06-23T10:10:24Z</time>
      </trkpt>
      <trkpt lat="47.86523" lon="7.12656">
        <ele>916.12</ele>
        <time>2021-06-23T10:10:25Z</time>
      </trkpt>
      <trkpt lat="47.86484" lon="7.12676">
        <ele>922.61</ele>
        <time>2021-06-23T10:10:27Z</time>
      </trkpt>
      <trkpt lat="47.86475" lon="7.12684">
        <ele>923.98</ele>
        <time>2021-06-23T10:10:28Z</time>
      </trkpt>
      <trkpt lat="47.86423" lon="7.12769">
        <ele>930.74</ele>
        <time>2021-06-23T10:10:29Z</time>
      </trkpt>
      <trkpt lat="47.8642" lon="7.12783">
        <ele>930.11</ele>
        <time>2021-06-23T10:10:31Z</time>
      </trkpt>
      <trkpt lat="47.86419" lon="7.12852">
        <ele>925.29</ele>
        <time>2021-06-23T10:10:32Z</time>
      </trkpt>
      <trkpt lat="47.86416" lon="7.12876">
        <ele>925.43</ele>
        <time>2021-06-23T10:10:34Z</time>
      </trkpt>
      <trkpt lat="47.8641" lon="7.12899">
        <ele>925.66</ele>
        <time>2021-06-23T10:10:35Z</time>
      </trkpt>
      <trkpt lat="47.86374" lon="7.13009">
        <ele>923.3</ele>
        <time>2021-06-23T10:10:36Z</time>
      </trkpt>
      <trkpt lat="47.86368" lon="7.13046">
        <ele>920.31</ele>
        <time>2021-06-23T10:10:38Z</time>
      </trkpt>
      <trkpt lat="47.86365" lon="7.13127">
        <ele>918.36</ele>
        <time>2021-06-23T10:10:39Z</time>
      </trkpt>
      <trkpt lat="47.86356" lon="7.13177">
        <ele>913.01</ele>
        <time>2021-06-23T10:10:41Z</time>
      </trkpt>
      <trkpt lat="47.86351" lon="7.13195">
        <ele>911.16</ele>
        <time>2021-06-23T10:10:42Z</time>
      </trkpt>
      <trkpt lat="47.8634" lon="7.13214">
        <ele>909.17</ele>
        <time>2021-06-23T10:10:44Z</time>
      </trkpt>
      <trkpt lat="47.86324" lon="7.1323">
        <ele>907.66</ele>
        <time>2021-06-23T10:10:45Z</time>
      </trkpt>
      <trkpt lat="47.86304" lon="7.13245">
        <ele>905.99</ele>
        <time>2021-06-23T10:10:46Z</time>
      </trkpt>
      <trkpt lat="47.86289" lon="7.1325">
        <ele>903.95</ele>
        <time>2021-06-23T10:10:48Z</time>
      </trkpt>
      <trkpt lat="47.86276" lon="7.13251">
        <ele>903.99</ele>
        <time>2021-06-23T10:10:49Z</time>
      </trkpt>
      <trkpt lat="47.86157" lon="7.13233">
        <ele>905.86</ele>
        <time>2021-06-23T10:10:51Z</time>
      </trkpt>
      <trkpt lat="47.86145" lon="7.13229">
        <ele>906.34</ele>
        <time>2021-06-23T10:10:52Z</time>
      </trkpt>
      <trkpt lat="47.8612" lon="7.13212">
        <ele>914.06</ele>
        <time>2021-06-23T10:10:53Z</time>
      </trkpt>
      <trkpt lat="47.86108" lon="7.13208">
        <ele>916.59</ele>
        <time>2021-06-23T10:10:55Z</time>
      </trkpt>
      <trkpt lat="47.86093" lon="7.13211">
        <ele>918.4</ele>
        <time>2021-06-23T10:10:56Z</time>
      </trkpt>
      <trkpt lat="47.86079" lon="7.13217">
        <ele>919.21</ele>
        <time>2021-06-23T10:10:58Z</time>
      </trkpt>
      <trkpt lat="47.86065" lon="7.13229">
        <ele>919.43</ele>
        <time>2021-06-23T10:10:59Z</time>
      </trkpt>
      <trkpt lat="47.86056" lon="7.13246">
        <ele>918.06</ele>
        <time>2021-06-23T10:11:00Z</time>
      </trkpt>
      <trkpt lat="47.86006" lon="7.13408">
        <ele>910.97</ele>
        <time>2021-06-23T10:11:02Z</time>
      </trkpt>
      <trkpt lat="47.85986" lon="7.13466">
        <ele>911.97</ele>
        <time>2021-06-23T10:11:03Z</time>
      </trkpt>
      <trkpt lat="47.8598" lon="7.13515">
        <ele>912.85</ele>
        <time>2021-06-23T10:11:05Z</time>
      </trkpt>
      <trkpt lat="47.8598" lon="7.13585">
        <ele>904.96</ele>
        <time>2021-06-23T10:11:06Z</time>
      </trkpt>
      <trkpt lat="47.85985" lon="7.13699">
        <ele>908.83</ele>
        <time>2021-06-23T10:11:07Z</time>
      </trkpt>
      <trkpt lat="47.85991" lon="7.1374">
        <ele>906.41</ele>
        <time>2021-06-23T10:11:09Z</time>
      </trkpt>
      <trkpt lat="47.85993" lon="7.13766">
        <ele>903.94</ele>
        <time>2021-06-23T10:11:10Z</time>
      </trkpt>
      <trkpt lat="47.8599" lon="7.13785">
        <ele>904.28</ele>
        <time>2021-06-23T10:11:12Z</time>
      </trkpt>
      <trkpt lat="47.85983" lon="7.13802">
        <ele>906.92</ele>
        <time>2021-06-23T10:11:13Z</time>
      </trkpt>
      <trkpt lat="47.85962" lon="7.13839">
        <ele>913.97</ele>
        <time>2021-06-23T10:11:15Z</time>
      </trkpt>
      <trkpt lat="47.85932" lon="7.13919">
        <ele>920.25</ele>
        <time>2021-06-23T10:11:16Z</time>
      </trkpt>
      <trkpt lat="47.85925" lon="7.13944">
        <ele>921.41</ele>
        <time>2021-06-23T10:11:17Z</time>
      </trkpt>
      <trkpt lat="47.8592" lon="7.13979">
        <ele>921.74</ele>
        <time>2021-06-23T10:11:19Z</time>
      </trkpt>
      <trkpt lat="47.8592" lon="7.14059">
        <ele>916.34</ele>
        <time>2021-06-23T10:11:20Z</time>
      </trkpt>
      <trkpt lat="47.85924" lon="7.1412">
        <ele>919.53</ele>
        <time>2021-06-23T10:11:22Z</time>
      </trkpt>
      <trkpt lat="47.85952" lon="7.14267">
        <ele>906.54</ele>
        <time>2021-06-23T10:11:23Z</time>
      </trkpt>
      <trkpt lat="47.85972" lon="7.14399">
        <ele>902.23</ele>
        <time>2021-06-23T10:11:24Z</time>
      </trkpt>
      <trkpt lat="47.85972" lon="7.1442">
        <ele>900.82</ele>
        <time>2021-06-23T10:11:26Z</time>
      </trkpt>
      <trkpt lat="47.8597" lon="7.14445">
        <ele>902.06</ele>
        <time>2021-06-23T10:11:27Z</time>
      </trkpt>
      <trkpt lat="47.85963" lon="7.14476">
        <ele>906.86</ele>
        <time>2021-06-23T10:11:29Z</time>
      </trkpt>
      <trkpt lat="47.85904" lon="7.14628">
        <ele>917.43</ele>
        <time>2021-06-23T10:11:30Z</time>
      </trkpt>
      <trkpt lat="47.85897" lon="7.14655">
        <ele>915.93</ele>
        <time>2021-06-23T10:11:31Z</time>
      </trkpt>
      <trkpt lat="47.85888" lon="7.14762">
        <ele>909.91</ele>
        <time>2021-06-23T10:11:33Z</time>
      </trkpt>
      <trkpt lat="47.85881" lon="7.14804">
        <ele>907.34</ele>
        <time>2021-06-23T10:11:34Z</time>
      </trkpt>
      <trkpt lat="47.85876" lon="7.14823">
        <ele>906.39</ele>
        <time>2021-06-23T10:11:36Z</time>
      </trkpt>
      <trkpt lat="47.85868" lon="7.14842">
        <ele>905.52</ele>
        <time>2021-06-23T10:11:37Z</time>
      </trkpt>
      <trkpt lat="47.85859" lon="7.14855">
        <ele>904.78</ele>
        <time>2021-06-23T10:11:39Z</time>
      </trkpt>
      <trkpt lat="47.85851" lon="7.14863">
        <ele>904.52</ele>
        <time>2021-06-23T10:11:40Z</time>
      </trkpt>
      <trkpt lat="47.85823" lon="7.14874">
        <ele>903.9</ele>
        <time>2021-06-23T10:11:41Z</time>
      </trkpt>
      <trkpt lat="47.85811" lon="7.14874">
        <ele>903.69</ele>
        <time>2021-06-23T10:11:43Z</time>
      </trkpt>
      <trkpt lat="47.858" lon="7.14869">
        <ele>903.19</ele>
        <time>2021-06-23T10:11:44Z</time>
      </trkpt>
      <trkpt lat="47.85795" lon="7.14864">
        <ele>902.51</ele>
        <time>2021-06-23T10:11:46Z</time>
      </trkpt>
      <trkpt lat="47.85795" lon="7.14864">
        <ele>902.51</ele>
        <time>2021-06-23T10:11:46Z</time>
      </trkpt>
      <trkpt lat="47.85734" lon="7.14807">
        <ele>899.47</ele>
        <time>2021-06-23T10:11:48Z</time>
      </trkpt>
      <trkpt lat="47.8565" lon="7.14741">
        <ele>890.76</ele>
        <time>2021-06-23T10:11:50Z</time>
      </trkpt>
      <trkpt lat="47.85635" lon="7.14725">
        <ele>889.83</ele>
        <time>2021-06-23T10:11:51Z</time>
      </trkpt>
      <trkpt lat="47.85625" lon="7.1471">
        <ele>888.95</ele>
        <time>2021-06-23T10:11:53Z</time>
      </trkpt>
      <trkpt lat="47.85563" lon="7.14594">
        <ele>875.8</ele>
        <time>2021-06-23T10:11:55Z</time>
      </trkpt>
      <trkpt lat="47.85521" lon="7.14505">
        <ele>877.6</ele>
        <time>2021-06-23T10:11:57Z</time>
      </trkpt>
      <trkpt lat="47.8546" lon="7.14363">
        <ele>863.8</ele>
        <time>2021-06-23T10:11:59Z</time>
      </trkpt>
      <trkpt lat="47.85445" lon="7.14324">
        <ele>863.9</ele>
        <time>2021-06-23T10:12:01Z</time>
      </trkpt>
      <trkpt lat="47.85439" lon="7.14312">
        <ele>864.1</ele>
        <time>2021-06-23T10:12:03Z</time>
      </trkpt>
      <trkpt lat="47.85431" lon="7.14307">
        <ele>863.97</ele>
        <time>2021-06-23T10:12:05Z</time>
      </trkpt>
      <trkpt lat="47.85422" lon="7.14304">
        <ele>863.62</ele>
        <time>2021-06-23T10:12:07Z</time>
      </trkpt>
      <trkpt lat="47.85413" lon="7.14305">
        <ele>863.37</ele>
        <time>2021-06-23T10:12:09Z</time>
      </trkpt>
      <trkpt lat="47.85406" lon="7.14308">
        <ele>863.4</ele>
        <time>2021-06-23T10:12:11Z</time>
      </trkpt>
      <trkpt lat="47.8538" lon="7.14345">
        <ele>858.3</ele>
        <time>2021-06-23T10:12:13Z</time>
      </trkpt>
      <trkpt lat="47.8538" lon="7.14345">
        <ele>858.3</ele>
        <time>2021-06-23T10:12:13Z</time>
      </trkpt>
      <trkpt lat="47.85316" lon="7.14438">
        <ele>854.43</ele>
        <time>2021-06-23T10:12:16Z</time>
      </trkpt>
      <trkpt lat="47.85299" lon="7.14467">
        <ele>850.89</ele>
        <time>2021-06-23T10:12:20Z</time>
      </trkpt>
      <trkpt lat="47.85258" lon="7.14543">
        <ele>846.48</ele>
        <time>2021-06-23T10:12:23Z</time>
      </trkpt>
      <trkpt lat="47.85224" lon="7.14586">
        <ele>849.14</ele>
        <time>2021-06-23T10:12:26Z</time>
      </trkpt>
      <trkpt lat="47.85094" lon="7.14726">
        <ele>843.53</ele>
        <time>2021-06-23T10:12:29Z</time>
      </trkpt>
      <trkpt lat="47.85039" lon="7.14766">
        <ele>833.91</ele>
        <time>2021-06-23T10:12:33Z</time>
      </trkpt>
      <trkpt lat="47.84993" lon="7.14794">
        <ele>831.33</ele>
        <time>2021-06-23T10:12:36Z</time>
      </trkpt>
      <trkpt lat="47.84993" lon="7.14794">
        <ele>831.33</ele>
        <time>2021-06-23T10:12:36Z</time>
      </trkpt>
      <trkpt lat="47.84976" lon="7.14804">
        <ele>828.74</ele>
        <time>2021-06-23T10:12:37Z</time>
      </trkpt>
      <trkpt lat="47.84967" lon="7.14808">
        <ele>827.64</ele>
        <time>2021-06-23T10:12:39Z</time>
      </trkpt>
      <trkpt lat="47.8496" lon="7.14809">
        <ele>826.65</ele>
        <time>2021-06-23T10:12:40Z</time>
      </trkpt>
      <trkpt lat="47.84948" lon="7.14803">
        <ele>825.93</ele>
        <time>2021-06-23T10:12:41Z</time>
      </trkpt>
      <trkpt lat="47.84942" lon="7.14796">
        <ele>826.24</ele>
        <time>2021-06-23T10:12:42Z</time>
      </trkpt>
      <trkpt lat="47.84937" lon="7.14783">
        <ele>826.92</ele>
        <time>2021-06-23T10:12:44Z</time>
      </trkpt>
      <trkpt lat="47.84918" lon="7.14694">
        <ele>831.79</ele>
        <time>2021-06-23T10:12:45Z</time>
      </trkpt>
      <trkpt lat="47.84908" lon="7.14669">
        <ele>835.25</ele>
        <time>2021-06-23T10:12:46Z</time>
      </trkpt>
      <trkpt lat="47.84898" lon="7.14654">
        <ele>835.85</ele>
        <time>2021-06-23T10:12:47Z</time>
      </trkpt>
      <trkpt lat="47.84763" lon="7.14496">
        <ele>831.86</ele>
        <time>2021-06-23T10:12:49Z</time>
      </trkpt>
      <trkpt lat="47.84699" lon="7.14398">
        <ele>837.3</ele>
        <time>2021-06-23T10:12:50Z</time>
      </trkpt>
      <trkpt lat="47.84692" lon="7.14381">
        <ele>839.27</ele>
        <time>2021-06-23T10:12:51Z</time>
      </trkpt>
      <trkpt lat="47.84685" lon="7.14352">
        <ele>844.19</ele>
        <time>2021-06-23T10:12:53Z</time>
      </trkpt>
      <trkpt lat="47.84678" lon="7.14331">
        <ele>847.44</ele>
        <time>2021-06-23T10:12:54Z</time>
      </trkpt>
      <trkpt lat="47.84671" lon="7.14321">
        <ele>847.59</ele>
        <time>2021-06-23T10:12:55Z</time>
      </trkpt>
      <trkpt lat="47.84661" lon="7.14316">
        <ele>847.04</ele>
        <time>2021-06-23T10:12:56Z</time>
      </trkpt>
      <trkpt lat="47.84649" lon="7.14317">
        <ele>845.41</ele>
        <time>2021-06-23T10:12:58Z</time>
      </trkpt>
      <trkpt lat="47.84611" lon="7.14336">
        <ele>838.7</ele>
        <time>2021-06-23T10:12:59Z</time>
      </trkpt>
      <trkpt lat="47.84601" lon="7.14337">
        <ele>838.63</ele>
        <time>2021-06-23T10:13:00Z</time>
      </trkpt>
      <trkpt lat="47.84569" lon="7.14329">
        <ele>839.28</ele>
        <time>2021-06-23T10:13:01Z</time>
      </trkpt>
      <trkpt lat="47.84561" lon="7.14331">
        <ele>839.07</ele>
        <time>2021-06-23T10:13:03Z</time>
      </trkpt>
      <trkpt lat="47.84554" lon="7.14337">
        <ele>838.99</ele>
        <time>2021-06-23T10:13:04Z</time>
      </trkpt>
      <trkpt lat="47.84548" lon="7.14321">
        <ele>839.55</ele>
        <time>2021-06-23T10:13:06Z</time>
      </trkpt>
      <trkpt lat="47.8455" lon="7.14316">
        <ele>839.35</ele>
        <time>2021-06-23T10:13:08Z</time>
      </trkpt>
      <trkpt lat="47.84555" lon="7.14308">
        <ele>839.02</ele>
        <time>2021-06-23T10:13:09Z</time>
      </trkpt>
      <trkpt lat="47.84598" lon="7.143">
        <ele>844.64</ele>
        <time>2021-06-23T10:13:11Z</time>
      </trkpt>
      <trkpt lat="47.84607" lon="7.14295">
        <ele>849.29</ele>
        <time>2021-06-23T10:13:13Z</time>
      </trkpt>
      <trkpt lat="47.84607" lon="7.14295">
        <ele>849.29</ele>
        <time>2021-06-23T10:13:13Z</time>
      </trkpt>
      <trkpt lat="47.84598" lon="7.143">
        <ele>844.64</ele>
        <time>2021-06-23T10:13:15Z</time>
      </trkpt>
      <trkpt lat="47.84555" lon="7.14308">
        <ele>839.02</ele>
        <time>2021-06-23T10:13:16Z</time>
      </trkpt>
      <trkpt lat="47.8455" lon="7.14316">
        <ele>839.35</ele>
        <time>2021-06-23T10:13:18Z</time>
      </trkpt>
      <trkpt lat="47.84548" lon="7.14321">
        <ele>839.55</ele>
        <time>2021-06-23T10:13:20Z</time>
      </trkpt>
      <trkpt lat="47.84554" lon="7.14337">
        <ele>838.99</ele>
        <time>2021-06-23T10:13:22Z</time>
      </trkpt>
      <trkpt lat="47.84547" lon="7.14345">
        <ele>839.44</ele>
        <time>2021-06-23T10:13:23Z</time>
      </trkpt>
      <trkpt lat="47.84543" lon="7.14353">
        <ele>839.89</ele>
        <time>2021-06-23T10:13:24Z</time>
      </trkpt>
      <trkpt lat="47.84539" lon="7.14369">
        <ele>840.41</ele>
        <time>2021-06-23T10:13:25Z</time>
      </trkpt>
      <trkpt lat="47.84524" lon="7.14452">
        <ele>839.45</ele>
        <time>2021-06-23T10:13:26Z</time>
      </trkpt>
      <trkpt lat="47.84518" lon="7.14473">
        <ele>839.99</ele>
        <time>2021-06-23T10:13:27Z</time>
      </trkpt>
      <trkpt lat="47.84488" lon="7.14553">
        <ele>845.35</ele>
        <time>2021-06-23T10:13:28Z</time>
      </trkpt>
      <trkpt lat="47.84477" lon="7.14569">
        <ele>846.09</ele>
        <time>2021-06-23T10:13:29Z</time>
      </trkpt>
      <trkpt lat="47.84467" lon="7.14576">
        <ele>846.94</ele>
        <time>2021-06-23T10:13:30Z</time>
      </trkpt>
      <trkpt lat="47.84457" lon="7.14579">
        <ele>848.02</ele>
        <time>2021-06-23T10:13:30Z</time>
      </trkpt>
      <trkpt lat="47.84377" lon="7.1458">
        <ele>854.19</ele>
        <time>2021-06-23T10:13:31Z</time>
      </trkpt>
      <trkpt lat="47.8436" lon="7.14583">
        <ele>851.83</ele>
        <time>2021-06-23T10:13:32Z</time>
      </trkpt>
      <trkpt lat="47.8434" lon="7.14592">
        <ele>848.95</ele>
        <time>2021-06-23T10:13:33Z</time>
      </trkpt>
      <trkpt lat="47.84334" lon="7.14593">
        <ele>848.35</ele>
        <time>2021-06-23T10:13:34Z</time>
      </trkpt>
      <trkpt lat="47.84324" lon="7.14591">
        <ele>847.47</ele>
        <time>2021-06-23T10:13:35Z</time>
      </trkpt>
      <trkpt lat="47.84317" lon="7.14587">
        <ele>846.95</ele>
        <time>2021-06-23T10:13:36Z</time>
      </trkpt>
      <trkpt lat="47.8431" lon="7.14579">
        <ele>846.56</ele>
        <time>2021-06-23T10:13:37Z</time>
      </trkpt>
      <trkpt lat="47.84306" lon="7.14566">
        <ele>846.02</ele>
        <time>2021-06-23T10:13:38Z</time>
      </trkpt>
      <trkpt lat="47.84306" lon="7.14566">
        <ele>846.02</ele>
        <time>2021-06-23T10:13:38Z</time>
      </trkpt>
      <trkpt lat="47.84304" lon="7.14561">
        <ele>845.48</ele>
        <time>2021-06-23T10:13:39Z</time>
      </trkpt>
      <trkpt lat="47.84304" lon="7.14549">
        <ele>845.34</ele>
        <time>2021-06-23T10:13:40Z</time>
      </trkpt>
      <trkpt lat="47.84306" lon="7.14537">
        <ele>846.13</ele>
        <time>2021-06-23T10:13:42Z</time>
      </trkpt>
      <trkpt lat="47.84355" lon="7.14397">
        <ele>839.71</ele>
        <time>2021-06-23T10:13:43Z</time>
      </trkpt>
      <trkpt lat="47.84369" lon="7.1434">
        <ele>834.9</ele>
        <time>2021-06-23T10:13:44Z</time>
      </trkpt>
      <trkpt lat="47.84378" lon="7.14316">
        <ele>832.35</ele>
        <time>2021-06-23T10:13:45Z</time>
      </trkpt>
      <trkpt lat="47.84387" lon="7.143">
        <ele>831.25</ele>
        <time>2021-06-23T10:13:46Z</time>
      </trkpt>
      <trkpt lat="47.84402" lon="7.14277">
        <ele>828.49</ele>
        <time>2021-06-23T10:13:47Z</time>
      </trkpt>
      <trkpt lat="47.84416" lon="7.14264">
        <ele>829.33</ele>
        <time>2021-06-23T10:13:48Z</time>
      </trkpt>
      <trkpt lat="47.84444" lon="7.14248">
        <ele>828.56</ele>
        <time>2021-06-23T10:13:49Z</time>
      </trkpt>
      <trkpt lat="47.84493" lon="7.14229">
        <ele>827.72</ele>
        <time>2021-06-23T10:13:50Z</time>
      </trkpt>
      <trkpt lat="47.84504" lon="7.14222">
        <ele>827.71</ele>
        <time>2021-06-23T10:13:51Z</time>
      </trkpt>
      <trkpt lat="47.84521" lon="7.14204">
        <ele>828.41</ele>
        <time>2021-06-23T10:13:52Z</time>
      </trkpt>
      <trkpt lat="47.84526" lon="7.14194">
        <ele>828.49</ele>
        <time>2021-06-23T10:13:54Z</time>
      </trkpt>
      <trkpt lat="47.84538" lon="7.14158">
        <ele>825.54</ele>
        <time>2021-06-23T10:13:55Z</time>
      </trkpt>
      <trkpt lat="47.84541" lon="7.1414">
        <ele>822.16</ele>
        <time>2021-06-23T10:13:56Z</time>
      </trkpt>
      <trkpt lat="47.84555" lon="7.14007">
        <ele>811.68</ele>
        <time>2021-06-23T10:13:57Z</time>
      </trkpt>
      <trkpt lat="47.84566" lon="7.1397">
        <ele>813.28</ele>
        <time>2021-06-23T10:13:58Z</time>
      </trkpt>
      <trkpt lat="47.84566" lon="7.13962">
        <ele>812.37</ele>
        <time>2021-06-23T10:13:59Z</time>
      </trkpt>
      <trkpt lat="47.84564" lon="7.13954">
        <ele>810.84</ele>
        <time>2021-06-23T10:14:00Z</time>
      </trkpt>
      <trkpt lat="47.8456" lon="7.13949">
        <ele>809.02</ele>
        <time>2021-06-23T10:14:01Z</time>
      </trkpt>
      <trkpt lat="47.84556" lon="7.13946">
        <ele>807.11</ele>
        <time>2021-06-23T10:14:02Z</time>
      </trkpt>
      <trkpt lat="47.84546" lon="7.13953">
        <ele>803.33</ele>
        <time>2021-06-23T10:14:03Z</time>
      </trkpt>
      <trkpt lat="47.8454" lon="7.13978">
        <ele>803.47</ele>
        <time>2021-06-23T10:14:04Z</time>
      </trkpt>
      <trkpt lat="47.8454" lon="7.13978">
        <ele>803.47</ele>
        <time>2021-06-23T10:14:04Z</time>
      </trkpt>
      <trkpt lat="47.84531" lon="7.14026">
        <ele>804.03</ele>
        <time>2021-06-23T10:14:06Z</time>
      </trkpt>
      <trkpt lat="47.84522" lon="7.14063">
        <ele>803.82</ele>
        <time>2021-06-23T10:14:07Z</time>
      </trkpt>
      <trkpt lat="47.84511" lon="7.14091">
        <ele>803.99</ele>
        <time>2021-06-23T10:14:08Z</time>
      </trkpt>
      <trkpt lat="47.845" lon="7.14106">
        <ele>802.52</ele>
        <time>2021-06-23T10:14:09Z</time>
      </trkpt>
      <trkpt lat="47.84489" lon="7.14113">
        <ele>801.31</ele>
        <time>2021-06-23T10:14:10Z</time>
      </trkpt>
      <trkpt lat="47.84449" lon="7.14112">
        <ele>795.63</ele>
        <time>2021-06-23T10:14:11Z</time>
      </trkpt>
      <trkpt lat="47.84421" lon="7.14114">
        <ele>793.89</ele>
        <time>2021-06-23T10:14:12Z</time>
      </trkpt>
      <trkpt lat="47.84364" lon="7.14123">
        <ele>781.58</ele>
        <time>2021-06-23T10:14:13Z</time>
      </trkpt>
      <trkpt lat="47.84344" lon="7.14129">
        <ele>777.84</ele>
        <time>2021-06-23T10:14:14Z</time>
      </trkpt>
      <trkpt lat="47.84322" lon="7.14146">
        <ele>775.68</ele>
        <time>2021-06-23T10:14:15Z</time>
      </trkpt>
      <trkpt lat="47.84229" lon="7.14269">
        <ele>767.83</ele>
        <time>2021-06-23T10:14:16Z</time>
      </trkpt>
      <trkpt lat="47.84172" lon="7.14324">
        <ele>761.48</ele>
        <time>2021-06-23T10:14:17Z</time>
      </trkpt>
      <trkpt lat="47.84131" lon="7.14354">
        <ele>753.62</ele>
        <time>2021-06-23T10:14:18Z</time>
      </trkpt>
      <trkpt lat="47.84112" lon="7.14374">
        <ele>754.4</ele>
        <time>2021-06-23T10:14:19Z</time>
      </trkpt>
      <trkpt lat="47.84091" lon="7.14401">
        <ele>752.44</ele>
        <time>2021-06-23T10:14:20Z</time>
      </trkpt>
      <trkpt lat="47.84078" lon="7.14424">
        <ele>751.06</ele>
        <time>2021-06-23T10:14:21Z</time>
      </trkpt>
      <trkpt lat="47.84069" lon="7.14446">
        <ele>748.78</ele>
        <time>2021-06-23T10:14:22Z</time>
      </trkpt>
      <trkpt lat="47.84068" lon="7.14472">
        <ele>748.55</ele>
        <time>2021-06-23T10:14:24Z</time>
      </trkpt>
      <trkpt lat="47.84071" lon="7.14482">
        <ele>748.12</ele>
        <time>2021-06-23T10:14:25Z</time>
      </trkpt>
      <trkpt lat="47.84076" lon="7.14491">
        <ele>748.68</ele>
        <time>2021-06-23T10:14:26Z</time>
      </trkpt>
      <trkpt lat="47.84105" lon="7.14508">
        <ele>757.2</ele>
        <time>2021-06-23T10:14:27Z</time>
      </trkpt>
      <trkpt lat="47.84114" lon="7.1452">
        <ele>758.68</ele>
        <time>2021-06-23T10:14:28Z</time>
      </trkpt>
      <trkpt lat="47.8412" lon="7.14534">
        <ele>758.42</ele>
        <time>2021-06-23T10:14:29Z</time>
      </trkpt>
      <trkpt lat="47.84123" lon="7.14552">
        <ele>755.76</ele>
        <time>2021-06-23T10:14:30Z</time>
      </trkpt>
      <trkpt lat="47.84129" lon="7.14632">
        <ele>745.12</ele>
        <time>2021-06-23T10:14:31Z</time>
      </trkpt>
      <trkpt lat="47.8413" lon="7.14663">
        <ele>743.28</ele>
        <time>2021-06-23T10:14:32Z</time>
      </trkpt>
      <trkpt lat="47.84127" lon="7.14681">
        <ele>742.9</ele>
        <time>2021-06-23T10:14:33Z</time>
      </trkpt>
      <trkpt lat="47.84087" lon="7.14782">
        <ele>730.28</ele>
        <time>2021-06-23T10:14:34Z</time>
      </trkpt>
      <trkpt lat="47.84068" lon="7.14841">
        <ele>726.33</ele>
        <time>2021-06-23T10:14:35Z</time>
      </trkpt>
      <trkpt lat="47.8405" lon="7.14909">
        <ele>726.48</ele>
        <time>2021-06-23T10:14:36Z</time>
      </trkpt>
      <trkpt lat="47.84022" lon="7.15028">
        <ele>714.41</ele>
        <time>2021-06-23T10:14:37Z</time>
      </trkpt>
      <trkpt lat="47.84021" lon="7.15044">
        <ele>713.23</ele>
        <time>2021-06-23T10:14:38Z</time>
      </trkpt>
      <trkpt lat="47.84023" lon="7.15057">
        <ele>713.39</ele>
        <time>2021-06-23T10:14:39Z</time>
      </trkpt>
      <trkpt lat="47.84035" lon="7.15079">
        <ele>714.95</ele>
        <time>2021-06-23T10:14:40Z</time>
      </trkpt>
      <trkpt lat="47.84044" lon="7.15086">
        <ele>715.79</ele>
        <time>2021-06-23T10:14:42Z</time>
      </trkpt>
      <trkpt lat="47.84077" lon="7.15096">
        <ele>721.7</ele>
        <time>2021-06-23T10:14:43Z</time>
      </trkpt>
      <trkpt lat="47.84085" lon="7.151">
        <ele>722.44</ele>
        <time>2021-06-23T10:14:44Z</time>
      </trkpt>
      <trkpt lat="47.84091" lon="7.15108">
        <ele>722.09</ele>
        <time>2021-06-23T10:14:45Z</time>
      </trkpt>
      <trkpt lat="47.84097" lon="7.15121">
        <ele>720.04</ele>
        <time>2021-06-23T10:14:46Z</time>
      </trkpt>
      <trkpt lat="47.84104" lon="7.15151">
        <ele>714.16</ele>
        <time>2021-06-23T10:14:47Z</time>
      </trkpt>
      <trkpt lat="47.84108" lon="7.15184">
        <ele>709.62</ele>
        <time>2021-06-23T10:14:48Z</time>
      </trkpt>
      <trkpt lat="47.84115" lon="7.15304">
        <ele>693.61</ele>
        <time>2021-06-23T10:14:49Z</time>
      </trkpt>
      <trkpt lat="47.84123" lon="7.15334">
        <ele>692.93</ele>
        <time>2021-06-23T10:14:50Z</time>
      </trkpt>
      <trkpt lat="47.84132" lon="7.15359">
        <ele>692.14</ele>
        <time>2021-06-23T10:14:51Z</time>
      </trkpt>
      <trkpt lat="47.84133" lon="7.15372">
        <ele>689.95</ele>
        <time>2021-06-23T10:14:52Z</time>
      </trkpt>
      <trkpt lat="47.84132" lon="7.15379">
        <ele>688.05</ele>
        <time>2021-06-23T10:14:53Z</time>
      </trkpt>
      <trkpt lat="47.84129" lon="7.15385">
        <ele>685.98</ele>
        <time>2021-06-23T10:14:54Z</time>
      </trkpt>
      <trkpt lat="47.8412" lon="7.15388">
        <ele>682.79</ele>
        <time>2021-06-23T10:14:55Z</time>
      </trkpt>
      <trkpt lat="47.84113" lon="7.15382">
        <ele>681.75</ele>
        <time>2021-06-23T10:14:56Z</time>
      </trkpt>
      <trkpt lat="47.84109" lon="7.15373">
        <ele>682.39</ele>
        <time>2021-06-23T10:14:57Z</time>
      </trkpt>
      <trkpt lat="47.84105" lon="7.15339">
        <ele>686.28</ele>
        <time>2021-06-23T10:14:58Z</time>
      </trkpt>
      <trkpt lat="47.84088" lon="7.1527">
        <ele>687.46</ele>
        <time>2021-06-23T10:15:00Z</time>
      </trkpt>
      <trkpt lat="47.84085" lon="7.1525">
        <ele>688.56</ele>
        <time>2021-06-23T10:15:01Z</time>
      </trkpt>
      <trkpt lat="47.84083" lon="7.15225">
        <ele>692.46</ele>
        <time>2021-06-23T10:15:02Z</time>
      </trkpt>
      <trkpt lat="47.8408" lon="7.15215">
        <ele>693.87</ele>
        <time>2021-06-23T10:15:03Z</time>
      </trkpt>
      <trkpt lat="47.84074" lon="7.15209">
        <ele>693.95</ele>
        <time>2021-06-23T10:15:04Z</time>
      </trkpt>
      <trkpt lat="47.84069" lon="7.15207">
        <ele>693.04</ele>
        <time>2021-06-23T10:15:05Z</time>
      </trkpt>
      <trkpt lat="47.84065" lon="7.15208">
        <ele>691.52</ele>
        <time>2021-06-23T10:15:06Z</time>
      </trkpt>
      <trkpt lat="47.84062" lon="7.15212">
        <ele>689.64</ele>
        <time>2021-06-23T10:15:07Z</time>
      </trkpt>
      <trkpt lat="47.84059" lon="7.15221">
        <ele>686.27</ele>
        <time>2021-06-23T10:15:08Z</time>
      </trkpt>
      <trkpt lat="47.84059" lon="7.15232">
        <ele>683.55</ele>
        <time>2021-06-23T10:15:09Z</time>
      </trkpt>
      <trkpt lat="47.84072" lon="7.15284">
        <ele>680.54</ele>
        <time>2021-06-23T10:15:10Z</time>
      </trkpt>
      <trkpt lat="47.84074" lon="7.15302">
        <ele>680.26</ele>
        <time>2021-06-23T10:15:11Z</time>
      </trkpt>
      <trkpt lat="47.84076" lon="7.15369">
        <ele>673.08</ele>
        <time>2021-06-23T10:15:12Z</time>
      </trkpt>
      <trkpt lat="47.84081" lon="7.15398">
        <ele>671.36</ele>
        <time>2021-06-23T10:15:13Z</time>
      </trkpt>
      <trkpt lat="47.84092" lon="7.15426">
        <ele>670.41</ele>
        <time>2021-06-23T10:15:14Z</time>
      </trkpt>
      <trkpt lat="47.84101" lon="7.1544">
        <ele>669.35</ele>
        <time>2021-06-23T10:15:15Z</time>
      </trkpt>
      <trkpt lat="47.84133" lon="7.15469">
        <ele>670.61</ele>
        <time>2021-06-23T10:15:16Z</time>
      </trkpt>
      <trkpt lat="47.84137" lon="7.15476">
        <ele>669.99</ele>
        <time>2021-06-23T10:15:18Z</time>
      </trkpt>
      <trkpt lat="47.84137" lon="7.15486">
        <ele>668.17</ele>
        <time>2021-06-23T10:15:19Z</time>
      </trkpt>
      <trkpt lat="47.84134" lon="7.15494">
        <ele>666.37</ele>
        <time>2021-06-23T10:15:20Z</time>
      </trkpt>
      <trkpt lat="47.8413" lon="7.15497">
        <ele>665.15</ele>
        <time>2021-06-23T10:15:21Z</time>
      </trkpt>
      <trkpt lat="47.84124" lon="7.15497">
        <ele>664.29</ele>
        <time>2021-06-23T10:15:22Z</time>
      </trkpt>
      <trkpt lat="47.84118" lon="7.15493">
        <ele>663.87</ele>
        <time>2021-06-23T10:15:23Z</time>
      </trkpt>
      <trkpt lat="47.84069" lon="7.15425">
        <ele>666.65</ele>
        <time>2021-06-23T10:15:24Z</time>
      </trkpt>
      <trkpt lat="47.84035" lon="7.1539">
        <ele>660.6</ele>
        <time>2021-06-23T10:15:25Z</time>
      </trkpt>
      <trkpt lat="47.84023" lon="7.15364">
        <ele>660.09</ele>
        <time>2021-06-23T10:15:26Z</time>
      </trkpt>
      <trkpt lat="47.8401" lon="7.15315">
        <ele>660.57</ele>
        <time>2021-06-23T10:15:27Z</time>
      </trkpt>
      <trkpt lat="47.84004" lon="7.15302">
        <ele>660.23</ele>
        <time>2021-06-23T10:15:28Z</time>
      </trkpt>
      <trkpt lat="47.83996" lon="7.15295">
        <ele>659.2</ele>
        <time>2021-06-23T10:15:29Z</time>
      </trkpt>
      <trkpt lat="47.83986" lon="7.15293">
        <ele>658.15</ele>
        <time>2021-06-23T10:15:30Z</time>
      </trkpt>
      <trkpt lat="47.83971" lon="7.15296">
        <ele>655.5</ele>
        <time>2021-06-23T10:15:31Z</time>
      </trkpt>
      <trkpt lat="47.83934" lon="7.15323">
        <ele>643.2</ele>
        <time>2021-06-23T10:15:32Z</time>
      </trkpt>
      <trkpt lat="47.83923" lon="7.15326">
        <ele>640.6</ele>
        <time>2021-06-23T10:15:33Z</time>
      </trkpt>
      <trkpt lat="47.83914" lon="7.15323">
        <ele>639.37</ele>
        <time>2021-06-23T10:15:34Z</time>
      </trkpt>
      <trkpt lat="47.83901" lon="7.15315">
        <ele>638.57</ele>
        <time>2021-06-23T10:15:35Z</time>
      </trkpt>
      <trkpt lat="47.83852" lon="7.15276">
        <ele>635.62</ele>
        <time>2021-06-23T10:15:37Z</time>
      </trkpt>
      <trkpt lat="47.83819" lon="7.15234">
        <ele>630.74</ele>
        <time>2021-06-23T10:15:38Z</time>
      </trkpt>
      <trkpt lat="47.83802" lon="7.152">
        <ele>625.59</ele>
        <time>2021-06-23T10:15:39Z</time>
      </trkpt>
      <trkpt lat="47.83799" lon="7.15188">
        <ele>625.35</ele>
        <time>2021-06-23T10:15:40Z</time>
      </trkpt>
      <trkpt lat="47.83798" lon="7.15173">
        <ele>626.22</ele>
        <time>2021-06-23T10:15:41Z</time>
      </trkpt>
      <trkpt lat="47.83798" lon="7.15158">
        <ele>627.32</ele>
        <time>2021-06-23T10:15:42Z</time>
      </trkpt>
      <trkpt lat="47.83805" lon="7.15123">
        <ele>628.47</ele>
        <time>2021-06-23T10:15:43Z</time>
      </trkpt>
      <trkpt lat="47.83805" lon="7.15111">
        <ele>626.83</ele>
        <time>2021-06-23T10:15:44Z</time>
      </trkpt>
      <trkpt lat="47.838" lon="7.15097">
        <ele>624.22</ele>
        <time>2021-06-23T10:15:45Z</time>
      </trkpt>
      <trkpt lat="47.83797" lon="7.15094">
        <ele>622.91</ele>
        <time>2021-06-23T10:15:46Z</time>
      </trkpt>
      <trkpt lat="47.8379" lon="7.15093">
        <ele>620.7</ele>
        <time>2021-06-23T10:15:47Z</time>
      </trkpt>
      <trkpt lat="47.83786" lon="7.15096">
        <ele>619.58</ele>
        <time>2021-06-23T10:15:48Z</time>
      </trkpt>
      <trkpt lat="47.83782" lon="7.15103">
        <ele>618.84</ele>
        <time>2021-06-23T10:15:49Z</time>
      </trkpt>
      <trkpt lat="47.83781" lon="7.15112">
        <ele>618.99</ele>
        <time>2021-06-23T10:15:50Z</time>
      </trkpt>
      <trkpt lat="47.83779" lon="7.15222">
        <ele>616.28</ele>
        <time>2021-06-23T10:15:51Z</time>
      </trkpt>
      <trkpt lat="47.83781" lon="7.15253">
        <ele>616.84</ele>
        <time>2021-06-23T10:15:52Z</time>
      </trkpt>
      <trkpt lat="47.83786" lon="7.15294">
        <ele>616.37</ele>
        <time>2021-06-23T10:15:53Z</time>
      </trkpt>
      <trkpt lat="47.83797" lon="7.15336">
        <ele>613.78</ele>
        <time>2021-06-23T10:15:55Z</time>
      </trkpt>
      <trkpt lat="47.83838" lon="7.15447">
        <ele>606.15</ele>
        <time>2021-06-23T10:15:56Z</time>
      </trkpt>
      <trkpt lat="47.83843" lon="7.1548">
        <ele>604.12</ele>
        <time>2021-06-23T10:15:57Z</time>
      </trkpt>
      <trkpt lat="47.83841" lon="7.15512">
        <ele>601.61</ele>
        <time>2021-06-23T10:15:58Z</time>
      </trkpt>
      <trkpt lat="47.83837" lon="7.15556">
        <ele>596.96</ele>
        <time>2021-06-23T10:15:59Z</time>
      </trkpt>
      <trkpt lat="47.83836" lon="7.15592">
        <ele>593.43</ele>
        <time>2021-06-23T10:16:00Z</time>
      </trkpt>
      <trkpt lat="47.83838" lon="7.15613">
        <ele>590.81</ele>
        <time>2021-06-23T10:16:01Z</time>
      </trkpt>
      <trkpt lat="47.83841" lon="7.15629">
        <ele>589.57</ele>
        <time>2021-06-23T10:16:02Z</time>
      </trkpt>
      <trkpt lat="47.83849" lon="7.15653">
        <ele>588.12</ele>
        <time>2021-06-23T10:16:03Z</time>
      </trkpt>
      <trkpt lat="47.83858" lon="7.15669">
        <ele>588.13</ele>
        <time>2021-06-23T10:16:04Z</time>
      </trkpt>
      <trkpt lat="47.83877" lon="7.15694">
        <ele>591.73</ele>
        <time>2021-06-23T10:16:05Z</time>
      </trkpt>
      <trkpt lat="47.83881" lon="7.15703">
        <ele>591.77</ele>
        <time>2021-06-23T10:16:06Z</time>
      </trkpt>
      <trkpt lat="47.83882" lon="7.1571">
        <ele>591.13</ele>
        <time>2021-06-23T10:16:07Z</time>
      </trkpt>
      <trkpt lat="47.83881" lon="7.15718">
        <ele>589.45</ele>
        <time>2021-06-23T10:16:08Z</time>
      </trkpt>
      <trkpt lat="47.83878" lon="7.15724">
        <ele>586.07</ele>
        <time>2021-06-23T10:16:09Z</time>
      </trkpt>
      <trkpt lat="47.83878" lon="7.15724">
        <ele>586.07</ele>
        <time>2021-06-23T10:16:09Z</time>
      </trkpt>
      <trkpt lat="47.83868" lon="7.15726">
        <ele>584.47</ele>
        <time>2021-06-23T10:16:10Z</time>
      </trkpt>
      <trkpt lat="47.83862" lon="7.15722">
        <ele>583.27</ele>
        <time>2021-06-23T10:16:11Z</time>
      </trkpt>
      <trkpt lat="47.83831" lon="7.15676">
        <ele>581.96</ele>
        <time>2021-06-23T10:16:12Z</time>
      </trkpt>
      <trkpt lat="47.83812" lon="7.15655">
        <ele>581.25</ele>
        <time>2021-06-23T10:16:13Z</time>
      </trkpt>
      <trkpt lat="47.83801" lon="7.15647">
        <ele>580.86</ele>
        <time>2021-06-23T10:16:15Z</time>
      </trkpt>
      <trkpt lat="47.83788" lon="7.15642">
        <ele>580.38</ele>
        <time>2021-06-23T10:16:16Z</time>
      </trkpt>
      <trkpt lat="47.83774" lon="7.15642">
        <ele>579.8</ele>
        <time>2021-06-23T10:16:17Z</time>
      </trkpt>
      <trkpt lat="47.83759" lon="7.15649">
        <ele>579.64</ele>
        <time>2021-06-23T10:16:18Z</time>
      </trkpt>
      <trkpt lat="47.83749" lon="7.15658">
        <ele>579.04</ele>
        <time>2021-06-23T10:16:19Z</time>
      </trkpt>
      <trkpt lat="47.83723" lon="7.15702">
        <ele>574.73</ele>
        <time>2021-06-23T10:16:20Z</time>
      </trkpt>
      <trkpt lat="47.83715" lon="7.15709">
        <ele>574.47</ele>
        <time>2021-06-23T10:16:21Z</time>
      </trkpt>
      <trkpt lat="47.837" lon="7.1571">
        <ele>574.42</ele>
        <time>2021-06-23T10:16:22Z</time>
      </trkpt>
      <trkpt lat="47.8369" lon="7.15706">
        <ele>574.52</ele>
        <time>2021-06-23T10:16:23Z</time>
      </trkpt>
      <trkpt lat="47.83678" lon="7.15694">
        <ele>575</ele>
        <time>2021-06-23T10:16:24Z</time>
      </trkpt>
      <trkpt lat="47.83645" lon="7.15621">
        <ele>572.52</ele>
        <time>2021-06-23T10:16:25Z</time>
      </trkpt>
      <trkpt lat="47.83626" lon="7.15588">
        <ele>571.36</ele>
        <time>2021-06-23T10:16:26Z</time>
      </trkpt>
      <trkpt lat="47.83591" lon="7.15537">
        <ele>565.15</ele>
        <time>2021-06-23T10:16:27Z</time>
      </trkpt>
      <trkpt lat="47.8355" lon="7.1549">
        <ele>556.48</ele>
        <time>2021-06-23T10:16:28Z</time>
      </trkpt>
      <trkpt lat="47.83527" lon="7.15456">
        <ele>555.48</ele>
        <time>2021-06-23T10:16:29Z</time>
      </trkpt>
      <trkpt lat="47.83507" lon="7.15412">
        <ele>550.31</ele>
        <time>2021-06-23T10:16:30Z</time>
      </trkpt>
      <trkpt lat="47.835" lon="7.15385">
        <ele>547.87</ele>
        <time>2021-06-23T10:16:31Z</time>
      </trkpt>
      <trkpt lat="47.83494" lon="7.1535">
        <ele>546.57</ele>
        <time>2021-06-23T10:16:32Z</time>
      </trkpt>
      <trkpt lat="47.83488" lon="7.15339">
        <ele>546.16</ele>
        <time>2021-06-23T10:16:33Z</time>
      </trkpt>
      <trkpt lat="47.83482" lon="7.15333">
        <ele>545.71</ele>
        <time>2021-06-23T10:16:34Z</time>
      </trkpt>
      <trkpt lat="47.83476" lon="7.15333">
        <ele>545.27</ele>
        <time>2021-06-23T10:16:35Z</time>
      </trkpt>
      <trkpt lat="47.83471" lon="7.15338">
        <ele>544.83</ele>
        <time>2021-06-23T10:16:36Z</time>
      </trkpt>
      <trkpt lat="47.83455" lon="7.15393">
        <ele>544.5</ele>
        <time>2021-06-23T10:16:37Z</time>
      </trkpt>
      <trkpt lat="47.83449" lon="7.15405">
        <ele>534.02</ele>
        <time>2021-06-23T10:16:38Z</time>
      </trkpt>
      <trkpt lat="47.83449" lon="7.15405">
        <ele>534.02</ele>
        <time>2021-06-23T10:16:38Z</time>
      </trkpt>
      <trkpt lat="47.83309" lon="7.15735">
        <ele>523.54</ele>
        <time>2021-06-23T10:16:42Z</time>
      </trkpt>
      <trkpt lat="47.8329" lon="7.15772">
        <ele>521.87</ele>
        <time>2021-06-23T10:16:45Z</time>
      </trkpt>
      <trkpt lat="47.83239" lon="7.15855">
        <ele>517.29</ele>
        <time>2021-06-23T10:16:49Z</time>
      </trkpt>
      <trkpt lat="47.83139" lon="7.16001">
        <ele>511.02</ele>
        <time>2021-06-23T10:16:52Z</time>
      </trkpt>
      <trkpt lat="47.82997" lon="7.16219">
        <ele>489.73</ele>
        <time>2021-06-23T10:16:56Z</time>
      </trkpt>
      <trkpt lat="47.82955" lon="7.16296">
        <ele>479.81</ele>
        <time>2021-06-23T10:16:59Z</time>
      </trkpt>
      <trkpt lat="47.82946" lon="7.16308">
        <ele>478.25</ele>
        <time>2021-06-23T10:17:03Z</time>
      </trkpt>
      <trkpt lat="47.82938" lon="7.16312">
        <ele>477.54</ele>
        <time>2021-06-23T10:17:06Z</time>
      </trkpt>
      <trkpt lat="47.82922" lon="7.16308">
        <ele>476.36</ele>
        <time>2021-06-23T10:17:10Z</time>
      </trkpt>
      <trkpt lat="47.82913" lon="7.16297">
        <ele>475.61</ele>
        <time>2021-06-23T10:17:13Z</time>
      </trkpt>
      <trkpt lat="47.82908" lon="7.16283">
        <ele>475.43</ele>
        <time>2021-06-23T10:17:17Z</time>
      </trkpt>
      <trkpt lat="47.82908" lon="7.16283">
        <ele>475.43</ele>
        <time>2021-06-23T10:17:17Z</time>
      </trkpt>
      <trkpt lat="47.82901" lon="7.1624">
        <ele>476.05</ele>
        <time>2021-06-23T10:17:18Z</time>
      </trkpt>
      <trkpt lat="47.82894" lon="7.16209">
        <ele>475.19</ele>
        <time>2021-06-23T10:17:20Z</time>
      </trkpt>
      <trkpt lat="47.82872" lon="7.16154">
        <ele>467.96</ele>
        <time>2021-06-23T10:17:21Z</time>
      </trkpt>
      <trkpt lat="47.82868" lon="7.16137">
        <ele>465.26</ele>
        <time>2021-06-23T10:17:23Z</time>
      </trkpt>
      <trkpt lat="47.82867" lon="7.16094">
        <ele>461.14</ele>
        <time>2021-06-23T10:17:24Z</time>
      </trkpt>
      <trkpt lat="47.8288" lon="7.16021">
        <ele>460.78</ele>
        <time>2021-06-23T10:17:26Z</time>
      </trkpt>
      <trkpt lat="47.82882" lon="7.15992">
        <ele>459.75</ele>
        <time>2021-06-23T10:17:27Z</time>
      </trkpt>
      <trkpt lat="47.82883" lon="7.15914">
        <ele>453.01</ele>
        <time>2021-06-23T10:17:28Z</time>
      </trkpt>
      <trkpt lat="47.82881" lon="7.15872">
        <ele>454.58</ele>
        <time>2021-06-23T10:17:30Z</time>
      </trkpt>
      <trkpt lat="47.82879" lon="7.15858">
        <ele>456.51</ele>
        <time>2021-06-23T10:17:31Z</time>
      </trkpt>
      <trkpt lat="47.82872" lon="7.15849">
        <ele>457.63</ele>
        <time>2021-06-23T10:17:33Z</time>
      </trkpt>
      <trkpt lat="47.82863" lon="7.15844">
        <ele>457.92</ele>
        <time>2021-06-23T10:17:34Z</time>
      </trkpt>
      <trkpt lat="47.82851" lon="7.15847">
        <ele>456.2</ele>
        <time>2021-06-23T10:17:36Z</time>
      </trkpt>
      <trkpt lat="47.82827" lon="7.15856">
        <ele>452.82</ele>
        <time>2021-06-23T10:17:37Z</time>
      </trkpt>
      <trkpt lat="47.82777" lon="7.15884">
        <ele>448.24</ele>
        <time>2021-06-23T10:17:39Z</time>
      </trkpt>
      <trkpt lat="47.82636" lon="7.15999">
        <ele>433.97</ele>
        <time>2021-06-23T10:17:40Z</time>
      </trkpt>
      <trkpt lat="47.82578" lon="7.16038">
        <ele>426.1</ele>
        <time>2021-06-23T10:17:41Z</time>
      </trkpt>
      <trkpt lat="47.82566" lon="7.16037">
        <ele>424.47</ele>
        <time>2021-06-23T10:17:43Z</time>
      </trkpt>
      <trkpt lat="47.82557" lon="7.1603">
        <ele>423.17</ele>
        <time>2021-06-23T10:17:44Z</time>
      </trkpt>
      <trkpt lat="47.82551" lon="7.16016">
        <ele>421.09</ele>
        <time>2021-06-23T10:17:46Z</time>
      </trkpt>
      <trkpt lat="47.8255" lon="7.15998">
        <ele>419.86</ele>
        <time>2021-06-23T10:17:47Z</time>
      </trkpt>
      <trkpt lat="47.82559" lon="7.15917">
        <ele>415.95</ele>
        <time>2021-06-23T10:17:49Z</time>
      </trkpt>
      <trkpt lat="47.82564" lon="7.15852">
        <ele>414.75</ele>
        <time>2021-06-23T10:17:50Z</time>
      </trkpt>
      <trkpt lat="47.82565" lon="7.15814">
        <ele>414.42</ele>
        <time>2021-06-23T10:17:52Z</time>
      </trkpt>
      <trkpt lat="47.82559" lon="7.1571">
        <ele>405.72</ele>
        <time>2021-06-23T10:17:53Z</time>
      </trkpt>
      <trkpt lat="47.82559" lon="7.15623">
        <ele>405.76</ele>
        <time>2021-06-23T10:17:54Z</time>
      </trkpt>
      <trkpt lat="47.82556" lon="7.15604">
        <ele>405.45</ele>
        <time>2021-06-23T10:17:56Z</time>
      </trkpt>
      <trkpt lat="47.82552" lon="7.15596">
        <ele>404.95</ele>
        <time>2021-06-23T10:17:57Z</time>
      </trkpt>
      <trkpt lat="47.82545" lon="7.15595">
        <ele>403.99</ele>
        <time>2021-06-23T10:17:59Z</time>
      </trkpt>
      <trkpt lat="47.82538" lon="7.15599">
        <ele>402.98</ele>
        <time>2021-06-23T10:18:00Z</time>
      </trkpt>
      <trkpt lat="47.82532" lon="7.15611">
        <ele>402.48</ele>
        <time>2021-06-23T10:18:02Z</time>
      </trkpt>
      <trkpt lat="47.82529" lon="7.15656">
        <ele>399.58</ele>
        <time>2021-06-23T10:18:03Z</time>
      </trkpt>
      <trkpt lat="47.82529" lon="7.15656">
        <ele>399.58</ele>
        <time>2021-06-23T10:18:03Z</time>
      </trkpt>
      <trkpt lat="47.82523" lon="7.15688">
        <ele>398.48</ele>
        <time>2021-06-23T10:18:08Z</time>
      </trkpt>
      <trkpt lat="47.82514" lon="7.15727">
        <ele>396.43</ele>
        <time>2021-06-23T10:18:13Z</time>
      </trkpt>
      <trkpt lat="47.82476" lon="7.15839">
        <ele>387.77</ele>
        <time>2021-06-23T10:18:17Z</time>
      </trkpt>
      <trkpt lat="47.82443" lon="7.15943">
        <ele>378.9</ele>
        <time>2021-06-23T10:18:22Z</time>
      </trkpt>
      <trkpt lat="47.82429" lon="7.15992">
        <ele>379.57</ele>
        <time>2021-06-23T10:18:26Z</time>
      </trkpt>
      <trkpt lat="47.82348" lon="7.16398">
        <ele>358.58</ele>
        <time>2021-06-23T10:18:31Z</time>
      </trkpt>
      <trkpt lat="47.82304" lon="7.16626">
        <ele>347.92</ele>
        <time>2021-06-23T10:18:36Z</time>
      </trkpt>
      <trkpt lat="47.8229" lon="7.16716">
        <ele>345.76</ele>
        <time>2021-06-23T10:18:40Z</time>
      </trkpt>
      <trkpt lat="47.82266" lon="7.16941">
        <ele>338.54</ele>
        <time>2021-06-23T10:18:45Z</time>
      </trkpt>
      <trkpt lat="47.82254" lon="7.17038">
        <ele>337.27</ele>
        <time>2021-06-23T10:18:50Z</time>
      </trkpt>
      <trkpt lat="47.82243" lon="7.1708">
        <ele>333.72</ele>
        <time>2021-06-23T10:18:54Z</time>
      </trkpt>
      <trkpt lat="47.8221" lon="7.17164">
        <ele>327.78</ele>
        <time>2021-06-23T10:18:59Z</time>
      </trkpt>
      <trkpt lat="47.82167" lon="7.17231">
        <ele>324.02</ele>
        <time>2021-06-23T10:19:04Z</time>
      </trkpt>
      <trkpt lat="47.82145" lon="7.17288">
        <ele>324.47</ele>
        <time>2021-06-23T10:19:08Z</time>
      </trkpt>
      <trkpt lat="47.82126" lon="7.17357">
        <ele>322.14</ele>
        <time>2021-06-23T10:19:13Z</time>
      </trkpt>
      <trkpt lat="47.82094" lon="7.17478">
        <ele>319.8</ele>
        <time>2021-06-23T10:19:18Z</time>
      </trkpt>
      <trkpt lat="47.82085" lon="7.17517">
        <ele>318.42</ele>
        <time>2021-06-23T10:19:22Z</time>
      </trkpt>
      <trkpt lat="47.82084" lon="7.17595">
        <ele>315.62</ele>
        <time>2021-06-23T10:19:27Z</time>
      </trkpt>
      <trkpt lat="47.82079" lon="7.17634">
        <ele>315.02</ele>
        <time>2021-06-23T10:19:32Z</time>
      </trkpt>
      <trkpt lat="47.82071" lon="7.17657">
        <ele>314.34</ele>
        <time>2021-06-23T10:19:36Z</time>
      </trkpt>
      <trkpt lat="47.8206" lon="7.17677">
        <ele>314</ele>
        <time>2021-06-23T10:19:41Z</time>
      </trkpt>
      <trkpt lat="47.82004" lon="7.17752">
        <ele>312.07</ele>
        <time>2021-06-23T10:19:46Z</time>
      </trkpt>
      <trkpt lat="47.81985" lon="7.17786">
        <ele>309.92</ele>
        <time>2021-06-23T10:19:50Z</time>
      </trkpt>
      <trkpt lat="47.8195" lon="7.1788">
        <ele>306.51</ele>
        <time>2021-06-23T10:19:55Z</time>
      </trkpt>
      <trkpt lat="47.81938" lon="7.17905">
        <ele>305.41</ele>
        <time>2021-06-23T10:19:59Z</time>
      </trkpt>
      <trkpt lat="47.81928" lon="7.17922">
        <ele>304.82</ele>
        <time>2021-06-23T10:20:04Z</time>
      </trkpt>
      <trkpt lat="47.81889" lon="7.17964">
        <ele>304.3</ele>
        <time>2021-06-23T10:20:09Z</time>
      </trkpt>
      <trkpt lat="47.81862" lon="7.17988">
        <ele>303.44</ele>
        <time>2021-06-23T10:20:13Z</time>
      </trkpt>
      <trkpt lat="47.81806" lon="7.1805">
        <ele>302.19</ele>
        <time>2021-06-23T10:20:18Z</time>
      </trkpt>
      <trkpt lat="47.81832" lon="7.18108">
        <ele>300.05</ele>
        <time>2021-06-23T10:20:21Z</time>
      </trkpt>
      <trkpt lat="47.81858" lon="7.18198">
        <ele>298.98</ele>
        <time>2021-06-23T10:20:24Z</time>
      </trkpt>
      <trkpt lat="47.81868" lon="7.18224">
        <ele>299.26</ele>
        <time>2021-06-23T10:20:26Z</time>
      </trkpt>
      <trkpt lat="47.81875" lon="7.18247">
        <ele>299.49</ele>
        <time>2021-06-23T10:20:29Z</time>
      </trkpt>
      <trkpt lat="47.81873" lon="7.18254">
        <ele>299.24</ele>
        <time>2021-06-23T10:20:34Z</time>
      </trkpt>
      <trkpt lat="47.81874" lon="7.18261">
        <ele>298.89</ele>
        <time>2021-06-23T10:20:38Z</time>
      </trkpt>
      <trkpt lat="47.81876" lon="7.18266">
        <ele>298.64</ele>
        <time>2021-06-23T10:20:42Z</time>
      </trkpt>
      <trkpt lat="47.81879" lon="7.18285">
        <ele>297.83</ele>
        <time>2021-06-23T10:20:47Z</time>
      </trkpt>
      <trkpt lat="47.81879" lon="7.18335">
        <ele>296.33</ele>
        <time>2021-06-23T10:20:51Z</time>
      </trkpt>
      <trkpt lat="47.81886" lon="7.18485">
        <ele>292.53</ele>
        <time>2021-06-23T10:20:55Z</time>
      </trkpt>
      <trkpt lat="47.81873" lon="7.18606">
        <ele>289.89</ele>
        <time>2021-06-23T10:20:59Z</time>
      </trkpt>
      <trkpt lat="47.81866" lon="7.18729">
        <ele>289.21</ele>
        <time>2021-06-23T10:21:04Z</time>
      </trkpt>
      <trkpt lat="47.81865" lon="7.18783">
        <ele>288.81</ele>
        <time>2021-06-23T10:21:08Z</time>
      </trkpt>
      <trkpt lat="47.81862" lon="7.18846">
        <ele>285.6</ele>
        <time>2021-06-23T10:21:12Z</time>
      </trkpt>
      <trkpt lat="47.81855" lon="7.18946">
        <ele>284.18</ele>
        <time>2021-06-23T10:21:17Z</time>
      </trkpt>
      <trkpt lat="47.81849" lon="7.18988">
        <ele>284</ele>
        <time>2021-06-23T10:21:21Z</time>
      </trkpt>
      <trkpt lat="47.81838" lon="7.19028">
        <ele>284.82</ele>
        <time>2021-06-23T10:21:25Z</time>
      </trkpt>
      <trkpt lat="47.81819" lon="7.19074">
        <ele>284.86</ele>
        <time>2021-06-23T10:21:30Z</time>
      </trkpt>
      <trkpt lat="47.81791" lon="7.19115">
        <ele>285.51</ele>
        <time>2021-06-23T10:21:34Z</time>
      </trkpt>
      <trkpt lat="47.81694" lon="7.19234">
        <ele>282.57</ele>
        <time>2021-06-23T10:21:38Z</time>
      </trkpt>
      <trkpt lat="47.81666" lon="7.19263">
        <ele>282.03</ele>
        <time>2021-06-23T10:21:43Z</time>
      </trkpt>
      <trkpt lat="47.81579" lon="7.19321">
        <ele>283.09</ele>
        <time>2021-06-23T10:21:47Z</time>
      </trkpt>
      <trkpt lat="47.81565" lon="7.1934">
        <ele>283.73</ele>
        <time>2021-06-23T10:21:51Z</time>
      </trkpt>
      <trkpt lat="47.8155" lon="7.19352">
        <ele>284</ele>
        <time>2021-06-23T10:21:56Z</time>
      </trkpt>
      <trkpt lat="47.81536" lon="7.19354">
        <ele>284</ele>
        <time>2021-06-23T10:21:57Z</time>
      </trkpt>
      <trkpt lat="47.81527" lon="7.19363">
        <ele>283.94</ele>
        <time>2021-06-23T10:21:59Z</time>
      </trkpt>
      <trkpt lat="47.81521" lon="7.19376">
        <ele>283.35</ele>
        <time>2021-06-23T10:22:00Z</time>
      </trkpt>
      <trkpt lat="47.81519" lon="7.19385">
        <ele>282.88</ele>
        <time>2021-06-23T10:22:02Z</time>
      </trkpt>
      <trkpt lat="47.81519" lon="7.19396">
        <ele>282.69</ele>
        <time>2021-06-23T10:22:03Z</time>
      </trkpt>
      <trkpt lat="47.8151" lon="7.19418">
        <ele>282.41</ele>
        <time>2021-06-23T10:22:05Z</time>
      </trkpt>
      <trkpt lat="47.81491" lon="7.19447">
        <ele>282.69</ele>
        <time>2021-06-23T10:22:06Z</time>
      </trkpt>
      <trkpt lat="47.81476" lon="7.19462">
        <ele>282.15</ele>
        <time>2021-06-23T10:22:08Z</time>
      </trkpt>
      <trkpt lat="47.8146" lon="7.19486">
        <ele>282.51</ele>
        <time>2021-06-23T10:22:09Z</time>
      </trkpt>
      <trkpt lat="47.81436" lon="7.19513">
        <ele>283.44</ele>
        <time>2021-06-23T10:22:13Z</time>
      </trkpt>
      <trkpt lat="47.81436" lon="7.19513">
        <ele>283.44</ele>
        <time>2021-06-23T10:22:13Z</time>
      </trkpt>
      <trkpt lat="47.81426" lon="7.19523">
        <ele>284.38</ele>
        <time>2021-06-23T10:22:19Z</time>
      </trkpt>
      <trkpt lat="47.81407" lon="7.19534">
        <ele>285.23</ele>
        <time>2021-06-23T10:22:24Z</time>
      </trkpt>
      <trkpt lat="47.81395" lon="7.19539">
        <ele>285.41</ele>
        <time>2021-06-23T10:22:30Z</time>
      </trkpt>
      <trkpt lat="47.81371" lon="7.19542">
        <ele>283.89</ele>
        <time>2021-06-23T10:22:36Z</time>
      </trkpt>
      <trkpt lat="47.81348" lon="7.19539">
        <ele>281.55</ele>
        <time>2021-06-23T10:22:42Z</time>
      </trkpt>
      <trkpt lat="47.81309" lon="7.19523">
        <ele>280.19</ele>
        <time>2021-06-23T10:22:47Z</time>
      </trkpt>
      <trkpt lat="47.81207" lon="7.19473">
        <ele>281.91</ele>
        <time>2021-06-23T10:22:53Z</time>
      </trkpt>
      <trkpt lat="47.81159" lon="7.19456">
        <ele>279.85</ele>
        <time>2021-06-23T10:22:59Z</time>
      </trkpt>
      <trkpt lat="47.80984" lon="7.19372">
        <ele>283.77</ele>
        <time>2021-06-23T10:23:05Z</time>
      </trkpt>
      <trkpt lat="47.80818" lon="7.19298">
        <ele>284.03</ele>
        <time>2021-06-23T10:23:10Z</time>
      </trkpt>
      <trkpt lat="47.80618" lon="7.19219">
        <ele>284.66</ele>
        <time>2021-06-23T10:23:16Z</time>
      </trkpt>
      <trkpt lat="47.80006" lon="7.19">
        <ele>287.21</ele>
        <time>2021-06-23T10:23:22Z</time>
      </trkpt>
      <trkpt lat="47.79949" lon="7.18977">
        <ele>285.68</ele>
        <time>2021-06-23T10:23:28Z</time>
      </trkpt>
      <trkpt lat="47.79893" lon="7.18948">
        <ele>290.59</ele>
        <time>2021-06-23T10:23:33Z</time>
      </trkpt>
      <trkpt lat="47.79835" lon="7.18915">
        <ele>288.95</ele>
        <time>2021-06-23T10:23:39Z</time>
      </trkpt>
      <trkpt lat="47.79799" lon="7.18892">
        <ele>289.79</ele>
        <time>2021-06-23T10:23:45Z</time>
      </trkpt>
      <trkpt lat="47.79799" lon="7.18892">
        <ele>289.79</ele>
        <time>2021-06-23T10:23:45Z</time>
      </trkpt>
      <trkpt lat="47.79777" lon="7.18878">
        <ele>290.63</ele>
        <time>2021-06-23T10:23:53Z</time>
      </trkpt>
      <trkpt lat="47.79684" lon="7.18805">
        <ele>291</ele>
        <time>2021-06-23T10:24:01Z</time>
      </trkpt>
      <trkpt lat="47.79627" lon="7.18753">
        <ele>291</ele>
        <time>2021-06-23T10:24:10Z</time>
      </trkpt>
      <trkpt lat="47.79551" lon="7.18673">
        <ele>289.83</ele>
        <time>2021-06-23T10:24:18Z</time>
      </trkpt>
      <trkpt lat="47.79078" lon="7.18112">
        <ele>297.41</ele>
        <time>2021-06-23T10:24:26Z</time>
      </trkpt>
      <trkpt lat="47.79037" lon="7.1805">
        <ele>295.42</ele>
        <time>2021-06-23T10:24:30Z</time>
      </trkpt>
      <trkpt lat="47.79019" lon="7.18015">
        <ele>295.04</ele>
        <time>2021-06-23T10:24:34Z</time>
      </trkpt>
      <trkpt lat="47.79002" lon="7.17982">
        <ele>295.88</ele>
        <time>2021-06-23T10:24:38Z</time>
      </trkpt>
      <trkpt lat="47.78982" lon="7.17954">
        <ele>296.23</ele>
        <time>2021-06-23T10:24:41Z</time>
      </trkpt>
      <trkpt lat="47.78966" lon="7.1794">
        <ele>295.69</ele>
        <time>2021-06-23T10:24:45Z</time>
      </trkpt>
      <trkpt lat="47.78934" lon="7.17918">
        <ele>295.04</ele>
        <time>2021-06-23T10:24:49Z</time>
      </trkpt>
      <trkpt lat="47.78913" lon="7.179">
        <ele>294.42</ele>
        <time>2021-06-23T10:24:52Z</time>
      </trkpt>
      <trkpt lat="47.78833" lon="7.17807">
        <ele>297.01</ele>
        <time>2021-06-23T10:24:56Z</time>
      </trkpt>
      <trkpt lat="47.78825" lon="7.17777">
        <ele>296.98</ele>
        <time>2021-06-23T10:24:57Z</time>
      </trkpt>
      <trkpt lat="47.78824" lon="7.17762">
        <ele>296.06</ele>
        <time>2021-06-23T10:24:58Z</time>
      </trkpt>
      <trkpt lat="47.78825" lon="7.17743">
        <ele>294.88</ele>
        <time>2021-06-23T10:25:00Z</time>
      </trkpt>
      <trkpt lat="47.78831" lon="7.17726">
        <ele>293.45</ele>
        <time>2021-06-23T10:25:01Z</time>
      </trkpt>
      <trkpt lat="47.78842" lon="7.17713">
        <ele>293</ele>
        <time>2021-06-23T10:25:02Z</time>
      </trkpt>
      <trkpt lat="47.78854" lon="7.17706">
        <ele>293</ele>
        <time>2021-06-23T10:25:03Z</time>
      </trkpt>
      <trkpt lat="47.78867" lon="7.17706">
        <ele>293.22</ele>
        <time>2021-06-23T10:25:05Z</time>
      </trkpt>
      <trkpt lat="47.7888" lon="7.17713">
        <ele>293.79</ele>
        <time>2021-06-23T10:25:06Z</time>
      </trkpt>
      <trkpt lat="47.7888" lon="7.17713">
        <ele>293.79</ele>
        <time>2021-06-23T10:25:06Z</time>
      </trkpt>
      <trkpt lat="47.7889" lon="7.17725">
        <ele>293.96</ele>
        <time>2021-06-23T10:25:08Z</time>
      </trkpt>
      <trkpt lat="47.78896" lon="7.17742">
        <ele>293.73</ele>
        <time>2021-06-23T10:25:10Z</time>
      </trkpt>
      <trkpt lat="47.78899" lon="7.1776">
        <ele>293.5</ele>
        <time>2021-06-23T10:25:12Z</time>
      </trkpt>
      <trkpt lat="47.78897" lon="7.17798">
        <ele>292.9</ele>
        <time>2021-06-23T10:25:14Z</time>
      </trkpt>
      <trkpt lat="47.78887" lon="7.17831">
        <ele>293.22</ele>
        <time>2021-06-23T10:25:16Z</time>
      </trkpt>
      <trkpt lat="47.78846" lon="7.17931">
        <ele>294.47</ele>
        <time>2021-06-23T10:25:18Z</time>
      </trkpt>
      <trkpt lat="47.78686" lon="7.18321">
        <ele>293.4</ele>
        <time>2021-06-23T10:25:30Z</time>
      </trkpt>
      <trkpt lat="47.78668" lon="7.18379">
        <ele>294.57</ele>
        <time>2021-06-23T10:25:43Z</time>
      </trkpt>
      <trkpt lat="47.78579" lon="7.18593">
        <ele>290.15</ele>
        <time>2021-06-23T10:25:55Z</time>
      </trkpt>
      <trkpt lat="47.78333" lon="7.19174">
        <ele>286</ele>
        <time>2021-06-23T10:26:07Z</time>
      </trkpt>
      <trkpt lat="47.78228" lon="7.19399">
        <ele>286.64</ele>
        <time>2021-06-23T10:26:20Z</time>
      </trkpt>
      <trkpt lat="47.78029" lon="7.19874">
        <ele>281.6</ele>
        <time>2021-06-23T10:26:32Z</time>
      </trkpt>
      <trkpt lat="47.77868" lon="7.20273">
        <ele>279.75</ele>
        <time>2021-06-23T10:26:45Z</time>
      </trkpt>
      <trkpt lat="47.7782" lon="7.20388">
        <ele>278.55</ele>
        <time>2021-06-23T10:26:57Z</time>
      </trkpt>
      <trkpt lat="47.77524" lon="7.21061">
        <ele>274.14</ele>
        <time>2021-06-23T10:27:09Z</time>
      </trkpt>
      <trkpt lat="47.77513" lon="7.21095">
        <ele>274.5</ele>
        <time>2021-06-23T10:27:22Z</time>
      </trkpt>
      <trkpt lat="47.77513" lon="7.21095">
        <ele>274.5</ele>
        <time>2021-06-23T10:27:22Z</time>
      </trkpt>
      <trkpt lat="47.77498" lon="7.21139">
        <ele>274.86</ele>
        <time>2021-06-23T10:27:28Z</time>
      </trkpt>
      <trkpt lat="47.77399" lon="7.21509">
        <ele>272.31</ele>
        <time>2021-06-23T10:27:34Z</time>
      </trkpt>
      <trkpt lat="47.77367" lon="7.21646">
        <ele>270.92</ele>
        <time>2021-06-23T10:27:39Z</time>
      </trkpt>
      <trkpt lat="47.77354" lon="7.21732">
        <ele>272.09</ele>
        <time>2021-06-23T10:27:45Z</time>
      </trkpt>
      <trkpt lat="47.77344" lon="7.21854">
        <ele>272.25</ele>
        <time>2021-06-23T10:27:51Z</time>
      </trkpt>
      <trkpt lat="47.77342" lon="7.21926">
        <ele>271.44</ele>
        <time>2021-06-23T10:27:57Z</time>
      </trkpt>
      <trkpt lat="47.77346" lon="7.22113">
        <ele>268.51</ele>
        <time>2021-06-23T10:28:03Z</time>
      </trkpt>
      <trkpt lat="47.7734" lon="7.22226">
        <ele>268.03</ele>
        <time>2021-06-23T10:28:09Z</time>
      </trkpt>
      <trkpt lat="47.77335" lon="7.22274">
        <ele>268.01</ele>
        <time>2021-06-23T10:28:15Z</time>
      </trkpt>
      <trkpt lat="47.77321" lon="7.22368">
        <ele>266</ele>
        <time>2021-06-23T10:28:21Z</time>
      </trkpt>
      <trkpt lat="47.77257" lon="7.22712">
        <ele>265.91</ele>
        <time>2021-06-23T10:28:26Z</time>
      </trkpt>
      <trkpt lat="47.77239" lon="7.22797">
        <ele>267.39</ele>
        <time>2021-06-23T10:28:32Z</time>
      </trkpt>
      <trkpt lat="47.7715" lon="7.23148">
        <ele>267.41</ele>
        <time>2021-06-23T10:28:38Z</time>
      </trkpt>
      <trkpt lat="47.77108" lon="7.23326">
        <ele>264.92</ele>
        <time>2021-06-23T10:28:44Z</time>
      </trkpt>
      <trkpt lat="47.77093" lon="7.23404">
        <ele>265.54</ele>
        <time>2021-06-23T10:28:50Z</time>
      </trkpt>
      <trkpt lat="47.77074" lon="7.2353">
        <ele>264.97</ele>
        <time>2021-06-23T10:28:56Z</time>
      </trkpt>
      <trkpt lat="47.77046" lon="7.23802">
        <ele>263.85</ele>
        <time>2021-06-23T10:29:02Z</time>
      </trkpt>
      <trkpt lat="47.77005" lon="7.24147">
        <ele>264.13</ele>
        <time>2021-06-23T10:29:08Z</time>
      </trkpt>
      <trkpt lat="47.76988" lon="7.24245">
        <ele>263.94</ele>
        <time>2021-06-23T10:29:14Z</time>
      </trkpt>
      <trkpt lat="47.76969" lon="7.24324">
        <ele>262.13</ele>
        <time>2021-06-23T10:29:19Z</time>
      </trkpt>
      <trkpt lat="47.76774" lon="7.24963">
        <ele>257.95</ele>
        <time>2021-06-23T10:29:25Z</time>
      </trkpt>
      <trkpt lat="47.76734" lon="7.25079">
        <ele>257.64</ele>
        <time>2021-06-23T10:29:31Z</time>
      </trkpt>
      <trkpt lat="47.76734" lon="7.25079">
        <ele>257.64</ele>
        <time>2021-06-23T10:29:31Z</time>
      </trkpt>
      <trkpt lat="47.76603" lon="7.25373">
        <ele>251.58</ele>
        <time>2021-06-23T10:29:37Z</time>
      </trkpt>
      <trkpt lat="47.76339" lon="7.26072">
        <ele>250.42</ele>
        <time>2021-06-23T10:29:43Z</time>
      </trkpt>
      <trkpt lat="47.7629" lon="7.26187">
        <ele>250.84</ele>
        <time>2021-06-23T10:29:49Z</time>
      </trkpt>
      <trkpt lat="47.76251" lon="7.2626">
        <ele>251.35</ele>
        <time>2021-06-23T10:29:54Z</time>
      </trkpt>
      <trkpt lat="47.76226" lon="7.26304">
        <ele>252.12</ele>
        <time>2021-06-23T10:30:00Z</time>
      </trkpt>
      <trkpt lat="47.76186" lon="7.26365">
        <ele>251</ele>
        <time>2021-06-23T10:30:06Z</time>
      </trkpt>
      <trkpt lat="47.76123" lon="7.26451">
        <ele>251.45</ele>
        <time>2021-06-23T10:30:12Z</time>
      </trkpt>
      <trkpt lat="47.76062" lon="7.26517">
        <ele>251.26</ele>
        <time>2021-06-23T10:30:17Z</time>
      </trkpt>
      <trkpt lat="47.75993" lon="7.26581">
        <ele>251.75</ele>
        <time>2021-06-23T10:30:23Z</time>
      </trkpt>
      <trkpt lat="47.75955" lon="7.26611">
        <ele>251.63</ele>
        <time>2021-06-23T10:30:29Z</time>
      </trkpt>
      <trkpt lat="47.75892" lon="7.26652">
        <ele>254.88</ele>
        <time>2021-06-23T10:30:35Z</time>
      </trkpt>
      <trkpt lat="47.75846" lon="7.26671">
        <ele>253.87</ele>
        <time>2021-06-23T10:30:38Z</time>
      </trkpt>
      <trkpt lat="47.75805" lon="7.26691">
        <ele>250.98</ele>
        <time>2021-06-23T10:30:41Z</time>
      </trkpt>
      <trkpt lat="47.75784" lon="7.26694">
        <ele>250.23</ele>
        <time>2021-06-23T10:30:45Z</time>
      </trkpt>
      <trkpt lat="47.75767" lon="7.26687">
        <ele>249.89</ele>
        <time>2021-06-23T10:30:48Z</time>
      </trkpt>
      <trkpt lat="47.75753" lon="7.26669">
        <ele>249.2</ele>
        <time>2021-06-23T10:30:51Z</time>
      </trkpt>
      <trkpt lat="47.75745" lon="7.26648">
        <ele>249.93</ele>
        <time>2021-06-23T10:30:55Z</time>
      </trkpt>
      <trkpt lat="47.7574" lon="7.26632">
        <ele>250.91</ele>
        <time>2021-06-23T10:30:58Z</time>
      </trkpt>
      <trkpt lat="47.7574" lon="7.26632">
        <ele>250.91</ele>
        <time>2021-06-23T10:30:58Z</time>
      </trkpt>
      <trkpt lat="47.75739" lon="7.26615">
        <ele>251.25</ele>
        <time>2021-06-23T10:31:00Z</time>
      </trkpt>
      <trkpt lat="47.75742" lon="7.26596">
        <ele>251.3</ele>
        <time>2021-06-23T10:31:01Z</time>
      </trkpt>
      <trkpt lat="47.75746" lon="7.26579">
        <ele>251.25</ele>
        <time>2021-06-23T10:31:03Z</time>
      </trkpt>
      <trkpt lat="47.75755" lon="7.2657">
        <ele>251.58</ele>
        <time>2021-06-23T10:31:06Z</time>
      </trkpt>
      <trkpt lat="47.7576" lon="7.26556">
        <ele>252</ele>
        <time>2021-06-23T10:31:10Z</time>
      </trkpt>
      <trkpt lat="47.75778" lon="7.26549">
        <ele>252</ele>
        <time>2021-06-23T10:31:14Z</time>
      </trkpt>
      <trkpt lat="47.75796" lon="7.26552">
        <ele>252.57</ele>
        <time>2021-06-23T10:31:17Z</time>
      </trkpt>
      <trkpt lat="47.75814" lon="7.26562">
        <ele>252.75</ele>
        <time>2021-06-23T10:31:21Z</time>
      </trkpt>
      <trkpt lat="47.75836" lon="7.26578">
        <ele>252.74</ele>
        <time>2021-06-23T10:31:24Z</time>
      </trkpt>
      <trkpt lat="47.75861" lon="7.26603">
        <ele>252.7</ele>
        <time>2021-06-23T10:31:28Z</time>
      </trkpt>
      <trkpt lat="47.75879" lon="7.26623">
        <ele>253.44</ele>
        <time>2021-06-23T10:31:32Z</time>
      </trkpt>
      <trkpt lat="47.75902" lon="7.26656">
        <ele>254.59</ele>
        <time>2021-06-23T10:31:35Z</time>
      </trkpt>
      <trkpt lat="47.75941" lon="7.26731">
        <ele>254.75</ele>
        <time>2021-06-23T10:31:39Z</time>
      </trkpt>
      <trkpt lat="47.75959" lon="7.26777">
        <ele>253.47</ele>
        <time>2021-06-23T10:31:42Z</time>
      </trkpt>
      <trkpt lat="47.75972" lon="7.26823">
        <ele>252.36</ele>
        <time>2021-06-23T10:31:46Z</time>
      </trkpt>
      <trkpt lat="47.7599" lon="7.26903">
        <ele>249.37</ele>
        <time>2021-06-23T10:31:50Z</time>
      </trkpt>
      <trkpt lat="47.75991" lon="7.26921">
        <ele>249.52</ele>
        <time>2021-06-23T10:31:53Z</time>
      </trkpt>
      <trkpt lat="47.75989" lon="7.26928">
        <ele>249.89</ele>
        <time>2021-06-23T10:32:01Z</time>
      </trkpt>
      <trkpt lat="47.75988" lon="7.26936">
        <ele>250.22</ele>
        <time>2021-06-23T10:32:08Z</time>
      </trkpt>
      <trkpt lat="47.7599" lon="7.26944">
        <ele>250.62</ele>
        <time>2021-06-23T10:32:15Z</time>
      </trkpt>
      <trkpt lat="47.75994" lon="7.26951">
        <ele>251.12</ele>
        <time>2021-06-23T10:32:23Z</time>
      </trkpt>
      <trkpt lat="47.75999" lon="7.2697">
        <ele>252.68</ele>
        <time>2021-06-23T10:32:30Z</time>
      </trkpt>
      <trkpt lat="47.76002" lon="7.27017">
        <ele>254.46</ele>
        <time>2021-06-23T10:32:37Z</time>
      </trkpt>
      <trkpt lat="47.76003" lon="7.27133">
        <ele>251.19</ele>
        <time>2021-06-23T10:32:45Z</time>
      </trkpt>
      <trkpt lat="47.76009" lon="7.27316">
        <ele>251.36</ele>
        <time>2021-06-23T10:32:52Z</time>
      </trkpt>
      <trkpt lat="47.76005" lon="7.27354">
        <ele>252</ele>
        <time>2021-06-23T10:32:59Z</time>
      </trkpt>
      <trkpt lat="47.75996" lon="7.274">
        <ele>253.26</ele>
        <time>2021-06-23T10:33:07Z</time>
      </trkpt>
      <trkpt lat="47.75929" lon="7.27684">
        <ele>252</ele>
        <time>2021-06-23T10:33:14Z</time>
      </trkpt>
      <trkpt lat="47.75929" lon="7.27684">
        <ele>252</ele>
        <time>2021-06-23T10:33:14Z</time>
      </trkpt>
      <trkpt lat="47.75907" lon="7.27776">
        <ele>249.6</ele>
        <time>2021-06-23T10:33:22Z</time>
      </trkpt>
      <trkpt lat="47.75901" lon="7.27816">
        <ele>250.1</ele>
        <time>2021-06-23T10:33:30Z</time>
      </trkpt>
      <trkpt lat="47.75901" lon="7.27845">
        <ele>250.87</ele>
        <time>2021-06-23T10:33:38Z</time>
      </trkpt>
      <trkpt lat="47.75903" lon="7.27863">
        <ele>251.51</ele>
        <time>2021-06-23T10:33:46Z</time>
      </trkpt>
      <trkpt lat="47.75908" lon="7.27884">
        <ele>251.67</ele>
        <time>2021-06-23T10:33:54Z</time>
      </trkpt>
      <trkpt lat="47.75929" lon="7.27947">
        <ele>250.92</ele>
        <time>2021-06-23T10:34:01Z</time>
      </trkpt>
      <trkpt lat="47.75934" lon="7.2797">
        <ele>250.1</ele>
        <time>2021-06-23T10:34:09Z</time>
      </trkpt>
      <trkpt lat="47.7593" lon="7.28014">
        <ele>249.48</ele>
        <time>2021-06-23T10:34:17Z</time>
      </trkpt>
      <trkpt lat="47.75931" lon="7.28024">
        <ele>249.53</ele>
        <time>2021-06-23T10:34:25Z</time>
      </trkpt>
      <trkpt lat="47.75921" lon="7.28123">
        <ele>249</ele>
        <time>2021-06-23T10:34:33Z</time>
      </trkpt>
      <trkpt lat="47.75888" lon="7.28328">
        <ele>249.98</ele>
        <time>2021-06-23T10:34:41Z</time>
      </trkpt>
      <trkpt lat="47.75862" lon="7.28508">
        <ele>247.72</ele>
        <time>2021-06-23T10:34:49Z</time>
      </trkpt>
      <trkpt lat="47.75855" lon="7.2857">
        <ele>245.61</ele>
        <time>2021-06-23T10:34:56Z</time>
      </trkpt>
      <trkpt lat="47.75849" lon="7.28646">
        <ele>247.15</ele>
        <time>2021-06-23T10:35:04Z</time>
      </trkpt>
      <trkpt lat="47.7585" lon="7.28723">
        <ele>248.56</ele>
        <time>2021-06-23T10:35:12Z</time>
      </trkpt>
      <trkpt lat="47.75864" lon="7.28877">
        <ele>246.61</ele>
        <time>2021-06-23T10:35:20Z</time>
      </trkpt>
      <trkpt lat="47.75862" lon="7.28888">
        <ele>246.11</ele>
        <time>2021-06-23T10:35:28Z</time>
      </trkpt>
      <trkpt lat="47.75871" lon="7.29024">
        <ele>244.29</ele>
        <time>2021-06-23T10:35:36Z</time>
      </trkpt>
      <trkpt lat="47.75867" lon="7.29027">
        <ele>244.2</ele>
        <time>2021-06-23T10:35:41Z</time>
      </trkpt>
      <trkpt lat="47.75864" lon="7.29033">
        <ele>244.26</ele>
        <time>2021-06-23T10:35:46Z</time>
      </trkpt>
      <trkpt lat="47.75864" lon="7.2904">
        <ele>244.5</ele>
        <time>2021-06-23T10:35:50Z</time>
      </trkpt>
      <trkpt lat="47.75869" lon="7.29053">
        <ele>244.93</ele>
        <time>2021-06-23T10:35:55Z</time>
      </trkpt>
      <trkpt lat="47.75871" lon="7.29069">
        <ele>245.16</ele>
        <time>2021-06-23T10:36:00Z</time>
      </trkpt>
      <trkpt lat="47.75869" lon="7.29092">
        <ele>245.11</ele>
        <time>2021-06-23T10:36:05Z</time>
      </trkpt>
      <trkpt lat="47.75858" lon="7.29175">
        <ele>244.27</ele>
        <time>2021-06-23T10:36:10Z</time>
      </trkpt>
      <trkpt lat="47.75842" lon="7.29249">
        <ele>243.64</ele>
        <time>2021-06-23T10:36:15Z</time>
      </trkpt>
      <trkpt lat="47.7581" lon="7.29352">
        <ele>242.67</ele>
        <time>2021-06-23T10:36:20Z</time>
      </trkpt>
      <trkpt lat="47.7576" lon="7.29508">
        <ele>243.97</ele>
        <time>2021-06-23T10:36:24Z</time>
      </trkpt>
      <trkpt lat="47.7576" lon="7.29508">
        <ele>243.97</ele>
        <time>2021-06-23T10:36:24Z</time>
      </trkpt>
      <trkpt lat="47.75711" lon="7.29666">
        <ele>241.66</ele>
        <time>2021-06-23T10:36:36Z</time>
      </trkpt>
      <trkpt lat="47.75625" lon="7.29931">
        <ele>242.23</ele>
        <time>2021-06-23T10:36:48Z</time>
      </trkpt>
      <trkpt lat="47.75599" lon="7.2999">
        <ele>244.05</ele>
        <time>2021-06-23T10:37:00Z</time>
      </trkpt>
      <trkpt lat="47.75548" lon="7.30083">
        <ele>245.43</ele>
        <time>2021-06-23T10:37:12Z</time>
      </trkpt>
      <trkpt lat="47.75519" lon="7.30112">
        <ele>243.37</ele>
        <time>2021-06-23T10:37:24Z</time>
      </trkpt>
      <trkpt lat="47.75314" lon="7.30277">
        <ele>243.62</ele>
        <time>2021-06-23T10:37:36Z</time>
      </trkpt>
      <trkpt lat="47.75238" lon="7.30331">
        <ele>241.5</ele>
        <time>2021-06-23T10:37:48Z</time>
      </trkpt>
      <trkpt lat="47.75228" lon="7.30336">
        <ele>241.73</ele>
        <time>2021-06-23T10:38:00Z</time>
      </trkpt>
      <trkpt lat="47.75225" lon="7.30325">
        <ele>241.93</ele>
        <time>2021-06-23T10:38:02Z</time>
      </trkpt>
      <trkpt lat="47.75218" lon="7.3032">
        <ele>242.16</ele>
        <time>2021-06-23T10:38:04Z</time>
      </trkpt>
      <trkpt lat="47.75212" lon="7.30322">
        <ele>242.36</ele>
        <time>2021-06-23T10:38:07Z</time>
      </trkpt>
      <trkpt lat="47.75208" lon="7.30328">
        <ele>242.5</ele>
        <time>2021-06-23T10:38:09Z</time>
      </trkpt>
      <trkpt lat="47.75207" lon="7.30335">
        <ele>242.52</ele>
        <time>2021-06-23T10:38:11Z</time>
      </trkpt>
      <trkpt lat="47.75208" lon="7.30342">
        <ele>242.36</ele>
        <time>2021-06-23T10:38:14Z</time>
      </trkpt>
      <trkpt lat="47.75136" lon="7.3042">
        <ele>243.1</ele>
        <time>2021-06-23T10:38:16Z</time>
      </trkpt>
      <trkpt lat="47.75085" lon="7.30457">
        <ele>244.93</ele>
        <time>2021-06-23T10:38:18Z</time>
      </trkpt>
      <trkpt lat="47.75074" lon="7.30468">
        <ele>245</ele>
        <time>2021-06-23T10:38:21Z</time>
      </trkpt>
      <trkpt lat="47.75057" lon="7.30488">
        <ele>245</ele>
        <time>2021-06-23T10:38:23Z</time>
      </trkpt>
      <trkpt lat="47.75036" lon="7.30519">
        <ele>244.54</ele>
        <time>2021-06-23T10:38:25Z</time>
      </trkpt>
      <trkpt lat="47.75014" lon="7.3053">
        <ele>244</ele>
        <time>2021-06-23T10:38:27Z</time>
      </trkpt>
      <trkpt lat="47.75005" lon="7.30531">
        <ele>243.92</ele>
        <time>2021-06-23T10:38:29Z</time>
      </trkpt>
      <trkpt lat="47.74999" lon="7.3053">
        <ele>243.88</ele>
        <time>2021-06-23T10:38:31Z</time>
      </trkpt>
      <trkpt lat="47.74982" lon="7.3052">
        <ele>243.37</ele>
        <time>2021-06-23T10:38:33Z</time>
      </trkpt>
      <trkpt lat="47.74967" lon="7.30487">
        <ele>243.76</ele>
        <time>2021-06-23T10:38:35Z</time>
      </trkpt>
      <trkpt lat="47.7495" lon="7.30448">
        <ele>246.48</ele>
        <time>2021-06-23T10:38:37Z</time>
      </trkpt>
      <trkpt lat="47.74937" lon="7.30424">
        <ele>246.46</ele>
        <time>2021-06-23T10:38:39Z</time>
      </trkpt>
      <trkpt lat="47.74927" lon="7.30411">
        <ele>246.43</ele>
        <time>2021-06-23T10:38:41Z</time>
      </trkpt>
      <trkpt lat="47.74906" lon="7.30392">
        <ele>246.11</ele>
        <time>2021-06-23T10:38:43Z</time>
      </trkpt>
      <trkpt lat="47.74896" lon="7.30386">
        <ele>245.86</ele>
        <time>2021-06-23T10:38:45Z</time>
      </trkpt>
      <trkpt lat="47.74875" lon="7.30377">
        <ele>245.56</ele>
        <time>2021-06-23T10:38:47Z</time>
      </trkpt>
      <trkpt lat="47.74859" lon="7.30375">
        <ele>245.41</ele>
        <time>2021-06-23T10:38:48Z</time>
      </trkpt>
      <trkpt lat="47.74832" lon="7.30379">
        <ele>245.47</ele>
        <time>2021-06-23T10:38:50Z</time>
      </trkpt>
      <trkpt lat="47.74815" lon="7.30385">
        <ele>245.51</ele>
        <time>2021-06-23T10:38:52Z</time>
      </trkpt>
      <trkpt lat="47.74797" lon="7.30384">
        <ele>245.88</ele>
        <time>2021-06-23T10:38:54Z</time>
      </trkpt>
      <trkpt lat="47.74784" lon="7.30359">
        <ele>245.7</ele>
        <time>2021-06-23T10:38:59Z</time>
      </trkpt>
      <trkpt lat="47.74778" lon="7.30316">
        <ele>245</ele>
        <time>2021-06-23T10:39:04Z</time>
      </trkpt>
      <trkpt lat="47.74771" lon="7.30291">
        <ele>245.12</ele>
        <time>2021-06-23T10:39:09Z</time>
      </trkpt>
      <trkpt lat="47.74709" lon="7.30145">
        <ele>247.14</ele>
        <time>2021-06-23T10:39:13Z</time>
      </trkpt>
      <trkpt lat="47.74808" lon="7.30093">
        <ele>243.42</ele>
        <time>2021-06-23T10:39:23Z</time>
      </trkpt>
      <trkpt lat="47.74821" lon="7.30077">
        <ele>243.67</ele>
        <time>2021-06-23T10:39:32Z</time>
      </trkpt>
      <trkpt lat="47.74822" lon="7.30065">
        <ele>243.97</ele>
        <time>2021-06-23T10:39:39Z</time>
      </trkpt>
      <trkpt lat="47.7482" lon="7.30009">
        <ele>245.21</ele>
        <time>2021-06-23T10:39:45Z</time>
      </trkpt>
      <trkpt lat="47.74823" lon="7.2995">
        <ele>245.51</ele>
        <time>2021-06-23T10:39:52Z</time>
      </trkpt>
      <trkpt lat="47.7483" lon="7.29897">
        <ele>243.31</ele>
        <time>2021-06-23T10:39:58Z</time>
      </trkpt>
      <trkpt lat="47.74844" lon="7.29839">
        <ele>242</ele>
        <time>2021-06-23T10:40:05Z</time>
      </trkpt>
      <trkpt lat="47.74888" lon="7.29698">
        <ele>243.78</ele>
        <time>2021-06-23T10:40:12Z</time>
      </trkpt>
      <trkpt lat="47.74905" lon="7.29652">
        <ele>246.25</ele>
        <time>2021-06-23T10:40:18Z</time>
      </trkpt>
      <trkpt lat="47.74944" lon="7.29526">
        <ele>242</ele>
        <time>2021-06-23T10:40:25Z</time>
      </trkpt>
      <trkpt lat="47.74952" lon="7.29486">
        <ele>241.79</ele>
        <time>2021-06-23T10:40:32Z</time>
      </trkpt>
      <trkpt lat="47.74953" lon="7.29477">
        <ele>241.46</ele>
        <time>2021-06-23T10:40:38Z</time>
      </trkpt>
      <trkpt lat="47.74973" lon="7.2945">
        <ele>242.04</ele>
        <time>2021-06-23T10:40:46Z</time>
      </trkpt>
      <trkpt lat="47.74982" lon="7.29458">
        <ele>243.98</ele>
        <time>2021-06-23T10:40:50Z</time>
      </trkpt>
      <trkpt lat="47.74982" lon="7.29458">
        <ele>243.98</ele>
        <time>2021-06-23T10:40:50Z</time>
      </trkpt>
      <trkpt lat="47.74973" lon="7.2945">
        <ele>242.04</ele>
        <time>2021-06-23T10:40:53Z</time>
      </trkpt>
      <trkpt lat="47.74953" lon="7.29477">
        <ele>241.46</ele>
        <time>2021-06-23T10:41:01Z</time>
      </trkpt>
      <trkpt lat="47.74952" lon="7.29486">
        <ele>241.79</ele>
        <time>2021-06-23T10:41:08Z</time>
      </trkpt>
      <trkpt lat="47.74944" lon="7.29526">
        <ele>242</ele>
        <time>2021-06-23T10:41:14Z</time>
      </trkpt>
      <trkpt lat="47.74905" lon="7.29652">
        <ele>246.25</ele>
        <time>2021-06-23T10:41:21Z</time>
      </trkpt>
      <trkpt lat="47.74888" lon="7.29698">
        <ele>243.78</ele>
        <time>2021-06-23T10:41:27Z</time>
      </trkpt>
      <trkpt lat="47.74844" lon="7.29839">
        <ele>242</ele>
        <time>2021-06-23T10:41:34Z</time>
      </trkpt>
      <trkpt lat="47.7483" lon="7.29897">
        <ele>243.31</ele>
        <time>2021-06-23T10:41:41Z</time>
      </trkpt>
      <trkpt lat="47.74823" lon="7.2995">
        <ele>245.51</ele>
        <time>2021-06-23T10:41:47Z</time>
      </trkpt>
      <trkpt lat="47.7482" lon="7.30009">
        <ele>245.21</ele>
        <time>2021-06-23T10:41:54Z</time>
      </trkpt>
      <trkpt lat="47.74822" lon="7.30065">
        <ele>243.97</ele>
        <time>2021-06-23T10:42:01Z</time>
      </trkpt>
      <trkpt lat="47.74821" lon="7.30077">
        <ele>243.67</ele>
        <time>2021-06-23T10:42:07Z</time>
      </trkpt>
      <trkpt lat="47.74808" lon="7.30093">
        <ele>243.42</ele>
        <time>2021-06-23T10:42:17Z</time>
      </trkpt>
      <trkpt lat="47.74709" lon="7.30145">
        <ele>247.14</ele>
        <time>2021-06-23T10:42:26Z</time>
      </trkpt>
      <trkpt lat="47.74771" lon="7.30291">
        <ele>245.12</ele>
        <time>2021-06-23T10:42:31Z</time>
      </trkpt>
      <trkpt lat="47.74778" lon="7.30316">
        <ele>245</ele>
        <time>2021-06-23T10:42:35Z</time>
      </trkpt>
      <trkpt lat="47.74784" lon="7.30359">
        <ele>245.7</ele>
        <time>2021-06-23T10:42:40Z</time>
      </trkpt>
      <trkpt lat="47.74781" lon="7.30382">
        <ele>245.97</ele>
        <time>2021-06-23T10:42:44Z</time>
      </trkpt>
      <trkpt lat="47.74778" lon="7.30391">
        <ele>246</ele>
        <time>2021-06-23T10:42:46Z</time>
      </trkpt>
      <trkpt lat="47.74778" lon="7.30401">
        <ele>246.01</ele>
        <time>2021-06-23T10:42:48Z</time>
      </trkpt>
      <trkpt lat="47.74783" lon="7.30408">
        <ele>246.13</ele>
        <time>2021-06-23T10:42:50Z</time>
      </trkpt>
      <trkpt lat="47.74789" lon="7.30411">
        <ele>246.32</ele>
        <time>2021-06-23T10:42:52Z</time>
      </trkpt>
      <trkpt lat="47.74796" lon="7.30407">
        <ele>246.41</ele>
        <time>2021-06-23T10:42:54Z</time>
      </trkpt>
      <trkpt lat="47.74799" lon="7.30398">
        <ele>246.26</ele>
        <time>2021-06-23T10:42:56Z</time>
      </trkpt>
      <trkpt lat="47.74808" lon="7.30394">
        <ele>246.09</ele>
        <time>2021-06-23T10:42:57Z</time>
      </trkpt>
      <trkpt lat="47.74815" lon="7.30385">
        <ele>245.51</ele>
        <time>2021-06-23T10:42:59Z</time>
      </trkpt>
      <trkpt lat="47.74832" lon="7.30379">
        <ele>245.47</ele>
        <time>2021-06-23T10:43:01Z</time>
      </trkpt>
      <trkpt lat="47.74859" lon="7.30375">
        <ele>245.41</ele>
        <time>2021-06-23T10:43:03Z</time>
      </trkpt>
      <trkpt lat="47.74875" lon="7.30377">
        <ele>245.56</ele>
        <time>2021-06-23T10:43:05Z</time>
      </trkpt>
      <trkpt lat="47.74906" lon="7.30392">
        <ele>246.11</ele>
        <time>2021-06-23T10:43:07Z</time>
      </trkpt>
      <trkpt lat="47.74927" lon="7.30411">
        <ele>246.43</ele>
        <time>2021-06-23T10:43:09Z</time>
      </trkpt>
      <trkpt lat="47.74937" lon="7.30424">
        <ele>246.46</ele>
        <time>2021-06-23T10:43:10Z</time>
      </trkpt>
      <trkpt lat="47.7495" lon="7.30448">
        <ele>246.48</ele>
        <time>2021-06-23T10:43:12Z</time>
      </trkpt>
      <trkpt lat="47.74967" lon="7.30487">
        <ele>243.76</ele>
        <time>2021-06-23T10:43:14Z</time>
      </trkpt>
      <trkpt lat="47.75005" lon="7.3057">
        <ele>243.36</ele>
        <time>2021-06-23T10:43:16Z</time>
      </trkpt>
      <trkpt lat="47.75036" lon="7.30519">
        <ele>244.54</ele>
        <time>2021-06-23T10:43:21Z</time>
      </trkpt>
      <trkpt lat="47.75014" lon="7.3053">
        <ele>244</ele>
        <time>2021-06-23T10:43:23Z</time>
      </trkpt>
      <trkpt lat="47.74999" lon="7.3053">
        <ele>243.88</ele>
        <time>2021-06-23T10:43:24Z</time>
      </trkpt>
      <trkpt lat="47.7499" lon="7.30525">
        <ele>243.62</ele>
        <time>2021-06-23T10:43:26Z</time>
      </trkpt>
      <trkpt lat="47.7499" lon="7.30525">
        <ele>243.62</ele>
        <time>2021-06-23T10:43:26Z</time>
      </trkpt>
      <trkpt lat="47.74982" lon="7.3052">
        <ele>243.37</ele>
        <time>2021-06-23T10:43:27Z</time>
      </trkpt>
      <trkpt lat="47.75005" lon="7.3057">
        <ele>243.36</ele>
        <time>2021-06-23T10:43:31Z</time>
      </trkpt>
      <trkpt lat="47.75036" lon="7.30519">
        <ele>244.54</ele>
        <time>2021-06-23T10:43:35Z</time>
      </trkpt>
      <trkpt lat="47.75057" lon="7.30488">
        <ele>245</ele>
        <time>2021-06-23T10:43:40Z</time>
      </trkpt>
      <trkpt lat="47.75074" lon="7.30468">
        <ele>245</ele>
        <time>2021-06-23T10:43:44Z</time>
      </trkpt>
      <trkpt lat="47.75085" lon="7.30457">
        <ele>244.93</ele>
        <time>2021-06-23T10:43:48Z</time>
      </trkpt>
      <trkpt lat="47.75136" lon="7.3042">
        <ele>243.1</ele>
        <time>2021-06-23T10:43:53Z</time>
      </trkpt>
      <trkpt lat="47.75208" lon="7.30342">
        <ele>242.36</ele>
        <time>2021-06-23T10:43:57Z</time>
      </trkpt>
      <trkpt lat="47.75213" lon="7.3035">
        <ele>241.9</ele>
        <time>2021-06-23T10:44:11Z</time>
      </trkpt>
      <trkpt lat="47.75219" lon="7.30351">
        <ele>241.57</ele>
        <time>2021-06-23T10:44:25Z</time>
      </trkpt>
      <trkpt lat="47.75225" lon="7.30346">
        <ele>241.48</ele>
        <time>2021-06-23T10:44:39Z</time>
      </trkpt>
      <trkpt lat="47.75231" lon="7.3036">
        <ele>241.03</ele>
        <time>2021-06-23T10:44:53Z</time>
      </trkpt>
      <trkpt lat="47.75278" lon="7.30507">
        <ele>244.01</ele>
        <time>2021-06-23T10:45:07Z</time>
      </trkpt>
      <trkpt lat="47.75294" lon="7.30567">
        <ele>244.4</ele>
        <time>2021-06-23T10:45:20Z</time>
      </trkpt>
      <trkpt lat="47.75314" lon="7.30657">
        <ele>244</ele>
        <time>2021-06-23T10:45:34Z</time>
      </trkpt>
      <trkpt lat="47.75327" lon="7.30697">
        <ele>243.02</ele>
        <time>2021-06-23T10:45:48Z</time>
      </trkpt>
      <trkpt lat="47.75376" lon="7.30818">
        <ele>244.23</ele>
        <time>2021-06-23T10:46:02Z</time>
      </trkpt>
      <trkpt lat="47.755" lon="7.31115">
        <ele>241.13</ele>
        <time>2021-06-23T10:46:16Z</time>
      </trkpt>
      <trkpt lat="47.75637" lon="7.31406">
        <ele>240.03</ele>
        <time>2021-06-23T10:46:30Z</time>
      </trkpt>
      <trkpt lat="47.7588" lon="7.31938">
        <ele>236.79</ele>
        <time>2021-06-23T10:46:44Z</time>
      </trkpt>
      <trkpt lat="47.76157" lon="7.32534">
        <ele>238.33</ele>
        <time>2021-06-23T10:46:58Z</time>
      </trkpt>
      <trkpt lat="47.76128" lon="7.32665">
        <ele>238.53</ele>
        <time>2021-06-23T10:47:03Z</time>
      </trkpt>
      <trkpt lat="47.7613" lon="7.32675">
        <ele>238.89</ele>
        <time>2021-06-23T10:47:08Z</time>
      </trkpt>
      <trkpt lat="47.76014" lon="7.32798">
        <ele>239.13</ele>
        <time>2021-06-23T10:47:13Z</time>
      </trkpt>
      <trkpt lat="47.75971" lon="7.32849">
        <ele>239.09</ele>
        <time>2021-06-23T10:47:17Z</time>
      </trkpt>
      <trkpt lat="47.75945" lon="7.32885">
        <ele>241</ele>
        <time>2021-06-23T10:47:22Z</time>
      </trkpt>
      <trkpt lat="47.75903" lon="7.32942">
        <ele>237.6</ele>
        <time>2021-06-23T10:47:26Z</time>
      </trkpt>
      <trkpt lat="47.75885" lon="7.32969">
        <ele>237</ele>
        <time>2021-06-23T10:47:30Z</time>
      </trkpt>
      <trkpt lat="47.75868" lon="7.33">
        <ele>237</ele>
        <time>2021-06-23T10:47:35Z</time>
      </trkpt>
      <trkpt lat="47.75852" lon="7.33044">
        <ele>236.33</ele>
        <time>2021-06-23T10:47:39Z</time>
      </trkpt>
      <trkpt lat="47.75848" lon="7.33066">
        <ele>236.29</ele>
        <time>2021-06-23T10:47:44Z</time>
      </trkpt>
      <trkpt lat="47.75843" lon="7.33076">
        <ele>236.38</ele>
        <time>2021-06-23T10:47:48Z</time>
      </trkpt>
      <trkpt lat="47.75839" lon="7.33107">
        <ele>237.43</ele>
        <time>2021-06-23T10:47:53Z</time>
      </trkpt>
      <trkpt lat="47.75869" lon="7.33122">
        <ele>236.11</ele>
        <time>2021-06-23T10:47:59Z</time>
      </trkpt>
      <trkpt lat="47.75926" lon="7.33178">
        <ele>237.42</ele>
        <time>2021-06-23T10:48:06Z</time>
      </trkpt>
      <trkpt lat="47.75953" lon="7.33146">
        <ele>236.17</ele>
        <time>2021-06-23T10:48:17Z</time>
      </trkpt>
    </trkseg>
  </trk>
  <trk>
    <name><![CDATA[2021-06-18_16-19_Fri]]></name>
    <extensions>
      <line xmlns="http://www.topografix.com/GPX/gpx_style/0/2">
        <color>FF00FF</color>
        <width>4</width>
      </line>
    </extensions>
    <trkseg>
      <trkpt lat="47.75914" lon="7.33118">
        <ele>236.22</ele>
        <time>2021-06-23T09:23:08Z</time>
      </trkpt>
      <trkpt lat="47.75914" lon="7.33118">
        <ele>236.22</ele>
        <time>2021-06-23T09:23:08Z</time>
      </trkpt>
      <trkpt lat="47.75941" lon="7.33159">
        <ele>236.68</ele>
        <time>2021-06-23T09:23:20Z</time>
      </trkpt>
      <trkpt lat="47.75926" lon="7.33178">
        <ele>237.42</ele>
        <time>2021-06-23T09:23:26Z</time>
      </trkpt>
      <trkpt lat="47.75869" lon="7.33122">
        <ele>236.11</ele>
        <time>2021-06-23T09:23:35Z</time>
      </trkpt>
      <trkpt lat="47.75855" lon="7.33099">
        <ele>235.98</ele>
        <time>2021-06-23T09:23:40Z</time>
      </trkpt>
      <trkpt lat="47.7585" lon="7.33085">
        <ele>235.85</ele>
        <time>2021-06-23T09:23:46Z</time>
      </trkpt>
      <trkpt lat="47.75848" lon="7.33066">
        <ele>236.29</ele>
        <time>2021-06-23T09:23:51Z</time>
      </trkpt>
      <trkpt lat="47.75852" lon="7.33044">
        <ele>236.33</ele>
        <time>2021-06-23T09:23:57Z</time>
      </trkpt>
      <trkpt lat="47.75868" lon="7.33">
        <ele>237</ele>
        <time>2021-06-23T09:24:02Z</time>
      </trkpt>
      <trkpt lat="47.75885" lon="7.32969">
        <ele>237</ele>
        <time>2021-06-23T09:24:08Z</time>
      </trkpt>
      <trkpt lat="47.75903" lon="7.32942">
        <ele>237.6</ele>
        <time>2021-06-23T09:24:13Z</time>
      </trkpt>
      <trkpt lat="47.75945" lon="7.32885">
        <ele>241</ele>
        <time>2021-06-23T09:24:18Z</time>
      </trkpt>
      <trkpt lat="47.75971" lon="7.32849">
        <ele>239.09</ele>
        <time>2021-06-23T09:24:24Z</time>
      </trkpt>
      <trkpt lat="47.76014" lon="7.32798">
        <ele>239.13</ele>
        <time>2021-06-23T09:24:29Z</time>
      </trkpt>
      <trkpt lat="47.7613" lon="7.32675">
        <ele>238.89</ele>
        <time>2021-06-23T09:24:35Z</time>
      </trkpt>
      <trkpt lat="47.76157" lon="7.32651">
        <ele>239.76</ele>
        <time>2021-06-23T09:24:40Z</time>
      </trkpt>
      <trkpt lat="47.76198" lon="7.32619">
        <ele>239.36</ele>
        <time>2021-06-23T09:24:46Z</time>
      </trkpt>
      <trkpt lat="47.76355" lon="7.32489">
        <ele>238.19</ele>
        <time>2021-06-23T09:24:51Z</time>
      </trkpt>
      <trkpt lat="47.76397" lon="7.32445">
        <ele>237.66</ele>
        <time>2021-06-23T09:24:57Z</time>
      </trkpt>
      <trkpt lat="47.76464" lon="7.32389">
        <ele>237.99</ele>
        <time>2021-06-23T09:25:02Z</time>
      </trkpt>
      <trkpt lat="47.76526" lon="7.32496">
        <ele>236.94</ele>
        <time>2021-06-23T09:25:06Z</time>
      </trkpt>
      <trkpt lat="47.76534" lon="7.32507">
        <ele>237.23</ele>
        <time>2021-06-23T09:25:09Z</time>
      </trkpt>
      <trkpt lat="47.76537" lon="7.32509">
        <ele>237.55</ele>
        <time>2021-06-23T09:25:13Z</time>
      </trkpt>
      <trkpt lat="47.76537" lon="7.32509">
        <ele>237.55</ele>
        <time>2021-06-23T09:25:13Z</time>
      </trkpt>
      <trkpt lat="47.76552" lon="7.32516">
        <ele>237.88</ele>
        <time>2021-06-23T09:25:23Z</time>
      </trkpt>
      <trkpt lat="47.76597" lon="7.32524">
        <ele>239</ele>
        <time>2021-06-23T09:25:32Z</time>
      </trkpt>
      <trkpt lat="47.76694" lon="7.3255">
        <ele>236.2</ele>
        <time>2021-06-23T09:25:42Z</time>
      </trkpt>
      <trkpt lat="47.76964" lon="7.32617">
        <ele>238.64</ele>
        <time>2021-06-23T09:25:51Z</time>
      </trkpt>
      <trkpt lat="47.77123" lon="7.32663">
        <ele>235.63</ele>
        <time>2021-06-23T09:26:01Z</time>
      </trkpt>
      <trkpt lat="47.77231" lon="7.32691">
        <ele>235.8</ele>
        <time>2021-06-23T09:26:10Z</time>
      </trkpt>
      <trkpt lat="47.77257" lon="7.32701">
        <ele>235</ele>
        <time>2021-06-23T09:26:20Z</time>
      </trkpt>
      <trkpt lat="47.77377" lon="7.32774">
        <ele>236</ele>
        <time>2021-06-23T09:26:29Z</time>
      </trkpt>
      <trkpt lat="47.77391" lon="7.32788">
        <ele>236.12</ele>
        <time>2021-06-23T09:26:39Z</time>
      </trkpt>
      <trkpt lat="47.774" lon="7.32795">
        <ele>236.79</ele>
        <time>2021-06-23T09:26:48Z</time>
      </trkpt>
      <trkpt lat="47.77501" lon="7.32857">
        <ele>238.86</ele>
        <time>2021-06-23T09:26:58Z</time>
      </trkpt>
      <trkpt lat="47.77614" lon="7.32901">
        <ele>235.43</ele>
        <time>2021-06-23T09:27:07Z</time>
      </trkpt>
      <trkpt lat="47.7762" lon="7.3291">
        <ele>235.74</ele>
        <time>2021-06-23T09:27:11Z</time>
      </trkpt>
      <trkpt lat="47.77628" lon="7.32914">
        <ele>235.89</ele>
        <time>2021-06-23T09:27:15Z</time>
      </trkpt>
      <trkpt lat="47.77635" lon="7.32928">
        <ele>236.49</ele>
        <time>2021-06-23T09:27:19Z</time>
      </trkpt>
      <trkpt lat="47.77695" lon="7.33085">
        <ele>237.99</ele>
        <time>2021-06-23T09:27:23Z</time>
      </trkpt>
      <trkpt lat="47.77708" lon="7.33115">
        <ele>238.01</ele>
        <time>2021-06-23T09:27:28Z</time>
      </trkpt>
      <trkpt lat="47.77777" lon="7.33256">
        <ele>233.04</ele>
        <time>2021-06-23T09:27:32Z</time>
      </trkpt>
      <trkpt lat="47.77788" lon="7.33268">
        <ele>233.35</ele>
        <time>2021-06-23T09:27:36Z</time>
      </trkpt>
      <trkpt lat="47.77796" lon="7.33287">
        <ele>233.74</ele>
        <time>2021-06-23T09:27:40Z</time>
      </trkpt>
      <trkpt lat="47.77796" lon="7.33287">
        <ele>233.74</ele>
        <time>2021-06-23T09:27:40Z</time>
      </trkpt>
      <trkpt lat="47.77821" lon="7.33349">
        <ele>237</ele>
        <time>2021-06-23T09:27:43Z</time>
      </trkpt>
      <trkpt lat="47.77822" lon="7.33373">
        <ele>238.52</ele>
        <time>2021-06-23T09:27:45Z</time>
      </trkpt>
      <trkpt lat="47.77818" lon="7.33394">
        <ele>239.63</ele>
        <time>2021-06-23T09:27:48Z</time>
      </trkpt>
      <trkpt lat="47.77813" lon="7.33403">
        <ele>239.87</ele>
        <time>2021-06-23T09:27:52Z</time>
      </trkpt>
      <trkpt lat="47.77809" lon="7.33414">
        <ele>239.99</ele>
        <time>2021-06-23T09:27:56Z</time>
      </trkpt>
      <trkpt lat="47.77808" lon="7.33426">
        <ele>239.7</ele>
        <time>2021-06-23T09:28:00Z</time>
      </trkpt>
      <trkpt lat="47.77809" lon="7.33438">
        <ele>239.33</ele>
        <time>2021-06-23T09:28:04Z</time>
      </trkpt>
      <trkpt lat="47.77812" lon="7.33449">
        <ele>239.06</ele>
        <time>2021-06-23T09:28:07Z</time>
      </trkpt>
      <trkpt lat="47.77816" lon="7.33459">
        <ele>238.87</ele>
        <time>2021-06-23T09:28:11Z</time>
      </trkpt>
      <trkpt lat="47.77823" lon="7.33466">
        <ele>238.82</ele>
        <time>2021-06-23T09:28:15Z</time>
      </trkpt>
      <trkpt lat="47.7783" lon="7.33471">
        <ele>238.9</ele>
        <time>2021-06-23T09:28:19Z</time>
      </trkpt>
      <trkpt lat="47.77838" lon="7.33473">
        <ele>238.79</ele>
        <time>2021-06-23T09:28:23Z</time>
      </trkpt>
      <trkpt lat="47.77846" lon="7.33472">
        <ele>238.55</ele>
        <time>2021-06-23T09:28:27Z</time>
      </trkpt>
      <trkpt lat="47.77856" lon="7.3348">
        <ele>237.66</ele>
        <time>2021-06-23T09:28:31Z</time>
      </trkpt>
      <trkpt lat="47.77866" lon="7.33498">
        <ele>235.96</ele>
        <time>2021-06-23T09:28:35Z</time>
      </trkpt>
      <trkpt lat="47.77881" lon="7.33537">
        <ele>236.87</ele>
        <time>2021-06-23T09:28:39Z</time>
      </trkpt>
      <trkpt lat="47.77896" lon="7.33617">
        <ele>237.26</ele>
        <time>2021-06-23T09:28:42Z</time>
      </trkpt>
      <trkpt lat="47.77901" lon="7.33653">
        <ele>235.57</ele>
        <time>2021-06-23T09:28:46Z</time>
      </trkpt>
      <trkpt lat="47.77905" lon="7.33712">
        <ele>235.74</ele>
        <time>2021-06-23T09:28:50Z</time>
      </trkpt>
      <trkpt lat="47.7793" lon="7.34244">
        <ele>233.2</ele>
        <time>2021-06-23T09:28:54Z</time>
      </trkpt>
      <trkpt lat="47.7794" lon="7.34421">
        <ele>228.48</ele>
        <time>2021-06-23T09:28:58Z</time>
      </trkpt>
      <trkpt lat="47.77953" lon="7.34563">
        <ele>233.41</ele>
        <time>2021-06-23T09:29:02Z</time>
      </trkpt>
      <trkpt lat="47.77953" lon="7.34604">
        <ele>231.46</ele>
        <time>2021-06-23T09:29:06Z</time>
      </trkpt>
      <trkpt lat="47.77948" lon="7.34645">
        <ele>231.02</ele>
        <time>2021-06-23T09:29:10Z</time>
      </trkpt>
      <trkpt lat="47.77944" lon="7.34658">
        <ele>230.97</ele>
        <time>2021-06-23T09:29:14Z</time>
      </trkpt>
      <trkpt lat="47.77938" lon="7.3467">
        <ele>230.79</ele>
        <time>2021-06-23T09:29:17Z</time>
      </trkpt>
      <trkpt lat="47.7793" lon="7.34678">
        <ele>230.69</ele>
        <time>2021-06-23T09:29:21Z</time>
      </trkpt>
      <trkpt lat="47.77912" lon="7.3472">
        <ele>231.9</ele>
        <time>2021-06-23T09:29:25Z</time>
      </trkpt>
      <trkpt lat="47.77907" lon="7.34726">
        <ele>232.09</ele>
        <time>2021-06-23T09:29:28Z</time>
      </trkpt>
      <trkpt lat="47.77906" lon="7.34731">
        <ele>232.18</ele>
        <time>2021-06-23T09:29:31Z</time>
      </trkpt>
      <trkpt lat="47.77907" lon="7.3474">
        <ele>232.4</ele>
        <time>2021-06-23T09:29:35Z</time>
      </trkpt>
      <trkpt lat="47.77908" lon="7.34744">
        <ele>232.55</ele>
        <time>2021-06-23T09:29:38Z</time>
      </trkpt>
      <trkpt lat="47.77909" lon="7.34758">
        <ele>232.65</ele>
        <time>2021-06-23T09:29:41Z</time>
      </trkpt>
      <trkpt lat="47.77907" lon="7.34776">
        <ele>232.36</ele>
        <time>2021-06-23T09:29:44Z</time>
      </trkpt>
      <trkpt lat="47.77909" lon="7.34788">
        <ele>232.68</ele>
        <time>2021-06-23T09:29:47Z</time>
      </trkpt>
      <trkpt lat="47.77891" lon="7.34892">
        <ele>231.07</ele>
        <time>2021-06-23T09:29:50Z</time>
      </trkpt>
      <trkpt lat="47.77869" lon="7.35006">
        <ele>232.44</ele>
        <time>2021-06-23T09:29:53Z</time>
      </trkpt>
      <trkpt lat="47.77827" lon="7.35126">
        <ele>231.18</ele>
        <time>2021-06-23T09:29:56Z</time>
      </trkpt>
      <trkpt lat="47.77812" lon="7.35175">
        <ele>230.71</ele>
        <time>2021-06-23T09:29:59Z</time>
      </trkpt>
      <trkpt lat="47.77796" lon="7.35235">
        <ele>231.8</ele>
        <time>2021-06-23T09:30:02Z</time>
      </trkpt>
      <trkpt lat="47.77794" lon="7.35268">
        <ele>232.43</ele>
        <time>2021-06-23T09:30:05Z</time>
      </trkpt>
      <trkpt lat="47.77786" lon="7.35299">
        <ele>232.84</ele>
        <time>2021-06-23T09:30:08Z</time>
      </trkpt>
      <trkpt lat="47.77783" lon="7.35303">
        <ele>232.93</ele>
        <time>2021-06-23T09:30:12Z</time>
      </trkpt>
      <trkpt lat="47.77781" lon="7.35315">
        <ele>233</ele>
        <time>2021-06-23T09:30:16Z</time>
      </trkpt>
      <trkpt lat="47.77781" lon="7.35321">
        <ele>233</ele>
        <time>2021-06-23T09:30:19Z</time>
      </trkpt>
      <trkpt lat="47.77786" lon="7.3533">
        <ele>233</ele>
        <time>2021-06-23T09:30:23Z</time>
      </trkpt>
      <trkpt lat="47.77793" lon="7.35333">
        <ele>233</ele>
        <time>2021-06-23T09:30:27Z</time>
      </trkpt>
      <trkpt lat="47.77798" lon="7.35345">
        <ele>232.68</ele>
        <time>2021-06-23T09:30:30Z</time>
      </trkpt>
      <trkpt lat="47.77806" lon="7.35357">
        <ele>232.15</ele>
        <time>2021-06-23T09:30:34Z</time>
      </trkpt>
      <trkpt lat="47.77819" lon="7.35404">
        <ele>230.72</ele>
        <time>2021-06-23T09:30:38Z</time>
      </trkpt>
      <trkpt lat="47.7783" lon="7.35436">
        <ele>230.27</ele>
        <time>2021-06-23T09:30:41Z</time>
      </trkpt>
      <trkpt lat="47.77979" lon="7.35796">
        <ele>227.76</ele>
        <time>2021-06-23T09:30:45Z</time>
      </trkpt>
      <trkpt lat="47.77993" lon="7.35839">
        <ele>227.41</ele>
        <time>2021-06-23T09:30:49Z</time>
      </trkpt>
      <trkpt lat="47.78002" lon="7.35875">
        <ele>227.92</ele>
        <time>2021-06-23T09:30:52Z</time>
      </trkpt>
      <trkpt lat="47.78018" lon="7.35956">
        <ele>229.15</ele>
        <time>2021-06-23T09:30:56Z</time>
      </trkpt>
      <trkpt lat="47.78025" lon="7.36016">
        <ele>229</ele>
        <time>2021-06-23T09:31:00Z</time>
      </trkpt>
      <trkpt lat="47.78027" lon="7.36059">
        <ele>229</ele>
        <time>2021-06-23T09:31:04Z</time>
      </trkpt>
      <trkpt lat="47.78028" lon="7.36116">
        <ele>230.42</ele>
        <time>2021-06-23T09:31:07Z</time>
      </trkpt>
      <trkpt lat="47.78024" lon="7.36186">
        <ele>232.59</ele>
        <time>2021-06-23T09:31:11Z</time>
      </trkpt>
      <trkpt lat="47.7802" lon="7.36225">
        <ele>230.91</ele>
        <time>2021-06-23T09:31:15Z</time>
      </trkpt>
      <trkpt lat="47.78012" lon="7.36271">
        <ele>229.71</ele>
        <time>2021-06-23T09:31:18Z</time>
      </trkpt>
      <trkpt lat="47.77957" lon="7.36475">
        <ele>232.46</ele>
        <time>2021-06-23T09:31:22Z</time>
      </trkpt>
      <trkpt lat="47.77952" lon="7.36481">
        <ele>232.27</ele>
        <time>2021-06-23T09:31:26Z</time>
      </trkpt>
      <trkpt lat="47.7795" lon="7.3649">
        <ele>232.2</ele>
        <time>2021-06-23T09:31:29Z</time>
      </trkpt>
      <trkpt lat="47.77951" lon="7.36495">
        <ele>232.22</ele>
        <time>2021-06-23T09:31:33Z</time>
      </trkpt>
      <trkpt lat="47.77944" lon="7.3652">
        <ele>232.71</ele>
        <time>2021-06-23T09:31:36Z</time>
      </trkpt>
      <trkpt lat="47.77932" lon="7.36556">
        <ele>232.46</ele>
        <time>2021-06-23T09:31:40Z</time>
      </trkpt>
      <trkpt lat="47.77867" lon="7.3678">
        <ele>229.06</ele>
        <time>2021-06-23T09:31:43Z</time>
      </trkpt>
      <trkpt lat="47.77858" lon="7.36806">
        <ele>230</ele>
        <time>2021-06-23T09:31:47Z</time>
      </trkpt>
      <trkpt lat="47.77852" lon="7.3681">
        <ele>230.11</ele>
        <time>2021-06-23T09:31:53Z</time>
      </trkpt>
      <trkpt lat="47.77849" lon="7.36815">
        <ele>230.19</ele>
        <time>2021-06-23T09:31:58Z</time>
      </trkpt>
      <trkpt lat="47.77846" lon="7.36827">
        <ele>230.35</ele>
        <time>2021-06-23T09:32:04Z</time>
      </trkpt>
      <trkpt lat="47.77848" lon="7.36838">
        <ele>230.52</ele>
        <time>2021-06-23T09:32:09Z</time>
      </trkpt>
      <trkpt lat="47.77853" lon="7.36847">
        <ele>230.7</ele>
        <time>2021-06-23T09:32:15Z</time>
      </trkpt>
      <trkpt lat="47.77857" lon="7.3685">
        <ele>230.83</ele>
        <time>2021-06-23T09:32:21Z</time>
      </trkpt>
      <trkpt lat="47.77856" lon="7.36896">
        <ele>232.93</ele>
        <time>2021-06-23T09:32:26Z</time>
      </trkpt>
      <trkpt lat="47.77852" lon="7.36951">
        <ele>234</ele>
        <time>2021-06-23T09:32:32Z</time>
      </trkpt>
      <trkpt lat="47.77853" lon="7.37029">
        <ele>231.99</ele>
        <time>2021-06-23T09:32:37Z</time>
      </trkpt>
      <trkpt lat="47.77909" lon="7.37566">
        <ele>228.63</ele>
        <time>2021-06-23T09:32:43Z</time>
      </trkpt>
      <trkpt lat="47.77929" lon="7.37775">
        <ele>231</ele>
        <time>2021-06-23T09:32:49Z</time>
      </trkpt>
      <trkpt lat="47.77935" lon="7.37814">
        <ele>230</ele>
        <time>2021-06-23T09:32:54Z</time>
      </trkpt>
      <trkpt lat="47.77943" lon="7.37835">
        <ele>230.31</ele>
        <time>2021-06-23T09:33:00Z</time>
      </trkpt>
      <trkpt lat="47.77943" lon="7.37835">
        <ele>230.31</ele>
        <time>2021-06-23T09:33:00Z</time>
      </trkpt>
      <trkpt lat="47.77955" lon="7.37866">
        <ele>230.62</ele>
        <time>2021-06-23T09:33:01Z</time>
      </trkpt>
      <trkpt lat="47.77957" lon="7.37883">
        <ele>230.57</ele>
        <time>2021-06-23T09:33:03Z</time>
      </trkpt>
      <trkpt lat="47.77953" lon="7.37899">
        <ele>230.44</ele>
        <time>2021-06-23T09:33:05Z</time>
      </trkpt>
      <trkpt lat="47.77939" lon="7.37924">
        <ele>229.79</ele>
        <time>2021-06-23T09:33:07Z</time>
      </trkpt>
      <trkpt lat="47.7793" lon="7.37921">
        <ele>229.93</ele>
        <time>2021-06-23T09:33:10Z</time>
      </trkpt>
      <trkpt lat="47.77918" lon="7.37924">
        <ele>229.99</ele>
        <time>2021-06-23T09:33:13Z</time>
      </trkpt>
      <trkpt lat="47.77912" lon="7.37929">
        <ele>230.18</ele>
        <time>2021-06-23T09:33:16Z</time>
      </trkpt>
      <trkpt lat="47.77905" lon="7.37938">
        <ele>230.42</ele>
        <time>2021-06-23T09:33:19Z</time>
      </trkpt>
      <trkpt lat="47.779" lon="7.37954">
        <ele>230.27</ele>
        <time>2021-06-23T09:33:22Z</time>
      </trkpt>
      <trkpt lat="47.77899" lon="7.37969">
        <ele>229.76</ele>
        <time>2021-06-23T09:33:25Z</time>
      </trkpt>
      <trkpt lat="47.77904" lon="7.37989">
        <ele>229.46</ele>
        <time>2021-06-23T09:33:28Z</time>
      </trkpt>
      <trkpt lat="47.77909" lon="7.37998">
        <ele>229.27</ele>
        <time>2021-06-23T09:33:31Z</time>
      </trkpt>
      <trkpt lat="47.77918" lon="7.38006">
        <ele>229</ele>
        <time>2021-06-23T09:33:34Z</time>
      </trkpt>
      <trkpt lat="47.7793" lon="7.38008">
        <ele>229</ele>
        <time>2021-06-23T09:33:37Z</time>
      </trkpt>
      <trkpt lat="47.77945" lon="7.38026">
        <ele>229</ele>
        <time>2021-06-23T09:33:40Z</time>
      </trkpt>
      <trkpt lat="47.77956" lon="7.38057">
        <ele>229.61</ele>
        <time>2021-06-23T09:33:43Z</time>
      </trkpt>
      <trkpt lat="47.77978" lon="7.38254">
        <ele>229.03</ele>
        <time>2021-06-23T09:33:46Z</time>
      </trkpt>
      <trkpt lat="47.7799" lon="7.38373">
        <ele>230.16</ele>
        <time>2021-06-23T09:33:49Z</time>
      </trkpt>
      <trkpt lat="47.77997" lon="7.38474">
        <ele>231.05</ele>
        <time>2021-06-23T09:33:52Z</time>
      </trkpt>
      <trkpt lat="47.77999" lon="7.38552">
        <ele>230</ele>
        <time>2021-06-23T09:33:55Z</time>
      </trkpt>
      <trkpt lat="47.7799" lon="7.38578">
        <ele>229.19</ele>
        <time>2021-06-23T09:33:58Z</time>
      </trkpt>
      <trkpt lat="47.77985" lon="7.38584">
        <ele>228.97</ele>
        <time>2021-06-23T09:34:00Z</time>
      </trkpt>
      <trkpt lat="47.77982" lon="7.38592">
        <ele>228.68</ele>
        <time>2021-06-23T09:34:02Z</time>
      </trkpt>
      <trkpt lat="47.7798" lon="7.38602">
        <ele>228.34</ele>
        <time>2021-06-23T09:34:04Z</time>
      </trkpt>
      <trkpt lat="47.7798" lon="7.38612">
        <ele>228</ele>
        <time>2021-06-23T09:34:06Z</time>
      </trkpt>
      <trkpt lat="47.77982" lon="7.38621">
        <ele>228</ele>
        <time>2021-06-23T09:34:08Z</time>
      </trkpt>
      <trkpt lat="47.77986" lon="7.38629">
        <ele>228</ele>
        <time>2021-06-23T09:34:10Z</time>
      </trkpt>
      <trkpt lat="47.77992" lon="7.38634">
        <ele>228</ele>
        <time>2021-06-23T09:34:12Z</time>
      </trkpt>
      <trkpt lat="47.77998" lon="7.38658">
        <ele>229.4</ele>
        <time>2021-06-23T09:34:14Z</time>
      </trkpt>
      <trkpt lat="47.77999" lon="7.38832">
        <ele>231.08</ele>
        <time>2021-06-23T09:34:16Z</time>
      </trkpt>
      <trkpt lat="47.7799" lon="7.38855">
        <ele>230.5</ele>
        <time>2021-06-23T09:34:18Z</time>
      </trkpt>
      <trkpt lat="47.77983" lon="7.38868">
        <ele>230.62</ele>
        <time>2021-06-23T09:34:20Z</time>
      </trkpt>
      <trkpt lat="47.77981" lon="7.38881">
        <ele>230.69</ele>
        <time>2021-06-23T09:34:21Z</time>
      </trkpt>
      <trkpt lat="47.77984" lon="7.38896">
        <ele>230.83</ele>
        <time>2021-06-23T09:34:22Z</time>
      </trkpt>
      <trkpt lat="47.7799" lon="7.38908">
        <ele>231.04</ele>
        <time>2021-06-23T09:34:23Z</time>
      </trkpt>
      <trkpt lat="47.78001" lon="7.38914">
        <ele>230.88</ele>
        <time>2021-06-23T09:34:24Z</time>
      </trkpt>
      <trkpt lat="47.78009" lon="7.38912">
        <ele>230.56</ele>
        <time>2021-06-23T09:34:25Z</time>
      </trkpt>
      <trkpt lat="47.78019" lon="7.38903">
        <ele>230.17</ele>
        <time>2021-06-23T09:34:27Z</time>
      </trkpt>
      <trkpt lat="47.78023" lon="7.38892">
        <ele>230.02</ele>
        <time>2021-06-23T09:34:28Z</time>
      </trkpt>
      <trkpt lat="47.78043" lon="7.3889">
        <ele>230.42</ele>
        <time>2021-06-23T09:34:29Z</time>
      </trkpt>
      <trkpt lat="47.78043" lon="7.3889">
        <ele>230.42</ele>
        <time>2021-06-23T09:34:29Z</time>
      </trkpt>
      <trkpt lat="47.78084" lon="7.38893">
        <ele>230.98</ele>
        <time>2021-06-23T09:34:38Z</time>
      </trkpt>
      <trkpt lat="47.78125" lon="7.38887">
        <ele>230.05</ele>
        <time>2021-06-23T09:34:48Z</time>
      </trkpt>
      <trkpt lat="47.7841" lon="7.38843">
        <ele>229.08</ele>
        <time>2021-06-23T09:34:58Z</time>
      </trkpt>
      <trkpt lat="47.78551" lon="7.38818">
        <ele>227</ele>
        <time>2021-06-23T09:35:07Z</time>
      </trkpt>
      <trkpt lat="47.78587" lon="7.38814">
        <ele>227.81</ele>
        <time>2021-06-23T09:35:17Z</time>
      </trkpt>
      <trkpt lat="47.78605" lon="7.38825">
        <ele>228.08</ele>
        <time>2021-06-23T09:35:27Z</time>
      </trkpt>
      <trkpt lat="47.78611" lon="7.38836">
        <ele>227.87</ele>
        <time>2021-06-23T09:35:30Z</time>
      </trkpt>
      <trkpt lat="47.78621" lon="7.38842">
        <ele>227.8</ele>
        <time>2021-06-23T09:35:34Z</time>
      </trkpt>
      <trkpt lat="47.78628" lon="7.3884">
        <ele>227.9</ele>
        <time>2021-06-23T09:35:37Z</time>
      </trkpt>
      <trkpt lat="47.78634" lon="7.38834">
        <ele>228</ele>
        <time>2021-06-23T09:35:40Z</time>
      </trkpt>
      <trkpt lat="47.78639" lon="7.38821">
        <ele>228.45</ele>
        <time>2021-06-23T09:35:44Z</time>
      </trkpt>
      <trkpt lat="47.78655" lon="7.38809">
        <ele>229.46</ele>
        <time>2021-06-23T09:35:47Z</time>
      </trkpt>
      <trkpt lat="47.78678" lon="7.38798">
        <ele>230</ele>
        <time>2021-06-23T09:35:51Z</time>
      </trkpt>
      <trkpt lat="47.78708" lon="7.38791">
        <ele>230</ele>
        <time>2021-06-23T09:35:54Z</time>
      </trkpt>
      <trkpt lat="47.78907" lon="7.38758">
        <ele>228.72</ele>
        <time>2021-06-23T09:35:58Z</time>
      </trkpt>
      <trkpt lat="47.78923" lon="7.38764">
        <ele>229.62</ele>
        <time>2021-06-23T09:36:01Z</time>
      </trkpt>
      <trkpt lat="47.78925" lon="7.3877">
        <ele>229.82</ele>
        <time>2021-06-23T09:36:10Z</time>
      </trkpt>
      <trkpt lat="47.78933" lon="7.38779">
        <ele>230.03</ele>
        <time>2021-06-23T09:36:19Z</time>
      </trkpt>
      <trkpt lat="47.78943" lon="7.38783">
        <ele>230.16</ele>
        <time>2021-06-23T09:36:28Z</time>
      </trkpt>
      <trkpt lat="47.78953" lon="7.38777">
        <ele>229.69</ele>
        <time>2021-06-23T09:36:37Z</time>
      </trkpt>
      <trkpt lat="47.7896" lon="7.38765">
        <ele>229.18</ele>
        <time>2021-06-23T09:36:46Z</time>
      </trkpt>
      <trkpt lat="47.78961" lon="7.38757">
        <ele>228.93</ele>
        <time>2021-06-23T09:36:55Z</time>
      </trkpt>
      <trkpt lat="47.78979" lon="7.38745">
        <ele>228</ele>
        <time>2021-06-23T09:37:04Z</time>
      </trkpt>
      <trkpt lat="47.79406" lon="7.38672">
        <ele>228.32</ele>
        <time>2021-06-23T09:37:13Z</time>
      </trkpt>
      <trkpt lat="47.79514" lon="7.38656">
        <ele>226</ele>
        <time>2021-06-23T09:37:22Z</time>
      </trkpt>
      <trkpt lat="47.79703" lon="7.38624">
        <ele>226.71</ele>
        <time>2021-06-23T09:37:32Z</time>
      </trkpt>
      <trkpt lat="47.80069" lon="7.3856">
        <ele>228.59</ele>
        <time>2021-06-23T09:37:41Z</time>
      </trkpt>
      <trkpt lat="47.80161" lon="7.38546">
        <ele>226.52</ele>
        <time>2021-06-23T09:37:50Z</time>
      </trkpt>
      <trkpt lat="47.80185" lon="7.3854">
        <ele>226.16</ele>
        <time>2021-06-23T09:37:59Z</time>
      </trkpt>
      <trkpt lat="47.80688" lon="7.38455">
        <ele>226.28</ele>
        <time>2021-06-23T09:38:08Z</time>
      </trkpt>
      <trkpt lat="47.81567" lon="7.38308">
        <ele>225</ele>
        <time>2021-06-23T09:38:17Z</time>
      </trkpt>
      <trkpt lat="47.81612" lon="7.38298">
        <ele>226</ele>
        <time>2021-06-23T09:38:26Z</time>
      </trkpt>
      <trkpt lat="47.81699" lon="7.38286">
        <ele>228</ele>
        <time>2021-06-23T09:38:35Z</time>
      </trkpt>
      <trkpt lat="47.81857" lon="7.38258">
        <ele>226.04</ele>
        <time>2021-06-23T09:38:44Z</time>
      </trkpt>
      <trkpt lat="47.81965" lon="7.38246">
        <ele>226.11</ele>
        <time>2021-06-23T09:38:53Z</time>
      </trkpt>
      <trkpt lat="47.81986" lon="7.38249">
        <ele>226.53</ele>
        <time>2021-06-23T09:39:02Z</time>
      </trkpt>
      <trkpt lat="47.82037" lon="7.38243">
        <ele>228.25</ele>
        <time>2021-06-23T09:39:11Z</time>
      </trkpt>
      <trkpt lat="47.82042" lon="7.38239">
        <ele>228.31</ele>
        <time>2021-06-23T09:39:20Z</time>
      </trkpt>
      <trkpt lat="47.82046" lon="7.38233">
        <ele>228.24</ele>
        <time>2021-06-23T09:39:29Z</time>
      </trkpt>
      <trkpt lat="47.82063" lon="7.38234">
        <ele>228.06</ele>
        <time>2021-06-23T09:39:42Z</time>
      </trkpt>
      <trkpt lat="47.82153" lon="7.38226">
        <ele>225.06</ele>
        <time>2021-06-23T09:39:55Z</time>
      </trkpt>
      <trkpt lat="47.8225" lon="7.38212">
        <ele>224.6</ele>
        <time>2021-06-23T09:40:08Z</time>
      </trkpt>
      <trkpt lat="47.82323" lon="7.38198">
        <ele>222.73</ele>
        <time>2021-06-23T09:40:21Z</time>
      </trkpt>
      <trkpt lat="47.82362" lon="7.38186">
        <ele>223</ele>
        <time>2021-06-23T09:40:34Z</time>
      </trkpt>
      <trkpt lat="47.82485" lon="7.38163">
        <ele>224.54</ele>
        <time>2021-06-23T09:40:47Z</time>
      </trkpt>
      <trkpt lat="47.82659" lon="7.38124">
        <ele>221.72</ele>
        <time>2021-06-23T09:41:00Z</time>
      </trkpt>
      <trkpt lat="47.82896" lon="7.38077">
        <ele>220.48</ele>
        <time>2021-06-23T09:41:13Z</time>
      </trkpt>
      <trkpt lat="47.83195" lon="7.38013">
        <ele>219.54</ele>
        <time>2021-06-23T09:41:26Z</time>
      </trkpt>
      <trkpt lat="47.83418" lon="7.37967">
        <ele>220.82</ele>
        <time>2021-06-23T09:41:40Z</time>
      </trkpt>
      <trkpt lat="47.8358" lon="7.3794">
        <ele>219.12</ele>
        <time>2021-06-23T09:41:53Z</time>
      </trkpt>
      <trkpt lat="47.8522" lon="7.37631">
        <ele>217.66</ele>
        <time>2021-06-23T09:42:06Z</time>
      </trkpt>
      <trkpt lat="47.85415" lon="7.37592">
        <ele>217.95</ele>
        <time>2021-06-23T09:42:19Z</time>
      </trkpt>
      <trkpt lat="47.85462" lon="7.37579">
        <ele>218</ele>
        <time>2021-06-23T09:42:32Z</time>
      </trkpt>
      <trkpt lat="47.85507" lon="7.3756">
        <ele>215.6</ele>
        <time>2021-06-23T09:42:45Z</time>
      </trkpt>
      <trkpt lat="47.85507" lon="7.3756">
        <ele>215.6</ele>
        <time>2021-06-23T09:42:45Z</time>
      </trkpt>
      <trkpt lat="47.85804" lon="7.3744">
        <ele>213.2</ele>
        <time>2021-06-23T09:42:51Z</time>
      </trkpt>
      <trkpt lat="47.85838" lon="7.37421">
        <ele>213.14</ele>
        <time>2021-06-23T09:42:58Z</time>
      </trkpt>
      <trkpt lat="47.86025" lon="7.37294">
        <ele>216</ele>
        <time>2021-06-23T09:43:05Z</time>
      </trkpt>
      <trkpt lat="47.86201" lon="7.37169">
        <ele>216.51</ele>
        <time>2021-06-23T09:43:11Z</time>
      </trkpt>
      <trkpt lat="47.86245" lon="7.37125">
        <ele>217.81</ele>
        <time>2021-06-23T09:43:18Z</time>
      </trkpt>
      <trkpt lat="47.86281" lon="7.37068">
        <ele>216.89</ele>
        <time>2021-06-23T09:43:25Z</time>
      </trkpt>
      <trkpt lat="47.86308" lon="7.37016">
        <ele>215</ele>
        <time>2021-06-23T09:43:32Z</time>
      </trkpt>
      <trkpt lat="47.86381" lon="7.36808">
        <ele>215</ele>
        <time>2021-06-23T09:43:38Z</time>
      </trkpt>
      <trkpt lat="47.8641" lon="7.36732">
        <ele>215.17</ele>
        <time>2021-06-23T09:43:45Z</time>
      </trkpt>
      <trkpt lat="47.86443" lon="7.36653">
        <ele>215</ele>
        <time>2021-06-23T09:43:52Z</time>
      </trkpt>
      <trkpt lat="47.86481" lon="7.36572">
        <ele>213</ele>
        <time>2021-06-23T09:43:58Z</time>
      </trkpt>
      <trkpt lat="47.86551" lon="7.36437">
        <ele>213.56</ele>
        <time>2021-06-23T09:44:05Z</time>
      </trkpt>
      <trkpt lat="47.86632" lon="7.36311">
        <ele>213</ele>
        <time>2021-06-23T09:44:12Z</time>
      </trkpt>
      <trkpt lat="47.86683" lon="7.36243">
        <ele>213.26</ele>
        <time>2021-06-23T09:44:18Z</time>
      </trkpt>
      <trkpt lat="47.86784" lon="7.36091">
        <ele>213.56</ele>
        <time>2021-06-23T09:44:25Z</time>
      </trkpt>
      <trkpt lat="47.8679" lon="7.36087">
        <ele>213.09</ele>
        <time>2021-06-23T09:44:32Z</time>
      </trkpt>
      <trkpt lat="47.86796" lon="7.36087">
        <ele>212.7</ele>
        <time>2021-06-23T09:44:38Z</time>
      </trkpt>
      <trkpt lat="47.86801" lon="7.36084">
        <ele>212.35</ele>
        <time>2021-06-23T09:44:43Z</time>
      </trkpt>
      <trkpt lat="47.86806" lon="7.36076">
        <ele>211.99</ele>
        <time>2021-06-23T09:44:49Z</time>
      </trkpt>
      <trkpt lat="47.86807" lon="7.3606">
        <ele>211.94</ele>
        <time>2021-06-23T09:44:55Z</time>
      </trkpt>
      <trkpt lat="47.86813" lon="7.36047">
        <ele>211.74</ele>
        <time>2021-06-23T09:45:01Z</time>
      </trkpt>
      <trkpt lat="47.86998" lon="7.35763">
        <ele>212.93</ele>
        <time>2021-06-23T09:45:06Z</time>
      </trkpt>
      <trkpt lat="47.87145" lon="7.35542">
        <ele>214.27</ele>
        <time>2021-06-23T09:45:12Z</time>
      </trkpt>
      <trkpt lat="47.87181" lon="7.35493">
        <ele>212.82</ele>
        <time>2021-06-23T09:45:18Z</time>
      </trkpt>
      <trkpt lat="47.8724" lon="7.35431">
        <ele>211.36</ele>
        <time>2021-06-23T09:45:24Z</time>
      </trkpt>
      <trkpt lat="47.87257" lon="7.3542">
        <ele>211</ele>
        <time>2021-06-23T09:45:29Z</time>
      </trkpt>
      <trkpt lat="47.87266" lon="7.35417">
        <ele>211</ele>
        <time>2021-06-23T09:45:35Z</time>
      </trkpt>
      <trkpt lat="47.87278" lon="7.3542">
        <ele>211.02</ele>
        <time>2021-06-23T09:45:41Z</time>
      </trkpt>
      <trkpt lat="47.87288" lon="7.35426">
        <ele>211.38</ele>
        <time>2021-06-23T09:45:44Z</time>
      </trkpt>
      <trkpt lat="47.87299" lon="7.35427">
        <ele>211.76</ele>
        <time>2021-06-23T09:45:47Z</time>
      </trkpt>
      <trkpt lat="47.8731" lon="7.35421">
        <ele>212</ele>
        <time>2021-06-23T09:45:50Z</time>
      </trkpt>
      <trkpt lat="47.87319" lon="7.35407">
        <ele>212</ele>
        <time>2021-06-23T09:45:53Z</time>
      </trkpt>
      <trkpt lat="47.87323" lon="7.35387">
        <ele>212.03</ele>
        <time>2021-06-23T09:45:57Z</time>
      </trkpt>
      <trkpt lat="47.87338" lon="7.35368">
        <ele>211.96</ele>
        <time>2021-06-23T09:46:00Z</time>
      </trkpt>
      <trkpt lat="47.87378" lon="7.35347">
        <ele>212.5</ele>
        <time>2021-06-23T09:46:03Z</time>
      </trkpt>
      <trkpt lat="47.87416" lon="7.35335">
        <ele>212.94</ele>
        <time>2021-06-23T09:46:06Z</time>
      </trkpt>
      <trkpt lat="47.87461" lon="7.35324">
        <ele>213.59</ele>
        <time>2021-06-23T09:46:09Z</time>
      </trkpt>
      <trkpt lat="47.87572" lon="7.35321">
        <ele>213.19</ele>
        <time>2021-06-23T09:46:12Z</time>
      </trkpt>
      <trkpt lat="47.87589" lon="7.35331">
        <ele>213</ele>
        <time>2021-06-23T09:46:15Z</time>
      </trkpt>
      <trkpt lat="47.87594" lon="7.35346">
        <ele>213</ele>
        <time>2021-06-23T09:46:17Z</time>
      </trkpt>
      <trkpt lat="47.87605" lon="7.35361">
        <ele>213</ele>
        <time>2021-06-23T09:46:18Z</time>
      </trkpt>
      <trkpt lat="47.87618" lon="7.35367">
        <ele>212.95</ele>
        <time>2021-06-23T09:46:20Z</time>
      </trkpt>
      <trkpt lat="47.8763" lon="7.35364">
        <ele>212.93</ele>
        <time>2021-06-23T09:46:21Z</time>
      </trkpt>
      <trkpt lat="47.87641" lon="7.35356">
        <ele>213.12</ele>
        <time>2021-06-23T09:46:22Z</time>
      </trkpt>
      <trkpt lat="47.87652" lon="7.35333">
        <ele>213.51</ele>
        <time>2021-06-23T09:46:24Z</time>
      </trkpt>
      <trkpt lat="47.87653" lon="7.35307">
        <ele>213.49</ele>
        <time>2021-06-23T09:46:25Z</time>
      </trkpt>
      <trkpt lat="47.87648" lon="7.35289">
        <ele>213.27</ele>
        <time>2021-06-23T09:46:27Z</time>
      </trkpt>
      <trkpt lat="47.87638" lon="7.35275">
        <ele>212.97</ele>
        <time>2021-06-23T09:46:28Z</time>
      </trkpt>
      <trkpt lat="47.87625" lon="7.35269">
        <ele>212.34</ele>
        <time>2021-06-23T09:46:30Z</time>
      </trkpt>
      <trkpt lat="47.87611" lon="7.35271">
        <ele>212.05</ele>
        <time>2021-06-23T09:46:31Z</time>
      </trkpt>
      <trkpt lat="47.87611" lon="7.35271">
        <ele>212.05</ele>
        <time>2021-06-23T09:46:31Z</time>
      </trkpt>
      <trkpt lat="47.87597" lon="7.35284">
        <ele>212.22</ele>
        <time>2021-06-23T09:46:41Z</time>
      </trkpt>
      <trkpt lat="47.8759" lon="7.35301">
        <ele>212.83</ele>
        <time>2021-06-23T09:46:50Z</time>
      </trkpt>
      <trkpt lat="47.87589" lon="7.35331">
        <ele>213</ele>
        <time>2021-06-23T09:46:59Z</time>
      </trkpt>
      <trkpt lat="47.87594" lon="7.35346">
        <ele>213</ele>
        <time>2021-06-23T09:47:09Z</time>
      </trkpt>
      <trkpt lat="47.87605" lon="7.35361">
        <ele>213</ele>
        <time>2021-06-23T09:47:18Z</time>
      </trkpt>
      <trkpt lat="47.87618" lon="7.35367">
        <ele>212.95</ele>
        <time>2021-06-23T09:47:28Z</time>
      </trkpt>
      <trkpt lat="47.8763" lon="7.35364">
        <ele>212.93</ele>
        <time>2021-06-23T09:47:37Z</time>
      </trkpt>
      <trkpt lat="47.87641" lon="7.35356">
        <ele>213.12</ele>
        <time>2021-06-23T09:47:47Z</time>
      </trkpt>
      <trkpt lat="47.87652" lon="7.35333">
        <ele>213.51</ele>
        <time>2021-06-23T09:47:56Z</time>
      </trkpt>
      <trkpt lat="47.87663" lon="7.35328">
        <ele>213.13</ele>
        <time>2021-06-23T09:48:05Z</time>
      </trkpt>
      <trkpt lat="47.87689" lon="7.35321">
        <ele>212.56</ele>
        <time>2021-06-23T09:48:15Z</time>
      </trkpt>
      <trkpt lat="47.88982" lon="7.35361">
        <ele>210.66</ele>
        <time>2021-06-23T09:48:24Z</time>
      </trkpt>
      <trkpt lat="47.89026" lon="7.35358">
        <ele>210.01</ele>
        <time>2021-06-23T09:48:34Z</time>
      </trkpt>
      <trkpt lat="47.89064" lon="7.35349">
        <ele>210.16</ele>
        <time>2021-06-23T09:48:43Z</time>
      </trkpt>
      <trkpt lat="47.8921" lon="7.353">
        <ele>210.8</ele>
        <time>2021-06-23T09:48:52Z</time>
      </trkpt>
      <trkpt lat="47.89244" lon="7.35294">
        <ele>210</ele>
        <time>2021-06-23T09:49:02Z</time>
      </trkpt>
      <trkpt lat="47.89326" lon="7.35288">
        <ele>209.46</ele>
        <time>2021-06-23T09:49:11Z</time>
      </trkpt>
      <trkpt lat="47.89473" lon="7.35291">
        <ele>210.98</ele>
        <time>2021-06-23T09:49:21Z</time>
      </trkpt>
      <trkpt lat="47.89763" lon="7.35324">
        <ele>209.75</ele>
        <time>2021-06-23T09:49:30Z</time>
      </trkpt>
      <trkpt lat="47.89763" lon="7.35324">
        <ele>209.75</ele>
        <time>2021-06-23T09:49:30Z</time>
      </trkpt>
      <trkpt lat="47.89821" lon="7.35337">
        <ele>206.56</ele>
        <time>2021-06-23T09:49:38Z</time>
      </trkpt>
      <trkpt lat="47.89862" lon="7.35349">
        <ele>206.59</ele>
        <time>2021-06-23T09:49:45Z</time>
      </trkpt>
      <trkpt lat="47.89933" lon="7.35391">
        <ele>208.07</ele>
        <time>2021-06-23T09:49:52Z</time>
      </trkpt>
      <trkpt lat="47.8995" lon="7.35405">
        <ele>208.58</ele>
        <time>2021-06-23T09:50:00Z</time>
      </trkpt>
      <trkpt lat="47.90009" lon="7.35466">
        <ele>209.33</ele>
        <time>2021-06-23T09:50:07Z</time>
      </trkpt>
      <trkpt lat="47.90056" lon="7.3552">
        <ele>209.99</ele>
        <time>2021-06-23T09:50:14Z</time>
      </trkpt>
      <trkpt lat="47.90113" lon="7.35566">
        <ele>208.44</ele>
        <time>2021-06-23T09:50:22Z</time>
      </trkpt>
      <trkpt lat="47.90168" lon="7.35598">
        <ele>208.49</ele>
        <time>2021-06-23T09:50:29Z</time>
      </trkpt>
      <trkpt lat="47.90242" lon="7.35627">
        <ele>208.71</ele>
        <time>2021-06-23T09:50:36Z</time>
      </trkpt>
      <trkpt lat="47.906" lon="7.35721">
        <ele>208.41</ele>
        <time>2021-06-23T09:50:44Z</time>
      </trkpt>
      <trkpt lat="47.90644" lon="7.35738">
        <ele>207.28</ele>
        <time>2021-06-23T09:50:51Z</time>
      </trkpt>
      <trkpt lat="47.90685" lon="7.35759">
        <ele>205.35</ele>
        <time>2021-06-23T09:50:58Z</time>
      </trkpt>
      <trkpt lat="47.90708" lon="7.35772">
        <ele>205.39</ele>
        <time>2021-06-23T09:51:06Z</time>
      </trkpt>
      <trkpt lat="47.90745" lon="7.358">
        <ele>207.46</ele>
        <time>2021-06-23T09:51:13Z</time>
      </trkpt>
      <trkpt lat="47.90821" lon="7.35869">
        <ele>206.54</ele>
        <time>2021-06-23T09:51:20Z</time>
      </trkpt>
      <trkpt lat="47.90883" lon="7.3593">
        <ele>207.62</ele>
        <time>2021-06-23T09:51:28Z</time>
      </trkpt>
      <trkpt lat="47.90948" lon="7.35979">
        <ele>207.26</ele>
        <time>2021-06-23T09:51:35Z</time>
      </trkpt>
      <trkpt lat="47.91008" lon="7.36008">
        <ele>208.92</ele>
        <time>2021-06-23T09:51:42Z</time>
      </trkpt>
      <trkpt lat="47.91066" lon="7.36027">
        <ele>206.63</ele>
        <time>2021-06-23T09:51:50Z</time>
      </trkpt>
      <trkpt lat="47.91093" lon="7.36051">
        <ele>204.9</ele>
        <time>2021-06-23T09:51:57Z</time>
      </trkpt>
      <trkpt lat="47.91096" lon="7.36063">
        <ele>204.54</ele>
        <time>2021-06-23T09:51:58Z</time>
      </trkpt>
      <trkpt lat="47.91101" lon="7.36071">
        <ele>204.36</ele>
        <time>2021-06-23T09:51:59Z</time>
      </trkpt>
      <trkpt lat="47.91107" lon="7.36076">
        <ele>204.13</ele>
        <time>2021-06-23T09:51:59Z</time>
      </trkpt>
      <trkpt lat="47.91112" lon="7.36077">
        <ele>204.17</ele>
        <time>2021-06-23T09:52:00Z</time>
      </trkpt>
      <trkpt lat="47.91112" lon="7.36077">
        <ele>204.17</ele>
        <time>2021-06-23T09:52:00Z</time>
      </trkpt>
      <trkpt lat="47.91116" lon="7.36078">
        <ele>204.21</ele>
        <time>2021-06-23T09:52:08Z</time>
      </trkpt>
      <trkpt lat="47.91127" lon="7.36073">
        <ele>204.79</ele>
        <time>2021-06-23T09:52:17Z</time>
      </trkpt>
      <trkpt lat="47.91135" lon="7.36059">
        <ele>205.64</ele>
        <time>2021-06-23T09:52:25Z</time>
      </trkpt>
      <trkpt lat="47.91145" lon="7.36047">
        <ele>206.25</ele>
        <time>2021-06-23T09:52:34Z</time>
      </trkpt>
      <trkpt lat="47.9117" lon="7.36036">
        <ele>206.14</ele>
        <time>2021-06-23T09:52:42Z</time>
      </trkpt>
      <trkpt lat="47.9123" lon="7.36023">
        <ele>208</ele>
        <time>2021-06-23T09:52:50Z</time>
      </trkpt>
      <trkpt lat="47.91285" lon="7.35998">
        <ele>206.74</ele>
        <time>2021-06-23T09:52:59Z</time>
      </trkpt>
      <trkpt lat="47.91835" lon="7.35724">
        <ele>206.08</ele>
        <time>2021-06-23T09:53:07Z</time>
      </trkpt>
      <trkpt lat="47.91959" lon="7.35665">
        <ele>208.55</ele>
        <time>2021-06-23T09:53:16Z</time>
      </trkpt>
      <trkpt lat="47.92024" lon="7.35649">
        <ele>209.3</ele>
        <time>2021-06-23T09:53:24Z</time>
      </trkpt>
      <trkpt lat="47.92077" lon="7.35641">
        <ele>210</ele>
        <time>2021-06-23T09:53:32Z</time>
      </trkpt>
      <trkpt lat="47.92157" lon="7.35642">
        <ele>206.82</ele>
        <time>2021-06-23T09:53:41Z</time>
      </trkpt>
      <trkpt lat="47.92157" lon="7.35642">
        <ele>206.82</ele>
        <time>2021-06-23T09:53:41Z</time>
      </trkpt>
      <trkpt lat="47.92199" lon="7.3565">
        <ele>206.23</ele>
        <time>2021-06-23T09:53:43Z</time>
      </trkpt>
      <trkpt lat="47.9227" lon="7.3567">
        <ele>208</ele>
        <time>2021-06-23T09:53:45Z</time>
      </trkpt>
      <trkpt lat="47.92323" lon="7.35701">
        <ele>205.1</ele>
        <time>2021-06-23T09:53:47Z</time>
      </trkpt>
      <trkpt lat="47.92346" lon="7.35724">
        <ele>205.62</ele>
        <time>2021-06-23T09:53:49Z</time>
      </trkpt>
      <trkpt lat="47.92364" lon="7.35747">
        <ele>206.05</ele>
        <time>2021-06-23T09:53:51Z</time>
      </trkpt>
      <trkpt lat="47.92379" lon="7.3575">
        <ele>207.3</ele>
        <time>2021-06-23T09:53:57Z</time>
      </trkpt>
      <trkpt lat="47.92406" lon="7.3573">
        <ele>207.46</ele>
        <time>2021-06-23T09:54:03Z</time>
      </trkpt>
      <trkpt lat="47.92418" lon="7.35726">
        <ele>208</ele>
        <time>2021-06-23T09:54:08Z</time>
      </trkpt>
      <trkpt lat="47.92446" lon="7.35722">
        <ele>207.9</ele>
        <time>2021-06-23T09:54:14Z</time>
      </trkpt>
      <trkpt lat="47.92824" lon="7.35835">
        <ele>203.6</ele>
        <time>2021-06-23T09:54:20Z</time>
      </trkpt>
      <trkpt lat="47.92989" lon="7.35894">
        <ele>207.37</ele>
        <time>2021-06-23T09:54:26Z</time>
      </trkpt>
      <trkpt lat="47.93088" lon="7.35924">
        <ele>205.09</ele>
        <time>2021-06-23T09:54:31Z</time>
      </trkpt>
      <trkpt lat="47.93155" lon="7.35937">
        <ele>204</ele>
        <time>2021-06-23T09:54:37Z</time>
      </trkpt>
      <trkpt lat="47.93256" lon="7.35951">
        <ele>204.46</ele>
        <time>2021-06-23T09:54:43Z</time>
      </trkpt>
      <trkpt lat="47.93299" lon="7.35961">
        <ele>205.58</ele>
        <time>2021-06-23T09:54:49Z</time>
      </trkpt>
      <trkpt lat="47.9368" lon="7.36072">
        <ele>203</ele>
        <time>2021-06-23T09:54:55Z</time>
      </trkpt>
      <trkpt lat="47.93796" lon="7.36116">
        <ele>205.18</ele>
        <time>2021-06-23T09:55:00Z</time>
      </trkpt>
      <trkpt lat="47.93897" lon="7.36141">
        <ele>204.71</ele>
        <time>2021-06-23T09:55:06Z</time>
      </trkpt>
      <trkpt lat="47.94409" lon="7.36301">
        <ele>202.15</ele>
        <time>2021-06-23T09:55:12Z</time>
      </trkpt>
      <trkpt lat="47.94423" lon="7.36303">
        <ele>202.11</ele>
        <time>2021-06-23T09:55:18Z</time>
      </trkpt>
      <trkpt lat="47.94437" lon="7.36298">
        <ele>202.26</ele>
        <time>2021-06-23T09:55:23Z</time>
      </trkpt>
      <trkpt lat="47.94452" lon="7.36289">
        <ele>202.45</ele>
        <time>2021-06-23T09:55:29Z</time>
      </trkpt>
      <trkpt lat="47.94478" lon="7.36255">
        <ele>201.55</ele>
        <time>2021-06-23T09:55:35Z</time>
      </trkpt>
      <trkpt lat="47.94491" lon="7.36244">
        <ele>200.67</ele>
        <time>2021-06-23T09:55:41Z</time>
      </trkpt>
      <trkpt lat="47.94506" lon="7.36238">
        <ele>200</ele>
        <time>2021-06-23T09:55:47Z</time>
      </trkpt>
      <trkpt lat="47.94519" lon="7.3624">
        <ele>200</ele>
        <time>2021-06-23T09:55:52Z</time>
      </trkpt>
      <trkpt lat="47.94544" lon="7.36252">
        <ele>201.17</ele>
        <time>2021-06-23T09:55:58Z</time>
      </trkpt>
      <trkpt lat="47.94554" lon="7.36262">
        <ele>201.93</ele>
        <time>2021-06-23T09:56:04Z</time>
      </trkpt>
      <trkpt lat="47.94567" lon="7.36283">
        <ele>202.88</ele>
        <time>2021-06-23T09:56:10Z</time>
      </trkpt>
      <trkpt lat="47.94583" lon="7.36324">
        <ele>203.66</ele>
        <time>2021-06-23T09:56:15Z</time>
      </trkpt>
      <trkpt lat="47.94597" lon="7.3635">
        <ele>203.8</ele>
        <time>2021-06-23T09:56:21Z</time>
      </trkpt>
      <trkpt lat="47.94616" lon="7.36365">
        <ele>203.09</ele>
        <time>2021-06-23T09:56:27Z</time>
      </trkpt>
      <trkpt lat="47.94632" lon="7.36372">
        <ele>202.82</ele>
        <time>2021-06-23T09:56:33Z</time>
      </trkpt>
      <trkpt lat="47.94754" lon="7.3641">
        <ele>201.09</ele>
        <time>2021-06-23T09:56:39Z</time>
      </trkpt>
      <trkpt lat="47.94938" lon="7.36462">
        <ele>201.14</ele>
        <time>2021-06-23T09:56:44Z</time>
      </trkpt>
      <trkpt lat="47.95111" lon="7.36515">
        <ele>202.98</ele>
        <time>2021-06-23T09:56:50Z</time>
      </trkpt>
      <trkpt lat="47.95133" lon="7.36518">
        <ele>201.93</ele>
        <time>2021-06-23T09:56:56Z</time>
      </trkpt>
      <trkpt lat="47.95148" lon="7.36512">
        <ele>201.08</ele>
        <time>2021-06-23T09:57:02Z</time>
      </trkpt>
      <trkpt lat="47.9516" lon="7.36501">
        <ele>200.26</ele>
        <time>2021-06-23T09:57:07Z</time>
      </trkpt>
      <trkpt lat="47.95171" lon="7.36484">
        <ele>198.71</ele>
        <time>2021-06-23T09:57:13Z</time>
      </trkpt>
      <trkpt lat="47.95196" lon="7.36416">
        <ele>199.01</ele>
        <time>2021-06-23T09:57:19Z</time>
      </trkpt>
      <trkpt lat="47.95201" lon="7.36409">
        <ele>199.36</ele>
        <time>2021-06-23T09:57:25Z</time>
      </trkpt>
      <trkpt lat="47.95207" lon="7.36402">
        <ele>199.77</ele>
        <time>2021-06-23T09:57:31Z</time>
      </trkpt>
      <trkpt lat="47.95216" lon="7.36401">
        <ele>200.01</ele>
        <time>2021-06-23T09:57:36Z</time>
      </trkpt>
      <trkpt lat="47.95236" lon="7.36411">
        <ele>199.79</ele>
        <time>2021-06-23T09:57:42Z</time>
      </trkpt>
      <trkpt lat="47.95234" lon="7.36425">
        <ele>199.01</ele>
        <time>2021-06-23T09:57:44Z</time>
      </trkpt>
      <trkpt lat="47.95237" lon="7.36441">
        <ele>198.21</ele>
        <time>2021-06-23T09:57:46Z</time>
      </trkpt>
      <trkpt lat="47.95241" lon="7.36448">
        <ele>197.96</ele>
        <time>2021-06-23T09:57:48Z</time>
      </trkpt>
      <trkpt lat="47.95249" lon="7.36454">
        <ele>197.99</ele>
        <time>2021-06-23T09:57:50Z</time>
      </trkpt>
      <trkpt lat="47.9521" lon="7.36729">
        <ele>200.89</ele>
        <time>2021-06-23T09:57:53Z</time>
      </trkpt>
      <trkpt lat="47.952" lon="7.3673">
        <ele>200.79</ele>
        <time>2021-06-23T09:57:57Z</time>
      </trkpt>
      <trkpt lat="47.95189" lon="7.36742">
        <ele>200.43</ele>
        <time>2021-06-23T09:58:02Z</time>
      </trkpt>
      <trkpt lat="47.95185" lon="7.36756">
        <ele>200.33</ele>
        <time>2021-06-23T09:58:06Z</time>
      </trkpt>
      <trkpt lat="47.95186" lon="7.36766">
        <ele>200.3</ele>
        <time>2021-06-23T09:58:11Z</time>
      </trkpt>
      <trkpt lat="47.9519" lon="7.36777">
        <ele>200.17</ele>
        <time>2021-06-23T09:58:15Z</time>
      </trkpt>
      <trkpt lat="47.95196" lon="7.36785">
        <ele>200.37</ele>
        <time>2021-06-23T09:58:20Z</time>
      </trkpt>
      <trkpt lat="47.95204" lon="7.36788">
        <ele>200.82</ele>
        <time>2021-06-23T09:58:25Z</time>
      </trkpt>
      <trkpt lat="47.95214" lon="7.36786">
        <ele>201.27</ele>
        <time>2021-06-23T09:58:29Z</time>
      </trkpt>
      <trkpt lat="47.95221" lon="7.36777">
        <ele>201.9</ele>
        <time>2021-06-23T09:58:34Z</time>
      </trkpt>
      <trkpt lat="47.95225" lon="7.36765">
        <ele>201.68</ele>
        <time>2021-06-23T09:58:38Z</time>
      </trkpt>
      <trkpt lat="47.9526" lon="7.36773">
        <ele>203</ele>
        <time>2021-06-23T09:58:43Z</time>
      </trkpt>
      <trkpt lat="47.95285" lon="7.36772">
        <ele>202.74</ele>
        <time>2021-06-23T09:58:47Z</time>
      </trkpt>
      <trkpt lat="47.95309" lon="7.36762">
        <ele>201.94</ele>
        <time>2021-06-23T09:58:52Z</time>
      </trkpt>
      <trkpt lat="47.95368" lon="7.3671">
        <ele>202</ele>
        <time>2021-06-23T09:58:57Z</time>
      </trkpt>
      <trkpt lat="47.95397" lon="7.36698">
        <ele>202</ele>
        <time>2021-06-23T09:59:01Z</time>
      </trkpt>
      <trkpt lat="47.95424" lon="7.36694">
        <ele>202.25</ele>
        <time>2021-06-23T09:59:06Z</time>
      </trkpt>
      <trkpt lat="47.95448" lon="7.36698">
        <ele>203</ele>
        <time>2021-06-23T09:59:10Z</time>
      </trkpt>
      <trkpt lat="47.95736" lon="7.36784">
        <ele>202.88</ele>
        <time>2021-06-23T09:59:15Z</time>
      </trkpt>
      <trkpt lat="47.95986" lon="7.36862">
        <ele>199.51</ele>
        <time>2021-06-23T09:59:19Z</time>
      </trkpt>
      <trkpt lat="47.96036" lon="7.36871">
        <ele>201.06</ele>
        <time>2021-06-23T09:59:24Z</time>
      </trkpt>
      <trkpt lat="47.96122" lon="7.36897">
        <ele>202.44</ele>
        <time>2021-06-23T09:59:29Z</time>
      </trkpt>
      <trkpt lat="47.96265" lon="7.3695">
        <ele>200.55</ele>
        <time>2021-06-23T09:59:33Z</time>
      </trkpt>
      <trkpt lat="47.96563" lon="7.37045">
        <ele>200.11</ele>
        <time>2021-06-23T09:59:38Z</time>
      </trkpt>
      <trkpt lat="47.96829" lon="7.37126">
        <ele>198.93</ele>
        <time>2021-06-23T09:59:42Z</time>
      </trkpt>
      <trkpt lat="47.96989" lon="7.3718">
        <ele>200.1</ele>
        <time>2021-06-23T09:59:47Z</time>
      </trkpt>
      <trkpt lat="47.96999" lon="7.37189">
        <ele>199.82</ele>
        <time>2021-06-23T09:59:51Z</time>
      </trkpt>
      <trkpt lat="47.97009" lon="7.37201">
        <ele>199.68</ele>
        <time>2021-06-23T09:59:56Z</time>
      </trkpt>
      <trkpt lat="47.97017" lon="7.37216">
        <ele>199.4</ele>
        <time>2021-06-23T10:00:00Z</time>
      </trkpt>
      <trkpt lat="47.97023" lon="7.37234">
        <ele>198.75</ele>
        <time>2021-06-23T10:00:05Z</time>
      </trkpt>
      <trkpt lat="47.9703" lon="7.37291">
        <ele>197.55</ele>
        <time>2021-06-23T10:00:10Z</time>
      </trkpt>
      <trkpt lat="47.97035" lon="7.37305">
        <ele>197.26</ele>
        <time>2021-06-23T10:00:14Z</time>
      </trkpt>
      <trkpt lat="47.97051" lon="7.37324">
        <ele>198.5</ele>
        <time>2021-06-23T10:00:19Z</time>
      </trkpt>
      <trkpt lat="47.97057" lon="7.37335">
        <ele>199.07</ele>
        <time>2021-06-23T10:00:23Z</time>
      </trkpt>
      <trkpt lat="47.97068" lon="7.37342">
        <ele>199.16</ele>
        <time>2021-06-23T10:00:28Z</time>
      </trkpt>
      <trkpt lat="47.97085" lon="7.37337">
        <ele>199</ele>
        <time>2021-06-23T10:00:32Z</time>
      </trkpt>
      <trkpt lat="47.97094" lon="7.37331">
        <ele>198.94</ele>
        <time>2021-06-23T10:00:37Z</time>
      </trkpt>
      <trkpt lat="47.97115" lon="7.37326">
        <ele>199.03</ele>
        <time>2021-06-23T10:00:42Z</time>
      </trkpt>
      <trkpt lat="47.97129" lon="7.37313">
        <ele>199.46</ele>
        <time>2021-06-23T10:00:46Z</time>
      </trkpt>
      <trkpt lat="47.97153" lon="7.3727">
        <ele>199.85</ele>
        <time>2021-06-23T10:00:51Z</time>
      </trkpt>
      <trkpt lat="47.97166" lon="7.37254">
        <ele>199.98</ele>
        <time>2021-06-23T10:00:55Z</time>
      </trkpt>
      <trkpt lat="47.97176" lon="7.37248">
        <ele>200.33</ele>
        <time>2021-06-23T10:01:00Z</time>
      </trkpt>
      <trkpt lat="47.97191" lon="7.37245">
        <ele>200.88</ele>
        <time>2021-06-23T10:01:04Z</time>
      </trkpt>
      <trkpt lat="47.97203" lon="7.37246">
        <ele>200.72</ele>
        <time>2021-06-23T10:01:09Z</time>
      </trkpt>
      <trkpt lat="47.97606" lon="7.37376">
        <ele>197.9</ele>
        <time>2021-06-23T10:01:14Z</time>
      </trkpt>
      <trkpt lat="47.97822" lon="7.37441">
        <ele>197.11</ele>
        <time>2021-06-23T10:01:18Z</time>
      </trkpt>
      <trkpt lat="47.97864" lon="7.37458">
        <ele>197.95</ele>
        <time>2021-06-23T10:01:23Z</time>
      </trkpt>
      <trkpt lat="47.97889" lon="7.37476">
        <ele>196.83</ele>
        <time>2021-06-23T10:01:27Z</time>
      </trkpt>
      <trkpt lat="47.97929" lon="7.37519">
        <ele>195.29</ele>
        <time>2021-06-23T10:01:32Z</time>
      </trkpt>
      <trkpt lat="47.97959" lon="7.37543">
        <ele>196.53</ele>
        <time>2021-06-23T10:01:36Z</time>
      </trkpt>
      <trkpt lat="47.97989" lon="7.37555">
        <ele>197.61</ele>
        <time>2021-06-23T10:01:41Z</time>
      </trkpt>
      <trkpt lat="47.9802" lon="7.37558">
        <ele>199.38</ele>
        <time>2021-06-23T10:01:46Z</time>
      </trkpt>
      <trkpt lat="47.98035" lon="7.37556">
        <ele>199.72</ele>
        <time>2021-06-23T10:01:50Z</time>
      </trkpt>
      <trkpt lat="47.98093" lon="7.37538">
        <ele>198</ele>
        <time>2021-06-23T10:01:55Z</time>
      </trkpt>
      <trkpt lat="47.98107" lon="7.37537">
        <ele>198</ele>
        <time>2021-06-23T10:01:59Z</time>
      </trkpt>
      <trkpt lat="47.98133" lon="7.3754">
        <ele>197.22</ele>
        <time>2021-06-23T10:02:04Z</time>
      </trkpt>
      <trkpt lat="47.9866" lon="7.37707">
        <ele>196.79</ele>
        <time>2021-06-23T10:02:08Z</time>
      </trkpt>
      <trkpt lat="47.98771" lon="7.37734">
        <ele>195.86</ele>
        <time>2021-06-23T10:02:13Z</time>
      </trkpt>
      <trkpt lat="47.98788" lon="7.37739">
        <ele>196.14</ele>
        <time>2021-06-23T10:02:18Z</time>
      </trkpt>
      <trkpt lat="47.98878" lon="7.37777">
        <ele>195.01</ele>
        <time>2021-06-23T10:02:22Z</time>
      </trkpt>
      <trkpt lat="47.9913" lon="7.37858">
        <ele>195.27</ele>
        <time>2021-06-23T10:02:27Z</time>
      </trkpt>
      <trkpt lat="47.99149" lon="7.3787">
        <ele>196.66</ele>
        <time>2021-06-23T10:02:31Z</time>
      </trkpt>
      <trkpt lat="47.99162" lon="7.37891">
        <ele>197.88</ele>
        <time>2021-06-23T10:02:36Z</time>
      </trkpt>
      <trkpt lat="47.99166" lon="7.37912">
        <ele>198.79</ele>
        <time>2021-06-23T10:02:40Z</time>
      </trkpt>
      <trkpt lat="47.99164" lon="7.37956">
        <ele>198.42</ele>
        <time>2021-06-23T10:02:45Z</time>
      </trkpt>
      <trkpt lat="47.99154" lon="7.38026">
        <ele>196.11</ele>
        <time>2021-06-23T10:02:50Z</time>
      </trkpt>
      <trkpt lat="47.99152" lon="7.38058">
        <ele>195.9</ele>
        <time>2021-06-23T10:02:54Z</time>
      </trkpt>
      <trkpt lat="47.99159" lon="7.38078">
        <ele>195.85</ele>
        <time>2021-06-23T10:02:59Z</time>
      </trkpt>
      <trkpt lat="47.99184" lon="7.38106">
        <ele>196.12</ele>
        <time>2021-06-23T10:03:03Z</time>
      </trkpt>
      <trkpt lat="47.99185" lon="7.38114">
        <ele>195.9</ele>
        <time>2021-06-23T10:03:04Z</time>
      </trkpt>
      <trkpt lat="47.99189" lon="7.38121">
        <ele>195.66</ele>
        <time>2021-06-23T10:03:04Z</time>
      </trkpt>
      <trkpt lat="47.99193" lon="7.38125">
        <ele>195.51</ele>
        <time>2021-06-23T10:03:04Z</time>
      </trkpt>
      <trkpt lat="47.99199" lon="7.38126">
        <ele>195.22</ele>
        <time>2021-06-23T10:03:04Z</time>
      </trkpt>
      <trkpt lat="47.99204" lon="7.38124">
        <ele>195.02</ele>
        <time>2021-06-23T10:03:05Z</time>
      </trkpt>
      <trkpt lat="47.99209" lon="7.3812">
        <ele>195.04</ele>
        <time>2021-06-23T10:03:05Z</time>
      </trkpt>
      <trkpt lat="47.99212" lon="7.38112">
        <ele>195.33</ele>
        <time>2021-06-23T10:03:05Z</time>
      </trkpt>
      <trkpt lat="47.99213" lon="7.38103">
        <ele>195.63</ele>
        <time>2021-06-23T10:03:06Z</time>
      </trkpt>
      <trkpt lat="47.99211" lon="7.38095">
        <ele>195.96</ele>
        <time>2021-06-23T10:03:06Z</time>
      </trkpt>
      <trkpt lat="47.99208" lon="7.38088">
        <ele>196.35</ele>
        <time>2021-06-23T10:03:06Z</time>
      </trkpt>
      <trkpt lat="47.99203" lon="7.38084">
        <ele>196.66</ele>
        <time>2021-06-23T10:03:07Z</time>
      </trkpt>
      <trkpt lat="47.99198" lon="7.38083">
        <ele>196.89</ele>
        <time>2021-06-23T10:03:07Z</time>
      </trkpt>
      <trkpt lat="47.99192" lon="7.38085">
        <ele>196.86</ele>
        <time>2021-06-23T10:03:07Z</time>
      </trkpt>
      <trkpt lat="47.99188" lon="7.3809">
        <ele>196.59</ele>
        <time>2021-06-23T10:03:07Z</time>
      </trkpt>
      <trkpt lat="47.99185" lon="7.38097">
        <ele>196.22</ele>
        <time>2021-06-23T10:03:08Z</time>
      </trkpt>
      <trkpt lat="47.99185" lon="7.38097">
        <ele>196.22</ele>
        <time>2021-06-23T10:03:08Z</time>
      </trkpt>
      <trkpt lat="47.99184" lon="7.38106">
        <ele>196.12</ele>
        <time>2021-06-23T10:03:09Z</time>
      </trkpt>
      <trkpt lat="47.99185" lon="7.38114">
        <ele>195.9</ele>
        <time>2021-06-23T10:03:10Z</time>
      </trkpt>
      <trkpt lat="47.99189" lon="7.38121">
        <ele>195.66</ele>
        <time>2021-06-23T10:03:11Z</time>
      </trkpt>
      <trkpt lat="47.99193" lon="7.38125">
        <ele>195.51</ele>
        <time>2021-06-23T10:03:12Z</time>
      </trkpt>
      <trkpt lat="47.99199" lon="7.38126">
        <ele>195.22</ele>
        <time>2021-06-23T10:03:13Z</time>
      </trkpt>
      <trkpt lat="47.99204" lon="7.38124">
        <ele>195.02</ele>
        <time>2021-06-23T10:03:14Z</time>
      </trkpt>
      <trkpt lat="47.99209" lon="7.3812">
        <ele>195.04</ele>
        <time>2021-06-23T10:03:15Z</time>
      </trkpt>
      <trkpt lat="47.99212" lon="7.38112">
        <ele>195.33</ele>
        <time>2021-06-23T10:03:16Z</time>
      </trkpt>
      <trkpt lat="47.99213" lon="7.38103">
        <ele>195.63</ele>
        <time>2021-06-23T10:03:17Z</time>
      </trkpt>
      <trkpt lat="47.99211" lon="7.38095">
        <ele>195.96</ele>
        <time>2021-06-23T10:03:18Z</time>
      </trkpt>
      <trkpt lat="47.99208" lon="7.38088">
        <ele>196.35</ele>
        <time>2021-06-23T10:03:20Z</time>
      </trkpt>
      <trkpt lat="47.99203" lon="7.38084">
        <ele>196.66</ele>
        <time>2021-06-23T10:03:21Z</time>
      </trkpt>
      <trkpt lat="47.99211" lon="7.38062">
        <ele>196.85</ele>
        <time>2021-06-23T10:03:22Z</time>
      </trkpt>
      <trkpt lat="47.99221" lon="7.38025">
        <ele>197</ele>
        <time>2021-06-23T10:03:23Z</time>
      </trkpt>
      <trkpt lat="47.99315" lon="7.37746">
        <ele>194.89</ele>
        <time>2021-06-23T10:03:24Z</time>
      </trkpt>
      <trkpt lat="47.9933" lon="7.37715">
        <ele>194.9</ele>
        <time>2021-06-23T10:03:25Z</time>
      </trkpt>
      <trkpt lat="47.99339" lon="7.37701">
        <ele>195.21</ele>
        <time>2021-06-23T10:03:26Z</time>
      </trkpt>
      <trkpt lat="47.99344" lon="7.377">
        <ele>195.4</ele>
        <time>2021-06-23T10:03:30Z</time>
      </trkpt>
      <trkpt lat="47.99349" lon="7.37697">
        <ele>195.57</ele>
        <time>2021-06-23T10:03:35Z</time>
      </trkpt>
      <trkpt lat="47.99353" lon="7.3769">
        <ele>195.82</ele>
        <time>2021-06-23T10:03:39Z</time>
      </trkpt>
      <trkpt lat="47.99354" lon="7.37682">
        <ele>196.1</ele>
        <time>2021-06-23T10:03:44Z</time>
      </trkpt>
      <trkpt lat="47.99354" lon="7.37673">
        <ele>196.28</ele>
        <time>2021-06-23T10:03:48Z</time>
      </trkpt>
      <trkpt lat="47.99351" lon="7.37666">
        <ele>196.26</ele>
        <time>2021-06-23T10:03:53Z</time>
      </trkpt>
      <trkpt lat="47.99365" lon="7.37623">
        <ele>197.51</ele>
        <time>2021-06-23T10:03:57Z</time>
      </trkpt>
      <trkpt lat="47.99388" lon="7.37567">
        <ele>196.44</ele>
        <time>2021-06-23T10:04:02Z</time>
      </trkpt>
      <trkpt lat="47.99419" lon="7.37498">
        <ele>194.91</ele>
        <time>2021-06-23T10:04:06Z</time>
      </trkpt>
      <trkpt lat="47.99445" lon="7.37431">
        <ele>194.99</ele>
        <time>2021-06-23T10:04:10Z</time>
      </trkpt>
      <trkpt lat="47.99469" lon="7.3735">
        <ele>194</ele>
        <time>2021-06-23T10:04:15Z</time>
      </trkpt>
      <trkpt lat="47.99518" lon="7.37136">
        <ele>195</ele>
        <time>2021-06-23T10:04:19Z</time>
      </trkpt>
      <trkpt lat="47.99529" lon="7.37098">
        <ele>195.46</ele>
        <time>2021-06-23T10:04:24Z</time>
      </trkpt>
      <trkpt lat="47.99547" lon="7.37048">
        <ele>195.49</ele>
        <time>2021-06-23T10:04:28Z</time>
      </trkpt>
      <trkpt lat="47.99564" lon="7.37008">
        <ele>195.3</ele>
        <time>2021-06-23T10:04:33Z</time>
      </trkpt>
      <trkpt lat="47.99788" lon="7.36525">
        <ele>195</ele>
        <time>2021-06-23T10:04:37Z</time>
      </trkpt>
      <trkpt lat="47.99796" lon="7.36505">
        <ele>195</ele>
        <time>2021-06-23T10:04:42Z</time>
      </trkpt>
      <trkpt lat="47.9981" lon="7.36461">
        <ele>195</ele>
        <time>2021-06-23T10:04:46Z</time>
      </trkpt>
      <trkpt lat="47.99846" lon="7.36331">
        <ele>193.42</ele>
        <time>2021-06-23T10:04:51Z</time>
      </trkpt>
      <trkpt lat="47.99871" lon="7.36258">
        <ele>193.35</ele>
        <time>2021-06-23T10:04:55Z</time>
      </trkpt>
      <trkpt lat="47.99911" lon="7.36169">
        <ele>193.8</ele>
        <time>2021-06-23T10:04:59Z</time>
      </trkpt>
      <trkpt lat="47.99974" lon="7.36038">
        <ele>193.29</ele>
        <time>2021-06-23T10:05:04Z</time>
      </trkpt>
      <trkpt lat="47.99988" lon="7.35998">
        <ele>192.5</ele>
        <time>2021-06-23T10:05:08Z</time>
      </trkpt>
      <trkpt lat="48.00001" lon="7.35954">
        <ele>194.27</ele>
        <time>2021-06-23T10:05:13Z</time>
      </trkpt>
      <trkpt lat="48.00017" lon="7.35878">
        <ele>194.61</ele>
        <time>2021-06-23T10:05:17Z</time>
      </trkpt>
      <trkpt lat="48.00025" lon="7.35796">
        <ele>197.35</ele>
        <time>2021-06-23T10:05:22Z</time>
      </trkpt>
      <trkpt lat="48.00031" lon="7.35363">
        <ele>198.21</ele>
        <time>2021-06-23T10:05:26Z</time>
      </trkpt>
      <trkpt lat="48.00036" lon="7.3518">
        <ele>197.78</ele>
        <time>2021-06-23T10:05:31Z</time>
      </trkpt>
      <trkpt lat="48.00045" lon="7.35086">
        <ele>196.63</ele>
        <time>2021-06-23T10:05:35Z</time>
      </trkpt>
      <trkpt lat="48.00054" lon="7.35021">
        <ele>197.87</ele>
        <time>2021-06-23T10:05:39Z</time>
      </trkpt>
      <trkpt lat="48.00055" lon="7.35011">
        <ele>197.99</ele>
        <time>2021-06-23T10:05:44Z</time>
      </trkpt>
      <trkpt lat="48.0006" lon="7.3498">
        <ele>198.07</ele>
        <time>2021-06-23T10:05:48Z</time>
      </trkpt>
      <trkpt lat="48.00085" lon="7.3486">
        <ele>198.15</ele>
        <time>2021-06-23T10:05:53Z</time>
      </trkpt>
      <trkpt lat="48.00168" lon="7.34486">
        <ele>197.5</ele>
        <time>2021-06-23T10:05:57Z</time>
      </trkpt>
      <trkpt lat="48.00168" lon="7.34486">
        <ele>197.5</ele>
        <time>2021-06-23T10:05:57Z</time>
      </trkpt>
      <trkpt lat="48.00186" lon="7.34414">
        <ele>198.09</ele>
        <time>2021-06-23T10:06:03Z</time>
      </trkpt>
      <trkpt lat="48.00212" lon="7.34352">
        <ele>199.38</ele>
        <time>2021-06-23T10:06:09Z</time>
      </trkpt>
      <trkpt lat="48.00236" lon="7.3431">
        <ele>198.09</ele>
        <time>2021-06-23T10:06:15Z</time>
      </trkpt>
      <trkpt lat="48.00261" lon="7.34274">
        <ele>198.52</ele>
        <time>2021-06-23T10:06:21Z</time>
      </trkpt>
      <trkpt lat="48.00302" lon="7.34237">
        <ele>200.9</ele>
        <time>2021-06-23T10:06:27Z</time>
      </trkpt>
      <trkpt lat="48.00334" lon="7.34215">
        <ele>202.23</ele>
        <time>2021-06-23T10:06:33Z</time>
      </trkpt>
      <trkpt lat="48.00451" lon="7.3415">
        <ele>200</ele>
        <time>2021-06-23T10:06:38Z</time>
      </trkpt>
      <trkpt lat="48.00524" lon="7.34085">
        <ele>198.06</ele>
        <time>2021-06-23T10:06:44Z</time>
      </trkpt>
      <trkpt lat="48.00639" lon="7.33977">
        <ele>192.17</ele>
        <time>2021-06-23T10:06:50Z</time>
      </trkpt>
      <trkpt lat="48.00785" lon="7.33845">
        <ele>191.25</ele>
        <time>2021-06-23T10:06:56Z</time>
      </trkpt>
      <trkpt lat="48.01024" lon="7.33708">
        <ele>191</ele>
        <time>2021-06-23T10:07:02Z</time>
      </trkpt>
      <trkpt lat="48.01092" lon="7.33678">
        <ele>191.13</ele>
        <time>2021-06-23T10:07:08Z</time>
      </trkpt>
      <trkpt lat="48.01165" lon="7.33655">
        <ele>190.97</ele>
        <time>2021-06-23T10:07:14Z</time>
      </trkpt>
      <trkpt lat="48.01277" lon="7.33637">
        <ele>191</ele>
        <time>2021-06-23T10:07:20Z</time>
      </trkpt>
      <trkpt lat="48.01494" lon="7.33635">
        <ele>191.69</ele>
        <time>2021-06-23T10:07:25Z</time>
      </trkpt>
      <trkpt lat="48.01549" lon="7.3363">
        <ele>188.99</ele>
        <time>2021-06-23T10:07:31Z</time>
      </trkpt>
      <trkpt lat="48.01666" lon="7.33596">
        <ele>189</ele>
        <time>2021-06-23T10:07:37Z</time>
      </trkpt>
      <trkpt lat="48.01739" lon="7.33562">
        <ele>192.38</ele>
        <time>2021-06-23T10:07:43Z</time>
      </trkpt>
      <trkpt lat="48.01789" lon="7.33531">
        <ele>193.36</ele>
        <time>2021-06-23T10:07:49Z</time>
      </trkpt>
      <trkpt lat="48.01828" lon="7.33502">
        <ele>194.77</ele>
        <time>2021-06-23T10:07:55Z</time>
      </trkpt>
      <trkpt lat="48.01897" lon="7.33443">
        <ele>192.65</ele>
        <time>2021-06-23T10:08:01Z</time>
      </trkpt>
      <trkpt lat="48.01936" lon="7.33401">
        <ele>191.83</ele>
        <time>2021-06-23T10:08:07Z</time>
      </trkpt>
      <trkpt lat="48.01936" lon="7.33401">
        <ele>191.83</ele>
        <time>2021-06-23T10:08:07Z</time>
      </trkpt>
      <trkpt lat="48.01968" lon="7.33366">
        <ele>191</ele>
        <time>2021-06-23T10:08:12Z</time>
      </trkpt>
      <trkpt lat="48.02005" lon="7.33318">
        <ele>191.08</ele>
        <time>2021-06-23T10:08:17Z</time>
      </trkpt>
      <trkpt lat="48.0205" lon="7.33253">
        <ele>191.63</ele>
        <time>2021-06-23T10:08:23Z</time>
      </trkpt>
      <trkpt lat="48.02107" lon="7.33149">
        <ele>192.14</ele>
        <time>2021-06-23T10:08:28Z</time>
      </trkpt>
      <trkpt lat="48.02144" lon="7.33067">
        <ele>191.93</ele>
        <time>2021-06-23T10:08:34Z</time>
      </trkpt>
      <trkpt lat="48.02157" lon="7.33032">
        <ele>192.57</ele>
        <time>2021-06-23T10:08:39Z</time>
      </trkpt>
      <trkpt lat="48.02224" lon="7.32839">
        <ele>191.93</ele>
        <time>2021-06-23T10:08:44Z</time>
      </trkpt>
      <trkpt lat="48.02234" lon="7.32803">
        <ele>192.19</ele>
        <time>2021-06-23T10:08:50Z</time>
      </trkpt>
      <trkpt lat="48.02241" lon="7.32806">
        <ele>191.62</ele>
        <time>2021-06-23T10:08:54Z</time>
      </trkpt>
      <trkpt lat="48.02249" lon="7.32803">
        <ele>191.24</ele>
        <time>2021-06-23T10:08:58Z</time>
      </trkpt>
      <trkpt lat="48.02253" lon="7.32799">
        <ele>191.59</ele>
        <time>2021-06-23T10:09:02Z</time>
      </trkpt>
      <trkpt lat="48.02258" lon="7.32789">
        <ele>192.47</ele>
        <time>2021-06-23T10:09:06Z</time>
      </trkpt>
      <trkpt lat="48.02259" lon="7.3278">
        <ele>193.15</ele>
        <time>2021-06-23T10:09:10Z</time>
      </trkpt>
      <trkpt lat="48.02258" lon="7.32771">
        <ele>193.29</ele>
        <time>2021-06-23T10:09:14Z</time>
      </trkpt>
      <trkpt lat="48.02254" lon="7.32762">
        <ele>193.16</ele>
        <time>2021-06-23T10:09:18Z</time>
      </trkpt>
      <trkpt lat="48.02248" lon="7.32756">
        <ele>192.93</ele>
        <time>2021-06-23T10:09:22Z</time>
      </trkpt>
      <trkpt lat="48.02308" lon="7.32543">
        <ele>189.97</ele>
        <time>2021-06-23T10:09:26Z</time>
      </trkpt>
      <trkpt lat="48.02376" lon="7.32311">
        <ele>194.65</ele>
        <time>2021-06-23T10:09:30Z</time>
      </trkpt>
      <trkpt lat="48.024" lon="7.3224">
        <ele>194.47</ele>
        <time>2021-06-23T10:09:34Z</time>
      </trkpt>
      <trkpt lat="48.02416" lon="7.32197">
        <ele>193.04</ele>
        <time>2021-06-23T10:09:38Z</time>
      </trkpt>
      <trkpt lat="48.0246" lon="7.32095">
        <ele>193.51</ele>
        <time>2021-06-23T10:09:42Z</time>
      </trkpt>
      <trkpt lat="48.02502" lon="7.32012">
        <ele>193.31</ele>
        <time>2021-06-23T10:09:46Z</time>
      </trkpt>
      <trkpt lat="48.02545" lon="7.31942">
        <ele>191.53</ele>
        <time>2021-06-23T10:09:50Z</time>
      </trkpt>
      <trkpt lat="48.02609" lon="7.31849">
        <ele>190</ele>
        <time>2021-06-23T10:09:54Z</time>
      </trkpt>
      <trkpt lat="48.0278" lon="7.3161">
        <ele>189.08</ele>
        <time>2021-06-23T10:09:58Z</time>
      </trkpt>
      <trkpt lat="48.02836" lon="7.31536">
        <ele>191.1</ele>
        <time>2021-06-23T10:10:02Z</time>
      </trkpt>
      <trkpt lat="48.02867" lon="7.315">
        <ele>192.42</ele>
        <time>2021-06-23T10:10:06Z</time>
      </trkpt>
      <trkpt lat="48.02975" lon="7.31404">
        <ele>192</ele>
        <time>2021-06-23T10:10:10Z</time>
      </trkpt>
      <trkpt lat="48.02994" lon="7.31385">
        <ele>192</ele>
        <time>2021-06-23T10:10:14Z</time>
      </trkpt>
      <trkpt lat="48.03098" lon="7.31255">
        <ele>195.8</ele>
        <time>2021-06-23T10:10:18Z</time>
      </trkpt>
      <trkpt lat="48.0315" lon="7.31193">
        <ele>197.7</ele>
        <time>2021-06-23T10:10:22Z</time>
      </trkpt>
      <trkpt lat="48.0316" lon="7.31184">
        <ele>198</ele>
        <time>2021-06-23T10:10:26Z</time>
      </trkpt>
      <trkpt lat="48.03175" lon="7.31177">
        <ele>198.39</ele>
        <time>2021-06-23T10:10:30Z</time>
      </trkpt>
      <trkpt lat="48.03184" lon="7.31176">
        <ele>198.2</ele>
        <time>2021-06-23T10:10:34Z</time>
      </trkpt>
      <trkpt lat="48.03184" lon="7.31176">
        <ele>198.2</ele>
        <time>2021-06-23T10:10:34Z</time>
      </trkpt>
      <trkpt lat="48.03223" lon="7.31171">
        <ele>198</ele>
        <time>2021-06-23T10:10:39Z</time>
      </trkpt>
      <trkpt lat="48.03232" lon="7.3117">
        <ele>198</ele>
        <time>2021-06-23T10:10:44Z</time>
      </trkpt>
      <trkpt lat="48.03307" lon="7.31183">
        <ele>198.03</ele>
        <time>2021-06-23T10:10:49Z</time>
      </trkpt>
      <trkpt lat="48.03353" lon="7.31186">
        <ele>198.31</ele>
        <time>2021-06-23T10:10:55Z</time>
      </trkpt>
      <trkpt lat="48.03395" lon="7.31184">
        <ele>198.07</ele>
        <time>2021-06-23T10:11:00Z</time>
      </trkpt>
      <trkpt lat="48.03655" lon="7.31145">
        <ele>198.76</ele>
        <time>2021-06-23T10:11:05Z</time>
      </trkpt>
      <trkpt lat="48.038" lon="7.31117">
        <ele>204.37</ele>
        <time>2021-06-23T10:11:10Z</time>
      </trkpt>
      <trkpt lat="48.0383" lon="7.31115">
        <ele>205.45</ele>
        <time>2021-06-23T10:11:16Z</time>
      </trkpt>
      <trkpt lat="48.03935" lon="7.31119">
        <ele>207.63</ele>
        <time>2021-06-23T10:11:21Z</time>
      </trkpt>
      <trkpt lat="48.04084" lon="7.31138">
        <ele>202</ele>
        <time>2021-06-23T10:11:26Z</time>
      </trkpt>
      <trkpt lat="48.04142" lon="7.31135">
        <ele>203</ele>
        <time>2021-06-23T10:11:31Z</time>
      </trkpt>
      <trkpt lat="48.0415" lon="7.31137">
        <ele>203</ele>
        <time>2021-06-23T10:11:37Z</time>
      </trkpt>
      <trkpt lat="48.04158" lon="7.31141">
        <ele>202.92</ele>
        <time>2021-06-23T10:11:42Z</time>
      </trkpt>
      <trkpt lat="48.04319" lon="7.31186">
        <ele>196.79</ele>
        <time>2021-06-23T10:11:47Z</time>
      </trkpt>
      <trkpt lat="48.04352" lon="7.31193">
        <ele>196.09</ele>
        <time>2021-06-23T10:11:52Z</time>
      </trkpt>
      <trkpt lat="48.04361" lon="7.31192">
        <ele>196.1</ele>
        <time>2021-06-23T10:11:58Z</time>
      </trkpt>
      <trkpt lat="48.04366" lon="7.31189">
        <ele>196.36</ele>
        <time>2021-06-23T10:12:03Z</time>
      </trkpt>
      <trkpt lat="48.04391" lon="7.31159">
        <ele>197.2</ele>
        <time>2021-06-23T10:12:08Z</time>
      </trkpt>
      <trkpt lat="48.04427" lon="7.31123">
        <ele>196.84</ele>
        <time>2021-06-23T10:12:13Z</time>
      </trkpt>
      <trkpt lat="48.045" lon="7.31063">
        <ele>198</ele>
        <time>2021-06-23T10:12:19Z</time>
      </trkpt>
      <trkpt lat="48.04575" lon="7.31036">
        <ele>197</ele>
        <time>2021-06-23T10:12:24Z</time>
      </trkpt>
      <trkpt lat="48.04578" lon="7.3106">
        <ele>197.03</ele>
        <time>2021-06-23T10:12:27Z</time>
      </trkpt>
      <trkpt lat="48.04575" lon="7.31089">
        <ele>197.01</ele>
        <time>2021-06-23T10:12:31Z</time>
      </trkpt>
      <trkpt lat="48.04575" lon="7.31089">
        <ele>197.01</ele>
        <time>2021-06-23T10:12:31Z</time>
      </trkpt>
      <trkpt lat="48.04578" lon="7.3106">
        <ele>197.03</ele>
        <time>2021-06-23T10:12:34Z</time>
      </trkpt>
      <trkpt lat="48.04575" lon="7.31036">
        <ele>197</ele>
        <time>2021-06-23T10:12:37Z</time>
      </trkpt>
      <trkpt lat="48.04591" lon="7.31022">
        <ele>197.05</ele>
        <time>2021-06-23T10:12:42Z</time>
      </trkpt>
      <trkpt lat="48.0461" lon="7.31021">
        <ele>197.24</ele>
        <time>2021-06-23T10:12:47Z</time>
      </trkpt>
      <trkpt lat="48.04663" lon="7.31035">
        <ele>197.78</ele>
        <time>2021-06-23T10:12:52Z</time>
      </trkpt>
      <trkpt lat="48.04688" lon="7.31046">
        <ele>197.07</ele>
        <time>2021-06-23T10:12:57Z</time>
      </trkpt>
      <trkpt lat="48.04718" lon="7.31075">
        <ele>196.14</ele>
        <time>2021-06-23T10:13:02Z</time>
      </trkpt>
      <trkpt lat="48.0474" lon="7.31093">
        <ele>196.12</ele>
        <time>2021-06-23T10:13:07Z</time>
      </trkpt>
      <trkpt lat="48.04779" lon="7.31114">
        <ele>196</ele>
        <time>2021-06-23T10:13:12Z</time>
      </trkpt>
      <trkpt lat="48.04839" lon="7.31133">
        <ele>196.79</ele>
        <time>2021-06-23T10:13:17Z</time>
      </trkpt>
      <trkpt lat="48.04868" lon="7.3114">
        <ele>197.27</ele>
        <time>2021-06-23T10:13:22Z</time>
      </trkpt>
      <trkpt lat="48.04888" lon="7.31142">
        <ele>197.86</ele>
        <time>2021-06-23T10:13:26Z</time>
      </trkpt>
      <trkpt lat="48.04934" lon="7.31136">
        <ele>197.34</ele>
        <time>2021-06-23T10:13:31Z</time>
      </trkpt>
      <trkpt lat="48.05003" lon="7.31122">
        <ele>198.05</ele>
        <time>2021-06-23T10:13:36Z</time>
      </trkpt>
      <trkpt lat="48.05266" lon="7.31067">
        <ele>196.24</ele>
        <time>2021-06-23T10:13:41Z</time>
      </trkpt>
      <trkpt lat="48.05338" lon="7.31049">
        <ele>198.13</ele>
        <time>2021-06-23T10:13:46Z</time>
      </trkpt>
      <trkpt lat="48.05363" lon="7.31048">
        <ele>198.85</ele>
        <time>2021-06-23T10:13:51Z</time>
      </trkpt>
      <trkpt lat="48.05381" lon="7.31052">
        <ele>199.76</ele>
        <time>2021-06-23T10:13:56Z</time>
      </trkpt>
      <trkpt lat="48.054" lon="7.31069">
        <ele>200.2</ele>
        <time>2021-06-23T10:14:01Z</time>
      </trkpt>
      <trkpt lat="48.0541" lon="7.31085">
        <ele>199.98</ele>
        <time>2021-06-23T10:14:06Z</time>
      </trkpt>
      <trkpt lat="48.0541" lon="7.31101">
        <ele>199.84</ele>
        <time>2021-06-23T10:14:11Z</time>
      </trkpt>
      <trkpt lat="48.05412" lon="7.31113">
        <ele>199.77</ele>
        <time>2021-06-23T10:14:16Z</time>
      </trkpt>
      <trkpt lat="48.05417" lon="7.31124">
        <ele>199.56</ele>
        <time>2021-06-23T10:14:21Z</time>
      </trkpt>
      <trkpt lat="48.05423" lon="7.3113">
        <ele>199.47</ele>
        <time>2021-06-23T10:14:26Z</time>
      </trkpt>
      <trkpt lat="48.0543" lon="7.31134">
        <ele>199.56</ele>
        <time>2021-06-23T10:14:31Z</time>
      </trkpt>
      <trkpt lat="48.05437" lon="7.31135">
        <ele>199.75</ele>
        <time>2021-06-23T10:14:36Z</time>
      </trkpt>
      <trkpt lat="48.05444" lon="7.31134">
        <ele>199.97</ele>
        <time>2021-06-23T10:14:41Z</time>
      </trkpt>
      <trkpt lat="48.05452" lon="7.31129">
        <ele>200.1</ele>
        <time>2021-06-23T10:14:46Z</time>
      </trkpt>
      <trkpt lat="48.05458" lon="7.3112">
        <ele>200.34</ele>
        <time>2021-06-23T10:14:51Z</time>
      </trkpt>
      <trkpt lat="48.05462" lon="7.31108">
        <ele>200.74</ele>
        <time>2021-06-23T10:14:56Z</time>
      </trkpt>
      <trkpt lat="48.05464" lon="7.31095">
        <ele>201.26</ele>
        <time>2021-06-23T10:15:01Z</time>
      </trkpt>
      <trkpt lat="48.05479" lon="7.31084">
        <ele>201.98</ele>
        <time>2021-06-23T10:15:06Z</time>
      </trkpt>
      <trkpt lat="48.05511" lon="7.31067">
        <ele>202.35</ele>
        <time>2021-06-23T10:15:11Z</time>
      </trkpt>
      <trkpt lat="48.05585" lon="7.31037">
        <ele>202.35</ele>
        <time>2021-06-23T10:15:16Z</time>
      </trkpt>
      <trkpt lat="48.05609" lon="7.31018">
        <ele>202.57</ele>
        <time>2021-06-23T10:15:21Z</time>
      </trkpt>
      <trkpt lat="48.05689" lon="7.30983">
        <ele>204</ele>
        <time>2021-06-23T10:15:26Z</time>
      </trkpt>
      <trkpt lat="48.05732" lon="7.3097">
        <ele>203.3</ele>
        <time>2021-06-23T10:15:31Z</time>
      </trkpt>
      <trkpt lat="48.05793" lon="7.30964">
        <ele>203.24</ele>
        <time>2021-06-23T10:15:36Z</time>
      </trkpt>
      <trkpt lat="48.05843" lon="7.30966">
        <ele>205.63</ele>
        <time>2021-06-23T10:15:41Z</time>
      </trkpt>
      <trkpt lat="48.06098" lon="7.3101">
        <ele>207.01</ele>
        <time>2021-06-23T10:15:46Z</time>
      </trkpt>
      <trkpt lat="48.06172" lon="7.31022">
        <ele>206.35</ele>
        <time>2021-06-23T10:15:51Z</time>
      </trkpt>
      <trkpt lat="48.06218" lon="7.31027">
        <ele>207.86</ele>
        <time>2021-06-23T10:15:56Z</time>
      </trkpt>
      <trkpt lat="48.06253" lon="7.31022">
        <ele>207.9</ele>
        <time>2021-06-23T10:16:01Z</time>
      </trkpt>
      <trkpt lat="48.06286" lon="7.31013">
        <ele>207</ele>
        <time>2021-06-23T10:16:06Z</time>
      </trkpt>
      <trkpt lat="48.0632" lon="7.31">
        <ele>208.05</ele>
        <time>2021-06-23T10:16:11Z</time>
      </trkpt>
      <trkpt lat="48.06356" lon="7.30981">
        <ele>209.13</ele>
        <time>2021-06-23T10:16:16Z</time>
      </trkpt>
      <trkpt lat="48.06443" lon="7.30928">
        <ele>210.61</ele>
        <time>2021-06-23T10:16:21Z</time>
      </trkpt>
      <trkpt lat="48.06468" lon="7.30918">
        <ele>210.97</ele>
        <time>2021-06-23T10:16:26Z</time>
      </trkpt>
      <trkpt lat="48.06507" lon="7.30906">
        <ele>208.64</ele>
        <time>2021-06-23T10:16:31Z</time>
      </trkpt>
      <trkpt lat="48.06538" lon="7.30902">
        <ele>207.66</ele>
        <time>2021-06-23T10:16:36Z</time>
      </trkpt>
      <trkpt lat="48.06569" lon="7.30903">
        <ele>208.26</ele>
        <time>2021-06-23T10:16:41Z</time>
      </trkpt>
      <trkpt lat="48.0662" lon="7.30913">
        <ele>210.21</ele>
        <time>2021-06-23T10:16:46Z</time>
      </trkpt>
      <trkpt lat="48.06728" lon="7.3094">
        <ele>212.32</ele>
        <time>2021-06-23T10:16:51Z</time>
      </trkpt>
      <trkpt lat="48.06806" lon="7.30958">
        <ele>212.51</ele>
        <time>2021-06-23T10:16:56Z</time>
      </trkpt>
      <trkpt lat="48.06832" lon="7.30968">
        <ele>212.01</ele>
        <time>2021-06-23T10:17:01Z</time>
      </trkpt>
      <trkpt lat="48.06937" lon="7.31011">
        <ele>213.73</ele>
        <time>2021-06-23T10:17:06Z</time>
      </trkpt>
      <trkpt lat="48.07296" lon="7.3111">
        <ele>214.03</ele>
        <time>2021-06-23T10:17:11Z</time>
      </trkpt>
      <trkpt lat="48.07367" lon="7.31125">
        <ele>212.5</ele>
        <time>2021-06-23T10:17:17Z</time>
      </trkpt>
      <trkpt lat="48.07421" lon="7.31136">
        <ele>212.12</ele>
        <time>2021-06-23T10:17:22Z</time>
      </trkpt>
      <trkpt lat="48.0744" lon="7.31144">
        <ele>212</ele>
        <time>2021-06-23T10:17:27Z</time>
      </trkpt>
      <trkpt lat="48.07456" lon="7.31156">
        <ele>211.57</ele>
        <time>2021-06-23T10:17:32Z</time>
      </trkpt>
      <trkpt lat="48.07462" lon="7.3117">
        <ele>211.52</ele>
        <time>2021-06-23T10:17:37Z</time>
      </trkpt>
      <trkpt lat="48.07466" lon="7.31177">
        <ele>211.8</ele>
        <time>2021-06-23T10:17:42Z</time>
      </trkpt>
      <trkpt lat="48.07478" lon="7.31183">
        <ele>212.45</ele>
        <time>2021-06-23T10:17:47Z</time>
      </trkpt>
      <trkpt lat="48.07486" lon="7.31183">
        <ele>212.86</ele>
        <time>2021-06-23T10:17:53Z</time>
      </trkpt>
      <trkpt lat="48.07498" lon="7.31175">
        <ele>213.16</ele>
        <time>2021-06-23T10:17:58Z</time>
      </trkpt>
      <trkpt lat="48.07505" lon="7.31161">
        <ele>213.19</ele>
        <time>2021-06-23T10:18:03Z</time>
      </trkpt>
      <trkpt lat="48.07527" lon="7.31157">
        <ele>214.55</ele>
        <time>2021-06-23T10:18:09Z</time>
      </trkpt>
      <trkpt lat="48.07755" lon="7.31183">
        <ele>215.65</ele>
        <time>2021-06-23T10:18:14Z</time>
      </trkpt>
      <trkpt lat="48.0815" lon="7.31197">
        <ele>213.64</ele>
        <time>2021-06-23T10:18:19Z</time>
      </trkpt>
      <trkpt lat="48.08341" lon="7.31221">
        <ele>213.21</ele>
        <time>2021-06-23T10:18:24Z</time>
      </trkpt>
      <trkpt lat="48.08365" lon="7.31229">
        <ele>214.44</ele>
        <time>2021-06-23T10:18:30Z</time>
      </trkpt>
      <trkpt lat="48.08371" lon="7.31246">
        <ele>215.53</ele>
        <time>2021-06-23T10:18:31Z</time>
      </trkpt>
      <trkpt lat="48.0838" lon="7.31255">
        <ele>216.59</ele>
        <time>2021-06-23T10:18:32Z</time>
      </trkpt>
      <trkpt lat="48.0839" lon="7.3126">
        <ele>217.33</ele>
        <time>2021-06-23T10:18:34Z</time>
      </trkpt>
      <trkpt lat="48.08399" lon="7.31259">
        <ele>216.96</ele>
        <time>2021-06-23T10:18:35Z</time>
      </trkpt>
      <trkpt lat="48.08408" lon="7.31254">
        <ele>216.46</ele>
        <time>2021-06-23T10:18:37Z</time>
      </trkpt>
      <trkpt lat="48.08418" lon="7.31236">
        <ele>215.43</ele>
        <time>2021-06-23T10:18:38Z</time>
      </trkpt>
      <trkpt lat="48.08421" lon="7.31221">
        <ele>214.85</ele>
        <time>2021-06-23T10:18:39Z</time>
      </trkpt>
      <trkpt lat="48.0842" lon="7.31206">
        <ele>214.89</ele>
        <time>2021-06-23T10:18:41Z</time>
      </trkpt>
      <trkpt lat="48.08413" lon="7.31188">
        <ele>215.03</ele>
        <time>2021-06-23T10:18:42Z</time>
      </trkpt>
      <trkpt lat="48.08411" lon="7.31187">
        <ele>215.18</ele>
        <time>2021-06-23T10:18:43Z</time>
      </trkpt>
      <trkpt lat="48.08411" lon="7.31187">
        <ele>215.18</ele>
        <time>2021-06-23T10:18:43Z</time>
      </trkpt>
      <trkpt lat="48.08401" lon="7.31177">
        <ele>215.34</ele>
        <time>2021-06-23T10:18:46Z</time>
      </trkpt>
      <trkpt lat="48.08395" lon="7.31147">
        <ele>216.51</ele>
        <time>2021-06-23T10:18:48Z</time>
      </trkpt>
      <trkpt lat="48.08399" lon="7.31091">
        <ele>217.27</ele>
        <time>2021-06-23T10:18:50Z</time>
      </trkpt>
      <trkpt lat="48.08408" lon="7.31072">
        <ele>217.67</ele>
        <time>2021-06-23T10:18:53Z</time>
      </trkpt>
      <trkpt lat="48.08414" lon="7.31069">
        <ele>217.88</ele>
        <time>2021-06-23T10:18:56Z</time>
      </trkpt>
      <trkpt lat="48.08417" lon="7.31065">
        <ele>217.98</ele>
        <time>2021-06-23T10:18:59Z</time>
      </trkpt>
      <trkpt lat="48.0842" lon="7.31054">
        <ele>217.87</ele>
        <time>2021-06-23T10:19:02Z</time>
      </trkpt>
      <trkpt lat="48.08418" lon="7.31041">
        <ele>217.94</ele>
        <time>2021-06-23T10:19:05Z</time>
      </trkpt>
      <trkpt lat="48.08412" lon="7.31033">
        <ele>217.97</ele>
        <time>2021-06-23T10:19:08Z</time>
      </trkpt>
      <trkpt lat="48.08404" lon="7.31031">
        <ele>217.95</ele>
        <time>2021-06-23T10:19:11Z</time>
      </trkpt>
      <trkpt lat="48.08398" lon="7.31007">
        <ele>218</ele>
        <time>2021-06-23T10:19:14Z</time>
      </trkpt>
      <trkpt lat="48.08391" lon="7.30954">
        <ele>217.33</ele>
        <time>2021-06-23T10:19:17Z</time>
      </trkpt>
      <trkpt lat="48.08387" lon="7.30889">
        <ele>216.05</ele>
        <time>2021-06-23T10:19:20Z</time>
      </trkpt>
      <trkpt lat="48.08394" lon="7.30762">
        <ele>218.6</ele>
        <time>2021-06-23T10:19:23Z</time>
      </trkpt>
      <trkpt lat="48.08403" lon="7.3064">
        <ele>218.56</ele>
        <time>2021-06-23T10:19:26Z</time>
      </trkpt>
      <trkpt lat="48.08417" lon="7.305">
        <ele>218.02</ele>
        <time>2021-06-23T10:19:29Z</time>
      </trkpt>
      <trkpt lat="48.08428" lon="7.30416">
        <ele>219.59</ele>
        <time>2021-06-23T10:19:32Z</time>
      </trkpt>
      <trkpt lat="48.08456" lon="7.30255">
        <ele>220.1</ele>
        <time>2021-06-23T10:19:35Z</time>
      </trkpt>
      <trkpt lat="48.08461" lon="7.30212">
        <ele>219.62</ele>
        <time>2021-06-23T10:19:38Z</time>
      </trkpt>
      <trkpt lat="48.08463" lon="7.30163">
        <ele>219</ele>
        <time>2021-06-23T10:19:41Z</time>
      </trkpt>
      <trkpt lat="48.08459" lon="7.30073">
        <ele>220.38</ele>
        <time>2021-06-23T10:19:44Z</time>
      </trkpt>
      <trkpt lat="48.08422" lon="7.29789">
        <ele>222.38</ele>
        <time>2021-06-23T10:19:47Z</time>
      </trkpt>
      <trkpt lat="48.08416" lon="7.29713">
        <ele>223.33</ele>
        <time>2021-06-23T10:19:50Z</time>
      </trkpt>
      <trkpt lat="48.08407" lon="7.29539">
        <ele>227.09</ele>
        <time>2021-06-23T10:19:53Z</time>
      </trkpt>
      <trkpt lat="48.08408" lon="7.29417">
        <ele>227.71</ele>
        <time>2021-06-23T10:19:56Z</time>
      </trkpt>
      <trkpt lat="48.08407" lon="7.2931">
        <ele>224</ele>
        <time>2021-06-23T10:19:59Z</time>
      </trkpt>
      <trkpt lat="48.08404" lon="7.29252">
        <ele>227.79</ele>
        <time>2021-06-23T10:20:02Z</time>
      </trkpt>
      <trkpt lat="48.08394" lon="7.29155">
        <ele>229.92</ele>
        <time>2021-06-23T10:20:05Z</time>
      </trkpt>
      <trkpt lat="48.08392" lon="7.29119">
        <ele>229.97</ele>
        <time>2021-06-23T10:20:08Z</time>
      </trkpt>
      <trkpt lat="48.08393" lon="7.29056">
        <ele>232.73</ele>
        <time>2021-06-23T10:20:11Z</time>
      </trkpt>
      <trkpt lat="48.08396" lon="7.28998">
        <ele>230</ele>
        <time>2021-06-23T10:20:14Z</time>
      </trkpt>
      <trkpt lat="48.08408" lon="7.28938">
        <ele>230.52</ele>
        <time>2021-06-23T10:20:17Z</time>
      </trkpt>
      <trkpt lat="48.08428" lon="7.28874">
        <ele>230.52</ele>
        <time>2021-06-23T10:20:20Z</time>
      </trkpt>
      <trkpt lat="48.08483" lon="7.28717">
        <ele>231.79</ele>
        <time>2021-06-23T10:20:23Z</time>
      </trkpt>
      <trkpt lat="48.08488" lon="7.28698">
        <ele>232.13</ele>
        <time>2021-06-23T10:20:27Z</time>
      </trkpt>
      <trkpt lat="48.08493" lon="7.28699">
        <ele>232.48</ele>
        <time>2021-06-23T10:20:32Z</time>
      </trkpt>
      <trkpt lat="48.08497" lon="7.28696">
        <ele>232.8</ele>
        <time>2021-06-23T10:20:37Z</time>
      </trkpt>
      <trkpt lat="48.085" lon="7.2869">
        <ele>233.18</ele>
        <time>2021-06-23T10:20:42Z</time>
      </trkpt>
      <trkpt lat="48.085" lon="7.28679">
        <ele>233.56</ele>
        <time>2021-06-23T10:20:48Z</time>
      </trkpt>
      <trkpt lat="48.08496" lon="7.28671">
        <ele>233.38</ele>
        <time>2021-06-23T10:20:53Z</time>
      </trkpt>
      <trkpt lat="48.08505" lon="7.28627">
        <ele>234.65</ele>
        <time>2021-06-23T10:20:58Z</time>
      </trkpt>
      <trkpt lat="48.0853" lon="7.28379">
        <ele>233.39</ele>
        <time>2021-06-23T10:21:03Z</time>
      </trkpt>
      <trkpt lat="48.0853" lon="7.28343">
        <ele>233.35</ele>
        <time>2021-06-23T10:21:09Z</time>
      </trkpt>
      <trkpt lat="48.08529" lon="7.28315">
        <ele>233</ele>
        <time>2021-06-23T10:21:14Z</time>
      </trkpt>
      <trkpt lat="48.08523" lon="7.28262">
        <ele>233.39</ele>
        <time>2021-06-23T10:21:19Z</time>
      </trkpt>
      <trkpt lat="48.08512" lon="7.28197">
        <ele>233.61</ele>
        <time>2021-06-23T10:21:24Z</time>
      </trkpt>
      <trkpt lat="48.08512" lon="7.28167">
        <ele>233.56</ele>
        <time>2021-06-23T10:21:30Z</time>
      </trkpt>
      <trkpt lat="48.08519" lon="7.28138">
        <ele>233.32</ele>
        <time>2021-06-23T10:21:35Z</time>
      </trkpt>
      <trkpt lat="48.08524" lon="7.28127">
        <ele>233.44</ele>
        <time>2021-06-23T10:21:40Z</time>
      </trkpt>
      <trkpt lat="48.08558" lon="7.28063">
        <ele>234</ele>
        <time>2021-06-23T10:21:45Z</time>
      </trkpt>
      <trkpt lat="48.08575" lon="7.28036">
        <ele>234</ele>
        <time>2021-06-23T10:21:51Z</time>
      </trkpt>
      <trkpt lat="48.08584" lon="7.28019">
        <ele>233.67</ele>
        <time>2021-06-23T10:21:56Z</time>
      </trkpt>
      <trkpt lat="48.08587" lon="7.28009">
        <ele>233.31</ele>
        <time>2021-06-23T10:22:01Z</time>
      </trkpt>
      <trkpt lat="48.08622" lon="7.27947">
        <ele>234.29</ele>
        <time>2021-06-23T10:22:07Z</time>
      </trkpt>
      <trkpt lat="48.08627" lon="7.27936">
        <ele>234.73</ele>
        <time>2021-06-23T10:22:12Z</time>
      </trkpt>
      <trkpt lat="48.08627" lon="7.27927">
        <ele>234.93</ele>
        <time>2021-06-23T10:22:17Z</time>
      </trkpt>
      <trkpt lat="48.0862" lon="7.27887">
        <ele>236.37</ele>
        <time>2021-06-23T10:22:22Z</time>
      </trkpt>
      <trkpt lat="48.08612" lon="7.27862">
        <ele>237</ele>
        <time>2021-06-23T10:22:28Z</time>
      </trkpt>
      <trkpt lat="48.08603" lon="7.27836">
        <ele>237.29</ele>
        <time>2021-06-23T10:22:33Z</time>
      </trkpt>
      <trkpt lat="48.08599" lon="7.27817">
        <ele>237.72</ele>
        <time>2021-06-23T10:22:38Z</time>
      </trkpt>
      <trkpt lat="48.08585" lon="7.27714">
        <ele>236.79</ele>
        <time>2021-06-23T10:22:43Z</time>
      </trkpt>
      <trkpt lat="48.08574" lon="7.27594">
        <ele>236.66</ele>
        <time>2021-06-23T10:22:49Z</time>
      </trkpt>
      <trkpt lat="48.08568" lon="7.27492">
        <ele>236.28</ele>
        <time>2021-06-23T10:22:54Z</time>
      </trkpt>
      <trkpt lat="48.08565" lon="7.27369">
        <ele>239.42</ele>
        <time>2021-06-23T10:22:59Z</time>
      </trkpt>
      <trkpt lat="48.08569" lon="7.27231">
        <ele>236.93</ele>
        <time>2021-06-23T10:23:04Z</time>
      </trkpt>
      <trkpt lat="48.08581" lon="7.27046">
        <ele>237.45</ele>
        <time>2021-06-23T10:23:10Z</time>
      </trkpt>
      <trkpt lat="48.08585" lon="7.26879">
        <ele>243.25</ele>
        <time>2021-06-23T10:23:15Z</time>
      </trkpt>
      <trkpt lat="48.0858" lon="7.26766">
        <ele>242.54</ele>
        <time>2021-06-23T10:23:20Z</time>
      </trkpt>
      <trkpt lat="48.08574" lon="7.26669">
        <ele>240.63</ele>
        <time>2021-06-23T10:23:26Z</time>
      </trkpt>
      <trkpt lat="48.0857" lon="7.26633">
        <ele>241.87</ele>
        <time>2021-06-23T10:23:31Z</time>
      </trkpt>
      <trkpt lat="48.08565" lon="7.266">
        <ele>242.65</ele>
        <time>2021-06-23T10:23:36Z</time>
      </trkpt>
      <trkpt lat="48.08554" lon="7.26559">
        <ele>242</ele>
        <time>2021-06-23T10:23:41Z</time>
      </trkpt>
      <trkpt lat="48.08422" lon="7.26126">
        <ele>249.38</ele>
        <time>2021-06-23T10:23:47Z</time>
      </trkpt>
      <trkpt lat="48.08392" lon="7.25966">
        <ele>252.49</ele>
        <time>2021-06-23T10:23:52Z</time>
      </trkpt>
      <trkpt lat="48.08385" lon="7.25911">
        <ele>253.8</ele>
        <time>2021-06-23T10:23:57Z</time>
      </trkpt>
      <trkpt lat="48.08378" lon="7.25514">
        <ele>268.8</ele>
        <time>2021-06-23T10:24:02Z</time>
      </trkpt>
      <trkpt lat="48.08383" lon="7.25458">
        <ele>271.79</ele>
        <time>2021-06-23T10:24:08Z</time>
      </trkpt>
      <trkpt lat="48.08415" lon="7.25267">
        <ele>282.49</ele>
        <time>2021-06-23T10:24:13Z</time>
      </trkpt>
      <trkpt lat="48.08417" lon="7.25244">
        <ele>283</ele>
        <time>2021-06-23T10:24:18Z</time>
      </trkpt>
      <trkpt lat="48.08416" lon="7.25216">
        <ele>283.01</ele>
        <time>2021-06-23T10:24:23Z</time>
      </trkpt>
      <trkpt lat="48.08407" lon="7.25134">
        <ele>284.63</ele>
        <time>2021-06-23T10:24:29Z</time>
      </trkpt>
      <trkpt lat="48.08403" lon="7.24893">
        <ele>300.4</ele>
        <time>2021-06-23T10:24:34Z</time>
      </trkpt>
      <trkpt lat="48.08404" lon="7.24787">
        <ele>305.88</ele>
        <time>2021-06-23T10:24:39Z</time>
      </trkpt>
      <trkpt lat="48.08407" lon="7.24725">
        <ele>305.09</ele>
        <time>2021-06-23T10:24:45Z</time>
      </trkpt>
      <trkpt lat="48.0842" lon="7.24586">
        <ele>309.59</ele>
        <time>2021-06-23T10:24:50Z</time>
      </trkpt>
      <trkpt lat="48.08417" lon="7.2438">
        <ele>318.33</ele>
        <time>2021-06-23T10:24:55Z</time>
      </trkpt>
      <trkpt lat="48.08418" lon="7.24332">
        <ele>319.95</ele>
        <time>2021-06-23T10:25:00Z</time>
      </trkpt>
      <trkpt lat="48.08426" lon="7.24252">
        <ele>327.16</ele>
        <time>2021-06-23T10:25:06Z</time>
      </trkpt>
      <trkpt lat="48.08434" lon="7.24205">
        <ele>329.6</ele>
        <time>2021-06-23T10:25:11Z</time>
      </trkpt>
      <trkpt lat="48.08447" lon="7.24156">
        <ele>331.71</ele>
        <time>2021-06-23T10:25:16Z</time>
      </trkpt>
      <trkpt lat="48.08463" lon="7.24116">
        <ele>333.28</ele>
        <time>2021-06-23T10:25:21Z</time>
      </trkpt>
      <trkpt lat="48.08463" lon="7.24116">
        <ele>333.28</ele>
        <time>2021-06-23T10:25:21Z</time>
      </trkpt>
      <trkpt lat="48.08475" lon="7.2409">
        <ele>333.55</ele>
        <time>2021-06-23T10:25:24Z</time>
      </trkpt>
      <trkpt lat="48.08597" lon="7.23913">
        <ele>347.91</ele>
        <time>2021-06-23T10:25:26Z</time>
      </trkpt>
      <trkpt lat="48.08626" lon="7.2389">
        <ele>351.38</ele>
        <time>2021-06-23T10:25:29Z</time>
      </trkpt>
      <trkpt lat="48.08728" lon="7.23828">
        <ele>348.03</ele>
        <time>2021-06-23T10:25:31Z</time>
      </trkpt>
      <trkpt lat="48.0874" lon="7.23825">
        <ele>348.76</ele>
        <time>2021-06-23T10:25:33Z</time>
      </trkpt>
      <trkpt lat="48.08783" lon="7.23821">
        <ele>353.15</ele>
        <time>2021-06-23T10:25:36Z</time>
      </trkpt>
      <trkpt lat="48.08792" lon="7.23817">
        <ele>355.06</ele>
        <time>2021-06-23T10:25:38Z</time>
      </trkpt>
      <trkpt lat="48.088" lon="7.23806">
        <ele>357.2</ele>
        <time>2021-06-23T10:25:40Z</time>
      </trkpt>
      <trkpt lat="48.08809" lon="7.23779">
        <ele>360.84</ele>
        <time>2021-06-23T10:25:43Z</time>
      </trkpt>
      <trkpt lat="48.08813" lon="7.23756">
        <ele>363.9</ele>
        <time>2021-06-23T10:25:45Z</time>
      </trkpt>
      <trkpt lat="48.08819" lon="7.23657">
        <ele>373.27</ele>
        <time>2021-06-23T10:25:47Z</time>
      </trkpt>
      <trkpt lat="48.08822" lon="7.23638">
        <ele>374.38</ele>
        <time>2021-06-23T10:25:50Z</time>
      </trkpt>
      <trkpt lat="48.08827" lon="7.23622">
        <ele>375.55</ele>
        <time>2021-06-23T10:25:52Z</time>
      </trkpt>
      <trkpt lat="48.08835" lon="7.2361">
        <ele>376.19</ele>
        <time>2021-06-23T10:25:54Z</time>
      </trkpt>
      <trkpt lat="48.08842" lon="7.23606">
        <ele>377.07</ele>
        <time>2021-06-23T10:25:57Z</time>
      </trkpt>
      <trkpt lat="48.08852" lon="7.23605">
        <ele>377.94</ele>
        <time>2021-06-23T10:25:59Z</time>
      </trkpt>
      <trkpt lat="48.0886" lon="7.23607">
        <ele>378.33</ele>
        <time>2021-06-23T10:26:01Z</time>
      </trkpt>
      <trkpt lat="48.0887" lon="7.23615">
        <ele>380.44</ele>
        <time>2021-06-23T10:26:04Z</time>
      </trkpt>
      <trkpt lat="48.08876" lon="7.23629">
        <ele>381.16</ele>
        <time>2021-06-23T10:26:06Z</time>
      </trkpt>
      <trkpt lat="48.0888" lon="7.23648">
        <ele>378.21</ele>
        <time>2021-06-23T10:26:08Z</time>
      </trkpt>
      <trkpt lat="48.0888" lon="7.23648">
        <ele>378.21</ele>
        <time>2021-06-23T10:26:08Z</time>
      </trkpt>
      <trkpt lat="48.08884" lon="7.2373">
        <ele>373.48</ele>
        <time>2021-06-23T10:26:11Z</time>
      </trkpt>
      <trkpt lat="48.08887" lon="7.23745">
        <ele>371.33</ele>
        <time>2021-06-23T10:26:13Z</time>
      </trkpt>
      <trkpt lat="48.08893" lon="7.23754">
        <ele>371.2</ele>
        <time>2021-06-23T10:26:15Z</time>
      </trkpt>
      <trkpt lat="48.08967" lon="7.23776">
        <ele>374.67</ele>
        <time>2021-06-23T10:26:18Z</time>
      </trkpt>
      <trkpt lat="48.08997" lon="7.2378">
        <ele>375.25</ele>
        <time>2021-06-23T10:26:20Z</time>
      </trkpt>
      <trkpt lat="48.0901" lon="7.23778">
        <ele>376.39</ele>
        <time>2021-06-23T10:26:22Z</time>
      </trkpt>
      <trkpt lat="48.09058" lon="7.23755">
        <ele>386.6</ele>
        <time>2021-06-23T10:26:25Z</time>
      </trkpt>
      <trkpt lat="48.09078" lon="7.23752">
        <ele>387.29</ele>
        <time>2021-06-23T10:26:27Z</time>
      </trkpt>
      <trkpt lat="48.09099" lon="7.23753">
        <ele>388.28</ele>
        <time>2021-06-23T10:26:29Z</time>
      </trkpt>
      <trkpt lat="48.09134" lon="7.2376">
        <ele>389.35</ele>
        <time>2021-06-23T10:26:32Z</time>
      </trkpt>
      <trkpt lat="48.09176" lon="7.23774">
        <ele>389.8</ele>
        <time>2021-06-23T10:26:34Z</time>
      </trkpt>
      <trkpt lat="48.09204" lon="7.23786">
        <ele>393.99</ele>
        <time>2021-06-23T10:26:36Z</time>
      </trkpt>
      <trkpt lat="48.09222" lon="7.23803">
        <ele>398.29</ele>
        <time>2021-06-23T10:26:39Z</time>
      </trkpt>
      <trkpt lat="48.09229" lon="7.23812">
        <ele>399.88</ele>
        <time>2021-06-23T10:26:41Z</time>
      </trkpt>
      <trkpt lat="48.09229" lon="7.23812">
        <ele>399.88</ele>
        <time>2021-06-23T10:26:41Z</time>
      </trkpt>
      <trkpt lat="48.09236" lon="7.23827">
        <ele>400.08</ele>
        <time>2021-06-23T10:26:43Z</time>
      </trkpt>
      <trkpt lat="48.09238" lon="7.23837">
        <ele>399.32</ele>
        <time>2021-06-23T10:26:45Z</time>
      </trkpt>
      <trkpt lat="48.09237" lon="7.23859">
        <ele>398.15</ele>
        <time>2021-06-23T10:26:47Z</time>
      </trkpt>
      <trkpt lat="48.09228" lon="7.23876">
        <ele>399.36</ele>
        <time>2021-06-23T10:26:49Z</time>
      </trkpt>
      <trkpt lat="48.09218" lon="7.23883">
        <ele>400.09</ele>
        <time>2021-06-23T10:26:51Z</time>
      </trkpt>
      <trkpt lat="48.09159" lon="7.23883">
        <ele>400.8</ele>
        <time>2021-06-23T10:26:52Z</time>
      </trkpt>
      <trkpt lat="48.09125" lon="7.23881">
        <ele>399.84</ele>
        <time>2021-06-23T10:26:54Z</time>
      </trkpt>
      <trkpt lat="48.09084" lon="7.23888">
        <ele>400.74</ele>
        <time>2021-06-23T10:26:56Z</time>
      </trkpt>
      <trkpt lat="48.09071" lon="7.23895">
        <ele>402.47</ele>
        <time>2021-06-23T10:26:58Z</time>
      </trkpt>
      <trkpt lat="48.09025" lon="7.23931">
        <ele>410.14</ele>
        <time>2021-06-23T10:27:00Z</time>
      </trkpt>
      <trkpt lat="48.09011" lon="7.23936">
        <ele>410.7</ele>
        <time>2021-06-23T10:27:02Z</time>
      </trkpt>
      <trkpt lat="48.08972" lon="7.23946">
        <ele>412.46</ele>
        <time>2021-06-23T10:27:04Z</time>
      </trkpt>
      <trkpt lat="48.08921" lon="7.23967">
        <ele>414.03</ele>
        <time>2021-06-23T10:27:06Z</time>
      </trkpt>
      <trkpt lat="48.08902" lon="7.23978">
        <ele>412.39</ele>
        <time>2021-06-23T10:27:08Z</time>
      </trkpt>
      <trkpt lat="48.08886" lon="7.2399">
        <ele>411.88</ele>
        <time>2021-06-23T10:27:10Z</time>
      </trkpt>
      <trkpt lat="48.08875" lon="7.24">
        <ele>412.19</ele>
        <time>2021-06-23T10:27:12Z</time>
      </trkpt>
      <trkpt lat="48.08838" lon="7.24063">
        <ele>417.86</ele>
        <time>2021-06-23T10:27:13Z</time>
      </trkpt>
      <trkpt lat="48.088" lon="7.24106">
        <ele>420.35</ele>
        <time>2021-06-23T10:27:15Z</time>
      </trkpt>
      <trkpt lat="48.08792" lon="7.2412">
        <ele>420.55</ele>
        <time>2021-06-23T10:27:17Z</time>
      </trkpt>
      <trkpt lat="48.0879" lon="7.2413">
        <ele>420.87</ele>
        <time>2021-06-23T10:27:19Z</time>
      </trkpt>
      <trkpt lat="48.08791" lon="7.24144">
        <ele>421.36</ele>
        <time>2021-06-23T10:27:21Z</time>
      </trkpt>
      <trkpt lat="48.08797" lon="7.24166">
        <ele>421.79</ele>
        <time>2021-06-23T10:27:23Z</time>
      </trkpt>
      <trkpt lat="48.08801" lon="7.2417">
        <ele>422.07</ele>
        <time>2021-06-23T10:27:25Z</time>
      </trkpt>
      <trkpt lat="48.08801" lon="7.2417">
        <ele>422.07</ele>
        <time>2021-06-23T10:27:25Z</time>
      </trkpt>
      <trkpt lat="48.08809" lon="7.2418">
        <ele>422.35</ele>
        <time>2021-06-23T10:27:27Z</time>
      </trkpt>
      <trkpt lat="48.08818" lon="7.24183">
        <ele>424.04</ele>
        <time>2021-06-23T10:27:29Z</time>
      </trkpt>
      <trkpt lat="48.08826" lon="7.24181">
        <ele>425.92</ele>
        <time>2021-06-23T10:27:31Z</time>
      </trkpt>
      <trkpt lat="48.08834" lon="7.24171">
        <ele>427.89</ele>
        <time>2021-06-23T10:27:34Z</time>
      </trkpt>
      <trkpt lat="48.08839" lon="7.24158">
        <ele>428.93</ele>
        <time>2021-06-23T10:27:36Z</time>
      </trkpt>
      <trkpt lat="48.08847" lon="7.24115">
        <ele>427.83</ele>
        <time>2021-06-23T10:27:38Z</time>
      </trkpt>
      <trkpt lat="48.08852" lon="7.24102">
        <ele>427.39</ele>
        <time>2021-06-23T10:27:40Z</time>
      </trkpt>
      <trkpt lat="48.08864" lon="7.24081">
        <ele>427.12</ele>
        <time>2021-06-23T10:27:43Z</time>
      </trkpt>
      <trkpt lat="48.08877" lon="7.24064">
        <ele>427.33</ele>
        <time>2021-06-23T10:27:45Z</time>
      </trkpt>
      <trkpt lat="48.0889" lon="7.24053">
        <ele>428.87</ele>
        <time>2021-06-23T10:27:47Z</time>
      </trkpt>
      <trkpt lat="48.08905" lon="7.24046">
        <ele>431.15</ele>
        <time>2021-06-23T10:27:49Z</time>
      </trkpt>
      <trkpt lat="48.08981" lon="7.24023">
        <ele>440.12</ele>
        <time>2021-06-23T10:27:51Z</time>
      </trkpt>
      <trkpt lat="48.09119" lon="7.2401">
        <ele>448.44</ele>
        <time>2021-06-23T10:27:54Z</time>
      </trkpt>
      <trkpt lat="48.09147" lon="7.24018">
        <ele>451.04</ele>
        <time>2021-06-23T10:27:56Z</time>
      </trkpt>
      <trkpt lat="48.09291" lon="7.24129">
        <ele>464.06</ele>
        <time>2021-06-23T10:27:58Z</time>
      </trkpt>
      <trkpt lat="48.09328" lon="7.24168">
        <ele>469.33</ele>
        <time>2021-06-23T10:28:00Z</time>
      </trkpt>
      <trkpt lat="48.09336" lon="7.24174">
        <ele>470.07</ele>
        <time>2021-06-23T10:28:03Z</time>
      </trkpt>
      <trkpt lat="48.09369" lon="7.24187">
        <ele>471.63</ele>
        <time>2021-06-23T10:28:05Z</time>
      </trkpt>
      <trkpt lat="48.09388" lon="7.24188">
        <ele>472.23</ele>
        <time>2021-06-23T10:28:07Z</time>
      </trkpt>
      <trkpt lat="48.09403" lon="7.24185">
        <ele>473.79</ele>
        <time>2021-06-23T10:28:09Z</time>
      </trkpt>
      <trkpt lat="48.09428" lon="7.24176">
        <ele>477.06</ele>
        <time>2021-06-23T10:28:11Z</time>
      </trkpt>
      <trkpt lat="48.09436" lon="7.2417">
        <ele>478.11</ele>
        <time>2021-06-23T10:28:14Z</time>
      </trkpt>
      <trkpt lat="48.0944" lon="7.24159">
        <ele>478.43</ele>
        <time>2021-06-23T10:28:16Z</time>
      </trkpt>
      <trkpt lat="48.09441" lon="7.24148">
        <ele>478.34</ele>
        <time>2021-06-23T10:28:18Z</time>
      </trkpt>
      <trkpt lat="48.09439" lon="7.24134">
        <ele>477.54</ele>
        <time>2021-06-23T10:28:20Z</time>
      </trkpt>
      <trkpt lat="48.09428" lon="7.24104">
        <ele>473.97</ele>
        <time>2021-06-23T10:28:22Z</time>
      </trkpt>
      <trkpt lat="48.09424" lon="7.24085">
        <ele>472.49</ele>
        <time>2021-06-23T10:28:25Z</time>
      </trkpt>
      <trkpt lat="48.09425" lon="7.24069">
        <ele>470.99</ele>
        <time>2021-06-23T10:28:27Z</time>
      </trkpt>
      <trkpt lat="48.09428" lon="7.24054">
        <ele>470.47</ele>
        <time>2021-06-23T10:28:29Z</time>
      </trkpt>
      <trkpt lat="48.09434" lon="7.24043">
        <ele>470.54</ele>
        <time>2021-06-23T10:28:31Z</time>
      </trkpt>
      <trkpt lat="48.09446" lon="7.24035">
        <ele>472.53</ele>
        <time>2021-06-23T10:28:34Z</time>
      </trkpt>
      <trkpt lat="48.09575" lon="7.23995">
        <ele>485.74</ele>
        <time>2021-06-23T10:28:36Z</time>
      </trkpt>
      <trkpt lat="48.0965" lon="7.23975">
        <ele>492.35</ele>
        <time>2021-06-23T10:28:38Z</time>
      </trkpt>
      <trkpt lat="48.09665" lon="7.23968">
        <ele>495.17</ele>
        <time>2021-06-23T10:28:40Z</time>
      </trkpt>
      <trkpt lat="48.09671" lon="7.23963">
        <ele>497.01</ele>
        <time>2021-06-23T10:28:42Z</time>
      </trkpt>
      <trkpt lat="48.09675" lon="7.23954">
        <ele>498.73</ele>
        <time>2021-06-23T10:28:45Z</time>
      </trkpt>
      <trkpt lat="48.09676" lon="7.23942">
        <ele>498.86</ele>
        <time>2021-06-23T10:28:47Z</time>
      </trkpt>
      <trkpt lat="48.09671" lon="7.23906">
        <ele>496.51</ele>
        <time>2021-06-23T10:28:49Z</time>
      </trkpt>
      <trkpt lat="48.09671" lon="7.23906">
        <ele>496.51</ele>
        <time>2021-06-23T10:28:49Z</time>
      </trkpt>
      <trkpt lat="48.09669" lon="7.23893">
        <ele>494.16</ele>
        <time>2021-06-23T10:28:51Z</time>
      </trkpt>
      <trkpt lat="48.09672" lon="7.23869">
        <ele>496.77</ele>
        <time>2021-06-23T10:28:52Z</time>
      </trkpt>
      <trkpt lat="48.09682" lon="7.23818">
        <ele>506.59</ele>
        <time>2021-06-23T10:28:54Z</time>
      </trkpt>
      <trkpt lat="48.09682" lon="7.23805">
        <ele>508.07</ele>
        <time>2021-06-23T10:28:56Z</time>
      </trkpt>
      <trkpt lat="48.09679" lon="7.23792">
        <ele>509.88</ele>
        <time>2021-06-23T10:28:58Z</time>
      </trkpt>
      <trkpt lat="48.09669" lon="7.23786">
        <ele>508.66</ele>
        <time>2021-06-23T10:28:59Z</time>
      </trkpt>
      <trkpt lat="48.0966" lon="7.23786">
        <ele>507.14</ele>
        <time>2021-06-23T10:29:01Z</time>
      </trkpt>
      <trkpt lat="48.09648" lon="7.23792">
        <ele>503.81</ele>
        <time>2021-06-23T10:29:03Z</time>
      </trkpt>
      <trkpt lat="48.09638" lon="7.23794">
        <ele>501.6</ele>
        <time>2021-06-23T10:29:04Z</time>
      </trkpt>
      <trkpt lat="48.09628" lon="7.23791">
        <ele>501.57</ele>
        <time>2021-06-23T10:29:06Z</time>
      </trkpt>
      <trkpt lat="48.09558" lon="7.2375">
        <ele>512.03</ele>
        <time>2021-06-23T10:29:08Z</time>
      </trkpt>
      <trkpt lat="48.09538" lon="7.23741">
        <ele>513.59</ele>
        <time>2021-06-23T10:29:10Z</time>
      </trkpt>
      <trkpt lat="48.09477" lon="7.2372">
        <ele>514.11</ele>
        <time>2021-06-23T10:29:11Z</time>
      </trkpt>
      <trkpt lat="48.09464" lon="7.23714">
        <ele>513.62</ele>
        <time>2021-06-23T10:29:13Z</time>
      </trkpt>
      <trkpt lat="48.09451" lon="7.23704">
        <ele>513.48</ele>
        <time>2021-06-23T10:29:15Z</time>
      </trkpt>
      <trkpt lat="48.09436" lon="7.23686">
        <ele>513.38</ele>
        <time>2021-06-23T10:29:16Z</time>
      </trkpt>
      <trkpt lat="48.09428" lon="7.23671">
        <ele>512.91</ele>
        <time>2021-06-23T10:29:18Z</time>
      </trkpt>
      <trkpt lat="48.09424" lon="7.2365">
        <ele>513.12</ele>
        <time>2021-06-23T10:29:20Z</time>
      </trkpt>
      <trkpt lat="48.09425" lon="7.23629">
        <ele>513.68</ele>
        <time>2021-06-23T10:29:22Z</time>
      </trkpt>
      <trkpt lat="48.09429" lon="7.23607">
        <ele>513.99</ele>
        <time>2021-06-23T10:29:23Z</time>
      </trkpt>
      <trkpt lat="48.09438" lon="7.23582">
        <ele>514.36</ele>
        <time>2021-06-23T10:29:25Z</time>
      </trkpt>
      <trkpt lat="48.09447" lon="7.23563">
        <ele>514.14</ele>
        <time>2021-06-23T10:29:27Z</time>
      </trkpt>
      <trkpt lat="48.09458" lon="7.23544">
        <ele>515.92</ele>
        <time>2021-06-23T10:29:29Z</time>
      </trkpt>
      <trkpt lat="48.09528" lon="7.2347">
        <ele>526.33</ele>
        <time>2021-06-23T10:29:30Z</time>
      </trkpt>
      <trkpt lat="48.09576" lon="7.23422">
        <ele>530.39</ele>
        <time>2021-06-23T10:29:32Z</time>
      </trkpt>
      <trkpt lat="48.09592" lon="7.23398">
        <ele>533.23</ele>
        <time>2021-06-23T10:29:34Z</time>
      </trkpt>
      <trkpt lat="48.09608" lon="7.23367">
        <ele>534.47</ele>
        <time>2021-06-23T10:29:35Z</time>
      </trkpt>
      <trkpt lat="48.09634" lon="7.23307">
        <ele>537.77</ele>
        <time>2021-06-23T10:29:37Z</time>
      </trkpt>
      <trkpt lat="48.09656" lon="7.23261">
        <ele>544.52</ele>
        <time>2021-06-23T10:29:39Z</time>
      </trkpt>
      <trkpt lat="48.09684" lon="7.23225">
        <ele>550.26</ele>
        <time>2021-06-23T10:29:41Z</time>
      </trkpt>
      <trkpt lat="48.09686" lon="7.23218">
        <ele>551.64</ele>
        <time>2021-06-23T10:29:42Z</time>
      </trkpt>
      <trkpt lat="48.09687" lon="7.23208">
        <ele>554.66</ele>
        <time>2021-06-23T10:29:44Z</time>
      </trkpt>
      <trkpt lat="48.09686" lon="7.23199">
        <ele>556.56</ele>
        <time>2021-06-23T10:29:46Z</time>
      </trkpt>
      <trkpt lat="48.09681" lon="7.23191">
        <ele>558.33</ele>
        <time>2021-06-23T10:29:47Z</time>
      </trkpt>
      <trkpt lat="48.09645" lon="7.23172">
        <ele>558.19</ele>
        <time>2021-06-23T10:29:49Z</time>
      </trkpt>
      <trkpt lat="48.09629" lon="7.2317">
        <ele>556.14</ele>
        <time>2021-06-23T10:29:51Z</time>
      </trkpt>
      <trkpt lat="48.09588" lon="7.2318">
        <ele>547.72</ele>
        <time>2021-06-23T10:29:53Z</time>
      </trkpt>
      <trkpt lat="48.09574" lon="7.2318">
        <ele>548.02</ele>
        <time>2021-06-23T10:29:54Z</time>
      </trkpt>
      <trkpt lat="48.09564" lon="7.23172">
        <ele>551.83</ele>
        <time>2021-06-23T10:29:56Z</time>
      </trkpt>
      <trkpt lat="48.09551" lon="7.23154">
        <ele>561.22</ele>
        <time>2021-06-23T10:29:58Z</time>
      </trkpt>
      <trkpt lat="48.09539" lon="7.23148">
        <ele>562.37</ele>
        <time>2021-06-23T10:29:59Z</time>
      </trkpt>
      <trkpt lat="48.09515" lon="7.23147">
        <ele>557.98</ele>
        <time>2021-06-23T10:30:01Z</time>
      </trkpt>
      <trkpt lat="48.09498" lon="7.23141">
        <ele>555.57</ele>
        <time>2021-06-23T10:30:03Z</time>
      </trkpt>
      <trkpt lat="48.09483" lon="7.2313">
        <ele>556.47</ele>
        <time>2021-06-23T10:30:05Z</time>
      </trkpt>
      <trkpt lat="48.09474" lon="7.23117">
        <ele>559.15</ele>
        <time>2021-06-23T10:30:06Z</time>
      </trkpt>
      <trkpt lat="48.09461" lon="7.23106">
        <ele>562.09</ele>
        <time>2021-06-23T10:30:08Z</time>
      </trkpt>
      <trkpt lat="48.09429" lon="7.23096">
        <ele>564</ele>
        <time>2021-06-23T10:30:10Z</time>
      </trkpt>
      <trkpt lat="48.09395" lon="7.23095">
        <ele>562.2</ele>
        <time>2021-06-23T10:30:11Z</time>
      </trkpt>
      <trkpt lat="48.09385" lon="7.23092">
        <ele>561.53</ele>
        <time>2021-06-23T10:30:13Z</time>
      </trkpt>
      <trkpt lat="48.09377" lon="7.23086">
        <ele>561.25</ele>
        <time>2021-06-23T10:30:15Z</time>
      </trkpt>
      <trkpt lat="48.09367" lon="7.23062">
        <ele>563.87</ele>
        <time>2021-06-23T10:30:17Z</time>
      </trkpt>
      <trkpt lat="48.09363" lon="7.23034">
        <ele>568.86</ele>
        <time>2021-06-23T10:30:18Z</time>
      </trkpt>
      <trkpt lat="48.09359" lon="7.22988">
        <ele>570.21</ele>
        <time>2021-06-23T10:30:20Z</time>
      </trkpt>
      <trkpt lat="48.09358" lon="7.22962">
        <ele>569.11</ele>
        <time>2021-06-23T10:30:22Z</time>
      </trkpt>
      <trkpt lat="48.09363" lon="7.22925">
        <ele>567.11</ele>
        <time>2021-06-23T10:30:23Z</time>
      </trkpt>
      <trkpt lat="48.09372" lon="7.22901">
        <ele>568.08</ele>
        <time>2021-06-23T10:30:25Z</time>
      </trkpt>
      <trkpt lat="48.09386" lon="7.22871">
        <ele>569.34</ele>
        <time>2021-06-23T10:30:27Z</time>
      </trkpt>
      <trkpt lat="48.09386" lon="7.22871">
        <ele>569.34</ele>
        <time>2021-06-23T10:30:27Z</time>
      </trkpt>
      <trkpt lat="48.09402" lon="7.22849">
        <ele>569.29</ele>
        <time>2021-06-23T10:30:28Z</time>
      </trkpt>
      <trkpt lat="48.09407" lon="7.22845">
        <ele>569.78</ele>
        <time>2021-06-23T10:30:30Z</time>
      </trkpt>
      <trkpt lat="48.09417" lon="7.22848">
        <ele>572.52</ele>
        <time>2021-06-23T10:30:32Z</time>
      </trkpt>
      <trkpt lat="48.09423" lon="7.2286">
        <ele>576.58</ele>
        <time>2021-06-23T10:30:33Z</time>
      </trkpt>
      <trkpt lat="48.09423" lon="7.22871">
        <ele>578.77</ele>
        <time>2021-06-23T10:30:35Z</time>
      </trkpt>
      <trkpt lat="48.0942" lon="7.2288">
        <ele>580.02</ele>
        <time>2021-06-23T10:30:37Z</time>
      </trkpt>
      <trkpt lat="48.09416" lon="7.22886">
        <ele>580.24</ele>
        <time>2021-06-23T10:30:38Z</time>
      </trkpt>
      <trkpt lat="48.09398" lon="7.22903">
        <ele>578.05</ele>
        <time>2021-06-23T10:30:40Z</time>
      </trkpt>
      <trkpt lat="48.09391" lon="7.22915">
        <ele>577.38</ele>
        <time>2021-06-23T10:30:41Z</time>
      </trkpt>
      <trkpt lat="48.09387" lon="7.22927">
        <ele>577.23</ele>
        <time>2021-06-23T10:30:43Z</time>
      </trkpt>
      <trkpt lat="48.09385" lon="7.22943">
        <ele>578.14</ele>
        <time>2021-06-23T10:30:45Z</time>
      </trkpt>
      <trkpt lat="48.09386" lon="7.22961">
        <ele>579.63</ele>
        <time>2021-06-23T10:30:46Z</time>
      </trkpt>
      <trkpt lat="48.09402" lon="7.23017">
        <ele>581.99</ele>
        <time>2021-06-23T10:30:48Z</time>
      </trkpt>
      <trkpt lat="48.09412" lon="7.23034">
        <ele>581.64</ele>
        <time>2021-06-23T10:30:50Z</time>
      </trkpt>
      <trkpt lat="48.09425" lon="7.23045">
        <ele>582.09</ele>
        <time>2021-06-23T10:30:51Z</time>
      </trkpt>
      <trkpt lat="48.09437" lon="7.2305">
        <ele>583.14</ele>
        <time>2021-06-23T10:30:53Z</time>
      </trkpt>
      <trkpt lat="48.0946" lon="7.23054">
        <ele>586.86</ele>
        <time>2021-06-23T10:30:54Z</time>
      </trkpt>
      <trkpt lat="48.09588" lon="7.23068">
        <ele>602.86</ele>
        <time>2021-06-23T10:30:56Z</time>
      </trkpt>
      <trkpt lat="48.09601" lon="7.23068">
        <ele>605.24</ele>
        <time>2021-06-23T10:30:58Z</time>
      </trkpt>
      <trkpt lat="48.09669" lon="7.23043">
        <ele>616.24</ele>
        <time>2021-06-23T10:30:59Z</time>
      </trkpt>
      <trkpt lat="48.09684" lon="7.23043">
        <ele>616.74</ele>
        <time>2021-06-23T10:31:01Z</time>
      </trkpt>
      <trkpt lat="48.09726" lon="7.23058">
        <ele>614.54</ele>
        <time>2021-06-23T10:31:03Z</time>
      </trkpt>
      <trkpt lat="48.09854" lon="7.23125">
        <ele>626</ele>
        <time>2021-06-23T10:31:04Z</time>
      </trkpt>
      <trkpt lat="48.09862" lon="7.23131">
        <ele>626.14</ele>
        <time>2021-06-23T10:31:06Z</time>
      </trkpt>
      <trkpt lat="48.0987" lon="7.23142">
        <ele>626.31</ele>
        <time>2021-06-23T10:31:07Z</time>
      </trkpt>
      <trkpt lat="48.09893" lon="7.23185">
        <ele>631.31</ele>
        <time>2021-06-23T10:31:09Z</time>
      </trkpt>
      <trkpt lat="48.09897" lon="7.23203">
        <ele>631.33</ele>
        <time>2021-06-23T10:31:11Z</time>
      </trkpt>
      <trkpt lat="48.09899" lon="7.23232">
        <ele>628.7</ele>
        <time>2021-06-23T10:31:12Z</time>
      </trkpt>
      <trkpt lat="48.09896" lon="7.2325">
        <ele>627.11</ele>
        <time>2021-06-23T10:31:14Z</time>
      </trkpt>
      <trkpt lat="48.09891" lon="7.23266">
        <ele>626.11</ele>
        <time>2021-06-23T10:31:16Z</time>
      </trkpt>
      <trkpt lat="48.09849" lon="7.23339">
        <ele>622.86</ele>
        <time>2021-06-23T10:31:17Z</time>
      </trkpt>
      <trkpt lat="48.09832" lon="7.23366">
        <ele>622.21</ele>
        <time>2021-06-23T10:31:19Z</time>
      </trkpt>
      <trkpt lat="48.09821" lon="7.23389">
        <ele>622.77</ele>
        <time>2021-06-23T10:31:20Z</time>
      </trkpt>
      <trkpt lat="48.09818" lon="7.23397">
        <ele>623.2</ele>
        <time>2021-06-23T10:31:22Z</time>
      </trkpt>
      <trkpt lat="48.09817" lon="7.23412">
        <ele>624.46</ele>
        <time>2021-06-23T10:31:24Z</time>
      </trkpt>
      <trkpt lat="48.09818" lon="7.2343">
        <ele>625.5</ele>
        <time>2021-06-23T10:31:25Z</time>
      </trkpt>
      <trkpt lat="48.0982" lon="7.23438">
        <ele>626.02</ele>
        <time>2021-06-23T10:31:27Z</time>
      </trkpt>
      <trkpt lat="48.09828" lon="7.23452">
        <ele>626.42</ele>
        <time>2021-06-23T10:31:29Z</time>
      </trkpt>
      <trkpt lat="48.09839" lon="7.23463">
        <ele>626.56</ele>
        <time>2021-06-23T10:31:30Z</time>
      </trkpt>
      <trkpt lat="48.09845" lon="7.23466">
        <ele>626.85</ele>
        <time>2021-06-23T10:31:32Z</time>
      </trkpt>
      <trkpt lat="48.09856" lon="7.23468">
        <ele>627.74</ele>
        <time>2021-06-23T10:31:33Z</time>
      </trkpt>
      <trkpt lat="48.09869" lon="7.23462">
        <ele>630.14</ele>
        <time>2021-06-23T10:31:35Z</time>
      </trkpt>
      <trkpt lat="48.09877" lon="7.23455">
        <ele>632.12</ele>
        <time>2021-06-23T10:31:37Z</time>
      </trkpt>
      <trkpt lat="48.09881" lon="7.23446">
        <ele>633.58</ele>
        <time>2021-06-23T10:31:38Z</time>
      </trkpt>
      <trkpt lat="48.09885" lon="7.23425">
        <ele>634.37</ele>
        <time>2021-06-23T10:31:40Z</time>
      </trkpt>
      <trkpt lat="48.09892" lon="7.23352">
        <ele>631.43</ele>
        <time>2021-06-23T10:31:42Z</time>
      </trkpt>
      <trkpt lat="48.09896" lon="7.2334">
        <ele>632.2</ele>
        <time>2021-06-23T10:31:43Z</time>
      </trkpt>
      <trkpt lat="48.09905" lon="7.23333">
        <ele>634.04</ele>
        <time>2021-06-23T10:31:45Z</time>
      </trkpt>
      <trkpt lat="48.09916" lon="7.23339">
        <ele>637.13</ele>
        <time>2021-06-23T10:31:46Z</time>
      </trkpt>
      <trkpt lat="48.0992" lon="7.23348">
        <ele>639.09</ele>
        <time>2021-06-23T10:31:48Z</time>
      </trkpt>
      <trkpt lat="48.0992" lon="7.23354">
        <ele>639.71</ele>
        <time>2021-06-23T10:31:50Z</time>
      </trkpt>
      <trkpt lat="48.09917" lon="7.23399">
        <ele>641.13</ele>
        <time>2021-06-23T10:31:51Z</time>
      </trkpt>
      <trkpt lat="48.09919" lon="7.23413">
        <ele>641.55</ele>
        <time>2021-06-23T10:31:53Z</time>
      </trkpt>
      <trkpt lat="48.09919" lon="7.23413">
        <ele>641.55</ele>
        <time>2021-06-23T10:31:53Z</time>
      </trkpt>
      <trkpt lat="48.0992" lon="7.23421">
        <ele>641.97</ele>
        <time>2021-06-23T10:31:55Z</time>
      </trkpt>
      <trkpt lat="48.09927" lon="7.23446">
        <ele>645.25</ele>
        <time>2021-06-23T10:31:57Z</time>
      </trkpt>
      <trkpt lat="48.09931" lon="7.23451">
        <ele>646.8</ele>
        <time>2021-06-23T10:32:00Z</time>
      </trkpt>
      <trkpt lat="48.09936" lon="7.23453">
        <ele>648.55</ele>
        <time>2021-06-23T10:32:02Z</time>
      </trkpt>
      <trkpt lat="48.09942" lon="7.23449">
        <ele>650.09</ele>
        <time>2021-06-23T10:32:04Z</time>
      </trkpt>
      <trkpt lat="48.09943" lon="7.23438">
        <ele>650.21</ele>
        <time>2021-06-23T10:32:06Z</time>
      </trkpt>
      <trkpt lat="48.09932" lon="7.23403">
        <ele>645</ele>
        <time>2021-06-23T10:32:08Z</time>
      </trkpt>
      <trkpt lat="48.09931" lon="7.23391">
        <ele>644.54</ele>
        <time>2021-06-23T10:32:10Z</time>
      </trkpt>
      <trkpt lat="48.09932" lon="7.23375">
        <ele>644.36</ele>
        <time>2021-06-23T10:32:12Z</time>
      </trkpt>
      <trkpt lat="48.09937" lon="7.23358">
        <ele>645.46</ele>
        <time>2021-06-23T10:32:15Z</time>
      </trkpt>
      <trkpt lat="48.09974" lon="7.2328">
        <ele>654.6</ele>
        <time>2021-06-23T10:32:17Z</time>
      </trkpt>
      <trkpt lat="48.09983" lon="7.23243">
        <ele>653.95</ele>
        <time>2021-06-23T10:32:19Z</time>
      </trkpt>
      <trkpt lat="48.09984" lon="7.23175">
        <ele>655.07</ele>
        <time>2021-06-23T10:32:21Z</time>
      </trkpt>
      <trkpt lat="48.0998" lon="7.23141">
        <ele>657.16</ele>
        <time>2021-06-23T10:32:23Z</time>
      </trkpt>
      <trkpt lat="48.09964" lon="7.23073">
        <ele>660.66</ele>
        <time>2021-06-23T10:32:25Z</time>
      </trkpt>
      <trkpt lat="48.09953" lon="7.23043">
        <ele>661.73</ele>
        <time>2021-06-23T10:32:28Z</time>
      </trkpt>
      <trkpt lat="48.0994" lon="7.23028">
        <ele>661.72</ele>
        <time>2021-06-23T10:32:30Z</time>
      </trkpt>
      <trkpt lat="48.09927" lon="7.23019">
        <ele>661.36</ele>
        <time>2021-06-23T10:32:32Z</time>
      </trkpt>
      <trkpt lat="48.09856" lon="7.22984">
        <ele>660.57</ele>
        <time>2021-06-23T10:32:34Z</time>
      </trkpt>
      <trkpt lat="48.09811" lon="7.22949">
        <ele>671.69</ele>
        <time>2021-06-23T10:32:36Z</time>
      </trkpt>
      <trkpt lat="48.09753" lon="7.22892">
        <ele>677.43</ele>
        <time>2021-06-23T10:32:38Z</time>
      </trkpt>
      <trkpt lat="48.09743" lon="7.2288">
        <ele>675.68</ele>
        <time>2021-06-23T10:32:41Z</time>
      </trkpt>
      <trkpt lat="48.09737" lon="7.22863">
        <ele>674.7</ele>
        <time>2021-06-23T10:32:43Z</time>
      </trkpt>
      <trkpt lat="48.09734" lon="7.22842">
        <ele>675.67</ele>
        <time>2021-06-23T10:32:45Z</time>
      </trkpt>
      <trkpt lat="48.09737" lon="7.22816">
        <ele>677.65</ele>
        <time>2021-06-23T10:32:47Z</time>
      </trkpt>
      <trkpt lat="48.09761" lon="7.22757">
        <ele>679.65</ele>
        <time>2021-06-23T10:32:49Z</time>
      </trkpt>
      <trkpt lat="48.09786" lon="7.22688">
        <ele>676.5</ele>
        <time>2021-06-23T10:32:51Z</time>
      </trkpt>
      <trkpt lat="48.09796" lon="7.22653">
        <ele>677.12</ele>
        <time>2021-06-23T10:32:54Z</time>
      </trkpt>
      <trkpt lat="48.09801" lon="7.22621">
        <ele>677.61</ele>
        <time>2021-06-23T10:32:56Z</time>
      </trkpt>
      <trkpt lat="48.09805" lon="7.2257">
        <ele>678.93</ele>
        <time>2021-06-23T10:32:58Z</time>
      </trkpt>
      <trkpt lat="48.09808" lon="7.22495">
        <ele>678.54</ele>
        <time>2021-06-23T10:33:00Z</time>
      </trkpt>
      <trkpt lat="48.09811" lon="7.22455">
        <ele>678.61</ele>
        <time>2021-06-23T10:33:02Z</time>
      </trkpt>
      <trkpt lat="48.09816" lon="7.22426">
        <ele>679.9</ele>
        <time>2021-06-23T10:33:04Z</time>
      </trkpt>
      <trkpt lat="48.09836" lon="7.22343">
        <ele>681.32</ele>
        <time>2021-06-23T10:33:07Z</time>
      </trkpt>
      <trkpt lat="48.09845" lon="7.22296">
        <ele>683.57</ele>
        <time>2021-06-23T10:33:09Z</time>
      </trkpt>
      <trkpt lat="48.09843" lon="7.22265">
        <ele>683.28</ele>
        <time>2021-06-23T10:33:11Z</time>
      </trkpt>
      <trkpt lat="48.09831" lon="7.22209">
        <ele>681.58</ele>
        <time>2021-06-23T10:33:13Z</time>
      </trkpt>
      <trkpt lat="48.09822" lon="7.22148">
        <ele>683.18</ele>
        <time>2021-06-23T10:33:15Z</time>
      </trkpt>
      <trkpt lat="48.0982" lon="7.2212">
        <ele>685.53</ele>
        <time>2021-06-23T10:33:17Z</time>
      </trkpt>
      <trkpt lat="48.09818" lon="7.22052">
        <ele>687.45</ele>
        <time>2021-06-23T10:33:19Z</time>
      </trkpt>
      <trkpt lat="48.09812" lon="7.2198">
        <ele>688.51</ele>
        <time>2021-06-23T10:33:22Z</time>
      </trkpt>
      <trkpt lat="48.09807" lon="7.2195">
        <ele>688.17</ele>
        <time>2021-06-23T10:33:24Z</time>
      </trkpt>
      <trkpt lat="48.09797" lon="7.2192">
        <ele>687.43</ele>
        <time>2021-06-23T10:33:26Z</time>
      </trkpt>
      <trkpt lat="48.09782" lon="7.21882">
        <ele>687.45</ele>
        <time>2021-06-23T10:33:28Z</time>
      </trkpt>
      <trkpt lat="48.09771" lon="7.21846">
        <ele>687.73</ele>
        <time>2021-06-23T10:33:30Z</time>
      </trkpt>
      <trkpt lat="48.09764" lon="7.21814">
        <ele>688.83</ele>
        <time>2021-06-23T10:33:32Z</time>
      </trkpt>
      <trkpt lat="48.09762" lon="7.21793">
        <ele>689.45</ele>
        <time>2021-06-23T10:33:35Z</time>
      </trkpt>
      <trkpt lat="48.09761" lon="7.21756">
        <ele>691.63</ele>
        <time>2021-06-23T10:33:37Z</time>
      </trkpt>
      <trkpt lat="48.09766" lon="7.21715">
        <ele>694.64</ele>
        <time>2021-06-23T10:33:39Z</time>
      </trkpt>
      <trkpt lat="48.09775" lon="7.2168">
        <ele>695.39</ele>
        <time>2021-06-23T10:33:41Z</time>
      </trkpt>
      <trkpt lat="48.098" lon="7.21599">
        <ele>701.47</ele>
        <time>2021-06-23T10:33:43Z</time>
      </trkpt>
      <trkpt lat="48.09806" lon="7.21584">
        <ele>704.81</ele>
        <time>2021-06-23T10:33:45Z</time>
      </trkpt>
      <trkpt lat="48.09812" lon="7.21574">
        <ele>707.56</ele>
        <time>2021-06-23T10:33:48Z</time>
      </trkpt>
      <trkpt lat="48.09822" lon="7.21566">
        <ele>708.74</ele>
        <time>2021-06-23T10:33:50Z</time>
      </trkpt>
      <trkpt lat="48.09832" lon="7.21565">
        <ele>707.86</ele>
        <time>2021-06-23T10:33:52Z</time>
      </trkpt>
      <trkpt lat="48.09845" lon="7.21571">
        <ele>705.85</ele>
        <time>2021-06-23T10:33:54Z</time>
      </trkpt>
      <trkpt lat="48.09899" lon="7.2162">
        <ele>707.12</ele>
        <time>2021-06-23T10:33:56Z</time>
      </trkpt>
      <trkpt lat="48.09915" lon="7.21631">
        <ele>708.81</ele>
        <time>2021-06-23T10:33:58Z</time>
      </trkpt>
      <trkpt lat="48.09927" lon="7.21635">
        <ele>709.47</ele>
        <time>2021-06-23T10:34:01Z</time>
      </trkpt>
      <trkpt lat="48.09937" lon="7.21635">
        <ele>709.92</ele>
        <time>2021-06-23T10:34:03Z</time>
      </trkpt>
      <trkpt lat="48.09949" lon="7.21632">
        <ele>710.69</ele>
        <time>2021-06-23T10:34:05Z</time>
      </trkpt>
      <trkpt lat="48.0998" lon="7.21614">
        <ele>712.55</ele>
        <time>2021-06-23T10:34:07Z</time>
      </trkpt>
      <trkpt lat="48.1001" lon="7.21585">
        <ele>712.22</ele>
        <time>2021-06-23T10:34:09Z</time>
      </trkpt>
      <trkpt lat="48.10021" lon="7.2157">
        <ele>711.5</ele>
        <time>2021-06-23T10:34:11Z</time>
      </trkpt>
      <trkpt lat="48.10025" lon="7.21561">
        <ele>711.23</ele>
        <time>2021-06-23T10:34:14Z</time>
      </trkpt>
      <trkpt lat="48.10026" lon="7.2155">
        <ele>711.11</ele>
        <time>2021-06-23T10:34:16Z</time>
      </trkpt>
      <trkpt lat="48.10026" lon="7.2155">
        <ele>711.11</ele>
        <time>2021-06-23T10:34:16Z</time>
      </trkpt>
      <trkpt lat="48.10028" lon="7.2154">
        <ele>710.99</ele>
        <time>2021-06-23T10:34:20Z</time>
      </trkpt>
      <trkpt lat="48.10025" lon="7.21517">
        <ele>711.57</ele>
        <time>2021-06-23T10:34:25Z</time>
      </trkpt>
      <trkpt lat="48.10019" lon="7.21503">
        <ele>712.24</ele>
        <time>2021-06-23T10:34:29Z</time>
      </trkpt>
      <trkpt lat="48.09986" lon="7.21433">
        <ele>715.35</ele>
        <time>2021-06-23T10:34:34Z</time>
      </trkpt>
      <trkpt lat="48.09976" lon="7.21396">
        <ele>717.62</ele>
        <time>2021-06-23T10:34:38Z</time>
      </trkpt>
      <trkpt lat="48.09948" lon="7.21199">
        <ele>728.07</ele>
        <time>2021-06-23T10:34:43Z</time>
      </trkpt>
      <trkpt lat="48.09921" lon="7.21079">
        <ele>736.91</ele>
        <time>2021-06-23T10:34:47Z</time>
      </trkpt>
      <trkpt lat="48.09912" lon="7.21047">
        <ele>739.36</ele>
        <time>2021-06-23T10:34:52Z</time>
      </trkpt>
      <trkpt lat="48.09881" lon="7.20983">
        <ele>740.54</ele>
        <time>2021-06-23T10:34:56Z</time>
      </trkpt>
      <trkpt lat="48.0987" lon="7.20957">
        <ele>739.83</ele>
        <time>2021-06-23T10:35:01Z</time>
      </trkpt>
      <trkpt lat="48.09863" lon="7.20931">
        <ele>739.29</ele>
        <time>2021-06-23T10:35:05Z</time>
      </trkpt>
      <trkpt lat="48.09845" lon="7.20774">
        <ele>739.32</ele>
        <time>2021-06-23T10:35:10Z</time>
      </trkpt>
      <trkpt lat="48.09841" lon="7.20666">
        <ele>741.53</ele>
        <time>2021-06-23T10:35:14Z</time>
      </trkpt>
      <trkpt lat="48.09835" lon="7.20578">
        <ele>744.88</ele>
        <time>2021-06-23T10:35:19Z</time>
      </trkpt>
      <trkpt lat="48.0983" lon="7.20532">
        <ele>746.32</ele>
        <time>2021-06-23T10:35:23Z</time>
      </trkpt>
      <trkpt lat="48.09827" lon="7.20519">
        <ele>746.85</ele>
        <time>2021-06-23T10:35:27Z</time>
      </trkpt>
      <trkpt lat="48.0982" lon="7.20507">
        <ele>747.53</ele>
        <time>2021-06-23T10:35:32Z</time>
      </trkpt>
      <trkpt lat="48.09806" lon="7.20489">
        <ele>748.58</ele>
        <time>2021-06-23T10:35:36Z</time>
      </trkpt>
      <trkpt lat="48.09796" lon="7.20483">
        <ele>748.53</ele>
        <time>2021-06-23T10:35:41Z</time>
      </trkpt>
      <trkpt lat="48.0967" lon="7.20443">
        <ele>750.78</ele>
        <time>2021-06-23T10:35:45Z</time>
      </trkpt>
      <trkpt lat="48.09582" lon="7.20425">
        <ele>751.64</ele>
        <time>2021-06-23T10:35:50Z</time>
      </trkpt>
      <trkpt lat="48.09542" lon="7.20401">
        <ele>753.41</ele>
        <time>2021-06-23T10:35:54Z</time>
      </trkpt>
      <trkpt lat="48.09532" lon="7.20403">
        <ele>754.59</ele>
        <time>2021-06-23T10:35:56Z</time>
      </trkpt>
      <trkpt lat="48.09519" lon="7.20397">
        <ele>756.05</ele>
        <time>2021-06-23T10:35:57Z</time>
      </trkpt>
      <trkpt lat="48.09472" lon="7.20366">
        <ele>763.92</ele>
        <time>2021-06-23T10:35:59Z</time>
      </trkpt>
      <trkpt lat="48.09461" lon="7.20363">
        <ele>765.89</ele>
        <time>2021-06-23T10:36:01Z</time>
      </trkpt>
      <trkpt lat="48.09457" lon="7.20367">
        <ele>766.52</ele>
        <time>2021-06-23T10:36:03Z</time>
      </trkpt>
      <trkpt lat="48.09452" lon="7.2038">
        <ele>767.01</ele>
        <time>2021-06-23T10:36:05Z</time>
      </trkpt>
      <trkpt lat="48.0944" lon="7.2043">
        <ele>765.78</ele>
        <time>2021-06-23T10:36:08Z</time>
      </trkpt>
      <trkpt lat="48.09436" lon="7.20436">
        <ele>765.88</ele>
        <time>2021-06-23T10:36:10Z</time>
      </trkpt>
      <trkpt lat="48.09429" lon="7.2044">
        <ele>766.71</ele>
        <time>2021-06-23T10:36:12Z</time>
      </trkpt>
      <trkpt lat="48.09419" lon="7.20437">
        <ele>768.42</ele>
        <time>2021-06-23T10:36:15Z</time>
      </trkpt>
      <trkpt lat="48.09324" lon="7.20388">
        <ele>779.09</ele>
        <time>2021-06-23T10:36:17Z</time>
      </trkpt>
      <trkpt lat="48.09272" lon="7.20344">
        <ele>782.28</ele>
        <time>2021-06-23T10:36:20Z</time>
      </trkpt>
      <trkpt lat="48.09234" lon="7.20309">
        <ele>784.76</ele>
        <time>2021-06-23T10:36:22Z</time>
      </trkpt>
      <trkpt lat="48.09224" lon="7.20297">
        <ele>785.61</ele>
        <time>2021-06-23T10:36:24Z</time>
      </trkpt>
      <trkpt lat="48.09211" lon="7.20277">
        <ele>785.87</ele>
        <time>2021-06-23T10:36:27Z</time>
      </trkpt>
      <trkpt lat="48.09182" lon="7.2021">
        <ele>788.02</ele>
        <time>2021-06-23T10:36:29Z</time>
      </trkpt>
      <trkpt lat="48.09174" lon="7.20189">
        <ele>788.55</ele>
        <time>2021-06-23T10:36:32Z</time>
      </trkpt>
      <trkpt lat="48.09163" lon="7.20144">
        <ele>788.48</ele>
        <time>2021-06-23T10:36:34Z</time>
      </trkpt>
      <trkpt lat="48.09157" lon="7.20105">
        <ele>787</ele>
        <time>2021-06-23T10:36:36Z</time>
      </trkpt>
      <trkpt lat="48.09156" lon="7.2008">
        <ele>786.91</ele>
        <time>2021-06-23T10:36:39Z</time>
      </trkpt>
      <trkpt lat="48.09156" lon="7.19955">
        <ele>786.47</ele>
        <time>2021-06-23T10:36:41Z</time>
      </trkpt>
      <trkpt lat="48.09152" lon="7.19927">
        <ele>786.39</ele>
        <time>2021-06-23T10:36:44Z</time>
      </trkpt>
      <trkpt lat="48.09132" lon="7.19853">
        <ele>786.47</ele>
        <time>2021-06-23T10:36:46Z</time>
      </trkpt>
      <trkpt lat="48.09111" lon="7.1979">
        <ele>787.48</ele>
        <time>2021-06-23T10:36:48Z</time>
      </trkpt>
      <trkpt lat="48.09103" lon="7.19748">
        <ele>787.6</ele>
        <time>2021-06-23T10:36:51Z</time>
      </trkpt>
      <trkpt lat="48.09098" lon="7.19712">
        <ele>788.79</ele>
        <time>2021-06-23T10:36:53Z</time>
      </trkpt>
      <trkpt lat="48.09089" lon="7.19667">
        <ele>792.33</ele>
        <time>2021-06-23T10:36:56Z</time>
      </trkpt>
      <trkpt lat="48.09079" lon="7.19639">
        <ele>794.33</ele>
        <time>2021-06-23T10:36:58Z</time>
      </trkpt>
      <trkpt lat="48.0907" lon="7.19622">
        <ele>796.18</ele>
        <time>2021-06-23T10:37:00Z</time>
      </trkpt>
      <trkpt lat="48.09062" lon="7.19598">
        <ele>797.66</ele>
        <time>2021-06-23T10:37:03Z</time>
      </trkpt>
      <trkpt lat="48.09038" lon="7.19493">
        <ele>798.27</ele>
        <time>2021-06-23T10:37:05Z</time>
      </trkpt>
      <trkpt lat="48.0903" lon="7.19466">
        <ele>801.19</ele>
        <time>2021-06-23T10:37:08Z</time>
      </trkpt>
      <trkpt lat="48.09017" lon="7.19447">
        <ele>805.01</ele>
        <time>2021-06-23T10:37:10Z</time>
      </trkpt>
      <trkpt lat="48.08997" lon="7.19427">
        <ele>811.34</ele>
        <time>2021-06-23T10:37:12Z</time>
      </trkpt>
      <trkpt lat="48.08997" lon="7.19427">
        <ele>811.34</ele>
        <time>2021-06-23T10:37:12Z</time>
      </trkpt>
      <trkpt lat="48.08962" lon="7.19399">
        <ele>818.68</ele>
        <time>2021-06-23T10:37:16Z</time>
      </trkpt>
      <trkpt lat="48.08893" lon="7.1937">
        <ele>820.97</ele>
        <time>2021-06-23T10:37:19Z</time>
      </trkpt>
      <trkpt lat="48.08884" lon="7.19368">
        <ele>822.76</ele>
        <time>2021-06-23T10:37:22Z</time>
      </trkpt>
      <trkpt lat="48.0887" lon="7.19368">
        <ele>824.93</ele>
        <time>2021-06-23T10:37:25Z</time>
      </trkpt>
      <trkpt lat="48.08857" lon="7.19376">
        <ele>824.28</ele>
        <time>2021-06-23T10:37:28Z</time>
      </trkpt>
      <trkpt lat="48.08792" lon="7.19468">
        <ele>828.59</ele>
        <time>2021-06-23T10:37:32Z</time>
      </trkpt>
      <trkpt lat="48.08754" lon="7.19514">
        <ele>830.61</ele>
        <time>2021-06-23T10:37:35Z</time>
      </trkpt>
      <trkpt lat="48.08738" lon="7.19529">
        <ele>832.82</ele>
        <time>2021-06-23T10:37:38Z</time>
      </trkpt>
      <trkpt lat="48.08717" lon="7.19544">
        <ele>835.63</ele>
        <time>2021-06-23T10:37:41Z</time>
      </trkpt>
      <trkpt lat="48.0863" lon="7.19595">
        <ele>838.1</ele>
        <time>2021-06-23T10:37:44Z</time>
      </trkpt>
      <trkpt lat="48.08571" lon="7.19614">
        <ele>840.16</ele>
        <time>2021-06-23T10:37:48Z</time>
      </trkpt>
      <trkpt lat="48.0851" lon="7.19618">
        <ele>846.77</ele>
        <time>2021-06-23T10:37:51Z</time>
      </trkpt>
      <trkpt lat="48.08428" lon="7.19607">
        <ele>846.24</ele>
        <time>2021-06-23T10:37:54Z</time>
      </trkpt>
      <trkpt lat="48.08407" lon="7.196">
        <ele>847.58</ele>
        <time>2021-06-23T10:37:57Z</time>
      </trkpt>
      <trkpt lat="48.08377" lon="7.19588">
        <ele>849.82</ele>
        <time>2021-06-23T10:38:01Z</time>
      </trkpt>
      <trkpt lat="48.08347" lon="7.19569">
        <ele>852.62</ele>
        <time>2021-06-23T10:38:04Z</time>
      </trkpt>
      <trkpt lat="48.08329" lon="7.19552">
        <ele>854.29</ele>
        <time>2021-06-23T10:38:07Z</time>
      </trkpt>
      <trkpt lat="48.08314" lon="7.19532">
        <ele>857.66</ele>
        <time>2021-06-23T10:38:10Z</time>
      </trkpt>
      <trkpt lat="48.08314" lon="7.19532">
        <ele>857.66</ele>
        <time>2021-06-23T10:38:10Z</time>
      </trkpt>
      <trkpt lat="48.08305" lon="7.19516">
        <ele>863.94</ele>
        <time>2021-06-23T10:38:13Z</time>
      </trkpt>
      <trkpt lat="48.08299" lon="7.195">
        <ele>866.77</ele>
        <time>2021-06-23T10:38:16Z</time>
      </trkpt>
      <trkpt lat="48.08286" lon="7.19443">
        <ele>868.09</ele>
        <time>2021-06-23T10:38:18Z</time>
      </trkpt>
      <trkpt lat="48.08282" lon="7.19419">
        <ele>867.41</ele>
        <time>2021-06-23T10:38:21Z</time>
      </trkpt>
      <trkpt lat="48.08269" lon="7.19295">
        <ele>869.38</ele>
        <time>2021-06-23T10:38:24Z</time>
      </trkpt>
      <trkpt lat="48.08272" lon="7.19212">
        <ele>872.04</ele>
        <time>2021-06-23T10:38:27Z</time>
      </trkpt>
      <trkpt lat="48.08279" lon="7.1917">
        <ele>875.46</ele>
        <time>2021-06-23T10:38:29Z</time>
      </trkpt>
      <trkpt lat="48.08287" lon="7.19143">
        <ele>877.6</ele>
        <time>2021-06-23T10:38:32Z</time>
      </trkpt>
      <trkpt lat="48.08311" lon="7.19093">
        <ele>881.89</ele>
        <time>2021-06-23T10:38:35Z</time>
      </trkpt>
      <trkpt lat="48.08332" lon="7.1906">
        <ele>882.46</ele>
        <time>2021-06-23T10:38:38Z</time>
      </trkpt>
      <trkpt lat="48.08402" lon="7.18982">
        <ele>888.18</ele>
        <time>2021-06-23T10:38:40Z</time>
      </trkpt>
      <trkpt lat="48.08414" lon="7.18964">
        <ele>889.46</ele>
        <time>2021-06-23T10:38:43Z</time>
      </trkpt>
      <trkpt lat="48.08424" lon="7.18942">
        <ele>889.35</ele>
        <time>2021-06-23T10:38:46Z</time>
      </trkpt>
      <trkpt lat="48.08428" lon="7.18924">
        <ele>888.74</ele>
        <time>2021-06-23T10:38:49Z</time>
      </trkpt>
      <trkpt lat="48.08438" lon="7.18867">
        <ele>887.85</ele>
        <time>2021-06-23T10:38:51Z</time>
      </trkpt>
      <trkpt lat="48.0845" lon="7.18809">
        <ele>889.37</ele>
        <time>2021-06-23T10:38:54Z</time>
      </trkpt>
      <trkpt lat="48.0846" lon="7.18735">
        <ele>889.68</ele>
        <time>2021-06-23T10:38:57Z</time>
      </trkpt>
      <trkpt lat="48.08468" lon="7.1863">
        <ele>896.74</ele>
        <time>2021-06-23T10:39:00Z</time>
      </trkpt>
      <trkpt lat="48.08477" lon="7.18599">
        <ele>899.56</ele>
        <time>2021-06-23T10:39:02Z</time>
      </trkpt>
      <trkpt lat="48.08491" lon="7.18564">
        <ele>899.35</ele>
        <time>2021-06-23T10:39:05Z</time>
      </trkpt>
      <trkpt lat="48.08493" lon="7.18553">
        <ele>898.92</ele>
        <time>2021-06-23T10:39:08Z</time>
      </trkpt>
      <trkpt lat="48.08496" lon="7.18514">
        <ele>897.74</ele>
        <time>2021-06-23T10:39:11Z</time>
      </trkpt>
      <trkpt lat="48.08495" lon="7.18467">
        <ele>896.41</ele>
        <time>2021-06-23T10:39:13Z</time>
      </trkpt>
      <trkpt lat="48.08483" lon="7.18378">
        <ele>892.91</ele>
        <time>2021-06-23T10:39:16Z</time>
      </trkpt>
      <trkpt lat="48.08483" lon="7.18378">
        <ele>892.91</ele>
        <time>2021-06-23T10:39:16Z</time>
      </trkpt>
      <trkpt lat="48.08468" lon="7.18306">
        <ele>889.02</ele>
        <time>2021-06-23T10:39:19Z</time>
      </trkpt>
      <trkpt lat="48.08447" lon="7.1822">
        <ele>891.08</ele>
        <time>2021-06-23T10:39:22Z</time>
      </trkpt>
      <trkpt lat="48.08432" lon="7.1815">
        <ele>891.3</ele>
        <time>2021-06-23T10:39:25Z</time>
      </trkpt>
      <trkpt lat="48.08414" lon="7.18029">
        <ele>892.59</ele>
        <time>2021-06-23T10:39:28Z</time>
      </trkpt>
      <trkpt lat="48.08409" lon="7.17979">
        <ele>893.1</ele>
        <time>2021-06-23T10:39:31Z</time>
      </trkpt>
      <trkpt lat="48.08398" lon="7.17915">
        <ele>893.92</ele>
        <time>2021-06-23T10:39:34Z</time>
      </trkpt>
      <trkpt lat="48.08386" lon="7.17857">
        <ele>892</ele>
        <time>2021-06-23T10:39:37Z</time>
      </trkpt>
      <trkpt lat="48.0838" lon="7.17834">
        <ele>889.21</ele>
        <time>2021-06-23T10:39:40Z</time>
      </trkpt>
      <trkpt lat="48.0837" lon="7.17813">
        <ele>888.95</ele>
        <time>2021-06-23T10:39:43Z</time>
      </trkpt>
      <trkpt lat="48.0836" lon="7.17794">
        <ele>889.39</ele>
        <time>2021-06-23T10:39:47Z</time>
      </trkpt>
      <trkpt lat="48.08342" lon="7.17771">
        <ele>891.27</ele>
        <time>2021-06-23T10:39:50Z</time>
      </trkpt>
      <trkpt lat="48.08296" lon="7.17717">
        <ele>897.95</ele>
        <time>2021-06-23T10:39:53Z</time>
      </trkpt>
      <trkpt lat="48.0826" lon="7.17662">
        <ele>898.54</ele>
        <time>2021-06-23T10:39:56Z</time>
      </trkpt>
      <trkpt lat="48.08247" lon="7.17638">
        <ele>898.96</ele>
        <time>2021-06-23T10:39:59Z</time>
      </trkpt>
      <trkpt lat="48.0824" lon="7.17612">
        <ele>901.16</ele>
        <time>2021-06-23T10:40:02Z</time>
      </trkpt>
      <trkpt lat="48.08232" lon="7.17504">
        <ele>903.46</ele>
        <time>2021-06-23T10:40:05Z</time>
      </trkpt>
      <trkpt lat="48.08208" lon="7.17374">
        <ele>911.46</ele>
        <time>2021-06-23T10:40:08Z</time>
      </trkpt>
      <trkpt lat="48.08195" lon="7.17293">
        <ele>912.33</ele>
        <time>2021-06-23T10:40:11Z</time>
      </trkpt>
      <trkpt lat="48.08186" lon="7.17267">
        <ele>913.49</ele>
        <time>2021-06-23T10:40:14Z</time>
      </trkpt>
      <trkpt lat="48.08179" lon="7.17254">
        <ele>914.64</ele>
        <time>2021-06-23T10:40:17Z</time>
      </trkpt>
      <trkpt lat="48.08169" lon="7.17243">
        <ele>916.74</ele>
        <time>2021-06-23T10:40:20Z</time>
      </trkpt>
      <trkpt lat="48.08159" lon="7.17235">
        <ele>919.13</ele>
        <time>2021-06-23T10:40:23Z</time>
      </trkpt>
      <trkpt lat="48.08143" lon="7.17214">
        <ele>921.81</ele>
        <time>2021-06-23T10:40:26Z</time>
      </trkpt>
      <trkpt lat="48.08133" lon="7.17195">
        <ele>921.3</ele>
        <time>2021-06-23T10:40:29Z</time>
      </trkpt>
      <trkpt lat="48.08128" lon="7.17178">
        <ele>920.94</ele>
        <time>2021-06-23T10:40:32Z</time>
      </trkpt>
      <trkpt lat="48.0812" lon="7.17161">
        <ele>920.96</ele>
        <time>2021-06-23T10:40:35Z</time>
      </trkpt>
      <trkpt lat="48.08083" lon="7.1711">
        <ele>925.08</ele>
        <time>2021-06-23T10:40:38Z</time>
      </trkpt>
      <trkpt lat="48.08073" lon="7.1709">
        <ele>926.21</ele>
        <time>2021-06-23T10:40:41Z</time>
      </trkpt>
      <trkpt lat="48.08054" lon="7.17034">
        <ele>929.97</ele>
        <time>2021-06-23T10:40:44Z</time>
      </trkpt>
      <trkpt lat="48.07965" lon="7.16795">
        <ele>938.04</ele>
        <time>2021-06-23T10:40:47Z</time>
      </trkpt>
      <trkpt lat="48.07957" lon="7.16757">
        <ele>941.37</ele>
        <time>2021-06-23T10:40:51Z</time>
      </trkpt>
      <trkpt lat="48.07953" lon="7.16714">
        <ele>942.05</ele>
        <time>2021-06-23T10:40:54Z</time>
      </trkpt>
      <trkpt lat="48.07953" lon="7.16714">
        <ele>942.05</ele>
        <time>2021-06-23T10:40:54Z</time>
      </trkpt>
      <trkpt lat="48.07952" lon="7.16663">
        <ele>941.24</ele>
        <time>2021-06-23T10:40:56Z</time>
      </trkpt>
      <trkpt lat="48.07954" lon="7.16591">
        <ele>947.52</ele>
        <time>2021-06-23T10:40:58Z</time>
      </trkpt>
      <trkpt lat="48.07956" lon="7.1657">
        <ele>949.1</ele>
        <time>2021-06-23T10:41:01Z</time>
      </trkpt>
      <trkpt lat="48.07973" lon="7.16468">
        <ele>956.18</ele>
        <time>2021-06-23T10:41:03Z</time>
      </trkpt>
      <trkpt lat="48.07982" lon="7.16432">
        <ele>957.47</ele>
        <time>2021-06-23T10:41:05Z</time>
      </trkpt>
      <trkpt lat="48.0799" lon="7.16417">
        <ele>958.1</ele>
        <time>2021-06-23T10:41:08Z</time>
      </trkpt>
      <trkpt lat="48.07994" lon="7.16413">
        <ele>958.18</ele>
        <time>2021-06-23T10:41:10Z</time>
      </trkpt>
      <trkpt lat="48.08005" lon="7.16408">
        <ele>957.83</ele>
        <time>2021-06-23T10:41:12Z</time>
      </trkpt>
      <trkpt lat="48.08045" lon="7.16412">
        <ele>955.06</ele>
        <time>2021-06-23T10:41:15Z</time>
      </trkpt>
      <trkpt lat="48.08107" lon="7.16403">
        <ele>956.96</ele>
        <time>2021-06-23T10:41:17Z</time>
      </trkpt>
      <trkpt lat="48.08132" lon="7.16396">
        <ele>956.84</ele>
        <time>2021-06-23T10:41:20Z</time>
      </trkpt>
      <trkpt lat="48.08145" lon="7.16391">
        <ele>956.27</ele>
        <time>2021-06-23T10:41:22Z</time>
      </trkpt>
      <trkpt lat="48.08155" lon="7.16383">
        <ele>955.86</ele>
        <time>2021-06-23T10:41:24Z</time>
      </trkpt>
      <trkpt lat="48.08179" lon="7.16358">
        <ele>956.38</ele>
        <time>2021-06-23T10:41:27Z</time>
      </trkpt>
      <trkpt lat="48.08207" lon="7.16314">
        <ele>959.05</ele>
        <time>2021-06-23T10:41:29Z</time>
      </trkpt>
      <trkpt lat="48.08216" lon="7.16292">
        <ele>959.84</ele>
        <time>2021-06-23T10:41:31Z</time>
      </trkpt>
      <trkpt lat="48.08219" lon="7.16276">
        <ele>960.27</ele>
        <time>2021-06-23T10:41:34Z</time>
      </trkpt>
      <trkpt lat="48.0822" lon="7.16261">
        <ele>960.72</ele>
        <time>2021-06-23T10:41:36Z</time>
      </trkpt>
      <trkpt lat="48.08219" lon="7.16238">
        <ele>961.54</ele>
        <time>2021-06-23T10:41:38Z</time>
      </trkpt>
      <trkpt lat="48.08214" lon="7.16212">
        <ele>962.57</ele>
        <time>2021-06-23T10:41:41Z</time>
      </trkpt>
      <trkpt lat="48.08207" lon="7.16193">
        <ele>962.96</ele>
        <time>2021-06-23T10:41:43Z</time>
      </trkpt>
      <trkpt lat="48.08182" lon="7.16137">
        <ele>959.82</ele>
        <time>2021-06-23T10:41:45Z</time>
      </trkpt>
      <trkpt lat="48.08147" lon="7.16035">
        <ele>961.09</ele>
        <time>2021-06-23T10:41:48Z</time>
      </trkpt>
      <trkpt lat="48.08137" lon="7.15998">
        <ele>962.45</ele>
        <time>2021-06-23T10:41:50Z</time>
      </trkpt>
      <trkpt lat="48.08123" lon="7.15937">
        <ele>960.83</ele>
        <time>2021-06-23T10:41:53Z</time>
      </trkpt>
      <trkpt lat="48.08118" lon="7.15923">
        <ele>959.89</ele>
        <time>2021-06-23T10:41:55Z</time>
      </trkpt>
      <trkpt lat="48.08053" lon="7.15802">
        <ele>959.31</ele>
        <time>2021-06-23T10:41:57Z</time>
      </trkpt>
      <trkpt lat="48.08037" lon="7.15768">
        <ele>960.48</ele>
        <time>2021-06-23T10:42:00Z</time>
      </trkpt>
      <trkpt lat="48.08006" lon="7.15693">
        <ele>962.58</ele>
        <time>2021-06-23T10:42:02Z</time>
      </trkpt>
      <trkpt lat="48.07964" lon="7.15614">
        <ele>963.23</ele>
        <time>2021-06-23T10:42:04Z</time>
      </trkpt>
      <trkpt lat="48.07959" lon="7.15598">
        <ele>964.65</ele>
        <time>2021-06-23T10:42:07Z</time>
      </trkpt>
      <trkpt lat="48.07958" lon="7.15567">
        <ele>966.73</ele>
        <time>2021-06-23T10:42:09Z</time>
      </trkpt>
      <trkpt lat="48.07968" lon="7.15531">
        <ele>968.92</ele>
        <time>2021-06-23T10:42:11Z</time>
      </trkpt>
      <trkpt lat="48.07981" lon="7.15504">
        <ele>972.2</ele>
        <time>2021-06-23T10:42:14Z</time>
      </trkpt>
      <trkpt lat="48.07988" lon="7.15491">
        <ele>973.94</ele>
        <time>2021-06-23T10:42:16Z</time>
      </trkpt>
      <trkpt lat="48.08004" lon="7.15477">
        <ele>975.95</ele>
        <time>2021-06-23T10:42:18Z</time>
      </trkpt>
      <trkpt lat="48.08019" lon="7.15472">
        <ele>975.67</ele>
        <time>2021-06-23T10:42:21Z</time>
      </trkpt>
      <trkpt lat="48.0807" lon="7.15464">
        <ele>968.96</ele>
        <time>2021-06-23T10:42:23Z</time>
      </trkpt>
      <trkpt lat="48.08119" lon="7.15451">
        <ele>969.96</ele>
        <time>2021-06-23T10:42:26Z</time>
      </trkpt>
      <trkpt lat="48.08169" lon="7.15441">
        <ele>965.62</ele>
        <time>2021-06-23T10:42:28Z</time>
      </trkpt>
      <trkpt lat="48.08196" lon="7.15433">
        <ele>965.6</ele>
        <time>2021-06-23T10:42:30Z</time>
      </trkpt>
      <trkpt lat="48.08244" lon="7.15413">
        <ele>962.82</ele>
        <time>2021-06-23T10:42:33Z</time>
      </trkpt>
      <trkpt lat="48.08278" lon="7.15389">
        <ele>958.97</ele>
        <time>2021-06-23T10:42:35Z</time>
      </trkpt>
      <trkpt lat="48.08291" lon="7.15372">
        <ele>958.19</ele>
        <time>2021-06-23T10:42:37Z</time>
      </trkpt>
      <trkpt lat="48.08295" lon="7.15361">
        <ele>958.11</ele>
        <time>2021-06-23T10:42:40Z</time>
      </trkpt>
      <trkpt lat="48.08297" lon="7.1535">
        <ele>958.16</ele>
        <time>2021-06-23T10:42:42Z</time>
      </trkpt>
      <trkpt lat="48.08297" lon="7.15339">
        <ele>958.5</ele>
        <time>2021-06-23T10:42:44Z</time>
      </trkpt>
      <trkpt lat="48.08291" lon="7.15319">
        <ele>959.08</ele>
        <time>2021-06-23T10:42:47Z</time>
      </trkpt>
      <trkpt lat="48.08239" lon="7.15223">
        <ele>968.51</ele>
        <time>2021-06-23T10:42:49Z</time>
      </trkpt>
      <trkpt lat="48.08231" lon="7.15198">
        <ele>970.59</ele>
        <time>2021-06-23T10:42:51Z</time>
      </trkpt>
      <trkpt lat="48.08229" lon="7.15184">
        <ele>971.17</ele>
        <time>2021-06-23T10:42:54Z</time>
      </trkpt>
      <trkpt lat="48.0823" lon="7.15149">
        <ele>971.5</ele>
        <time>2021-06-23T10:42:56Z</time>
      </trkpt>
      <trkpt lat="48.08236" lon="7.1511">
        <ele>972.51</ele>
        <time>2021-06-23T10:42:59Z</time>
      </trkpt>
      <trkpt lat="48.08241" lon="7.15094">
        <ele>973.12</ele>
        <time>2021-06-23T10:43:01Z</time>
      </trkpt>
      <trkpt lat="48.08252" lon="7.15079">
        <ele>973.87</ele>
        <time>2021-06-23T10:43:03Z</time>
      </trkpt>
      <trkpt lat="48.08263" lon="7.15072">
        <ele>972.59</ele>
        <time>2021-06-23T10:43:06Z</time>
      </trkpt>
      <trkpt lat="48.08359" lon="7.15034">
        <ele>956.99</ele>
        <time>2021-06-23T10:43:08Z</time>
      </trkpt>
      <trkpt lat="48.08395" lon="7.15015">
        <ele>949.99</ele>
        <time>2021-06-23T10:43:10Z</time>
      </trkpt>
      <trkpt lat="48.08395" lon="7.15015">
        <ele>949.99</ele>
        <time>2021-06-23T10:43:10Z</time>
      </trkpt>
      <trkpt lat="48.08405" lon="7.15008">
        <ele>949.19</ele>
        <time>2021-06-23T10:43:13Z</time>
      </trkpt>
      <trkpt lat="48.08414" lon="7.14995">
        <ele>948.79</ele>
        <time>2021-06-23T10:43:16Z</time>
      </trkpt>
      <trkpt lat="48.08418" lon="7.14979">
        <ele>949.37</ele>
        <time>2021-06-23T10:43:19Z</time>
      </trkpt>
      <trkpt lat="48.08417" lon="7.14959">
        <ele>950.45</ele>
        <time>2021-06-23T10:43:22Z</time>
      </trkpt>
      <trkpt lat="48.08413" lon="7.14946">
        <ele>951.38</ele>
        <time>2021-06-23T10:43:25Z</time>
      </trkpt>
      <trkpt lat="48.08399" lon="7.14924">
        <ele>952.37</ele>
        <time>2021-06-23T10:43:27Z</time>
      </trkpt>
      <trkpt lat="48.0832" lon="7.14834">
        <ele>963.04</ele>
        <time>2021-06-23T10:43:30Z</time>
      </trkpt>
      <trkpt lat="48.08298" lon="7.14815">
        <ele>964.62</ele>
        <time>2021-06-23T10:43:33Z</time>
      </trkpt>
      <trkpt lat="48.08225" lon="7.14762">
        <ele>967.3</ele>
        <time>2021-06-23T10:43:36Z</time>
      </trkpt>
      <trkpt lat="48.08199" lon="7.14747">
        <ele>968.1</ele>
        <time>2021-06-23T10:43:39Z</time>
      </trkpt>
      <trkpt lat="48.0815" lon="7.14726">
        <ele>971.81</ele>
        <time>2021-06-23T10:43:42Z</time>
      </trkpt>
      <trkpt lat="48.08128" lon="7.14712">
        <ele>973.25</ele>
        <time>2021-06-23T10:43:44Z</time>
      </trkpt>
      <trkpt lat="48.08101" lon="7.14689">
        <ele>975.34</ele>
        <time>2021-06-23T10:43:47Z</time>
      </trkpt>
      <trkpt lat="48.07996" lon="7.14564">
        <ele>979.44</ele>
        <time>2021-06-23T10:43:50Z</time>
      </trkpt>
      <trkpt lat="48.07981" lon="7.14538">
        <ele>980.25</ele>
        <time>2021-06-23T10:43:53Z</time>
      </trkpt>
      <trkpt lat="48.07954" lon="7.14476">
        <ele>981.17</ele>
        <time>2021-06-23T10:43:56Z</time>
      </trkpt>
      <trkpt lat="48.07923" lon="7.14397">
        <ele>977.43</ele>
        <time>2021-06-23T10:43:59Z</time>
      </trkpt>
      <trkpt lat="48.0792" lon="7.14382">
        <ele>977.36</ele>
        <time>2021-06-23T10:44:02Z</time>
      </trkpt>
      <trkpt lat="48.0792" lon="7.1437">
        <ele>978.39</ele>
        <time>2021-06-23T10:44:04Z</time>
      </trkpt>
      <trkpt lat="48.0792" lon="7.1437">
        <ele>978.39</ele>
        <time>2021-06-23T10:44:04Z</time>
      </trkpt>
      <trkpt lat="48.07923" lon="7.14353">
        <ele>979.05</ele>
        <time>2021-06-23T10:44:06Z</time>
      </trkpt>
      <trkpt lat="48.07928" lon="7.14339">
        <ele>980.84</ele>
        <time>2021-06-23T10:44:08Z</time>
      </trkpt>
      <trkpt lat="48.0794" lon="7.14316">
        <ele>984.92</ele>
        <time>2021-06-23T10:44:10Z</time>
      </trkpt>
      <trkpt lat="48.07953" lon="7.14303">
        <ele>986.84</ele>
        <time>2021-06-23T10:44:12Z</time>
      </trkpt>
      <trkpt lat="48.08016" lon="7.14276">
        <ele>987.1</ele>
        <time>2021-06-23T10:44:14Z</time>
      </trkpt>
      <trkpt lat="48.08028" lon="7.14268">
        <ele>987.31</ele>
        <time>2021-06-23T10:44:16Z</time>
      </trkpt>
      <trkpt lat="48.08046" lon="7.14248">
        <ele>988.31</ele>
        <time>2021-06-23T10:44:17Z</time>
      </trkpt>
      <trkpt lat="48.08052" lon="7.14235">
        <ele>989.13</ele>
        <time>2021-06-23T10:44:19Z</time>
      </trkpt>
      <trkpt lat="48.08057" lon="7.1422">
        <ele>990.21</ele>
        <time>2021-06-23T10:44:21Z</time>
      </trkpt>
      <trkpt lat="48.08073" lon="7.14136">
        <ele>994.17</ele>
        <time>2021-06-23T10:44:23Z</time>
      </trkpt>
      <trkpt lat="48.08081" lon="7.14107">
        <ele>993.67</ele>
        <time>2021-06-23T10:44:25Z</time>
      </trkpt>
      <trkpt lat="48.08089" lon="7.14084">
        <ele>995.2</ele>
        <time>2021-06-23T10:44:27Z</time>
      </trkpt>
      <trkpt lat="48.08101" lon="7.14064">
        <ele>996.4</ele>
        <time>2021-06-23T10:44:29Z</time>
      </trkpt>
      <trkpt lat="48.08117" lon="7.14043">
        <ele>997.67</ele>
        <time>2021-06-23T10:44:30Z</time>
      </trkpt>
      <trkpt lat="48.08138" lon="7.14022">
        <ele>998.1</ele>
        <time>2021-06-23T10:44:32Z</time>
      </trkpt>
      <trkpt lat="48.08157" lon="7.14008">
        <ele>997.88</ele>
        <time>2021-06-23T10:44:34Z</time>
      </trkpt>
      <trkpt lat="48.08171" lon="7.14001">
        <ele>997.53</ele>
        <time>2021-06-23T10:44:36Z</time>
      </trkpt>
      <trkpt lat="48.08222" lon="7.13988">
        <ele>998.21</ele>
        <time>2021-06-23T10:44:38Z</time>
      </trkpt>
      <trkpt lat="48.08234" lon="7.13987">
        <ele>997.77</ele>
        <time>2021-06-23T10:44:40Z</time>
      </trkpt>
      <trkpt lat="48.08261" lon="7.1399">
        <ele>995.44</ele>
        <time>2021-06-23T10:44:42Z</time>
      </trkpt>
      <trkpt lat="48.08306" lon="7.14002">
        <ele>991.53</ele>
        <time>2021-06-23T10:44:43Z</time>
      </trkpt>
      <trkpt lat="48.08323" lon="7.14002">
        <ele>987.55</ele>
        <time>2021-06-23T10:44:45Z</time>
      </trkpt>
      <trkpt lat="48.08338" lon="7.1401">
        <ele>983.94</ele>
        <time>2021-06-23T10:44:49Z</time>
      </trkpt>
      <trkpt lat="48.08353" lon="7.13977">
        <ele>982.69</ele>
        <time>2021-06-23T10:44:55Z</time>
      </trkpt>
      <trkpt lat="48.08353" lon="7.13977">
        <ele>982.69</ele>
        <time>2021-06-23T10:44:55Z</time>
      </trkpt>
      <trkpt lat="48.08354" lon="7.13975">
        <ele>981.44</ele>
        <time>2021-06-23T10:44:56Z</time>
      </trkpt>
      <trkpt lat="48.08352" lon="7.13963">
        <ele>981.84</ele>
        <time>2021-06-23T10:44:58Z</time>
      </trkpt>
      <trkpt lat="48.08341" lon="7.13949">
        <ele>984.1</ele>
        <time>2021-06-23T10:45:01Z</time>
      </trkpt>
      <trkpt lat="48.08336" lon="7.13936">
        <ele>984.21</ele>
        <time>2021-06-23T10:45:05Z</time>
      </trkpt>
      <trkpt lat="48.08322" lon="7.13912">
        <ele>984.39</ele>
        <time>2021-06-23T10:45:08Z</time>
      </trkpt>
      <trkpt lat="48.08226" lon="7.13761">
        <ele>984.78</ele>
        <time>2021-06-23T10:45:11Z</time>
      </trkpt>
      <trkpt lat="48.08214" lon="7.13738">
        <ele>985.79</ele>
        <time>2021-06-23T10:45:15Z</time>
      </trkpt>
      <trkpt lat="48.08202" lon="7.13714">
        <ele>985.67</ele>
        <time>2021-06-23T10:45:18Z</time>
      </trkpt>
      <trkpt lat="48.08179" lon="7.13647">
        <ele>977.46</ele>
        <time>2021-06-23T10:45:22Z</time>
      </trkpt>
      <trkpt lat="48.08091" lon="7.13467">
        <ele>970.06</ele>
        <time>2021-06-23T10:45:25Z</time>
      </trkpt>
      <trkpt lat="48.08074" lon="7.1344">
        <ele>969.89</ele>
        <time>2021-06-23T10:45:29Z</time>
      </trkpt>
      <trkpt lat="48.08035" lon="7.1339">
        <ele>968.12</ele>
        <time>2021-06-23T10:45:32Z</time>
      </trkpt>
      <trkpt lat="48.07948" lon="7.1323">
        <ele>955.74</ele>
        <time>2021-06-23T10:45:35Z</time>
      </trkpt>
      <trkpt lat="48.07942" lon="7.13215">
        <ele>954.56</ele>
        <time>2021-06-23T10:45:39Z</time>
      </trkpt>
      <trkpt lat="48.0794" lon="7.13205">
        <ele>954.03</ele>
        <time>2021-06-23T10:45:42Z</time>
      </trkpt>
      <trkpt lat="48.07939" lon="7.13185">
        <ele>952.79</ele>
        <time>2021-06-23T10:45:46Z</time>
      </trkpt>
      <trkpt lat="48.07941" lon="7.13158">
        <ele>950.75</ele>
        <time>2021-06-23T10:45:49Z</time>
      </trkpt>
      <trkpt lat="48.07964" lon="7.13092">
        <ele>945.6</ele>
        <time>2021-06-23T10:45:53Z</time>
      </trkpt>
      <trkpt lat="48.0797" lon="7.1307">
        <ele>944.85</ele>
        <time>2021-06-23T10:45:56Z</time>
      </trkpt>
      <trkpt lat="48.07975" lon="7.1304">
        <ele>943.98</ele>
        <time>2021-06-23T10:45:59Z</time>
      </trkpt>
      <trkpt lat="48.07975" lon="7.1304">
        <ele>943.98</ele>
        <time>2021-06-23T10:45:59Z</time>
      </trkpt>
      <trkpt lat="48.07982" lon="7.12968">
        <ele>942.78</ele>
        <time>2021-06-23T10:46:02Z</time>
      </trkpt>
      <trkpt lat="48.07986" lon="7.12954">
        <ele>942.82</ele>
        <time>2021-06-23T10:46:04Z</time>
      </trkpt>
      <trkpt lat="48.07992" lon="7.12939">
        <ele>943.05</ele>
        <time>2021-06-23T10:46:06Z</time>
      </trkpt>
      <trkpt lat="48.08024" lon="7.12891">
        <ele>941.76</ele>
        <time>2021-06-23T10:46:08Z</time>
      </trkpt>
      <trkpt lat="48.0804" lon="7.12864">
        <ele>939.47</ele>
        <time>2021-06-23T10:46:10Z</time>
      </trkpt>
      <trkpt lat="48.08048" lon="7.12841">
        <ele>938.82</ele>
        <time>2021-06-23T10:46:13Z</time>
      </trkpt>
      <trkpt lat="48.08053" lon="7.12811">
        <ele>939.18</ele>
        <time>2021-06-23T10:46:15Z</time>
      </trkpt>
      <trkpt lat="48.0806" lon="7.12739">
        <ele>936.41</ele>
        <time>2021-06-23T10:46:17Z</time>
      </trkpt>
      <trkpt lat="48.08059" lon="7.127">
        <ele>935.45</ele>
        <time>2021-06-23T10:46:19Z</time>
      </trkpt>
      <trkpt lat="48.08052" lon="7.1265">
        <ele>936.13</ele>
        <time>2021-06-23T10:46:21Z</time>
      </trkpt>
      <trkpt lat="48.08052" lon="7.12627">
        <ele>936.39</ele>
        <time>2021-06-23T10:46:23Z</time>
      </trkpt>
      <trkpt lat="48.08057" lon="7.12609">
        <ele>935.83</ele>
        <time>2021-06-23T10:46:26Z</time>
      </trkpt>
      <trkpt lat="48.08062" lon="7.126">
        <ele>935.03</ele>
        <time>2021-06-23T10:46:28Z</time>
      </trkpt>
      <trkpt lat="48.08068" lon="7.12594">
        <ele>934.36</ele>
        <time>2021-06-23T10:46:30Z</time>
      </trkpt>
      <trkpt lat="48.0808" lon="7.1259">
        <ele>933.29</ele>
        <time>2021-06-23T10:46:32Z</time>
      </trkpt>
      <trkpt lat="48.08097" lon="7.12591">
        <ele>932.74</ele>
        <time>2021-06-23T10:46:34Z</time>
      </trkpt>
      <trkpt lat="48.08191" lon="7.12603">
        <ele>926.98</ele>
        <time>2021-06-23T10:46:36Z</time>
      </trkpt>
      <trkpt lat="48.082" lon="7.12602">
        <ele>926.9</ele>
        <time>2021-06-23T10:46:39Z</time>
      </trkpt>
      <trkpt lat="48.08213" lon="7.12594">
        <ele>927.54</ele>
        <time>2021-06-23T10:46:41Z</time>
      </trkpt>
      <trkpt lat="48.08246" lon="7.12567">
        <ele>933.64</ele>
        <time>2021-06-23T10:46:43Z</time>
      </trkpt>
      <trkpt lat="48.08267" lon="7.12562">
        <ele>937.37</ele>
        <time>2021-06-23T10:46:45Z</time>
      </trkpt>
      <trkpt lat="48.08281" lon="7.12565">
        <ele>938.71</ele>
        <time>2021-06-23T10:46:47Z</time>
      </trkpt>
      <trkpt lat="48.08295" lon="7.12573">
        <ele>937.8</ele>
        <time>2021-06-23T10:46:49Z</time>
      </trkpt>
      <trkpt lat="48.08333" lon="7.12602">
        <ele>934</ele>
        <time>2021-06-23T10:46:52Z</time>
      </trkpt>
      <trkpt lat="48.08351" lon="7.12608">
        <ele>933.92</ele>
        <time>2021-06-23T10:46:54Z</time>
      </trkpt>
      <trkpt lat="48.08361" lon="7.12609">
        <ele>934.24</ele>
        <time>2021-06-23T10:46:56Z</time>
      </trkpt>
      <trkpt lat="48.08425" lon="7.12594">
        <ele>933.27</ele>
        <time>2021-06-23T10:46:58Z</time>
      </trkpt>
      <trkpt lat="48.08532" lon="7.12545">
        <ele>930.7</ele>
        <time>2021-06-23T10:47:00Z</time>
      </trkpt>
      <trkpt lat="48.08557" lon="7.12525">
        <ele>929.12</ele>
        <time>2021-06-23T10:47:02Z</time>
      </trkpt>
      <trkpt lat="48.08576" lon="7.12499">
        <ele>928.08</ele>
        <time>2021-06-23T10:47:05Z</time>
      </trkpt>
      <trkpt lat="48.08582" lon="7.12488">
        <ele>927.63</ele>
        <time>2021-06-23T10:47:07Z</time>
      </trkpt>
      <trkpt lat="48.08582" lon="7.12488">
        <ele>927.63</ele>
        <time>2021-06-23T10:47:07Z</time>
      </trkpt>
      <trkpt lat="48.08595" lon="7.12457">
        <ele>925.41</ele>
        <time>2021-06-23T10:47:10Z</time>
      </trkpt>
      <trkpt lat="48.0861" lon="7.12409">
        <ele>923.6</ele>
        <time>2021-06-23T10:47:13Z</time>
      </trkpt>
      <trkpt lat="48.08616" lon="7.12337">
        <ele>921.98</ele>
        <time>2021-06-23T10:47:16Z</time>
      </trkpt>
      <trkpt lat="48.08626" lon="7.12292">
        <ele>918.09</ele>
        <time>2021-06-23T10:47:19Z</time>
      </trkpt>
      <trkpt lat="48.08629" lon="7.12266">
        <ele>916.4</ele>
        <time>2021-06-23T10:47:22Z</time>
      </trkpt>
      <trkpt lat="48.08633" lon="7.122">
        <ele>915.37</ele>
        <time>2021-06-23T10:47:25Z</time>
      </trkpt>
      <trkpt lat="48.08629" lon="7.12111">
        <ele>911.39</ele>
        <time>2021-06-23T10:47:28Z</time>
      </trkpt>
      <trkpt lat="48.08635" lon="7.12045">
        <ele>909.45</ele>
        <time>2021-06-23T10:47:31Z</time>
      </trkpt>
      <trkpt lat="48.08622" lon="7.1192">
        <ele>904.99</ele>
        <time>2021-06-23T10:47:34Z</time>
      </trkpt>
      <trkpt lat="48.08623" lon="7.11902">
        <ele>904.21</ele>
        <time>2021-06-23T10:47:37Z</time>
      </trkpt>
      <trkpt lat="48.08627" lon="7.11878">
        <ele>903.44</ele>
        <time>2021-06-23T10:47:40Z</time>
      </trkpt>
      <trkpt lat="48.08634" lon="7.11856">
        <ele>902.82</ele>
        <time>2021-06-23T10:47:43Z</time>
      </trkpt>
      <trkpt lat="48.08698" lon="7.11726">
        <ele>895.12</ele>
        <time>2021-06-23T10:47:46Z</time>
      </trkpt>
      <trkpt lat="48.08713" lon="7.117">
        <ele>892.97</ele>
        <time>2021-06-23T10:47:49Z</time>
      </trkpt>
      <trkpt lat="48.08749" lon="7.11655">
        <ele>888.26</ele>
        <time>2021-06-23T10:47:52Z</time>
      </trkpt>
      <trkpt lat="48.08772" lon="7.11634">
        <ele>886.13</ele>
        <time>2021-06-23T10:47:55Z</time>
      </trkpt>
      <trkpt lat="48.08792" lon="7.11619">
        <ele>887.37</ele>
        <time>2021-06-23T10:47:58Z</time>
      </trkpt>
      <trkpt lat="48.08774" lon="7.11528">
        <ele>885.24</ele>
        <time>2021-06-23T10:48:00Z</time>
      </trkpt>
      <trkpt lat="48.08771" lon="7.11489">
        <ele>882.08</ele>
        <time>2021-06-23T10:48:02Z</time>
      </trkpt>
      <trkpt lat="48.08772" lon="7.11456">
        <ele>878.43</ele>
        <time>2021-06-23T10:48:04Z</time>
      </trkpt>
      <trkpt lat="48.08787" lon="7.11349">
        <ele>875.24</ele>
        <time>2021-06-23T10:48:06Z</time>
      </trkpt>
      <trkpt lat="48.08787" lon="7.11349">
        <ele>875.24</ele>
        <time>2021-06-23T10:48:06Z</time>
      </trkpt>
      <trkpt lat="48.08788" lon="7.11322">
        <ele>872.26</ele>
        <time>2021-06-23T10:48:08Z</time>
      </trkpt>
      <trkpt lat="48.08784" lon="7.11306">
        <ele>871.58</ele>
        <time>2021-06-23T10:48:09Z</time>
      </trkpt>
      <trkpt lat="48.08779" lon="7.113">
        <ele>870.73</ele>
        <time>2021-06-23T10:48:11Z</time>
      </trkpt>
      <trkpt lat="48.08774" lon="7.11298">
        <ele>869.55</ele>
        <time>2021-06-23T10:48:12Z</time>
      </trkpt>
      <trkpt lat="48.08763" lon="7.11302">
        <ele>867.03</ele>
        <time>2021-06-23T10:48:14Z</time>
      </trkpt>
      <trkpt lat="48.08756" lon="7.11315">
        <ele>865.55</ele>
        <time>2021-06-23T10:48:15Z</time>
      </trkpt>
      <trkpt lat="48.08744" lon="7.11364">
        <ele>865.17</ele>
        <time>2021-06-23T10:48:17Z</time>
      </trkpt>
      <trkpt lat="48.08733" lon="7.11383">
        <ele>864.29</ele>
        <time>2021-06-23T10:48:18Z</time>
      </trkpt>
      <trkpt lat="48.08715" lon="7.11397">
        <ele>863.11</ele>
        <time>2021-06-23T10:48:20Z</time>
      </trkpt>
      <trkpt lat="48.08692" lon="7.114">
        <ele>862.26</ele>
        <time>2021-06-23T10:48:21Z</time>
      </trkpt>
      <trkpt lat="48.08677" lon="7.11398">
        <ele>861.93</ele>
        <time>2021-06-23T10:48:23Z</time>
      </trkpt>
      <trkpt lat="48.0864" lon="7.11378">
        <ele>857.32</ele>
        <time>2021-06-23T10:48:25Z</time>
      </trkpt>
      <trkpt lat="48.0862" lon="7.11371">
        <ele>855.61</ele>
        <time>2021-06-23T10:48:26Z</time>
      </trkpt>
      <trkpt lat="48.08534" lon="7.11354">
        <ele>849.51</ele>
        <time>2021-06-23T10:48:28Z</time>
      </trkpt>
      <trkpt lat="48.08453" lon="7.11348">
        <ele>842.74</ele>
        <time>2021-06-23T10:48:29Z</time>
      </trkpt>
      <trkpt lat="48.08388" lon="7.11339">
        <ele>836.2</ele>
        <time>2021-06-23T10:48:31Z</time>
      </trkpt>
      <trkpt lat="48.08347" lon="7.11339">
        <ele>834.83</ele>
        <time>2021-06-23T10:48:32Z</time>
      </trkpt>
      <trkpt lat="48.08291" lon="7.11325">
        <ele>831.63</ele>
        <time>2021-06-23T10:48:34Z</time>
      </trkpt>
      <trkpt lat="48.0827" lon="7.11323">
        <ele>830.86</ele>
        <time>2021-06-23T10:48:35Z</time>
      </trkpt>
      <trkpt lat="48.0821" lon="7.11328">
        <ele>827.39</ele>
        <time>2021-06-23T10:48:37Z</time>
      </trkpt>
      <trkpt lat="48.08171" lon="7.11324">
        <ele>823.22</ele>
        <time>2021-06-23T10:48:38Z</time>
      </trkpt>
      <trkpt lat="48.08118" lon="7.11323">
        <ele>818.96</ele>
        <time>2021-06-23T10:48:40Z</time>
      </trkpt>
      <trkpt lat="48.08095" lon="7.11317">
        <ele>817.33</ele>
        <time>2021-06-23T10:48:41Z</time>
      </trkpt>
      <trkpt lat="48.08095" lon="7.11317">
        <ele>817.33</ele>
        <time>2021-06-23T10:48:41Z</time>
      </trkpt>
      <trkpt lat="48.08061" lon="7.11299">
        <ele>809.63</ele>
        <time>2021-06-23T10:48:43Z</time>
      </trkpt>
      <trkpt lat="48.08053" lon="7.11287">
        <ele>807.87</ele>
        <time>2021-06-23T10:48:44Z</time>
      </trkpt>
      <trkpt lat="48.0805" lon="7.11271">
        <ele>806.82</ele>
        <time>2021-06-23T10:48:45Z</time>
      </trkpt>
      <trkpt lat="48.08054" lon="7.11257">
        <ele>807.05</ele>
        <time>2021-06-23T10:48:46Z</time>
      </trkpt>
      <trkpt lat="48.08063" lon="7.1125">
        <ele>807.24</ele>
        <time>2021-06-23T10:48:47Z</time>
      </trkpt>
      <trkpt lat="48.08071" lon="7.11249">
        <ele>807.48</ele>
        <time>2021-06-23T10:48:48Z</time>
      </trkpt>
      <trkpt lat="48.08092" lon="7.11261">
        <ele>809.14</ele>
        <time>2021-06-23T10:48:50Z</time>
      </trkpt>
      <trkpt lat="48.08103" lon="7.11264">
        <ele>809.48</ele>
        <time>2021-06-23T10:48:51Z</time>
      </trkpt>
      <trkpt lat="48.08114" lon="7.11263">
        <ele>809.54</ele>
        <time>2021-06-23T10:48:52Z</time>
      </trkpt>
      <trkpt lat="48.08128" lon="7.11258">
        <ele>809.68</ele>
        <time>2021-06-23T10:48:53Z</time>
      </trkpt>
      <trkpt lat="48.08159" lon="7.11242">
        <ele>807.55</ele>
        <time>2021-06-23T10:48:54Z</time>
      </trkpt>
      <trkpt lat="48.08176" lon="7.11236">
        <ele>806.76</ele>
        <time>2021-06-23T10:48:55Z</time>
      </trkpt>
      <trkpt lat="48.08237" lon="7.11225">
        <ele>804.46</ele>
        <time>2021-06-23T10:48:57Z</time>
      </trkpt>
      <trkpt lat="48.08266" lon="7.11221">
        <ele>800.92</ele>
        <time>2021-06-23T10:48:58Z</time>
      </trkpt>
      <trkpt lat="48.08301" lon="7.11222">
        <ele>797.35</ele>
        <time>2021-06-23T10:48:59Z</time>
      </trkpt>
      <trkpt lat="48.08348" lon="7.11229">
        <ele>798.72</ele>
        <time>2021-06-23T10:49:00Z</time>
      </trkpt>
      <trkpt lat="48.08364" lon="7.11227">
        <ele>797.36</ele>
        <time>2021-06-23T10:49:01Z</time>
      </trkpt>
      <trkpt lat="48.08393" lon="7.11218">
        <ele>794.09</ele>
        <time>2021-06-23T10:49:02Z</time>
      </trkpt>
      <trkpt lat="48.08456" lon="7.11192">
        <ele>796.05</ele>
        <time>2021-06-23T10:49:04Z</time>
      </trkpt>
      <trkpt lat="48.08456" lon="7.11192">
        <ele>796.05</ele>
        <time>2021-06-23T10:49:04Z</time>
      </trkpt>
      <trkpt lat="48.08463" lon="7.11186">
        <ele>796.82</ele>
        <time>2021-06-23T10:49:05Z</time>
      </trkpt>
      <trkpt lat="48.08469" lon="7.11175">
        <ele>797.15</ele>
        <time>2021-06-23T10:49:07Z</time>
      </trkpt>
      <trkpt lat="48.0847" lon="7.11165">
        <ele>796.45</ele>
        <time>2021-06-23T10:49:08Z</time>
      </trkpt>
      <trkpt lat="48.08467" lon="7.11156">
        <ele>795.35</ele>
        <time>2021-06-23T10:49:10Z</time>
      </trkpt>
      <trkpt lat="48.08462" lon="7.1115">
        <ele>793.88</ele>
        <time>2021-06-23T10:49:11Z</time>
      </trkpt>
      <trkpt lat="48.08455" lon="7.11149">
        <ele>792.05</ele>
        <time>2021-06-23T10:49:13Z</time>
      </trkpt>
      <trkpt lat="48.08433" lon="7.11171">
        <ele>788.51</ele>
        <time>2021-06-23T10:49:14Z</time>
      </trkpt>
      <trkpt lat="48.0842" lon="7.11177">
        <ele>787.47</ele>
        <time>2021-06-23T10:49:16Z</time>
      </trkpt>
      <trkpt lat="48.0838" lon="7.11184">
        <ele>784.53</ele>
        <time>2021-06-23T10:49:17Z</time>
      </trkpt>
      <trkpt lat="48.0836" lon="7.11184">
        <ele>784.15</ele>
        <time>2021-06-23T10:49:19Z</time>
      </trkpt>
      <trkpt lat="48.08343" lon="7.1118">
        <ele>783.73</ele>
        <time>2021-06-23T10:49:20Z</time>
      </trkpt>
      <trkpt lat="48.08326" lon="7.11168">
        <ele>781.04</ele>
        <time>2021-06-23T10:49:22Z</time>
      </trkpt>
      <trkpt lat="48.08239" lon="7.11093">
        <ele>769.74</ele>
        <time>2021-06-23T10:49:23Z</time>
      </trkpt>
      <trkpt lat="48.08147" lon="7.10991">
        <ele>763.88</ele>
        <time>2021-06-23T10:49:25Z</time>
      </trkpt>
      <trkpt lat="48.08082" lon="7.10909">
        <ele>754.75</ele>
        <time>2021-06-23T10:49:26Z</time>
      </trkpt>
      <trkpt lat="48.08052" lon="7.10879">
        <ele>752.74</ele>
        <time>2021-06-23T10:49:28Z</time>
      </trkpt>
      <trkpt lat="48.08011" lon="7.10849">
        <ele>748.16</ele>
        <time>2021-06-23T10:49:29Z</time>
      </trkpt>
      <trkpt lat="48.07953" lon="7.10812">
        <ele>745.26</ele>
        <time>2021-06-23T10:49:31Z</time>
      </trkpt>
      <trkpt lat="48.079" lon="7.10753">
        <ele>740.54</ele>
        <time>2021-06-23T10:49:32Z</time>
      </trkpt>
      <trkpt lat="48.07871" lon="7.10727">
        <ele>738.8</ele>
        <time>2021-06-23T10:49:34Z</time>
      </trkpt>
      <trkpt lat="48.07758" lon="7.10669">
        <ele>727.75</ele>
        <time>2021-06-23T10:49:35Z</time>
      </trkpt>
      <trkpt lat="48.07747" lon="7.10658">
        <ele>726.25</ele>
        <time>2021-06-23T10:49:37Z</time>
      </trkpt>
      <trkpt lat="48.07742" lon="7.10645">
        <ele>725.34</ele>
        <time>2021-06-23T10:49:38Z</time>
      </trkpt>
      <trkpt lat="48.07744" lon="7.10631">
        <ele>724.54</ele>
        <time>2021-06-23T10:49:40Z</time>
      </trkpt>
      <trkpt lat="48.07747" lon="7.10625">
        <ele>724.25</ele>
        <time>2021-06-23T10:49:41Z</time>
      </trkpt>
      <trkpt lat="48.07757" lon="7.10618">
        <ele>724.5</ele>
        <time>2021-06-23T10:49:43Z</time>
      </trkpt>
      <trkpt lat="48.0777" lon="7.10613">
        <ele>725.39</ele>
        <time>2021-06-23T10:49:44Z</time>
      </trkpt>
      <trkpt lat="48.07818" lon="7.10609">
        <ele>723.12</ele>
        <time>2021-06-23T10:49:46Z</time>
      </trkpt>
      <trkpt lat="48.07838" lon="7.10611">
        <ele>721.36</ele>
        <time>2021-06-23T10:49:48Z</time>
      </trkpt>
      <trkpt lat="48.07918" lon="7.10631">
        <ele>717.43</ele>
        <time>2021-06-23T10:49:49Z</time>
      </trkpt>
      <trkpt lat="48.07947" lon="7.10629">
        <ele>718.19</ele>
        <time>2021-06-23T10:49:51Z</time>
      </trkpt>
      <trkpt lat="48.07999" lon="7.10603">
        <ele>713.48</ele>
        <time>2021-06-23T10:49:52Z</time>
      </trkpt>
      <trkpt lat="48.0801" lon="7.10603">
        <ele>713.46</ele>
        <time>2021-06-23T10:49:54Z</time>
      </trkpt>
      <trkpt lat="48.08032" lon="7.10613">
        <ele>714.8</ele>
        <time>2021-06-23T10:49:55Z</time>
      </trkpt>
      <trkpt lat="48.08038" lon="7.10612">
        <ele>714.02</ele>
        <time>2021-06-23T10:49:57Z</time>
      </trkpt>
      <trkpt lat="48.08044" lon="7.10606">
        <ele>712.2</ele>
        <time>2021-06-23T10:49:58Z</time>
      </trkpt>
      <trkpt lat="48.08047" lon="7.10596">
        <ele>710.04</ele>
        <time>2021-06-23T10:50:00Z</time>
      </trkpt>
      <trkpt lat="48.08046" lon="7.10586">
        <ele>708.25</ele>
        <time>2021-06-23T10:50:01Z</time>
      </trkpt>
      <trkpt lat="48.0804" lon="7.10575">
        <ele>706.15</ele>
        <time>2021-06-23T10:50:03Z</time>
      </trkpt>
      <trkpt lat="48.08036" lon="7.10573">
        <ele>705.86</ele>
        <time>2021-06-23T10:50:04Z</time>
      </trkpt>
      <trkpt lat="48.08018" lon="7.10572">
        <ele>706.35</ele>
        <time>2021-06-23T10:50:06Z</time>
      </trkpt>
      <trkpt lat="48.08" lon="7.10572">
        <ele>707.15</ele>
        <time>2021-06-23T10:50:07Z</time>
      </trkpt>
      <trkpt lat="48.07958" lon="7.10565">
        <ele>704.77</ele>
        <time>2021-06-23T10:50:09Z</time>
      </trkpt>
      <trkpt lat="48.07934" lon="7.10559">
        <ele>701.95</ele>
        <time>2021-06-23T10:50:10Z</time>
      </trkpt>
      <trkpt lat="48.0792" lon="7.10553">
        <ele>699.66</ele>
        <time>2021-06-23T10:50:12Z</time>
      </trkpt>
      <trkpt lat="48.07845" lon="7.10507">
        <ele>694.69</ele>
        <time>2021-06-23T10:50:13Z</time>
      </trkpt>
      <trkpt lat="48.07727" lon="7.10447">
        <ele>688.82</ele>
        <time>2021-06-23T10:50:15Z</time>
      </trkpt>
      <trkpt lat="48.07659" lon="7.10381">
        <ele>682.33</ele>
        <time>2021-06-23T10:50:16Z</time>
      </trkpt>
      <trkpt lat="48.07641" lon="7.10373">
        <ele>680.63</ele>
        <time>2021-06-23T10:50:18Z</time>
      </trkpt>
      <trkpt lat="48.07526" lon="7.10348">
        <ele>670.91</ele>
        <time>2021-06-23T10:50:19Z</time>
      </trkpt>
      <trkpt lat="48.07434" lon="7.10335">
        <ele>669.6</ele>
        <time>2021-06-23T10:50:21Z</time>
      </trkpt>
      <trkpt lat="48.07404" lon="7.10334">
        <ele>667.64</ele>
        <time>2021-06-23T10:50:22Z</time>
      </trkpt>
      <trkpt lat="48.07387" lon="7.10341">
        <ele>668.09</ele>
        <time>2021-06-23T10:50:24Z</time>
      </trkpt>
      <trkpt lat="48.07359" lon="7.10366">
        <ele>667.81</ele>
        <time>2021-06-23T10:50:25Z</time>
      </trkpt>
      <trkpt lat="48.07354" lon="7.10366">
        <ele>666.09</ele>
        <time>2021-06-23T10:50:27Z</time>
      </trkpt>
      <trkpt lat="48.0735" lon="7.10362">
        <ele>664.89</ele>
        <time>2021-06-23T10:50:28Z</time>
      </trkpt>
      <trkpt lat="48.07346" lon="7.1035">
        <ele>662.26</ele>
        <time>2021-06-23T10:50:30Z</time>
      </trkpt>
      <trkpt lat="48.07346" lon="7.10338">
        <ele>660.77</ele>
        <time>2021-06-23T10:50:32Z</time>
      </trkpt>
      <trkpt lat="48.07351" lon="7.10326">
        <ele>660.15</ele>
        <time>2021-06-23T10:50:33Z</time>
      </trkpt>
      <trkpt lat="48.07358" lon="7.10321">
        <ele>660.26</ele>
        <time>2021-06-23T10:50:35Z</time>
      </trkpt>
      <trkpt lat="48.07358" lon="7.10321">
        <ele>660.26</ele>
        <time>2021-06-23T10:50:35Z</time>
      </trkpt>
      <trkpt lat="48.07388" lon="7.10307">
        <ele>659.34</ele>
        <time>2021-06-23T10:50:38Z</time>
      </trkpt>
      <trkpt lat="48.07444" lon="7.10289">
        <ele>656.66</ele>
        <time>2021-06-23T10:50:42Z</time>
      </trkpt>
      <trkpt lat="48.07518" lon="7.10281">
        <ele>653.78</ele>
        <time>2021-06-23T10:50:45Z</time>
      </trkpt>
      <trkpt lat="48.07603" lon="7.10267">
        <ele>648.64</ele>
        <time>2021-06-23T10:50:49Z</time>
      </trkpt>
      <trkpt lat="48.07682" lon="7.10261">
        <ele>644.83</ele>
        <time>2021-06-23T10:50:52Z</time>
      </trkpt>
      <trkpt lat="48.07808" lon="7.10256">
        <ele>639.53</ele>
        <time>2021-06-23T10:50:55Z</time>
      </trkpt>
      <trkpt lat="48.07808" lon="7.10256">
        <ele>639.53</ele>
        <time>2021-06-23T10:50:55Z</time>
      </trkpt>
      <trkpt lat="48.07843" lon="7.10255">
        <ele>637.59</ele>
        <time>2021-06-23T10:50:57Z</time>
      </trkpt>
      <trkpt lat="48.07852" lon="7.10253">
        <ele>636.82</ele>
        <time>2021-06-23T10:50:58Z</time>
      </trkpt>
      <trkpt lat="48.07859" lon="7.10246">
        <ele>636.17</ele>
        <time>2021-06-23T10:50:59Z</time>
      </trkpt>
      <trkpt lat="48.07862" lon="7.10236">
        <ele>636.7</ele>
        <time>2021-06-23T10:51:00Z</time>
      </trkpt>
      <trkpt lat="48.07862" lon="7.10223">
        <ele>637.17</ele>
        <time>2021-06-23T10:51:01Z</time>
      </trkpt>
      <trkpt lat="48.07833" lon="7.10017">
        <ele>628.9</ele>
        <time>2021-06-23T10:51:02Z</time>
      </trkpt>
      <trkpt lat="48.07829" lon="7.09931">
        <ele>629.01</ele>
        <time>2021-06-23T10:51:04Z</time>
      </trkpt>
      <trkpt lat="48.07832" lon="7.09893">
        <ele>627.83</ele>
        <time>2021-06-23T10:51:05Z</time>
      </trkpt>
      <trkpt lat="48.07831" lon="7.09879">
        <ele>626.64</ele>
        <time>2021-06-23T10:51:06Z</time>
      </trkpt>
      <trkpt lat="48.07826" lon="7.09862">
        <ele>624.8</ele>
        <time>2021-06-23T10:51:07Z</time>
      </trkpt>
      <trkpt lat="48.07819" lon="7.09849">
        <ele>624.14</ele>
        <time>2021-06-23T10:51:08Z</time>
      </trkpt>
      <trkpt lat="48.0781" lon="7.09838">
        <ele>623.35</ele>
        <time>2021-06-23T10:51:09Z</time>
      </trkpt>
      <trkpt lat="48.078" lon="7.09833">
        <ele>623.04</ele>
        <time>2021-06-23T10:51:11Z</time>
      </trkpt>
      <trkpt lat="48.07796" lon="7.09833">
        <ele>623.03</ele>
        <time>2021-06-23T10:51:12Z</time>
      </trkpt>
      <trkpt lat="48.07796" lon="7.09833">
        <ele>623.03</ele>
        <time>2021-06-23T10:51:12Z</time>
      </trkpt>
      <trkpt lat="48.07783" lon="7.09836">
        <ele>622.79</ele>
        <time>2021-06-23T10:51:14Z</time>
      </trkpt>
      <trkpt lat="48.07775" lon="7.09842">
        <ele>622.63</ele>
        <time>2021-06-23T10:51:16Z</time>
      </trkpt>
      <trkpt lat="48.07767" lon="7.09853">
        <ele>622.49</ele>
        <time>2021-06-23T10:51:18Z</time>
      </trkpt>
      <trkpt lat="48.07725" lon="7.0993">
        <ele>618.52</ele>
        <time>2021-06-23T10:51:20Z</time>
      </trkpt>
      <trkpt lat="48.07713" lon="7.09946">
        <ele>618.27</ele>
        <time>2021-06-23T10:51:22Z</time>
      </trkpt>
      <trkpt lat="48.07647" lon="7.10004">
        <ele>616.58</ele>
        <time>2021-06-23T10:51:23Z</time>
      </trkpt>
      <trkpt lat="48.07622" lon="7.10023">
        <ele>615.46</ele>
        <time>2021-06-23T10:51:25Z</time>
      </trkpt>
      <trkpt lat="48.07593" lon="7.10036">
        <ele>613</ele>
        <time>2021-06-23T10:51:27Z</time>
      </trkpt>
      <trkpt lat="48.07514" lon="7.10044">
        <ele>603.68</ele>
        <time>2021-06-23T10:51:29Z</time>
      </trkpt>
      <trkpt lat="48.07444" lon="7.10071">
        <ele>597.59</ele>
        <time>2021-06-23T10:51:31Z</time>
      </trkpt>
      <trkpt lat="48.07435" lon="7.10073">
        <ele>596.47</ele>
        <time>2021-06-23T10:51:33Z</time>
      </trkpt>
      <trkpt lat="48.07338" lon="7.10067">
        <ele>587.86</ele>
        <time>2021-06-23T10:51:35Z</time>
      </trkpt>
      <trkpt lat="48.07292" lon="7.10058">
        <ele>582.72</ele>
        <time>2021-06-23T10:51:37Z</time>
      </trkpt>
      <trkpt lat="48.07292" lon="7.10045">
        <ele>582.89</ele>
        <time>2021-06-23T10:51:40Z</time>
      </trkpt>
      <trkpt lat="48.07284" lon="7.10026">
        <ele>583.58</ele>
        <time>2021-06-23T10:51:43Z</time>
      </trkpt>
      <trkpt lat="48.0725" lon="7.09999">
        <ele>586.61</ele>
        <time>2021-06-23T10:51:46Z</time>
      </trkpt>
      <trkpt lat="48.07237" lon="7.09985">
        <ele>589.72</ele>
        <time>2021-06-23T10:51:49Z</time>
      </trkpt>
      <trkpt lat="48.07202" lon="7.09931">
        <ele>597.67</ele>
        <time>2021-06-23T10:51:53Z</time>
      </trkpt>
      <trkpt lat="48.07189" lon="7.09917">
        <ele>597.99</ele>
        <time>2021-06-23T10:51:56Z</time>
      </trkpt>
      <trkpt lat="48.07174" lon="7.09906">
        <ele>597.95</ele>
        <time>2021-06-23T10:51:59Z</time>
      </trkpt>
      <trkpt lat="48.07142" lon="7.09891">
        <ele>597.52</ele>
        <time>2021-06-23T10:52:02Z</time>
      </trkpt>
      <trkpt lat="48.07117" lon="7.09886">
        <ele>595.38</ele>
        <time>2021-06-23T10:52:05Z</time>
      </trkpt>
      <trkpt lat="48.07087" lon="7.09887">
        <ele>593.42</ele>
        <time>2021-06-23T10:52:08Z</time>
      </trkpt>
      <trkpt lat="48.06894" lon="7.09909">
        <ele>604.15</ele>
        <time>2021-06-23T10:52:11Z</time>
      </trkpt>
      <trkpt lat="48.06873" lon="7.09909">
        <ele>604.21</ele>
        <time>2021-06-23T10:52:14Z</time>
      </trkpt>
      <trkpt lat="48.06854" lon="7.09905">
        <ele>604.78</ele>
        <time>2021-06-23T10:52:17Z</time>
      </trkpt>
      <trkpt lat="48.06777" lon="7.09865">
        <ele>614.09</ele>
        <time>2021-06-23T10:52:20Z</time>
      </trkpt>
      <trkpt lat="48.06761" lon="7.09862">
        <ele>614.74</ele>
        <time>2021-06-23T10:52:23Z</time>
      </trkpt>
      <trkpt lat="48.06745" lon="7.09864">
        <ele>614.22</ele>
        <time>2021-06-23T10:52:26Z</time>
      </trkpt>
      <trkpt lat="48.06698" lon="7.09878">
        <ele>613.84</ele>
        <time>2021-06-23T10:52:29Z</time>
      </trkpt>
      <trkpt lat="48.06676" lon="7.09882">
        <ele>614.81</ele>
        <time>2021-06-23T10:52:32Z</time>
      </trkpt>
      <trkpt lat="48.06664" lon="7.09881">
        <ele>615.67</ele>
        <time>2021-06-23T10:52:35Z</time>
      </trkpt>
      <trkpt lat="48.06649" lon="7.09871">
        <ele>616.29</ele>
        <time>2021-06-23T10:52:38Z</time>
      </trkpt>
      <trkpt lat="48.06642" lon="7.09862">
        <ele>617.14</ele>
        <time>2021-06-23T10:52:41Z</time>
      </trkpt>
      <trkpt lat="48.06637" lon="7.09848">
        <ele>617.92</ele>
        <time>2021-06-23T10:52:44Z</time>
      </trkpt>
      <trkpt lat="48.06635" lon="7.09835">
        <ele>618.38</ele>
        <time>2021-06-23T10:52:48Z</time>
      </trkpt>
      <trkpt lat="48.06635" lon="7.09835">
        <ele>618.38</ele>
        <time>2021-06-23T10:52:48Z</time>
      </trkpt>
      <trkpt lat="48.06635" lon="7.0982">
        <ele>618.54</ele>
        <time>2021-06-23T10:52:49Z</time>
      </trkpt>
      <trkpt lat="48.06638" lon="7.09809">
        <ele>618.79</ele>
        <time>2021-06-23T10:52:50Z</time>
      </trkpt>
      <trkpt lat="48.06645" lon="7.0979">
        <ele>620.24</ele>
        <time>2021-06-23T10:52:51Z</time>
      </trkpt>
      <trkpt lat="48.06659" lon="7.09765">
        <ele>621.96</ele>
        <time>2021-06-23T10:52:53Z</time>
      </trkpt>
      <trkpt lat="48.06667" lon="7.09742">
        <ele>622.83</ele>
        <time>2021-06-23T10:52:54Z</time>
      </trkpt>
      <trkpt lat="48.06675" lon="7.09711">
        <ele>623.67</ele>
        <time>2021-06-23T10:52:55Z</time>
      </trkpt>
      <trkpt lat="48.06679" lon="7.09676">
        <ele>625.66</ele>
        <time>2021-06-23T10:52:57Z</time>
      </trkpt>
      <trkpt lat="48.06679" lon="7.09644">
        <ele>626.17</ele>
        <time>2021-06-23T10:52:58Z</time>
      </trkpt>
      <trkpt lat="48.06658" lon="7.09445">
        <ele>633.87</ele>
        <time>2021-06-23T10:52:59Z</time>
      </trkpt>
      <trkpt lat="48.06656" lon="7.09432">
        <ele>636.73</ele>
        <time>2021-06-23T10:53:01Z</time>
      </trkpt>
      <trkpt lat="48.0665" lon="7.09419">
        <ele>638.35</ele>
        <time>2021-06-23T10:53:02Z</time>
      </trkpt>
      <trkpt lat="48.0664" lon="7.09407">
        <ele>639.82</ele>
        <time>2021-06-23T10:53:03Z</time>
      </trkpt>
      <trkpt lat="48.0664" lon="7.09407">
        <ele>639.82</ele>
        <time>2021-06-23T10:53:03Z</time>
      </trkpt>
      <trkpt lat="48.06629" lon="7.09401">
        <ele>640.47</ele>
        <time>2021-06-23T10:53:05Z</time>
      </trkpt>
      <trkpt lat="48.06617" lon="7.09402">
        <ele>639.64</ele>
        <time>2021-06-23T10:53:06Z</time>
      </trkpt>
      <trkpt lat="48.06586" lon="7.09419">
        <ele>636.12</ele>
        <time>2021-06-23T10:53:07Z</time>
      </trkpt>
      <trkpt lat="48.06574" lon="7.09422">
        <ele>636.67</ele>
        <time>2021-06-23T10:53:08Z</time>
      </trkpt>
      <trkpt lat="48.06563" lon="7.09418">
        <ele>638.79</ele>
        <time>2021-06-23T10:53:10Z</time>
      </trkpt>
      <trkpt lat="48.06533" lon="7.09399">
        <ele>647.01</ele>
        <time>2021-06-23T10:53:11Z</time>
      </trkpt>
      <trkpt lat="48.06523" lon="7.09394">
        <ele>648.22</ele>
        <time>2021-06-23T10:53:12Z</time>
      </trkpt>
      <trkpt lat="48.06501" lon="7.09393">
        <ele>647.53</ele>
        <time>2021-06-23T10:53:13Z</time>
      </trkpt>
      <trkpt lat="48.0641" lon="7.09434">
        <ele>657</ele>
        <time>2021-06-23T10:53:15Z</time>
      </trkpt>
      <trkpt lat="48.06375" lon="7.09448">
        <ele>657.39</ele>
        <time>2021-06-23T10:53:16Z</time>
      </trkpt>
      <trkpt lat="48.06358" lon="7.09451">
        <ele>655.64</ele>
        <time>2021-06-23T10:53:17Z</time>
      </trkpt>
      <trkpt lat="48.06344" lon="7.0945">
        <ele>654.42</ele>
        <time>2021-06-23T10:53:18Z</time>
      </trkpt>
      <trkpt lat="48.06323" lon="7.09445">
        <ele>653.48</ele>
        <time>2021-06-23T10:53:20Z</time>
      </trkpt>
      <trkpt lat="48.06311" lon="7.09439">
        <ele>653.03</ele>
        <time>2021-06-23T10:53:21Z</time>
      </trkpt>
      <trkpt lat="48.06296" lon="7.09427">
        <ele>653.54</ele>
        <time>2021-06-23T10:53:22Z</time>
      </trkpt>
      <trkpt lat="48.0628" lon="7.09409">
        <ele>654.35</ele>
        <time>2021-06-23T10:53:23Z</time>
      </trkpt>
      <trkpt lat="48.06271" lon="7.09392">
        <ele>655.84</ele>
        <time>2021-06-23T10:53:25Z</time>
      </trkpt>
      <trkpt lat="48.06247" lon="7.09339">
        <ele>663.11</ele>
        <time>2021-06-23T10:53:26Z</time>
      </trkpt>
      <trkpt lat="48.06236" lon="7.09324">
        <ele>664.22</ele>
        <time>2021-06-23T10:53:27Z</time>
      </trkpt>
      <trkpt lat="48.06224" lon="7.09314">
        <ele>664.21</ele>
        <time>2021-06-23T10:53:28Z</time>
      </trkpt>
      <trkpt lat="48.06208" lon="7.09309">
        <ele>664.09</ele>
        <time>2021-06-23T10:53:30Z</time>
      </trkpt>
      <trkpt lat="48.06193" lon="7.09311">
        <ele>662.84</ele>
        <time>2021-06-23T10:53:31Z</time>
      </trkpt>
      <trkpt lat="48.06182" lon="7.09315">
        <ele>662.29</ele>
        <time>2021-06-23T10:53:32Z</time>
      </trkpt>
      <trkpt lat="48.06148" lon="7.09339">
        <ele>660.38</ele>
        <time>2021-06-23T10:53:33Z</time>
      </trkpt>
      <trkpt lat="48.06129" lon="7.09346">
        <ele>660.73</ele>
        <time>2021-06-23T10:53:35Z</time>
      </trkpt>
      <trkpt lat="48.06111" lon="7.09346">
        <ele>662.33</ele>
        <time>2021-06-23T10:53:36Z</time>
      </trkpt>
      <trkpt lat="48.06088" lon="7.09339">
        <ele>664.81</ele>
        <time>2021-06-23T10:53:37Z</time>
      </trkpt>
      <trkpt lat="48.06064" lon="7.09322">
        <ele>667.93</ele>
        <time>2021-06-23T10:53:39Z</time>
      </trkpt>
      <trkpt lat="48.06037" lon="7.09297">
        <ele>670.84</ele>
        <time>2021-06-23T10:53:40Z</time>
      </trkpt>
      <trkpt lat="48.06002" lon="7.09254">
        <ele>672.79</ele>
        <time>2021-06-23T10:53:41Z</time>
      </trkpt>
      <trkpt lat="48.05978" lon="7.09206">
        <ele>676.93</ele>
        <time>2021-06-23T10:53:42Z</time>
      </trkpt>
      <trkpt lat="48.05963" lon="7.09157">
        <ele>680.35</ele>
        <time>2021-06-23T10:53:44Z</time>
      </trkpt>
      <trkpt lat="48.05963" lon="7.09157">
        <ele>680.35</ele>
        <time>2021-06-23T10:53:44Z</time>
      </trkpt>
      <trkpt lat="48.05956" lon="7.09123">
        <ele>680.94</ele>
        <time>2021-06-23T10:53:45Z</time>
      </trkpt>
      <trkpt lat="48.05955" lon="7.09099">
        <ele>680.28</ele>
        <time>2021-06-23T10:53:47Z</time>
      </trkpt>
      <trkpt lat="48.05957" lon="7.09069">
        <ele>680.64</ele>
        <time>2021-06-23T10:53:48Z</time>
      </trkpt>
      <trkpt lat="48.05962" lon="7.09052">
        <ele>682.14</ele>
        <time>2021-06-23T10:53:50Z</time>
      </trkpt>
      <trkpt lat="48.05969" lon="7.09035">
        <ele>684.2</ele>
        <time>2021-06-23T10:53:51Z</time>
      </trkpt>
      <trkpt lat="48.0602" lon="7.08941">
        <ele>693.1</ele>
        <time>2021-06-23T10:53:53Z</time>
      </trkpt>
      <trkpt lat="48.06044" lon="7.0888">
        <ele>696.22</ele>
        <time>2021-06-23T10:53:55Z</time>
      </trkpt>
      <trkpt lat="48.06058" lon="7.08829">
        <ele>700.27</ele>
        <time>2021-06-23T10:53:56Z</time>
      </trkpt>
      <trkpt lat="48.06063" lon="7.08778">
        <ele>700.7</ele>
        <time>2021-06-23T10:53:58Z</time>
      </trkpt>
      <trkpt lat="48.06062" lon="7.08699">
        <ele>701.19</ele>
        <time>2021-06-23T10:53:59Z</time>
      </trkpt>
      <trkpt lat="48.06063" lon="7.08671">
        <ele>702.22</ele>
        <time>2021-06-23T10:54:01Z</time>
      </trkpt>
      <trkpt lat="48.06082" lon="7.08502">
        <ele>706.77</ele>
        <time>2021-06-23T10:54:02Z</time>
      </trkpt>
      <trkpt lat="48.06091" lon="7.08456">
        <ele>706.92</ele>
        <time>2021-06-23T10:54:04Z</time>
      </trkpt>
      <trkpt lat="48.06121" lon="7.0836">
        <ele>709.56</ele>
        <time>2021-06-23T10:54:06Z</time>
      </trkpt>
      <trkpt lat="48.06129" lon="7.08329">
        <ele>711.06</ele>
        <time>2021-06-23T10:54:07Z</time>
      </trkpt>
      <trkpt lat="48.06143" lon="7.08235">
        <ele>711.95</ele>
        <time>2021-06-23T10:54:09Z</time>
      </trkpt>
      <trkpt lat="48.06147" lon="7.08216">
        <ele>711.97</ele>
        <time>2021-06-23T10:54:10Z</time>
      </trkpt>
      <trkpt lat="48.06156" lon="7.082">
        <ele>712.09</ele>
        <time>2021-06-23T10:54:12Z</time>
      </trkpt>
      <trkpt lat="48.0617" lon="7.08184">
        <ele>713.94</ele>
        <time>2021-06-23T10:54:14Z</time>
      </trkpt>
      <trkpt lat="48.06185" lon="7.08171">
        <ele>716.48</ele>
        <time>2021-06-23T10:54:15Z</time>
      </trkpt>
      <trkpt lat="48.06218" lon="7.08151">
        <ele>720.68</ele>
        <time>2021-06-23T10:54:17Z</time>
      </trkpt>
      <trkpt lat="48.06233" lon="7.08145">
        <ele>721.79</ele>
        <time>2021-06-23T10:54:18Z</time>
      </trkpt>
      <trkpt lat="48.06246" lon="7.08143">
        <ele>723.22</ele>
        <time>2021-06-23T10:54:20Z</time>
      </trkpt>
      <trkpt lat="48.06295" lon="7.0815">
        <ele>731.12</ele>
        <time>2021-06-23T10:54:21Z</time>
      </trkpt>
      <trkpt lat="48.06313" lon="7.08146">
        <ele>733.16</ele>
        <time>2021-06-23T10:54:23Z</time>
      </trkpt>
      <trkpt lat="48.06323" lon="7.0814">
        <ele>733.91</ele>
        <time>2021-06-23T10:54:25Z</time>
      </trkpt>
      <trkpt lat="48.06336" lon="7.08127">
        <ele>735.11</ele>
        <time>2021-06-23T10:54:26Z</time>
      </trkpt>
      <trkpt lat="48.06345" lon="7.08114">
        <ele>736.34</ele>
        <time>2021-06-23T10:54:28Z</time>
      </trkpt>
      <trkpt lat="48.06352" lon="7.08094">
        <ele>737.47</ele>
        <time>2021-06-23T10:54:29Z</time>
      </trkpt>
      <trkpt lat="48.06357" lon="7.08073">
        <ele>737.39</ele>
        <time>2021-06-23T10:54:31Z</time>
      </trkpt>
      <trkpt lat="48.06357" lon="7.08058">
        <ele>736.28</ele>
        <time>2021-06-23T10:54:32Z</time>
      </trkpt>
      <trkpt lat="48.06353" lon="7.08011">
        <ele>732.49</ele>
        <time>2021-06-23T10:54:34Z</time>
      </trkpt>
      <trkpt lat="48.06355" lon="7.07989">
        <ele>732.59</ele>
        <time>2021-06-23T10:54:36Z</time>
      </trkpt>
      <trkpt lat="48.06363" lon="7.07949">
        <ele>735.65</ele>
        <time>2021-06-23T10:54:37Z</time>
      </trkpt>
      <trkpt lat="48.06382" lon="7.07873">
        <ele>739.03</ele>
        <time>2021-06-23T10:54:39Z</time>
      </trkpt>
      <trkpt lat="48.06399" lon="7.0781">
        <ele>740.35</ele>
        <time>2021-06-23T10:54:40Z</time>
      </trkpt>
      <trkpt lat="48.06399" lon="7.0781">
        <ele>740.35</ele>
        <time>2021-06-23T10:54:40Z</time>
      </trkpt>
      <trkpt lat="48.06401" lon="7.07805">
        <ele>741.66</ele>
        <time>2021-06-23T10:54:42Z</time>
      </trkpt>
      <trkpt lat="48.06416" lon="7.07776">
        <ele>742.19</ele>
        <time>2021-06-23T10:54:44Z</time>
      </trkpt>
      <trkpt lat="48.06428" lon="7.07763">
        <ele>741.31</ele>
        <time>2021-06-23T10:54:46Z</time>
      </trkpt>
      <trkpt lat="48.06445" lon="7.0775">
        <ele>741.05</ele>
        <time>2021-06-23T10:54:48Z</time>
      </trkpt>
      <trkpt lat="48.06467" lon="7.0774">
        <ele>740.03</ele>
        <time>2021-06-23T10:54:50Z</time>
      </trkpt>
      <trkpt lat="48.06581" lon="7.07708">
        <ele>754.44</ele>
        <time>2021-06-23T10:54:51Z</time>
      </trkpt>
      <trkpt lat="48.06645" lon="7.07675">
        <ele>758.39</ele>
        <time>2021-06-23T10:54:53Z</time>
      </trkpt>
      <trkpt lat="48.0666" lon="7.07664">
        <ele>758.57</ele>
        <time>2021-06-23T10:54:55Z</time>
      </trkpt>
      <trkpt lat="48.06675" lon="7.07649">
        <ele>759.21</ele>
        <time>2021-06-23T10:54:57Z</time>
      </trkpt>
      <trkpt lat="48.06717" lon="7.07591">
        <ele>763.65</ele>
        <time>2021-06-23T10:54:59Z</time>
      </trkpt>
      <trkpt lat="48.06722" lon="7.07602">
        <ele>767.29</ele>
        <time>2021-06-23T10:55:00Z</time>
      </trkpt>
      <trkpt lat="48.06722" lon="7.07608">
        <ele>768.28</ele>
        <time>2021-06-23T10:55:00Z</time>
      </trkpt>
      <trkpt lat="48.06722" lon="7.07608">
        <ele>768.28</ele>
        <time>2021-06-23T10:55:00Z</time>
      </trkpt>
      <trkpt lat="48.06721" lon="7.07617">
        <ele>769.26</ele>
        <time>2021-06-23T10:55:04Z</time>
      </trkpt>
      <trkpt lat="48.06701" lon="7.07644">
        <ele>766.08</ele>
        <time>2021-06-23T10:55:07Z</time>
      </trkpt>
      <trkpt lat="48.0666" lon="7.07715">
        <ele>768.92</ele>
        <time>2021-06-23T10:55:11Z</time>
      </trkpt>
      <trkpt lat="48.06647" lon="7.0773">
        <ele>769.61</ele>
        <time>2021-06-23T10:55:14Z</time>
      </trkpt>
      <trkpt lat="48.06616" lon="7.07758">
        <ele>770.87</ele>
        <time>2021-06-23T10:55:17Z</time>
      </trkpt>
      <trkpt lat="48.06499" lon="7.07849">
        <ele>776.52</ele>
        <time>2021-06-23T10:55:21Z</time>
      </trkpt>
      <trkpt lat="48.06489" lon="7.07865">
        <ele>777.53</ele>
        <time>2021-06-23T10:55:24Z</time>
      </trkpt>
      <trkpt lat="48.06477" lon="7.07892">
        <ele>778.98</ele>
        <time>2021-06-23T10:55:28Z</time>
      </trkpt>
      <trkpt lat="48.06468" lon="7.0792">
        <ele>778.59</ele>
        <time>2021-06-23T10:55:31Z</time>
      </trkpt>
      <trkpt lat="48.06463" lon="7.07946">
        <ele>778.63</ele>
        <time>2021-06-23T10:55:35Z</time>
      </trkpt>
      <trkpt lat="48.06462" lon="7.07986">
        <ele>780.94</ele>
        <time>2021-06-23T10:55:38Z</time>
      </trkpt>
      <trkpt lat="48.06465" lon="7.08033">
        <ele>784.78</ele>
        <time>2021-06-23T10:55:41Z</time>
      </trkpt>
      <trkpt lat="48.06483" lon="7.08173">
        <ele>797.12</ele>
        <time>2021-06-23T10:55:45Z</time>
      </trkpt>
      <trkpt lat="48.06483" lon="7.08218">
        <ele>800.18</ele>
        <time>2021-06-23T10:55:48Z</time>
      </trkpt>
      <trkpt lat="48.0648" lon="7.08244">
        <ele>801.3</ele>
        <time>2021-06-23T10:55:52Z</time>
      </trkpt>
      <trkpt lat="48.06475" lon="7.08264">
        <ele>801.04</ele>
        <time>2021-06-23T10:55:55Z</time>
      </trkpt>
      <trkpt lat="48.06438" lon="7.08377">
        <ele>803.71</ele>
        <time>2021-06-23T10:55:59Z</time>
      </trkpt>
      <trkpt lat="48.06435" lon="7.08401">
        <ele>805.27</ele>
        <time>2021-06-23T10:56:02Z</time>
      </trkpt>
      <trkpt lat="48.06436" lon="7.08437">
        <ele>807.84</ele>
        <time>2021-06-23T10:56:05Z</time>
      </trkpt>
      <trkpt lat="48.06441" lon="7.08473">
        <ele>809.21</ele>
        <time>2021-06-23T10:56:09Z</time>
      </trkpt>
      <trkpt lat="48.06446" lon="7.08496">
        <ele>809.44</ele>
        <time>2021-06-23T10:56:12Z</time>
      </trkpt>
      <trkpt lat="48.06451" lon="7.0851">
        <ele>809.85</ele>
        <time>2021-06-23T10:56:16Z</time>
      </trkpt>
      <trkpt lat="48.06472" lon="7.08551">
        <ele>809.51</ele>
        <time>2021-06-23T10:56:19Z</time>
      </trkpt>
      <trkpt lat="48.06483" lon="7.08579">
        <ele>807.26</ele>
        <time>2021-06-23T10:56:23Z</time>
      </trkpt>
      <trkpt lat="48.06489" lon="7.08589">
        <ele>806.52</ele>
        <time>2021-06-23T10:56:26Z</time>
      </trkpt>
      <trkpt lat="48.06493" lon="7.08591">
        <ele>806.76</ele>
        <time>2021-06-23T10:56:29Z</time>
      </trkpt>
      <trkpt lat="48.06501" lon="7.08592">
        <ele>807.99</ele>
        <time>2021-06-23T10:56:33Z</time>
      </trkpt>
      <trkpt lat="48.06507" lon="7.08589">
        <ele>809.55</ele>
        <time>2021-06-23T10:56:36Z</time>
      </trkpt>
      <trkpt lat="48.06508" lon="7.08584">
        <ele>810.53</ele>
        <time>2021-06-23T10:56:37Z</time>
      </trkpt>
      <trkpt lat="48.06508" lon="7.08584">
        <ele>810.53</ele>
        <time>2021-06-23T10:56:37Z</time>
      </trkpt>
      <trkpt lat="48.06509" lon="7.08579">
        <ele>811.51</ele>
        <time>2021-06-23T10:56:42Z</time>
      </trkpt>
      <trkpt lat="48.06505" lon="7.08518">
        <ele>819.85</ele>
        <time>2021-06-23T10:56:47Z</time>
      </trkpt>
      <trkpt lat="48.06508" lon="7.0849">
        <ele>821.77</ele>
        <time>2021-06-23T10:56:51Z</time>
      </trkpt>
      <trkpt lat="48.06554" lon="7.0834">
        <ele>829.95</ele>
        <time>2021-06-23T10:56:56Z</time>
      </trkpt>
      <trkpt lat="48.06573" lon="7.08267">
        <ele>833.48</ele>
        <time>2021-06-23T10:57:01Z</time>
      </trkpt>
      <trkpt lat="48.06581" lon="7.08222">
        <ele>834.35</ele>
        <time>2021-06-23T10:57:06Z</time>
      </trkpt>
      <trkpt lat="48.06588" lon="7.08161">
        <ele>833.64</ele>
        <time>2021-06-23T10:57:11Z</time>
      </trkpt>
      <trkpt lat="48.06598" lon="7.08105">
        <ele>835.25</ele>
        <time>2021-06-23T10:57:16Z</time>
      </trkpt>
      <trkpt lat="48.06609" lon="7.08081">
        <ele>835.55</ele>
        <time>2021-06-23T10:57:21Z</time>
      </trkpt>
      <trkpt lat="48.0662" lon="7.08064">
        <ele>836.27</ele>
        <time>2021-06-23T10:57:26Z</time>
      </trkpt>
      <trkpt lat="48.06634" lon="7.0805">
        <ele>837.6</ele>
        <time>2021-06-23T10:57:31Z</time>
      </trkpt>
      <trkpt lat="48.06651" lon="7.08037">
        <ele>840.39</ele>
        <time>2021-06-23T10:57:36Z</time>
      </trkpt>
      <trkpt lat="48.06741" lon="7.07987">
        <ele>847.86</ele>
        <time>2021-06-23T10:57:41Z</time>
      </trkpt>
      <trkpt lat="48.06833" lon="7.07931">
        <ele>860.01</ele>
        <time>2021-06-23T10:57:46Z</time>
      </trkpt>
      <trkpt lat="48.0693" lon="7.07886">
        <ele>870.2</ele>
        <time>2021-06-23T10:57:50Z</time>
      </trkpt>
      <trkpt lat="48.06966" lon="7.07876">
        <ele>871.97</ele>
        <time>2021-06-23T10:57:55Z</time>
      </trkpt>
      <trkpt lat="48.07003" lon="7.07876">
        <ele>875.29</ele>
        <time>2021-06-23T10:58:00Z</time>
      </trkpt>
      <trkpt lat="48.07037" lon="7.0789">
        <ele>879.64</ele>
        <time>2021-06-23T10:58:05Z</time>
      </trkpt>
      <trkpt lat="48.07147" lon="7.07924">
        <ele>885.46</ele>
        <time>2021-06-23T10:58:10Z</time>
      </trkpt>
      <trkpt lat="48.07177" lon="7.07923">
        <ele>889.56</ele>
        <time>2021-06-23T10:58:15Z</time>
      </trkpt>
      <trkpt lat="48.0725" lon="7.07909">
        <ele>894.62</ele>
        <time>2021-06-23T10:58:20Z</time>
      </trkpt>
      <trkpt lat="48.07294" lon="7.07883">
        <ele>902.05</ele>
        <time>2021-06-23T10:58:25Z</time>
      </trkpt>
      <trkpt lat="48.07329" lon="7.07848">
        <ele>903.83</ele>
        <time>2021-06-23T10:58:30Z</time>
      </trkpt>
      <trkpt lat="48.07353" lon="7.07816">
        <ele>904.07</ele>
        <time>2021-06-23T10:58:35Z</time>
      </trkpt>
      <trkpt lat="48.07372" lon="7.07767">
        <ele>905.13</ele>
        <time>2021-06-23T10:58:40Z</time>
      </trkpt>
      <trkpt lat="48.07382" lon="7.07725">
        <ele>908.08</ele>
        <time>2021-06-23T10:58:45Z</time>
      </trkpt>
      <trkpt lat="48.0739" lon="7.07684">
        <ele>909.98</ele>
        <time>2021-06-23T10:58:50Z</time>
      </trkpt>
      <trkpt lat="48.07386" lon="7.07647">
        <ele>910.97</ele>
        <time>2021-06-23T10:58:54Z</time>
      </trkpt>
      <trkpt lat="48.07378" lon="7.07612">
        <ele>912.07</ele>
        <time>2021-06-23T10:58:59Z</time>
      </trkpt>
      <trkpt lat="48.07345" lon="7.07498">
        <ele>913.36</ele>
        <time>2021-06-23T10:59:04Z</time>
      </trkpt>
      <trkpt lat="48.07338" lon="7.07483">
        <ele>914.6</ele>
        <time>2021-06-23T10:59:09Z</time>
      </trkpt>
      <trkpt lat="48.07337" lon="7.07473">
        <ele>916.15</ele>
        <time>2021-06-23T10:59:14Z</time>
      </trkpt>
      <trkpt lat="48.0734" lon="7.07466">
        <ele>919.55</ele>
        <time>2021-06-23T10:59:19Z</time>
      </trkpt>
      <trkpt lat="48.07347" lon="7.07464">
        <ele>923.18</ele>
        <time>2021-06-23T10:59:20Z</time>
      </trkpt>
      <trkpt lat="48.07353" lon="7.07468">
        <ele>924.15</ele>
        <time>2021-06-23T10:59:21Z</time>
      </trkpt>
      <trkpt lat="48.07359" lon="7.07477">
        <ele>923.98</ele>
        <time>2021-06-23T10:59:22Z</time>
      </trkpt>
      <trkpt lat="48.07359" lon="7.07477">
        <ele>923.98</ele>
        <time>2021-06-23T10:59:22Z</time>
      </trkpt>
      <trkpt lat="48.07375" lon="7.07511">
        <ele>921.98</ele>
        <time>2021-06-23T10:59:26Z</time>
      </trkpt>
      <trkpt lat="48.07414" lon="7.0757">
        <ele>926.63</ele>
        <time>2021-06-23T10:59:31Z</time>
      </trkpt>
      <trkpt lat="48.07466" lon="7.07641">
        <ele>935.84</ele>
        <time>2021-06-23T10:59:36Z</time>
      </trkpt>
      <trkpt lat="48.07513" lon="7.07698">
        <ele>941.51</ele>
        <time>2021-06-23T10:59:41Z</time>
      </trkpt>
      <trkpt lat="48.07546" lon="7.07758">
        <ele>941.82</ele>
        <time>2021-06-23T10:59:45Z</time>
      </trkpt>
      <trkpt lat="48.07551" lon="7.07761">
        <ele>941.68</ele>
        <time>2021-06-23T10:59:50Z</time>
      </trkpt>
      <trkpt lat="48.07568" lon="7.07763">
        <ele>941.39</ele>
        <time>2021-06-23T10:59:55Z</time>
      </trkpt>
      <trkpt lat="48.07568" lon="7.07741">
        <ele>943.99</ele>
        <time>2021-06-23T10:59:59Z</time>
      </trkpt>
      <trkpt lat="48.07568" lon="7.07741">
        <ele>943.99</ele>
        <time>2021-06-23T10:59:59Z</time>
      </trkpt>
      <trkpt lat="48.07568" lon="7.07763">
        <ele>941.39</ele>
        <time>2021-06-23T11:00:04Z</time>
      </trkpt>
      <trkpt lat="48.07559" lon="7.07762">
        <ele>941.51</ele>
        <time>2021-06-23T11:00:05Z</time>
      </trkpt>
      <trkpt lat="48.07557" lon="7.07745">
        <ele>942.82</ele>
        <time>2021-06-23T11:00:12Z</time>
      </trkpt>
      <trkpt lat="48.0752" lon="7.0765">
        <ele>948.3</ele>
        <time>2021-06-23T11:00:19Z</time>
      </trkpt>
      <trkpt lat="48.07503" lon="7.07613">
        <ele>951.33</ele>
        <time>2021-06-23T11:00:26Z</time>
      </trkpt>
      <trkpt lat="48.07469" lon="7.07506">
        <ele>957.68</ele>
        <time>2021-06-23T11:00:32Z</time>
      </trkpt>
      <trkpt lat="48.07452" lon="7.07468">
        <ele>960.22</ele>
        <time>2021-06-23T11:00:39Z</time>
      </trkpt>
      <trkpt lat="48.07434" lon="7.07415">
        <ele>966.4</ele>
        <time>2021-06-23T11:00:46Z</time>
      </trkpt>
      <trkpt lat="48.07421" lon="7.07403">
        <ele>966.25</ele>
        <time>2021-06-23T11:00:53Z</time>
      </trkpt>
      <trkpt lat="48.07404" lon="7.07382">
        <ele>967.45</ele>
        <time>2021-06-23T11:01:00Z</time>
      </trkpt>
      <trkpt lat="48.07315" lon="7.07225">
        <ele>980.24</ele>
        <time>2021-06-23T11:01:07Z</time>
      </trkpt>
      <trkpt lat="48.07289" lon="7.07177">
        <ele>982.08</ele>
        <time>2021-06-23T11:01:14Z</time>
      </trkpt>
      <trkpt lat="48.07265" lon="7.07113">
        <ele>986.96</ele>
        <time>2021-06-23T11:01:21Z</time>
      </trkpt>
      <trkpt lat="48.07251" lon="7.07061">
        <ele>990.69</ele>
        <time>2021-06-23T11:01:28Z</time>
      </trkpt>
      <trkpt lat="48.07248" lon="7.07026">
        <ele>991.6</ele>
        <time>2021-06-23T11:01:34Z</time>
      </trkpt>
      <trkpt lat="48.07251" lon="7.06996">
        <ele>993.6</ele>
        <time>2021-06-23T11:01:41Z</time>
      </trkpt>
      <trkpt lat="48.07257" lon="7.06949">
        <ele>1001.1</ele>
        <time>2021-06-23T11:01:48Z</time>
      </trkpt>
      <trkpt lat="48.07267" lon="7.06909">
        <ele>1005.51</ele>
        <time>2021-06-23T11:01:55Z</time>
      </trkpt>
      <trkpt lat="48.07273" lon="7.06867">
        <ele>1006.69</ele>
        <time>2021-06-23T11:02:02Z</time>
      </trkpt>
      <trkpt lat="48.07276" lon="7.06819">
        <ele>1007.37</ele>
        <time>2021-06-23T11:02:09Z</time>
      </trkpt>
      <trkpt lat="48.07284" lon="7.06765">
        <ele>1011.9</ele>
        <time>2021-06-23T11:02:16Z</time>
      </trkpt>
      <trkpt lat="48.07286" lon="7.06739">
        <ele>1013.97</ele>
        <time>2021-06-23T11:02:23Z</time>
      </trkpt>
      <trkpt lat="48.07285" lon="7.06668">
        <ele>1016.98</ele>
        <time>2021-06-23T11:02:29Z</time>
      </trkpt>
      <trkpt lat="48.07286" lon="7.06628">
        <ele>1018.97</ele>
        <time>2021-06-23T11:02:36Z</time>
      </trkpt>
      <trkpt lat="48.07286" lon="7.06603">
        <ele>1021.21</ele>
        <time>2021-06-23T11:02:43Z</time>
      </trkpt>
      <trkpt lat="48.07282" lon="7.06562">
        <ele>1023.19</ele>
        <time>2021-06-23T11:02:50Z</time>
      </trkpt>
      <trkpt lat="48.07283" lon="7.06535">
        <ele>1025.81</ele>
        <time>2021-06-23T11:02:57Z</time>
      </trkpt>
      <trkpt lat="48.07291" lon="7.0647">
        <ele>1030.76</ele>
        <time>2021-06-23T11:03:04Z</time>
      </trkpt>
      <trkpt lat="48.07291" lon="7.0647">
        <ele>1030.76</ele>
        <time>2021-06-23T11:03:04Z</time>
      </trkpt>
      <trkpt lat="48.07287" lon="7.06417">
        <ele>1029.58</ele>
        <time>2021-06-23T11:03:12Z</time>
      </trkpt>
      <trkpt lat="48.0729" lon="7.06366">
        <ele>1031.09</ele>
        <time>2021-06-23T11:03:19Z</time>
      </trkpt>
      <trkpt lat="48.07297" lon="7.06331">
        <ele>1033.01</ele>
        <time>2021-06-23T11:03:27Z</time>
      </trkpt>
      <trkpt lat="48.07303" lon="7.06314">
        <ele>1033.06</ele>
        <time>2021-06-23T11:03:35Z</time>
      </trkpt>
      <trkpt lat="48.07323" lon="7.06278">
        <ele>1034.56</ele>
        <time>2021-06-23T11:03:43Z</time>
      </trkpt>
      <trkpt lat="48.07428" lon="7.06122">
        <ele>1044.98</ele>
        <time>2021-06-23T11:03:50Z</time>
      </trkpt>
      <trkpt lat="48.07512" lon="7.05987">
        <ele>1049.57</ele>
        <time>2021-06-23T11:03:58Z</time>
      </trkpt>
      <trkpt lat="48.07565" lon="7.05862">
        <ele>1041.88</ele>
        <time>2021-06-23T11:04:06Z</time>
      </trkpt>
      <trkpt lat="48.07572" lon="7.05857">
        <ele>1043.04</ele>
        <time>2021-06-23T11:04:13Z</time>
      </trkpt>
      <trkpt lat="48.07578" lon="7.05858">
        <ele>1044.8</ele>
        <time>2021-06-23T11:04:21Z</time>
      </trkpt>
      <trkpt lat="48.07581" lon="7.05862">
        <ele>1046.45</ele>
        <time>2021-06-23T11:04:29Z</time>
      </trkpt>
      <trkpt lat="48.07583" lon="7.05869">
        <ele>1048.08</ele>
        <time>2021-06-23T11:04:37Z</time>
      </trkpt>
      <trkpt lat="48.07581" lon="7.05879">
        <ele>1048.81</ele>
        <time>2021-06-23T11:04:44Z</time>
      </trkpt>
      <trkpt lat="48.0757" lon="7.05894">
        <ele>1048.48</ele>
        <time>2021-06-23T11:04:52Z</time>
      </trkpt>
      <trkpt lat="48.07563" lon="7.05939">
        <ele>1052.46</ele>
        <time>2021-06-23T11:05:00Z</time>
      </trkpt>
      <trkpt lat="48.07551" lon="7.06058">
        <ele>1062.71</ele>
        <time>2021-06-23T11:05:07Z</time>
      </trkpt>
      <trkpt lat="48.07545" lon="7.06095">
        <ele>1066.73</ele>
        <time>2021-06-23T11:05:15Z</time>
      </trkpt>
      <trkpt lat="48.07549" lon="7.06182">
        <ele>1075.66</ele>
        <time>2021-06-23T11:05:23Z</time>
      </trkpt>
      <trkpt lat="48.07548" lon="7.06197">
        <ele>1076.38</ele>
        <time>2021-06-23T11:05:31Z</time>
      </trkpt>
      <trkpt lat="48.07541" lon="7.06228">
        <ele>1075.52</ele>
        <time>2021-06-23T11:05:38Z</time>
      </trkpt>
      <trkpt lat="48.07524" lon="7.06271">
        <ele>1074.19</ele>
        <time>2021-06-23T11:05:46Z</time>
      </trkpt>
      <trkpt lat="48.07523" lon="7.06278">
        <ele>1074.39</ele>
        <time>2021-06-23T11:05:54Z</time>
      </trkpt>
      <trkpt lat="48.07526" lon="7.06281">
        <ele>1074.99</ele>
        <time>2021-06-23T11:06:01Z</time>
      </trkpt>
      <trkpt lat="48.07531" lon="7.0628">
        <ele>1075.74</ele>
        <time>2021-06-23T11:06:09Z</time>
      </trkpt>
      <trkpt lat="48.07631" lon="7.06162">
        <ele>1087.11</ele>
        <time>2021-06-23T11:06:17Z</time>
      </trkpt>
      <trkpt lat="48.07747" lon="7.06065">
        <ele>1094.17</ele>
        <time>2021-06-23T11:06:25Z</time>
      </trkpt>
    </trkseg>
  </trk>
  <trk>
    <name><![CDATA[2021-06-18-Schantzwasen,Xonrupt-Longemer]]></name>
    <extensions>
      <line xmlns="http://www.topografix.com/GPX/gpx_style/0/2">
        <color>00FFFF</color>
        <width>4</width>
      </line>
    </extensions>
    <trkseg>
      <trkpt lat="48.07818" lon="7.05984">
        <ele>1107.99</ele>
        <time>2021-06-23T09:24:42Z</time>
      </trkpt>
      <trkpt lat="48.07818" lon="7.05984">
        <ele>1107.99</ele>
        <time>2021-06-23T09:24:42Z</time>
      </trkpt>
      <trkpt lat="48.07772" lon="7.0604">
        <ele>1102.91</ele>
        <time>2021-06-23T09:24:55Z</time>
      </trkpt>
      <trkpt lat="48.07752" lon="7.06061">
        <ele>1101.23</ele>
        <time>2021-06-23T09:25:08Z</time>
      </trkpt>
      <trkpt lat="48.07631" lon="7.06162">
        <ele>1087.11</ele>
        <time>2021-06-23T09:25:21Z</time>
      </trkpt>
      <trkpt lat="48.07531" lon="7.0628">
        <ele>1075.74</ele>
        <time>2021-06-23T09:25:34Z</time>
      </trkpt>
      <trkpt lat="48.07526" lon="7.06281">
        <ele>1074.99</ele>
        <time>2021-06-23T09:25:47Z</time>
      </trkpt>
      <trkpt lat="48.07526" lon="7.06281">
        <ele>1074.83</ele>
        <time>2021-06-23T09:25:47Z</time>
      </trkpt>
      <trkpt lat="48.07526" lon="7.06281">
        <ele>1074.83</ele>
        <time>2021-06-23T09:25:47Z</time>
      </trkpt>
      <trkpt lat="48.07526" lon="7.06281">
        <ele>1074.99</ele>
        <time>2021-06-23T09:25:47Z</time>
      </trkpt>
      <trkpt lat="48.07523" lon="7.06278">
        <ele>1074.39</ele>
        <time>2021-06-23T09:25:51Z</time>
      </trkpt>
      <trkpt lat="48.07524" lon="7.06271">
        <ele>1074.19</ele>
        <time>2021-06-23T09:25:55Z</time>
      </trkpt>
      <trkpt lat="48.07541" lon="7.06228">
        <ele>1075.52</ele>
        <time>2021-06-23T09:25:59Z</time>
      </trkpt>
      <trkpt lat="48.07548" lon="7.06197">
        <ele>1076.38</ele>
        <time>2021-06-23T09:26:03Z</time>
      </trkpt>
      <trkpt lat="48.07549" lon="7.06182">
        <ele>1075.66</ele>
        <time>2021-06-23T09:26:07Z</time>
      </trkpt>
      <trkpt lat="48.07545" lon="7.06095">
        <ele>1066.73</ele>
        <time>2021-06-23T09:26:10Z</time>
      </trkpt>
      <trkpt lat="48.07551" lon="7.06058">
        <ele>1062.71</ele>
        <time>2021-06-23T09:26:14Z</time>
      </trkpt>
      <trkpt lat="48.07563" lon="7.05939">
        <ele>1052.46</ele>
        <time>2021-06-23T09:26:18Z</time>
      </trkpt>
      <trkpt lat="48.0757" lon="7.05894">
        <ele>1048.48</ele>
        <time>2021-06-23T09:26:22Z</time>
      </trkpt>
      <trkpt lat="48.07581" lon="7.05879">
        <ele>1048.81</ele>
        <time>2021-06-23T09:26:26Z</time>
      </trkpt>
      <trkpt lat="48.07583" lon="7.05869">
        <ele>1048.08</ele>
        <time>2021-06-23T09:26:30Z</time>
      </trkpt>
      <trkpt lat="48.07581" lon="7.05862">
        <ele>1046.45</ele>
        <time>2021-06-23T09:26:34Z</time>
      </trkpt>
      <trkpt lat="48.07578" lon="7.05858">
        <ele>1044.8</ele>
        <time>2021-06-23T09:26:38Z</time>
      </trkpt>
      <trkpt lat="48.07572" lon="7.05857">
        <ele>1043.04</ele>
        <time>2021-06-23T09:26:41Z</time>
      </trkpt>
      <trkpt lat="48.07565" lon="7.05862">
        <ele>1042.46</ele>
        <time>2021-06-23T09:26:45Z</time>
      </trkpt>
      <trkpt lat="48.07565" lon="7.05862">
        <ele>1042.46</ele>
        <time>2021-06-23T09:26:45Z</time>
      </trkpt>
      <trkpt lat="48.07512" lon="7.05987">
        <ele>1049.57</ele>
        <time>2021-06-23T09:26:59Z</time>
      </trkpt>
      <trkpt lat="48.07428" lon="7.06122">
        <ele>1044.98</ele>
        <time>2021-06-23T09:27:12Z</time>
      </trkpt>
      <trkpt lat="48.07323" lon="7.06278">
        <ele>1034.56</ele>
        <time>2021-06-23T09:27:26Z</time>
      </trkpt>
      <trkpt lat="48.07303" lon="7.06314">
        <ele>1033.06</ele>
        <time>2021-06-23T09:27:39Z</time>
      </trkpt>
      <trkpt lat="48.07297" lon="7.06331">
        <ele>1033.01</ele>
        <time>2021-06-23T09:27:53Z</time>
      </trkpt>
      <trkpt lat="48.0729" lon="7.06366">
        <ele>1032.05</ele>
        <time>2021-06-23T09:28:06Z</time>
      </trkpt>
      <trkpt lat="48.0729" lon="7.06366">
        <ele>1032.05</ele>
        <time>2021-06-23T09:28:06Z</time>
      </trkpt>
      <trkpt lat="48.07287" lon="7.06417">
        <ele>1029.58</ele>
        <time>2021-06-23T09:28:12Z</time>
      </trkpt>
      <trkpt lat="48.07291" lon="7.06471">
        <ele>1031.94</ele>
        <time>2021-06-23T09:28:17Z</time>
      </trkpt>
      <trkpt lat="48.07283" lon="7.06535">
        <ele>1025.81</ele>
        <time>2021-06-23T09:28:23Z</time>
      </trkpt>
      <trkpt lat="48.07282" lon="7.06562">
        <ele>1023.19</ele>
        <time>2021-06-23T09:28:28Z</time>
      </trkpt>
      <trkpt lat="48.07286" lon="7.06603">
        <ele>1021.21</ele>
        <time>2021-06-23T09:28:34Z</time>
      </trkpt>
      <trkpt lat="48.07286" lon="7.06628">
        <ele>1018.97</ele>
        <time>2021-06-23T09:28:39Z</time>
      </trkpt>
      <trkpt lat="48.07285" lon="7.06668">
        <ele>1016.98</ele>
        <time>2021-06-23T09:28:45Z</time>
      </trkpt>
      <trkpt lat="48.07286" lon="7.06739">
        <ele>1013.97</ele>
        <time>2021-06-23T09:28:50Z</time>
      </trkpt>
      <trkpt lat="48.07284" lon="7.06765">
        <ele>1011.9</ele>
        <time>2021-06-23T09:28:55Z</time>
      </trkpt>
      <trkpt lat="48.07276" lon="7.06819">
        <ele>1007.37</ele>
        <time>2021-06-23T09:29:01Z</time>
      </trkpt>
      <trkpt lat="48.07273" lon="7.06867">
        <ele>1006.69</ele>
        <time>2021-06-23T09:29:06Z</time>
      </trkpt>
      <trkpt lat="48.07267" lon="7.06909">
        <ele>1005.51</ele>
        <time>2021-06-23T09:29:12Z</time>
      </trkpt>
      <trkpt lat="48.07257" lon="7.06949">
        <ele>1001.1</ele>
        <time>2021-06-23T09:29:17Z</time>
      </trkpt>
      <trkpt lat="48.07251" lon="7.06996">
        <ele>993.6</ele>
        <time>2021-06-23T09:29:23Z</time>
      </trkpt>
      <trkpt lat="48.07248" lon="7.07026">
        <ele>991.6</ele>
        <time>2021-06-23T09:29:28Z</time>
      </trkpt>
      <trkpt lat="48.07251" lon="7.07061">
        <ele>988.82</ele>
        <time>2021-06-23T09:29:34Z</time>
      </trkpt>
      <trkpt lat="48.07251" lon="7.07061">
        <ele>988.82</ele>
        <time>2021-06-23T09:29:34Z</time>
      </trkpt>
      <trkpt lat="48.07265" lon="7.07113">
        <ele>986.96</ele>
        <time>2021-06-23T09:29:43Z</time>
      </trkpt>
      <trkpt lat="48.07289" lon="7.07177">
        <ele>982.08</ele>
        <time>2021-06-23T09:29:51Z</time>
      </trkpt>
      <trkpt lat="48.07315" lon="7.07225">
        <ele>980.24</ele>
        <time>2021-06-23T09:30:00Z</time>
      </trkpt>
      <trkpt lat="48.07404" lon="7.07382">
        <ele>967.45</ele>
        <time>2021-06-23T09:30:09Z</time>
      </trkpt>
      <trkpt lat="48.07421" lon="7.07403">
        <ele>966.25</ele>
        <time>2021-06-23T09:30:17Z</time>
      </trkpt>
      <trkpt lat="48.07434" lon="7.07415">
        <ele>966.4</ele>
        <time>2021-06-23T09:30:26Z</time>
      </trkpt>
      <trkpt lat="48.07452" lon="7.07468">
        <ele>960.22</ele>
        <time>2021-06-23T09:30:35Z</time>
      </trkpt>
      <trkpt lat="48.07469" lon="7.07506">
        <ele>957.68</ele>
        <time>2021-06-23T09:30:44Z</time>
      </trkpt>
      <trkpt lat="48.07503" lon="7.07613">
        <ele>951.33</ele>
        <time>2021-06-23T09:30:52Z</time>
      </trkpt>
      <trkpt lat="48.0752" lon="7.0765">
        <ele>948.3</ele>
        <time>2021-06-23T09:31:01Z</time>
      </trkpt>
      <trkpt lat="48.07557" lon="7.07745">
        <ele>942.82</ele>
        <time>2021-06-23T09:31:10Z</time>
      </trkpt>
      <trkpt lat="48.07559" lon="7.07762">
        <ele>941.51</ele>
        <time>2021-06-23T09:31:19Z</time>
      </trkpt>
      <trkpt lat="48.07559" lon="7.07762">
        <ele>941.6</ele>
        <time>2021-06-23T09:31:19Z</time>
      </trkpt>
      <trkpt lat="48.07559" lon="7.07762">
        <ele>941.6</ele>
        <time>2021-06-23T09:31:19Z</time>
      </trkpt>
      <trkpt lat="48.07551" lon="7.07761">
        <ele>941.68</ele>
        <time>2021-06-23T09:31:22Z</time>
      </trkpt>
      <trkpt lat="48.07546" lon="7.07758">
        <ele>941.82</ele>
        <time>2021-06-23T09:31:26Z</time>
      </trkpt>
      <trkpt lat="48.07513" lon="7.07698">
        <ele>941.51</ele>
        <time>2021-06-23T09:31:29Z</time>
      </trkpt>
      <trkpt lat="48.07466" lon="7.07641">
        <ele>935.84</ele>
        <time>2021-06-23T09:31:33Z</time>
      </trkpt>
      <trkpt lat="48.07414" lon="7.0757">
        <ele>926.63</ele>
        <time>2021-06-23T09:31:36Z</time>
      </trkpt>
      <trkpt lat="48.07375" lon="7.07511">
        <ele>921.98</ele>
        <time>2021-06-23T09:31:39Z</time>
      </trkpt>
      <trkpt lat="48.07359" lon="7.07477">
        <ele>923.81</ele>
        <time>2021-06-23T09:31:43Z</time>
      </trkpt>
      <trkpt lat="48.07353" lon="7.07468">
        <ele>924.15</ele>
        <time>2021-06-23T09:31:46Z</time>
      </trkpt>
      <trkpt lat="48.07347" lon="7.07464">
        <ele>923.18</ele>
        <time>2021-06-23T09:31:50Z</time>
      </trkpt>
      <trkpt lat="48.0734" lon="7.07466">
        <ele>919.55</ele>
        <time>2021-06-23T09:31:53Z</time>
      </trkpt>
      <trkpt lat="48.0734" lon="7.07466">
        <ele>917.85</ele>
        <time>2021-06-23T09:31:54Z</time>
      </trkpt>
      <trkpt lat="48.0734" lon="7.07466">
        <ele>917.85</ele>
        <time>2021-06-23T09:31:54Z</time>
      </trkpt>
      <trkpt lat="48.07337" lon="7.07473">
        <ele>916.15</ele>
        <time>2021-06-23T09:31:57Z</time>
      </trkpt>
      <trkpt lat="48.07338" lon="7.07483">
        <ele>914.6</ele>
        <time>2021-06-23T09:32:00Z</time>
      </trkpt>
      <trkpt lat="48.07345" lon="7.07498">
        <ele>913.36</ele>
        <time>2021-06-23T09:32:04Z</time>
      </trkpt>
      <trkpt lat="48.07378" lon="7.07612">
        <ele>912.07</ele>
        <time>2021-06-23T09:32:07Z</time>
      </trkpt>
      <trkpt lat="48.07386" lon="7.07647">
        <ele>910.97</ele>
        <time>2021-06-23T09:32:10Z</time>
      </trkpt>
      <trkpt lat="48.0739" lon="7.07684">
        <ele>909.98</ele>
        <time>2021-06-23T09:32:13Z</time>
      </trkpt>
      <trkpt lat="48.07382" lon="7.07725">
        <ele>908.08</ele>
        <time>2021-06-23T09:32:17Z</time>
      </trkpt>
      <trkpt lat="48.07372" lon="7.07767">
        <ele>905.13</ele>
        <time>2021-06-23T09:32:20Z</time>
      </trkpt>
      <trkpt lat="48.07353" lon="7.07816">
        <ele>904.07</ele>
        <time>2021-06-23T09:32:23Z</time>
      </trkpt>
      <trkpt lat="48.07329" lon="7.07848">
        <ele>903.95</ele>
        <time>2021-06-23T09:32:27Z</time>
      </trkpt>
      <trkpt lat="48.07329" lon="7.07848">
        <ele>903.95</ele>
        <time>2021-06-23T09:32:27Z</time>
      </trkpt>
      <trkpt lat="48.07294" lon="7.07883">
        <ele>902.05</ele>
        <time>2021-06-23T09:32:34Z</time>
      </trkpt>
      <trkpt lat="48.0725" lon="7.07909">
        <ele>894.62</ele>
        <time>2021-06-23T09:32:41Z</time>
      </trkpt>
      <trkpt lat="48.07177" lon="7.07923">
        <ele>889.56</ele>
        <time>2021-06-23T09:32:48Z</time>
      </trkpt>
      <trkpt lat="48.07147" lon="7.07924">
        <ele>885.46</ele>
        <time>2021-06-23T09:32:55Z</time>
      </trkpt>
      <trkpt lat="48.07037" lon="7.0789">
        <ele>879.64</ele>
        <time>2021-06-23T09:33:02Z</time>
      </trkpt>
      <trkpt lat="48.07003" lon="7.07876">
        <ele>875.29</ele>
        <time>2021-06-23T09:33:09Z</time>
      </trkpt>
      <trkpt lat="48.06966" lon="7.07876">
        <ele>871.97</ele>
        <time>2021-06-23T09:33:16Z</time>
      </trkpt>
      <trkpt lat="48.0693" lon="7.07886">
        <ele>870.2</ele>
        <time>2021-06-23T09:33:23Z</time>
      </trkpt>
      <trkpt lat="48.06833" lon="7.07931">
        <ele>860.01</ele>
        <time>2021-06-23T09:33:30Z</time>
      </trkpt>
      <trkpt lat="48.06741" lon="7.07987">
        <ele>847.86</ele>
        <time>2021-06-23T09:33:37Z</time>
      </trkpt>
      <trkpt lat="48.06651" lon="7.08037">
        <ele>840.39</ele>
        <time>2021-06-23T09:33:44Z</time>
      </trkpt>
      <trkpt lat="48.06634" lon="7.0805">
        <ele>838.99</ele>
        <time>2021-06-23T09:33:51Z</time>
      </trkpt>
      <trkpt lat="48.06634" lon="7.0805">
        <ele>838.99</ele>
        <time>2021-06-23T09:33:51Z</time>
      </trkpt>
      <trkpt lat="48.0662" lon="7.08064">
        <ele>836.27</ele>
        <time>2021-06-23T09:33:55Z</time>
      </trkpt>
      <trkpt lat="48.06609" lon="7.08081">
        <ele>835.55</ele>
        <time>2021-06-23T09:33:59Z</time>
      </trkpt>
      <trkpt lat="48.06598" lon="7.08105">
        <ele>835.25</ele>
        <time>2021-06-23T09:34:03Z</time>
      </trkpt>
      <trkpt lat="48.06588" lon="7.08161">
        <ele>833.64</ele>
        <time>2021-06-23T09:34:07Z</time>
      </trkpt>
      <trkpt lat="48.06581" lon="7.08222">
        <ele>834.35</ele>
        <time>2021-06-23T09:34:12Z</time>
      </trkpt>
      <trkpt lat="48.06573" lon="7.08267">
        <ele>833.48</ele>
        <time>2021-06-23T09:34:16Z</time>
      </trkpt>
      <trkpt lat="48.06554" lon="7.0834">
        <ele>829.95</ele>
        <time>2021-06-23T09:34:20Z</time>
      </trkpt>
      <trkpt lat="48.06508" lon="7.0849">
        <ele>821.77</ele>
        <time>2021-06-23T09:34:24Z</time>
      </trkpt>
      <trkpt lat="48.06505" lon="7.08518">
        <ele>819.85</ele>
        <time>2021-06-23T09:34:28Z</time>
      </trkpt>
      <trkpt lat="48.06509" lon="7.08579">
        <ele>811.51</ele>
        <time>2021-06-23T09:34:32Z</time>
      </trkpt>
      <trkpt lat="48.06507" lon="7.08589">
        <ele>809.55</ele>
        <time>2021-06-23T09:34:36Z</time>
      </trkpt>
      <trkpt lat="48.06501" lon="7.08592">
        <ele>807.99</ele>
        <time>2021-06-23T09:34:37Z</time>
      </trkpt>
      <trkpt lat="48.06493" lon="7.08591">
        <ele>806.64</ele>
        <time>2021-06-23T09:34:38Z</time>
      </trkpt>
      <trkpt lat="48.06493" lon="7.08591">
        <ele>806.64</ele>
        <time>2021-06-23T09:34:38Z</time>
      </trkpt>
      <trkpt lat="48.06489" lon="7.08589">
        <ele>806.52</ele>
        <time>2021-06-23T09:34:41Z</time>
      </trkpt>
      <trkpt lat="48.06483" lon="7.08579">
        <ele>807.26</ele>
        <time>2021-06-23T09:34:45Z</time>
      </trkpt>
      <trkpt lat="48.06472" lon="7.08551">
        <ele>809.51</ele>
        <time>2021-06-23T09:34:48Z</time>
      </trkpt>
      <trkpt lat="48.06451" lon="7.0851">
        <ele>809.85</ele>
        <time>2021-06-23T09:34:51Z</time>
      </trkpt>
      <trkpt lat="48.06446" lon="7.08496">
        <ele>809.44</ele>
        <time>2021-06-23T09:34:54Z</time>
      </trkpt>
      <trkpt lat="48.06441" lon="7.08473">
        <ele>809.21</ele>
        <time>2021-06-23T09:34:57Z</time>
      </trkpt>
      <trkpt lat="48.06436" lon="7.08437">
        <ele>807.84</ele>
        <time>2021-06-23T09:35:01Z</time>
      </trkpt>
      <trkpt lat="48.06435" lon="7.08401">
        <ele>805.27</ele>
        <time>2021-06-23T09:35:04Z</time>
      </trkpt>
      <trkpt lat="48.06438" lon="7.08377">
        <ele>803.71</ele>
        <time>2021-06-23T09:35:07Z</time>
      </trkpt>
      <trkpt lat="48.06475" lon="7.08264">
        <ele>801.04</ele>
        <time>2021-06-23T09:35:10Z</time>
      </trkpt>
      <trkpt lat="48.0648" lon="7.08244">
        <ele>801.3</ele>
        <time>2021-06-23T09:35:13Z</time>
      </trkpt>
      <trkpt lat="48.06483" lon="7.08218">
        <ele>800.18</ele>
        <time>2021-06-23T09:35:17Z</time>
      </trkpt>
      <trkpt lat="48.06483" lon="7.08173">
        <ele>797.12</ele>
        <time>2021-06-23T09:35:20Z</time>
      </trkpt>
      <trkpt lat="48.06465" lon="7.08033">
        <ele>784.78</ele>
        <time>2021-06-23T09:35:23Z</time>
      </trkpt>
      <trkpt lat="48.06462" lon="7.07986">
        <ele>780.94</ele>
        <time>2021-06-23T09:35:26Z</time>
      </trkpt>
      <trkpt lat="48.06463" lon="7.07946">
        <ele>778.63</ele>
        <time>2021-06-23T09:35:29Z</time>
      </trkpt>
      <trkpt lat="48.06468" lon="7.0792">
        <ele>778.59</ele>
        <time>2021-06-23T09:35:33Z</time>
      </trkpt>
      <trkpt lat="48.06477" lon="7.07892">
        <ele>778.79</ele>
        <time>2021-06-23T09:35:36Z</time>
      </trkpt>
      <trkpt lat="48.06477" lon="7.07892">
        <ele>778.79</ele>
        <time>2021-06-23T09:35:36Z</time>
      </trkpt>
      <trkpt lat="48.06489" lon="7.07865">
        <ele>777.53</ele>
        <time>2021-06-23T09:35:40Z</time>
      </trkpt>
      <trkpt lat="48.06499" lon="7.07849">
        <ele>776.52</ele>
        <time>2021-06-23T09:35:44Z</time>
      </trkpt>
      <trkpt lat="48.06616" lon="7.07758">
        <ele>770.87</ele>
        <time>2021-06-23T09:35:49Z</time>
      </trkpt>
      <trkpt lat="48.06647" lon="7.0773">
        <ele>769.61</ele>
        <time>2021-06-23T09:35:53Z</time>
      </trkpt>
      <trkpt lat="48.0666" lon="7.07715">
        <ele>768.92</ele>
        <time>2021-06-23T09:35:57Z</time>
      </trkpt>
      <trkpt lat="48.06701" lon="7.07644">
        <ele>766.08</ele>
        <time>2021-06-23T09:36:01Z</time>
      </trkpt>
      <trkpt lat="48.06721" lon="7.07617">
        <ele>769.26</ele>
        <time>2021-06-23T09:36:05Z</time>
      </trkpt>
      <trkpt lat="48.06722" lon="7.07602">
        <ele>767.29</ele>
        <time>2021-06-23T09:36:10Z</time>
      </trkpt>
      <trkpt lat="48.06717" lon="7.07591">
        <ele>763.65</ele>
        <time>2021-06-23T09:36:14Z</time>
      </trkpt>
      <trkpt lat="48.06741" lon="7.07559">
        <ele>765.93</ele>
        <time>2021-06-23T09:36:15Z</time>
      </trkpt>
      <trkpt lat="48.0676" lon="7.07544">
        <ele>766.95</ele>
        <time>2021-06-23T09:36:16Z</time>
      </trkpt>
      <trkpt lat="48.06769" lon="7.0754">
        <ele>767.37</ele>
        <time>2021-06-23T09:36:17Z</time>
      </trkpt>
      <trkpt lat="48.06808" lon="7.07533">
        <ele>770.24</ele>
        <time>2021-06-23T09:36:18Z</time>
      </trkpt>
      <trkpt lat="48.0686" lon="7.07537">
        <ele>775.92</ele>
        <time>2021-06-23T09:36:19Z</time>
      </trkpt>
      <trkpt lat="48.06877" lon="7.07535">
        <ele>776.36</ele>
        <time>2021-06-23T09:36:20Z</time>
      </trkpt>
      <trkpt lat="48.06883" lon="7.0753">
        <ele>775.95</ele>
        <time>2021-06-23T09:36:21Z</time>
      </trkpt>
      <trkpt lat="48.06889" lon="7.07522">
        <ele>774.97</ele>
        <time>2021-06-23T09:36:23Z</time>
      </trkpt>
      <trkpt lat="48.06894" lon="7.07509">
        <ele>773.98</ele>
        <time>2021-06-23T09:36:24Z</time>
      </trkpt>
      <trkpt lat="48.06896" lon="7.07488">
        <ele>776.98</ele>
        <time>2021-06-23T09:36:25Z</time>
      </trkpt>
      <trkpt lat="48.06896" lon="7.07488">
        <ele>776.98</ele>
        <time>2021-06-23T09:36:25Z</time>
      </trkpt>
      <trkpt lat="48.06891" lon="7.07468">
        <ele>778.36</ele>
        <time>2021-06-23T09:36:26Z</time>
      </trkpt>
      <trkpt lat="48.06877" lon="7.0744">
        <ele>781.73</ele>
        <time>2021-06-23T09:36:28Z</time>
      </trkpt>
      <trkpt lat="48.06835" lon="7.07346">
        <ele>783.65</ele>
        <time>2021-06-23T09:36:30Z</time>
      </trkpt>
      <trkpt lat="48.06819" lon="7.07317">
        <ele>786.64</ele>
        <time>2021-06-23T09:36:31Z</time>
      </trkpt>
      <trkpt lat="48.06764" lon="7.07255">
        <ele>785.2</ele>
        <time>2021-06-23T09:36:33Z</time>
      </trkpt>
      <trkpt lat="48.06756" lon="7.07232">
        <ele>784.96</ele>
        <time>2021-06-23T09:36:35Z</time>
      </trkpt>
      <trkpt lat="48.06746" lon="7.07192">
        <ele>785.49</ele>
        <time>2021-06-23T09:36:36Z</time>
      </trkpt>
      <trkpt lat="48.06734" lon="7.07085">
        <ele>795.62</ele>
        <time>2021-06-23T09:36:38Z</time>
      </trkpt>
      <trkpt lat="48.06736" lon="7.07044">
        <ele>799.07</ele>
        <time>2021-06-23T09:36:40Z</time>
      </trkpt>
      <trkpt lat="48.06735" lon="7.07031">
        <ele>800.07</ele>
        <time>2021-06-23T09:36:41Z</time>
      </trkpt>
      <trkpt lat="48.06727" lon="7.07007">
        <ele>801.84</ele>
        <time>2021-06-23T09:36:43Z</time>
      </trkpt>
      <trkpt lat="48.0672" lon="7.06997">
        <ele>802.85</ele>
        <time>2021-06-23T09:36:45Z</time>
      </trkpt>
      <trkpt lat="48.0672" lon="7.06997">
        <ele>802.85</ele>
        <time>2021-06-23T09:36:45Z</time>
      </trkpt>
      <trkpt lat="48.06705" lon="7.06991">
        <ele>803.14</ele>
        <time>2021-06-23T09:36:46Z</time>
      </trkpt>
      <trkpt lat="48.06688" lon="7.06999">
        <ele>802.46</ele>
        <time>2021-06-23T09:36:47Z</time>
      </trkpt>
      <trkpt lat="48.06677" lon="7.0701">
        <ele>802.13</ele>
        <time>2021-06-23T09:36:48Z</time>
      </trkpt>
      <trkpt lat="48.06643" lon="7.07055">
        <ele>797.92</ele>
        <time>2021-06-23T09:36:49Z</time>
      </trkpt>
      <trkpt lat="48.06628" lon="7.07065">
        <ele>797.98</ele>
        <time>2021-06-23T09:36:50Z</time>
      </trkpt>
      <trkpt lat="48.06611" lon="7.07066">
        <ele>799.07</ele>
        <time>2021-06-23T09:36:51Z</time>
      </trkpt>
      <trkpt lat="48.06611" lon="7.07066">
        <ele>799.07</ele>
        <time>2021-06-23T09:36:51Z</time>
      </trkpt>
      <trkpt lat="48.066" lon="7.07062">
        <ele>799.09</ele>
        <time>2021-06-23T09:36:53Z</time>
      </trkpt>
      <trkpt lat="48.06531" lon="7.06993">
        <ele>802.7</ele>
        <time>2021-06-23T09:36:56Z</time>
      </trkpt>
      <trkpt lat="48.0649" lon="7.0694">
        <ele>804.82</ele>
        <time>2021-06-23T09:36:58Z</time>
      </trkpt>
      <trkpt lat="48.06472" lon="7.06913">
        <ele>806.18</ele>
        <time>2021-06-23T09:37:00Z</time>
      </trkpt>
      <trkpt lat="48.06472" lon="7.06913">
        <ele>806.18</ele>
        <time>2021-06-23T09:37:00Z</time>
      </trkpt>
      <trkpt lat="48.06461" lon="7.06884">
        <ele>811.08</ele>
        <time>2021-06-23T09:37:02Z</time>
      </trkpt>
      <trkpt lat="48.06459" lon="7.06868">
        <ele>812.79</ele>
        <time>2021-06-23T09:37:05Z</time>
      </trkpt>
      <trkpt lat="48.06454" lon="7.06788">
        <ele>816.6</ele>
        <time>2021-06-23T09:37:07Z</time>
      </trkpt>
      <trkpt lat="48.06451" lon="7.06761">
        <ele>818.66</ele>
        <time>2021-06-23T09:37:09Z</time>
      </trkpt>
      <trkpt lat="48.06441" lon="7.06718">
        <ele>821.67</ele>
        <time>2021-06-23T09:37:12Z</time>
      </trkpt>
      <trkpt lat="48.06376" lon="7.06518">
        <ele>827.73</ele>
        <time>2021-06-23T09:37:14Z</time>
      </trkpt>
      <trkpt lat="48.0636" lon="7.06474">
        <ele>829.58</ele>
        <time>2021-06-23T09:37:17Z</time>
      </trkpt>
      <trkpt lat="48.06339" lon="7.0634">
        <ele>832.12</ele>
        <time>2021-06-23T09:37:19Z</time>
      </trkpt>
      <trkpt lat="48.06337" lon="7.06292">
        <ele>831.52</ele>
        <time>2021-06-23T09:37:21Z</time>
      </trkpt>
      <trkpt lat="48.06339" lon="7.06269">
        <ele>833.83</ele>
        <time>2021-06-23T09:37:24Z</time>
      </trkpt>
      <trkpt lat="48.06339" lon="7.06269">
        <ele>833.83</ele>
        <time>2021-06-23T09:37:24Z</time>
      </trkpt>
      <trkpt lat="48.06342" lon="7.06251">
        <ele>834.75</ele>
        <time>2021-06-23T09:37:25Z</time>
      </trkpt>
      <trkpt lat="48.06361" lon="7.06168">
        <ele>836.97</ele>
        <time>2021-06-23T09:37:27Z</time>
      </trkpt>
      <trkpt lat="48.06381" lon="7.06101">
        <ele>841.92</ele>
        <time>2021-06-23T09:37:29Z</time>
      </trkpt>
      <trkpt lat="48.06401" lon="7.06061">
        <ele>841.89</ele>
        <time>2021-06-23T09:37:30Z</time>
      </trkpt>
      <trkpt lat="48.06423" lon="7.06027">
        <ele>842.86</ele>
        <time>2021-06-23T09:37:32Z</time>
      </trkpt>
      <trkpt lat="48.06445" lon="7.06003">
        <ele>844.58</ele>
        <time>2021-06-23T09:37:34Z</time>
      </trkpt>
      <trkpt lat="48.06462" lon="7.0599">
        <ele>845.52</ele>
        <time>2021-06-23T09:37:35Z</time>
      </trkpt>
      <trkpt lat="48.06462" lon="7.0599">
        <ele>845.52</ele>
        <time>2021-06-23T09:37:35Z</time>
      </trkpt>
      <trkpt lat="48.06481" lon="7.05986">
        <ele>848.35</ele>
        <time>2021-06-23T09:37:37Z</time>
      </trkpt>
      <trkpt lat="48.06512" lon="7.05994">
        <ele>850.41</ele>
        <time>2021-06-23T09:37:39Z</time>
      </trkpt>
      <trkpt lat="48.06595" lon="7.06023">
        <ele>854.89</ele>
        <time>2021-06-23T09:37:40Z</time>
      </trkpt>
      <trkpt lat="48.06614" lon="7.06028">
        <ele>855.19</ele>
        <time>2021-06-23T09:37:42Z</time>
      </trkpt>
      <trkpt lat="48.06649" lon="7.06032">
        <ele>857.8</ele>
        <time>2021-06-23T09:37:44Z</time>
      </trkpt>
      <trkpt lat="48.06671" lon="7.06029">
        <ele>859.76</ele>
        <time>2021-06-23T09:37:46Z</time>
      </trkpt>
      <trkpt lat="48.06694" lon="7.06021">
        <ele>861.25</ele>
        <time>2021-06-23T09:37:47Z</time>
      </trkpt>
      <trkpt lat="48.0675" lon="7.05991">
        <ele>866.37</ele>
        <time>2021-06-23T09:37:49Z</time>
      </trkpt>
      <trkpt lat="48.06771" lon="7.05977">
        <ele>868.69</ele>
        <time>2021-06-23T09:37:51Z</time>
      </trkpt>
      <trkpt lat="48.06778" lon="7.0597">
        <ele>869.87</ele>
        <time>2021-06-23T09:37:52Z</time>
      </trkpt>
      <trkpt lat="48.06778" lon="7.0597">
        <ele>869.87</ele>
        <time>2021-06-23T09:37:52Z</time>
      </trkpt>
      <trkpt lat="48.06784" lon="7.05952">
        <ele>870.68</ele>
        <time>2021-06-23T09:37:53Z</time>
      </trkpt>
      <trkpt lat="48.06784" lon="7.0594">
        <ele>871.22</ele>
        <time>2021-06-23T09:37:54Z</time>
      </trkpt>
      <trkpt lat="48.06781" lon="7.05928">
        <ele>871.7</ele>
        <time>2021-06-23T09:37:56Z</time>
      </trkpt>
      <trkpt lat="48.06768" lon="7.05913">
        <ele>871.06</ele>
        <time>2021-06-23T09:37:57Z</time>
      </trkpt>
      <trkpt lat="48.06745" lon="7.05894">
        <ele>869.68</ele>
        <time>2021-06-23T09:37:58Z</time>
      </trkpt>
      <trkpt lat="48.06716" lon="7.0586">
        <ele>871.04</ele>
        <time>2021-06-23T09:37:59Z</time>
      </trkpt>
      <trkpt lat="48.06694" lon="7.0582">
        <ele>875.42</ele>
        <time>2021-06-23T09:38:00Z</time>
      </trkpt>
      <trkpt lat="48.06686" lon="7.05784">
        <ele>876.86</ele>
        <time>2021-06-23T09:38:01Z</time>
      </trkpt>
      <trkpt lat="48.06684" lon="7.05749">
        <ele>877.29</ele>
        <time>2021-06-23T09:38:02Z</time>
      </trkpt>
      <trkpt lat="48.06684" lon="7.05749">
        <ele>877.29</ele>
        <time>2021-06-23T09:38:02Z</time>
      </trkpt>
      <trkpt lat="48.0669" lon="7.05714">
        <ele>876.52</ele>
        <time>2021-06-23T09:38:05Z</time>
      </trkpt>
      <trkpt lat="48.06734" lon="7.05567">
        <ele>880.85</ele>
        <time>2021-06-23T09:38:07Z</time>
      </trkpt>
      <trkpt lat="48.06743" lon="7.05548">
        <ele>881.1</ele>
        <time>2021-06-23T09:38:10Z</time>
      </trkpt>
      <trkpt lat="48.06775" lon="7.0549">
        <ele>884.68</ele>
        <time>2021-06-23T09:38:13Z</time>
      </trkpt>
      <trkpt lat="48.06792" lon="7.0547">
        <ele>889.96</ele>
        <time>2021-06-23T09:38:16Z</time>
      </trkpt>
      <trkpt lat="48.06804" lon="7.05449">
        <ele>893.45</ele>
        <time>2021-06-23T09:38:18Z</time>
      </trkpt>
      <trkpt lat="48.06838" lon="7.05365">
        <ele>895.04</ele>
        <time>2021-06-23T09:38:21Z</time>
      </trkpt>
      <trkpt lat="48.06845" lon="7.05327">
        <ele>895.53</ele>
        <time>2021-06-23T09:38:24Z</time>
      </trkpt>
      <trkpt lat="48.06859" lon="7.05163">
        <ele>905.01</ele>
        <time>2021-06-23T09:38:26Z</time>
      </trkpt>
      <trkpt lat="48.06868" lon="7.05102">
        <ele>904.98</ele>
        <time>2021-06-23T09:38:29Z</time>
      </trkpt>
      <trkpt lat="48.06911" lon="7.04887">
        <ele>913.06</ele>
        <time>2021-06-23T09:38:32Z</time>
      </trkpt>
      <trkpt lat="48.06913" lon="7.04848">
        <ele>914.73</ele>
        <time>2021-06-23T09:38:34Z</time>
      </trkpt>
      <trkpt lat="48.06911" lon="7.04818">
        <ele>914.95</ele>
        <time>2021-06-23T09:38:37Z</time>
      </trkpt>
      <trkpt lat="48.06911" lon="7.04818">
        <ele>914.95</ele>
        <time>2021-06-23T09:38:37Z</time>
      </trkpt>
      <trkpt lat="48.06906" lon="7.04789">
        <ele>915</ele>
        <time>2021-06-23T09:38:38Z</time>
      </trkpt>
      <trkpt lat="48.06879" lon="7.04729">
        <ele>911.2</ele>
        <time>2021-06-23T09:38:40Z</time>
      </trkpt>
      <trkpt lat="48.06856" lon="7.04709">
        <ele>910.59</ele>
        <time>2021-06-23T09:38:42Z</time>
      </trkpt>
      <trkpt lat="48.06832" lon="7.04704">
        <ele>915.84</ele>
        <time>2021-06-23T09:38:43Z</time>
      </trkpt>
      <trkpt lat="48.06832" lon="7.04704">
        <ele>915.84</ele>
        <time>2021-06-23T09:38:43Z</time>
      </trkpt>
      <trkpt lat="48.06816" lon="7.04709">
        <ele>918.18</ele>
        <time>2021-06-23T09:38:45Z</time>
      </trkpt>
      <trkpt lat="48.06804" lon="7.04719">
        <ele>922.22</ele>
        <time>2021-06-23T09:38:47Z</time>
      </trkpt>
      <trkpt lat="48.06748" lon="7.04794">
        <ele>927.43</ele>
        <time>2021-06-23T09:38:48Z</time>
      </trkpt>
      <trkpt lat="48.06724" lon="7.04813">
        <ele>926.4</ele>
        <time>2021-06-23T09:38:50Z</time>
      </trkpt>
      <trkpt lat="48.06701" lon="7.0482">
        <ele>926.71</ele>
        <time>2021-06-23T09:38:52Z</time>
      </trkpt>
      <trkpt lat="48.06667" lon="7.04809">
        <ele>926.73</ele>
        <time>2021-06-23T09:38:53Z</time>
      </trkpt>
      <trkpt lat="48.06598" lon="7.04767">
        <ele>935.3</ele>
        <time>2021-06-23T09:38:55Z</time>
      </trkpt>
      <trkpt lat="48.06577" lon="7.04763">
        <ele>937.54</ele>
        <time>2021-06-23T09:38:57Z</time>
      </trkpt>
      <trkpt lat="48.06555" lon="7.04768">
        <ele>940.17</ele>
        <time>2021-06-23T09:38:59Z</time>
      </trkpt>
      <trkpt lat="48.06521" lon="7.04801">
        <ele>943.48</ele>
        <time>2021-06-23T09:39:00Z</time>
      </trkpt>
      <trkpt lat="48.06494" lon="7.04834">
        <ele>943.3</ele>
        <time>2021-06-23T09:39:02Z</time>
      </trkpt>
      <trkpt lat="48.06469" lon="7.04852">
        <ele>943.07</ele>
        <time>2021-06-23T09:39:04Z</time>
      </trkpt>
      <trkpt lat="48.06446" lon="7.04857">
        <ele>944.16</ele>
        <time>2021-06-23T09:39:05Z</time>
      </trkpt>
      <trkpt lat="48.06446" lon="7.04857">
        <ele>944.16</ele>
        <time>2021-06-23T09:39:05Z</time>
      </trkpt>
      <trkpt lat="48.06423" lon="7.0485">
        <ele>945.06</ele>
        <time>2021-06-23T09:39:07Z</time>
      </trkpt>
      <trkpt lat="48.06399" lon="7.04828">
        <ele>946.89</ele>
        <time>2021-06-23T09:39:09Z</time>
      </trkpt>
      <trkpt lat="48.06364" lon="7.0475">
        <ele>951.3</ele>
        <time>2021-06-23T09:39:11Z</time>
      </trkpt>
      <trkpt lat="48.06343" lon="7.0473">
        <ele>956.07</ele>
        <time>2021-06-23T09:39:13Z</time>
      </trkpt>
      <trkpt lat="48.06315" lon="7.04723">
        <ele>959.3</ele>
        <time>2021-06-23T09:39:15Z</time>
      </trkpt>
      <trkpt lat="48.06207" lon="7.0472">
        <ele>960.69</ele>
        <time>2021-06-23T09:39:17Z</time>
      </trkpt>
      <trkpt lat="48.06158" lon="7.04725">
        <ele>960.36</ele>
        <time>2021-06-23T09:39:18Z</time>
      </trkpt>
      <trkpt lat="48.06149" lon="7.0472">
        <ele>961.57</ele>
        <time>2021-06-23T09:39:20Z</time>
      </trkpt>
      <trkpt lat="48.06141" lon="7.04707">
        <ele>964.32</ele>
        <time>2021-06-23T09:39:22Z</time>
      </trkpt>
      <trkpt lat="48.06137" lon="7.04687">
        <ele>968.2</ele>
        <time>2021-06-23T09:39:24Z</time>
      </trkpt>
      <trkpt lat="48.06137" lon="7.04687">
        <ele>968.2</ele>
        <time>2021-06-23T09:39:24Z</time>
      </trkpt>
      <trkpt lat="48.0614" lon="7.04672">
        <ele>972.7</ele>
        <time>2021-06-23T09:39:25Z</time>
      </trkpt>
      <trkpt lat="48.06143" lon="7.04665">
        <ele>974.25</ele>
        <time>2021-06-23T09:39:27Z</time>
      </trkpt>
      <trkpt lat="48.06147" lon="7.04662">
        <ele>974.95</ele>
        <time>2021-06-23T09:39:28Z</time>
      </trkpt>
      <trkpt lat="48.06155" lon="7.04659">
        <ele>975.45</ele>
        <time>2021-06-23T09:39:29Z</time>
      </trkpt>
      <trkpt lat="48.06162" lon="7.0466">
        <ele>975.31</ele>
        <time>2021-06-23T09:39:31Z</time>
      </trkpt>
      <trkpt lat="48.06182" lon="7.04668">
        <ele>973.64</ele>
        <time>2021-06-23T09:39:32Z</time>
      </trkpt>
      <trkpt lat="48.06203" lon="7.04683">
        <ele>969.97</ele>
        <time>2021-06-23T09:39:33Z</time>
      </trkpt>
      <trkpt lat="48.06217" lon="7.04689">
        <ele>968.49</ele>
        <time>2021-06-23T09:39:35Z</time>
      </trkpt>
      <trkpt lat="48.0624" lon="7.04689">
        <ele>968.19</ele>
        <time>2021-06-23T09:39:36Z</time>
      </trkpt>
      <trkpt lat="48.06263" lon="7.04686">
        <ele>969.11</ele>
        <time>2021-06-23T09:39:37Z</time>
      </trkpt>
      <trkpt lat="48.06297" lon="7.04675">
        <ele>973.18</ele>
        <time>2021-06-23T09:39:39Z</time>
      </trkpt>
      <trkpt lat="48.06335" lon="7.04667">
        <ele>974.97</ele>
        <time>2021-06-23T09:39:40Z</time>
      </trkpt>
      <trkpt lat="48.0638" lon="7.04666">
        <ele>976.42</ele>
        <time>2021-06-23T09:39:41Z</time>
      </trkpt>
      <trkpt lat="48.06441" lon="7.0468">
        <ele>976.92</ele>
        <time>2021-06-23T09:39:43Z</time>
      </trkpt>
      <trkpt lat="48.06467" lon="7.04678">
        <ele>977.79</ele>
        <time>2021-06-23T09:39:44Z</time>
      </trkpt>
      <trkpt lat="48.06483" lon="7.04669">
        <ele>978.68</ele>
        <time>2021-06-23T09:39:45Z</time>
      </trkpt>
      <trkpt lat="48.06501" lon="7.04653">
        <ele>980.18</ele>
        <time>2021-06-23T09:39:47Z</time>
      </trkpt>
      <trkpt lat="48.06569" lon="7.04577">
        <ele>984.11</ele>
        <time>2021-06-23T09:39:48Z</time>
      </trkpt>
      <trkpt lat="48.06569" lon="7.04577">
        <ele>984.11</ele>
        <time>2021-06-23T09:39:48Z</time>
      </trkpt>
      <trkpt lat="48.06641" lon="7.04465">
        <ele>983.92</ele>
        <time>2021-06-23T09:39:50Z</time>
      </trkpt>
      <trkpt lat="48.06662" lon="7.04425">
        <ele>987.19</ele>
        <time>2021-06-23T09:39:52Z</time>
      </trkpt>
      <trkpt lat="48.06681" lon="7.04372">
        <ele>989.33</ele>
        <time>2021-06-23T09:39:55Z</time>
      </trkpt>
      <trkpt lat="48.06697" lon="7.04306">
        <ele>994.05</ele>
        <time>2021-06-23T09:39:57Z</time>
      </trkpt>
      <trkpt lat="48.06703" lon="7.04285">
        <ele>994.75</ele>
        <time>2021-06-23T09:39:59Z</time>
      </trkpt>
      <trkpt lat="48.06717" lon="7.04253">
        <ele>994.76</ele>
        <time>2021-06-23T09:40:01Z</time>
      </trkpt>
      <trkpt lat="48.06727" lon="7.04235">
        <ele>996.85</ele>
        <time>2021-06-23T09:40:03Z</time>
      </trkpt>
      <trkpt lat="48.06749" lon="7.04204">
        <ele>999.43</ele>
        <time>2021-06-23T09:40:05Z</time>
      </trkpt>
      <trkpt lat="48.0676" lon="7.04186">
        <ele>999.79</ele>
        <time>2021-06-23T09:40:08Z</time>
      </trkpt>
      <trkpt lat="48.06768" lon="7.04169">
        <ele>1000.7</ele>
        <time>2021-06-23T09:40:10Z</time>
      </trkpt>
      <trkpt lat="48.06829" lon="7.03999">
        <ele>1012.6</ele>
        <time>2021-06-23T09:40:12Z</time>
      </trkpt>
      <trkpt lat="48.06863" lon="7.03893">
        <ele>1015.47</ele>
        <time>2021-06-23T09:40:14Z</time>
      </trkpt>
      <trkpt lat="48.06868" lon="7.03868">
        <ele>1014.46</ele>
        <time>2021-06-23T09:40:16Z</time>
      </trkpt>
      <trkpt lat="48.06864" lon="7.03834">
        <ele>1012.51</ele>
        <time>2021-06-23T09:40:18Z</time>
      </trkpt>
      <trkpt lat="48.06864" lon="7.03834">
        <ele>1012.51</ele>
        <time>2021-06-23T09:40:18Z</time>
      </trkpt>
      <trkpt lat="48.0685" lon="7.03809">
        <ele>1011.51</ele>
        <time>2021-06-23T09:40:20Z</time>
      </trkpt>
      <trkpt lat="48.06822" lon="7.03796">
        <ele>1012.49</ele>
        <time>2021-06-23T09:40:22Z</time>
      </trkpt>
      <trkpt lat="48.06797" lon="7.03815">
        <ele>1016.03</ele>
        <time>2021-06-23T09:40:23Z</time>
      </trkpt>
      <trkpt lat="48.06781" lon="7.03857">
        <ele>1018.65</ele>
        <time>2021-06-23T09:40:25Z</time>
      </trkpt>
      <trkpt lat="48.06771" lon="7.03896">
        <ele>1019.55</ele>
        <time>2021-06-23T09:40:26Z</time>
      </trkpt>
      <trkpt lat="48.06764" lon="7.03968">
        <ele>1016.27</ele>
        <time>2021-06-23T09:40:28Z</time>
      </trkpt>
      <trkpt lat="48.06756" lon="7.04006">
        <ele>1014.34</ele>
        <time>2021-06-23T09:40:29Z</time>
      </trkpt>
      <trkpt lat="48.06676" lon="7.04201">
        <ele>1020.15</ele>
        <time>2021-06-23T09:40:31Z</time>
      </trkpt>
      <trkpt lat="48.06665" lon="7.0422">
        <ele>1021.66</ele>
        <time>2021-06-23T09:40:33Z</time>
      </trkpt>
      <trkpt lat="48.06657" lon="7.04226">
        <ele>1022.23</ele>
        <time>2021-06-23T09:40:34Z</time>
      </trkpt>
      <trkpt lat="48.06631" lon="7.04239">
        <ele>1026.7</ele>
        <time>2021-06-23T09:40:36Z</time>
      </trkpt>
      <trkpt lat="48.06622" lon="7.04247">
        <ele>1028.09</ele>
        <time>2021-06-23T09:40:37Z</time>
      </trkpt>
      <trkpt lat="48.06613" lon="7.04257">
        <ele>1029.06</ele>
        <time>2021-06-23T09:40:39Z</time>
      </trkpt>
      <trkpt lat="48.06606" lon="7.04268">
        <ele>1030.09</ele>
        <time>2021-06-23T09:40:41Z</time>
      </trkpt>
      <trkpt lat="48.06579" lon="7.04329">
        <ele>1031.5</ele>
        <time>2021-06-23T09:40:42Z</time>
      </trkpt>
      <trkpt lat="48.06568" lon="7.04349">
        <ele>1031.56</ele>
        <time>2021-06-23T09:40:44Z</time>
      </trkpt>
      <trkpt lat="48.06548" lon="7.04371">
        <ele>1033.28</ele>
        <time>2021-06-23T09:40:45Z</time>
      </trkpt>
      <trkpt lat="48.06535" lon="7.04379">
        <ele>1035.06</ele>
        <time>2021-06-23T09:40:47Z</time>
      </trkpt>
      <trkpt lat="48.06535" lon="7.04379">
        <ele>1035.06</ele>
        <time>2021-06-23T09:40:47Z</time>
      </trkpt>
      <trkpt lat="48.06516" lon="7.04382">
        <ele>1035.79</ele>
        <time>2021-06-23T09:40:49Z</time>
      </trkpt>
      <trkpt lat="48.06497" lon="7.04381">
        <ele>1037.49</ele>
        <time>2021-06-23T09:40:50Z</time>
      </trkpt>
      <trkpt lat="48.06466" lon="7.04366">
        <ele>1043.65</ele>
        <time>2021-06-23T09:40:52Z</time>
      </trkpt>
      <trkpt lat="48.06449" lon="7.04359">
        <ele>1045.98</ele>
        <time>2021-06-23T09:40:53Z</time>
      </trkpt>
      <trkpt lat="48.0643" lon="7.04357">
        <ele>1047.46</ele>
        <time>2021-06-23T09:40:55Z</time>
      </trkpt>
      <trkpt lat="48.06341" lon="7.04363">
        <ele>1050.4</ele>
        <time>2021-06-23T09:40:56Z</time>
      </trkpt>
      <trkpt lat="48.06305" lon="7.04363">
        <ele>1050.73</ele>
        <time>2021-06-23T09:40:58Z</time>
      </trkpt>
      <trkpt lat="48.06286" lon="7.0436">
        <ele>1051.86</ele>
        <time>2021-06-23T09:41:00Z</time>
      </trkpt>
      <trkpt lat="48.06262" lon="7.04355">
        <ele>1054.21</ele>
        <time>2021-06-23T09:41:01Z</time>
      </trkpt>
      <trkpt lat="48.06193" lon="7.04329">
        <ele>1058.76</ele>
        <time>2021-06-23T09:41:03Z</time>
      </trkpt>
      <trkpt lat="48.06163" lon="7.04323">
        <ele>1059.95</ele>
        <time>2021-06-23T09:41:04Z</time>
      </trkpt>
      <trkpt lat="48.06118" lon="7.0432">
        <ele>1058.91</ele>
        <time>2021-06-23T09:41:06Z</time>
      </trkpt>
      <trkpt lat="48.06101" lon="7.04315">
        <ele>1057.23</ele>
        <time>2021-06-23T09:41:08Z</time>
      </trkpt>
      <trkpt lat="48.06088" lon="7.04304">
        <ele>1057.67</ele>
        <time>2021-06-23T09:41:09Z</time>
      </trkpt>
      <trkpt lat="48.06082" lon="7.04296">
        <ele>1057.94</ele>
        <time>2021-06-23T09:41:11Z</time>
      </trkpt>
      <trkpt lat="48.06082" lon="7.04296">
        <ele>1057.94</ele>
        <time>2021-06-23T09:41:11Z</time>
      </trkpt>
      <trkpt lat="48.06077" lon="7.04285">
        <ele>1059.19</ele>
        <time>2021-06-23T09:41:12Z</time>
      </trkpt>
      <trkpt lat="48.06045" lon="7.04172">
        <ele>1056</ele>
        <time>2021-06-23T09:41:13Z</time>
      </trkpt>
      <trkpt lat="48.06045" lon="7.04161">
        <ele>1054.92</ele>
        <time>2021-06-23T09:41:15Z</time>
      </trkpt>
      <trkpt lat="48.06047" lon="7.04148">
        <ele>1054.6</ele>
        <time>2021-06-23T09:41:16Z</time>
      </trkpt>
      <trkpt lat="48.06047" lon="7.04148">
        <ele>1054.6</ele>
        <time>2021-06-23T09:41:16Z</time>
      </trkpt>
      <trkpt lat="48.06052" lon="7.04138">
        <ele>1055.05</ele>
        <time>2021-06-23T09:41:18Z</time>
      </trkpt>
      <trkpt lat="48.06086" lon="7.04115">
        <ele>1065.88</ele>
        <time>2021-06-23T09:41:20Z</time>
      </trkpt>
      <trkpt lat="48.06097" lon="7.04105">
        <ele>1067.17</ele>
        <time>2021-06-23T09:41:22Z</time>
      </trkpt>
      <trkpt lat="48.06108" lon="7.04087">
        <ele>1067.72</ele>
        <time>2021-06-23T09:41:24Z</time>
      </trkpt>
      <trkpt lat="48.0615" lon="7.04002">
        <ele>1073.15</ele>
        <time>2021-06-23T09:41:26Z</time>
      </trkpt>
      <trkpt lat="48.06167" lon="7.03973">
        <ele>1074.36</ele>
        <time>2021-06-23T09:41:27Z</time>
      </trkpt>
      <trkpt lat="48.06231" lon="7.03898">
        <ele>1083.09</ele>
        <time>2021-06-23T09:41:29Z</time>
      </trkpt>
      <trkpt lat="48.06283" lon="7.0382">
        <ele>1087.96</ele>
        <time>2021-06-23T09:41:31Z</time>
      </trkpt>
      <trkpt lat="48.06304" lon="7.03735">
        <ele>1082.4</ele>
        <time>2021-06-23T09:41:33Z</time>
      </trkpt>
      <trkpt lat="48.06307" lon="7.03713">
        <ele>1081.34</ele>
        <time>2021-06-23T09:41:35Z</time>
      </trkpt>
      <trkpt lat="48.06308" lon="7.03686">
        <ele>1078.65</ele>
        <time>2021-06-23T09:41:37Z</time>
      </trkpt>
      <trkpt lat="48.06314" lon="7.03665">
        <ele>1079.53</ele>
        <time>2021-06-23T09:41:39Z</time>
      </trkpt>
      <trkpt lat="48.06363" lon="7.03582">
        <ele>1094.68</ele>
        <time>2021-06-23T09:41:40Z</time>
      </trkpt>
      <trkpt lat="48.0637" lon="7.03566">
        <ele>1096.01</ele>
        <time>2021-06-23T09:41:42Z</time>
      </trkpt>
      <trkpt lat="48.06378" lon="7.03538">
        <ele>1098.87</ele>
        <time>2021-06-23T09:41:44Z</time>
      </trkpt>
      <trkpt lat="48.06378" lon="7.03538">
        <ele>1098.87</ele>
        <time>2021-06-23T09:41:44Z</time>
      </trkpt>
      <trkpt lat="48.06379" lon="7.03512">
        <ele>1099.41</ele>
        <time>2021-06-23T09:41:46Z</time>
      </trkpt>
      <trkpt lat="48.06377" lon="7.03462">
        <ele>1102.54</ele>
        <time>2021-06-23T09:41:47Z</time>
      </trkpt>
      <trkpt lat="48.06373" lon="7.03447">
        <ele>1101.54</ele>
        <time>2021-06-23T09:41:48Z</time>
      </trkpt>
      <trkpt lat="48.06359" lon="7.03417">
        <ele>1096.27</ele>
        <time>2021-06-23T09:41:50Z</time>
      </trkpt>
      <trkpt lat="48.06354" lon="7.03404">
        <ele>1093.2</ele>
        <time>2021-06-23T09:41:51Z</time>
      </trkpt>
      <trkpt lat="48.06353" lon="7.03386">
        <ele>1093.42</ele>
        <time>2021-06-23T09:41:53Z</time>
      </trkpt>
      <trkpt lat="48.06364" lon="7.03264">
        <ele>1100.3</ele>
        <time>2021-06-23T09:41:54Z</time>
      </trkpt>
      <trkpt lat="48.06373" lon="7.03217">
        <ele>1105.44</ele>
        <time>2021-06-23T09:41:56Z</time>
      </trkpt>
      <trkpt lat="48.06389" lon="7.03162">
        <ele>1120.28</ele>
        <time>2021-06-23T09:41:57Z</time>
      </trkpt>
      <trkpt lat="48.06391" lon="7.03148">
        <ele>1124.86</ele>
        <time>2021-06-23T09:41:59Z</time>
      </trkpt>
      <trkpt lat="48.06389" lon="7.03124">
        <ele>1124.59</ele>
        <time>2021-06-23T09:42:00Z</time>
      </trkpt>
      <trkpt lat="48.06372" lon="7.03034">
        <ele>1102.67</ele>
        <time>2021-06-23T09:42:01Z</time>
      </trkpt>
      <trkpt lat="48.06373" lon="7.03017">
        <ele>1099.51</ele>
        <time>2021-06-23T09:42:03Z</time>
      </trkpt>
      <trkpt lat="48.0638" lon="7.02999">
        <ele>1099.18</ele>
        <time>2021-06-23T09:42:04Z</time>
      </trkpt>
      <trkpt lat="48.06392" lon="7.02973">
        <ele>1103.88</ele>
        <time>2021-06-23T09:42:06Z</time>
      </trkpt>
      <trkpt lat="48.06399" lon="7.02954">
        <ele>1110.98</ele>
        <time>2021-06-23T09:42:07Z</time>
      </trkpt>
      <trkpt lat="48.0642" lon="7.02843">
        <ele>1132.3</ele>
        <time>2021-06-23T09:42:09Z</time>
      </trkpt>
      <trkpt lat="48.06423" lon="7.02826">
        <ele>1133.41</ele>
        <time>2021-06-23T09:42:10Z</time>
      </trkpt>
      <trkpt lat="48.06423" lon="7.02807">
        <ele>1132.03</ele>
        <time>2021-06-23T09:42:12Z</time>
      </trkpt>
      <trkpt lat="48.06411" lon="7.02646">
        <ele>1138.16</ele>
        <time>2021-06-23T09:42:13Z</time>
      </trkpt>
      <trkpt lat="48.06409" lon="7.02632">
        <ele>1139.09</ele>
        <time>2021-06-23T09:42:14Z</time>
      </trkpt>
      <trkpt lat="48.06399" lon="7.02597">
        <ele>1137.56</ele>
        <time>2021-06-23T09:42:16Z</time>
      </trkpt>
      <trkpt lat="48.06392" lon="7.0254">
        <ele>1139.66</ele>
        <time>2021-06-23T09:42:17Z</time>
      </trkpt>
      <trkpt lat="48.0637" lon="7.02466">
        <ele>1139.92</ele>
        <time>2021-06-23T09:42:19Z</time>
      </trkpt>
      <trkpt lat="48.06367" lon="7.02448">
        <ele>1142.46</ele>
        <time>2021-06-23T09:42:20Z</time>
      </trkpt>
      <trkpt lat="48.06367" lon="7.02431">
        <ele>1144.51</ele>
        <time>2021-06-23T09:42:22Z</time>
      </trkpt>
      <trkpt lat="48.06371" lon="7.02413">
        <ele>1146.22</ele>
        <time>2021-06-23T09:42:23Z</time>
      </trkpt>
      <trkpt lat="48.06377" lon="7.02397">
        <ele>1146.56</ele>
        <time>2021-06-23T09:42:25Z</time>
      </trkpt>
      <trkpt lat="48.06408" lon="7.02343">
        <ele>1145.41</ele>
        <time>2021-06-23T09:42:26Z</time>
      </trkpt>
      <trkpt lat="48.06413" lon="7.02329">
        <ele>1144.97</ele>
        <time>2021-06-23T09:42:27Z</time>
      </trkpt>
      <trkpt lat="48.06419" lon="7.02296">
        <ele>1142.53</ele>
        <time>2021-06-23T09:42:29Z</time>
      </trkpt>
      <trkpt lat="48.06417" lon="7.02281">
        <ele>1141.92</ele>
        <time>2021-06-23T09:42:30Z</time>
      </trkpt>
      <trkpt lat="48.06417" lon="7.02281">
        <ele>1141.92</ele>
        <time>2021-06-23T09:42:30Z</time>
      </trkpt>
      <trkpt lat="48.06415" lon="7.02269">
        <ele>1140.39</ele>
        <time>2021-06-23T09:42:32Z</time>
      </trkpt>
      <trkpt lat="48.0641" lon="7.02258">
        <ele>1139.74</ele>
        <time>2021-06-23T09:42:33Z</time>
      </trkpt>
      <trkpt lat="48.06371" lon="7.02215">
        <ele>1137.82</ele>
        <time>2021-06-23T09:42:34Z</time>
      </trkpt>
      <trkpt lat="48.06361" lon="7.02202">
        <ele>1138</ele>
        <time>2021-06-23T09:42:36Z</time>
      </trkpt>
      <trkpt lat="48.06318" lon="7.02134">
        <ele>1135.73</ele>
        <time>2021-06-23T09:42:37Z</time>
      </trkpt>
      <trkpt lat="48.06298" lon="7.02108">
        <ele>1135.4</ele>
        <time>2021-06-23T09:42:39Z</time>
      </trkpt>
      <trkpt lat="48.06289" lon="7.02098">
        <ele>1135.76</ele>
        <time>2021-06-23T09:42:40Z</time>
      </trkpt>
      <trkpt lat="48.06282" lon="7.02094">
        <ele>1136.1</ele>
        <time>2021-06-23T09:42:41Z</time>
      </trkpt>
      <trkpt lat="48.06252" lon="7.0209">
        <ele>1138.07</ele>
        <time>2021-06-23T09:42:43Z</time>
      </trkpt>
      <trkpt lat="48.06243" lon="7.0208">
        <ele>1139.33</ele>
        <time>2021-06-23T09:42:44Z</time>
      </trkpt>
      <trkpt lat="48.0624" lon="7.02071">
        <ele>1140.27</ele>
        <time>2021-06-23T09:42:46Z</time>
      </trkpt>
      <trkpt lat="48.0624" lon="7.02071">
        <ele>1140.27</ele>
        <time>2021-06-23T09:42:46Z</time>
      </trkpt>
      <trkpt lat="48.06239" lon="7.02055">
        <ele>1140.49</ele>
        <time>2021-06-23T09:42:48Z</time>
      </trkpt>
      <trkpt lat="48.0624" lon="7.02048">
        <ele>1140.6</ele>
        <time>2021-06-23T09:42:50Z</time>
      </trkpt>
      <trkpt lat="48.06251" lon="7.02028">
        <ele>1138.88</ele>
        <time>2021-06-23T09:42:52Z</time>
      </trkpt>
      <trkpt lat="48.06265" lon="7.02009">
        <ele>1137.58</ele>
        <time>2021-06-23T09:42:54Z</time>
      </trkpt>
      <trkpt lat="48.06272" lon="7.01993">
        <ele>1137.51</ele>
        <time>2021-06-23T09:42:56Z</time>
      </trkpt>
      <trkpt lat="48.06278" lon="7.01975">
        <ele>1137.88</ele>
        <time>2021-06-23T09:42:58Z</time>
      </trkpt>
      <trkpt lat="48.06283" lon="7.01926">
        <ele>1138.39</ele>
        <time>2021-06-23T09:43:00Z</time>
      </trkpt>
      <trkpt lat="48.06286" lon="7.01852">
        <ele>1138.62</ele>
        <time>2021-06-23T09:43:02Z</time>
      </trkpt>
      <trkpt lat="48.06284" lon="7.01814">
        <ele>1137.14</ele>
        <time>2021-06-23T09:43:04Z</time>
      </trkpt>
      <trkpt lat="48.06281" lon="7.01781">
        <ele>1136.62</ele>
        <time>2021-06-23T09:43:06Z</time>
      </trkpt>
      <trkpt lat="48.06274" lon="7.01745">
        <ele>1138.7</ele>
        <time>2021-06-23T09:43:08Z</time>
      </trkpt>
      <trkpt lat="48.06243" lon="7.01613">
        <ele>1134.06</ele>
        <time>2021-06-23T09:43:10Z</time>
      </trkpt>
      <trkpt lat="48.06231" lon="7.01571">
        <ele>1133.83</ele>
        <time>2021-06-23T09:43:12Z</time>
      </trkpt>
      <trkpt lat="48.06194" lon="7.01482">
        <ele>1135.36</ele>
        <time>2021-06-23T09:43:14Z</time>
      </trkpt>
      <trkpt lat="48.06171" lon="7.01441">
        <ele>1132.84</ele>
        <time>2021-06-23T09:43:16Z</time>
      </trkpt>
      <trkpt lat="48.06171" lon="7.01441">
        <ele>1132.84</ele>
        <time>2021-06-23T09:43:16Z</time>
      </trkpt>
      <trkpt lat="48.06153" lon="7.01417">
        <ele>1131.7</ele>
        <time>2021-06-23T09:43:19Z</time>
      </trkpt>
      <trkpt lat="48.06078" lon="7.01348">
        <ele>1133.16</ele>
        <time>2021-06-23T09:43:22Z</time>
      </trkpt>
      <trkpt lat="48.06011" lon="7.01274">
        <ele>1131.76</ele>
        <time>2021-06-23T09:43:24Z</time>
      </trkpt>
      <trkpt lat="48.05986" lon="7.01249">
        <ele>1129.84</ele>
        <time>2021-06-23T09:43:27Z</time>
      </trkpt>
      <trkpt lat="48.05933" lon="7.01204">
        <ele>1129</ele>
        <time>2021-06-23T09:43:30Z</time>
      </trkpt>
      <trkpt lat="48.05914" lon="7.01191">
        <ele>1128.44</ele>
        <time>2021-06-23T09:43:33Z</time>
      </trkpt>
      <trkpt lat="48.05819" lon="7.01141">
        <ele>1123.12</ele>
        <time>2021-06-23T09:43:36Z</time>
      </trkpt>
      <trkpt lat="48.05802" lon="7.01133">
        <ele>1123.15</ele>
        <time>2021-06-23T09:43:38Z</time>
      </trkpt>
      <trkpt lat="48.05787" lon="7.01129">
        <ele>1123.76</ele>
        <time>2021-06-23T09:43:41Z</time>
      </trkpt>
      <trkpt lat="48.05759" lon="7.01128">
        <ele>1126.31</ele>
        <time>2021-06-23T09:43:44Z</time>
      </trkpt>
      <trkpt lat="48.05747" lon="7.01125">
        <ele>1127.33</ele>
        <time>2021-06-23T09:43:47Z</time>
      </trkpt>
      <trkpt lat="48.05729" lon="7.01109">
        <ele>1131.52</ele>
        <time>2021-06-23T09:43:49Z</time>
      </trkpt>
      <trkpt lat="48.05729" lon="7.01109">
        <ele>1131.52</ele>
        <time>2021-06-23T09:43:49Z</time>
      </trkpt>
      <trkpt lat="48.05718" lon="7.01089">
        <ele>1132.01</ele>
        <time>2021-06-23T09:43:51Z</time>
      </trkpt>
      <trkpt lat="48.05714" lon="7.01073">
        <ele>1131.68</ele>
        <time>2021-06-23T09:43:53Z</time>
      </trkpt>
      <trkpt lat="48.05712" lon="7.01054">
        <ele>1129.76</ele>
        <time>2021-06-23T09:43:55Z</time>
      </trkpt>
      <trkpt lat="48.05711" lon="7.01001">
        <ele>1123.5</ele>
        <time>2021-06-23T09:43:57Z</time>
      </trkpt>
      <trkpt lat="48.05702" lon="7.00941">
        <ele>1123.53</ele>
        <time>2021-06-23T09:43:59Z</time>
      </trkpt>
      <trkpt lat="48.05683" lon="7.00844">
        <ele>1118.73</ele>
        <time>2021-06-23T09:44:01Z</time>
      </trkpt>
      <trkpt lat="48.05675" lon="7.00816">
        <ele>1118.46</ele>
        <time>2021-06-23T09:44:03Z</time>
      </trkpt>
      <trkpt lat="48.05656" lon="7.00774">
        <ele>1118.13</ele>
        <time>2021-06-23T09:44:05Z</time>
      </trkpt>
      <trkpt lat="48.05656" lon="7.00774">
        <ele>1118.13</ele>
        <time>2021-06-23T09:44:05Z</time>
      </trkpt>
      <trkpt lat="48.05536" lon="7.00613">
        <ele>1122.61</ele>
        <time>2021-06-23T09:44:09Z</time>
      </trkpt>
      <trkpt lat="48.05491" lon="7.00548">
        <ele>1116.01</ele>
        <time>2021-06-23T09:44:12Z</time>
      </trkpt>
      <trkpt lat="48.05426" lon="7.00439">
        <ele>1109.46</ele>
        <time>2021-06-23T09:44:16Z</time>
      </trkpt>
      <trkpt lat="48.05386" lon="7.00365">
        <ele>1111</ele>
        <time>2021-06-23T09:44:19Z</time>
      </trkpt>
      <trkpt lat="48.05338" lon="7.00286">
        <ele>1115.42</ele>
        <time>2021-06-23T09:44:23Z</time>
      </trkpt>
      <trkpt lat="48.05323" lon="7.00269">
        <ele>1114.58</ele>
        <time>2021-06-23T09:44:27Z</time>
      </trkpt>
      <trkpt lat="48.0528" lon="7.00227">
        <ele>1111.84</ele>
        <time>2021-06-23T09:44:30Z</time>
      </trkpt>
      <trkpt lat="48.05243" lon="7.00179">
        <ele>1109.53</ele>
        <time>2021-06-23T09:44:34Z</time>
      </trkpt>
      <trkpt lat="48.05228" lon="7.00153">
        <ele>1106.36</ele>
        <time>2021-06-23T09:44:37Z</time>
      </trkpt>
      <trkpt lat="48.05218" lon="7.00126">
        <ele>1104.31</ele>
        <time>2021-06-23T09:44:41Z</time>
      </trkpt>
      <trkpt lat="48.05214" lon="7.00097">
        <ele>1103.25</ele>
        <time>2021-06-23T09:44:44Z</time>
      </trkpt>
      <trkpt lat="48.05214" lon="7.0008">
        <ele>1102.75</ele>
        <time>2021-06-23T09:44:48Z</time>
      </trkpt>
      <trkpt lat="48.05214" lon="7.0008">
        <ele>1102.75</ele>
        <time>2021-06-23T09:44:48Z</time>
      </trkpt>
      <trkpt lat="48.05219" lon="7.00046">
        <ele>1098.19</ele>
        <time>2021-06-23T09:44:50Z</time>
      </trkpt>
      <trkpt lat="48.05223" lon="7.00031">
        <ele>1097.13</ele>
        <time>2021-06-23T09:44:52Z</time>
      </trkpt>
      <trkpt lat="48.05235" lon="7.00005">
        <ele>1096.55</ele>
        <time>2021-06-23T09:44:54Z</time>
      </trkpt>
      <trkpt lat="48.05278" lon="6.99934">
        <ele>1097.91</ele>
        <time>2021-06-23T09:44:56Z</time>
      </trkpt>
      <trkpt lat="48.05294" lon="6.99913">
        <ele>1102.04</ele>
        <time>2021-06-23T09:44:57Z</time>
      </trkpt>
      <trkpt lat="48.05299" lon="6.99904">
        <ele>1102.21</ele>
        <time>2021-06-23T09:44:59Z</time>
      </trkpt>
      <trkpt lat="48.05323" lon="6.99837">
        <ele>1091.44</ele>
        <time>2021-06-23T09:45:01Z</time>
      </trkpt>
      <trkpt lat="48.05344" lon="6.99808">
        <ele>1088.58</ele>
        <time>2021-06-23T09:45:03Z</time>
      </trkpt>
      <trkpt lat="48.05344" lon="6.99808">
        <ele>1088.58</ele>
        <time>2021-06-23T09:45:03Z</time>
      </trkpt>
      <trkpt lat="48.05376" lon="6.99778">
        <ele>1087.23</ele>
        <time>2021-06-23T09:45:05Z</time>
      </trkpt>
      <trkpt lat="48.05398" lon="6.99772">
        <ele>1090.45</ele>
        <time>2021-06-23T09:45:06Z</time>
      </trkpt>
      <trkpt lat="48.05448" lon="6.99775">
        <ele>1098.17</ele>
        <time>2021-06-23T09:45:08Z</time>
      </trkpt>
      <trkpt lat="48.0546" lon="6.99769">
        <ele>1097.88</ele>
        <time>2021-06-23T09:45:10Z</time>
      </trkpt>
      <trkpt lat="48.05471" lon="6.99756">
        <ele>1094.4</ele>
        <time>2021-06-23T09:45:12Z</time>
      </trkpt>
      <trkpt lat="48.05489" lon="6.99725">
        <ele>1088.68</ele>
        <time>2021-06-23T09:45:13Z</time>
      </trkpt>
      <trkpt lat="48.05503" lon="6.99707">
        <ele>1086.09</ele>
        <time>2021-06-23T09:45:15Z</time>
      </trkpt>
      <trkpt lat="48.05528" lon="6.99686">
        <ele>1082.92</ele>
        <time>2021-06-23T09:45:17Z</time>
      </trkpt>
      <trkpt lat="48.05561" lon="6.99666">
        <ele>1079.75</ele>
        <time>2021-06-23T09:45:18Z</time>
      </trkpt>
      <trkpt lat="48.05582" lon="6.99661">
        <ele>1081.36</ele>
        <time>2021-06-23T09:45:20Z</time>
      </trkpt>
      <trkpt lat="48.05615" lon="6.99677">
        <ele>1092.52</ele>
        <time>2021-06-23T09:45:22Z</time>
      </trkpt>
      <trkpt lat="48.05627" lon="6.99674">
        <ele>1094.3</ele>
        <time>2021-06-23T09:45:23Z</time>
      </trkpt>
      <trkpt lat="48.05631" lon="6.9967">
        <ele>1094</ele>
        <time>2021-06-23T09:45:25Z</time>
      </trkpt>
      <trkpt lat="48.05638" lon="6.99659">
        <ele>1091.83</ele>
        <time>2021-06-23T09:45:27Z</time>
      </trkpt>
      <trkpt lat="48.0568" lon="6.99549">
        <ele>1070.88</ele>
        <time>2021-06-23T09:45:28Z</time>
      </trkpt>
      <trkpt lat="48.05694" lon="6.99531">
        <ele>1070.94</ele>
        <time>2021-06-23T09:45:30Z</time>
      </trkpt>
      <trkpt lat="48.05713" lon="6.9951">
        <ele>1072.25</ele>
        <time>2021-06-23T09:45:32Z</time>
      </trkpt>
      <trkpt lat="48.05734" lon="6.99492">
        <ele>1073.98</ele>
        <time>2021-06-23T09:45:33Z</time>
      </trkpt>
      <trkpt lat="48.05753" lon="6.99479">
        <ele>1073.78</ele>
        <time>2021-06-23T09:45:35Z</time>
      </trkpt>
      <trkpt lat="48.05765" lon="6.99475">
        <ele>1072.01</ele>
        <time>2021-06-23T09:45:37Z</time>
      </trkpt>
      <trkpt lat="48.05777" lon="6.99471">
        <ele>1070.42</ele>
        <time>2021-06-23T09:45:38Z</time>
      </trkpt>
      <trkpt lat="48.05789" lon="6.99471">
        <ele>1070.9</ele>
        <time>2021-06-23T09:45:40Z</time>
      </trkpt>
      <trkpt lat="48.05825" lon="6.99481">
        <ele>1078.48</ele>
        <time>2021-06-23T09:45:42Z</time>
      </trkpt>
      <trkpt lat="48.05841" lon="6.99474">
        <ele>1077.16</ele>
        <time>2021-06-23T09:45:44Z</time>
      </trkpt>
      <trkpt lat="48.05852" lon="6.99461">
        <ele>1073.51</ele>
        <time>2021-06-23T09:45:45Z</time>
      </trkpt>
      <trkpt lat="48.05881" lon="6.99408">
        <ele>1059.09</ele>
        <time>2021-06-23T09:45:47Z</time>
      </trkpt>
      <trkpt lat="48.05901" lon="6.99365">
        <ele>1052.18</ele>
        <time>2021-06-23T09:45:49Z</time>
      </trkpt>
      <trkpt lat="48.05913" lon="6.99343">
        <ele>1051.93</ele>
        <time>2021-06-23T09:45:50Z</time>
      </trkpt>
      <trkpt lat="48.05938" lon="6.99321">
        <ele>1050.77</ele>
        <time>2021-06-23T09:45:52Z</time>
      </trkpt>
      <trkpt lat="48.05938" lon="6.99321">
        <ele>1050.77</ele>
        <time>2021-06-23T09:45:52Z</time>
      </trkpt>
      <trkpt lat="48.05951" lon="6.99316">
        <ele>1048.92</ele>
        <time>2021-06-23T09:45:54Z</time>
      </trkpt>
      <trkpt lat="48.05964" lon="6.99317">
        <ele>1048.65</ele>
        <time>2021-06-23T09:45:55Z</time>
      </trkpt>
      <trkpt lat="48.05989" lon="6.99326">
        <ele>1050.47</ele>
        <time>2021-06-23T09:45:57Z</time>
      </trkpt>
      <trkpt lat="48.06008" lon="6.99338">
        <ele>1052.45</ele>
        <time>2021-06-23T09:45:59Z</time>
      </trkpt>
      <trkpt lat="48.0603" lon="6.99357">
        <ele>1053.54</ele>
        <time>2021-06-23T09:46:00Z</time>
      </trkpt>
      <trkpt lat="48.06047" lon="6.99376">
        <ele>1052.76</ele>
        <time>2021-06-23T09:46:02Z</time>
      </trkpt>
      <trkpt lat="48.06071" lon="6.99408">
        <ele>1050.15</ele>
        <time>2021-06-23T09:46:04Z</time>
      </trkpt>
      <trkpt lat="48.06095" lon="6.9945">
        <ele>1053.14</ele>
        <time>2021-06-23T09:46:05Z</time>
      </trkpt>
      <trkpt lat="48.06108" lon="6.99487">
        <ele>1056.45</ele>
        <time>2021-06-23T09:46:07Z</time>
      </trkpt>
      <trkpt lat="48.06121" lon="6.99544">
        <ele>1059.44</ele>
        <time>2021-06-23T09:46:09Z</time>
      </trkpt>
      <trkpt lat="48.06132" lon="6.99573">
        <ele>1059.02</ele>
        <time>2021-06-23T09:46:10Z</time>
      </trkpt>
      <trkpt lat="48.06151" lon="6.99606">
        <ele>1060.42</ele>
        <time>2021-06-23T09:46:12Z</time>
      </trkpt>
      <trkpt lat="48.06168" lon="6.99627">
        <ele>1061.3</ele>
        <time>2021-06-23T09:46:14Z</time>
      </trkpt>
      <trkpt lat="48.06168" lon="6.99627">
        <ele>1061.3</ele>
        <time>2021-06-23T09:46:14Z</time>
      </trkpt>
      <trkpt lat="48.06178" lon="6.9963">
        <ele>1062.02</ele>
        <time>2021-06-23T09:46:15Z</time>
      </trkpt>
      <trkpt lat="48.06185" lon="6.99628">
        <ele>1061.83</ele>
        <time>2021-06-23T09:46:17Z</time>
      </trkpt>
      <trkpt lat="48.06221" lon="6.9958">
        <ele>1048.73</ele>
        <time>2021-06-23T09:46:18Z</time>
      </trkpt>
      <trkpt lat="48.06252" lon="6.99545">
        <ele>1044.44</ele>
        <time>2021-06-23T09:46:19Z</time>
      </trkpt>
      <trkpt lat="48.06261" lon="6.99539">
        <ele>1044.07</ele>
        <time>2021-06-23T09:46:21Z</time>
      </trkpt>
      <trkpt lat="48.06272" lon="6.99534">
        <ele>1044.38</ele>
        <time>2021-06-23T09:46:22Z</time>
      </trkpt>
      <trkpt lat="48.06289" lon="6.99531">
        <ele>1043.63</ele>
        <time>2021-06-23T09:46:24Z</time>
      </trkpt>
      <trkpt lat="48.06322" lon="6.99531">
        <ele>1043.74</ele>
        <time>2021-06-23T09:46:25Z</time>
      </trkpt>
      <trkpt lat="48.0636" lon="6.99527">
        <ele>1047.64</ele>
        <time>2021-06-23T09:46:27Z</time>
      </trkpt>
      <trkpt lat="48.06372" lon="6.99523">
        <ele>1048.69</ele>
        <time>2021-06-23T09:46:28Z</time>
      </trkpt>
      <trkpt lat="48.06378" lon="6.99516">
        <ele>1047.61</ele>
        <time>2021-06-23T09:46:29Z</time>
      </trkpt>
      <trkpt lat="48.06378" lon="6.99516">
        <ele>1047.61</ele>
        <time>2021-06-23T09:46:29Z</time>
      </trkpt>
      <trkpt lat="48.06381" lon="6.99505">
        <ele>1046.93</ele>
        <time>2021-06-23T09:46:31Z</time>
      </trkpt>
      <trkpt lat="48.06381" lon="6.99492">
        <ele>1045.26</ele>
        <time>2021-06-23T09:46:33Z</time>
      </trkpt>
      <trkpt lat="48.06379" lon="6.99481">
        <ele>1043.37</ele>
        <time>2021-06-23T09:46:34Z</time>
      </trkpt>
      <trkpt lat="48.06349" lon="6.99374">
        <ele>1031.06</ele>
        <time>2021-06-23T09:46:36Z</time>
      </trkpt>
      <trkpt lat="48.06327" lon="6.9925">
        <ele>1030.44</ele>
        <time>2021-06-23T09:46:38Z</time>
      </trkpt>
      <trkpt lat="48.06327" lon="6.99232">
        <ele>1028.18</ele>
        <time>2021-06-23T09:46:39Z</time>
      </trkpt>
      <trkpt lat="48.06332" lon="6.99216">
        <ele>1027.61</ele>
        <time>2021-06-23T09:46:41Z</time>
      </trkpt>
      <trkpt lat="48.06337" lon="6.99206">
        <ele>1027.44</ele>
        <time>2021-06-23T09:46:43Z</time>
      </trkpt>
      <trkpt lat="48.06343" lon="6.99197">
        <ele>1027.39</ele>
        <time>2021-06-23T09:46:44Z</time>
      </trkpt>
      <trkpt lat="48.06372" lon="6.99167">
        <ele>1026.18</ele>
        <time>2021-06-23T09:46:46Z</time>
      </trkpt>
      <trkpt lat="48.06398" lon="6.99121">
        <ele>1026.55</ele>
        <time>2021-06-23T09:46:48Z</time>
      </trkpt>
      <trkpt lat="48.06416" lon="6.99094">
        <ele>1032.07</ele>
        <time>2021-06-23T09:46:49Z</time>
      </trkpt>
      <trkpt lat="48.06422" lon="6.99078">
        <ele>1035.33</ele>
        <time>2021-06-23T09:46:51Z</time>
      </trkpt>
      <trkpt lat="48.06422" lon="6.99065">
        <ele>1036.06</ele>
        <time>2021-06-23T09:46:53Z</time>
      </trkpt>
      <trkpt lat="48.06422" lon="6.99065">
        <ele>1036.06</ele>
        <time>2021-06-23T09:46:53Z</time>
      </trkpt>
      <trkpt lat="48.06416" lon="6.99047">
        <ele>1037.09</ele>
        <time>2021-06-23T09:46:54Z</time>
      </trkpt>
      <trkpt lat="48.06387" lon="6.99012">
        <ele>1031.21</ele>
        <time>2021-06-23T09:46:56Z</time>
      </trkpt>
      <trkpt lat="48.06371" lon="6.98986">
        <ele>1028.37</ele>
        <time>2021-06-23T09:46:57Z</time>
      </trkpt>
      <trkpt lat="48.06354" lon="6.98952">
        <ele>1025.88</ele>
        <time>2021-06-23T09:46:59Z</time>
      </trkpt>
      <trkpt lat="48.06317" lon="6.9889">
        <ele>1020.13</ele>
        <time>2021-06-23T09:47:01Z</time>
      </trkpt>
      <trkpt lat="48.06294" lon="6.98847">
        <ele>1019.13</ele>
        <time>2021-06-23T09:47:02Z</time>
      </trkpt>
      <trkpt lat="48.06276" lon="6.9881">
        <ele>1021.16</ele>
        <time>2021-06-23T09:47:04Z</time>
      </trkpt>
      <trkpt lat="48.06259" lon="6.98767">
        <ele>1016.35</ele>
        <time>2021-06-23T09:47:05Z</time>
      </trkpt>
      <trkpt lat="48.06254" lon="6.98744">
        <ele>1014.1</ele>
        <time>2021-06-23T09:47:07Z</time>
      </trkpt>
      <trkpt lat="48.06252" lon="6.98712">
        <ele>1015.63</ele>
        <time>2021-06-23T09:47:09Z</time>
      </trkpt>
      <trkpt lat="48.06253" lon="6.98662">
        <ele>1023.58</ele>
        <time>2021-06-23T09:47:10Z</time>
      </trkpt>
      <trkpt lat="48.06251" lon="6.98649">
        <ele>1024.27</ele>
        <time>2021-06-23T09:47:12Z</time>
      </trkpt>
      <trkpt lat="48.06246" lon="6.98642">
        <ele>1021.74</ele>
        <time>2021-06-23T09:47:13Z</time>
      </trkpt>
      <trkpt lat="48.0622" lon="6.98623">
        <ele>1009.15</ele>
        <time>2021-06-23T09:47:15Z</time>
      </trkpt>
      <trkpt lat="48.06212" lon="6.98613">
        <ele>1006.25</ele>
        <time>2021-06-23T09:47:17Z</time>
      </trkpt>
      <trkpt lat="48.06207" lon="6.98603">
        <ele>1004.99</ele>
        <time>2021-06-23T09:47:18Z</time>
      </trkpt>
      <trkpt lat="48.06204" lon="6.9859">
        <ele>1006.1</ele>
        <time>2021-06-23T09:47:20Z</time>
      </trkpt>
      <trkpt lat="48.06194" lon="6.98527">
        <ele>1000.34</ele>
        <time>2021-06-23T09:47:22Z</time>
      </trkpt>
      <trkpt lat="48.06184" lon="6.98488">
        <ele>988.99</ele>
        <time>2021-06-23T09:47:23Z</time>
      </trkpt>
      <trkpt lat="48.06183" lon="6.98477">
        <ele>987.82</ele>
        <time>2021-06-23T09:47:25Z</time>
      </trkpt>
      <trkpt lat="48.06183" lon="6.98477">
        <ele>987.82</ele>
        <time>2021-06-23T09:47:25Z</time>
      </trkpt>
      <trkpt lat="48.06186" lon="6.98459">
        <ele>988.2</ele>
        <time>2021-06-23T09:47:27Z</time>
      </trkpt>
      <trkpt lat="48.0619" lon="6.98444">
        <ele>990.45</ele>
        <time>2021-06-23T09:47:29Z</time>
      </trkpt>
      <trkpt lat="48.06207" lon="6.98398">
        <ele>998.03</ele>
        <time>2021-06-23T09:47:31Z</time>
      </trkpt>
      <trkpt lat="48.06224" lon="6.98341">
        <ele>986.11</ele>
        <time>2021-06-23T09:47:33Z</time>
      </trkpt>
      <trkpt lat="48.06228" lon="6.98329">
        <ele>983.7</ele>
        <time>2021-06-23T09:47:35Z</time>
      </trkpt>
      <trkpt lat="48.06235" lon="6.98316">
        <ele>984.14</ele>
        <time>2021-06-23T09:47:37Z</time>
      </trkpt>
      <trkpt lat="48.06261" lon="6.98279">
        <ele>982.95</ele>
        <time>2021-06-23T09:47:39Z</time>
      </trkpt>
      <trkpt lat="48.06291" lon="6.9824">
        <ele>977.67</ele>
        <time>2021-06-23T09:47:41Z</time>
      </trkpt>
      <trkpt lat="48.06338" lon="6.98185">
        <ele>981.91</ele>
        <time>2021-06-23T09:47:43Z</time>
      </trkpt>
      <trkpt lat="48.0635" lon="6.98168">
        <ele>981.84</ele>
        <time>2021-06-23T09:47:45Z</time>
      </trkpt>
      <trkpt lat="48.06382" lon="6.98118">
        <ele>979.54</ele>
        <time>2021-06-23T09:47:47Z</time>
      </trkpt>
      <trkpt lat="48.06413" lon="6.98088">
        <ele>977.39</ele>
        <time>2021-06-23T09:47:49Z</time>
      </trkpt>
      <trkpt lat="48.06439" lon="6.98064">
        <ele>979.65</ele>
        <time>2021-06-23T09:47:50Z</time>
      </trkpt>
      <trkpt lat="48.06472" lon="6.98045">
        <ele>974.49</ele>
        <time>2021-06-23T09:47:52Z</time>
      </trkpt>
      <trkpt lat="48.06488" lon="6.9804">
        <ele>972.7</ele>
        <time>2021-06-23T09:47:54Z</time>
      </trkpt>
      <trkpt lat="48.06561" lon="6.98027">
        <ele>976.69</ele>
        <time>2021-06-23T09:47:56Z</time>
      </trkpt>
      <trkpt lat="48.06574" lon="6.98018">
        <ele>979.98</ele>
        <time>2021-06-23T09:47:58Z</time>
      </trkpt>
      <trkpt lat="48.06579" lon="6.98002">
        <ele>981.11</ele>
        <time>2021-06-23T09:48:00Z</time>
      </trkpt>
      <trkpt lat="48.06579" lon="6.98002">
        <ele>981.11</ele>
        <time>2021-06-23T09:48:00Z</time>
      </trkpt>
      <trkpt lat="48.0658" lon="6.97994">
        <ele>981.14</ele>
        <time>2021-06-23T09:48:02Z</time>
      </trkpt>
      <trkpt lat="48.06577" lon="6.97979">
        <ele>979.63</ele>
        <time>2021-06-23T09:48:04Z</time>
      </trkpt>
      <trkpt lat="48.06535" lon="6.97888">
        <ele>971.41</ele>
        <time>2021-06-23T09:48:06Z</time>
      </trkpt>
      <trkpt lat="48.06521" lon="6.97853">
        <ele>970.09</ele>
        <time>2021-06-23T09:48:08Z</time>
      </trkpt>
      <trkpt lat="48.06506" lon="6.97808">
        <ele>967.1</ele>
        <time>2021-06-23T09:48:10Z</time>
      </trkpt>
      <trkpt lat="48.06502" lon="6.9779">
        <ele>963.43</ele>
        <time>2021-06-23T09:48:13Z</time>
      </trkpt>
      <trkpt lat="48.06499" lon="6.9777">
        <ele>959.21</ele>
        <time>2021-06-23T09:48:15Z</time>
      </trkpt>
      <trkpt lat="48.06498" lon="6.97714">
        <ele>950.96</ele>
        <time>2021-06-23T09:48:17Z</time>
      </trkpt>
      <trkpt lat="48.06505" lon="6.97632">
        <ele>949.16</ele>
        <time>2021-06-23T09:48:19Z</time>
      </trkpt>
      <trkpt lat="48.06502" lon="6.97608">
        <ele>950.36</ele>
        <time>2021-06-23T09:48:21Z</time>
      </trkpt>
      <trkpt lat="48.06497" lon="6.9759">
        <ele>950.28</ele>
        <time>2021-06-23T09:48:23Z</time>
      </trkpt>
      <trkpt lat="48.06477" lon="6.97543">
        <ele>946.99</ele>
        <time>2021-06-23T09:48:25Z</time>
      </trkpt>
      <trkpt lat="48.06468" lon="6.9751">
        <ele>941.21</ele>
        <time>2021-06-23T09:48:27Z</time>
      </trkpt>
      <trkpt lat="48.06463" lon="6.97481">
        <ele>938.58</ele>
        <time>2021-06-23T09:48:29Z</time>
      </trkpt>
      <trkpt lat="48.06459" lon="6.97409">
        <ele>938.08</ele>
        <time>2021-06-23T09:48:31Z</time>
      </trkpt>
      <trkpt lat="48.06459" lon="6.97362">
        <ele>932.85</ele>
        <time>2021-06-23T09:48:33Z</time>
      </trkpt>
      <trkpt lat="48.06464" lon="6.97324">
        <ele>929.5</ele>
        <time>2021-06-23T09:48:35Z</time>
      </trkpt>
      <trkpt lat="48.06487" lon="6.97236">
        <ele>922.02</ele>
        <time>2021-06-23T09:48:37Z</time>
      </trkpt>
      <trkpt lat="48.06487" lon="6.97236">
        <ele>922.02</ele>
        <time>2021-06-23T09:48:37Z</time>
      </trkpt>
      <trkpt lat="48.06567" lon="6.9704">
        <ele>919.89</ele>
        <time>2021-06-23T09:48:43Z</time>
      </trkpt>
      <trkpt lat="48.06622" lon="6.96926">
        <ele>910.31</ele>
        <time>2021-06-23T09:48:49Z</time>
      </trkpt>
      <trkpt lat="48.0673" lon="6.96719">
        <ele>902.92</ele>
        <time>2021-06-23T09:48:55Z</time>
      </trkpt>
      <trkpt lat="48.06818" lon="6.96601">
        <ele>897.34</ele>
        <time>2021-06-23T09:49:02Z</time>
      </trkpt>
      <trkpt lat="48.06837" lon="6.96567">
        <ele>896.33</ele>
        <time>2021-06-23T09:49:08Z</time>
      </trkpt>
      <trkpt lat="48.06846" lon="6.96547">
        <ele>896.3</ele>
        <time>2021-06-23T09:49:14Z</time>
      </trkpt>
      <trkpt lat="48.06853" lon="6.96517">
        <ele>894.89</ele>
        <time>2021-06-23T09:49:20Z</time>
      </trkpt>
      <trkpt lat="48.06853" lon="6.96472">
        <ele>890.22</ele>
        <time>2021-06-23T09:49:26Z</time>
      </trkpt>
      <trkpt lat="48.06858" lon="6.96442">
        <ele>888.86</ele>
        <time>2021-06-23T09:49:32Z</time>
      </trkpt>
      <trkpt lat="48.06934" lon="6.96169">
        <ele>878.84</ele>
        <time>2021-06-23T09:49:39Z</time>
      </trkpt>
      <trkpt lat="48.07014" lon="6.95906">
        <ele>868.57</ele>
        <time>2021-06-23T09:49:45Z</time>
      </trkpt>
      <trkpt lat="48.07049" lon="6.95802">
        <ele>863.17</ele>
        <time>2021-06-23T09:49:51Z</time>
      </trkpt>
      <trkpt lat="48.07096" lon="6.95686">
        <ele>844.52</ele>
        <time>2021-06-23T09:49:57Z</time>
      </trkpt>
      <trkpt lat="48.0716" lon="6.95586">
        <ele>848.87</ele>
        <time>2021-06-23T09:50:03Z</time>
      </trkpt>
      <trkpt lat="48.0716" lon="6.95586">
        <ele>848.87</ele>
        <time>2021-06-23T09:50:03Z</time>
      </trkpt>
      <trkpt lat="48.07282" lon="6.95445">
        <ele>837</ele>
        <time>2021-06-23T09:50:09Z</time>
      </trkpt>
      <trkpt lat="48.07385" lon="6.95346">
        <ele>831.55</ele>
        <time>2021-06-23T09:50:15Z</time>
      </trkpt>
      <trkpt lat="48.0743" lon="6.95309">
        <ele>824.18</ele>
        <time>2021-06-23T09:50:21Z</time>
      </trkpt>
      <trkpt lat="48.07497" lon="6.95266">
        <ele>818.35</ele>
        <time>2021-06-23T09:50:26Z</time>
      </trkpt>
      <trkpt lat="48.07596" lon="6.95209">
        <ele>812.82</ele>
        <time>2021-06-23T09:50:32Z</time>
      </trkpt>
      <trkpt lat="48.07695" lon="6.95159">
        <ele>808.52</ele>
        <time>2021-06-23T09:50:38Z</time>
      </trkpt>
      <trkpt lat="48.07778" lon="6.95105">
        <ele>794.94</ele>
        <time>2021-06-23T09:50:44Z</time>
      </trkpt>
      <trkpt lat="48.07852" lon="6.95047">
        <ele>786.17</ele>
        <time>2021-06-23T09:50:49Z</time>
      </trkpt>
      <trkpt lat="48.07997" lon="6.94913">
        <ele>778.29</ele>
        <time>2021-06-23T09:50:55Z</time>
      </trkpt>
      <trkpt lat="48.08026" lon="6.94894">
        <ele>773.62</ele>
        <time>2021-06-23T09:51:01Z</time>
      </trkpt>
      <trkpt lat="48.08212" lon="6.94784">
        <ele>753.89</ele>
        <time>2021-06-23T09:51:07Z</time>
      </trkpt>
      <trkpt lat="48.08257" lon="6.94755">
        <ele>748.99</ele>
        <time>2021-06-23T09:51:12Z</time>
      </trkpt>
      <trkpt lat="48.08268" lon="6.94746">
        <ele>748.13</ele>
        <time>2021-06-23T09:51:18Z</time>
      </trkpt>
      <trkpt lat="48.08292" lon="6.94719">
        <ele>745.82</ele>
        <time>2021-06-23T09:51:24Z</time>
      </trkpt>
      <trkpt lat="48.08306" lon="6.94697">
        <ele>745.2</ele>
        <time>2021-06-23T09:51:30Z</time>
      </trkpt>
      <trkpt lat="48.08306" lon="6.94697">
        <ele>746.16</ele>
        <time>2021-06-23T09:51:30Z</time>
      </trkpt>
      <trkpt lat="48.08306" lon="6.94697">
        <ele>746.16</ele>
        <time>2021-06-23T09:51:30Z</time>
      </trkpt>
      <trkpt lat="48.08306" lon="6.94697">
        <ele>745.2</ele>
        <time>2021-06-23T09:51:30Z</time>
      </trkpt>
      <trkpt lat="48.08317" lon="6.94662">
        <ele>745.37</ele>
        <time>2021-06-23T09:51:41Z</time>
      </trkpt>
      <trkpt lat="48.08321" lon="6.94642">
        <ele>746.08</ele>
        <time>2021-06-23T09:51:52Z</time>
      </trkpt>
      <trkpt lat="48.08323" lon="6.94598">
        <ele>746.53</ele>
        <time>2021-06-23T09:52:03Z</time>
      </trkpt>
      <trkpt lat="48.0831" lon="6.94487">
        <ele>748.52</ele>
        <time>2021-06-23T09:52:14Z</time>
      </trkpt>
      <trkpt lat="48.08312" lon="6.94414">
        <ele>747.72</ele>
        <time>2021-06-23T09:52:25Z</time>
      </trkpt>
      <trkpt lat="48.0835" lon="6.9373">
        <ele>733.76</ele>
        <time>2021-06-23T09:52:36Z</time>
      </trkpt>
      <trkpt lat="48.08381" lon="6.93299">
        <ele>726.28</ele>
        <time>2021-06-23T09:52:47Z</time>
      </trkpt>
      <trkpt lat="48.08392" lon="6.93125">
        <ele>730.16</ele>
        <time>2021-06-23T09:52:58Z</time>
      </trkpt>
      <trkpt lat="48.08399" lon="6.92975">
        <ele>726.57</ele>
        <time>2021-06-23T09:53:09Z</time>
      </trkpt>
      <trkpt lat="48.08399" lon="6.92929">
        <ele>725.7</ele>
        <time>2021-06-23T09:53:20Z</time>
      </trkpt>
      <trkpt lat="48.08396" lon="6.9288">
        <ele>724.47</ele>
        <time>2021-06-23T09:53:31Z</time>
      </trkpt>
      <trkpt lat="48.0839" lon="6.92817">
        <ele>723.16</ele>
        <time>2021-06-23T09:53:42Z</time>
      </trkpt>
      <trkpt lat="48.08385" lon="6.92705">
        <ele>723.7</ele>
        <time>2021-06-23T09:53:53Z</time>
      </trkpt>
      <trkpt lat="48.08377" lon="6.92651">
        <ele>721.37</ele>
        <time>2021-06-23T09:54:04Z</time>
      </trkpt>
      <trkpt lat="48.08377" lon="6.92651">
        <ele>721.37</ele>
        <time>2021-06-23T09:54:04Z</time>
      </trkpt>
      <trkpt lat="48.08377" lon="6.92651">
        <ele>721.84</ele>
        <time>2021-06-23T09:54:04Z</time>
      </trkpt>
      <trkpt lat="48.08433" lon="6.92655">
        <ele>728.55</ele>
        <time>2021-06-23T09:54:07Z</time>
      </trkpt>
      <trkpt lat="48.08468" lon="6.92661">
        <ele>730.8</ele>
        <time>2021-06-23T09:54:11Z</time>
      </trkpt>
      <trkpt lat="48.08474" lon="6.92658">
        <ele>731.13</ele>
        <time>2021-06-23T09:54:15Z</time>
      </trkpt>
      <trkpt lat="48.08478" lon="6.92652">
        <ele>731.41</ele>
        <time>2021-06-23T09:54:18Z</time>
      </trkpt>
      <trkpt lat="48.0848" lon="6.92644">
        <ele>731.57</ele>
        <time>2021-06-23T09:54:22Z</time>
      </trkpt>
      <trkpt lat="48.08479" lon="6.92636">
        <ele>731.81</ele>
        <time>2021-06-23T09:54:26Z</time>
      </trkpt>
      <trkpt lat="48.08476" lon="6.9263">
        <ele>732.3</ele>
        <time>2021-06-23T09:54:29Z</time>
      </trkpt>
      <trkpt lat="48.08459" lon="6.9261">
        <ele>732.73</ele>
        <time>2021-06-23T09:54:33Z</time>
      </trkpt>
      <trkpt lat="48.08457" lon="6.92599">
        <ele>733.86</ele>
        <time>2021-06-23T09:54:36Z</time>
      </trkpt>
      <trkpt lat="48.08458" lon="6.9259">
        <ele>735.16</ele>
        <time>2021-06-23T09:54:40Z</time>
      </trkpt>
      <trkpt lat="48.08462" lon="6.92582">
        <ele>736.5</ele>
        <time>2021-06-23T09:54:44Z</time>
      </trkpt>
      <trkpt lat="48.08473" lon="6.92568">
        <ele>738.06</ele>
        <time>2021-06-23T09:54:47Z</time>
      </trkpt>
      <trkpt lat="48.08482" lon="6.92561">
        <ele>739.02</ele>
        <time>2021-06-23T09:54:51Z</time>
      </trkpt>
      <trkpt lat="48.08555" lon="6.92534">
        <ele>743.43</ele>
        <time>2021-06-23T09:54:55Z</time>
      </trkpt>
      <trkpt lat="48.08589" lon="6.92528">
        <ele>745.31</ele>
        <time>2021-06-23T09:54:58Z</time>
      </trkpt>
      <trkpt lat="48.08589" lon="6.92528">
        <ele>745.31</ele>
        <time>2021-06-23T09:54:58Z</time>
      </trkpt>
      <trkpt lat="48.08609" lon="6.92541">
        <ele>752.4</ele>
        <time>2021-06-23T09:55:03Z</time>
      </trkpt>
      <trkpt lat="48.08621" lon="6.92557">
        <ele>755.1</ele>
        <time>2021-06-23T09:55:09Z</time>
      </trkpt>
      <trkpt lat="48.08664" lon="6.92625">
        <ele>755.35</ele>
        <time>2021-06-23T09:55:15Z</time>
      </trkpt>
      <trkpt lat="48.08695" lon="6.92657">
        <ele>761.14</ele>
        <time>2021-06-23T09:55:21Z</time>
      </trkpt>
      <trkpt lat="48.08723" lon="6.92691">
        <ele>765.46</ele>
        <time>2021-06-23T09:55:26Z</time>
      </trkpt>
      <trkpt lat="48.08725" lon="6.92703">
        <ele>765.4</ele>
        <time>2021-06-23T09:55:32Z</time>
      </trkpt>
      <trkpt lat="48.08723" lon="6.92708">
        <ele>764.9</ele>
        <time>2021-06-23T09:55:33Z</time>
      </trkpt>
    </trkseg>
  </trk>
</gpx>